<?xml version='1.0' encoding='UTF-8'?><gpx version="1.1" creator="JPX - https://github.com/jenetics/jpx" xmlns="http://www.topografix.com/GPX/1/1"><trk><trkseg><trkpt lat="38.12936" lon="14.9046983"><ele>454.99999999999994</ele><time>2026-05-01T08:43:03.717Z</time></trkpt><trkpt lat="38.129405" lon="14.9046333"><ele>455.0</ele><time>2026-05-01T08:43:22.718Z</time></trkpt><trkpt lat="38.1293683" lon="14.904565"><ele>455.0</ele><time>2026-05-01T08:45:26.718Z</time></trkpt><trkpt lat="38.1293894" lon="14.9046763"><ele>455.0</ele><time>2026-05-01T08:49:17.718Z</time></trkpt><trkpt lat="38.1293189" lon="14.9046294"><ele>454.99999999999994</ele><time>2026-05-01T08:49:32.719Z</time></trkpt><trkpt lat="38.1292365" lon="14.9045885"><ele>455.0</ele><time>2026-05-01T08:49:34.719Z</time></trkpt><trkpt lat="38.1291544" lon="14.9045467"><ele>454.99999999999994</ele><time>2026-05-01T08:49:36.719Z</time></trkpt><trkpt lat="38.1290958" lon="14.9045167"><ele>455.0</ele><time>2026-05-01T08:49:37.719Z</time></trkpt><trkpt lat="38.129035" lon="14.904486"><ele>455.0</ele><time>2026-05-01T08:49:38.719Z</time></trkpt><trkpt lat="38.1289216" lon="14.9044295"><ele>455.0</ele><time>2026-05-01T08:49:40.719Z</time></trkpt><trkpt lat="38.1288622" lon="14.9044007"><ele>454.99999999999994</ele><time>2026-05-01T08:49:41.719Z</time></trkpt><trkpt lat="38.1287519" lon="14.9043474"><ele>455.0</ele><time>2026-05-01T08:49:43.719Z</time></trkpt><trkpt lat="38.1286331" lon="14.904311"><ele>458.0</ele><time>2026-05-01T08:49:45.719Z</time></trkpt><trkpt lat="38.1285187" lon="14.9043197"><ele>461.0</ele><time>2026-05-01T08:49:47.718Z</time></trkpt><trkpt lat="38.1284433" lon="14.9043479"><ele>464.0</ele><time>2026-05-01T08:49:49.719Z</time></trkpt><trkpt lat="38.1283813" lon="14.9044037"><ele>467.0</ele><time>2026-05-01T08:49:51.719Z</time></trkpt><trkpt lat="38.1283246" lon="14.904499"><ele>470.0</ele><time>2026-05-01T08:49:53.719Z</time></trkpt><trkpt lat="38.1282709" lon="14.9046229"><ele>473.8333333333333</ele><time>2026-05-01T08:49:55.718Z</time></trkpt><trkpt lat="38.128216" lon="14.9047531"><ele>477.66666666666663</ele><time>2026-05-01T08:49:57.719Z</time></trkpt><trkpt lat="38.1281789" lon="14.9048207"><ele>481.5</ele><time>2026-05-01T08:49:58.719Z</time></trkpt><trkpt lat="38.1281259" lon="14.904908"><ele>485.33333333333337</ele><time>2026-05-01T08:49:59.719Z</time></trkpt><trkpt lat="38.1280689" lon="14.9049989"><ele>489.1666666666667</ele><time>2026-05-01T08:50:00.719Z</time></trkpt><trkpt lat="38.1280133" lon="14.9050756"><ele>493.0</ele><time>2026-05-01T08:50:01.719Z</time></trkpt><trkpt lat="38.1279302" lon="14.9051511"><ele>493.00000000000006</ele><time>2026-05-01T08:50:03.719Z</time></trkpt><trkpt lat="38.1278823" lon="14.9050946"><ele>493.0</ele><time>2026-05-01T08:50:05.719Z</time></trkpt><trkpt lat="38.127871" lon="14.9049626"><ele>493.0</ele><time>2026-05-01T08:50:07.719Z</time></trkpt><trkpt lat="38.1278526" lon="14.9048276"><ele>493.0</ele><time>2026-05-01T08:50:09.719Z</time></trkpt><trkpt lat="38.1278418" lon="14.9047231"><ele>493.00000000000006</ele><time>2026-05-01T08:50:11.719Z</time></trkpt><trkpt lat="38.1278817" lon="14.9046601"><ele>493.0</ele><time>2026-05-01T08:50:32.719Z</time></trkpt><trkpt lat="38.1278849" lon="14.9045454"><ele>493.00000000000006</ele><time>2026-05-01T08:50:35.719Z</time></trkpt><trkpt lat="38.127874" lon="14.9044338"><ele>493.0</ele><time>2026-05-01T08:50:38.718Z</time></trkpt><trkpt lat="38.1278791" lon="14.9042982"><ele>493.0</ele><time>2026-05-01T08:50:40.719Z</time></trkpt><trkpt lat="38.1278856" lon="14.9041645"><ele>493.0</ele><time>2026-05-01T08:50:42.719Z</time></trkpt><trkpt lat="38.1279076" lon="14.9040877"><ele>493.00000000000006</ele><time>2026-05-01T08:50:45.719Z</time></trkpt><trkpt lat="38.1279227" lon="14.9039865"><ele>493.0</ele><time>2026-05-01T08:50:47.719Z</time></trkpt><trkpt lat="38.1279516" lon="14.9038927"><ele>496.59999999999997</ele><time>2026-05-01T08:50:49.719Z</time></trkpt><trkpt lat="38.1279993" lon="14.9038078"><ele>500.19999999999993</ele><time>2026-05-01T08:50:51.719Z</time></trkpt><trkpt lat="38.1280199" lon="14.9037276"><ele>503.8</ele><time>2026-05-01T08:50:53.719Z</time></trkpt><trkpt lat="38.1279802" lon="14.9036129"><ele>507.4</ele><time>2026-05-01T08:50:55.719Z</time></trkpt><trkpt lat="38.1279307" lon="14.9035068"><ele>511.0</ele><time>2026-05-01T08:50:57.718Z</time></trkpt><trkpt lat="38.1278744" lon="14.9033721"><ele>512.4</ele><time>2026-05-01T08:50:59.719Z</time></trkpt><trkpt lat="38.1278449" lon="14.9032977"><ele>513.8</ele><time>2026-05-01T08:51:00.718Z</time></trkpt><trkpt lat="38.1278055" lon="14.9031741"><ele>515.1999999999999</ele><time>2026-05-01T08:51:02.719Z</time></trkpt><trkpt lat="38.1277727" lon="14.903092"><ele>516.6</ele><time>2026-05-01T08:51:04.719Z</time></trkpt><trkpt lat="38.127719" lon="14.9029788"><ele>518.0</ele><time>2026-05-01T08:51:06.719Z</time></trkpt><trkpt lat="38.1276507" lon="14.9028648"><ele>518.0</ele><time>2026-05-01T08:51:08.719Z</time></trkpt><trkpt lat="38.1275785" lon="14.9027848"><ele>518.0</ele><time>2026-05-01T08:51:10.719Z</time></trkpt><trkpt lat="38.1275141" lon="14.9027019"><ele>518.0</ele><time>2026-05-01T08:51:12.719Z</time></trkpt><trkpt lat="38.1274875" lon="14.9025742"><ele>518.0</ele><time>2026-05-01T08:51:14.719Z</time></trkpt><trkpt lat="38.1274636" lon="14.902442"><ele>518.0</ele><time>2026-05-01T08:51:16.719Z</time></trkpt><trkpt lat="38.12745" lon="14.9023262"><ele>519.5</ele><time>2026-05-01T08:51:18.719Z</time></trkpt><trkpt lat="38.1274251" lon="14.9022309"><ele>521.0</ele><time>2026-05-01T08:51:20.719Z</time></trkpt><trkpt lat="38.1273558" lon="14.9021896"><ele>522.5</ele><time>2026-05-01T08:51:22.719Z</time></trkpt><trkpt lat="38.1272786" lon="14.9022275"><ele>524.0</ele><time>2026-05-01T08:51:24.719Z</time></trkpt><trkpt lat="38.1272236" lon="14.9023463"><ele>525.5</ele><time>2026-05-01T08:51:26.718Z</time></trkpt><trkpt lat="38.1272046" lon="14.9024426"><ele>527.0</ele><time>2026-05-01T08:51:27.719Z</time></trkpt><trkpt lat="38.1272014" lon="14.9025477"><ele>536.3333333333333</ele><time>2026-05-01T08:51:28.718Z</time></trkpt><trkpt lat="38.1272172" lon="14.902657"><ele>545.6666666666666</ele><time>2026-05-01T08:51:29.719Z</time></trkpt><trkpt lat="38.1272424" lon="14.9027504"><ele>555.0</ele><time>2026-05-01T08:51:30.719Z</time></trkpt><trkpt lat="38.1272632" lon="14.9028283"><ele>564.3333333333334</ele><time>2026-05-01T08:51:31.719Z</time></trkpt><trkpt lat="38.1272814" lon="14.9029489"><ele>573.6666666666667</ele><time>2026-05-01T08:51:33.719Z</time></trkpt><trkpt lat="38.127304" lon="14.9028742"><ele>583.0</ele><time>2026-05-01T08:51:52.719Z</time></trkpt><trkpt lat="38.1272939" lon="14.9027812"><ele>583.0</ele><time>2026-05-01T08:51:54.719Z</time></trkpt><trkpt lat="38.1272599" lon="14.9026528"><ele>583.0</ele><time>2026-05-01T08:51:56.719Z</time></trkpt><trkpt lat="38.1272539" lon="14.9025267"><ele>583.0</ele><time>2026-05-01T08:51:58.718Z</time></trkpt><trkpt lat="38.1272622" lon="14.9024164"><ele>583.0</ele><time>2026-05-01T08:52:00.719Z</time></trkpt><trkpt lat="38.127284" lon="14.9023156"><ele>583.0</ele><time>2026-05-01T08:52:02.719Z</time></trkpt><trkpt lat="38.1273389" lon="14.9022433"><ele>573.6666666666667</ele><time>2026-05-01T08:52:04.718Z</time></trkpt><trkpt lat="38.1274193" lon="14.9022116"><ele>564.3333333333334</ele><time>2026-05-01T08:52:07.719Z</time></trkpt><trkpt lat="38.1274801" lon="14.9022839"><ele>555.0</ele><time>2026-05-01T08:52:10.719Z</time></trkpt><trkpt lat="38.1274875" lon="14.9023766"><ele>545.6666666666666</ele><time>2026-05-01T08:52:12.719Z</time></trkpt><trkpt lat="38.1274726" lon="14.902491"><ele>536.3333333333333</ele><time>2026-05-01T08:52:14.719Z</time></trkpt><trkpt lat="38.127488" lon="14.9026006"><ele>527.0</ele><time>2026-05-01T08:52:16.719Z</time></trkpt><trkpt lat="38.1275213" lon="14.9026976"><ele>525.7142857142858</ele><time>2026-05-01T08:52:18.719Z</time></trkpt><trkpt lat="38.1275538" lon="14.9027751"><ele>524.4285714285714</ele><time>2026-05-01T08:52:20.719Z</time></trkpt><trkpt lat="38.1276061" lon="14.9028271"><ele>523.1428571428571</ele><time>2026-05-01T08:52:22.719Z</time></trkpt><trkpt lat="38.1276554" lon="14.9028807"><ele>521.8571428571429</ele><time>2026-05-01T08:52:27.719Z</time></trkpt><trkpt lat="38.1276884" lon="14.9029554"><ele>520.5714285714286</ele><time>2026-05-01T08:54:57.719Z</time></trkpt><trkpt lat="38.1277306" lon="14.9030333"><ele>519.2857142857143</ele><time>2026-05-01T08:54:59.719Z</time></trkpt><trkpt lat="38.1277901" lon="14.9031176"><ele>518.0</ele><time>2026-05-01T08:55:02.719Z</time></trkpt><trkpt lat="38.1278342" lon="14.9031949"><ele>518.0</ele><time>2026-05-01T08:55:06.719Z</time></trkpt><trkpt lat="38.1278758" lon="14.9032868"><ele>518.0</ele><time>2026-05-01T08:55:09.719Z</time></trkpt><trkpt lat="38.1279074" lon="14.9033747"><ele>518.0</ele><time>2026-05-01T08:55:11.719Z</time></trkpt><trkpt lat="38.1279399" lon="14.9034599"><ele>518.0</ele><time>2026-05-01T08:55:13.719Z</time></trkpt><trkpt lat="38.127982" lon="14.9035677"><ele>518.0</ele><time>2026-05-01T08:55:16.719Z</time></trkpt><trkpt lat="38.1280202" lon="14.9036538"><ele>518.0</ele><time>2026-05-01T08:55:18.719Z</time></trkpt><trkpt lat="38.1280168" lon="14.9037673"><ele>516.8333333333333</ele><time>2026-05-01T08:55:21.719Z</time></trkpt><trkpt lat="38.1279732" lon="14.9038363"><ele>515.6666666666666</ele><time>2026-05-01T08:55:23.719Z</time></trkpt><trkpt lat="38.1279258" lon="14.9039053"><ele>514.5</ele><time>2026-05-01T08:55:25.718Z</time></trkpt><trkpt lat="38.1278794" lon="14.9040154"><ele>513.3333333333334</ele><time>2026-05-01T08:55:27.72Z</time></trkpt><trkpt lat="38.1278644" lon="14.9041203"><ele>512.1666666666667</ele><time>2026-05-01T08:55:29.72Z</time></trkpt><trkpt lat="38.1278484" lon="14.9042251"><ele>511.0</ele><time>2026-05-01T08:55:32.72Z</time></trkpt><trkpt lat="38.1278251" lon="14.9043304"><ele>508.00000000000006</ele><time>2026-05-01T08:55:34.72Z</time></trkpt><trkpt lat="38.1278096" lon="14.9044272"><ele>505.0</ele><time>2026-05-01T08:55:36.72Z</time></trkpt><trkpt lat="38.1278085" lon="14.9045156"><ele>502.0</ele><time>2026-05-01T08:55:39.72Z</time></trkpt><trkpt lat="38.1278024" lon="14.9046151"><ele>499.0</ele><time>2026-05-01T08:55:42.719Z</time></trkpt><trkpt lat="38.1278239" lon="14.9047169"><ele>496.00000000000006</ele><time>2026-05-01T08:55:45.72Z</time></trkpt><trkpt lat="38.1278425" lon="14.9048032"><ele>493.0</ele><time>2026-05-01T08:55:47.72Z</time></trkpt><trkpt lat="38.1278579" lon="14.9049035"><ele>493.00000000000006</ele><time>2026-05-01T08:55:49.72Z</time></trkpt><trkpt lat="38.1278862" lon="14.9050051"><ele>493.0</ele><time>2026-05-01T08:55:51.719Z</time></trkpt><trkpt lat="38.1279192" lon="14.905087"><ele>493.0</ele><time>2026-05-01T08:55:53.72Z</time></trkpt><trkpt lat="38.1280044" lon="14.9050834"><ele>493.0</ele><time>2026-05-01T08:55:56.72Z</time></trkpt><trkpt lat="38.1280667" lon="14.905029"><ele>493.00000000000006</ele><time>2026-05-01T08:55:58.72Z</time></trkpt><trkpt lat="38.128117" lon="14.9049665"><ele>493.0</ele><time>2026-05-01T08:56:00.72Z</time></trkpt><trkpt lat="38.1281437" lon="14.9048869"><ele>493.00000000000006</ele><time>2026-05-01T08:56:02.72Z</time></trkpt><trkpt lat="38.1281851" lon="14.9048257"><ele>493.0</ele><time>2026-05-01T08:56:04.72Z</time></trkpt><trkpt lat="38.1282299" lon="14.9047655"><ele>493.0</ele><time>2026-05-01T08:56:06.72Z</time></trkpt><trkpt lat="38.1282726" lon="14.904683"><ele>493.0</ele><time>2026-05-01T08:56:08.72Z</time></trkpt><trkpt lat="38.1283144" lon="14.904583"><ele>493.00000000000006</ele><time>2026-05-01T08:56:10.72Z</time></trkpt><trkpt lat="38.1283415" lon="14.9044804"><ele>493.0</ele><time>2026-05-01T08:56:12.72Z</time></trkpt><trkpt lat="38.1283928" lon="14.9044079"><ele>488.4</ele><time>2026-05-01T08:56:14.72Z</time></trkpt><trkpt lat="38.1284598" lon="14.9043572"><ele>483.79999999999995</ele><time>2026-05-01T08:56:16.72Z</time></trkpt><trkpt lat="38.1285451" lon="14.9043418"><ele>479.2</ele><time>2026-05-01T08:56:18.719Z</time></trkpt><trkpt lat="38.1286376" lon="14.9043353"><ele>474.6</ele><time>2026-05-01T08:56:20.72Z</time></trkpt><trkpt lat="38.1287297" lon="14.9043635"><ele>470.0</ele><time>2026-05-01T08:56:22.72Z</time></trkpt><trkpt lat="38.1288298" lon="14.9043918"><ele>470.0</ele><time>2026-05-01T08:56:24.719Z</time></trkpt><trkpt lat="38.1289221" lon="14.9044419"><ele>470.0</ele><time>2026-05-01T08:56:26.72Z</time></trkpt><trkpt lat="38.1290115" lon="14.9045066"><ele>470.0</ele><time>2026-05-01T08:56:28.72Z</time></trkpt><trkpt lat="38.1291127" lon="14.9045672"><ele>470.0</ele><time>2026-05-01T08:56:30.72Z</time></trkpt><trkpt lat="38.1292297" lon="14.9046269"><ele>470.0</ele><time>2026-05-01T08:56:32.72Z</time></trkpt><trkpt lat="38.1293376" lon="14.9046798"><ele>467.49999999999994</ele><time>2026-05-01T08:56:34.719Z</time></trkpt><trkpt lat="38.1294241" lon="14.9047533"><ele>465.0</ele><time>2026-05-01T08:56:36.72Z</time></trkpt><trkpt lat="38.1295005" lon="14.9048238"><ele>462.5</ele><time>2026-05-01T08:56:38.72Z</time></trkpt><trkpt lat="38.1295692" lon="14.9049073"><ele>460.0</ele><time>2026-05-01T08:56:40.72Z</time></trkpt><trkpt lat="38.1295991" lon="14.9049916"><ele>457.49999999999994</ele><time>2026-05-01T08:56:43.72Z</time></trkpt><trkpt lat="38.1295331" lon="14.9049569"><ele>455.0</ele><time>2026-05-01T08:56:47.72Z</time></trkpt><trkpt lat="38.1294427" lon="14.905022"><ele>462.25</ele><time>2026-05-01T08:56:50.72Z</time></trkpt><trkpt lat="38.1293979" lon="14.9051386"><ele>469.5</ele><time>2026-05-01T08:56:52.72Z</time></trkpt><trkpt lat="38.1293754" lon="14.9052831"><ele>476.75</ele><time>2026-05-01T08:56:54.72Z</time></trkpt><trkpt lat="38.1293923" lon="14.9054215"><ele>484.0</ele><time>2026-05-01T08:56:56.72Z</time></trkpt><trkpt lat="38.1294511" lon="14.9055695"><ele>484.0</ele><time>2026-05-01T08:56:58.72Z</time></trkpt><trkpt lat="38.1295222" lon="14.9056457"><ele>484.0</ele><time>2026-05-01T08:56:59.72Z</time></trkpt><trkpt lat="38.1295962" lon="14.9057246"><ele>484.0</ele><time>2026-05-01T08:57:00.72Z</time></trkpt><trkpt lat="38.1296622" lon="14.9058126"><ele>484.0</ele><time>2026-05-01T08:57:01.72Z</time></trkpt><trkpt lat="38.1297054" lon="14.905919"><ele>484.0</ele><time>2026-05-01T08:57:02.72Z</time></trkpt><trkpt lat="38.1297199" lon="14.9060439"><ele>488.00000000000006</ele><time>2026-05-01T08:57:03.72Z</time></trkpt><trkpt lat="38.1297331" lon="14.9061605"><ele>492.0</ele><time>2026-05-01T08:57:04.72Z</time></trkpt><trkpt lat="38.1297544" lon="14.9062579"><ele>496.0</ele><time>2026-05-01T08:57:05.72Z</time></trkpt><trkpt lat="38.1297825" lon="14.9063347"><ele>500.0</ele><time>2026-05-01T08:57:06.72Z</time></trkpt><trkpt lat="38.1298349" lon="14.9063908"><ele>504.00000000000006</ele><time>2026-05-01T08:57:07.72Z</time></trkpt><trkpt lat="38.1298934" lon="14.9065076"><ele>508.0</ele><time>2026-05-01T08:57:09.72Z</time></trkpt><trkpt lat="38.1298895" lon="14.9066606"><ele>508.6666666666667</ele><time>2026-05-01T08:57:11.72Z</time></trkpt><trkpt lat="38.1298698" lon="14.9067555"><ele>509.33333333333337</ele><time>2026-05-01T08:57:12.72Z</time></trkpt><trkpt lat="38.1298477" lon="14.9068632"><ele>510.0</ele><time>2026-05-01T08:57:13.719Z</time></trkpt><trkpt lat="38.1298267" lon="14.9069753"><ele>510.66666666666663</ele><time>2026-05-01T08:57:14.72Z</time></trkpt><trkpt lat="38.129805" lon="14.9070849"><ele>511.3333333333333</ele><time>2026-05-01T08:57:15.72Z</time></trkpt><trkpt lat="38.12978" lon="14.9072067"><ele>512.0</ele><time>2026-05-01T08:57:16.72Z</time></trkpt><trkpt lat="38.1297467" lon="14.9073283"><ele>512.0</ele><time>2026-05-01T08:57:17.72Z</time></trkpt><trkpt lat="38.129705" lon="14.9074767"><ele>512.0</ele><time>2026-05-01T08:57:18.72Z</time></trkpt><trkpt lat="38.129655" lon="14.9076283"><ele>512.0</ele><time>2026-05-01T08:57:19.72Z</time></trkpt><trkpt lat="38.1296283" lon="14.907795"><ele>512.0</ele><time>2026-05-01T08:57:20.72Z</time></trkpt><trkpt lat="38.1296067" lon="14.9079483"><ele>512.8000000000001</ele><time>2026-05-01T08:57:21.719Z</time></trkpt><trkpt lat="38.129605" lon="14.9080933"><ele>513.6</ele><time>2026-05-01T08:57:22.72Z</time></trkpt><trkpt lat="38.129615" lon="14.9082267"><ele>514.4000000000001</ele><time>2026-05-01T08:57:23.72Z</time></trkpt><trkpt lat="38.129645" lon="14.9083417"><ele>515.2</ele><time>2026-05-01T08:57:24.72Z</time></trkpt><trkpt lat="38.1296633" lon="14.9084267"><ele>516.0</ele><time>2026-05-01T08:57:25.72Z</time></trkpt><trkpt lat="38.1297583" lon="14.9085183"><ele>515.4</ele><time>2026-05-01T08:57:27.719Z</time></trkpt><trkpt lat="38.1298267" lon="14.9085167"><ele>514.8</ele><time>2026-05-01T08:57:28.72Z</time></trkpt><trkpt lat="38.1299217" lon="14.9085"><ele>514.1999999999999</ele><time>2026-05-01T08:57:29.72Z</time></trkpt><trkpt lat="38.1300183" lon="14.90843"><ele>513.6</ele><time>2026-05-01T08:57:30.72Z</time></trkpt><trkpt lat="38.1301183" lon="14.9083617"><ele>513.0</ele><time>2026-05-01T08:57:31.72Z</time></trkpt><trkpt lat="38.1302167" lon="14.9082867"><ele>508.79999999999995</ele><time>2026-05-01T08:57:32.72Z</time></trkpt><trkpt lat="38.1303183" lon="14.908235"><ele>504.59999999999997</ele><time>2026-05-01T08:57:33.72Z</time></trkpt><trkpt lat="38.130415" lon="14.908205"><ele>500.40000000000003</ele><time>2026-05-01T08:57:34.72Z</time></trkpt><trkpt lat="38.1305117" lon="14.90817"><ele>496.20000000000005</ele><time>2026-05-01T08:57:35.72Z</time></trkpt><trkpt lat="38.1306183" lon="14.908135"><ele>492.0</ele><time>2026-05-01T08:57:36.72Z</time></trkpt><trkpt lat="38.1307533" lon="14.9080983"><ele>492.0</ele><time>2026-05-01T08:57:37.72Z</time></trkpt><trkpt lat="38.130925" lon="14.90804"><ele>492.0</ele><time>2026-05-01T08:57:38.72Z</time></trkpt><trkpt lat="38.131075" lon="14.908005"><ele>492.0</ele><time>2026-05-01T08:57:39.72Z</time></trkpt><trkpt lat="38.13122" lon="14.9079667"><ele>492.0</ele><time>2026-05-01T08:57:40.72Z</time></trkpt><trkpt lat="38.131345" lon="14.9079367"><ele>492.0</ele><time>2026-05-01T08:57:41.72Z</time></trkpt><trkpt lat="38.1314567" lon="14.9079117"><ele>492.0</ele><time>2026-05-01T08:57:42.72Z</time></trkpt><trkpt lat="38.1315667" lon="14.907895"><ele>492.0</ele><time>2026-05-01T08:57:43.72Z</time></trkpt><trkpt lat="38.1316833" lon="14.9078867"><ele>494.5</ele><time>2026-05-01T08:57:44.719Z</time></trkpt><trkpt lat="38.1318083" lon="14.9078867"><ele>497.0</ele><time>2026-05-01T08:57:45.72Z</time></trkpt><trkpt lat="38.131935" lon="14.9078983"><ele>499.5</ele><time>2026-05-01T08:57:46.72Z</time></trkpt><trkpt lat="38.1320383" lon="14.9079183"><ele>502.0</ele><time>2026-05-01T08:57:47.72Z</time></trkpt><trkpt lat="38.132125" lon="14.9079617"><ele>502.0</ele><time>2026-05-01T08:57:48.72Z</time></trkpt><trkpt lat="38.132185" lon="14.90803"><ele>502.00000000000006</ele><time>2026-05-01T08:57:49.72Z</time></trkpt><trkpt lat="38.1322367" lon="14.9081217"><ele>502.00000000000006</ele><time>2026-05-01T08:57:50.72Z</time></trkpt><trkpt lat="38.132265" lon="14.9082483"><ele>502.0</ele><time>2026-05-01T08:57:51.72Z</time></trkpt><trkpt lat="38.1322883" lon="14.90839"><ele>502.0</ele><time>2026-05-01T08:57:52.719Z</time></trkpt><trkpt lat="38.1323117" lon="14.90853"><ele>504.6</ele><time>2026-05-01T08:57:53.72Z</time></trkpt><trkpt lat="38.1323433" lon="14.90866"><ele>507.20000000000005</ele><time>2026-05-01T08:57:54.72Z</time></trkpt><trkpt lat="38.1323767" lon="14.908785"><ele>509.8</ele><time>2026-05-01T08:57:55.72Z</time></trkpt><trkpt lat="38.1324033" lon="14.9089067"><ele>512.4</ele><time>2026-05-01T08:57:56.72Z</time></trkpt><trkpt lat="38.1324467" lon="14.9090267"><ele>515.0</ele><time>2026-05-01T08:57:57.72Z</time></trkpt><trkpt lat="38.1325083" lon="14.9091233"><ele>515.0</ele><time>2026-05-01T08:57:58.72Z</time></trkpt><trkpt lat="38.132595" lon="14.9091983"><ele>515.0</ele><time>2026-05-01T08:57:59.72Z</time></trkpt><trkpt lat="38.1326833" lon="14.909265"><ele>515.0</ele><time>2026-05-01T08:58:00.72Z</time></trkpt><trkpt lat="38.1327733" lon="14.9093117"><ele>515.0</ele><time>2026-05-01T08:58:01.72Z</time></trkpt><trkpt lat="38.1328567" lon="14.90938"><ele>515.0</ele><time>2026-05-01T08:58:02.72Z</time></trkpt><trkpt lat="38.1329283" lon="14.909475"><ele>518.6666666666666</ele><time>2026-05-01T08:58:03.72Z</time></trkpt><trkpt lat="38.13301" lon="14.9095583"><ele>522.3333333333333</ele><time>2026-05-01T08:58:04.72Z</time></trkpt><trkpt lat="38.1330683" lon="14.909635"><ele>526.0</ele><time>2026-05-01T08:58:05.72Z</time></trkpt><trkpt lat="38.1331083" lon="14.9096983"><ele>529.6666666666666</ele><time>2026-05-01T08:58:06.72Z</time></trkpt><trkpt lat="38.1331267" lon="14.9097933"><ele>533.3333333333334</ele><time>2026-05-01T08:58:08.72Z</time></trkpt><trkpt lat="38.13305" lon="14.9097783"><ele>537.0</ele><time>2026-05-01T08:58:11.72Z</time></trkpt><trkpt lat="38.1329883" lon="14.9097333"><ele>537.0</ele><time>2026-05-01T08:58:12.72Z</time></trkpt><trkpt lat="38.1329083" lon="14.9096683"><ele>537.0</ele><time>2026-05-01T08:58:13.72Z</time></trkpt><trkpt lat="38.13282" lon="14.909605"><ele>537.0</ele><time>2026-05-01T08:58:14.72Z</time></trkpt><trkpt lat="38.132735" lon="14.9095767"><ele>537.0</ele><time>2026-05-01T08:58:15.72Z</time></trkpt><trkpt lat="38.1326683" lon="14.9095817"><ele>537.0</ele><time>2026-05-01T08:58:16.72Z</time></trkpt><trkpt lat="38.1326017" lon="14.9096117"><ele>537.0</ele><time>2026-05-01T08:58:17.72Z</time></trkpt><trkpt lat="38.132525" lon="14.9096617"><ele>537.0</ele><time>2026-05-01T08:58:18.72Z</time></trkpt><trkpt lat="38.1324617" lon="14.9096883"><ele>537.0</ele><time>2026-05-01T08:58:19.72Z</time></trkpt><trkpt lat="38.1323983" lon="14.9097033"><ele>537.0</ele><time>2026-05-01T08:58:20.719Z</time></trkpt><trkpt lat="38.1323333" lon="14.9096867"><ele>537.0</ele><time>2026-05-01T08:58:21.72Z</time></trkpt><trkpt lat="38.1322233" lon="14.9096967"><ele>537.0</ele><time>2026-05-01T08:58:23.72Z</time></trkpt><trkpt lat="38.132115" lon="14.9096433"><ele>537.0</ele><time>2026-05-01T08:58:25.72Z</time></trkpt><trkpt lat="38.1320567" lon="14.9096"><ele>539.2</ele><time>2026-05-01T08:58:26.72Z</time></trkpt><trkpt lat="38.131935" lon="14.9095183"><ele>541.4000000000001</ele><time>2026-05-01T08:58:28.72Z</time></trkpt><trkpt lat="38.1318567" lon="14.909505"><ele>543.5999999999999</ele><time>2026-05-01T08:58:29.72Z</time></trkpt><trkpt lat="38.1317733" lon="14.9095033"><ele>545.8</ele><time>2026-05-01T08:58:30.72Z</time></trkpt><trkpt lat="38.1316867" lon="14.9095033"><ele>548.0</ele><time>2026-05-01T08:58:31.719Z</time></trkpt><trkpt lat="38.1315767" lon="14.9095067"><ele>547.6</ele><time>2026-05-01T08:58:32.72Z</time></trkpt><trkpt lat="38.1314617" lon="14.9095183"><ele>547.1999999999999</ele><time>2026-05-01T08:58:33.72Z</time></trkpt><trkpt lat="38.1313617" lon="14.909525"><ele>546.8</ele><time>2026-05-01T08:58:34.72Z</time></trkpt><trkpt lat="38.1312833" lon="14.90953"><ele>546.4</ele><time>2026-05-01T08:58:35.72Z</time></trkpt><trkpt lat="38.1311983" lon="14.9095517"><ele>546.0</ele><time>2026-05-01T08:58:36.72Z</time></trkpt><trkpt lat="38.1311283" lon="14.9095967"><ele>546.0</ele><time>2026-05-01T08:58:37.72Z</time></trkpt><trkpt lat="38.1310583" lon="14.909645"><ele>546.0</ele><time>2026-05-01T08:58:38.72Z</time></trkpt><trkpt lat="38.1309483" lon="14.9096683"><ele>546.0</ele><time>2026-05-01T08:58:40.72Z</time></trkpt><trkpt lat="38.1308333" lon="14.9096117"><ele>546.0</ele><time>2026-05-01T08:58:42.719Z</time></trkpt><trkpt lat="38.130755" lon="14.9095767"><ele>546.0</ele><time>2026-05-01T08:58:43.72Z</time></trkpt><trkpt lat="38.13066" lon="14.909525"><ele>546.1666666666666</ele><time>2026-05-01T08:58:44.72Z</time></trkpt><trkpt lat="38.130575" lon="14.9095"><ele>546.3333333333334</ele><time>2026-05-01T08:58:45.72Z</time></trkpt><trkpt lat="38.1304883" lon="14.9094883"><ele>546.5</ele><time>2026-05-01T08:58:46.72Z</time></trkpt><trkpt lat="38.13041" lon="14.909495"><ele>546.6666666666667</ele><time>2026-05-01T08:58:47.72Z</time></trkpt><trkpt lat="38.1303383" lon="14.9095117"><ele>546.8333333333334</ele><time>2026-05-01T08:58:48.72Z</time></trkpt><trkpt lat="38.1302667" lon="14.9095433"><ele>547.0</ele><time>2026-05-01T08:58:49.72Z</time></trkpt><trkpt lat="38.130185" lon="14.9095717"><ele>547.0</ele><time>2026-05-01T08:58:50.72Z</time></trkpt><trkpt lat="38.1301033" lon="14.9096017"><ele>547.0</ele><time>2026-05-01T08:58:51.72Z</time></trkpt><trkpt lat="38.1300283" lon="14.9096417"><ele>547.0</ele><time>2026-05-01T08:58:52.719Z</time></trkpt><trkpt lat="38.1299483" lon="14.9096983"><ele>547.0</ele><time>2026-05-01T08:58:53.72Z</time></trkpt><trkpt lat="38.12986" lon="14.909745"><ele>547.0</ele><time>2026-05-01T08:58:54.719Z</time></trkpt><trkpt lat="38.1297567" lon="14.9097717"><ele>548.8000000000001</ele><time>2026-05-01T08:58:55.719Z</time></trkpt><trkpt lat="38.129645" lon="14.9098033"><ele>550.6</ele><time>2026-05-01T08:58:56.72Z</time></trkpt><trkpt lat="38.1295383" lon="14.9098417"><ele>552.4000000000001</ele><time>2026-05-01T08:58:57.719Z</time></trkpt><trkpt lat="38.1294433" lon="14.90988"><ele>554.2</ele><time>2026-05-01T08:58:58.72Z</time></trkpt><trkpt lat="38.12936" lon="14.9099183"><ele>556.0</ele><time>2026-05-01T08:58:59.72Z</time></trkpt><trkpt lat="38.1292933" lon="14.9099517"><ele>556.0</ele><time>2026-05-01T08:59:00.72Z</time></trkpt><trkpt lat="38.1292317" lon="14.9099833"><ele>556.0</ele><time>2026-05-01T08:59:01.72Z</time></trkpt><trkpt lat="38.1291233" lon="14.9099583"><ele>556.0</ele><time>2026-05-01T08:59:03.72Z</time></trkpt><trkpt lat="38.1290733" lon="14.909895"><ele>556.0</ele><time>2026-05-01T08:59:04.719Z</time></trkpt><trkpt lat="38.1290433" lon="14.9097983"><ele>556.0</ele><time>2026-05-01T08:59:05.72Z</time></trkpt><trkpt lat="38.1290217" lon="14.9096783"><ele>556.0</ele><time>2026-05-01T08:59:06.72Z</time></trkpt><trkpt lat="38.1290083" lon="14.9095483"><ele>559.4</ele><time>2026-05-01T08:59:07.72Z</time></trkpt><trkpt lat="38.1290067" lon="14.90942"><ele>562.8</ele><time>2026-05-01T08:59:08.72Z</time></trkpt><trkpt lat="38.1289983" lon="14.909305"><ele>566.1999999999999</ele><time>2026-05-01T08:59:09.72Z</time></trkpt><trkpt lat="38.1289717" lon="14.9092"><ele>569.6</ele><time>2026-05-01T08:59:10.72Z</time></trkpt><trkpt lat="38.1289133" lon="14.9091"><ele>573.0</ele><time>2026-05-01T08:59:11.72Z</time></trkpt><trkpt lat="38.128835" lon="14.9090133"><ele>573.0</ele><time>2026-05-01T08:59:12.719Z</time></trkpt><trkpt lat="38.1287617" lon="14.90894"><ele>573.0</ele><time>2026-05-01T08:59:13.72Z</time></trkpt><trkpt lat="38.1286933" lon="14.9088767"><ele>573.0</ele><time>2026-05-01T08:59:14.72Z</time></trkpt><trkpt lat="38.12863" lon="14.9088033"><ele>573.0</ele><time>2026-05-01T08:59:15.72Z</time></trkpt><trkpt lat="38.128565" lon="14.9087133"><ele>573.0</ele><time>2026-05-01T08:59:16.72Z</time></trkpt><trkpt lat="38.1285133" lon="14.9086217"><ele>573.0</ele><time>2026-05-01T08:59:17.72Z</time></trkpt><trkpt lat="38.1284817" lon="14.908525"><ele>569.8</ele><time>2026-05-01T08:59:18.72Z</time></trkpt><trkpt lat="38.1284667" lon="14.908405"><ele>566.5999999999999</ele><time>2026-05-01T08:59:19.72Z</time></trkpt><trkpt lat="38.1284633" lon="14.90827"><ele>563.4000000000001</ele><time>2026-05-01T08:59:20.72Z</time></trkpt><trkpt lat="38.1284583" lon="14.908115"><ele>560.2</ele><time>2026-05-01T08:59:21.72Z</time></trkpt><trkpt lat="38.1284567" lon="14.9079733"><ele>557.0</ele><time>2026-05-01T08:59:22.72Z</time></trkpt><trkpt lat="38.1284567" lon="14.90783"><ele>557.0</ele><time>2026-05-01T08:59:23.72Z</time></trkpt><trkpt lat="38.128455" lon="14.9077"><ele>557.0</ele><time>2026-05-01T08:59:24.72Z</time></trkpt><trkpt lat="38.1284333" lon="14.9075817"><ele>557.0</ele><time>2026-05-01T08:59:25.719Z</time></trkpt><trkpt lat="38.1283967" lon="14.9074717"><ele>557.0</ele><time>2026-05-01T08:59:26.72Z</time></trkpt><trkpt lat="38.1283617" lon="14.907365"><ele>557.0</ele><time>2026-05-01T08:59:27.72Z</time></trkpt><trkpt lat="38.1283217" lon="14.907265"><ele>556.2</ele><time>2026-05-01T08:59:28.72Z</time></trkpt><trkpt lat="38.12829" lon="14.907175"><ele>555.4000000000001</ele><time>2026-05-01T08:59:29.72Z</time></trkpt><trkpt lat="38.12826" lon="14.90705"><ele>554.5999999999999</ele><time>2026-05-01T08:59:31.72Z</time></trkpt><trkpt lat="38.128175" lon="14.9070917"><ele>553.8</ele><time>2026-05-01T08:59:34.719Z</time></trkpt><trkpt lat="38.128125" lon="14.9072333"><ele>553.0</ele><time>2026-05-01T08:59:36.72Z</time></trkpt><trkpt lat="38.128025" lon="14.9072083"><ele>553.0</ele><time>2026-05-01T08:59:39.72Z</time></trkpt><trkpt lat="38.1279717" lon="14.90713"><ele>553.0</ele><time>2026-05-01T08:59:40.72Z</time></trkpt><trkpt lat="38.127925" lon="14.907065"><ele>553.0</ele><time>2026-05-01T08:59:41.719Z</time></trkpt><trkpt lat="38.1278217" lon="14.9070467"><ele>553.0</ele><time>2026-05-01T08:59:43.719Z</time></trkpt><trkpt lat="38.1277433" lon="14.9071917"><ele>553.0</ele><time>2026-05-01T08:59:45.72Z</time></trkpt><trkpt lat="38.1277117" lon="14.9073083"><ele>553.0</ele><time>2026-05-01T08:59:46.72Z</time></trkpt><trkpt lat="38.1276967" lon="14.9074167"><ele>553.0</ele><time>2026-05-01T08:59:47.72Z</time></trkpt><trkpt lat="38.1276817" lon="14.907545"><ele>553.0</ele><time>2026-05-01T08:59:48.72Z</time></trkpt><trkpt lat="38.12768" lon="14.907695"><ele>553.0</ele><time>2026-05-01T08:59:49.72Z</time></trkpt><trkpt lat="38.12766" lon="14.9078717"><ele>553.0</ele><time>2026-05-01T08:59:50.72Z</time></trkpt><trkpt lat="38.1276317" lon="14.9080767"><ele>557.8</ele><time>2026-05-01T08:59:51.72Z</time></trkpt><trkpt lat="38.1276017" lon="14.9082233"><ele>562.5999999999999</ele><time>2026-05-01T08:59:52.719Z</time></trkpt><trkpt lat="38.1275667" lon="14.9083583"><ele>567.4000000000001</ele><time>2026-05-01T08:59:53.72Z</time></trkpt><trkpt lat="38.1275383" lon="14.9084683"><ele>572.2</ele><time>2026-05-01T08:59:54.719Z</time></trkpt><trkpt lat="38.1275067" lon="14.9085533"><ele>577.0</ele><time>2026-05-01T08:59:55.719Z</time></trkpt><trkpt lat="38.127485" lon="14.90871"><ele>579.1666666666667</ele><time>2026-05-01T08:59:57.72Z</time></trkpt><trkpt lat="38.1274817" lon="14.9087933"><ele>581.3333333333334</ele><time>2026-05-01T08:59:58.72Z</time></trkpt><trkpt lat="38.12749" lon="14.9089517"><ele>583.5</ele><time>2026-05-01T09:00:00.72Z</time></trkpt><trkpt lat="38.1275117" lon="14.9090783"><ele>585.6666666666666</ele><time>2026-05-01T09:00:02.719Z</time></trkpt><trkpt lat="38.1275367" lon="14.9091533"><ele>587.8333333333333</ele><time>2026-05-01T09:00:03.72Z</time></trkpt><trkpt lat="38.1275717" lon="14.9092467"><ele>590.0</ele><time>2026-05-01T09:00:04.72Z</time></trkpt><trkpt lat="38.1275967" lon="14.9093417"><ele>593.2</ele><time>2026-05-01T09:00:05.72Z</time></trkpt><trkpt lat="38.1276167" lon="14.9094383"><ele>596.4</ele><time>2026-05-01T09:00:06.72Z</time></trkpt><trkpt lat="38.1276267" lon="14.90954"><ele>599.6</ele><time>2026-05-01T09:00:07.72Z</time></trkpt><trkpt lat="38.1276433" lon="14.90966"><ele>602.8</ele><time>2026-05-01T09:00:08.72Z</time></trkpt><trkpt lat="38.1276517" lon="14.90978"><ele>606.0</ele><time>2026-05-01T09:00:09.72Z</time></trkpt><trkpt lat="38.127665" lon="14.9099117"><ele>610.2</ele><time>2026-05-01T09:00:10.72Z</time></trkpt><trkpt lat="38.127685" lon="14.9100767"><ele>614.4000000000001</ele><time>2026-05-01T09:00:11.72Z</time></trkpt><trkpt lat="38.1277083" lon="14.9102183"><ele>618.6</ele><time>2026-05-01T09:00:12.72Z</time></trkpt><trkpt lat="38.12772" lon="14.9103333"><ele>622.8000000000001</ele><time>2026-05-01T09:00:13.72Z</time></trkpt><trkpt lat="38.1277367" lon="14.910445"><ele>627.0</ele><time>2026-05-01T09:00:14.72Z</time></trkpt><trkpt lat="38.12776" lon="14.9105417"><ele>627.0</ele><time>2026-05-01T09:00:15.72Z</time></trkpt><trkpt lat="38.127775" lon="14.9106317"><ele>627.0</ele><time>2026-05-01T09:00:16.72Z</time></trkpt><trkpt lat="38.1277567" lon="14.9107417"><ele>627.0</ele><time>2026-05-01T09:00:18.72Z</time></trkpt><trkpt lat="38.1276883" lon="14.9107567"><ele>627.0</ele><time>2026-05-01T09:00:21.72Z</time></trkpt><trkpt lat="38.12761" lon="14.9108067"><ele>627.0</ele><time>2026-05-01T09:00:25.72Z</time></trkpt><trkpt lat="38.12752" lon="14.910865"><ele>627.0</ele><time>2026-05-01T09:00:27.72Z</time></trkpt><trkpt lat="38.1274183" lon="14.9109033"><ele>629.5</ele><time>2026-05-01T09:00:29.72Z</time></trkpt><trkpt lat="38.1273" lon="14.9109217"><ele>632.0</ele><time>2026-05-01T09:00:31.72Z</time></trkpt><trkpt lat="38.127235" lon="14.9109383"><ele>634.5</ele><time>2026-05-01T09:00:32.72Z</time></trkpt><trkpt lat="38.1271567" lon="14.910955"><ele>637.0</ele><time>2026-05-01T09:00:33.719Z</time></trkpt><trkpt lat="38.1270783" lon="14.9109583"><ele>639.5</ele><time>2026-05-01T09:00:34.719Z</time></trkpt><trkpt lat="38.1269967" lon="14.91097"><ele>642.0</ele><time>2026-05-01T09:00:35.72Z</time></trkpt><trkpt lat="38.1269267" lon="14.9110033"><ele>642.0</ele><time>2026-05-01T09:00:36.72Z</time></trkpt><trkpt lat="38.1268617" lon="14.91103"><ele>642.0</ele><time>2026-05-01T09:00:37.72Z</time></trkpt><trkpt lat="38.1267917" lon="14.91107"><ele>642.0</ele><time>2026-05-01T09:00:38.719Z</time></trkpt><trkpt lat="38.1267267" lon="14.9111117"><ele>642.0</ele><time>2026-05-01T09:00:39.72Z</time></trkpt><trkpt lat="38.126615" lon="14.91117"><ele>642.0</ele><time>2026-05-01T09:00:41.72Z</time></trkpt><trkpt lat="38.1265083" lon="14.9112467"><ele>639.4</ele><time>2026-05-01T09:00:43.72Z</time></trkpt><trkpt lat="38.1264483" lon="14.91129"><ele>636.8000000000001</ele><time>2026-05-01T09:00:44.72Z</time></trkpt><trkpt lat="38.126385" lon="14.911335"><ele>634.2</ele><time>2026-05-01T09:00:45.72Z</time></trkpt><trkpt lat="38.1262917" lon="14.91143"><ele>631.6</ele><time>2026-05-01T09:00:47.72Z</time></trkpt><trkpt lat="38.1262133" lon="14.9115233"><ele>629.0</ele><time>2026-05-01T09:00:49.719Z</time></trkpt><trkpt lat="38.1261417" lon="14.91163"><ele>629.0</ele><time>2026-05-01T09:00:51.72Z</time></trkpt><trkpt lat="38.126065" lon="14.9117333"><ele>629.0</ele><time>2026-05-01T09:00:53.72Z</time></trkpt><trkpt lat="38.125985" lon="14.9117983"><ele>629.0</ele><time>2026-05-01T09:00:55.72Z</time></trkpt><trkpt lat="38.1258983" lon="14.9118517"><ele>629.0</ele><time>2026-05-01T09:00:57.72Z</time></trkpt><trkpt lat="38.1258317" lon="14.9118917"><ele>629.0</ele><time>2026-05-01T09:00:58.72Z</time></trkpt><trkpt lat="38.12576" lon="14.9119267"><ele>630.8333333333333</ele><time>2026-05-01T09:00:59.72Z</time></trkpt><trkpt lat="38.1256767" lon="14.9119667"><ele>632.6666666666666</ele><time>2026-05-01T09:01:00.719Z</time></trkpt><trkpt lat="38.1256083" lon="14.9119933"><ele>634.5</ele><time>2026-05-01T09:01:01.72Z</time></trkpt><trkpt lat="38.1255133" lon="14.9120417"><ele>636.3333333333334</ele><time>2026-05-01T09:01:03.72Z</time></trkpt><trkpt lat="38.1254217" lon="14.9121183"><ele>638.1666666666667</ele><time>2026-05-01T09:01:05.72Z</time></trkpt><trkpt lat="38.125365" lon="14.9121617"><ele>640.0</ele><time>2026-05-01T09:01:06.72Z</time></trkpt><trkpt lat="38.1253033" lon="14.9122183"><ele>640.0</ele><time>2026-05-01T09:01:07.72Z</time></trkpt><trkpt lat="38.125245" lon="14.9122883"><ele>640.0</ele><time>2026-05-01T09:01:08.72Z</time></trkpt><trkpt lat="38.125185" lon="14.9123883"><ele>640.0</ele><time>2026-05-01T09:01:09.719Z</time></trkpt><trkpt lat="38.12511" lon="14.912505"><ele>640.0</ele><time>2026-05-01T09:01:10.72Z</time></trkpt><trkpt lat="38.1250433" lon="14.9126233"><ele>640.0</ele><time>2026-05-01T09:01:11.72Z</time></trkpt><trkpt lat="38.124965" lon="14.9127117"><ele>643.2</ele><time>2026-05-01T09:01:12.72Z</time></trkpt><trkpt lat="38.1248833" lon="14.9127683"><ele>646.4</ele><time>2026-05-01T09:01:13.72Z</time></trkpt><trkpt lat="38.1247933" lon="14.91282"><ele>649.5999999999999</ele><time>2026-05-01T09:01:14.72Z</time></trkpt><trkpt lat="38.1247033" lon="14.912865"><ele>652.8</ele><time>2026-05-01T09:01:15.72Z</time></trkpt><trkpt lat="38.12462" lon="14.9129283"><ele>656.0</ele><time>2026-05-01T09:01:16.72Z</time></trkpt><trkpt lat="38.1245467" lon="14.9130017"><ele>656.0</ele><time>2026-05-01T09:01:17.72Z</time></trkpt><trkpt lat="38.124485" lon="14.9131117"><ele>656.0</ele><time>2026-05-01T09:01:18.72Z</time></trkpt><trkpt lat="38.1244217" lon="14.9132133"><ele>656.0</ele><time>2026-05-01T09:01:19.72Z</time></trkpt><trkpt lat="38.1243483" lon="14.9133117"><ele>656.0</ele><time>2026-05-01T09:01:20.72Z</time></trkpt><trkpt lat="38.1242783" lon="14.9133967"><ele>656.0</ele><time>2026-05-01T09:01:21.72Z</time></trkpt><trkpt lat="38.1242117" lon="14.913445"><ele>665.5</ele><time>2026-05-01T09:01:22.72Z</time></trkpt><trkpt lat="38.124115" lon="14.9134617"><ele>675.0</ele><time>2026-05-01T09:01:24.72Z</time></trkpt><trkpt lat="38.12398" lon="14.91345"><ele>684.5</ele><time>2026-05-01T09:01:26.72Z</time></trkpt><trkpt lat="38.123875" lon="14.9134867"><ele>694.0</ele><time>2026-05-01T09:01:27.72Z</time></trkpt><trkpt lat="38.1237667" lon="14.9135167"><ele>695.5</ele><time>2026-05-01T09:01:28.72Z</time></trkpt><trkpt lat="38.1236817" lon="14.9135283"><ele>697.0</ele><time>2026-05-01T09:01:29.72Z</time></trkpt><trkpt lat="38.12359" lon="14.9135133"><ele>698.5</ele><time>2026-05-01T09:01:31.72Z</time></trkpt><trkpt lat="38.123565" lon="14.9134167"><ele>700.0</ele><time>2026-05-01T09:01:33.72Z</time></trkpt><trkpt lat="38.1235783" lon="14.9133317"><ele>701.5</ele><time>2026-05-01T09:01:34.72Z</time></trkpt><trkpt lat="38.1235967" lon="14.9132283"><ele>703.0</ele><time>2026-05-01T09:01:35.72Z</time></trkpt><trkpt lat="38.1236217" lon="14.913105"><ele>698.5999999999999</ele><time>2026-05-01T09:01:36.72Z</time></trkpt><trkpt lat="38.1236667" lon="14.9129783"><ele>694.1999999999999</ele><time>2026-05-01T09:01:37.72Z</time></trkpt><trkpt lat="38.1236833" lon="14.91286"><ele>689.8</ele><time>2026-05-01T09:01:38.72Z</time></trkpt><trkpt lat="38.123675" lon="14.9127383"><ele>685.4</ele><time>2026-05-01T09:01:39.72Z</time></trkpt><trkpt lat="38.1236517" lon="14.9126283"><ele>681.0</ele><time>2026-05-01T09:01:40.72Z</time></trkpt><trkpt lat="38.1236033" lon="14.9125517"><ele>678.8333333333334</ele><time>2026-05-01T09:01:41.72Z</time></trkpt><trkpt lat="38.12354" lon="14.91249"><ele>676.6666666666666</ele><time>2026-05-01T09:01:42.72Z</time></trkpt><trkpt lat="38.1234617" lon="14.9124233"><ele>674.5</ele><time>2026-05-01T09:01:43.72Z</time></trkpt><trkpt lat="38.123385" lon="14.9123667"><ele>672.3333333333333</ele><time>2026-05-01T09:01:44.72Z</time></trkpt><trkpt lat="38.123325" lon="14.91231"><ele>670.1666666666666</ele><time>2026-05-01T09:01:45.72Z</time></trkpt><trkpt lat="38.12328" lon="14.9122467"><ele>668.0</ele><time>2026-05-01T09:01:46.72Z</time></trkpt><trkpt lat="38.1232567" lon="14.9121183"><ele>668.0</ele><time>2026-05-01T09:01:48.72Z</time></trkpt><trkpt lat="38.123285" lon="14.9119767"><ele>668.0</ele><time>2026-05-01T09:01:50.72Z</time></trkpt><trkpt lat="38.1233067" lon="14.9118267"><ele>668.0</ele><time>2026-05-01T09:01:52.72Z</time></trkpt><trkpt lat="38.1233333" lon="14.9116883"><ele>668.0</ele><time>2026-05-01T09:01:54.72Z</time></trkpt><trkpt lat="38.1233133" lon="14.91159"><ele>668.0</ele><time>2026-05-01T09:01:56.72Z</time></trkpt><trkpt lat="38.1232733" lon="14.9115267"><ele>670.6666666666666</ele><time>2026-05-01T09:01:58.72Z</time></trkpt><trkpt lat="38.1231867" lon="14.91148"><ele>673.3333333333333</ele><time>2026-05-01T09:02:01.72Z</time></trkpt><trkpt lat="38.1231133" lon="14.9114783"><ele>676.0</ele><time>2026-05-01T09:02:03.72Z</time></trkpt><trkpt lat="38.12304" lon="14.91147"><ele>678.6666666666666</ele><time>2026-05-01T09:02:06.72Z</time></trkpt><trkpt lat="38.122975" lon="14.9114967"><ele>681.3333333333334</ele><time>2026-05-01T09:02:09.72Z</time></trkpt><trkpt lat="38.122905" lon="14.9114967"><ele>684.0</ele><time>2026-05-01T09:02:11.72Z</time></trkpt><trkpt lat="38.1228083" lon="14.9115267"><ele>684.0</ele><time>2026-05-01T09:02:13.72Z</time></trkpt><trkpt lat="38.1227483" lon="14.9115533"><ele>684.0</ele><time>2026-05-01T09:02:14.72Z</time></trkpt><trkpt lat="38.12264" lon="14.9115667"><ele>684.0</ele><time>2026-05-01T09:02:16.72Z</time></trkpt><trkpt lat="38.12258" lon="14.91154"><ele>684.0</ele><time>2026-05-01T09:02:17.72Z</time></trkpt><trkpt lat="38.1225233" lon="14.9114833"><ele>684.0</ele><time>2026-05-01T09:02:18.72Z</time></trkpt><trkpt lat="38.1224533" lon="14.9113817"><ele>684.0</ele><time>2026-05-01T09:02:19.72Z</time></trkpt><trkpt lat="38.1223633" lon="14.91125"><ele>686.2</ele><time>2026-05-01T09:02:20.719Z</time></trkpt><trkpt lat="38.122275" lon="14.911165"><ele>688.4000000000001</ele><time>2026-05-01T09:02:21.72Z</time></trkpt><trkpt lat="38.12219" lon="14.9110917"><ele>690.6</ele><time>2026-05-01T09:02:22.72Z</time></trkpt><trkpt lat="38.1221233" lon="14.9110617"><ele>692.8</ele><time>2026-05-01T09:02:23.72Z</time></trkpt><trkpt lat="38.1220383" lon="14.9110583"><ele>695.0</ele><time>2026-05-01T09:02:24.719Z</time></trkpt><trkpt lat="38.1219483" lon="14.9111017"><ele>695.0</ele><time>2026-05-01T09:02:25.72Z</time></trkpt><trkpt lat="38.1218783" lon="14.9111517"><ele>695.0</ele><time>2026-05-01T09:02:26.72Z</time></trkpt><trkpt lat="38.1218083" lon="14.9112133"><ele>695.0</ele><time>2026-05-01T09:02:27.72Z</time></trkpt><trkpt lat="38.1217217" lon="14.9112883"><ele>695.0</ele><time>2026-05-01T09:02:28.72Z</time></trkpt><trkpt lat="38.1216483" lon="14.9113333"><ele>695.0</ele><time>2026-05-01T09:02:29.72Z</time></trkpt><trkpt lat="38.1215583" lon="14.9113633"><ele>695.0</ele><time>2026-05-01T09:02:30.719Z</time></trkpt><trkpt lat="38.1214583" lon="14.9113633"><ele>696.8</ele><time>2026-05-01T09:02:31.72Z</time></trkpt><trkpt lat="38.1213583" lon="14.911385"><ele>698.6</ele><time>2026-05-01T09:02:32.72Z</time></trkpt><trkpt lat="38.12125" lon="14.9113683"><ele>700.4000000000001</ele><time>2026-05-01T09:02:33.72Z</time></trkpt><trkpt lat="38.1211567" lon="14.9113367"><ele>702.2</ele><time>2026-05-01T09:02:34.72Z</time></trkpt><trkpt lat="38.1210583" lon="14.9113"><ele>704.0</ele><time>2026-05-01T09:02:35.72Z</time></trkpt><trkpt lat="38.12097" lon="14.9112833"><ele>704.0</ele><time>2026-05-01T09:02:36.72Z</time></trkpt><trkpt lat="38.1208733" lon="14.9112867"><ele>704.0</ele><time>2026-05-01T09:02:37.72Z</time></trkpt><trkpt lat="38.1207733" lon="14.911325"><ele>704.0</ele><time>2026-05-01T09:02:38.719Z</time></trkpt><trkpt lat="38.1206867" lon="14.911355"><ele>704.0</ele><time>2026-05-01T09:02:39.72Z</time></trkpt><trkpt lat="38.1205883" lon="14.9113683"><ele>704.0</ele><time>2026-05-01T09:02:40.72Z</time></trkpt><trkpt lat="38.1204983" lon="14.9113817"><ele>704.0</ele><time>2026-05-01T09:02:41.72Z</time></trkpt><trkpt lat="38.1204017" lon="14.91141"><ele>704.0</ele><time>2026-05-01T09:02:42.72Z</time></trkpt><trkpt lat="38.12031" lon="14.9114517"><ele>704.0</ele><time>2026-05-01T09:02:43.72Z</time></trkpt><trkpt lat="38.1202067" lon="14.9114867"><ele>704.0</ele><time>2026-05-01T09:02:44.72Z</time></trkpt><trkpt lat="38.1201233" lon="14.9115067"><ele>704.0</ele><time>2026-05-01T09:02:45.72Z</time></trkpt><trkpt lat="38.1200417" lon="14.9115367"><ele>704.0</ele><time>2026-05-01T09:02:46.72Z</time></trkpt><trkpt lat="38.119985" lon="14.9115717"><ele>704.0</ele><time>2026-05-01T09:02:47.72Z</time></trkpt><trkpt lat="38.119925" lon="14.9116067"><ele>704.0</ele><time>2026-05-01T09:02:48.72Z</time></trkpt><trkpt lat="38.1198667" lon="14.9116417"><ele>704.0</ele><time>2026-05-01T09:02:49.719Z</time></trkpt><trkpt lat="38.11976" lon="14.9117233"><ele>704.0</ele><time>2026-05-01T09:02:51.72Z</time></trkpt><trkpt lat="38.1196883" lon="14.9117617"><ele>704.0</ele><time>2026-05-01T09:02:52.72Z</time></trkpt><trkpt lat="38.119625" lon="14.9118033"><ele>712.4000000000001</ele><time>2026-05-01T09:02:53.72Z</time></trkpt><trkpt lat="38.1195317" lon="14.9118933"><ele>720.8</ele><time>2026-05-01T09:02:55.72Z</time></trkpt><trkpt lat="38.1194633" lon="14.9119317"><ele>729.2</ele><time>2026-05-01T09:02:57.72Z</time></trkpt><trkpt lat="38.119395" lon="14.9119067"><ele>737.5999999999999</ele><time>2026-05-01T09:02:59.72Z</time></trkpt><trkpt lat="38.1193283" lon="14.9118667"><ele>746.0</ele><time>2026-05-01T09:03:01.72Z</time></trkpt><trkpt lat="38.119225" lon="14.9118033"><ele>739.5999999999999</ele><time>2026-05-01T09:03:03.72Z</time></trkpt><trkpt lat="38.1191283" lon="14.9117333"><ele>733.2</ele><time>2026-05-01T09:03:05.72Z</time></trkpt><trkpt lat="38.1190667" lon="14.9116717"><ele>726.8</ele><time>2026-05-01T09:03:07.72Z</time></trkpt><trkpt lat="38.1190017" lon="14.911585"><ele>720.4000000000001</ele><time>2026-05-01T09:03:09.72Z</time></trkpt><trkpt lat="38.11893" lon="14.9114917"><ele>714.0</ele><time>2026-05-01T09:03:11.72Z</time></trkpt><trkpt lat="38.1188733" lon="14.9114433"><ele>714.0</ele><time>2026-05-01T09:03:13.72Z</time></trkpt><trkpt lat="38.118795" lon="14.9114567"><ele>714.0</ele><time>2026-05-01T09:03:15.72Z</time></trkpt><trkpt lat="38.1187183" lon="14.9114767"><ele>714.0</ele><time>2026-05-01T09:03:17.719Z</time></trkpt><trkpt lat="38.11864" lon="14.9114733"><ele>714.0</ele><time>2026-05-01T09:03:19.72Z</time></trkpt><trkpt lat="38.1185467" lon="14.9114483"><ele>714.0</ele><time>2026-05-01T09:03:21.72Z</time></trkpt><trkpt lat="38.1184833" lon="14.9114367"><ele>714.0</ele><time>2026-05-01T09:03:22.72Z</time></trkpt><trkpt lat="38.11837" lon="14.91142"><ele>714.0</ele><time>2026-05-01T09:03:24.72Z</time></trkpt><trkpt lat="38.1182967" lon="14.91138"><ele>714.0</ele><time>2026-05-01T09:03:26.72Z</time></trkpt><trkpt lat="38.1183583" lon="14.9113183"><ele>714.0</ele><time>2026-05-01T09:03:29.72Z</time></trkpt><trkpt lat="38.1184283" lon="14.911295"><ele>714.0</ele><time>2026-05-01T09:03:30.72Z</time></trkpt><trkpt lat="38.1185083" lon="14.9112817"><ele>714.0</ele><time>2026-05-01T09:03:31.72Z</time></trkpt><trkpt lat="38.1185867" lon="14.9112667"><ele>714.0</ele><time>2026-05-01T09:03:32.72Z</time></trkpt><trkpt lat="38.1186517" lon="14.91124"><ele>714.0</ele><time>2026-05-01T09:03:33.719Z</time></trkpt><trkpt lat="38.1187367" lon="14.9111567"><ele>714.0</ele><time>2026-05-01T09:03:35.72Z</time></trkpt><trkpt lat="38.1187683" lon="14.9110467"><ele>714.0</ele><time>2026-05-01T09:03:37.72Z</time></trkpt><trkpt lat="38.1188467" lon="14.910975"><ele>714.0</ele><time>2026-05-01T09:03:39.72Z</time></trkpt><trkpt lat="38.1189483" lon="14.9109317"><ele>714.0</ele><time>2026-05-01T09:03:41.72Z</time></trkpt><trkpt lat="38.1190517" lon="14.910915"><ele>712.8333333333334</ele><time>2026-05-01T09:03:43.72Z</time></trkpt><trkpt lat="38.1191633" lon="14.9109717"><ele>711.6666666666666</ele><time>2026-05-01T09:03:45.72Z</time></trkpt><trkpt lat="38.1192567" lon="14.911035"><ele>710.5</ele><time>2026-05-01T09:03:47.72Z</time></trkpt><trkpt lat="38.1193183" lon="14.91107"><ele>709.3333333333333</ele><time>2026-05-01T09:03:49.719Z</time></trkpt><trkpt lat="38.11938" lon="14.9110217"><ele>708.1666666666666</ele><time>2026-05-01T09:03:53.72Z</time></trkpt><trkpt lat="38.11932" lon="14.9109517"><ele>707.0</ele><time>2026-05-01T09:03:56.721Z</time></trkpt><trkpt lat="38.1192567" lon="14.9109117"><ele>707.0</ele><time>2026-05-01T09:03:58.721Z</time></trkpt><trkpt lat="38.1192033" lon="14.910865"><ele>707.0</ele><time>2026-05-01T09:04:00.721Z</time></trkpt><trkpt lat="38.1191417" lon="14.9108"><ele>707.0</ele><time>2026-05-01T09:04:03.721Z</time></trkpt><trkpt lat="38.1190933" lon="14.9107417"><ele>707.0</ele><time>2026-05-01T09:04:06.721Z</time></trkpt><trkpt lat="38.1190467" lon="14.9106767"><ele>707.0</ele><time>2026-05-01T09:04:09.72Z</time></trkpt><trkpt lat="38.1190817" lon="14.9105917"><ele>707.0</ele><time>2026-05-01T09:04:12.721Z</time></trkpt><trkpt lat="38.1191667" lon="14.91054"><ele>701.4000000000001</ele><time>2026-05-01T09:04:14.72Z</time></trkpt><trkpt lat="38.1192617" lon="14.9105367"><ele>695.8000000000001</ele><time>2026-05-01T09:04:16.721Z</time></trkpt><trkpt lat="38.1193617" lon="14.9105583"><ele>690.2</ele><time>2026-05-01T09:04:18.721Z</time></trkpt><trkpt lat="38.1194767" lon="14.9105783"><ele>684.6</ele><time>2026-05-01T09:04:20.721Z</time></trkpt><trkpt lat="38.11954" lon="14.9105833"><ele>679.0</ele><time>2026-05-01T09:04:21.721Z</time></trkpt><trkpt lat="38.119615" lon="14.9105867"><ele>679.0</ele><time>2026-05-01T09:04:22.721Z</time></trkpt><trkpt lat="38.1196817" lon="14.9105883"><ele>679.0</ele><time>2026-05-01T09:04:23.721Z</time></trkpt><trkpt lat="38.1197467" lon="14.91058"><ele>679.0</ele><time>2026-05-01T09:04:24.721Z</time></trkpt><trkpt lat="38.1198517" lon="14.9105417"><ele>679.0</ele><time>2026-05-01T09:04:26.721Z</time></trkpt><trkpt lat="38.1199333" lon="14.9104433"><ele>679.0</ele><time>2026-05-01T09:04:28.721Z</time></trkpt><trkpt lat="38.1199483" lon="14.9103617"><ele>679.0</ele><time>2026-05-01T09:04:29.721Z</time></trkpt><trkpt lat="38.11995" lon="14.9102583"><ele>678.1428571428571</ele><time>2026-05-01T09:04:30.721Z</time></trkpt><trkpt lat="38.1199517" lon="14.910165"><ele>677.2857142857142</ele><time>2026-05-01T09:04:31.721Z</time></trkpt><trkpt lat="38.11997" lon="14.9100783"><ele>676.4285714285714</ele><time>2026-05-01T09:04:32.721Z</time></trkpt><trkpt lat="38.1199967" lon="14.9099917"><ele>675.5714285714286</ele><time>2026-05-01T09:04:33.721Z</time></trkpt><trkpt lat="38.1200233" lon="14.9099017"><ele>674.7142857142857</ele><time>2026-05-01T09:04:34.721Z</time></trkpt><trkpt lat="38.1200333" lon="14.9098033"><ele>673.8571428571429</ele><time>2026-05-01T09:04:35.721Z</time></trkpt><trkpt lat="38.1200383" lon="14.909705"><ele>673.0</ele><time>2026-05-01T09:04:36.721Z</time></trkpt><trkpt lat="38.1200583" lon="14.9096233"><ele>673.0</ele><time>2026-05-01T09:04:37.721Z</time></trkpt><trkpt lat="38.120095" lon="14.9095533"><ele>673.0</ele><time>2026-05-01T09:04:38.721Z</time></trkpt><trkpt lat="38.120185" lon="14.9094717"><ele>673.0</ele><time>2026-05-01T09:04:40.721Z</time></trkpt><trkpt lat="38.1202483" lon="14.9094333"><ele>673.0</ele><time>2026-05-01T09:04:41.721Z</time></trkpt><trkpt lat="38.1203233" lon="14.9093883"><ele>673.0</ele><time>2026-05-01T09:04:42.721Z</time></trkpt><trkpt lat="38.1203983" lon="14.9093467"><ele>673.0</ele><time>2026-05-01T09:04:43.721Z</time></trkpt><trkpt lat="38.1204633" lon="14.9093067"><ele>673.0</ele><time>2026-05-01T09:04:44.721Z</time></trkpt><trkpt lat="38.12051" lon="14.9092483"><ele>673.0</ele><time>2026-05-01T09:04:45.721Z</time></trkpt><trkpt lat="38.1205517" lon="14.90918"><ele>673.0</ele><time>2026-05-01T09:04:46.721Z</time></trkpt><trkpt lat="38.1206417" lon="14.9090817"><ele>673.0</ele><time>2026-05-01T09:04:48.721Z</time></trkpt><trkpt lat="38.1207133" lon="14.9090683"><ele>673.0</ele><time>2026-05-01T09:04:49.721Z</time></trkpt><trkpt lat="38.1207783" lon="14.90905"><ele>673.0</ele><time>2026-05-01T09:04:50.721Z</time></trkpt><trkpt lat="38.12089" lon="14.9089483"><ele>672.0</ele><time>2026-05-01T09:04:52.72Z</time></trkpt><trkpt lat="38.1209433" lon="14.90888"><ele>671.0</ele><time>2026-05-01T09:04:53.721Z</time></trkpt><trkpt lat="38.1209967" lon="14.9088367"><ele>670.0</ele><time>2026-05-01T09:04:54.721Z</time></trkpt><trkpt lat="38.1210517" lon="14.908795"><ele>669.0</ele><time>2026-05-01T09:04:55.721Z</time></trkpt><trkpt lat="38.1211117" lon="14.9087583"><ele>668.0</ele><time>2026-05-01T09:04:56.72Z</time></trkpt><trkpt lat="38.1211767" lon="14.908735"><ele>667.0</ele><time>2026-05-01T09:04:57.721Z</time></trkpt><trkpt lat="38.121235" lon="14.9087"><ele>666.0</ele><time>2026-05-01T09:04:58.721Z</time></trkpt><trkpt lat="38.1213233" lon="14.908585"><ele>666.0</ele><time>2026-05-01T09:05:00.721Z</time></trkpt><trkpt lat="38.121365" lon="14.9085217"><ele>666.0</ele><time>2026-05-01T09:05:01.721Z</time></trkpt><trkpt lat="38.1214183" lon="14.90846"><ele>666.0</ele><time>2026-05-01T09:05:02.721Z</time></trkpt><trkpt lat="38.12148" lon="14.9084033"><ele>666.0</ele><time>2026-05-01T09:05:03.721Z</time></trkpt><trkpt lat="38.1215467" lon="14.9083483"><ele>666.0</ele><time>2026-05-01T09:05:04.721Z</time></trkpt><trkpt lat="38.1216317" lon="14.908305"><ele>666.0</ele><time>2026-05-01T09:05:05.721Z</time></trkpt><trkpt lat="38.1217317" lon="14.9082633"><ele>668.4</ele><time>2026-05-01T09:05:06.721Z</time></trkpt><trkpt lat="38.12183" lon="14.9082167"><ele>670.8</ele><time>2026-05-01T09:05:07.721Z</time></trkpt><trkpt lat="38.1219117" lon="14.9081567"><ele>673.1999999999999</ele><time>2026-05-01T09:05:08.721Z</time></trkpt><trkpt lat="38.1219867" lon="14.90809"><ele>675.5999999999999</ele><time>2026-05-01T09:05:09.721Z</time></trkpt><trkpt lat="38.1220333" lon="14.90801"><ele>678.0</ele><time>2026-05-01T09:05:10.721Z</time></trkpt><trkpt lat="38.1220683" lon="14.9079083"><ele>678.0</ele><time>2026-05-01T09:05:11.721Z</time></trkpt><trkpt lat="38.122105" lon="14.9078333"><ele>678.0</ele><time>2026-05-01T09:05:12.721Z</time></trkpt><trkpt lat="38.1221567" lon="14.9077167"><ele>678.0</ele><time>2026-05-01T09:05:14.721Z</time></trkpt><trkpt lat="38.122135" lon="14.907635"><ele>678.0</ele><time>2026-05-01T09:05:16.721Z</time></trkpt><trkpt lat="38.122105" lon="14.90753"><ele>678.0</ele><time>2026-05-01T09:05:18.72Z</time></trkpt><trkpt lat="38.12209" lon="14.9073767"><ele>682.6666666666666</ele><time>2026-05-01T09:05:20.721Z</time></trkpt><trkpt lat="38.1221183" lon="14.9072167"><ele>687.3333333333334</ele><time>2026-05-01T09:05:22.721Z</time></trkpt><trkpt lat="38.1221517" lon="14.9071333"><ele>692.0</ele><time>2026-05-01T09:05:23.721Z</time></trkpt><trkpt lat="38.1221833" lon="14.9070517"><ele>696.6666666666667</ele><time>2026-05-01T09:05:24.721Z</time></trkpt><trkpt lat="38.1222067" lon="14.9069583"><ele>701.3333333333334</ele><time>2026-05-01T09:05:25.72Z</time></trkpt><trkpt lat="38.1222283" lon="14.9068733"><ele>706.0</ele><time>2026-05-01T09:05:26.721Z</time></trkpt><trkpt lat="38.12225" lon="14.9067933"><ele>708.3333333333334</ele><time>2026-05-01T09:05:27.72Z</time></trkpt><trkpt lat="38.1222917" lon="14.9067183"><ele>710.6666666666667</ele><time>2026-05-01T09:05:28.721Z</time></trkpt><trkpt lat="38.1223417" lon="14.9066583"><ele>713.0</ele><time>2026-05-01T09:05:29.72Z</time></trkpt><trkpt lat="38.1224033" lon="14.9065933"><ele>715.3333333333334</ele><time>2026-05-01T09:05:30.721Z</time></trkpt><trkpt lat="38.1224617" lon="14.9065117"><ele>717.6666666666666</ele><time>2026-05-01T09:05:31.721Z</time></trkpt><trkpt lat="38.1225333" lon="14.9064183"><ele>720.0</ele><time>2026-05-01T09:05:32.721Z</time></trkpt><trkpt lat="38.1226017" lon="14.9063433"><ele>713.5</ele><time>2026-05-01T09:05:33.72Z</time></trkpt><trkpt lat="38.12266" lon="14.906275"><ele>707.0</ele><time>2026-05-01T09:05:34.721Z</time></trkpt><trkpt lat="38.1227133" lon="14.9061983"><ele>700.5</ele><time>2026-05-01T09:05:35.72Z</time></trkpt><trkpt lat="38.1227517" lon="14.90612"><ele>694.0</ele><time>2026-05-01T09:05:36.721Z</time></trkpt><trkpt lat="38.1228117" lon="14.906005"><ele>687.5</ele><time>2026-05-01T09:05:38.721Z</time></trkpt><trkpt lat="38.12288" lon="14.905955"><ele>681.0</ele><time>2026-05-01T09:05:40.721Z</time></trkpt><trkpt lat="38.1229883" lon="14.9059467"><ele>681.0</ele><time>2026-05-01T09:05:42.721Z</time></trkpt><trkpt lat="38.1230533" lon="14.9059333"><ele>681.0</ele><time>2026-05-01T09:05:43.721Z</time></trkpt><trkpt lat="38.1231167" lon="14.90591"><ele>681.0</ele><time>2026-05-01T09:05:44.721Z</time></trkpt><trkpt lat="38.123185" lon="14.90587"><ele>681.0</ele><time>2026-05-01T09:05:45.721Z</time></trkpt><trkpt lat="38.1232583" lon="14.90581"><ele>681.0</ele><time>2026-05-01T09:05:46.721Z</time></trkpt><trkpt lat="38.1233417" lon="14.9057433"><ele>681.0</ele><time>2026-05-01T09:05:47.721Z</time></trkpt><trkpt lat="38.123445" lon="14.9056817"><ele>683.0</ele><time>2026-05-01T09:05:48.72Z</time></trkpt><trkpt lat="38.1235517" lon="14.9056383"><ele>685.0</ele><time>2026-05-01T09:05:49.721Z</time></trkpt><trkpt lat="38.1236317" lon="14.90561"><ele>687.0</ele><time>2026-05-01T09:05:50.721Z</time></trkpt><trkpt lat="38.1236933" lon="14.9055817"><ele>689.0</ele><time>2026-05-01T09:05:51.721Z</time></trkpt><trkpt lat="38.1237783" lon="14.905515"><ele>691.0</ele><time>2026-05-01T09:05:53.721Z</time></trkpt><trkpt lat="38.1238267" lon="14.9054417"><ele>693.0</ele><time>2026-05-01T09:05:55.721Z</time></trkpt><trkpt lat="38.1238417" lon="14.9053483"><ele>693.0</ele><time>2026-05-01T09:05:57.721Z</time></trkpt><trkpt lat="38.12383" lon="14.90518"><ele>693.0</ele><time>2026-05-01T09:05:59.721Z</time></trkpt><trkpt lat="38.1238017" lon="14.9050567"><ele>693.0</ele><time>2026-05-01T09:06:00.72Z</time></trkpt><trkpt lat="38.12377" lon="14.904915"><ele>693.0</ele><time>2026-05-01T09:06:01.72Z</time></trkpt><trkpt lat="38.1237467" lon="14.9047683"><ele>699.4</ele><time>2026-05-01T09:06:02.721Z</time></trkpt><trkpt lat="38.1237283" lon="14.904635"><ele>705.8</ele><time>2026-05-01T09:06:03.721Z</time></trkpt><trkpt lat="38.1237183" lon="14.904515"><ele>712.2</ele><time>2026-05-01T09:06:04.721Z</time></trkpt><trkpt lat="38.1237033" lon="14.9044083"><ele>718.6</ele><time>2026-05-01T09:06:05.721Z</time></trkpt><trkpt lat="38.1236767" lon="14.9042967"><ele>725.0</ele><time>2026-05-01T09:06:06.721Z</time></trkpt><trkpt lat="38.1236283" lon="14.90418"><ele>727.3333333333333</ele><time>2026-05-01T09:06:07.721Z</time></trkpt><trkpt lat="38.1235833" lon="14.9040783"><ele>729.6666666666666</ele><time>2026-05-01T09:06:08.721Z</time></trkpt><trkpt lat="38.1235433" lon="14.904"><ele>732.0</ele><time>2026-05-01T09:06:09.72Z</time></trkpt><trkpt lat="38.1235083" lon="14.9039333"><ele>734.3333333333334</ele><time>2026-05-01T09:06:10.721Z</time></trkpt><trkpt lat="38.1234717" lon="14.9038167"><ele>736.6666666666667</ele><time>2026-05-01T09:06:12.721Z</time></trkpt><trkpt lat="38.123461" lon="14.9037243"><ele>739.0</ele><time>2026-05-01T09:06:14.721Z</time></trkpt><trkpt lat="38.1234573" lon="14.9036181"><ele>739.0</ele><time>2026-05-01T09:06:16.721Z</time></trkpt><trkpt lat="38.1234462" lon="14.9035271"><ele>739.0</ele><time>2026-05-01T09:06:18.721Z</time></trkpt><trkpt lat="38.123435" lon="14.9034226"><ele>739.0</ele><time>2026-05-01T09:06:20.721Z</time></trkpt><trkpt lat="38.1234282" lon="14.903303"><ele>739.0</ele><time>2026-05-01T09:06:22.721Z</time></trkpt><trkpt lat="38.1234076" lon="14.9031482"><ele>739.0</ele><time>2026-05-01T09:06:24.721Z</time></trkpt><trkpt lat="38.1233875" lon="14.903072"><ele>739.0</ele><time>2026-05-01T09:06:25.721Z</time></trkpt><trkpt lat="38.1233516" lon="14.9029535"><ele>739.0</ele><time>2026-05-01T09:06:27.721Z</time></trkpt><trkpt lat="38.1233428" lon="14.9028538"><ele>739.0</ele><time>2026-05-01T09:06:29.721Z</time></trkpt><trkpt lat="38.1233793" lon="14.9027126"><ele>739.0</ele><time>2026-05-01T09:06:31.721Z</time></trkpt><trkpt lat="38.1234079" lon="14.9026285"><ele>739.0</ele><time>2026-05-01T09:06:32.72Z</time></trkpt><trkpt lat="38.1234327" lon="14.9025446"><ele>739.0</ele><time>2026-05-01T09:06:33.721Z</time></trkpt><trkpt lat="38.1234513" lon="14.9024626"><ele>739.0</ele><time>2026-05-01T09:06:34.721Z</time></trkpt><trkpt lat="38.1234718" lon="14.9023711"><ele>740.0</ele><time>2026-05-01T09:06:35.721Z</time></trkpt><trkpt lat="38.1234968" lon="14.902269"><ele>741.0</ele><time>2026-05-01T09:06:36.721Z</time></trkpt><trkpt lat="38.1235133" lon="14.9021755"><ele>742.0</ele><time>2026-05-01T09:06:37.721Z</time></trkpt><trkpt lat="38.1235223" lon="14.9020801"><ele>743.0</ele><time>2026-05-01T09:06:38.721Z</time></trkpt><trkpt lat="38.1235206" lon="14.9019849"><ele>744.0</ele><time>2026-05-01T09:06:39.721Z</time></trkpt><trkpt lat="38.1235135" lon="14.9019042"><ele>745.0</ele><time>2026-05-01T09:06:40.721Z</time></trkpt><trkpt lat="38.123545" lon="14.9017646"><ele>748.5</ele><time>2026-05-01T09:06:42.721Z</time></trkpt><trkpt lat="38.1235793" lon="14.9016772"><ele>752.0</ele><time>2026-05-01T09:06:43.721Z</time></trkpt><trkpt lat="38.12362" lon="14.9015669"><ele>755.5</ele><time>2026-05-01T09:06:44.721Z</time></trkpt><trkpt lat="38.1236594" lon="14.9014509"><ele>759.0</ele><time>2026-05-01T09:06:45.721Z</time></trkpt><trkpt lat="38.123689" lon="14.9013585"><ele>762.5</ele><time>2026-05-01T09:06:46.721Z</time></trkpt><trkpt lat="38.1237218" lon="14.9012843"><ele>766.0</ele><time>2026-05-01T09:06:47.721Z</time></trkpt><trkpt lat="38.1237568" lon="14.9012158"><ele>766.0</ele><time>2026-05-01T09:06:48.721Z</time></trkpt><trkpt lat="38.1238117" lon="14.901097"><ele>766.0</ele><time>2026-05-01T09:06:50.721Z</time></trkpt><trkpt lat="38.1238463" lon="14.9010184"><ele>766.0</ele><time>2026-05-01T09:06:51.72Z</time></trkpt><trkpt lat="38.1238912" lon="14.9009272"><ele>766.0</ele><time>2026-05-01T09:06:52.721Z</time></trkpt><trkpt lat="38.1239286" lon="14.9008466"><ele>766.0</ele><time>2026-05-01T09:06:53.721Z</time></trkpt><trkpt lat="38.1239776" lon="14.9007052"><ele>767.8571428571429</ele><time>2026-05-01T09:06:55.721Z</time></trkpt><trkpt lat="38.124002" lon="14.9006297"><ele>769.7142857142857</ele><time>2026-05-01T09:06:56.721Z</time></trkpt><trkpt lat="38.1240302" lon="14.9005466"><ele>771.5714285714287</ele><time>2026-05-01T09:06:57.721Z</time></trkpt><trkpt lat="38.1240598" lon="14.9004643"><ele>773.4285714285714</ele><time>2026-05-01T09:06:58.721Z</time></trkpt><trkpt lat="38.1240934" lon="14.9003883"><ele>775.2857142857143</ele><time>2026-05-01T09:06:59.721Z</time></trkpt><trkpt lat="38.1241282" lon="14.9003133"><ele>777.1428571428572</ele><time>2026-05-01T09:07:00.72Z</time></trkpt><trkpt lat="38.1241652" lon="14.9002385"><ele>779.0</ele><time>2026-05-01T09:07:01.721Z</time></trkpt><trkpt lat="38.124206" lon="14.900164"><ele>773.8000000000001</ele><time>2026-05-01T09:07:02.721Z</time></trkpt><trkpt lat="38.1242596" lon="14.9000997"><ele>768.6</ele><time>2026-05-01T09:07:03.721Z</time></trkpt><trkpt lat="38.1243179" lon="14.9000354"><ele>763.4</ele><time>2026-05-01T09:07:04.721Z</time></trkpt><trkpt lat="38.1243653" lon="14.8999052"><ele>758.2</ele><time>2026-05-01T09:07:06.721Z</time></trkpt><trkpt lat="38.124349" lon="14.8997461"><ele>753.0</ele><time>2026-05-01T09:07:08.721Z</time></trkpt><trkpt lat="38.1243375" lon="14.8996218"><ele>753.0</ele><time>2026-05-01T09:07:10.721Z</time></trkpt><trkpt lat="38.1243056" lon="14.8995471"><ele>753.0</ele><time>2026-05-01T09:07:12.721Z</time></trkpt><trkpt lat="38.1242612" lon="14.8994855"><ele>753.0</ele><time>2026-05-01T09:07:14.721Z</time></trkpt><trkpt lat="38.1242412" lon="14.8993828"><ele>753.0</ele><time>2026-05-01T09:07:16.721Z</time></trkpt><trkpt lat="38.1242276" lon="14.8992761"><ele>753.0</ele><time>2026-05-01T09:07:18.721Z</time></trkpt><trkpt lat="38.1242172" lon="14.8991774"><ele>753.0</ele><time>2026-05-01T09:07:20.721Z</time></trkpt><trkpt lat="38.1242062" lon="14.8990755"><ele>752.8333333333334</ele><time>2026-05-01T09:07:22.721Z</time></trkpt><trkpt lat="38.1242307" lon="14.8989907"><ele>752.6666666666666</ele><time>2026-05-01T09:07:24.721Z</time></trkpt><trkpt lat="38.1242886" lon="14.8989394"><ele>752.5</ele><time>2026-05-01T09:07:26.721Z</time></trkpt><trkpt lat="38.1243587" lon="14.8988874"><ele>752.3333333333333</ele><time>2026-05-01T09:07:28.72Z</time></trkpt><trkpt lat="38.1242957" lon="14.898852"><ele>752.1666666666666</ele><time>2026-05-01T09:07:32.72Z</time></trkpt><trkpt lat="38.1242279" lon="14.8988604"><ele>752.0</ele><time>2026-05-01T09:09:47.721Z</time></trkpt><trkpt lat="38.1241359" lon="14.8989436"><ele>752.0</ele><time>2026-05-01T09:09:49.721Z</time></trkpt><trkpt lat="38.1240808" lon="14.8990146"><ele>752.0</ele><time>2026-05-01T09:09:50.721Z</time></trkpt><trkpt lat="38.1240152" lon="14.899082"><ele>752.0</ele><time>2026-05-01T09:09:51.721Z</time></trkpt><trkpt lat="38.1239513" lon="14.8991345"><ele>752.0</ele><time>2026-05-01T09:09:52.721Z</time></trkpt><trkpt lat="38.1238847" lon="14.8992097"><ele>752.0</ele><time>2026-05-01T09:09:54.721Z</time></trkpt><trkpt lat="38.1239436" lon="14.899275"><ele>752.0</ele><time>2026-05-01T09:09:56.721Z</time></trkpt><trkpt lat="38.1240123" lon="14.899403"><ele>757.4000000000001</ele><time>2026-05-01T09:09:58.72Z</time></trkpt><trkpt lat="38.1240273" lon="14.8994971"><ele>762.8000000000001</ele><time>2026-05-01T09:09:59.721Z</time></trkpt><trkpt lat="38.1240392" lon="14.8995812"><ele>768.2</ele><time>2026-05-01T09:10:00.721Z</time></trkpt><trkpt lat="38.1240531" lon="14.89973"><ele>773.6</ele><time>2026-05-01T09:10:02.721Z</time></trkpt><trkpt lat="38.1240557" lon="14.8998548"><ele>779.0</ele><time>2026-05-01T09:10:04.721Z</time></trkpt><trkpt lat="38.124011" lon="14.8999895"><ele>779.0000000000001</ele><time>2026-05-01T09:10:06.721Z</time></trkpt><trkpt lat="38.1239705" lon="14.9000657"><ele>779.0</ele><time>2026-05-01T09:10:07.721Z</time></trkpt><trkpt lat="38.123927" lon="14.9001367"><ele>779.0</ele><time>2026-05-01T09:10:08.721Z</time></trkpt><trkpt lat="38.1238665" lon="14.900217"><ele>779.0</ele><time>2026-05-01T09:10:10.72Z</time></trkpt><trkpt lat="38.1238418" lon="14.9003076"><ele>779.0000000000001</ele><time>2026-05-01T09:11:18.721Z</time></trkpt><trkpt lat="38.1237946" lon="14.9003728"><ele>779.0</ele><time>2026-05-01T09:11:19.721Z</time></trkpt><trkpt lat="38.1237279" lon="14.9004535"><ele>779.0</ele><time>2026-05-01T09:11:20.72Z</time></trkpt><trkpt lat="38.123666" lon="14.9005367"><ele>779.0</ele><time>2026-05-01T09:11:21.721Z</time></trkpt><trkpt lat="38.1236134" lon="14.9006315"><ele>779.0</ele><time>2026-05-01T09:11:22.721Z</time></trkpt><trkpt lat="38.1235604" lon="14.900727"><ele>779.0</ele><time>2026-05-01T09:11:23.721Z</time></trkpt><trkpt lat="38.1235063" lon="14.9008135"><ele>779.0</ele><time>2026-05-01T09:11:24.721Z</time></trkpt><trkpt lat="38.1234374" lon="14.9009029"><ele>779.8000000000001</ele><time>2026-05-01T09:11:25.721Z</time></trkpt><trkpt lat="38.123367" lon="14.9009899"><ele>780.6</ele><time>2026-05-01T09:11:26.721Z</time></trkpt><trkpt lat="38.1232928" lon="14.9010794"><ele>781.4</ele><time>2026-05-01T09:11:27.721Z</time></trkpt><trkpt lat="38.1232178" lon="14.9011749"><ele>782.2</ele><time>2026-05-01T09:11:28.72Z</time></trkpt><trkpt lat="38.1231431" lon="14.9012755"><ele>783.0</ele><time>2026-05-01T09:11:29.721Z</time></trkpt><trkpt lat="38.1230728" lon="14.90138"><ele>783.0</ele><time>2026-05-01T09:11:30.721Z</time></trkpt><trkpt lat="38.123003" lon="14.9014978"><ele>783.0</ele><time>2026-05-01T09:11:31.721Z</time></trkpt><trkpt lat="38.1229382" lon="14.9016147"><ele>783.0</ele><time>2026-05-01T09:11:32.721Z</time></trkpt><trkpt lat="38.1228786" lon="14.901739"><ele>783.0</ele><time>2026-05-01T09:11:33.721Z</time></trkpt><trkpt lat="38.1228231" lon="14.9018511"><ele>783.0</ele><time>2026-05-01T09:11:34.72Z</time></trkpt><trkpt lat="38.1227699" lon="14.9019463"><ele>784.4</ele><time>2026-05-01T09:11:35.72Z</time></trkpt><trkpt lat="38.1227125" lon="14.9020284"><ele>785.8</ele><time>2026-05-01T09:11:36.721Z</time></trkpt><trkpt lat="38.1226443" lon="14.9020989"><ele>787.2</ele><time>2026-05-01T09:11:37.721Z</time></trkpt><trkpt lat="38.122559" lon="14.9021692"><ele>788.6</ele><time>2026-05-01T09:11:38.721Z</time></trkpt><trkpt lat="38.1224646" lon="14.9022538"><ele>790.0</ele><time>2026-05-01T09:11:39.721Z</time></trkpt><trkpt lat="38.1223763" lon="14.9023505"><ele>790.6</ele><time>2026-05-01T09:11:40.721Z</time></trkpt><trkpt lat="38.122291" lon="14.9024604"><ele>791.2</ele><time>2026-05-01T09:11:41.721Z</time></trkpt><trkpt lat="38.1222184" lon="14.9025756"><ele>791.8</ele><time>2026-05-01T09:11:42.722Z</time></trkpt><trkpt lat="38.122159" lon="14.9026662"><ele>792.4</ele><time>2026-05-01T09:11:43.722Z</time></trkpt><trkpt lat="38.1221043" lon="14.9027181"><ele>793.0</ele><time>2026-05-01T09:11:44.722Z</time></trkpt><trkpt lat="38.1219869" lon="14.9027282"><ele>795.3333333333333</ele><time>2026-05-01T09:11:46.722Z</time></trkpt><trkpt lat="38.1219096" lon="14.9027157"><ele>797.6666666666666</ele><time>2026-05-01T09:11:47.722Z</time></trkpt><trkpt lat="38.1218334" lon="14.9027186"><ele>800.0</ele><time>2026-05-01T09:11:48.722Z</time></trkpt><trkpt lat="38.1217633" lon="14.9027438"><ele>802.3333333333333</ele><time>2026-05-01T09:11:49.722Z</time></trkpt><trkpt lat="38.1216998" lon="14.902798"><ele>804.6666666666666</ele><time>2026-05-01T09:11:50.721Z</time></trkpt><trkpt lat="38.1216261" lon="14.9028714"><ele>807.0</ele><time>2026-05-01T09:11:51.722Z</time></trkpt><trkpt lat="38.121543" lon="14.9029584"><ele>807.0</ele><time>2026-05-01T09:11:52.722Z</time></trkpt><trkpt lat="38.1214496" lon="14.9030441"><ele>807.0</ele><time>2026-05-01T09:11:53.722Z</time></trkpt><trkpt lat="38.1213532" lon="14.9031339"><ele>807.0</ele><time>2026-05-01T09:11:54.722Z</time></trkpt><trkpt lat="38.1212621" lon="14.9032186"><ele>807.0</ele><time>2026-05-01T09:11:55.722Z</time></trkpt><trkpt lat="38.1211888" lon="14.9032976"><ele>807.0</ele><time>2026-05-01T09:11:56.722Z</time></trkpt><trkpt lat="38.1211167" lon="14.9033789"><ele>812.8</ele><time>2026-05-01T09:11:57.722Z</time></trkpt><trkpt lat="38.1210419" lon="14.9034603"><ele>818.6</ele><time>2026-05-01T09:11:58.722Z</time></trkpt><trkpt lat="38.120977" lon="14.903538"><ele>824.4</ele><time>2026-05-01T09:11:59.722Z</time></trkpt><trkpt lat="38.1209145" lon="14.9036229"><ele>830.1999999999999</ele><time>2026-05-01T09:12:00.722Z</time></trkpt><trkpt lat="38.1208517" lon="14.9037177"><ele>836.0</ele><time>2026-05-01T09:12:01.722Z</time></trkpt><trkpt lat="38.1207902" lon="14.9038203"><ele>836.4</ele><time>2026-05-01T09:12:02.722Z</time></trkpt><trkpt lat="38.1207319" lon="14.9039184"><ele>836.8</ele><time>2026-05-01T09:12:03.722Z</time></trkpt><trkpt lat="38.1206796" lon="14.9040192"><ele>837.1999999999999</ele><time>2026-05-01T09:12:04.722Z</time></trkpt><trkpt lat="38.1206254" lon="14.9041148"><ele>837.5999999999999</ele><time>2026-05-01T09:12:05.722Z</time></trkpt><trkpt lat="38.1205539" lon="14.9042121"><ele>838.0</ele><time>2026-05-01T09:12:06.722Z</time></trkpt><trkpt lat="38.1204758" lon="14.9043003"><ele>838.0</ele><time>2026-05-01T09:12:07.722Z</time></trkpt><trkpt lat="38.1203847" lon="14.9043758"><ele>838.0</ele><time>2026-05-01T09:12:08.722Z</time></trkpt><trkpt lat="38.1202964" lon="14.904445"><ele>838.0</ele><time>2026-05-01T09:12:09.722Z</time></trkpt><trkpt lat="38.1202106" lon="14.9045112"><ele>838.0</ele><time>2026-05-01T09:12:10.722Z</time></trkpt><trkpt lat="38.1201321" lon="14.9045845"><ele>838.0</ele><time>2026-05-01T09:12:11.722Z</time></trkpt><trkpt lat="38.1200552" lon="14.9046551"><ele>838.0</ele><time>2026-05-01T09:12:12.722Z</time></trkpt><trkpt lat="38.1199685" lon="14.9047199"><ele>838.0</ele><time>2026-05-01T09:12:13.722Z</time></trkpt><trkpt lat="38.119868" lon="14.9047689"><ele>838.0</ele><time>2026-05-01T09:12:14.721Z</time></trkpt><trkpt lat="38.1197714" lon="14.9048025"><ele>838.0</ele><time>2026-05-01T09:12:15.722Z</time></trkpt><trkpt lat="38.119688" lon="14.9048331"><ele>838.0</ele><time>2026-05-01T09:12:16.722Z</time></trkpt><trkpt lat="38.1196121" lon="14.9048754"><ele>840.1666666666666</ele><time>2026-05-01T09:12:17.721Z</time></trkpt><trkpt lat="38.1195393" lon="14.9049259"><ele>842.3333333333333</ele><time>2026-05-01T09:12:18.722Z</time></trkpt><trkpt lat="38.1194606" lon="14.9049801"><ele>844.5</ele><time>2026-05-01T09:12:19.722Z</time></trkpt><trkpt lat="38.1193696" lon="14.905031"><ele>846.6666666666667</ele><time>2026-05-01T09:12:20.722Z</time></trkpt><trkpt lat="38.1192924" lon="14.905073"><ele>848.8333333333334</ele><time>2026-05-01T09:12:21.722Z</time></trkpt><trkpt lat="38.1192168" lon="14.9050866"><ele>851.0</ele><time>2026-05-01T09:12:22.722Z</time></trkpt><trkpt lat="38.1191339" lon="14.9050728"><ele>852.4</ele><time>2026-05-01T09:12:23.722Z</time></trkpt><trkpt lat="38.1190445" lon="14.905018"><ele>853.8</ele><time>2026-05-01T09:12:24.722Z</time></trkpt><trkpt lat="38.1189527" lon="14.9049432"><ele>855.1999999999999</ele><time>2026-05-01T09:12:25.722Z</time></trkpt><trkpt lat="38.1188578" lon="14.904868"><ele>856.5999999999999</ele><time>2026-05-01T09:12:26.722Z</time></trkpt><trkpt lat="38.1187682" lon="14.9048027"><ele>858.0</ele><time>2026-05-01T09:12:27.722Z</time></trkpt><trkpt lat="38.1186701" lon="14.9047456"><ele>858.0</ele><time>2026-05-01T09:12:28.722Z</time></trkpt><trkpt lat="38.1185758" lon="14.9046988"><ele>858.0</ele><time>2026-05-01T09:12:29.722Z</time></trkpt><trkpt lat="38.1184956" lon="14.904667"><ele>858.0</ele><time>2026-05-01T09:12:30.722Z</time></trkpt><trkpt lat="38.1184287" lon="14.9046619"><ele>858.0</ele><time>2026-05-01T09:12:31.722Z</time></trkpt><trkpt lat="38.118353" lon="14.9047065"><ele>858.0</ele><time>2026-05-01T09:12:33.722Z</time></trkpt><trkpt lat="38.1184017" lon="14.904776"><ele>858.0</ele><time>2026-05-01T09:12:36.722Z</time></trkpt><trkpt lat="38.1184932" lon="14.9047866"><ele>858.0</ele><time>2026-05-01T09:12:38.722Z</time></trkpt><trkpt lat="38.1185531" lon="14.9048115"><ele>858.0</ele><time>2026-05-01T09:12:40.722Z</time></trkpt><trkpt lat="38.1186302" lon="14.9049018"><ele>858.0</ele><time>2026-05-01T09:12:54.721Z</time></trkpt><trkpt lat="38.1187263" lon="14.9050141"><ele>858.0</ele><time>2026-05-01T09:12:56.722Z</time></trkpt><trkpt lat="38.1187814" lon="14.9050773"><ele>858.0</ele><time>2026-05-01T09:12:57.722Z</time></trkpt><trkpt lat="38.1188381" lon="14.9051476"><ele>859.3333333333334</ele><time>2026-05-01T09:12:58.722Z</time></trkpt><trkpt lat="38.1188914" lon="14.9052241"><ele>860.6666666666667</ele><time>2026-05-01T09:12:59.722Z</time></trkpt><trkpt lat="38.1189382" lon="14.9053085"><ele>862.0</ele><time>2026-05-01T09:13:00.722Z</time></trkpt><trkpt lat="38.1189831" lon="14.9053971"><ele>863.3333333333334</ele><time>2026-05-01T09:13:01.722Z</time></trkpt><trkpt lat="38.1190282" lon="14.9054886"><ele>864.6666666666667</ele><time>2026-05-01T09:13:02.722Z</time></trkpt><trkpt lat="38.1190699" lon="14.9055888"><ele>866.0</ele><time>2026-05-01T09:13:03.722Z</time></trkpt><trkpt lat="38.1190996" lon="14.9056994"><ele>866.0</ele><time>2026-05-01T09:13:04.722Z</time></trkpt><trkpt lat="38.1191096" lon="14.905826"><ele>865.9999999999999</ele><time>2026-05-01T09:13:05.722Z</time></trkpt><trkpt lat="38.119096" lon="14.9059534"><ele>865.9999999999999</ele><time>2026-05-01T09:13:06.721Z</time></trkpt><trkpt lat="38.119055" lon="14.9060786"><ele>866.0</ele><time>2026-05-01T09:13:07.722Z</time></trkpt><trkpt lat="38.1189958" lon="14.9061912"><ele>866.0</ele><time>2026-05-01T09:13:08.722Z</time></trkpt><trkpt lat="38.1189286" lon="14.9062924"><ele>867.4</ele><time>2026-05-01T09:13:09.722Z</time></trkpt><trkpt lat="38.118854" lon="14.9063853"><ele>868.8</ele><time>2026-05-01T09:13:10.722Z</time></trkpt><trkpt lat="38.1187673" lon="14.9064609"><ele>870.1999999999999</ele><time>2026-05-01T09:13:11.722Z</time></trkpt><trkpt lat="38.1186679" lon="14.9065071"><ele>871.5999999999999</ele><time>2026-05-01T09:13:12.722Z</time></trkpt><trkpt lat="38.1185555" lon="14.906539"><ele>873.0</ele><time>2026-05-01T09:13:13.722Z</time></trkpt><trkpt lat="38.1184286" lon="14.9065761"><ele>873.0</ele><time>2026-05-01T09:13:14.722Z</time></trkpt><trkpt lat="38.1182961" lon="14.9066421"><ele>873.0</ele><time>2026-05-01T09:13:15.721Z</time></trkpt><trkpt lat="38.1181745" lon="14.9067193"><ele>873.0</ele><time>2026-05-01T09:13:16.722Z</time></trkpt><trkpt lat="38.11807" lon="14.9067816"><ele>873.0</ele><time>2026-05-01T09:13:17.722Z</time></trkpt><trkpt lat="38.1179714" lon="14.9068192"><ele>871.3333333333334</ele><time>2026-05-01T09:13:18.722Z</time></trkpt><trkpt lat="38.1178719" lon="14.9068425"><ele>869.6666666666667</ele><time>2026-05-01T09:13:19.722Z</time></trkpt><trkpt lat="38.1177894" lon="14.9068703"><ele>868.0</ele><time>2026-05-01T09:13:20.722Z</time></trkpt><trkpt lat="38.1177188" lon="14.9069037"><ele>866.3333333333334</ele><time>2026-05-01T09:13:21.722Z</time></trkpt><trkpt lat="38.1176265" lon="14.9069406"><ele>864.6666666666667</ele><time>2026-05-01T09:13:23.721Z</time></trkpt><trkpt lat="38.1176529" lon="14.9068415"><ele>863.0</ele><time>2026-05-01T09:13:27.722Z</time></trkpt><trkpt lat="38.1177444" lon="14.9067671"><ele>868.4</ele><time>2026-05-01T09:13:29.722Z</time></trkpt><trkpt lat="38.1178492" lon="14.906684"><ele>873.8</ele><time>2026-05-01T09:13:31.722Z</time></trkpt><trkpt lat="38.11795" lon="14.9066208"><ele>879.2</ele><time>2026-05-01T09:13:33.722Z</time></trkpt><trkpt lat="38.1180187" lon="14.9065772"><ele>884.6</ele><time>2026-05-01T09:13:35.722Z</time></trkpt><trkpt lat="38.1179574" lon="14.9066015"><ele>890.0</ele><time>2026-05-01T09:13:53.721Z</time></trkpt><trkpt lat="38.117899" lon="14.9066816"><ele>890.0</ele><time>2026-05-01T09:13:55.721Z</time></trkpt><trkpt lat="38.117834" lon="14.9066866"><ele>890.0</ele><time>2026-05-01T09:13:57.722Z</time></trkpt><trkpt lat="38.1177665" lon="14.9066893"><ele>890.0</ele><time>2026-05-01T09:13:59.722Z</time></trkpt><trkpt lat="38.1177003" lon="14.9067127"><ele>890.0</ele><time>2026-05-01T09:14:08.722Z</time></trkpt><trkpt lat="38.1176359" lon="14.9067304"><ele>890.0</ele><time>2026-05-01T09:14:09.722Z</time></trkpt><trkpt lat="38.1175553" lon="14.9067323"><ele>890.0</ele><time>2026-05-01T09:14:10.722Z</time></trkpt><trkpt lat="38.11747" lon="14.9067226"><ele>890.0</ele><time>2026-05-01T09:14:11.722Z</time></trkpt><trkpt lat="38.1173877" lon="14.9067216"><ele>889.6666666666667</ele><time>2026-05-01T09:14:12.722Z</time></trkpt><trkpt lat="38.1173059" lon="14.9067316"><ele>889.3333333333334</ele><time>2026-05-01T09:14:13.722Z</time></trkpt><trkpt lat="38.1172158" lon="14.9067435"><ele>889.0</ele><time>2026-05-01T09:14:14.722Z</time></trkpt><trkpt lat="38.1171266" lon="14.9067529"><ele>888.6666666666667</ele><time>2026-05-01T09:14:15.722Z</time></trkpt><trkpt lat="38.1170357" lon="14.9067674"><ele>888.3333333333334</ele><time>2026-05-01T09:14:16.722Z</time></trkpt><trkpt lat="38.1169614" lon="14.9067991"><ele>888.0</ele><time>2026-05-01T09:14:17.722Z</time></trkpt><trkpt lat="38.1168961" lon="14.9068448"><ele>888.0</ele><time>2026-05-01T09:14:18.721Z</time></trkpt><trkpt lat="38.1168414" lon="14.9069007"><ele>888.0</ele><time>2026-05-01T09:14:19.722Z</time></trkpt><trkpt lat="38.1167892" lon="14.9069539"><ele>888.0</ele><time>2026-05-01T09:14:20.722Z</time></trkpt><trkpt lat="38.1166914" lon="14.9070451"><ele>888.0</ele><time>2026-05-01T09:14:22.722Z</time></trkpt><trkpt lat="38.1165923" lon="14.9071233"><ele>888.0</ele><time>2026-05-01T09:14:24.722Z</time></trkpt><trkpt lat="38.1165084" lon="14.9071899"><ele>888.8</ele><time>2026-05-01T09:14:26.722Z</time></trkpt><trkpt lat="38.1164524" lon="14.9072741"><ele>889.5999999999999</ele><time>2026-05-01T09:14:28.722Z</time></trkpt><trkpt lat="38.1164036" lon="14.907362"><ele>890.4000000000001</ele><time>2026-05-01T09:14:30.721Z</time></trkpt><trkpt lat="38.1163559" lon="14.9074306"><ele>891.2</ele><time>2026-05-01T09:14:32.722Z</time></trkpt><trkpt lat="38.116285" lon="14.9074906"><ele>892.0</ele><time>2026-05-01T09:14:34.722Z</time></trkpt><trkpt lat="38.1161664" lon="14.9075711"><ele>890.1666666666666</ele><time>2026-05-01T09:14:36.722Z</time></trkpt><trkpt lat="38.1160846" lon="14.9076254"><ele>888.3333333333333</ele><time>2026-05-01T09:14:37.722Z</time></trkpt><trkpt lat="38.1160098" lon="14.9076733"><ele>886.5</ele><time>2026-05-01T09:14:38.722Z</time></trkpt><trkpt lat="38.1159414" lon="14.9077179"><ele>884.6666666666667</ele><time>2026-05-01T09:14:39.722Z</time></trkpt><trkpt lat="38.1158742" lon="14.9077584"><ele>882.8333333333334</ele><time>2026-05-01T09:14:40.722Z</time></trkpt><trkpt lat="38.115802" lon="14.9078022"><ele>881.0</ele><time>2026-05-01T09:14:41.722Z</time></trkpt><trkpt lat="38.1157227" lon="14.907854"><ele>885.5999999999999</ele><time>2026-05-01T09:14:42.722Z</time></trkpt><trkpt lat="38.1156405" lon="14.9079128"><ele>890.1999999999999</ele><time>2026-05-01T09:14:43.722Z</time></trkpt><trkpt lat="38.1155608" lon="14.907968"><ele>894.8000000000001</ele><time>2026-05-01T09:14:44.722Z</time></trkpt><trkpt lat="38.1154793" lon="14.9080174"><ele>899.4000000000001</ele><time>2026-05-01T09:14:45.721Z</time></trkpt><trkpt lat="38.115389" lon="14.9080567"><ele>904.0</ele><time>2026-05-01T09:14:46.722Z</time></trkpt><trkpt lat="38.1152892" lon="14.9080625"><ele>904.0</ele><time>2026-05-01T09:14:47.722Z</time></trkpt><trkpt lat="38.1152016" lon="14.9080544"><ele>904.0000000000001</ele><time>2026-05-01T09:14:48.722Z</time></trkpt><trkpt lat="38.115111" lon="14.9080379"><ele>904.0000000000001</ele><time>2026-05-01T09:14:49.721Z</time></trkpt><trkpt lat="38.1150132" lon="14.9080187"><ele>904.0</ele><time>2026-05-01T09:14:50.722Z</time></trkpt><trkpt lat="38.1149223" lon="14.9080058"><ele>904.0</ele><time>2026-05-01T09:14:51.722Z</time></trkpt><trkpt lat="38.1148391" lon="14.9080066"><ele>904.8333333333333</ele><time>2026-05-01T09:14:52.722Z</time></trkpt><trkpt lat="38.1147657" lon="14.90802"><ele>905.6666666666666</ele><time>2026-05-01T09:14:53.722Z</time></trkpt><trkpt lat="38.1146804" lon="14.9080286"><ele>906.5</ele><time>2026-05-01T09:14:54.722Z</time></trkpt><trkpt lat="38.1145851" lon="14.9080403"><ele>907.3333333333333</ele><time>2026-05-01T09:14:55.722Z</time></trkpt><trkpt lat="38.1144864" lon="14.9080622"><ele>908.1666666666666</ele><time>2026-05-01T09:14:56.722Z</time></trkpt><trkpt lat="38.114408" lon="14.9080939"><ele>909.0</ele><time>2026-05-01T09:14:57.721Z</time></trkpt><trkpt lat="38.1143071" lon="14.9081704"><ele>909.0</ele><time>2026-05-01T09:14:59.722Z</time></trkpt><trkpt lat="38.1142589" lon="14.9082316"><ele>909.0</ele><time>2026-05-01T09:15:00.722Z</time></trkpt><trkpt lat="38.1142081" lon="14.9083044"><ele>909.0</ele><time>2026-05-01T09:15:01.722Z</time></trkpt><trkpt lat="38.1141523" lon="14.9083733"><ele>909.0</ele><time>2026-05-01T09:15:02.722Z</time></trkpt><trkpt lat="38.1140957" lon="14.9084346"><ele>909.0</ele><time>2026-05-01T09:15:03.722Z</time></trkpt><trkpt lat="38.1140446" lon="14.9084878"><ele>909.0</ele><time>2026-05-01T09:15:04.722Z</time></trkpt><trkpt lat="38.1139666" lon="14.9085845"><ele>908.2</ele><time>2026-05-01T09:15:06.722Z</time></trkpt><trkpt lat="38.113905" lon="14.9086721"><ele>907.4000000000001</ele><time>2026-05-01T09:15:08.721Z</time></trkpt><trkpt lat="38.1138358" lon="14.9087445"><ele>906.6</ele><time>2026-05-01T09:15:10.722Z</time></trkpt><trkpt lat="38.1137567" lon="14.9088112"><ele>905.8</ele><time>2026-05-01T09:15:12.722Z</time></trkpt><trkpt lat="38.1136786" lon="14.9088838"><ele>905.0</ele><time>2026-05-01T09:15:14.721Z</time></trkpt><trkpt lat="38.1136073" lon="14.9089475"><ele>905.0000000000001</ele><time>2026-05-01T09:15:16.722Z</time></trkpt><trkpt lat="38.1135319" lon="14.9089878"><ele>905.0</ele><time>2026-05-01T09:15:18.722Z</time></trkpt><trkpt lat="38.113454" lon="14.9090036"><ele>905.0</ele><time>2026-05-01T09:15:20.722Z</time></trkpt><trkpt lat="38.1133258" lon="14.9090645"><ele>905.0</ele><time>2026-05-01T09:15:22.722Z</time></trkpt><trkpt lat="38.1132511" lon="14.9090969"><ele>905.0000000000001</ele><time>2026-05-01T09:15:23.722Z</time></trkpt><trkpt lat="38.1131843" lon="14.9091269"><ele>905.0</ele><time>2026-05-01T09:15:24.722Z</time></trkpt><trkpt lat="38.1131156" lon="14.9091622"><ele>905.1428571428571</ele><time>2026-05-01T09:15:25.721Z</time></trkpt><trkpt lat="38.1130431" lon="14.9091876"><ele>905.2857142857142</ele><time>2026-05-01T09:15:26.722Z</time></trkpt><trkpt lat="38.1129684" lon="14.9092033"><ele>905.4285714285713</ele><time>2026-05-01T09:15:27.722Z</time></trkpt><trkpt lat="38.1128998" lon="14.9092118"><ele>905.5714285714284</ele><time>2026-05-01T09:15:28.722Z</time></trkpt><trkpt lat="38.1128294" lon="14.9092246"><ele>905.7142857142857</ele><time>2026-05-01T09:15:29.722Z</time></trkpt><trkpt lat="38.1127615" lon="14.9092364"><ele>905.8571428571427</ele><time>2026-05-01T09:15:30.722Z</time></trkpt><trkpt lat="38.1126907" lon="14.9092478"><ele>905.9999999999999</ele><time>2026-05-01T09:15:31.722Z</time></trkpt><trkpt lat="38.1126194" lon="14.9092648"><ele>906.8</ele><time>2026-05-01T09:15:32.722Z</time></trkpt><trkpt lat="38.1125519" lon="14.9092901"><ele>907.5999999999999</ele><time>2026-05-01T09:15:33.722Z</time></trkpt><trkpt lat="38.1124401" lon="14.9093226"><ele>908.4</ele><time>2026-05-01T09:15:35.722Z</time></trkpt><trkpt lat="38.1123413" lon="14.9093269"><ele>909.2</ele><time>2026-05-01T09:15:37.722Z</time></trkpt><trkpt lat="38.112251" lon="14.9093299"><ele>910.0</ele><time>2026-05-01T09:15:39.722Z</time></trkpt><trkpt lat="38.1121491" lon="14.909354"><ele>914.0</ele><time>2026-05-01T09:15:41.722Z</time></trkpt><trkpt lat="38.1120283" lon="14.9093965"><ele>918.0</ele><time>2026-05-01T09:15:43.722Z</time></trkpt><trkpt lat="38.1119275" lon="14.9094503"><ele>922.0</ele><time>2026-05-01T09:15:45.721Z</time></trkpt><trkpt lat="38.111863" lon="14.9095199"><ele>926.0</ele><time>2026-05-01T09:15:47.722Z</time></trkpt><trkpt lat="38.1118019" lon="14.9096164"><ele>930.0</ele><time>2026-05-01T09:15:49.722Z</time></trkpt><trkpt lat="38.1117389" lon="14.9096997"><ele>930.0</ele><time>2026-05-01T09:15:51.722Z</time></trkpt><trkpt lat="38.1116618" lon="14.9097747"><ele>930.0</ele><time>2026-05-01T09:15:53.722Z</time></trkpt><trkpt lat="38.1115871" lon="14.909853"><ele>930.0</ele><time>2026-05-01T09:15:55.722Z</time></trkpt><trkpt lat="38.111505" lon="14.9099461"><ele>930.0</ele><time>2026-05-01T09:15:57.722Z</time></trkpt><trkpt lat="38.1114209" lon="14.9100282"><ele>930.0</ele><time>2026-05-01T09:15:59.722Z</time></trkpt><trkpt lat="38.1113518" lon="14.9101077"><ele>933.2</ele><time>2026-05-01T09:16:01.721Z</time></trkpt><trkpt lat="38.1112874" lon="14.910186"><ele>936.4</ele><time>2026-05-01T09:16:03.722Z</time></trkpt><trkpt lat="38.1112095" lon="14.9102777"><ele>939.5999999999999</ele><time>2026-05-01T09:16:05.722Z</time></trkpt><trkpt lat="38.1111319" lon="14.910365"><ele>942.8</ele><time>2026-05-01T09:16:07.722Z</time></trkpt><trkpt lat="38.111079" lon="14.9104445"><ele>946.0</ele><time>2026-05-01T09:16:14.722Z</time></trkpt><trkpt lat="38.1110096" lon="14.9105574"><ele>945.9999999999999</ele><time>2026-05-01T09:16:16.722Z</time></trkpt><trkpt lat="38.1109683" lon="14.9106219"><ele>946.0</ele><time>2026-05-01T09:16:17.722Z</time></trkpt><trkpt lat="38.1109295" lon="14.910691"><ele>946.0</ele><time>2026-05-01T09:16:18.722Z</time></trkpt><trkpt lat="38.110854" lon="14.9108162"><ele>946.0</ele><time>2026-05-01T09:16:20.722Z</time></trkpt><trkpt lat="38.1108103" lon="14.9108826"><ele>945.9999999999999</ele><time>2026-05-01T09:16:21.722Z</time></trkpt><trkpt lat="38.1107607" lon="14.9109391"><ele>946.0</ele><time>2026-05-01T09:16:22.721Z</time></trkpt><trkpt lat="38.110646" lon="14.9109896"><ele>949.0</ele><time>2026-05-01T09:16:24.722Z</time></trkpt><trkpt lat="38.1105461" lon="14.9110305"><ele>951.9999999999999</ele><time>2026-05-01T09:16:26.722Z</time></trkpt><trkpt lat="38.1104562" lon="14.9110823"><ele>954.9999999999999</ele><time>2026-05-01T09:16:28.721Z</time></trkpt><trkpt lat="38.1103841" lon="14.9111387"><ele>958.0</ele><time>2026-05-01T09:16:30.722Z</time></trkpt><trkpt lat="38.1103204" lon="14.9112146"><ele>961.0</ele><time>2026-05-01T09:16:32.722Z</time></trkpt><trkpt lat="38.1102697" lon="14.9113287"><ele>961.0</ele><time>2026-05-01T09:16:34.722Z</time></trkpt><trkpt lat="38.110205" lon="14.9114509"><ele>961.0</ele><time>2026-05-01T09:16:36.722Z</time></trkpt><trkpt lat="38.1101455" lon="14.9115669"><ele>961.0</ele><time>2026-05-01T09:16:38.722Z</time></trkpt><trkpt lat="38.1100904" lon="14.9116889"><ele>961.0</ele><time>2026-05-01T09:16:40.722Z</time></trkpt><trkpt lat="38.1100275" lon="14.9118121"><ele>962.0</ele><time>2026-05-01T09:16:42.722Z</time></trkpt><trkpt lat="38.1099603" lon="14.911933"><ele>962.9999999999999</ele><time>2026-05-01T09:16:44.722Z</time></trkpt><trkpt lat="38.1099237" lon="14.9119992"><ele>963.9999999999999</ele><time>2026-05-01T09:16:45.722Z</time></trkpt><trkpt lat="38.1098564" lon="14.9120949"><ele>965.0</ele><time>2026-05-01T09:16:47.722Z</time></trkpt><trkpt lat="38.1097988" lon="14.9121988"><ele>966.0</ele><time>2026-05-01T09:16:49.722Z</time></trkpt><trkpt lat="38.1097432" lon="14.9122887"><ele>966.3333333333334</ele><time>2026-05-01T09:16:51.722Z</time></trkpt><trkpt lat="38.1096727" lon="14.9123813"><ele>966.6666666666667</ele><time>2026-05-01T09:16:53.722Z</time></trkpt><trkpt lat="38.1096248" lon="14.9124374"><ele>967.0</ele><time>2026-05-01T09:16:54.722Z</time></trkpt><trkpt lat="38.109571" lon="14.9124893"><ele>967.3333333333334</ele><time>2026-05-01T09:16:55.722Z</time></trkpt><trkpt lat="38.1094866" lon="14.9125849"><ele>967.6666666666667</ele><time>2026-05-01T09:16:57.722Z</time></trkpt><trkpt lat="38.1095082" lon="14.9126605"><ele>968.0</ele><time>2026-05-01T09:16:59.722Z</time></trkpt><trkpt lat="38.10958" lon="14.9127484"><ele>970.3333333333334</ele><time>2026-05-01T09:17:01.722Z</time></trkpt><trkpt lat="38.1096182" lon="14.9128411"><ele>972.6666666666667</ele><time>2026-05-01T09:17:03.721Z</time></trkpt><trkpt lat="38.1095959" lon="14.9129751"><ele>975.0</ele><time>2026-05-01T09:17:33.722Z</time></trkpt><trkpt lat="38.1095677" lon="14.9130687"><ele>977.3333333333333</ele><time>2026-05-01T09:17:34.722Z</time></trkpt><trkpt lat="38.109548" lon="14.9131619"><ele>979.6666666666666</ele><time>2026-05-01T09:17:35.722Z</time></trkpt><trkpt lat="38.1095352" lon="14.91325"><ele>982.0</ele><time>2026-05-01T09:17:36.722Z</time></trkpt><trkpt lat="38.1095279" lon="14.9133375"><ele>985.0</ele><time>2026-05-01T09:17:37.722Z</time></trkpt><trkpt lat="38.1094938" lon="14.9134832"><ele>988.0</ele><time>2026-05-01T09:17:39.722Z</time></trkpt><trkpt lat="38.1094549" lon="14.9136364"><ele>991.0</ele><time>2026-05-01T09:17:41.722Z</time></trkpt><trkpt lat="38.1094318" lon="14.913715"><ele>994.0</ele><time>2026-05-01T09:17:42.722Z</time></trkpt><trkpt lat="38.1094091" lon="14.9137993"><ele>997.0</ele><time>2026-05-01T09:17:43.722Z</time></trkpt><trkpt lat="38.1093936" lon="14.9138997"><ele>996.9999999999999</ele><time>2026-05-01T09:17:44.722Z</time></trkpt><trkpt lat="38.1093883" lon="14.9140046"><ele>997.0</ele><time>2026-05-01T09:17:45.722Z</time></trkpt><trkpt lat="38.109397" lon="14.9141107"><ele>997.0</ele><time>2026-05-01T09:17:46.721Z</time></trkpt><trkpt lat="38.1094146" lon="14.9142104"><ele>997.0</ele><time>2026-05-01T09:17:47.722Z</time></trkpt><trkpt lat="38.1094285" lon="14.9142959"><ele>996.9999999999999</ele><time>2026-05-01T09:17:48.722Z</time></trkpt><trkpt lat="38.1094142" lon="14.9144375"><ele>997.0</ele><time>2026-05-01T09:17:50.722Z</time></trkpt><trkpt lat="38.1093805" lon="14.9145109"><ele>997.4999999999999</ele><time>2026-05-01T09:17:51.722Z</time></trkpt><trkpt lat="38.1093348" lon="14.9145944"><ele>998.0</ele><time>2026-05-01T09:17:52.722Z</time></trkpt><trkpt lat="38.1092904" lon="14.9146776"><ele>998.5</ele><time>2026-05-01T09:17:53.722Z</time></trkpt><trkpt lat="38.1092536" lon="14.9147489"><ele>999.0</ele><time>2026-05-01T09:17:54.722Z</time></trkpt><trkpt lat="38.1092018" lon="14.9148499"><ele>999.4999999999999</ele><time>2026-05-01T09:17:56.721Z</time></trkpt><trkpt lat="38.1091574" lon="14.914966"><ele>1000.0</ele><time>2026-05-01T09:17:58.721Z</time></trkpt><trkpt lat="38.1091122" lon="14.9150802"><ele>1000.0</ele><time>2026-05-01T09:18:00.722Z</time></trkpt><trkpt lat="38.1090606" lon="14.9151993"><ele>1000.0</ele><time>2026-05-01T09:18:02.722Z</time></trkpt><trkpt lat="38.1090239" lon="14.9152885"><ele>1000.0</ele><time>2026-05-01T09:18:04.722Z</time></trkpt><trkpt lat="38.1089503" lon="14.9153738"><ele>1000.0</ele><time>2026-05-01T09:18:18.722Z</time></trkpt><trkpt lat="38.1088421" lon="14.9154532"><ele>1000.0</ele><time>2026-05-01T09:18:20.723Z</time></trkpt><trkpt lat="38.1087863" lon="14.9155019"><ele>999.9999999999999</ele><time>2026-05-01T09:18:21.723Z</time></trkpt><trkpt lat="38.1086929" lon="14.9155605"><ele>1000.0</ele><time>2026-05-01T09:18:23.723Z</time></trkpt><trkpt lat="38.1086099" lon="14.9155859"><ele>1000.0</ele><time>2026-05-01T09:18:25.723Z</time></trkpt><trkpt lat="38.1085382" lon="14.9156129"><ele>1000.0</ele><time>2026-05-01T09:18:27.723Z</time></trkpt><trkpt lat="38.1084642" lon="14.9156496"><ele>999.9999999999999</ele><time>2026-05-01T09:18:29.723Z</time></trkpt><trkpt lat="38.1083901" lon="14.9156839"><ele>1000.0</ele><time>2026-05-01T09:18:31.723Z</time></trkpt><trkpt lat="38.1083174" lon="14.9157207"><ele>999.9999999999999</ele><time>2026-05-01T09:18:33.723Z</time></trkpt><trkpt lat="38.1082501" lon="14.9157658"><ele>1000.0</ele><time>2026-05-01T09:18:35.723Z</time></trkpt><trkpt lat="38.1081687" lon="14.9157973"><ele>1000.0</ele><time>2026-05-01T09:18:37.723Z</time></trkpt><trkpt lat="38.1080948" lon="14.9158069"><ele>1000.0</ele><time>2026-05-01T09:18:39.723Z</time></trkpt><trkpt lat="38.1080314" lon="14.9158489"><ele>999.9999999999999</ele><time>2026-05-01T09:18:41.722Z</time></trkpt><trkpt lat="38.1079506" lon="14.9159212"><ele>1000.0</ele><time>2026-05-01T09:18:43.722Z</time></trkpt><trkpt lat="38.1078903" lon="14.9159549"><ele>999.9999999999999</ele><time>2026-05-01T09:18:44.722Z</time></trkpt><trkpt lat="38.1078247" lon="14.9159786"><ele>1000.0</ele><time>2026-05-01T09:18:45.723Z</time></trkpt><trkpt lat="38.1077532" lon="14.9159985"><ele>1000.0</ele><time>2026-05-01T09:18:46.723Z</time></trkpt><trkpt lat="38.1076805" lon="14.9160162"><ele>1000.0</ele><time>2026-05-01T09:18:47.723Z</time></trkpt><trkpt lat="38.1076217" lon="14.9160482"><ele>999.9999999999999</ele><time>2026-05-01T09:18:48.723Z</time></trkpt><trkpt lat="38.1075399" lon="14.9161391"><ele>1000.0</ele><time>2026-05-01T09:18:50.722Z</time></trkpt><trkpt lat="38.1074363" lon="14.9162006"><ele>1001.2</ele><time>2026-05-01T09:18:52.723Z</time></trkpt><trkpt lat="38.107301" lon="14.9162389"><ele>1002.4</ele><time>2026-05-01T09:18:54.723Z</time></trkpt><trkpt lat="38.1072148" lon="14.9162626"><ele>1003.5999999999999</ele><time>2026-05-01T09:18:55.722Z</time></trkpt><trkpt lat="38.1071287" lon="14.9163016"><ele>1004.8</ele><time>2026-05-01T09:18:56.723Z</time></trkpt><trkpt lat="38.1070427" lon="14.9163567"><ele>1006.0</ele><time>2026-05-01T09:18:57.722Z</time></trkpt><trkpt lat="38.1069589" lon="14.9164273"><ele>1005.9999999999999</ele><time>2026-05-01T09:18:58.723Z</time></trkpt><trkpt lat="38.1068811" lon="14.9165142"><ele>1006.0</ele><time>2026-05-01T09:18:59.723Z</time></trkpt><trkpt lat="38.1068254" lon="14.9165833"><ele>1006.0</ele><time>2026-05-01T09:19:00.722Z</time></trkpt><trkpt lat="38.1067778" lon="14.9166406"><ele>1006.0</ele><time>2026-05-01T09:19:01.722Z</time></trkpt><trkpt lat="38.1067299" lon="14.9166968"><ele>1005.9999999999999</ele><time>2026-05-01T09:19:02.723Z</time></trkpt><trkpt lat="38.1066764" lon="14.9167581"><ele>1006.0</ele><time>2026-05-01T09:19:03.723Z</time></trkpt><trkpt lat="38.1066064" lon="14.916826"><ele>1005.0</ele><time>2026-05-01T09:19:04.723Z</time></trkpt><trkpt lat="38.1065289" lon="14.916892"><ele>1003.9999999999999</ele><time>2026-05-01T09:19:05.723Z</time></trkpt><trkpt lat="38.1064453" lon="14.9169481"><ele>1002.9999999999999</ele><time>2026-05-01T09:19:06.723Z</time></trkpt><trkpt lat="38.1063504" lon="14.9169924"><ele>1002.0</ele><time>2026-05-01T09:19:07.723Z</time></trkpt><trkpt lat="38.1062321" lon="14.9170203"><ele>1001.0</ele><time>2026-05-01T09:19:08.723Z</time></trkpt><trkpt lat="38.1061071" lon="14.9170377"><ele>1001.0</ele><time>2026-05-01T09:19:09.723Z</time></trkpt><trkpt lat="38.1059941" lon="14.9170628"><ele>1000.9999999999999</ele><time>2026-05-01T09:19:10.723Z</time></trkpt><trkpt lat="38.105898" lon="14.9171184"><ele>1000.9999999999999</ele><time>2026-05-01T09:19:11.723Z</time></trkpt><trkpt lat="38.1058168" lon="14.9172008"><ele>1001.0</ele><time>2026-05-01T09:19:12.722Z</time></trkpt><trkpt lat="38.1057332" lon="14.9172883"><ele>1001.0</ele><time>2026-05-01T09:19:13.723Z</time></trkpt><trkpt lat="38.1056457" lon="14.9173839"><ele>1001.0</ele><time>2026-05-01T09:19:14.722Z</time></trkpt><trkpt lat="38.1055561" lon="14.9174872"><ele>1000.9999999999999</ele><time>2026-05-01T09:19:15.723Z</time></trkpt><trkpt lat="38.1054827" lon="14.9175813"><ele>1000.9999999999999</ele><time>2026-05-01T09:19:16.723Z</time></trkpt><trkpt lat="38.10542" lon="14.9176719"><ele>1001.0</ele><time>2026-05-01T09:19:17.723Z</time></trkpt><trkpt lat="38.1053682" lon="14.9177598"><ele>1001.0</ele><time>2026-05-01T09:19:18.723Z</time></trkpt><trkpt lat="38.1053267" lon="14.9178572"><ele>1003.1999999999999</ele><time>2026-05-01T09:19:19.722Z</time></trkpt><trkpt lat="38.1052835" lon="14.9179702"><ele>1005.3999999999999</ele><time>2026-05-01T09:19:20.722Z</time></trkpt><trkpt lat="38.105232" lon="14.9180969"><ele>1007.6</ele><time>2026-05-01T09:19:21.723Z</time></trkpt><trkpt lat="38.10517" lon="14.9182154"><ele>1009.8</ele><time>2026-05-01T09:19:22.723Z</time></trkpt><trkpt lat="38.1051008" lon="14.918319"><ele>1012.0</ele><time>2026-05-01T09:19:23.723Z</time></trkpt><trkpt lat="38.1050378" lon="14.9183955"><ele>1010.9999999999999</ele><time>2026-05-01T09:19:24.723Z</time></trkpt><trkpt lat="38.104979" lon="14.9184462"><ele>1010.0</ele><time>2026-05-01T09:19:25.723Z</time></trkpt><trkpt lat="38.1049271" lon="14.9184954"><ele>1009.0</ele><time>2026-05-01T09:19:26.723Z</time></trkpt><trkpt lat="38.1048865" lon="14.9185665"><ele>1008.0</ele><time>2026-05-01T09:19:27.722Z</time></trkpt><trkpt lat="38.1048363" lon="14.9186507"><ele>1006.9999999999999</ele><time>2026-05-01T09:19:28.723Z</time></trkpt><trkpt lat="38.1047722" lon="14.9187323"><ele>1006.0</ele><time>2026-05-01T09:19:29.723Z</time></trkpt><trkpt lat="38.1047012" lon="14.9188012"><ele>1009.8333333333333</ele><time>2026-05-01T09:19:30.723Z</time></trkpt><trkpt lat="38.1046403" lon="14.9188551"><ele>1013.6666666666666</ele><time>2026-05-01T09:19:31.723Z</time></trkpt><trkpt lat="38.1045892" lon="14.9189032"><ele>1017.5</ele><time>2026-05-01T09:19:32.722Z</time></trkpt><trkpt lat="38.1045413" lon="14.9189582"><ele>1021.3333333333333</ele><time>2026-05-01T09:19:33.723Z</time></trkpt><trkpt lat="38.1044137" lon="14.9189966"><ele>1025.1666666666667</ele><time>2026-05-01T09:19:35.723Z</time></trkpt><trkpt lat="38.1043262" lon="14.9189588"><ele>1029.0</ele><time>2026-05-01T09:19:36.723Z</time></trkpt><trkpt lat="38.1042422" lon="14.9188868"><ele>1029.0</ele><time>2026-05-01T09:19:37.723Z</time></trkpt><trkpt lat="38.1041723" lon="14.9188199"><ele>1029.0</ele><time>2026-05-01T09:19:38.723Z</time></trkpt><trkpt lat="38.1041124" lon="14.9187699"><ele>1029.0</ele><time>2026-05-01T09:19:39.722Z</time></trkpt><trkpt lat="38.1040579" lon="14.9187288"><ele>1029.0</ele><time>2026-05-01T09:19:40.723Z</time></trkpt><trkpt lat="38.1039542" lon="14.9186973"><ele>1029.0</ele><time>2026-05-01T09:19:42.723Z</time></trkpt><trkpt lat="38.1038623" lon="14.9187069"><ele>1029.0</ele><time>2026-05-01T09:19:44.723Z</time></trkpt><trkpt lat="38.1037858" lon="14.9187353"><ele>1031.2</ele><time>2026-05-01T09:19:46.723Z</time></trkpt><trkpt lat="38.1037168" lon="14.9187513"><ele>1033.4</ele><time>2026-05-01T09:19:48.722Z</time></trkpt><trkpt lat="38.1036352" lon="14.9187599"><ele>1035.6</ele><time>2026-05-01T09:19:50.723Z</time></trkpt><trkpt lat="38.1035325" lon="14.9187597"><ele>1037.8</ele><time>2026-05-01T09:19:52.723Z</time></trkpt><trkpt lat="38.1034209" lon="14.9187363"><ele>1040.0</ele><time>2026-05-01T09:19:54.723Z</time></trkpt><trkpt lat="38.1033097" lon="14.9186858"><ele>1041.6</ele><time>2026-05-01T09:19:56.723Z</time></trkpt><trkpt lat="38.1032432" lon="14.9186415"><ele>1043.2</ele><time>2026-05-01T09:19:57.723Z</time></trkpt><trkpt lat="38.1031577" lon="14.9185862"><ele>1044.8</ele><time>2026-05-01T09:19:58.723Z</time></trkpt><trkpt lat="38.10305" lon="14.9185188"><ele>1046.4</ele><time>2026-05-01T09:19:59.723Z</time></trkpt><trkpt lat="38.1029424" lon="14.9184467"><ele>1048.0</ele><time>2026-05-01T09:20:00.723Z</time></trkpt><trkpt lat="38.1028477" lon="14.9183826"><ele>1048.0</ele><time>2026-05-01T09:20:01.723Z</time></trkpt><trkpt lat="38.102768" lon="14.9183096"><ele>1048.0</ele><time>2026-05-01T09:20:02.723Z</time></trkpt><trkpt lat="38.1026987" lon="14.9182331"><ele>1048.0</ele><time>2026-05-01T09:20:03.723Z</time></trkpt><trkpt lat="38.1026356" lon="14.9181653"><ele>1048.0</ele><time>2026-05-01T09:20:04.723Z</time></trkpt><trkpt lat="38.1025726" lon="14.9181017"><ele>1048.0</ele><time>2026-05-01T09:20:05.723Z</time></trkpt><trkpt lat="38.1025162" lon="14.9180461"><ele>1048.0</ele><time>2026-05-01T09:20:06.723Z</time></trkpt><trkpt lat="38.1024654" lon="14.9179917"><ele>1049.2</ele><time>2026-05-01T09:20:07.723Z</time></trkpt><trkpt lat="38.1023717" lon="14.9179237"><ele>1050.4</ele><time>2026-05-01T09:20:09.723Z</time></trkpt><trkpt lat="38.1022795" lon="14.9179192"><ele>1051.6000000000001</ele><time>2026-05-01T09:20:11.723Z</time></trkpt><trkpt lat="38.102189" lon="14.9179409"><ele>1052.8</ele><time>2026-05-01T09:20:13.723Z</time></trkpt><trkpt lat="38.1021029" lon="14.9179276"><ele>1054.0</ele><time>2026-05-01T09:20:15.722Z</time></trkpt><trkpt lat="38.102017" lon="14.9178725"><ele>1054.0000000000002</ele><time>2026-05-01T09:20:17.723Z</time></trkpt><trkpt lat="38.1019703" lon="14.9177976"><ele>1054.0</ele><time>2026-05-01T09:20:19.723Z</time></trkpt><trkpt lat="38.1019517" lon="14.9177195"><ele>1054.0</ele><time>2026-05-01T09:20:21.722Z</time></trkpt><trkpt lat="38.1019115" lon="14.9176502"><ele>1054.0</ele><time>2026-05-01T09:20:23.723Z</time></trkpt><trkpt lat="38.101874" lon="14.917579"><ele>1054.0</ele><time>2026-05-01T09:20:25.723Z</time></trkpt><trkpt lat="38.1018042" lon="14.9175071"><ele>1054.0000000000002</ele><time>2026-05-01T09:20:28.723Z</time></trkpt><trkpt lat="38.1017373" lon="14.9174877"><ele>1054.0</ele><time>2026-05-01T09:20:30.723Z</time></trkpt><trkpt lat="38.1016713" lon="14.9174721"><ele>1050.5714285714287</ele><time>2026-05-01T09:20:32.722Z</time></trkpt><trkpt lat="38.1016042" lon="14.9174629"><ele>1047.142857142857</ele><time>2026-05-01T09:20:34.723Z</time></trkpt><trkpt lat="38.1015415" lon="14.917443"><ele>1043.7142857142858</ele><time>2026-05-01T09:20:36.722Z</time></trkpt><trkpt lat="38.1014646" lon="14.9174131"><ele>1040.2857142857142</ele><time>2026-05-01T09:20:38.723Z</time></trkpt><trkpt lat="38.1013944" lon="14.9173614"><ele>1036.857142857143</ele><time>2026-05-01T09:20:40.722Z</time></trkpt><trkpt lat="38.1013311" lon="14.917331"><ele>1033.4285714285716</ele><time>2026-05-01T09:20:42.723Z</time></trkpt><trkpt lat="38.1012577" lon="14.9173035"><ele>1030.0</ele><time>2026-05-01T09:20:44.723Z</time></trkpt><trkpt lat="38.1011834" lon="14.9173025"><ele>1030.0</ele><time>2026-05-01T09:20:46.723Z</time></trkpt><trkpt lat="38.1011168" lon="14.9173151"><ele>1030.0</ele><time>2026-05-01T09:20:48.723Z</time></trkpt><trkpt lat="38.1010852" lon="14.9172332"><ele>1030.0</ele><time>2026-05-01T09:20:51.723Z</time></trkpt><trkpt lat="38.1011066" lon="14.9171523"><ele>1030.0</ele><time>2026-05-01T09:20:53.722Z</time></trkpt><trkpt lat="38.1010989" lon="14.9170394"><ele>1030.0</ele><time>2026-05-01T09:20:55.723Z</time></trkpt><trkpt lat="38.1010743" lon="14.9169191"><ele>1030.0</ele><time>2026-05-01T09:20:57.723Z</time></trkpt><trkpt lat="38.1010502" lon="14.916813"><ele>1024.2</ele><time>2026-05-01T09:20:59.723Z</time></trkpt><trkpt lat="38.1010375" lon="14.9166893"><ele>1018.4</ele><time>2026-05-01T09:21:01.723Z</time></trkpt><trkpt lat="38.101028" lon="14.9165698"><ele>1012.5999999999999</ele><time>2026-05-01T09:21:03.723Z</time></trkpt><trkpt lat="38.101022" lon="14.9164604"><ele>1006.8</ele><time>2026-05-01T09:21:05.722Z</time></trkpt><trkpt lat="38.1009905" lon="14.9163511"><ele>1001.0</ele><time>2026-05-01T09:21:07.723Z</time></trkpt><trkpt lat="38.1009552" lon="14.9162435"><ele>1001.0</ele><time>2026-05-01T09:21:09.723Z</time></trkpt><trkpt lat="38.1009241" lon="14.9161388"><ele>1000.9999999999999</ele><time>2026-05-01T09:21:11.723Z</time></trkpt><trkpt lat="38.1009016" lon="14.9160364"><ele>1000.9999999999999</ele><time>2026-05-01T09:21:13.722Z</time></trkpt><trkpt lat="38.1008758" lon="14.9159101"><ele>1001.0</ele><time>2026-05-01T09:21:15.722Z</time></trkpt><trkpt lat="38.1008446" lon="14.9157903"><ele>1001.0</ele><time>2026-05-01T09:21:17.723Z</time></trkpt><trkpt lat="38.1008052" lon="14.915703"><ele>997.8333333333334</ele><time>2026-05-01T09:21:19.723Z</time></trkpt><trkpt lat="38.1007854" lon="14.9155879"><ele>994.6666666666667</ele><time>2026-05-01T09:21:21.723Z</time></trkpt><trkpt lat="38.1007721" lon="14.9154603"><ele>991.5</ele><time>2026-05-01T09:21:23.723Z</time></trkpt><trkpt lat="38.1007555" lon="14.9153469"><ele>988.3333333333333</ele><time>2026-05-01T09:21:25.723Z</time></trkpt><trkpt lat="38.100713" lon="14.9152651"><ele>985.1666666666666</ele><time>2026-05-01T09:21:27.722Z</time></trkpt><trkpt lat="38.1006438" lon="14.9152387"><ele>982.0</ele><time>2026-05-01T09:21:30.723Z</time></trkpt><trkpt lat="38.1005662" lon="14.9152322"><ele>980.4285714285713</ele><time>2026-05-01T09:21:33.723Z</time></trkpt><trkpt lat="38.1005266" lon="14.9151615"><ele>978.8571428571428</ele><time>2026-05-01T09:21:38.723Z</time></trkpt><trkpt lat="38.1004602" lon="14.9151103"><ele>977.2857142857142</ele><time>2026-05-01T09:21:41.723Z</time></trkpt><trkpt lat="38.1003845" lon="14.9150685"><ele>975.7142857142858</ele><time>2026-05-01T09:21:44.723Z</time></trkpt><trkpt lat="38.1003355" lon="14.9150064"><ele>974.1428571428572</ele><time>2026-05-01T09:22:15.723Z</time></trkpt><trkpt lat="38.1002914" lon="14.9149407"><ele>972.5714285714287</ele><time>2026-05-01T09:22:17.723Z</time></trkpt><trkpt lat="38.1002601" lon="14.9148659"><ele>971.0</ele><time>2026-05-01T09:22:43.723Z</time></trkpt><trkpt lat="38.100245" lon="14.9147858"><ele>967.8333333333334</ele><time>2026-05-01T09:22:45.723Z</time></trkpt><trkpt lat="38.1002619" lon="14.9147049"><ele>964.6666666666667</ele><time>2026-05-01T09:22:48.723Z</time></trkpt><trkpt lat="38.1002782" lon="14.9146096"><ele>961.5</ele><time>2026-05-01T09:22:51.723Z</time></trkpt><trkpt lat="38.10026" lon="14.9145039"><ele>958.3333333333333</ele><time>2026-05-01T09:22:53.723Z</time></trkpt><trkpt lat="38.1002101" lon="14.9144186"><ele>955.1666666666666</ele><time>2026-05-01T09:22:55.723Z</time></trkpt><trkpt lat="38.1001475" lon="14.9143799"><ele>952.0</ele><time>2026-05-01T09:22:57.722Z</time></trkpt><trkpt lat="38.1001005" lon="14.9143082"><ele>949.4999999999999</ele><time>2026-05-01T09:22:59.723Z</time></trkpt><trkpt lat="38.1001028" lon="14.9142129"><ele>947.0</ele><time>2026-05-01T09:23:01.723Z</time></trkpt><trkpt lat="38.1001206" lon="14.9140979"><ele>944.5</ele><time>2026-05-01T09:23:03.723Z</time></trkpt><trkpt lat="38.100143" lon="14.9139751"><ele>942.0</ele><time>2026-05-01T09:23:05.723Z</time></trkpt><trkpt lat="38.100145" lon="14.9138695"><ele>939.4999999999999</ele><time>2026-05-01T09:23:07.723Z</time></trkpt><trkpt lat="38.1001293" lon="14.9137919"><ele>937.0</ele><time>2026-05-01T09:23:09.723Z</time></trkpt><trkpt lat="38.1001231" lon="14.9136671"><ele>936.9999999999999</ele><time>2026-05-01T09:24:03.723Z</time></trkpt><trkpt lat="38.1000872" lon="14.9135795"><ele>937.0</ele><time>2026-05-01T09:24:08.723Z</time></trkpt><trkpt lat="38.1001042" lon="14.9134923"><ele>937.0</ele><time>2026-05-01T09:24:11.723Z</time></trkpt><trkpt lat="38.1000349" lon="14.9134688"><ele>937.0</ele><time>2026-05-01T09:25:56.724Z</time></trkpt><trkpt lat="38.0999873" lon="14.9133849"><ele>936.9999999999999</ele><time>2026-05-01T09:26:20.724Z</time></trkpt><trkpt lat="38.0999224" lon="14.9133214"><ele>937.0</ele><time>2026-05-01T09:26:23.723Z</time></trkpt><trkpt lat="38.0998564" lon="14.9133067"><ele>931.6666666666666</ele><time>2026-05-01T09:26:26.724Z</time></trkpt><trkpt lat="38.0997842" lon="14.9132589"><ele>926.3333333333333</ele><time>2026-05-01T09:26:40.724Z</time></trkpt><trkpt lat="38.0997143" lon="14.9131984"><ele>921.0</ele><time>2026-05-01T09:26:43.724Z</time></trkpt><trkpt lat="38.0996563" lon="14.9131396"><ele>915.6666666666667</ele><time>2026-05-01T09:26:45.724Z</time></trkpt><trkpt lat="38.0996184" lon="14.9130651"><ele>910.3333333333334</ele><time>2026-05-01T09:26:47.724Z</time></trkpt><trkpt lat="38.0995981" lon="14.9129464"><ele>905.0</ele><time>2026-05-01T09:26:50.724Z</time></trkpt><trkpt lat="38.0996252" lon="14.9128353"><ele>905.0000000000001</ele><time>2026-05-01T09:26:53.724Z</time></trkpt><trkpt lat="38.0996231" lon="14.9127528"><ele>905.0</ele><time>2026-05-01T09:26:56.723Z</time></trkpt><trkpt lat="38.0995498" lon="14.9126818"><ele>905.0</ele><time>2026-05-01T09:26:59.724Z</time></trkpt><trkpt lat="38.099495" lon="14.9126258"><ele>905.0</ele><time>2026-05-01T09:27:02.723Z</time></trkpt><trkpt lat="38.0994083" lon="14.9126127"><ele>905.0000000000001</ele><time>2026-05-01T09:27:05.724Z</time></trkpt><trkpt lat="38.0993282" lon="14.9125839"><ele>905.0</ele><time>2026-05-01T09:27:09.724Z</time></trkpt><trkpt lat="38.0993052" lon="14.9124984"><ele>903.1666666666667</ele><time>2026-05-01T09:27:12.724Z</time></trkpt><trkpt lat="38.0993294" lon="14.9123929"><ele>901.3333333333334</ele><time>2026-05-01T09:27:15.724Z</time></trkpt><trkpt lat="38.0993684" lon="14.9122966"><ele>899.5</ele><time>2026-05-01T09:27:18.724Z</time></trkpt><trkpt lat="38.0994166" lon="14.9122015"><ele>897.6666666666667</ele><time>2026-05-01T09:27:21.723Z</time></trkpt><trkpt lat="38.0994585" lon="14.9121045"><ele>895.8333333333334</ele><time>2026-05-01T09:27:24.724Z</time></trkpt><trkpt lat="38.099444" lon="14.9120143"><ele>894.0</ele><time>2026-05-01T09:27:27.723Z</time></trkpt><trkpt lat="38.0993636" lon="14.9119857"><ele>894.0</ele><time>2026-05-01T09:27:31.724Z</time></trkpt><trkpt lat="38.099285" lon="14.9119531"><ele>894.0</ele><time>2026-05-01T09:27:34.724Z</time></trkpt><trkpt lat="38.0992521" lon="14.9118666"><ele>894.0</ele><time>2026-05-01T09:27:38.724Z</time></trkpt><trkpt lat="38.0993001" lon="14.9117762"><ele>894.0</ele><time>2026-05-01T09:27:41.724Z</time></trkpt><trkpt lat="38.0993573" lon="14.9117011"><ele>894.0</ele><time>2026-05-01T09:27:44.724Z</time></trkpt><trkpt lat="38.0993964" lon="14.9116379"><ele>894.0</ele><time>2026-05-01T09:27:46.724Z</time></trkpt><trkpt lat="38.0994404" lon="14.911574"><ele>890.8333333333334</ele><time>2026-05-01T09:27:48.724Z</time></trkpt><trkpt lat="38.0994881" lon="14.9115163"><ele>887.6666666666667</ele><time>2026-05-01T09:27:50.724Z</time></trkpt><trkpt lat="38.0995449" lon="14.911458"><ele>884.5</ele><time>2026-05-01T09:27:52.724Z</time></trkpt><trkpt lat="38.099595" lon="14.9114053"><ele>881.3333333333334</ele><time>2026-05-01T09:27:54.724Z</time></trkpt><trkpt lat="38.0996563" lon="14.9113638"><ele>878.1666666666667</ele><time>2026-05-01T09:27:56.724Z</time></trkpt><trkpt lat="38.0997594" lon="14.9113195"><ele>875.0</ele><time>2026-05-01T09:27:58.724Z</time></trkpt><trkpt lat="38.099863" lon="14.9112881"><ele>877.8</ele><time>2026-05-01T09:28:00.724Z</time></trkpt><trkpt lat="38.0999425" lon="14.9113003"><ele>880.6</ele><time>2026-05-01T09:28:02.724Z</time></trkpt><trkpt lat="38.1000206" lon="14.9112956"><ele>883.4000000000001</ele><time>2026-05-01T09:28:04.724Z</time></trkpt><trkpt lat="38.1001318" lon="14.9112531"><ele>886.2</ele><time>2026-05-01T09:28:06.724Z</time></trkpt><trkpt lat="38.1002107" lon="14.9111959"><ele>889.0</ele><time>2026-05-01T09:28:08.724Z</time></trkpt><trkpt lat="38.1002718" lon="14.9111165"><ele>889.0</ele><time>2026-05-01T09:28:10.724Z</time></trkpt><trkpt lat="38.1003257" lon="14.9110508"><ele>889.0</ele><time>2026-05-01T09:28:12.724Z</time></trkpt><trkpt lat="38.1003885" lon="14.9109998"><ele>889.0</ele><time>2026-05-01T09:28:14.724Z</time></trkpt><trkpt lat="38.100461" lon="14.910942"><ele>889.0</ele><time>2026-05-01T09:28:17.724Z</time></trkpt><trkpt lat="38.1004083" lon="14.910865"><ele>889.0</ele><time>2026-05-01T09:28:21.724Z</time></trkpt><trkpt lat="38.1003517" lon="14.9108283"><ele>889.0</ele><time>2026-05-01T09:28:24.724Z</time></trkpt><trkpt lat="38.1004133" lon="14.9107867"><ele>889.0</ele><time>2026-05-01T09:28:27.724Z</time></trkpt><trkpt lat="38.1004833" lon="14.910725"><ele>884.9999999999999</ele><time>2026-05-01T09:28:30.724Z</time></trkpt><trkpt lat="38.1003767" lon="14.9107083"><ele>881.0</ele><time>2026-05-01T09:28:41.724Z</time></trkpt><trkpt lat="38.1003033" lon="14.9106933"><ele>877.0</ele><time>2026-05-01T09:28:44.724Z</time></trkpt><trkpt lat="38.1002017" lon="14.91063"><ele>873.0</ele><time>2026-05-01T09:28:47.724Z</time></trkpt><trkpt lat="38.1001517" lon="14.9105667"><ele>868.9999999999999</ele><time>2026-05-01T09:28:48.724Z</time></trkpt><trkpt lat="38.10011" lon="14.9104783"><ele>865.0</ele><time>2026-05-01T09:28:49.724Z</time></trkpt><trkpt lat="38.100055" lon="14.9103567"><ele>865.0</ele><time>2026-05-01T09:28:50.724Z</time></trkpt><trkpt lat="38.1" lon="14.9102517"><ele>865.0</ele><time>2026-05-01T09:28:51.724Z</time></trkpt><trkpt lat="38.099925" lon="14.91016"><ele>865.0</ele><time>2026-05-01T09:28:52.724Z</time></trkpt><trkpt lat="38.0998333" lon="14.910095"><ele>865.0</ele><time>2026-05-01T09:28:53.724Z</time></trkpt><trkpt lat="38.0997383" lon="14.9100267"><ele>865.0</ele><time>2026-05-01T09:28:54.724Z</time></trkpt><trkpt lat="38.0996467" lon="14.909975"><ele>860.2</ele><time>2026-05-01T09:28:55.724Z</time></trkpt><trkpt lat="38.0995467" lon="14.909935"><ele>855.4</ele><time>2026-05-01T09:28:56.724Z</time></trkpt><trkpt lat="38.0994617" lon="14.90992"><ele>850.5999999999999</ele><time>2026-05-01T09:28:57.723Z</time></trkpt><trkpt lat="38.0993733" lon="14.9099"><ele>845.8</ele><time>2026-05-01T09:28:58.724Z</time></trkpt><trkpt lat="38.0992967" lon="14.9098767"><ele>841.0</ele><time>2026-05-01T09:28:59.724Z</time></trkpt><trkpt lat="38.0991733" lon="14.9098817"><ele>841.0</ele><time>2026-05-01T09:29:01.724Z</time></trkpt><trkpt lat="38.09911" lon="14.9099167"><ele>841.0</ele><time>2026-05-01T09:29:02.724Z</time></trkpt><trkpt lat="38.0990333" lon="14.909985"><ele>841.0</ele><time>2026-05-01T09:29:03.724Z</time></trkpt><trkpt lat="38.09895" lon="14.9100717"><ele>841.0</ele><time>2026-05-01T09:29:04.724Z</time></trkpt><trkpt lat="38.0988767" lon="14.910155"><ele>841.0</ele><time>2026-05-01T09:29:05.724Z</time></trkpt><trkpt lat="38.0988" lon="14.9102183"><ele>841.2857142857143</ele><time>2026-05-01T09:29:06.724Z</time></trkpt><trkpt lat="38.0987333" lon="14.9102683"><ele>841.5714285714286</ele><time>2026-05-01T09:29:07.724Z</time></trkpt><trkpt lat="38.0986633" lon="14.9103117"><ele>841.8571428571429</ele><time>2026-05-01T09:29:08.724Z</time></trkpt><trkpt lat="38.0985983" lon="14.9103417"><ele>842.1428571428571</ele><time>2026-05-01T09:29:09.724Z</time></trkpt><trkpt lat="38.0985333" lon="14.9103717"><ele>842.4285714285713</ele><time>2026-05-01T09:29:10.724Z</time></trkpt><trkpt lat="38.09847" lon="14.9103883"><ele>842.7142857142857</ele><time>2026-05-01T09:29:11.724Z</time></trkpt><trkpt lat="38.0984017" lon="14.9104"><ele>843.0</ele><time>2026-05-01T09:29:12.724Z</time></trkpt><trkpt lat="38.0983283" lon="14.91043"><ele>843.0</ele><time>2026-05-01T09:29:13.724Z</time></trkpt><trkpt lat="38.0982633" lon="14.9104717"><ele>843.0</ele><time>2026-05-01T09:29:14.723Z</time></trkpt><trkpt lat="38.0982" lon="14.91051"><ele>843.0</ele><time>2026-05-01T09:29:15.723Z</time></trkpt><trkpt lat="38.0981383" lon="14.91053"><ele>843.0</ele><time>2026-05-01T09:29:16.724Z</time></trkpt><trkpt lat="38.0980217" lon="14.9105667"><ele>843.0</ele><time>2026-05-01T09:29:18.724Z</time></trkpt><trkpt lat="38.0979567" lon="14.9105983"><ele>843.0</ele><time>2026-05-01T09:29:19.724Z</time></trkpt><trkpt lat="38.097895" lon="14.9106283"><ele>840.0</ele><time>2026-05-01T09:29:20.723Z</time></trkpt><trkpt lat="38.09783" lon="14.9106517"><ele>837.0</ele><time>2026-05-01T09:29:22.724Z</time></trkpt><trkpt lat="38.0977583" lon="14.9105533"><ele>834.0</ele><time>2026-05-01T09:29:26.724Z</time></trkpt><trkpt lat="38.0977167" lon="14.9104717"><ele>831.0</ele><time>2026-05-01T09:29:28.724Z</time></trkpt><trkpt lat="38.0976433" lon="14.91046"><ele>828.0</ele><time>2026-05-01T09:29:32.724Z</time></trkpt><trkpt lat="38.09758" lon="14.9105067"><ele>825.0</ele><time>2026-05-01T09:29:35.724Z</time></trkpt><trkpt lat="38.0975267" lon="14.9105533"><ele>825.0</ele><time>2026-05-01T09:29:37.723Z</time></trkpt><trkpt lat="38.0974617" lon="14.9105333"><ele>825.0</ele><time>2026-05-01T09:29:39.723Z</time></trkpt><trkpt lat="38.0974433" lon="14.91043"><ele>825.0</ele><time>2026-05-01T09:29:41.724Z</time></trkpt><trkpt lat="38.0974883" lon="14.9103183"><ele>825.0</ele><time>2026-05-01T09:29:43.724Z</time></trkpt><trkpt lat="38.0975483" lon="14.91021"><ele>825.0</ele><time>2026-05-01T09:29:45.724Z</time></trkpt><trkpt lat="38.0975917" lon="14.9101117"><ele>825.0</ele><time>2026-05-01T09:29:47.724Z</time></trkpt><trkpt lat="38.0976417" lon="14.9100167"><ele>822.8333333333334</ele><time>2026-05-01T09:29:49.724Z</time></trkpt><trkpt lat="38.0976917" lon="14.909915"><ele>820.6666666666667</ele><time>2026-05-01T09:29:51.724Z</time></trkpt><trkpt lat="38.0977383" lon="14.9097833"><ele>818.5</ele><time>2026-05-01T09:29:53.724Z</time></trkpt><trkpt lat="38.0977617" lon="14.9097"><ele>816.3333333333334</ele><time>2026-05-01T09:29:54.724Z</time></trkpt><trkpt lat="38.0977883" lon="14.9096083"><ele>814.1666666666667</ele><time>2026-05-01T09:29:55.723Z</time></trkpt><trkpt lat="38.0978217" lon="14.9095117"><ele>812.0</ele><time>2026-05-01T09:29:56.724Z</time></trkpt><trkpt lat="38.0978567" lon="14.90941"><ele>812.0000000000001</ele><time>2026-05-01T09:29:57.724Z</time></trkpt><trkpt lat="38.0979033" lon="14.9093183"><ele>812.0</ele><time>2026-05-01T09:29:58.724Z</time></trkpt><trkpt lat="38.0979567" lon="14.90923"><ele>812.0</ele><time>2026-05-01T09:29:59.724Z</time></trkpt><trkpt lat="38.0980167" lon="14.9091267"><ele>812.0</ele><time>2026-05-01T09:30:00.724Z</time></trkpt><trkpt lat="38.0980733" lon="14.909035"><ele>812.0000000000001</ele><time>2026-05-01T09:30:01.724Z</time></trkpt><trkpt lat="38.0981167" lon="14.9089483"><ele>812.0</ele><time>2026-05-01T09:30:02.724Z</time></trkpt><trkpt lat="38.09816" lon="14.9088733"><ele>809.4000000000001</ele><time>2026-05-01T09:30:03.723Z</time></trkpt><trkpt lat="38.0982017" lon="14.9088083"><ele>806.8000000000001</ele><time>2026-05-01T09:30:04.724Z</time></trkpt><trkpt lat="38.0982483" lon="14.9086867"><ele>804.2</ele><time>2026-05-01T09:30:06.724Z</time></trkpt><trkpt lat="38.098225" lon="14.9085717"><ele>801.6</ele><time>2026-05-01T09:30:08.724Z</time></trkpt><trkpt lat="38.0981233" lon="14.9084717"><ele>799.0</ele><time>2026-05-01T09:30:10.725Z</time></trkpt><trkpt lat="38.0980633" lon="14.90842"><ele>796.6666666666666</ele><time>2026-05-01T09:30:11.725Z</time></trkpt><trkpt lat="38.098005" lon="14.9083783"><ele>794.3333333333333</ele><time>2026-05-01T09:30:12.725Z</time></trkpt><trkpt lat="38.0979383" lon="14.9083583"><ele>792.0</ele><time>2026-05-01T09:30:13.725Z</time></trkpt><trkpt lat="38.0978367" lon="14.90831"><ele>789.6666666666667</ele><time>2026-05-01T09:30:15.725Z</time></trkpt><trkpt lat="38.097815" lon="14.90821"><ele>787.3333333333334</ele><time>2026-05-01T09:30:17.725Z</time></trkpt><trkpt lat="38.0978983" lon="14.9080967"><ele>785.0</ele><time>2026-05-01T09:30:19.725Z</time></trkpt><trkpt lat="38.09794" lon="14.90803"><ele>785.0000000000001</ele><time>2026-05-01T09:30:20.725Z</time></trkpt><trkpt lat="38.09798" lon="14.9079633"><ele>785.0</ele><time>2026-05-01T09:30:21.724Z</time></trkpt><trkpt lat="38.09801" lon="14.9078817"><ele>785.0</ele><time>2026-05-01T09:30:22.725Z</time></trkpt><trkpt lat="38.0980417" lon="14.907795"><ele>785.0</ele><time>2026-05-01T09:30:23.724Z</time></trkpt><trkpt lat="38.0980783" lon="14.9077017"><ele>785.0000000000001</ele><time>2026-05-01T09:30:24.725Z</time></trkpt><trkpt lat="38.0981283" lon="14.907605"><ele>785.0</ele><time>2026-05-01T09:30:25.725Z</time></trkpt><trkpt lat="38.0981767" lon="14.9074983"><ele>784.2</ele><time>2026-05-01T09:30:26.725Z</time></trkpt><trkpt lat="38.09822" lon="14.9073917"><ele>783.4</ele><time>2026-05-01T09:30:27.725Z</time></trkpt><trkpt lat="38.09826" lon="14.9072917"><ele>782.5999999999999</ele><time>2026-05-01T09:30:28.725Z</time></trkpt><trkpt lat="38.0983067" lon="14.9071983"><ele>781.8</ele><time>2026-05-01T09:30:29.725Z</time></trkpt><trkpt lat="38.0983617" lon="14.907105"><ele>781.0</ele><time>2026-05-01T09:30:30.725Z</time></trkpt><trkpt lat="38.0984233" lon="14.9070067"><ele>781.0</ele><time>2026-05-01T09:30:31.725Z</time></trkpt><trkpt lat="38.0985017" lon="14.906915"><ele>781.0</ele><time>2026-05-01T09:30:32.725Z</time></trkpt><trkpt lat="38.0985817" lon="14.906835"><ele>781.0</ele><time>2026-05-01T09:30:33.725Z</time></trkpt><trkpt lat="38.0986617" lon="14.906755"><ele>781.0</ele><time>2026-05-01T09:30:34.725Z</time></trkpt><trkpt lat="38.0987317" lon="14.90668"><ele>781.0</ele><time>2026-05-01T09:30:35.724Z</time></trkpt><trkpt lat="38.0987933" lon="14.9066183"><ele>777.4999999999999</ele><time>2026-05-01T09:30:36.724Z</time></trkpt><trkpt lat="38.0988533" lon="14.906565"><ele>774.0</ele><time>2026-05-01T09:30:37.725Z</time></trkpt><trkpt lat="38.0989667" lon="14.9065083"><ele>770.5</ele><time>2026-05-01T09:30:39.725Z</time></trkpt><trkpt lat="38.09903" lon="14.9064867"><ele>767.0</ele><time>2026-05-01T09:30:40.725Z</time></trkpt><trkpt lat="38.0991017" lon="14.9064817"><ele>763.5</ele><time>2026-05-01T09:30:41.725Z</time></trkpt><trkpt lat="38.09918" lon="14.9064983"><ele>760.0</ele><time>2026-05-01T09:30:42.725Z</time></trkpt><trkpt lat="38.0992433" lon="14.9065367"><ele>759.6666666666667</ele><time>2026-05-01T09:30:43.725Z</time></trkpt><trkpt lat="38.0993083" lon="14.9065783"><ele>759.3333333333334</ele><time>2026-05-01T09:30:44.724Z</time></trkpt><trkpt lat="38.0993683" lon="14.9066233"><ele>759.0</ele><time>2026-05-01T09:30:45.725Z</time></trkpt><trkpt lat="38.0994567" lon="14.9066933"><ele>758.6666666666666</ele><time>2026-05-01T09:30:47.725Z</time></trkpt><trkpt lat="38.09953" lon="14.9066717"><ele>758.3333333333333</ele><time>2026-05-01T09:30:49.725Z</time></trkpt><trkpt lat="38.09948" lon="14.906605"><ele>758.0</ele><time>2026-05-01T09:30:53.725Z</time></trkpt><trkpt lat="38.0994183" lon="14.9065567"><ele>758.0</ele><time>2026-05-01T09:31:11.725Z</time></trkpt><trkpt lat="38.0993427" lon="14.9064879"><ele>758.0</ele><time>2026-05-01T09:31:13.725Z</time></trkpt><trkpt lat="38.0992778" lon="14.9064148"><ele>758.0</ele><time>2026-05-01T09:31:15.725Z</time></trkpt><trkpt lat="38.0992135" lon="14.9063267"><ele>758.0</ele><time>2026-05-01T09:31:17.725Z</time></trkpt><trkpt lat="38.0991395" lon="14.9062091"><ele>758.0</ele><time>2026-05-01T09:31:19.724Z</time></trkpt><trkpt lat="38.0991028" lon="14.9061417"><ele>758.3333333333333</ele><time>2026-05-01T09:31:20.725Z</time></trkpt><trkpt lat="38.0990618" lon="14.906058"><ele>758.6666666666666</ele><time>2026-05-01T09:31:21.725Z</time></trkpt><trkpt lat="38.0989999" lon="14.9059754"><ele>759.0</ele><time>2026-05-01T09:31:22.725Z</time></trkpt><trkpt lat="38.0989267" lon="14.9059072"><ele>759.3333333333334</ele><time>2026-05-01T09:31:23.725Z</time></trkpt><trkpt lat="38.0988485" lon="14.905857"><ele>759.6666666666667</ele><time>2026-05-01T09:31:24.725Z</time></trkpt><trkpt lat="38.0987615" lon="14.9058315"><ele>760.0</ele><time>2026-05-01T09:31:25.724Z</time></trkpt><trkpt lat="38.0986688" lon="14.9058387"><ele>760.0</ele><time>2026-05-01T09:31:26.725Z</time></trkpt><trkpt lat="38.098582" lon="14.9058766"><ele>760.0</ele><time>2026-05-01T09:31:27.725Z</time></trkpt><trkpt lat="38.0985054" lon="14.9059322"><ele>760.0</ele><time>2026-05-01T09:31:28.725Z</time></trkpt><trkpt lat="38.098437" lon="14.9059987"><ele>760.0</ele><time>2026-05-01T09:31:29.725Z</time></trkpt><trkpt lat="38.098378" lon="14.9060767"><ele>760.0</ele><time>2026-05-01T09:31:30.725Z</time></trkpt><trkpt lat="38.0983147" lon="14.9061533"><ele>760.0</ele><time>2026-05-01T09:31:31.725Z</time></trkpt><trkpt lat="38.0982486" lon="14.9062242"><ele>759.0</ele><time>2026-05-01T09:31:32.725Z</time></trkpt><trkpt lat="38.0981848" lon="14.9062836"><ele>758.0</ele><time>2026-05-01T09:31:33.725Z</time></trkpt><trkpt lat="38.0981266" lon="14.9063272"><ele>757.0</ele><time>2026-05-01T09:31:34.724Z</time></trkpt><trkpt lat="38.0980235" lon="14.9063541"><ele>756.0</ele><time>2026-05-01T09:31:36.725Z</time></trkpt><trkpt lat="38.0979333" lon="14.9062"><ele>755.0</ele><time>2026-05-01T09:31:38.725Z</time></trkpt><trkpt lat="38.097885" lon="14.9060533"><ele>755.0</ele><time>2026-05-01T09:31:39.725Z</time></trkpt><trkpt lat="38.0978283" lon="14.905915"><ele>755.0</ele><time>2026-05-01T09:31:40.725Z</time></trkpt><trkpt lat="38.097775" lon="14.9058083"><ele>755.0</ele><time>2026-05-01T09:31:41.725Z</time></trkpt><trkpt lat="38.0977067" lon="14.9057567"><ele>755.0</ele><time>2026-05-01T09:31:42.725Z</time></trkpt><trkpt lat="38.0976133" lon="14.905735"><ele>755.0</ele><time>2026-05-01T09:31:43.724Z</time></trkpt><trkpt lat="38.0974983" lon="14.9057533"><ele>747.75</ele><time>2026-05-01T09:31:44.725Z</time></trkpt><trkpt lat="38.0973617" lon="14.90578"><ele>740.5</ele><time>2026-05-01T09:31:45.725Z</time></trkpt><trkpt lat="38.0972417" lon="14.90582"><ele>733.25</ele><time>2026-05-01T09:31:46.725Z</time></trkpt><trkpt lat="38.0971367" lon="14.90584"><ele>726.0</ele><time>2026-05-01T09:31:47.725Z</time></trkpt><trkpt lat="38.0970417" lon="14.9058483"><ele>726.0</ele><time>2026-05-01T09:31:48.724Z</time></trkpt><trkpt lat="38.0969483" lon="14.90586"><ele>726.0</ele><time>2026-05-01T09:31:49.725Z</time></trkpt><trkpt lat="38.0968583" lon="14.9058817"><ele>726.0</ele><time>2026-05-01T09:31:50.725Z</time></trkpt><trkpt lat="38.0967717" lon="14.9059083"><ele>726.0</ele><time>2026-05-01T09:31:51.724Z</time></trkpt><trkpt lat="38.0966867" lon="14.9059267"><ele>726.0</ele><time>2026-05-01T09:31:52.725Z</time></trkpt><trkpt lat="38.0966117" lon="14.9059283"><ele>726.0</ele><time>2026-05-01T09:31:53.725Z</time></trkpt><trkpt lat="38.0965367" lon="14.9059017"><ele>725.6666666666666</ele><time>2026-05-01T09:31:54.725Z</time></trkpt><trkpt lat="38.09646" lon="14.9058417"><ele>725.3333333333334</ele><time>2026-05-01T09:31:55.725Z</time></trkpt><trkpt lat="38.09639" lon="14.9057717"><ele>725.0</ele><time>2026-05-01T09:31:56.725Z</time></trkpt><trkpt lat="38.0963233" lon="14.9057083"><ele>724.6666666666667</ele><time>2026-05-01T09:31:57.725Z</time></trkpt><trkpt lat="38.09625" lon="14.9056667"><ele>724.3333333333334</ele><time>2026-05-01T09:31:58.725Z</time></trkpt><trkpt lat="38.0961683" lon="14.9056483"><ele>724.0</ele><time>2026-05-01T09:31:59.725Z</time></trkpt><trkpt lat="38.0960867" lon="14.9056483"><ele>724.0</ele><time>2026-05-01T09:32:00.725Z</time></trkpt><trkpt lat="38.0960117" lon="14.9056533"><ele>724.0</ele><time>2026-05-01T09:32:01.725Z</time></trkpt><trkpt lat="38.0958983" lon="14.9056533"><ele>724.0</ele><time>2026-05-01T09:32:03.725Z</time></trkpt><trkpt lat="38.0958083" lon="14.905615"><ele>724.0</ele><time>2026-05-01T09:32:05.724Z</time></trkpt><trkpt lat="38.0957533" lon="14.9054983"><ele>724.0</ele><time>2026-05-01T09:32:07.725Z</time></trkpt><trkpt lat="38.0957217" lon="14.9053667"><ele>722.6666666666667</ele><time>2026-05-01T09:32:09.725Z</time></trkpt><trkpt lat="38.095695" lon="14.905245"><ele>721.3333333333334</ele><time>2026-05-01T09:32:11.725Z</time></trkpt><trkpt lat="38.0956683" lon="14.9051217"><ele>720.0</ele><time>2026-05-01T09:32:13.725Z</time></trkpt><trkpt lat="38.0956733" lon="14.9050417"><ele>718.6666666666666</ele><time>2026-05-01T09:32:15.725Z</time></trkpt><trkpt lat="38.0956336" lon="14.9051153"><ele>717.3333333333333</ele><time>2026-05-01T10:07:04.729Z</time></trkpt><trkpt lat="38.0956467" lon="14.9052027"><ele>716.0</ele><time>2026-05-01T10:07:06.729Z</time></trkpt><trkpt lat="38.0956902" lon="14.9053534"><ele>715.5</ele><time>2026-05-01T10:07:08.729Z</time></trkpt><trkpt lat="38.0957207" lon="14.9054519"><ele>715.0</ele><time>2026-05-01T10:07:09.729Z</time></trkpt><trkpt lat="38.095753" lon="14.9055614"><ele>714.5</ele><time>2026-05-01T10:07:10.729Z</time></trkpt><trkpt lat="38.0957865" lon="14.9056655"><ele>714.0</ele><time>2026-05-01T10:07:11.729Z</time></trkpt><trkpt lat="38.0958155" lon="14.9057497"><ele>713.5</ele><time>2026-05-01T10:07:12.729Z</time></trkpt><trkpt lat="38.095827" lon="14.9058342"><ele>713.0</ele><time>2026-05-01T10:07:13.729Z</time></trkpt><trkpt lat="38.0958236" lon="14.9059284"><ele>712.5999999999999</ele><time>2026-05-01T10:07:14.729Z</time></trkpt><trkpt lat="38.0957853" lon="14.9060299"><ele>712.1999999999999</ele><time>2026-05-01T10:07:15.729Z</time></trkpt><trkpt lat="38.095732" lon="14.9061399"><ele>711.8</ele><time>2026-05-01T10:07:16.729Z</time></trkpt><trkpt lat="38.0956778" lon="14.9062527"><ele>711.4</ele><time>2026-05-01T10:07:17.729Z</time></trkpt><trkpt lat="38.0956253" lon="14.9063749"><ele>711.0</ele><time>2026-05-01T10:07:18.729Z</time></trkpt><trkpt lat="38.0955867" lon="14.9065144"><ele>711.0</ele><time>2026-05-01T10:07:19.729Z</time></trkpt><trkpt lat="38.0955709" lon="14.9066654"><ele>711.0</ele><time>2026-05-01T10:07:20.729Z</time></trkpt><trkpt lat="38.0955727" lon="14.906814"><ele>711.0</ele><time>2026-05-01T10:07:21.729Z</time></trkpt><trkpt lat="38.095583" lon="14.9069562"><ele>711.0</ele><time>2026-05-01T10:07:22.729Z</time></trkpt><trkpt lat="38.0956149" lon="14.907085"><ele>712.8</ele><time>2026-05-01T10:07:23.729Z</time></trkpt><trkpt lat="38.0956717" lon="14.9072067"><ele>714.5999999999999</ele><time>2026-05-01T10:07:24.729Z</time></trkpt><trkpt lat="38.095715" lon="14.9073267"><ele>716.4</ele><time>2026-05-01T10:07:25.729Z</time></trkpt><trkpt lat="38.095755" lon="14.9074533"><ele>718.2</ele><time>2026-05-01T10:07:26.729Z</time></trkpt><trkpt lat="38.0957933" lon="14.9075783"><ele>720.0</ele><time>2026-05-01T10:07:27.729Z</time></trkpt><trkpt lat="38.095825" lon="14.9076967"><ele>722.6</ele><time>2026-05-01T10:07:28.728Z</time></trkpt><trkpt lat="38.09584" lon="14.9078183"><ele>725.2</ele><time>2026-05-01T10:07:29.728Z</time></trkpt><trkpt lat="38.0958283" lon="14.9079467"><ele>727.8</ele><time>2026-05-01T10:07:30.729Z</time></trkpt><trkpt lat="38.0957917" lon="14.908075"><ele>730.4</ele><time>2026-05-01T10:07:31.728Z</time></trkpt><trkpt lat="38.09574" lon="14.9082067"><ele>733.0</ele><time>2026-05-01T10:07:32.728Z</time></trkpt><trkpt lat="38.0956717" lon="14.9083117"><ele>733.0</ele><time>2026-05-01T10:07:33.729Z</time></trkpt><trkpt lat="38.0955933" lon="14.9083867"><ele>733.0</ele><time>2026-05-01T10:07:34.729Z</time></trkpt><trkpt lat="38.0955033" lon="14.9084533"><ele>733.0</ele><time>2026-05-01T10:07:35.729Z</time></trkpt><trkpt lat="38.095425" lon="14.9085483"><ele>733.0</ele><time>2026-05-01T10:07:36.729Z</time></trkpt><trkpt lat="38.09534" lon="14.9086333"><ele>733.0</ele><time>2026-05-01T10:07:37.728Z</time></trkpt><trkpt lat="38.0952633" lon="14.9087233"><ele>734.4</ele><time>2026-05-01T10:07:38.729Z</time></trkpt><trkpt lat="38.09519" lon="14.9088117"><ele>735.8</ele><time>2026-05-01T10:07:39.729Z</time></trkpt><trkpt lat="38.0951367" lon="14.90891"><ele>737.2</ele><time>2026-05-01T10:07:40.729Z</time></trkpt><trkpt lat="38.0950917" lon="14.9090117"><ele>738.6</ele><time>2026-05-01T10:07:41.729Z</time></trkpt><trkpt lat="38.0950533" lon="14.909115"><ele>740.0</ele><time>2026-05-01T10:07:42.729Z</time></trkpt><trkpt lat="38.0950233" lon="14.90922"><ele>739.6666666666666</ele><time>2026-05-01T10:07:43.729Z</time></trkpt><trkpt lat="38.0950167" lon="14.9093167"><ele>739.3333333333333</ele><time>2026-05-01T10:07:44.729Z</time></trkpt><trkpt lat="38.0950233" lon="14.9094117"><ele>739.0</ele><time>2026-05-01T10:07:45.728Z</time></trkpt><trkpt lat="38.0950417" lon="14.9095133"><ele>738.6666666666666</ele><time>2026-05-01T10:07:46.728Z</time></trkpt><trkpt lat="38.0950583" lon="14.9096167"><ele>738.3333333333334</ele><time>2026-05-01T10:07:47.729Z</time></trkpt><trkpt lat="38.0950717" lon="14.9097233"><ele>738.0</ele><time>2026-05-01T10:07:48.729Z</time></trkpt><trkpt lat="38.0950967" lon="14.9098333"><ele>738.0</ele><time>2026-05-01T10:07:49.729Z</time></trkpt><trkpt lat="38.0951217" lon="14.9099417"><ele>738.0</ele><time>2026-05-01T10:07:50.729Z</time></trkpt><trkpt lat="38.0951617" lon="14.9100617"><ele>738.0</ele><time>2026-05-01T10:07:51.728Z</time></trkpt><trkpt lat="38.0952133" lon="14.910205"><ele>738.0</ele><time>2026-05-01T10:07:52.729Z</time></trkpt><trkpt lat="38.0952667" lon="14.9103733"><ele>738.25</ele><time>2026-05-01T10:07:53.729Z</time></trkpt><trkpt lat="38.0953317" lon="14.9105417"><ele>738.5</ele><time>2026-05-01T10:07:54.729Z</time></trkpt><trkpt lat="38.0953883" lon="14.91071"><ele>738.75</ele><time>2026-05-01T10:07:55.729Z</time></trkpt><trkpt lat="38.095425" lon="14.91086"><ele>739.0</ele><time>2026-05-01T10:07:56.729Z</time></trkpt><trkpt lat="38.0954467" lon="14.9110017"><ele>739.0</ele><time>2026-05-01T10:07:57.729Z</time></trkpt><trkpt lat="38.09545" lon="14.9111533"><ele>739.0</ele><time>2026-05-01T10:07:58.728Z</time></trkpt><trkpt lat="38.09545" lon="14.9113183"><ele>739.0</ele><time>2026-05-01T10:07:59.729Z</time></trkpt><trkpt lat="38.0954483" lon="14.9114617"><ele>739.0</ele><time>2026-05-01T10:08:00.729Z</time></trkpt><trkpt lat="38.0954483" lon="14.9115783"><ele>739.0</ele><time>2026-05-01T10:08:01.729Z</time></trkpt><trkpt lat="38.0954383" lon="14.911675"><ele>739.0</ele><time>2026-05-01T10:08:02.729Z</time></trkpt><trkpt lat="38.0953683" lon="14.9117917"><ele>739.0</ele><time>2026-05-01T10:08:04.729Z</time></trkpt><trkpt lat="38.0952817" lon="14.9118167"><ele>739.0</ele><time>2026-05-01T10:08:05.729Z</time></trkpt><trkpt lat="38.0951783" lon="14.9118333"><ele>739.0</ele><time>2026-05-01T10:08:06.729Z</time></trkpt><trkpt lat="38.0950767" lon="14.9118917"><ele>735.5</ele><time>2026-05-01T10:08:07.729Z</time></trkpt><trkpt lat="38.09498" lon="14.9119967"><ele>732.0</ele><time>2026-05-01T10:08:08.729Z</time></trkpt><trkpt lat="38.0949033" lon="14.9121467"><ele>728.5</ele><time>2026-05-01T10:08:09.728Z</time></trkpt><trkpt lat="38.0948367" lon="14.9123233"><ele>725.0</ele><time>2026-05-01T10:08:10.729Z</time></trkpt><trkpt lat="38.09477" lon="14.9125167"><ele>727.5</ele><time>2026-05-01T10:08:11.729Z</time></trkpt><trkpt lat="38.0947217" lon="14.912685"><ele>730.0</ele><time>2026-05-01T10:08:12.729Z</time></trkpt><trkpt lat="38.0946867" lon="14.9128267"><ele>732.5</ele><time>2026-05-01T10:08:13.728Z</time></trkpt><trkpt lat="38.0946533" lon="14.9129817"><ele>735.0</ele><time>2026-05-01T10:08:14.729Z</time></trkpt><trkpt lat="38.094625" lon="14.9131283"><ele>735.0</ele><time>2026-05-01T10:08:15.729Z</time></trkpt><trkpt lat="38.0945933" lon="14.91329"><ele>735.0</ele><time>2026-05-01T10:08:16.729Z</time></trkpt><trkpt lat="38.0945567" lon="14.9134767"><ele>735.0</ele><time>2026-05-01T10:08:17.729Z</time></trkpt><trkpt lat="38.094525" lon="14.9136667"><ele>735.0</ele><time>2026-05-01T10:08:18.729Z</time></trkpt><trkpt lat="38.0944917" lon="14.9138267"><ele>736.0</ele><time>2026-05-01T10:08:19.728Z</time></trkpt><trkpt lat="38.0944533" lon="14.91398"><ele>737.0</ele><time>2026-05-01T10:08:20.728Z</time></trkpt><trkpt lat="38.0944133" lon="14.914115"><ele>738.0</ele><time>2026-05-01T10:08:21.729Z</time></trkpt><trkpt lat="38.0944" lon="14.9142733"><ele>739.0</ele><time>2026-05-01T10:08:22.729Z</time></trkpt><trkpt lat="38.094405" lon="14.91443"><ele>742.2</ele><time>2026-05-01T10:08:23.729Z</time></trkpt><trkpt lat="38.0944067" lon="14.9145833"><ele>745.4000000000001</ele><time>2026-05-01T10:08:24.729Z</time></trkpt><trkpt lat="38.0944" lon="14.9147217"><ele>748.6</ele><time>2026-05-01T10:08:25.729Z</time></trkpt><trkpt lat="38.0944233" lon="14.9148367"><ele>751.8</ele><time>2026-05-01T10:08:26.728Z</time></trkpt><trkpt lat="38.0944533" lon="14.9149283"><ele>755.0</ele><time>2026-05-01T10:08:27.729Z</time></trkpt><trkpt lat="38.09448" lon="14.9150083"><ele>758.8</ele><time>2026-05-01T10:08:28.729Z</time></trkpt><trkpt lat="38.09454" lon="14.91512"><ele>762.6</ele><time>2026-05-01T10:08:30.729Z</time></trkpt><trkpt lat="38.0945917" lon="14.9152233"><ele>766.4000000000001</ele><time>2026-05-01T10:08:32.729Z</time></trkpt><trkpt lat="38.0946117" lon="14.91534"><ele>770.2</ele><time>2026-05-01T10:08:34.729Z</time></trkpt><trkpt lat="38.09464" lon="14.9154483"><ele>774.0</ele><time>2026-05-01T10:08:36.729Z</time></trkpt><trkpt lat="38.09468" lon="14.91553"><ele>774.0</ele><time>2026-05-01T10:08:38.729Z</time></trkpt><trkpt lat="38.0947083" lon="14.9156067"><ele>774.0</ele><time>2026-05-01T10:08:41.729Z</time></trkpt><trkpt lat="38.0946317" lon="14.9157167"><ele>774.0</ele><time>2026-05-01T10:08:44.729Z</time></trkpt><trkpt lat="38.0945733" lon="14.9157567"><ele>774.0</ele><time>2026-05-01T10:08:45.729Z</time></trkpt><trkpt lat="38.0944917" lon="14.9157783"><ele>774.0</ele><time>2026-05-01T10:08:46.729Z</time></trkpt><trkpt lat="38.094415" lon="14.9157833"><ele>774.0</ele><time>2026-05-01T10:08:47.729Z</time></trkpt><trkpt lat="38.09431" lon="14.915855"><ele>776.0</ele><time>2026-05-01T10:08:49.729Z</time></trkpt><trkpt lat="38.0942667" lon="14.9159217"><ele>778.0</ele><time>2026-05-01T10:08:50.729Z</time></trkpt><trkpt lat="38.0942283" lon="14.9159867"><ele>780.0</ele><time>2026-05-01T10:08:51.729Z</time></trkpt><trkpt lat="38.0941667" lon="14.9160517"><ele>782.0</ele><time>2026-05-01T10:08:53.729Z</time></trkpt><trkpt lat="38.0941" lon="14.916005"><ele>784.0</ele><time>2026-05-01T10:08:55.729Z</time></trkpt><trkpt lat="38.0940283" lon="14.91588"><ele>786.0</ele><time>2026-05-01T10:08:57.729Z</time></trkpt><trkpt lat="38.0939933" lon="14.9158133"><ele>786.0</ele><time>2026-05-01T10:08:58.729Z</time></trkpt><trkpt lat="38.0939317" lon="14.9156967"><ele>786.0</ele><time>2026-05-01T10:09:00.729Z</time></trkpt><trkpt lat="38.0938767" lon="14.9156183"><ele>786.0</ele><time>2026-05-01T10:09:02.728Z</time></trkpt><trkpt lat="38.0938133" lon="14.9155983"><ele>786.0</ele><time>2026-05-01T10:09:04.729Z</time></trkpt><trkpt lat="38.0937233" lon="14.9155883"><ele>786.0</ele><time>2026-05-01T10:09:06.729Z</time></trkpt><trkpt lat="38.09366" lon="14.9155317"><ele>786.0</ele><time>2026-05-01T10:09:08.729Z</time></trkpt><trkpt lat="38.09359" lon="14.9154417"><ele>786.0</ele><time>2026-05-01T10:09:10.729Z</time></trkpt><trkpt lat="38.0935267" lon="14.9153417"><ele>786.0</ele><time>2026-05-01T10:09:12.729Z</time></trkpt><trkpt lat="38.09346" lon="14.9152967"><ele>786.0</ele><time>2026-05-01T10:09:14.729Z</time></trkpt><trkpt lat="38.0934067" lon="14.915355"><ele>786.0</ele><time>2026-05-01T10:10:15.73Z</time></trkpt><trkpt lat="38.0933383" lon="14.9154467"><ele>786.0</ele><time>2026-05-01T10:10:17.73Z</time></trkpt><trkpt lat="38.0932817" lon="14.9154967"><ele>786.0</ele><time>2026-05-01T10:10:18.73Z</time></trkpt><trkpt lat="38.093235" lon="14.9155567"><ele>783.8</ele><time>2026-05-01T10:10:19.73Z</time></trkpt><trkpt lat="38.093185" lon="14.9156833"><ele>781.5999999999999</ele><time>2026-05-01T10:10:21.73Z</time></trkpt><trkpt lat="38.0931917" lon="14.91577"><ele>779.4</ele><time>2026-05-01T10:10:22.73Z</time></trkpt><trkpt lat="38.0931917" lon="14.9158533"><ele>777.2</ele><time>2026-05-01T10:10:23.729Z</time></trkpt><trkpt lat="38.09314" lon="14.9159967"><ele>775.0</ele><time>2026-05-01T10:10:25.729Z</time></trkpt><trkpt lat="38.093095" lon="14.9161167"><ele>774.9999999999999</ele><time>2026-05-01T10:10:27.729Z</time></trkpt><trkpt lat="38.0931033" lon="14.91622"><ele>775.0</ele><time>2026-05-01T10:10:29.73Z</time></trkpt><trkpt lat="38.093115" lon="14.9163183"><ele>775.0</ele><time>2026-05-01T10:10:31.73Z</time></trkpt><trkpt lat="38.0930717" lon="14.9164483"><ele>775.0</ele><time>2026-05-01T10:10:33.73Z</time></trkpt><trkpt lat="38.093045" lon="14.9165283"><ele>774.9999999999999</ele><time>2026-05-01T10:10:34.73Z</time></trkpt><trkpt lat="38.09303" lon="14.916615"><ele>775.0</ele><time>2026-05-01T10:10:35.73Z</time></trkpt><trkpt lat="38.0930017" lon="14.9167583"><ele>779.4999999999999</ele><time>2026-05-01T10:10:37.73Z</time></trkpt><trkpt lat="38.0929567" lon="14.9168283"><ele>784.0</ele><time>2026-05-01T10:10:38.73Z</time></trkpt><trkpt lat="38.0928917" lon="14.91692"><ele>788.5</ele><time>2026-05-01T10:10:39.729Z</time></trkpt><trkpt lat="38.0928417" lon="14.9170117"><ele>793.0</ele><time>2026-05-01T10:10:40.73Z</time></trkpt><trkpt lat="38.0928133" lon="14.917085"><ele>797.4999999999999</ele><time>2026-05-01T10:10:41.73Z</time></trkpt><trkpt lat="38.0928117" lon="14.9172383"><ele>802.0</ele><time>2026-05-01T10:10:43.73Z</time></trkpt><trkpt lat="38.092815" lon="14.9173367"><ele>801.9999999999999</ele><time>2026-05-01T10:10:44.73Z</time></trkpt><trkpt lat="38.0928217" lon="14.9174383"><ele>802.0</ele><time>2026-05-01T10:10:45.73Z</time></trkpt><trkpt lat="38.0928317" lon="14.917555"><ele>802.0</ele><time>2026-05-01T10:10:46.73Z</time></trkpt><trkpt lat="38.0928517" lon="14.9176683"><ele>802.0</ele><time>2026-05-01T10:10:47.73Z</time></trkpt><trkpt lat="38.0928783" lon="14.9177667"><ele>801.9999999999999</ele><time>2026-05-01T10:10:48.73Z</time></trkpt><trkpt lat="38.0928933" lon="14.9178833"><ele>802.0</ele><time>2026-05-01T10:10:50.73Z</time></trkpt><trkpt lat="38.0928267" lon="14.9179617"><ele>810.0</ele><time>2026-05-01T10:10:52.73Z</time></trkpt><trkpt lat="38.0927217" lon="14.9180217"><ele>818.0</ele><time>2026-05-01T10:10:54.73Z</time></trkpt><trkpt lat="38.0925983" lon="14.9180133"><ele>826.0</ele><time>2026-05-01T10:10:56.73Z</time></trkpt><trkpt lat="38.0925283" lon="14.9179883"><ele>834.0</ele><time>2026-05-01T10:10:57.73Z</time></trkpt><trkpt lat="38.0924267" lon="14.9179433"><ele>842.0</ele><time>2026-05-01T10:10:58.73Z</time></trkpt><trkpt lat="38.0923367" lon="14.9178817"><ele>842.8</ele><time>2026-05-01T10:10:59.73Z</time></trkpt><trkpt lat="38.092255" lon="14.9178333"><ele>843.6</ele><time>2026-05-01T10:11:00.73Z</time></trkpt><trkpt lat="38.092175" lon="14.9178"><ele>844.4</ele><time>2026-05-01T10:11:01.73Z</time></trkpt><trkpt lat="38.0921083" lon="14.91779"><ele>845.1999999999999</ele><time>2026-05-01T10:11:02.73Z</time></trkpt><trkpt lat="38.091975" lon="14.917755"><ele>846.0</ele><time>2026-05-01T10:11:04.73Z</time></trkpt><trkpt lat="38.0918667" lon="14.9176817"><ele>846.0</ele><time>2026-05-01T10:11:06.73Z</time></trkpt><trkpt lat="38.0917667" lon="14.91759"><ele>846.0</ele><time>2026-05-01T10:11:08.73Z</time></trkpt><trkpt lat="38.0917067" lon="14.9175483"><ele>846.0</ele><time>2026-05-01T10:11:09.73Z</time></trkpt><trkpt lat="38.0916483" lon="14.9175133"><ele>846.0</ele><time>2026-05-01T10:11:10.73Z</time></trkpt><trkpt lat="38.0915817" lon="14.9174767"><ele>846.0</ele><time>2026-05-01T10:11:11.73Z</time></trkpt><trkpt lat="38.0915083" lon="14.9174517"><ele>846.0</ele><time>2026-05-01T10:11:12.73Z</time></trkpt><trkpt lat="38.0914283" lon="14.91745"><ele>845.5</ele><time>2026-05-01T10:11:13.73Z</time></trkpt><trkpt lat="38.0913567" lon="14.9174767"><ele>845.0</ele><time>2026-05-01T10:11:14.73Z</time></trkpt><trkpt lat="38.09128" lon="14.9175383"><ele>844.5</ele><time>2026-05-01T10:11:15.73Z</time></trkpt><trkpt lat="38.091205" lon="14.917615"><ele>844.0</ele><time>2026-05-01T10:11:16.73Z</time></trkpt><trkpt lat="38.0911433" lon="14.917675"><ele>843.5</ele><time>2026-05-01T10:11:17.73Z</time></trkpt><trkpt lat="38.0910333" lon="14.91767"><ele>843.0</ele><time>2026-05-01T10:11:19.73Z</time></trkpt><trkpt lat="38.0909583" lon="14.91761"><ele>841.0</ele><time>2026-05-01T10:11:20.73Z</time></trkpt><trkpt lat="38.090875" lon="14.9175133"><ele>839.0</ele><time>2026-05-01T10:11:21.73Z</time></trkpt><trkpt lat="38.0908117" lon="14.9174283"><ele>837.0</ele><time>2026-05-01T10:11:22.73Z</time></trkpt><trkpt lat="38.0907683" lon="14.91734"><ele>835.0</ele><time>2026-05-01T10:11:23.73Z</time></trkpt><trkpt lat="38.090735" lon="14.9172383"><ele>833.0</ele><time>2026-05-01T10:11:24.73Z</time></trkpt><trkpt lat="38.0907083" lon="14.9170917"><ele>833.0</ele><time>2026-05-01T10:11:25.73Z</time></trkpt><trkpt lat="38.090685" lon="14.9169333"><ele>833.0</ele><time>2026-05-01T10:11:26.729Z</time></trkpt><trkpt lat="38.09067" lon="14.9167967"><ele>833.0</ele><time>2026-05-01T10:11:27.73Z</time></trkpt><trkpt lat="38.0906417" lon="14.9166933"><ele>833.0</ele><time>2026-05-01T10:11:28.73Z</time></trkpt><trkpt lat="38.0905983" lon="14.9166217"><ele>833.0</ele><time>2026-05-01T10:11:29.73Z</time></trkpt><trkpt lat="38.0905367" lon="14.9165717"><ele>829.8333333333334</ele><time>2026-05-01T10:11:30.73Z</time></trkpt><trkpt lat="38.0904583" lon="14.91654"><ele>826.6666666666667</ele><time>2026-05-01T10:11:31.73Z</time></trkpt><trkpt lat="38.0903683" lon="14.9165083"><ele>823.5</ele><time>2026-05-01T10:11:32.73Z</time></trkpt><trkpt lat="38.09028" lon="14.9164883"><ele>820.3333333333333</ele><time>2026-05-01T10:11:33.73Z</time></trkpt><trkpt lat="38.090205" lon="14.9165017"><ele>817.1666666666666</ele><time>2026-05-01T10:11:34.73Z</time></trkpt><trkpt lat="38.090145" lon="14.9165383"><ele>814.0</ele><time>2026-05-01T10:11:35.729Z</time></trkpt><trkpt lat="38.0900983" lon="14.9165967"><ele>813.9999999999999</ele><time>2026-05-01T10:11:36.729Z</time></trkpt><trkpt lat="38.0900633" lon="14.9166733"><ele>814.0</ele><time>2026-05-01T10:11:37.73Z</time></trkpt><trkpt lat="38.0900367" lon="14.9167717"><ele>814.0</ele><time>2026-05-01T10:11:38.73Z</time></trkpt><trkpt lat="38.09001" lon="14.916875"><ele>814.0</ele><time>2026-05-01T10:11:39.73Z</time></trkpt><trkpt lat="38.0899917" lon="14.9169967"><ele>813.9999999999999</ele><time>2026-05-01T10:11:40.73Z</time></trkpt><trkpt lat="38.089995" lon="14.9170817"><ele>814.0</ele><time>2026-05-01T10:11:41.73Z</time></trkpt><trkpt lat="38.0900567" lon="14.917215"><ele>817.8000000000001</ele><time>2026-05-01T10:11:43.73Z</time></trkpt><trkpt lat="38.0901183" lon="14.9172933"><ele>821.6</ele><time>2026-05-01T10:11:44.73Z</time></trkpt><trkpt lat="38.09018" lon="14.9173667"><ele>825.4</ele><time>2026-05-01T10:11:45.73Z</time></trkpt><trkpt lat="38.0902317" lon="14.9174333"><ele>829.2</ele><time>2026-05-01T10:11:46.73Z</time></trkpt><trkpt lat="38.09027" lon="14.9175583"><ele>833.0</ele><time>2026-05-01T10:11:48.73Z</time></trkpt><trkpt lat="38.090275" lon="14.917725"><ele>835.3333333333334</ele><time>2026-05-01T10:11:50.73Z</time></trkpt><trkpt lat="38.0902817" lon="14.917825"><ele>837.6666666666667</ele><time>2026-05-01T10:11:51.73Z</time></trkpt><trkpt lat="38.0903" lon="14.917935"><ele>840.0</ele><time>2026-05-01T10:11:52.73Z</time></trkpt><trkpt lat="38.090335" lon="14.9180367"><ele>842.3333333333333</ele><time>2026-05-01T10:11:53.73Z</time></trkpt><trkpt lat="38.0903817" lon="14.9181233"><ele>844.6666666666666</ele><time>2026-05-01T10:11:54.73Z</time></trkpt><trkpt lat="38.09044" lon="14.91818"><ele>847.0</ele><time>2026-05-01T10:11:55.73Z</time></trkpt><trkpt lat="38.0905117" lon="14.9182017"><ele>846.9999999999999</ele><time>2026-05-01T10:11:56.73Z</time></trkpt><trkpt lat="38.09058" lon="14.9182283"><ele>847.0</ele><time>2026-05-01T10:11:57.73Z</time></trkpt><trkpt lat="38.0906267" lon="14.9182833"><ele>847.0</ele><time>2026-05-01T10:11:58.73Z</time></trkpt><trkpt lat="38.0906283" lon="14.9183717"><ele>847.0</ele><time>2026-05-01T10:12:00.73Z</time></trkpt><trkpt lat="38.090515" lon="14.918435"><ele>846.9999999999999</ele><time>2026-05-01T10:12:02.73Z</time></trkpt><trkpt lat="38.0904167" lon="14.9184583"><ele>847.0</ele><time>2026-05-01T10:12:03.729Z</time></trkpt><trkpt lat="38.0903017" lon="14.9184717"><ele>848.3333333333333</ele><time>2026-05-01T10:12:04.73Z</time></trkpt><trkpt lat="38.0902" lon="14.918485"><ele>849.6666666666666</ele><time>2026-05-01T10:12:05.73Z</time></trkpt><trkpt lat="38.0901133" lon="14.91852"><ele>851.0</ele><time>2026-05-01T10:12:06.73Z</time></trkpt><trkpt lat="38.090025" lon="14.9185683"><ele>852.3333333333333</ele><time>2026-05-01T10:12:07.73Z</time></trkpt><trkpt lat="38.0899583" lon="14.9186167"><ele>853.6666666666666</ele><time>2026-05-01T10:12:08.73Z</time></trkpt><trkpt lat="38.0898917" lon="14.9186683"><ele>855.0</ele><time>2026-05-01T10:12:10.73Z</time></trkpt><trkpt lat="38.0898333" lon="14.91871"><ele>855.0</ele><time>2026-05-01T10:13:46.73Z</time></trkpt><trkpt lat="38.0897517" lon="14.9187483"><ele>855.0</ele><time>2026-05-01T10:13:47.73Z</time></trkpt><trkpt lat="38.0896367" lon="14.918815"><ele>855.0</ele><time>2026-05-01T10:13:48.729Z</time></trkpt><trkpt lat="38.08952" lon="14.9189083"><ele>855.0</ele><time>2026-05-01T10:13:49.73Z</time></trkpt><trkpt lat="38.08939" lon="14.9190383"><ele>855.0</ele><time>2026-05-01T10:13:50.729Z</time></trkpt><trkpt lat="38.0892617" lon="14.9191833"><ele>855.0</ele><time>2026-05-01T10:13:51.73Z</time></trkpt><trkpt lat="38.0891167" lon="14.9193283"><ele>855.0</ele><time>2026-05-01T10:13:52.73Z</time></trkpt><trkpt lat="38.0889767" lon="14.9194683"><ele>858.0</ele><time>2026-05-01T10:13:53.73Z</time></trkpt><trkpt lat="38.0888567" lon="14.9195967"><ele>861.0</ele><time>2026-05-01T10:13:54.73Z</time></trkpt><trkpt lat="38.0887617" lon="14.9196983"><ele>864.0</ele><time>2026-05-01T10:13:55.73Z</time></trkpt><trkpt lat="38.0886883" lon="14.919815"><ele>867.0</ele><time>2026-05-01T10:13:56.73Z</time></trkpt><trkpt lat="38.08861" lon="14.9199283"><ele>867.0</ele><time>2026-05-01T10:13:57.73Z</time></trkpt><trkpt lat="38.08855" lon="14.92005"><ele>867.0</ele><time>2026-05-01T10:13:58.73Z</time></trkpt><trkpt lat="38.0884967" lon="14.9201617"><ele>867.0</ele><time>2026-05-01T10:13:59.73Z</time></trkpt><trkpt lat="38.0884433" lon="14.9202433"><ele>867.0</ele><time>2026-05-01T10:14:00.73Z</time></trkpt><trkpt lat="38.0883833" lon="14.9203017"><ele>867.0</ele><time>2026-05-01T10:14:01.73Z</time></trkpt><trkpt lat="38.0883167" lon="14.9203383"><ele>867.0</ele><time>2026-05-01T10:14:02.73Z</time></trkpt><trkpt lat="38.0882517" lon="14.9203483"><ele>871.0</ele><time>2026-05-01T10:14:03.73Z</time></trkpt><trkpt lat="38.088165" lon="14.9203117"><ele>875.0</ele><time>2026-05-01T10:14:04.729Z</time></trkpt><trkpt lat="38.08808" lon="14.9202883"><ele>879.0</ele><time>2026-05-01T10:14:05.73Z</time></trkpt><trkpt lat="38.087985" lon="14.92029"><ele>883.0</ele><time>2026-05-01T10:14:06.729Z</time></trkpt><trkpt lat="38.0878683" lon="14.92032"><ele>887.0</ele><time>2026-05-01T10:14:07.729Z</time></trkpt><trkpt lat="38.087745" lon="14.92041"><ele>887.0</ele><time>2026-05-01T10:14:08.73Z</time></trkpt><trkpt lat="38.0876233" lon="14.9205283"><ele>887.0</ele><time>2026-05-01T10:14:09.73Z</time></trkpt><trkpt lat="38.0875183" lon="14.9206483"><ele>887.0</ele><time>2026-05-01T10:14:10.73Z</time></trkpt><trkpt lat="38.08742" lon="14.9207533"><ele>887.0</ele><time>2026-05-01T10:14:11.729Z</time></trkpt><trkpt lat="38.087305" lon="14.9208583"><ele>891.0</ele><time>2026-05-01T10:14:12.73Z</time></trkpt><trkpt lat="38.08719" lon="14.9209483"><ele>895.0</ele><time>2026-05-01T10:14:13.73Z</time></trkpt><trkpt lat="38.087075" lon="14.921035"><ele>899.0</ele><time>2026-05-01T10:14:14.73Z</time></trkpt><trkpt lat="38.0869617" lon="14.9211017"><ele>903.0</ele><time>2026-05-01T10:14:15.73Z</time></trkpt><trkpt lat="38.0868517" lon="14.9211617"><ele>903.0</ele><time>2026-05-01T10:14:16.73Z</time></trkpt><trkpt lat="38.08673" lon="14.921215"><ele>903.0</ele><time>2026-05-01T10:14:17.73Z</time></trkpt><trkpt lat="38.08661" lon="14.9212667"><ele>903.0</ele><time>2026-05-01T10:14:18.73Z</time></trkpt><trkpt lat="38.0864733" lon="14.9213133"><ele>903.0</ele><time>2026-05-01T10:14:19.73Z</time></trkpt><trkpt lat="38.0863317" lon="14.921365"><ele>901.75</ele><time>2026-05-01T10:14:20.73Z</time></trkpt><trkpt lat="38.0861867" lon="14.921425"><ele>900.5</ele><time>2026-05-01T10:14:21.73Z</time></trkpt><trkpt lat="38.086045" lon="14.921475"><ele>899.25</ele><time>2026-05-01T10:14:22.73Z</time></trkpt><trkpt lat="38.0859117" lon="14.92152"><ele>898.0</ele><time>2026-05-01T10:14:23.73Z</time></trkpt><trkpt lat="38.0857867" lon="14.9215667"><ele>896.8</ele><time>2026-05-01T10:14:24.73Z</time></trkpt><trkpt lat="38.0856733" lon="14.9216033"><ele>895.5999999999999</ele><time>2026-05-01T10:14:25.73Z</time></trkpt><trkpt lat="38.0855783" lon="14.9216433"><ele>894.4000000000001</ele><time>2026-05-01T10:14:26.73Z</time></trkpt><trkpt lat="38.0854783" lon="14.9216633"><ele>893.2</ele><time>2026-05-01T10:14:27.73Z</time></trkpt><trkpt lat="38.0853717" lon="14.9217167"><ele>892.0</ele><time>2026-05-01T10:14:28.73Z</time></trkpt><trkpt lat="38.0852683" lon="14.921795"><ele>893.75</ele><time>2026-05-01T10:14:29.73Z</time></trkpt><trkpt lat="38.0851717" lon="14.921875"><ele>895.5</ele><time>2026-05-01T10:14:30.73Z</time></trkpt><trkpt lat="38.0850567" lon="14.9219667"><ele>897.25</ele><time>2026-05-01T10:14:31.73Z</time></trkpt><trkpt lat="38.0849417" lon="14.9220617"><ele>899.0</ele><time>2026-05-01T10:14:32.73Z</time></trkpt><trkpt lat="38.0848133" lon="14.9221617"><ele>899.0</ele><time>2026-05-01T10:14:33.73Z</time></trkpt><trkpt lat="38.08468" lon="14.9222633"><ele>899.0</ele><time>2026-05-01T10:14:34.73Z</time></trkpt><trkpt lat="38.0845467" lon="14.9223583"><ele>899.0</ele><time>2026-05-01T10:14:35.73Z</time></trkpt><trkpt lat="38.084435" lon="14.9224317"><ele>899.0</ele><time>2026-05-01T10:14:36.729Z</time></trkpt><trkpt lat="38.0843333" lon="14.9225183"><ele>897.5</ele><time>2026-05-01T10:14:37.73Z</time></trkpt><trkpt lat="38.0842433" lon="14.9226267"><ele>896.0</ele><time>2026-05-01T10:14:38.73Z</time></trkpt><trkpt lat="38.084165" lon="14.9227533"><ele>894.5</ele><time>2026-05-01T10:14:39.73Z</time></trkpt><trkpt lat="38.0840817" lon="14.9228783"><ele>893.0</ele><time>2026-05-01T10:14:40.73Z</time></trkpt><trkpt lat="38.083995" lon="14.9230117"><ele>893.0</ele><time>2026-05-01T10:14:41.73Z</time></trkpt><trkpt lat="38.083905" lon="14.9231383"><ele>893.0</ele><time>2026-05-01T10:14:42.73Z</time></trkpt><trkpt lat="38.08382" lon="14.9232617"><ele>893.0</ele><time>2026-05-01T10:14:43.73Z</time></trkpt><trkpt lat="38.0837483" lon="14.923395"><ele>893.0</ele><time>2026-05-01T10:14:44.73Z</time></trkpt><trkpt lat="38.08368" lon="14.92355"><ele>894.75</ele><time>2026-05-01T10:14:45.73Z</time></trkpt><trkpt lat="38.08363" lon="14.92371"><ele>896.5</ele><time>2026-05-01T10:14:46.73Z</time></trkpt><trkpt lat="38.0836133" lon="14.9238617"><ele>898.25</ele><time>2026-05-01T10:14:47.73Z</time></trkpt><trkpt lat="38.08362" lon="14.924"><ele>900.0</ele><time>2026-05-01T10:14:48.73Z</time></trkpt><trkpt lat="38.0836483" lon="14.9241433"><ele>904.0</ele><time>2026-05-01T10:14:49.73Z</time></trkpt><trkpt lat="38.083705" lon="14.9242883"><ele>908.0</ele><time>2026-05-01T10:14:50.73Z</time></trkpt><trkpt lat="38.0837517" lon="14.9244283"><ele>912.0</ele><time>2026-05-01T10:14:51.73Z</time></trkpt><trkpt lat="38.0837667" lon="14.9245567"><ele>916.0</ele><time>2026-05-01T10:14:52.73Z</time></trkpt><trkpt lat="38.0837567" lon="14.9246617"><ele>920.0</ele><time>2026-05-01T10:14:53.73Z</time></trkpt><trkpt lat="38.0837183" lon="14.92475"><ele>920.0000000000001</ele><time>2026-05-01T10:14:54.73Z</time></trkpt><trkpt lat="38.0836567" lon="14.924805"><ele>920.0</ele><time>2026-05-01T10:14:55.73Z</time></trkpt><trkpt lat="38.083575" lon="14.92485"><ele>920.0</ele><time>2026-05-01T10:14:56.73Z</time></trkpt><trkpt lat="38.0834867" lon="14.9248883"><ele>920.0</ele><time>2026-05-01T10:14:57.73Z</time></trkpt><trkpt lat="38.0833967" lon="14.9249217"><ele>920.0000000000001</ele><time>2026-05-01T10:14:58.73Z</time></trkpt><trkpt lat="38.0833083" lon="14.9249583"><ele>920.0</ele><time>2026-05-01T10:14:59.73Z</time></trkpt><trkpt lat="38.083215" lon="14.92498"><ele>921.6</ele><time>2026-05-01T10:15:00.73Z</time></trkpt><trkpt lat="38.08313" lon="14.924965"><ele>923.2</ele><time>2026-05-01T10:15:01.73Z</time></trkpt><trkpt lat="38.083045" lon="14.92493"><ele>924.8</ele><time>2026-05-01T10:15:02.73Z</time></trkpt><trkpt lat="38.082955" lon="14.924865"><ele>926.4</ele><time>2026-05-01T10:15:03.73Z</time></trkpt><trkpt lat="38.0828683" lon="14.9247933"><ele>928.0</ele><time>2026-05-01T10:15:04.73Z</time></trkpt><trkpt lat="38.08279" lon="14.9247317"><ele>927.9999999999999</ele><time>2026-05-01T10:15:05.73Z</time></trkpt><trkpt lat="38.0827133" lon="14.92469"><ele>928.0</ele><time>2026-05-01T10:15:06.73Z</time></trkpt><trkpt lat="38.0826433" lon="14.9246817"><ele>928.0</ele><time>2026-05-01T10:15:07.73Z</time></trkpt><trkpt lat="38.0825717" lon="14.924705"><ele>928.0</ele><time>2026-05-01T10:15:08.73Z</time></trkpt><trkpt lat="38.082515" lon="14.9247617"><ele>927.9999999999999</ele><time>2026-05-01T10:15:09.73Z</time></trkpt><trkpt lat="38.0824683" lon="14.9248483"><ele>928.0</ele><time>2026-05-01T10:15:10.73Z</time></trkpt><trkpt lat="38.08244" lon="14.9249483"><ele>929.1666666666666</ele><time>2026-05-01T10:15:11.73Z</time></trkpt><trkpt lat="38.0824183" lon="14.9250283"><ele>930.3333333333333</ele><time>2026-05-01T10:15:12.73Z</time></trkpt><trkpt lat="38.0823767" lon="14.92516"><ele>931.5</ele><time>2026-05-01T10:15:14.73Z</time></trkpt><trkpt lat="38.0823483" lon="14.925245"><ele>932.6666666666667</ele><time>2026-05-01T10:15:15.73Z</time></trkpt><trkpt lat="38.0823217" lon="14.9253333"><ele>933.8333333333334</ele><time>2026-05-01T10:15:16.73Z</time></trkpt><trkpt lat="38.08227" lon="14.92547"><ele>935.0</ele><time>2026-05-01T10:15:18.73Z</time></trkpt><trkpt lat="38.0822333" lon="14.9256183"><ele>935.8333333333334</ele><time>2026-05-01T10:15:20.73Z</time></trkpt><trkpt lat="38.082215" lon="14.9257067"><ele>936.6666666666667</ele><time>2026-05-01T10:15:21.73Z</time></trkpt><trkpt lat="38.0822" lon="14.9258017"><ele>937.5</ele><time>2026-05-01T10:15:22.73Z</time></trkpt><trkpt lat="38.0821783" lon="14.9259033"><ele>938.3333333333333</ele><time>2026-05-01T10:15:23.73Z</time></trkpt><trkpt lat="38.082155" lon="14.9260217"><ele>939.1666666666666</ele><time>2026-05-01T10:15:24.73Z</time></trkpt><trkpt lat="38.0821267" lon="14.92615"><ele>940.0</ele><time>2026-05-01T10:15:25.73Z</time></trkpt><trkpt lat="38.0821033" lon="14.9262583"><ele>937.9999999999999</ele><time>2026-05-01T10:15:26.73Z</time></trkpt><trkpt lat="38.0820433" lon="14.92636"><ele>936.0</ele><time>2026-05-01T10:15:28.73Z</time></trkpt><trkpt lat="38.0821183" lon="14.926295"><ele>934.0</ele><time>2026-05-01T10:15:35.73Z</time></trkpt><trkpt lat="38.082185" lon="14.9262667"><ele>932.0</ele><time>2026-05-01T10:15:37.73Z</time></trkpt><trkpt lat="38.0822917" lon="14.9262767"><ele>929.9999999999999</ele><time>2026-05-01T10:15:39.73Z</time></trkpt><trkpt lat="38.082225" lon="14.9262783"><ele>928.0</ele><time>2026-05-01T10:17:10.731Z</time></trkpt><trkpt lat="38.08214" lon="14.92627"><ele>927.9999999999999</ele><time>2026-05-01T10:17:12.73Z</time></trkpt><trkpt lat="38.0820867" lon="14.9263183"><ele>928.0</ele><time>2026-05-01T10:17:14.731Z</time></trkpt><trkpt lat="38.0820333" lon="14.9263767"><ele>928.0</ele><time>2026-05-01T10:17:17.731Z</time></trkpt><trkpt lat="38.0820733" lon="14.9263"><ele>928.0</ele><time>2026-05-01T10:17:24.731Z</time></trkpt><trkpt lat="38.082165" lon="14.92627"><ele>927.9999999999999</ele><time>2026-05-01T10:17:26.731Z</time></trkpt><trkpt lat="38.0822783" lon="14.9262717"><ele>928.0</ele><time>2026-05-01T10:17:28.73Z</time></trkpt><trkpt lat="38.0823583" lon="14.92628"><ele>927.9999999999999</ele><time>2026-05-01T10:17:30.731Z</time></trkpt><trkpt lat="38.0824267" lon="14.9262633"><ele>928.0</ele><time>2026-05-01T10:18:11.731Z</time></trkpt><trkpt lat="38.082505" lon="14.92625"><ele>928.0</ele><time>2026-05-01T10:18:13.731Z</time></trkpt><trkpt lat="38.0826017" lon="14.92625"><ele>928.0</ele><time>2026-05-01T10:18:16.731Z</time></trkpt><trkpt lat="38.0826767" lon="14.926255"><ele>927.9999999999999</ele><time>2026-05-01T10:18:18.731Z</time></trkpt><trkpt lat="38.08278" lon="14.9262883"><ele>928.0</ele><time>2026-05-01T10:18:20.731Z</time></trkpt><trkpt lat="38.0828883" lon="14.92631"><ele>928.9999999999999</ele><time>2026-05-01T10:18:22.731Z</time></trkpt><trkpt lat="38.082955" lon="14.9263383"><ele>930.0</ele><time>2026-05-01T10:18:23.731Z</time></trkpt><trkpt lat="38.08302" lon="14.9263567"><ele>931.0</ele><time>2026-05-01T10:18:24.73Z</time></trkpt><trkpt lat="38.0831117" lon="14.9264"><ele>932.0</ele><time>2026-05-01T10:18:26.731Z</time></trkpt><trkpt lat="38.0831683" lon="14.92645"><ele>932.9999999999999</ele><time>2026-05-01T10:18:39.731Z</time></trkpt><trkpt lat="38.083075" lon="14.9263717"><ele>934.0</ele><time>2026-05-01T10:18:45.731Z</time></trkpt><trkpt lat="38.0830017" lon="14.926345"><ele>933.9999999999999</ele><time>2026-05-01T10:18:47.731Z</time></trkpt><trkpt lat="38.0829317" lon="14.9263117"><ele>934.0</ele><time>2026-05-01T10:18:50.731Z</time></trkpt><trkpt lat="38.082865" lon="14.9262717"><ele>934.0</ele><time>2026-05-01T10:18:53.731Z</time></trkpt><trkpt lat="38.0828017" lon="14.926245"><ele>934.0</ele><time>2026-05-01T10:18:56.73Z</time></trkpt><trkpt lat="38.08273" lon="14.92626"><ele>933.9999999999999</ele><time>2026-05-01T10:19:45.731Z</time></trkpt><trkpt lat="38.08282" lon="14.92631"><ele>934.0</ele><time>2026-05-01T10:19:48.73Z</time></trkpt><trkpt lat="38.0829417" lon="14.9263317"><ele>933.9999999999999</ele><time>2026-05-01T10:19:50.731Z</time></trkpt><trkpt lat="38.0830117" lon="14.9263533"><ele>934.0</ele><time>2026-05-01T10:19:51.731Z</time></trkpt><trkpt lat="38.0830967" lon="14.9263933"><ele>934.0</ele><time>2026-05-01T10:19:52.731Z</time></trkpt><trkpt lat="38.08317" lon="14.9264433"><ele>934.0</ele><time>2026-05-01T10:19:53.731Z</time></trkpt><trkpt lat="38.083235" lon="14.92649"><ele>933.9999999999999</ele><time>2026-05-01T10:19:54.73Z</time></trkpt><trkpt lat="38.0832933" lon="14.92653"><ele>934.0</ele><time>2026-05-01T10:19:55.731Z</time></trkpt><trkpt lat="38.0833583" lon="14.9265733"><ele>935.9999999999999</ele><time>2026-05-01T10:19:56.731Z</time></trkpt><trkpt lat="38.0834317" lon="14.9266067"><ele>938.0</ele><time>2026-05-01T10:19:57.73Z</time></trkpt><trkpt lat="38.0835117" lon="14.9266383"><ele>940.0</ele><time>2026-05-01T10:19:58.731Z</time></trkpt><trkpt lat="38.0835967" lon="14.92667"><ele>942.0</ele><time>2026-05-01T10:19:59.731Z</time></trkpt><trkpt lat="38.0836767" lon="14.9266867"><ele>943.9999999999999</ele><time>2026-05-01T10:20:00.731Z</time></trkpt><trkpt lat="38.08375" lon="14.9267017"><ele>946.0</ele><time>2026-05-01T10:20:01.731Z</time></trkpt><trkpt lat="38.0838183" lon="14.9267067"><ele>945.9999999999999</ele><time>2026-05-01T10:20:02.73Z</time></trkpt><trkpt lat="38.083895" lon="14.9267083"><ele>946.0</ele><time>2026-05-01T10:20:03.731Z</time></trkpt><trkpt lat="38.0839767" lon="14.9267083"><ele>946.0</ele><time>2026-05-01T10:20:04.731Z</time></trkpt><trkpt lat="38.084065" lon="14.9267167"><ele>946.0</ele><time>2026-05-01T10:20:05.731Z</time></trkpt><trkpt lat="38.084155" lon="14.926725"><ele>945.9999999999999</ele><time>2026-05-01T10:20:06.731Z</time></trkpt><trkpt lat="38.0842504" lon="14.9267469"><ele>946.0</ele><time>2026-05-01T10:20:07.73Z</time></trkpt><trkpt lat="38.0843448" lon="14.926786"><ele>946.0</ele><time>2026-05-01T10:20:08.731Z</time></trkpt><trkpt lat="38.0844122" lon="14.9268203"><ele>945.9999999999999</ele><time>2026-05-01T10:20:09.731Z</time></trkpt><trkpt lat="38.0845191" lon="14.9268944"><ele>945.9999999999999</ele><time>2026-05-01T10:20:11.731Z</time></trkpt><trkpt lat="38.0846439" lon="14.9269432"><ele>946.0</ele><time>2026-05-01T10:20:13.731Z</time></trkpt><trkpt lat="38.0847193" lon="14.9269506"><ele>946.0</ele><time>2026-05-01T10:20:14.731Z</time></trkpt><trkpt lat="38.0847909" lon="14.9269566"><ele>945.9999999999999</ele><time>2026-05-01T10:20:15.731Z</time></trkpt><trkpt lat="38.0848626" lon="14.9269654"><ele>946.0</ele><time>2026-05-01T10:20:16.73Z</time></trkpt><trkpt lat="38.0849333" lon="14.9269703"><ele>946.0</ele><time>2026-05-01T10:20:17.731Z</time></trkpt><trkpt lat="38.0850249" lon="14.926978"><ele>946.0</ele><time>2026-05-01T10:20:19.731Z</time></trkpt><trkpt lat="38.0849282" lon="14.9269664"><ele>945.9999999999999</ele><time>2026-05-01T10:25:03.731Z</time></trkpt><trkpt lat="38.0848318" lon="14.9269411"><ele>946.0</ele><time>2026-05-01T10:25:05.731Z</time></trkpt><trkpt lat="38.0847385" lon="14.9269302"><ele>945.9999999999999</ele><time>2026-05-01T10:25:07.731Z</time></trkpt><trkpt lat="38.0846447" lon="14.9269205"><ele>946.0</ele><time>2026-05-01T10:26:09.732Z</time></trkpt><trkpt lat="38.0845453" lon="14.9269099"><ele>946.0</ele><time>2026-05-01T10:26:11.732Z</time></trkpt><trkpt lat="38.0844746" lon="14.9268641"><ele>946.0</ele><time>2026-05-01T10:26:13.732Z</time></trkpt><trkpt lat="38.0844104" lon="14.926811"><ele>945.9999999999999</ele><time>2026-05-01T10:26:15.732Z</time></trkpt><trkpt lat="38.0843316" lon="14.9267787"><ele>946.0</ele><time>2026-05-01T10:26:18.731Z</time></trkpt><trkpt lat="38.084255" lon="14.9267591"><ele>946.0</ele><time>2026-05-01T10:26:22.732Z</time></trkpt><trkpt lat="38.0841845" lon="14.9267351"><ele>946.0</ele><time>2026-05-01T10:26:26.732Z</time></trkpt><trkpt lat="38.084105" lon="14.9267267"><ele>946.0</ele><time>2026-05-01T10:26:31.732Z</time></trkpt><trkpt lat="38.0840233" lon="14.9267233"><ele>946.0</ele><time>2026-05-01T10:26:35.732Z</time></trkpt><trkpt lat="38.0839517" lon="14.9267133"><ele>946.0</ele><time>2026-05-01T10:26:38.732Z</time></trkpt><trkpt lat="38.0838867" lon="14.9267083"><ele>946.0</ele><time>2026-05-01T10:26:41.732Z</time></trkpt><trkpt lat="38.08382" lon="14.9266883"><ele>946.0</ele><time>2026-05-01T10:26:45.732Z</time></trkpt><trkpt lat="38.0837533" lon="14.9266933"><ele>946.0</ele><time>2026-05-01T10:27:09.732Z</time></trkpt><trkpt lat="38.0836617" lon="14.926685"><ele>945.9999999999999</ele><time>2026-05-01T10:27:11.732Z</time></trkpt><trkpt lat="38.0835667" lon="14.926655"><ele>945.9999999999999</ele><time>2026-05-01T10:27:13.731Z</time></trkpt><trkpt lat="38.083475" lon="14.9266283"><ele>946.0</ele><time>2026-05-01T10:27:15.732Z</time></trkpt><trkpt lat="38.08339" lon="14.9265967"><ele>946.0</ele><time>2026-05-01T10:27:17.732Z</time></trkpt><trkpt lat="38.0833033" lon="14.9265333"><ele>943.9999999999999</ele><time>2026-05-01T10:27:19.732Z</time></trkpt><trkpt lat="38.0832417" lon="14.9264817"><ele>942.0</ele><time>2026-05-01T10:27:20.731Z</time></trkpt><trkpt lat="38.0831717" lon="14.92644"><ele>940.0</ele><time>2026-05-01T10:27:21.732Z</time></trkpt><trkpt lat="38.0830983" lon="14.9264"><ele>938.0</ele><time>2026-05-01T10:27:22.732Z</time></trkpt><trkpt lat="38.083005" lon="14.9263533"><ele>935.9999999999999</ele><time>2026-05-01T10:27:24.731Z</time></trkpt><trkpt lat="38.0829267" lon="14.9263233"><ele>934.0</ele><time>2026-05-01T10:27:26.732Z</time></trkpt><trkpt lat="38.0828517" lon="14.9263067"><ele>933.9999999999999</ele><time>2026-05-01T10:27:28.732Z</time></trkpt><trkpt lat="38.0827783" lon="14.926285"><ele>934.0</ele><time>2026-05-01T10:27:30.732Z</time></trkpt><trkpt lat="38.0827083" lon="14.9262717"><ele>934.0</ele><time>2026-05-01T10:27:32.732Z</time></trkpt><trkpt lat="38.0826383" lon="14.9262483"><ele>934.0</ele><time>2026-05-01T10:27:34.732Z</time></trkpt><trkpt lat="38.082545" lon="14.926245"><ele>933.9999999999999</ele><time>2026-05-01T10:27:36.732Z</time></trkpt><trkpt lat="38.08246" lon="14.9262617"><ele>934.0</ele><time>2026-05-01T10:27:38.732Z</time></trkpt><trkpt lat="38.0823817" lon="14.9262733"><ele>933.142857142857</ele><time>2026-05-01T10:27:41.732Z</time></trkpt><trkpt lat="38.0822967" lon="14.9262733"><ele>932.2857142857142</ele><time>2026-05-01T10:27:44.732Z</time></trkpt><trkpt lat="38.0822267" lon="14.9262767"><ele>931.4285714285714</ele><time>2026-05-01T10:27:46.732Z</time></trkpt><trkpt lat="38.0821567" lon="14.92627"><ele>930.5714285714286</ele><time>2026-05-01T10:27:48.732Z</time></trkpt><trkpt lat="38.082105" lon="14.9263483"><ele>929.7142857142858</ele><time>2026-05-01T10:27:52.732Z</time></trkpt><trkpt lat="38.0820667" lon="14.926425"><ele>928.857142857143</ele><time>2026-05-01T10:27:55.732Z</time></trkpt><trkpt lat="38.0820017" lon="14.926385"><ele>928.0000000000001</ele><time>2026-05-01T10:27:58.732Z</time></trkpt><trkpt lat="38.0820717" lon="14.926325"><ele>927.9999999999999</ele><time>2026-05-01T10:28:01.731Z</time></trkpt><trkpt lat="38.0821367" lon="14.9263"><ele>928.0</ele><time>2026-05-01T10:28:03.731Z</time></trkpt><trkpt lat="38.0820767" lon="14.9263517"><ele>928.0</ele><time>2026-05-01T10:28:12.732Z</time></trkpt><trkpt lat="38.08202" lon="14.9264033"><ele>928.0</ele><time>2026-05-01T10:28:15.732Z</time></trkpt><trkpt lat="38.08193" lon="14.92635"><ele>927.9999999999999</ele><time>2026-05-01T10:28:22.732Z</time></trkpt><trkpt lat="38.081815" lon="14.926335"><ele>928.0</ele><time>2026-05-01T10:28:23.732Z</time></trkpt><trkpt lat="38.0816733" lon="14.9263467"><ele>929.75</ele><time>2026-05-01T10:28:24.731Z</time></trkpt><trkpt lat="38.081515" lon="14.9263733"><ele>931.5</ele><time>2026-05-01T10:28:25.731Z</time></trkpt><trkpt lat="38.08137" lon="14.9264117"><ele>933.25</ele><time>2026-05-01T10:28:26.732Z</time></trkpt><trkpt lat="38.08124" lon="14.92647"><ele>935.0</ele><time>2026-05-01T10:28:27.732Z</time></trkpt><trkpt lat="38.0811233" lon="14.9265367"><ele>935.0</ele><time>2026-05-01T10:28:28.732Z</time></trkpt><trkpt lat="38.08101" lon="14.92661"><ele>935.0</ele><time>2026-05-01T10:28:29.732Z</time></trkpt><trkpt lat="38.0809017" lon="14.9266817"><ele>935.0</ele><time>2026-05-01T10:28:30.732Z</time></trkpt><trkpt lat="38.0807983" lon="14.9267583"><ele>935.0</ele><time>2026-05-01T10:28:31.732Z</time></trkpt><trkpt lat="38.0806933" lon="14.9268417"><ele>929.25</ele><time>2026-05-01T10:28:32.732Z</time></trkpt><trkpt lat="38.0805733" lon="14.926925"><ele>923.5</ele><time>2026-05-01T10:28:33.732Z</time></trkpt><trkpt lat="38.08046" lon="14.9270117"><ele>917.75</ele><time>2026-05-01T10:28:34.732Z</time></trkpt><trkpt lat="38.0803533" lon="14.92709"><ele>912.0</ele><time>2026-05-01T10:28:35.732Z</time></trkpt><trkpt lat="38.08025" lon="14.92714"><ele>912.0</ele><time>2026-05-01T10:28:36.731Z</time></trkpt><trkpt lat="38.0801417" lon="14.9271717"><ele>912.0</ele><time>2026-05-01T10:28:37.732Z</time></trkpt><trkpt lat="38.0800233" lon="14.9271933"><ele>912.0</ele><time>2026-05-01T10:28:38.731Z</time></trkpt><trkpt lat="38.07991" lon="14.92722"><ele>912.0</ele><time>2026-05-01T10:28:39.732Z</time></trkpt><trkpt lat="38.079795" lon="14.927245"><ele>914.0</ele><time>2026-05-01T10:28:40.731Z</time></trkpt><trkpt lat="38.0796833" lon="14.92726"><ele>916.0</ele><time>2026-05-01T10:28:41.732Z</time></trkpt><trkpt lat="38.079575" lon="14.92728"><ele>918.0</ele><time>2026-05-01T10:28:42.732Z</time></trkpt><trkpt lat="38.0794717" lon="14.9273033"><ele>920.0</ele><time>2026-05-01T10:28:43.732Z</time></trkpt><trkpt lat="38.0793667" lon="14.92733"><ele>922.0</ele><time>2026-05-01T10:28:44.732Z</time></trkpt><trkpt lat="38.07926" lon="14.9273483"><ele>922.0</ele><time>2026-05-01T10:28:45.732Z</time></trkpt><trkpt lat="38.0791583" lon="14.9273617"><ele>922.0</ele><time>2026-05-01T10:28:46.731Z</time></trkpt><trkpt lat="38.079055" lon="14.9273783"><ele>922.0</ele><time>2026-05-01T10:28:47.731Z</time></trkpt><trkpt lat="38.0789583" lon="14.92739"><ele>922.0</ele><time>2026-05-01T10:28:48.732Z</time></trkpt><trkpt lat="38.07886" lon="14.9274017"><ele>922.0</ele><time>2026-05-01T10:28:49.732Z</time></trkpt><trkpt lat="38.0787667" lon="14.9274033"><ele>919.4000000000001</ele><time>2026-05-01T10:28:50.732Z</time></trkpt><trkpt lat="38.07867" lon="14.9274033"><ele>916.8000000000001</ele><time>2026-05-01T10:28:51.732Z</time></trkpt><trkpt lat="38.07857" lon="14.927395"><ele>914.2</ele><time>2026-05-01T10:28:52.732Z</time></trkpt><trkpt lat="38.07846" lon="14.9273917"><ele>911.6</ele><time>2026-05-01T10:28:53.732Z</time></trkpt><trkpt lat="38.0783517" lon="14.9273817"><ele>909.0</ele><time>2026-05-01T10:28:54.732Z</time></trkpt><trkpt lat="38.078245" lon="14.92737"><ele>906.4000000000001</ele><time>2026-05-01T10:28:55.732Z</time></trkpt><trkpt lat="38.0781433" lon="14.927355"><ele>903.8000000000001</ele><time>2026-05-01T10:28:56.732Z</time></trkpt><trkpt lat="38.0780467" lon="14.9273367"><ele>901.1999999999999</ele><time>2026-05-01T10:28:57.732Z</time></trkpt><trkpt lat="38.077955" lon="14.927305"><ele>898.5999999999999</ele><time>2026-05-01T10:28:58.732Z</time></trkpt><trkpt lat="38.0778667" lon="14.9272667"><ele>896.0</ele><time>2026-05-01T10:28:59.732Z</time></trkpt><trkpt lat="38.077775" lon="14.9272217"><ele>896.0</ele><time>2026-05-01T10:29:00.732Z</time></trkpt><trkpt lat="38.0776833" lon="14.9271733"><ele>895.9999999999999</ele><time>2026-05-01T10:29:01.731Z</time></trkpt><trkpt lat="38.077595" lon="14.9271333"><ele>895.9999999999999</ele><time>2026-05-01T10:29:02.732Z</time></trkpt><trkpt lat="38.0775017" lon="14.927105"><ele>896.0</ele><time>2026-05-01T10:29:03.732Z</time></trkpt><trkpt lat="38.07741" lon="14.92711"><ele>896.0</ele><time>2026-05-01T10:29:04.732Z</time></trkpt><trkpt lat="38.0773233" lon="14.9271483"><ele>895.4</ele><time>2026-05-01T10:29:05.732Z</time></trkpt><trkpt lat="38.0772283" lon="14.9272033"><ele>894.8</ele><time>2026-05-01T10:29:06.732Z</time></trkpt><trkpt lat="38.0771433" lon="14.9272617"><ele>894.1999999999999</ele><time>2026-05-01T10:29:07.732Z</time></trkpt><trkpt lat="38.0770617" lon="14.9273283"><ele>893.5999999999999</ele><time>2026-05-01T10:29:08.732Z</time></trkpt><trkpt lat="38.0769767" lon="14.9274033"><ele>893.0</ele><time>2026-05-01T10:29:09.732Z</time></trkpt><trkpt lat="38.0768867" lon="14.9274717"><ele>893.0</ele><time>2026-05-01T10:29:10.732Z</time></trkpt><trkpt lat="38.0767933" lon="14.9275367"><ele>893.0</ele><time>2026-05-01T10:29:11.732Z</time></trkpt><trkpt lat="38.0767017" lon="14.92757"><ele>893.0</ele><time>2026-05-01T10:29:12.732Z</time></trkpt><trkpt lat="38.0765983" lon="14.92756"><ele>893.0</ele><time>2026-05-01T10:29:13.732Z</time></trkpt><trkpt lat="38.0765133" lon="14.9275083"><ele>893.0</ele><time>2026-05-01T10:29:14.732Z</time></trkpt><trkpt lat="38.0764583" lon="14.9274317"><ele>888.5999999999999</ele><time>2026-05-01T10:29:15.732Z</time></trkpt><trkpt lat="38.07643" lon="14.9273417"><ele>884.1999999999999</ele><time>2026-05-01T10:29:16.732Z</time></trkpt><trkpt lat="38.0764383" lon="14.9272267"><ele>879.8</ele><time>2026-05-01T10:29:17.732Z</time></trkpt><trkpt lat="38.0764783" lon="14.9270933"><ele>875.4</ele><time>2026-05-01T10:29:18.732Z</time></trkpt><trkpt lat="38.0765417" lon="14.926955"><ele>871.0</ele><time>2026-05-01T10:29:19.732Z</time></trkpt><trkpt lat="38.0766017" lon="14.9268483"><ele>871.0</ele><time>2026-05-01T10:29:20.732Z</time></trkpt><trkpt lat="38.07666" lon="14.9267733"><ele>870.9999999999999</ele><time>2026-05-01T10:29:21.732Z</time></trkpt><trkpt lat="38.0766783" lon="14.9266417"><ele>870.9999999999999</ele><time>2026-05-01T10:29:23.732Z</time></trkpt><trkpt lat="38.076595" lon="14.9265967"><ele>871.0</ele><time>2026-05-01T10:29:25.731Z</time></trkpt><trkpt lat="38.0765033" lon="14.9266717"><ele>871.0</ele><time>2026-05-01T10:29:27.731Z</time></trkpt><trkpt lat="38.0764183" lon="14.9267917"><ele>870.9999999999999</ele><time>2026-05-01T10:29:29.732Z</time></trkpt><trkpt lat="38.07636" lon="14.926845"><ele>871.0</ele><time>2026-05-01T10:29:30.732Z</time></trkpt><trkpt lat="38.0762983" lon="14.9269067"><ele>871.0</ele><time>2026-05-01T10:29:31.731Z</time></trkpt><trkpt lat="38.07624" lon="14.9269767"><ele>871.0</ele><time>2026-05-01T10:29:32.732Z</time></trkpt><trkpt lat="38.07618" lon="14.927055"><ele>870.9999999999999</ele><time>2026-05-01T10:29:33.732Z</time></trkpt><trkpt lat="38.0761217" lon="14.92715"><ele>871.0</ele><time>2026-05-01T10:29:34.731Z</time></trkpt><trkpt lat="38.0760717" lon="14.9272633"><ele>871.0</ele><time>2026-05-01T10:29:35.732Z</time></trkpt><trkpt lat="38.07604" lon="14.927405"><ele>871.0</ele><time>2026-05-01T10:29:36.732Z</time></trkpt><trkpt lat="38.0760283" lon="14.927575"><ele>871.0</ele><time>2026-05-01T10:29:37.732Z</time></trkpt><trkpt lat="38.0760183" lon="14.92774"><ele>871.0</ele><time>2026-05-01T10:29:38.732Z</time></trkpt><trkpt lat="38.075995" lon="14.9278967"><ele>869.75</ele><time>2026-05-01T10:29:39.732Z</time></trkpt><trkpt lat="38.0759717" lon="14.928055"><ele>868.5</ele><time>2026-05-01T10:29:40.732Z</time></trkpt><trkpt lat="38.0759383" lon="14.928205"><ele>867.25</ele><time>2026-05-01T10:29:41.732Z</time></trkpt><trkpt lat="38.0758933" lon="14.9283483"><ele>866.0</ele><time>2026-05-01T10:29:42.732Z</time></trkpt><trkpt lat="38.0758383" lon="14.9284817"><ele>863.0</ele><time>2026-05-01T10:29:43.732Z</time></trkpt><trkpt lat="38.0757733" lon="14.9286067"><ele>860.0</ele><time>2026-05-01T10:29:44.731Z</time></trkpt><trkpt lat="38.0757067" lon="14.9287267"><ele>857.0</ele><time>2026-05-01T10:29:45.732Z</time></trkpt><trkpt lat="38.0756433" lon="14.9288383"><ele>854.0</ele><time>2026-05-01T10:29:46.732Z</time></trkpt><trkpt lat="38.075575" lon="14.92895"><ele>854.0</ele><time>2026-05-01T10:29:47.732Z</time></trkpt><trkpt lat="38.0755033" lon="14.9290467"><ele>854.0000000000001</ele><time>2026-05-01T10:29:48.732Z</time></trkpt><trkpt lat="38.0754267" lon="14.9291383"><ele>854.0000000000001</ele><time>2026-05-01T10:29:49.732Z</time></trkpt><trkpt lat="38.075355" lon="14.929225"><ele>854.0</ele><time>2026-05-01T10:29:50.732Z</time></trkpt><trkpt lat="38.0752883" lon="14.9293067"><ele>854.0</ele><time>2026-05-01T10:29:51.732Z</time></trkpt><trkpt lat="38.0752183" lon="14.9293717"><ele>855.0</ele><time>2026-05-01T10:29:52.732Z</time></trkpt><trkpt lat="38.0751383" lon="14.9294133"><ele>856.0000000000001</ele><time>2026-05-01T10:29:53.732Z</time></trkpt><trkpt lat="38.0750367" lon="14.9294333"><ele>857.0000000000001</ele><time>2026-05-01T10:29:54.732Z</time></trkpt><trkpt lat="38.07493" lon="14.9294433"><ele>858.0</ele><time>2026-05-01T10:29:55.731Z</time></trkpt><trkpt lat="38.07481" lon="14.9294317"><ele>859.0</ele><time>2026-05-01T10:29:56.732Z</time></trkpt><trkpt lat="38.0746883" lon="14.9294167"><ele>859.0</ele><time>2026-05-01T10:29:57.732Z</time></trkpt><trkpt lat="38.0745667" lon="14.9293917"><ele>859.0000000000001</ele><time>2026-05-01T10:29:58.732Z</time></trkpt><trkpt lat="38.0744583" lon="14.929355"><ele>859.0000000000001</ele><time>2026-05-01T10:29:59.732Z</time></trkpt><trkpt lat="38.0743533" lon="14.92932"><ele>859.0</ele><time>2026-05-01T10:30:00.732Z</time></trkpt><trkpt lat="38.074255" lon="14.929305"><ele>859.0</ele><time>2026-05-01T10:30:01.732Z</time></trkpt><trkpt lat="38.0741617" lon="14.9292933"><ele>858.6666666666666</ele><time>2026-05-01T10:30:02.732Z</time></trkpt><trkpt lat="38.07407" lon="14.9292933"><ele>858.3333333333333</ele><time>2026-05-01T10:30:03.732Z</time></trkpt><trkpt lat="38.0739783" lon="14.9293"><ele>858.0</ele><time>2026-05-01T10:30:04.731Z</time></trkpt><trkpt lat="38.0738917" lon="14.9293083"><ele>857.6666666666667</ele><time>2026-05-01T10:30:05.732Z</time></trkpt><trkpt lat="38.0738067" lon="14.9293233"><ele>857.3333333333334</ele><time>2026-05-01T10:30:06.732Z</time></trkpt><trkpt lat="38.0737217" lon="14.9293283"><ele>857.0</ele><time>2026-05-01T10:30:07.732Z</time></trkpt><trkpt lat="38.0736417" lon="14.9293417"><ele>857.0000000000001</ele><time>2026-05-01T10:30:08.731Z</time></trkpt><trkpt lat="38.0735683" lon="14.9293617"><ele>857.0</ele><time>2026-05-01T10:30:09.732Z</time></trkpt><trkpt lat="38.0734933" lon="14.9293917"><ele>857.0</ele><time>2026-05-01T10:30:10.732Z</time></trkpt><trkpt lat="38.07342" lon="14.9294217"><ele>857.0</ele><time>2026-05-01T10:30:11.732Z</time></trkpt><trkpt lat="38.073345" lon="14.929445"><ele>857.0000000000001</ele><time>2026-05-01T10:30:12.732Z</time></trkpt><trkpt lat="38.07327" lon="14.929455"><ele>857.0</ele><time>2026-05-01T10:30:13.732Z</time></trkpt><trkpt lat="38.0731967" lon="14.9294417"><ele>857.1666666666667</ele><time>2026-05-01T10:30:14.732Z</time></trkpt><trkpt lat="38.0731333" lon="14.9294"><ele>857.3333333333334</ele><time>2026-05-01T10:30:15.732Z</time></trkpt><trkpt lat="38.0730867" lon="14.9293383"><ele>857.5</ele><time>2026-05-01T10:30:16.732Z</time></trkpt><trkpt lat="38.073035" lon="14.929195"><ele>857.6666666666667</ele><time>2026-05-01T10:30:18.732Z</time></trkpt><trkpt lat="38.073005" lon="14.9291033"><ele>857.8333333333334</ele><time>2026-05-01T10:30:19.732Z</time></trkpt><trkpt lat="38.07295" lon="14.92901"><ele>858.0</ele><time>2026-05-01T10:30:20.732Z</time></trkpt><trkpt lat="38.0728817" lon="14.928925"><ele>857.5</ele><time>2026-05-01T10:30:21.732Z</time></trkpt><trkpt lat="38.0728117" lon="14.92885"><ele>857.0</ele><time>2026-05-01T10:30:22.732Z</time></trkpt><trkpt lat="38.0727483" lon="14.9287833"><ele>856.5</ele><time>2026-05-01T10:30:23.732Z</time></trkpt><trkpt lat="38.0726783" lon="14.9287317"><ele>856.0</ele><time>2026-05-01T10:30:24.732Z</time></trkpt><trkpt lat="38.0726017" lon="14.9287017"><ele>855.5</ele><time>2026-05-01T10:30:25.732Z</time></trkpt><trkpt lat="38.0725133" lon="14.9286983"><ele>855.0</ele><time>2026-05-01T10:30:26.732Z</time></trkpt><trkpt lat="38.0724183" lon="14.928705"><ele>854.1666666666666</ele><time>2026-05-01T10:30:27.732Z</time></trkpt><trkpt lat="38.0723183" lon="14.9287"><ele>853.3333333333333</ele><time>2026-05-01T10:30:28.731Z</time></trkpt><trkpt lat="38.072225" lon="14.9287067"><ele>852.5</ele><time>2026-05-01T10:30:29.732Z</time></trkpt><trkpt lat="38.0721367" lon="14.928705"><ele>851.6666666666666</ele><time>2026-05-01T10:30:30.732Z</time></trkpt><trkpt lat="38.0720533" lon="14.9286917"><ele>850.8333333333333</ele><time>2026-05-01T10:30:31.732Z</time></trkpt><trkpt lat="38.0719767" lon="14.9286633"><ele>850.0</ele><time>2026-05-01T10:30:32.732Z</time></trkpt><trkpt lat="38.0718967" lon="14.9286233"><ele>850.0</ele><time>2026-05-01T10:30:33.732Z</time></trkpt><trkpt lat="38.0718117" lon="14.9285833"><ele>850.0</ele><time>2026-05-01T10:30:34.732Z</time></trkpt><trkpt lat="38.0717233" lon="14.928535"><ele>850.0</ele><time>2026-05-01T10:30:35.732Z</time></trkpt><trkpt lat="38.07164" lon="14.928495"><ele>850.0</ele><time>2026-05-01T10:30:36.732Z</time></trkpt><trkpt lat="38.0715533" lon="14.928455"><ele>850.0</ele><time>2026-05-01T10:30:37.731Z</time></trkpt><trkpt lat="38.07146" lon="14.92843"><ele>848.2</ele><time>2026-05-01T10:30:38.732Z</time></trkpt><trkpt lat="38.0713583" lon="14.9284133"><ele>846.4</ele><time>2026-05-01T10:30:39.732Z</time></trkpt><trkpt lat="38.0712583" lon="14.92839"><ele>844.5999999999999</ele><time>2026-05-01T10:30:40.732Z</time></trkpt><trkpt lat="38.071165" lon="14.92835"><ele>842.8</ele><time>2026-05-01T10:30:41.731Z</time></trkpt><trkpt lat="38.071045" lon="14.9282967"><ele>841.0</ele><time>2026-05-01T10:30:42.732Z</time></trkpt><trkpt lat="38.0709117" lon="14.92824"><ele>838.75</ele><time>2026-05-01T10:30:43.732Z</time></trkpt><trkpt lat="38.0707733" lon="14.9281883"><ele>836.5</ele><time>2026-05-01T10:30:44.732Z</time></trkpt><trkpt lat="38.0706367" lon="14.92814"><ele>834.25</ele><time>2026-05-01T10:30:45.732Z</time></trkpt><trkpt lat="38.070505" lon="14.9280933"><ele>832.0</ele><time>2026-05-01T10:30:46.732Z</time></trkpt><trkpt lat="38.0703767" lon="14.9280467"><ele>832.0</ele><time>2026-05-01T10:30:47.732Z</time></trkpt><trkpt lat="38.070245" lon="14.92801"><ele>832.0</ele><time>2026-05-01T10:30:48.732Z</time></trkpt><trkpt lat="38.0701133" lon="14.9279867"><ele>832.0</ele><time>2026-05-01T10:30:49.732Z</time></trkpt><trkpt lat="38.06998" lon="14.9279733"><ele>832.0</ele><time>2026-05-01T10:30:50.732Z</time></trkpt><trkpt lat="38.0698367" lon="14.9279633"><ele>833.0</ele><time>2026-05-01T10:30:51.732Z</time></trkpt><trkpt lat="38.0696767" lon="14.927945"><ele>834.0</ele><time>2026-05-01T10:30:52.732Z</time></trkpt><trkpt lat="38.0695067" lon="14.9279167"><ele>835.0</ele><time>2026-05-01T10:30:53.732Z</time></trkpt><trkpt lat="38.06934" lon="14.92787"><ele>835.0</ele><time>2026-05-01T10:30:54.732Z</time></trkpt><trkpt lat="38.06918" lon="14.92781"><ele>835.0</ele><time>2026-05-01T10:30:55.732Z</time></trkpt><trkpt lat="38.069045" lon="14.92774"><ele>835.0</ele><time>2026-05-01T10:30:56.732Z</time></trkpt><trkpt lat="38.0689283" lon="14.9276433"><ele>838.4</ele><time>2026-05-01T10:30:57.731Z</time></trkpt><trkpt lat="38.0688433" lon="14.9275317"><ele>841.8</ele><time>2026-05-01T10:30:58.732Z</time></trkpt><trkpt lat="38.0687667" lon="14.9274317"><ele>845.2</ele><time>2026-05-01T10:30:59.732Z</time></trkpt><trkpt lat="38.0686783" lon="14.927355"><ele>848.6</ele><time>2026-05-01T10:31:00.732Z</time></trkpt><trkpt lat="38.0685783" lon="14.9273333"><ele>852.0</ele><time>2026-05-01T10:31:01.731Z</time></trkpt><trkpt lat="38.0684783" lon="14.92737"><ele>852.0</ele><time>2026-05-01T10:31:02.732Z</time></trkpt><trkpt lat="38.0683833" lon="14.9274433"><ele>852.0</ele><time>2026-05-01T10:31:03.732Z</time></trkpt><trkpt lat="38.0682833" lon="14.9275233"><ele>852.0</ele><time>2026-05-01T10:31:04.731Z</time></trkpt><trkpt lat="38.0681767" lon="14.9276017"><ele>852.0</ele><time>2026-05-01T10:31:05.732Z</time></trkpt><trkpt lat="38.0680617" lon="14.92767"><ele>854.5</ele><time>2026-05-01T10:31:06.731Z</time></trkpt><trkpt lat="38.0679633" lon="14.9277383"><ele>857.0</ele><time>2026-05-01T10:31:07.732Z</time></trkpt><trkpt lat="38.06788" lon="14.9277967"><ele>859.5</ele><time>2026-05-01T10:31:08.732Z</time></trkpt><trkpt lat="38.067795" lon="14.9278417"><ele>862.0</ele><time>2026-05-01T10:31:09.732Z</time></trkpt><trkpt lat="38.0677167" lon="14.9278667"><ele>864.5</ele><time>2026-05-01T10:31:10.732Z</time></trkpt><trkpt lat="38.0676533" lon="14.9278783"><ele>867.0</ele><time>2026-05-01T10:31:11.732Z</time></trkpt><trkpt lat="38.06759" lon="14.9279033"><ele>867.0</ele><time>2026-05-01T10:31:12.732Z</time></trkpt><trkpt lat="38.0675367" lon="14.927955"><ele>867.0</ele><time>2026-05-01T10:31:13.732Z</time></trkpt><trkpt lat="38.0674683" lon="14.92801"><ele>867.0</ele><time>2026-05-01T10:31:15.732Z</time></trkpt><trkpt lat="38.0674017" lon="14.9279867"><ele>867.0</ele><time>2026-05-01T10:31:17.732Z</time></trkpt><trkpt lat="38.0673067" lon="14.92793"><ele>867.0</ele><time>2026-05-01T10:31:19.732Z</time></trkpt><trkpt lat="38.0672617" lon="14.92787"><ele>867.0</ele><time>2026-05-01T10:31:20.732Z</time></trkpt><trkpt lat="38.067215" lon="14.92779"><ele>867.8333333333334</ele><time>2026-05-01T10:31:21.732Z</time></trkpt><trkpt lat="38.0671717" lon="14.92772"><ele>868.6666666666667</ele><time>2026-05-01T10:31:22.732Z</time></trkpt><trkpt lat="38.0671183" lon="14.9276067"><ele>869.5</ele><time>2026-05-01T10:31:24.732Z</time></trkpt><trkpt lat="38.0671167" lon="14.9275183"><ele>870.3333333333334</ele><time>2026-05-01T10:31:28.732Z</time></trkpt><trkpt lat="38.06705" lon="14.927445"><ele>871.1666666666667</ele><time>2026-05-01T10:34:44.732Z</time></trkpt><trkpt lat="38.0669633" lon="14.9273783"><ele>872.0</ele><time>2026-05-01T10:34:46.733Z</time></trkpt><trkpt lat="38.066865" lon="14.9272833"><ele>872.8333333333334</ele><time>2026-05-01T10:34:48.732Z</time></trkpt><trkpt lat="38.0667783" lon="14.9271783"><ele>873.6666666666667</ele><time>2026-05-01T10:34:50.733Z</time></trkpt><trkpt lat="38.0666933" lon="14.9270667"><ele>874.5</ele><time>2026-05-01T10:34:52.733Z</time></trkpt><trkpt lat="38.0666533" lon="14.927"><ele>875.3333333333333</ele><time>2026-05-01T10:34:53.733Z</time></trkpt><trkpt lat="38.0666167" lon="14.9269283"><ele>876.1666666666666</ele><time>2026-05-01T10:34:54.733Z</time></trkpt><trkpt lat="38.0665817" lon="14.9268617"><ele>877.0</ele><time>2026-05-01T10:34:55.733Z</time></trkpt><trkpt lat="38.0665433" lon="14.926795"><ele>880.0</ele><time>2026-05-01T10:34:56.733Z</time></trkpt><trkpt lat="38.066505" lon="14.9267233"><ele>883.0</ele><time>2026-05-01T10:34:57.733Z</time></trkpt><trkpt lat="38.0664617" lon="14.9266617"><ele>886.0</ele><time>2026-05-01T10:34:58.733Z</time></trkpt><trkpt lat="38.0664133" lon="14.92661"><ele>889.0</ele><time>2026-05-01T10:34:59.733Z</time></trkpt><trkpt lat="38.06636" lon="14.9265583"><ele>891.9999999999999</ele><time>2026-05-01T10:35:00.733Z</time></trkpt><trkpt lat="38.0663" lon="14.9264933"><ele>895.0</ele><time>2026-05-01T10:35:01.732Z</time></trkpt><trkpt lat="38.066235" lon="14.92641"><ele>898.0</ele><time>2026-05-01T10:35:02.733Z</time></trkpt><trkpt lat="38.066175" lon="14.9263067"><ele>898.0</ele><time>2026-05-01T10:35:03.733Z</time></trkpt><trkpt lat="38.0661183" lon="14.92621"><ele>898.0</ele><time>2026-05-01T10:35:04.733Z</time></trkpt><trkpt lat="38.06606" lon="14.9261217"><ele>898.0</ele><time>2026-05-01T10:35:05.732Z</time></trkpt><trkpt lat="38.0660033" lon="14.9260267"><ele>898.0</ele><time>2026-05-01T10:35:06.733Z</time></trkpt><trkpt lat="38.0659483" lon="14.9259483"><ele>898.0</ele><time>2026-05-01T10:35:07.733Z</time></trkpt><trkpt lat="38.0658883" lon="14.9258667"><ele>898.6666666666666</ele><time>2026-05-01T10:35:08.733Z</time></trkpt><trkpt lat="38.0658183" lon="14.9257717"><ele>899.3333333333333</ele><time>2026-05-01T10:35:09.733Z</time></trkpt><trkpt lat="38.0657517" lon="14.9256833"><ele>900.0</ele><time>2026-05-01T10:35:10.733Z</time></trkpt><trkpt lat="38.0657017" lon="14.9256117"><ele>900.6666666666667</ele><time>2026-05-01T10:35:11.733Z</time></trkpt><trkpt lat="38.06566" lon="14.9255517"><ele>901.3333333333334</ele><time>2026-05-01T10:35:12.733Z</time></trkpt><trkpt lat="38.0655883" lon="14.9254483"><ele>902.0</ele><time>2026-05-01T10:35:14.732Z</time></trkpt><trkpt lat="38.0655217" lon="14.9253667"><ele>903.0000000000001</ele><time>2026-05-01T10:35:16.733Z</time></trkpt><trkpt lat="38.0654667" lon="14.9253217"><ele>904.0</ele><time>2026-05-01T10:35:18.733Z</time></trkpt><trkpt lat="38.0653917" lon="14.9252667"><ele>905.0</ele><time>2026-05-01T10:35:21.733Z</time></trkpt><trkpt lat="38.06533" lon="14.92523"><ele>906.0</ele><time>2026-05-01T10:35:23.733Z</time></trkpt><trkpt lat="38.0652467" lon="14.9251833"><ele>907.0000000000001</ele><time>2026-05-01T10:35:25.733Z</time></trkpt><trkpt lat="38.0651617" lon="14.9251417"><ele>908.0</ele><time>2026-05-01T10:35:27.732Z</time></trkpt><trkpt lat="38.0650767" lon="14.9250933"><ele>907.5000000000001</ele><time>2026-05-01T10:35:29.733Z</time></trkpt><trkpt lat="38.0649867" lon="14.9250467"><ele>907.0</ele><time>2026-05-01T10:35:31.733Z</time></trkpt><trkpt lat="38.0648933" lon="14.9250083"><ele>906.5</ele><time>2026-05-01T10:35:33.733Z</time></trkpt><trkpt lat="38.0648317" lon="14.9249767"><ele>906.0</ele><time>2026-05-01T10:35:35.733Z</time></trkpt><trkpt lat="38.0647633" lon="14.924945"><ele>905.5000000000001</ele><time>2026-05-01T10:35:39.733Z</time></trkpt><trkpt lat="38.0646867" lon="14.92492"><ele>905.0</ele><time>2026-05-01T10:35:47.733Z</time></trkpt><trkpt lat="38.06462" lon="14.9249"><ele>904.3333333333334</ele><time>2026-05-01T10:35:50.733Z</time></trkpt><trkpt lat="38.0645583" lon="14.9248783"><ele>903.6666666666667</ele><time>2026-05-01T10:35:52.733Z</time></trkpt><trkpt lat="38.064475" lon="14.924845"><ele>903.0</ele><time>2026-05-01T10:35:54.733Z</time></trkpt><trkpt lat="38.06439" lon="14.924805"><ele>902.3333333333333</ele><time>2026-05-01T10:35:56.733Z</time></trkpt><trkpt lat="38.0642967" lon="14.9247717"><ele>901.6666666666666</ele><time>2026-05-01T10:35:58.733Z</time></trkpt><trkpt lat="38.0642017" lon="14.92472"><ele>901.0</ele><time>2026-05-01T10:36:00.733Z</time></trkpt><trkpt lat="38.0641" lon="14.9246717"><ele>899.0</ele><time>2026-05-01T10:36:02.733Z</time></trkpt><trkpt lat="38.0639983" lon="14.9246183"><ele>896.9999999999999</ele><time>2026-05-01T10:36:04.733Z</time></trkpt><trkpt lat="38.0639033" lon="14.92458"><ele>894.9999999999999</ele><time>2026-05-01T10:36:06.733Z</time></trkpt><trkpt lat="38.06381" lon="14.924545"><ele>893.0</ele><time>2026-05-01T10:36:08.732Z</time></trkpt><trkpt lat="38.063725" lon="14.92451"><ele>891.0</ele><time>2026-05-01T10:36:10.733Z</time></trkpt><trkpt lat="38.0636517" lon="14.9244633"><ele>891.0000000000001</ele><time>2026-05-01T10:36:12.733Z</time></trkpt><trkpt lat="38.063585" lon="14.92442"><ele>891.0</ele><time>2026-05-01T10:36:14.733Z</time></trkpt><trkpt lat="38.0635167" lon="14.92438"><ele>891.0</ele><time>2026-05-01T10:36:16.733Z</time></trkpt><trkpt lat="38.0634583" lon="14.9243367"><ele>891.0</ele><time>2026-05-01T10:36:18.733Z</time></trkpt><trkpt lat="38.0634033" lon="14.9242967"><ele>891.0</ele><time>2026-05-01T10:36:20.733Z</time></trkpt><trkpt lat="38.0633433" lon="14.92425"><ele>891.0000000000001</ele><time>2026-05-01T10:36:23.733Z</time></trkpt><trkpt lat="38.0632817" lon="14.9241883"><ele>891.0</ele><time>2026-05-01T10:36:27.733Z</time></trkpt><trkpt lat="38.0632033" lon="14.924135"><ele>890.5999999999999</ele><time>2026-05-01T10:36:31.733Z</time></trkpt><trkpt lat="38.06313" lon="14.92408"><ele>890.1999999999999</ele><time>2026-05-01T10:36:33.733Z</time></trkpt><trkpt lat="38.0630367" lon="14.9240533"><ele>889.8000000000001</ele><time>2026-05-01T10:36:35.733Z</time></trkpt><trkpt lat="38.062955" lon="14.9240133"><ele>889.4000000000001</ele><time>2026-05-01T10:36:37.733Z</time></trkpt><trkpt lat="38.0628583" lon="14.9239667"><ele>889.0</ele><time>2026-05-01T10:36:39.733Z</time></trkpt><trkpt lat="38.0627483" lon="14.9239333"><ele>888.9999999999999</ele><time>2026-05-01T10:36:41.733Z</time></trkpt><trkpt lat="38.0626317" lon="14.9238933"><ele>889.0</ele><time>2026-05-01T10:36:43.733Z</time></trkpt><trkpt lat="38.0625683" lon="14.9238817"><ele>889.0</ele><time>2026-05-01T10:36:44.732Z</time></trkpt><trkpt lat="38.0624967" lon="14.9238683"><ele>889.0</ele><time>2026-05-01T10:36:45.733Z</time></trkpt><trkpt lat="38.06242" lon="14.9238567"><ele>888.9999999999999</ele><time>2026-05-01T10:36:46.733Z</time></trkpt><trkpt lat="38.06234" lon="14.9238367"><ele>889.0</ele><time>2026-05-01T10:36:47.733Z</time></trkpt><trkpt lat="38.06225" lon="14.9238117"><ele>889.0</ele><time>2026-05-01T10:36:48.733Z</time></trkpt><trkpt lat="38.0621433" lon="14.9237933"><ele>889.0000000000001</ele><time>2026-05-01T10:36:49.733Z</time></trkpt><trkpt lat="38.0620433" lon="14.9237833"><ele>889.0000000000001</ele><time>2026-05-01T10:36:50.733Z</time></trkpt><trkpt lat="38.061955" lon="14.92377"><ele>889.0</ele><time>2026-05-01T10:36:51.733Z</time></trkpt><trkpt lat="38.0618733" lon="14.9237433"><ele>889.0</ele><time>2026-05-01T10:36:52.733Z</time></trkpt><trkpt lat="38.0617983" lon="14.9237283"><ele>888.9999999999999</ele><time>2026-05-01T10:36:53.733Z</time></trkpt><trkpt lat="38.0617283" lon="14.9237283"><ele>889.0</ele><time>2026-05-01T10:36:54.733Z</time></trkpt><trkpt lat="38.0616517" lon="14.9237467"><ele>889.0</ele><time>2026-05-01T10:36:55.733Z</time></trkpt><trkpt lat="38.0615767" lon="14.9237883"><ele>889.0</ele><time>2026-05-01T10:36:56.733Z</time></trkpt><trkpt lat="38.061505" lon="14.9238717"><ele>888.9999999999999</ele><time>2026-05-01T10:36:57.733Z</time></trkpt><trkpt lat="38.0614517" lon="14.9239717"><ele>889.0</ele><time>2026-05-01T10:36:58.733Z</time></trkpt><trkpt lat="38.0614067" lon="14.9241"><ele>889.4000000000001</ele><time>2026-05-01T10:36:59.733Z</time></trkpt><trkpt lat="38.0613683" lon="14.9242333"><ele>889.8000000000001</ele><time>2026-05-01T10:37:00.733Z</time></trkpt><trkpt lat="38.0613283" lon="14.9243567"><ele>890.1999999999999</ele><time>2026-05-01T10:37:01.733Z</time></trkpt><trkpt lat="38.0612783" lon="14.9244733"><ele>890.5999999999999</ele><time>2026-05-01T10:37:02.733Z</time></trkpt><trkpt lat="38.061235" lon="14.92459"><ele>891.0</ele><time>2026-05-01T10:37:03.733Z</time></trkpt><trkpt lat="38.06119" lon="14.9247033"><ele>891.0</ele><time>2026-05-01T10:37:04.733Z</time></trkpt><trkpt lat="38.061135" lon="14.924805"><ele>890.9999999999999</ele><time>2026-05-01T10:37:05.733Z</time></trkpt><trkpt lat="38.061075" lon="14.9249033"><ele>890.9999999999999</ele><time>2026-05-01T10:37:06.733Z</time></trkpt><trkpt lat="38.0610133" lon="14.9249883"><ele>891.0</ele><time>2026-05-01T10:37:07.732Z</time></trkpt><trkpt lat="38.06094" lon="14.9250617"><ele>891.0</ele><time>2026-05-01T10:37:08.733Z</time></trkpt><trkpt lat="38.0608533" lon="14.9251317"><ele>885.5999999999999</ele><time>2026-05-01T10:37:09.733Z</time></trkpt><trkpt lat="38.0607683" lon="14.9251917"><ele>880.1999999999999</ele><time>2026-05-01T10:37:10.733Z</time></trkpt><trkpt lat="38.06068" lon="14.9252567"><ele>874.8000000000001</ele><time>2026-05-01T10:37:11.733Z</time></trkpt><trkpt lat="38.06059" lon="14.9253133"><ele>869.4000000000001</ele><time>2026-05-01T10:37:12.733Z</time></trkpt><trkpt lat="38.0604883" lon="14.9253483"><ele>864.0</ele><time>2026-05-01T10:37:13.733Z</time></trkpt><trkpt lat="38.0603867" lon="14.925375"><ele>864.0</ele><time>2026-05-01T10:37:14.733Z</time></trkpt><trkpt lat="38.0602817" lon="14.92538"><ele>864.0000000000001</ele><time>2026-05-01T10:37:15.733Z</time></trkpt><trkpt lat="38.0601783" lon="14.925375"><ele>864.0000000000001</ele><time>2026-05-01T10:37:16.733Z</time></trkpt><trkpt lat="38.06007" lon="14.925375"><ele>864.0</ele><time>2026-05-01T10:37:17.733Z</time></trkpt><trkpt lat="38.0599667" lon="14.925375"><ele>864.0</ele><time>2026-05-01T10:37:18.733Z</time></trkpt><trkpt lat="38.0598567" lon="14.925395"><ele>865.2</ele><time>2026-05-01T10:37:19.733Z</time></trkpt><trkpt lat="38.0597517" lon="14.9254333"><ele>866.4000000000001</ele><time>2026-05-01T10:37:20.733Z</time></trkpt><trkpt lat="38.0596517" lon="14.9254783"><ele>867.6</ele><time>2026-05-01T10:37:21.733Z</time></trkpt><trkpt lat="38.0595483" lon="14.9255267"><ele>868.8</ele><time>2026-05-01T10:37:22.733Z</time></trkpt><trkpt lat="38.059445" lon="14.9255717"><ele>870.0</ele><time>2026-05-01T10:37:23.732Z</time></trkpt><trkpt lat="38.0593517" lon="14.92563"><ele>870.0</ele><time>2026-05-01T10:37:24.733Z</time></trkpt><trkpt lat="38.0592533" lon="14.92568"><ele>870.0</ele><time>2026-05-01T10:37:25.733Z</time></trkpt><trkpt lat="38.0591567" lon="14.925745"><ele>870.0</ele><time>2026-05-01T10:37:26.733Z</time></trkpt><trkpt lat="38.0590633" lon="14.9257917"><ele>870.0</ele><time>2026-05-01T10:37:27.733Z</time></trkpt><trkpt lat="38.0589633" lon="14.9258217"><ele>870.0</ele><time>2026-05-01T10:37:28.733Z</time></trkpt><trkpt lat="38.058865" lon="14.9258333"><ele>869.5</ele><time>2026-05-01T10:37:29.733Z</time></trkpt><trkpt lat="38.0587733" lon="14.925825"><ele>869.0</ele><time>2026-05-01T10:37:30.733Z</time></trkpt><trkpt lat="38.0586817" lon="14.9258"><ele>868.5</ele><time>2026-05-01T10:37:31.733Z</time></trkpt><trkpt lat="38.058605" lon="14.9257733"><ele>868.0</ele><time>2026-05-01T10:37:32.733Z</time></trkpt><trkpt lat="38.0585317" lon="14.9257583"><ele>867.5</ele><time>2026-05-01T10:37:33.733Z</time></trkpt><trkpt lat="38.05845" lon="14.9257417"><ele>867.0</ele><time>2026-05-01T10:37:34.733Z</time></trkpt><trkpt lat="38.058375" lon="14.9257167"><ele>867.0</ele><time>2026-05-01T10:37:35.733Z</time></trkpt><trkpt lat="38.058305" lon="14.9256983"><ele>867.0</ele><time>2026-05-01T10:37:36.733Z</time></trkpt><trkpt lat="38.05824" lon="14.9256817"><ele>867.0</ele><time>2026-05-01T10:37:37.733Z</time></trkpt><trkpt lat="38.0581683" lon="14.925665"><ele>867.0</ele><time>2026-05-01T10:37:38.733Z</time></trkpt><trkpt lat="38.0581" lon="14.9256533"><ele>867.0</ele><time>2026-05-01T10:37:39.733Z</time></trkpt><trkpt lat="38.0579933" lon="14.9256117"><ele>867.0</ele><time>2026-05-01T10:37:41.733Z</time></trkpt><trkpt lat="38.0578817" lon="14.9255767"><ele>864.0</ele><time>2026-05-01T10:37:43.733Z</time></trkpt><trkpt lat="38.057815" lon="14.9255517"><ele>861.0</ele><time>2026-05-01T10:37:44.733Z</time></trkpt><trkpt lat="38.0577467" lon="14.9255083"><ele>858.0</ele><time>2026-05-01T10:37:45.733Z</time></trkpt><trkpt lat="38.0576817" lon="14.9254433"><ele>855.0</ele><time>2026-05-01T10:37:46.733Z</time></trkpt><trkpt lat="38.057625" lon="14.9253633"><ele>852.0</ele><time>2026-05-01T10:37:47.733Z</time></trkpt><trkpt lat="38.0575717" lon="14.92527"><ele>849.0</ele><time>2026-05-01T10:37:48.733Z</time></trkpt><trkpt lat="38.05753" lon="14.9251617"><ele>845.0</ele><time>2026-05-01T10:37:49.733Z</time></trkpt><trkpt lat="38.057485" lon="14.9250333"><ele>841.0</ele><time>2026-05-01T10:37:50.733Z</time></trkpt><trkpt lat="38.057445" lon="14.9248767"><ele>837.0</ele><time>2026-05-01T10:37:51.733Z</time></trkpt><trkpt lat="38.057395" lon="14.924705"><ele>833.0</ele><time>2026-05-01T10:37:52.733Z</time></trkpt><trkpt lat="38.0573367" lon="14.9245567"><ele>833.0</ele><time>2026-05-01T10:37:53.733Z</time></trkpt><trkpt lat="38.0572833" lon="14.9244"><ele>833.0</ele><time>2026-05-01T10:37:54.733Z</time></trkpt><trkpt lat="38.0572367" lon="14.9242733"><ele>833.0</ele><time>2026-05-01T10:37:55.733Z</time></trkpt><trkpt lat="38.0571783" lon="14.9241533"><ele>833.0</ele><time>2026-05-01T10:37:56.733Z</time></trkpt><trkpt lat="38.05709" lon="14.9240533"><ele>838.75</ele><time>2026-05-01T10:37:57.733Z</time></trkpt><trkpt lat="38.056995" lon="14.9239683"><ele>844.5</ele><time>2026-05-01T10:37:58.733Z</time></trkpt><trkpt lat="38.056885" lon="14.92388"><ele>850.25</ele><time>2026-05-01T10:37:59.733Z</time></trkpt><trkpt lat="38.0567733" lon="14.9238083"><ele>856.0</ele><time>2026-05-01T10:38:00.733Z</time></trkpt><trkpt lat="38.0566567" lon="14.9237483"><ele>850.5</ele><time>2026-05-01T10:38:01.733Z</time></trkpt><trkpt lat="38.056545" lon="14.9237083"><ele>845.0</ele><time>2026-05-01T10:38:02.733Z</time></trkpt><trkpt lat="38.0564333" lon="14.92368"><ele>839.5</ele><time>2026-05-01T10:38:03.733Z</time></trkpt><trkpt lat="38.056325" lon="14.923655"><ele>834.0</ele><time>2026-05-01T10:38:04.733Z</time></trkpt><trkpt lat="38.05621" lon="14.923655"><ele>834.0</ele><time>2026-05-01T10:38:05.733Z</time></trkpt><trkpt lat="38.056105" lon="14.923645"><ele>834.0</ele><time>2026-05-01T10:38:06.733Z</time></trkpt><trkpt lat="38.0560033" lon="14.923635"><ele>834.0</ele><time>2026-05-01T10:38:07.733Z</time></trkpt><trkpt lat="38.0559067" lon="14.9236133"><ele>834.0</ele><time>2026-05-01T10:38:08.733Z</time></trkpt><trkpt lat="38.055805" lon="14.923575"><ele>834.0</ele><time>2026-05-01T10:38:09.733Z</time></trkpt><trkpt lat="38.055705" lon="14.923525"><ele>836.2</ele><time>2026-05-01T10:38:10.733Z</time></trkpt><trkpt lat="38.0556083" lon="14.92346"><ele>838.4000000000001</ele><time>2026-05-01T10:38:11.733Z</time></trkpt><trkpt lat="38.0555117" lon="14.9233833"><ele>840.6</ele><time>2026-05-01T10:38:12.733Z</time></trkpt><trkpt lat="38.0554133" lon="14.9233083"><ele>842.8</ele><time>2026-05-01T10:38:13.733Z</time></trkpt><trkpt lat="38.0553233" lon="14.9232317"><ele>845.0</ele><time>2026-05-01T10:38:14.733Z</time></trkpt><trkpt lat="38.0552333" lon="14.9231517"><ele>845.0</ele><time>2026-05-01T10:38:15.733Z</time></trkpt><trkpt lat="38.055145" lon="14.9230717"><ele>845.0</ele><time>2026-05-01T10:38:16.733Z</time></trkpt><trkpt lat="38.0550583" lon="14.9229833"><ele>845.0</ele><time>2026-05-01T10:38:17.733Z</time></trkpt><trkpt lat="38.0549833" lon="14.9229"><ele>845.0</ele><time>2026-05-01T10:38:18.733Z</time></trkpt><trkpt lat="38.05492" lon="14.92281"><ele>845.0</ele><time>2026-05-01T10:38:19.733Z</time></trkpt><trkpt lat="38.054865" lon="14.9227083"><ele>845.0000000000001</ele><time>2026-05-01T10:38:20.733Z</time></trkpt><trkpt lat="38.0548217" lon="14.9226083"><ele>845.0</ele><time>2026-05-01T10:38:21.732Z</time></trkpt><trkpt lat="38.05478" lon="14.92251"><ele>845.0</ele><time>2026-05-01T10:38:22.733Z</time></trkpt><trkpt lat="38.0547417" lon="14.9224183"><ele>845.0</ele><time>2026-05-01T10:38:23.733Z</time></trkpt><trkpt lat="38.0546983" lon="14.9223333"><ele>845.0000000000001</ele><time>2026-05-01T10:38:24.733Z</time></trkpt><trkpt lat="38.0546533" lon="14.9222567"><ele>845.0</ele><time>2026-05-01T10:38:25.733Z</time></trkpt><trkpt lat="38.0545933" lon="14.9221967"><ele>845.0000000000001</ele><time>2026-05-01T10:38:26.733Z</time></trkpt><trkpt lat="38.05452" lon="14.9221483"><ele>845.0</ele><time>2026-05-01T10:38:27.733Z</time></trkpt><trkpt lat="38.0544367" lon="14.9221117"><ele>845.0</ele><time>2026-05-01T10:38:28.733Z</time></trkpt><trkpt lat="38.0543483" lon="14.9221033"><ele>845.0</ele><time>2026-05-01T10:38:29.733Z</time></trkpt><trkpt lat="38.0542567" lon="14.9221183"><ele>845.0000000000001</ele><time>2026-05-01T10:38:30.733Z</time></trkpt><trkpt lat="38.05417" lon="14.9221183"><ele>845.0</ele><time>2026-05-01T10:38:31.733Z</time></trkpt><trkpt lat="38.05409" lon="14.92211"><ele>843.6</ele><time>2026-05-01T10:38:32.733Z</time></trkpt><trkpt lat="38.0540267" lon="14.9220917"><ele>842.2</ele><time>2026-05-01T10:38:33.733Z</time></trkpt><trkpt lat="38.0539067" lon="14.92202"><ele>840.8</ele><time>2026-05-01T10:38:35.733Z</time></trkpt><trkpt lat="38.053835" lon="14.9219683"><ele>839.4</ele><time>2026-05-01T10:38:36.733Z</time></trkpt><trkpt lat="38.0537617" lon="14.9219017"><ele>838.0</ele><time>2026-05-01T10:38:37.733Z</time></trkpt><trkpt lat="38.0536667" lon="14.92182"><ele>841.2</ele><time>2026-05-01T10:38:38.733Z</time></trkpt><trkpt lat="38.053565" lon="14.9217267"><ele>844.4</ele><time>2026-05-01T10:38:39.733Z</time></trkpt><trkpt lat="38.053465" lon="14.92165"><ele>847.6000000000001</ele><time>2026-05-01T10:38:40.733Z</time></trkpt><trkpt lat="38.05338" lon="14.921595"><ele>850.8000000000001</ele><time>2026-05-01T10:38:41.732Z</time></trkpt><trkpt lat="38.0533017" lon="14.92156"><ele>854.0</ele><time>2026-05-01T10:38:42.733Z</time></trkpt><trkpt lat="38.0532367" lon="14.92153"><ele>856.6666666666667</ele><time>2026-05-01T10:38:43.733Z</time></trkpt><trkpt lat="38.053145" lon="14.9214933"><ele>859.3333333333334</ele><time>2026-05-01T10:38:45.733Z</time></trkpt><trkpt lat="38.0530367" lon="14.921415"><ele>862.0</ele><time>2026-05-01T10:38:47.733Z</time></trkpt><trkpt lat="38.0529867" lon="14.92136"><ele>864.6666666666667</ele><time>2026-05-01T10:38:48.733Z</time></trkpt><trkpt lat="38.0529367" lon="14.9213017"><ele>867.3333333333334</ele><time>2026-05-01T10:38:49.733Z</time></trkpt><trkpt lat="38.0528883" lon="14.9212417"><ele>870.0</ele><time>2026-05-01T10:38:50.733Z</time></trkpt><trkpt lat="38.05284" lon="14.9211833"><ele>870.0</ele><time>2026-05-01T10:38:51.733Z</time></trkpt><trkpt lat="38.0527783" lon="14.9211267"><ele>870.0</ele><time>2026-05-01T10:38:52.733Z</time></trkpt><trkpt lat="38.052715" lon="14.921065"><ele>870.0</ele><time>2026-05-01T10:38:53.733Z</time></trkpt><trkpt lat="38.0526367" lon="14.9209867"><ele>870.0</ele><time>2026-05-01T10:38:55.732Z</time></trkpt><trkpt lat="38.0525267" lon="14.920965"><ele>870.0</ele><time>2026-05-01T10:38:57.733Z</time></trkpt><trkpt lat="38.0524617" lon="14.9209617"><ele>870.0</ele><time>2026-05-01T10:38:59.733Z</time></trkpt><trkpt lat="38.052395" lon="14.9208867"><ele>875.8</ele><time>2026-05-01T10:39:12.733Z</time></trkpt><trkpt lat="38.0523" lon="14.9208483"><ele>881.6</ele><time>2026-05-01T10:39:14.733Z</time></trkpt><trkpt lat="38.0521883" lon="14.9208333"><ele>887.4000000000001</ele><time>2026-05-01T10:39:16.733Z</time></trkpt><trkpt lat="38.0520883" lon="14.9208333"><ele>893.2</ele><time>2026-05-01T10:39:18.732Z</time></trkpt><trkpt lat="38.0520117" lon="14.9208833"><ele>899.0</ele><time>2026-05-01T10:39:20.733Z</time></trkpt><trkpt lat="38.0519307" lon="14.9209104"><ele>899.0000000000001</ele><time>2026-05-01T10:39:22.733Z</time></trkpt><trkpt lat="38.0518637" lon="14.9208637"><ele>899.0</ele><time>2026-05-01T10:39:24.733Z</time></trkpt><trkpt lat="38.0517794" lon="14.9208547"><ele>899.0</ele><time>2026-05-01T10:39:27.733Z</time></trkpt><trkpt lat="38.0516984" lon="14.9208763"><ele>899.0</ele><time>2026-05-01T10:39:30.732Z</time></trkpt><trkpt lat="38.051623" lon="14.9209046"><ele>899.0000000000001</ele><time>2026-05-01T10:39:32.733Z</time></trkpt><trkpt lat="38.0515555" lon="14.9209559"><ele>899.0</ele><time>2026-05-01T10:39:34.733Z</time></trkpt><trkpt lat="38.051501" lon="14.9210532"><ele>900.8000000000001</ele><time>2026-05-01T10:41:11.734Z</time></trkpt><trkpt lat="38.0514569" lon="14.9211439"><ele>902.6000000000001</ele><time>2026-05-01T10:41:13.734Z</time></trkpt><trkpt lat="38.0513749" lon="14.9212731"><ele>904.4</ele><time>2026-05-01T10:41:15.734Z</time></trkpt><trkpt lat="38.0513163" lon="14.9213618"><ele>906.2</ele><time>2026-05-01T10:41:16.734Z</time></trkpt><trkpt lat="38.0512616" lon="14.9214612"><ele>908.0</ele><time>2026-05-01T10:41:17.734Z</time></trkpt><trkpt lat="38.0512084" lon="14.9215579"><ele>908.0</ele><time>2026-05-01T10:41:18.734Z</time></trkpt><trkpt lat="38.0511537" lon="14.9216412"><ele>908.0000000000001</ele><time>2026-05-01T10:41:19.734Z</time></trkpt><trkpt lat="38.0511037" lon="14.9217151"><ele>908.0</ele><time>2026-05-01T10:41:20.734Z</time></trkpt><trkpt lat="38.0510631" lon="14.9217877"><ele>908.0</ele><time>2026-05-01T10:41:21.734Z</time></trkpt><trkpt lat="38.0510323" lon="14.9218608"><ele>908.0000000000001</ele><time>2026-05-01T10:41:22.734Z</time></trkpt><trkpt lat="38.0510124" lon="14.9219431"><ele>908.0</ele><time>2026-05-01T10:41:23.734Z</time></trkpt><trkpt lat="38.0510018" lon="14.9220233"><ele>908.0</ele><time>2026-05-01T10:41:24.734Z</time></trkpt><trkpt lat="38.0510029" lon="14.92211"><ele>908.6666666666667</ele><time>2026-05-01T10:41:25.734Z</time></trkpt><trkpt lat="38.0510014" lon="14.9221964"><ele>909.3333333333334</ele><time>2026-05-01T10:41:26.733Z</time></trkpt><trkpt lat="38.0509768" lon="14.922335"><ele>910.0</ele><time>2026-05-01T10:41:28.734Z</time></trkpt><trkpt lat="38.0509357" lon="14.9224341"><ele>910.6666666666667</ele><time>2026-05-01T10:41:30.734Z</time></trkpt><trkpt lat="38.0508771" lon="14.9225421"><ele>911.3333333333334</ele><time>2026-05-01T10:41:32.734Z</time></trkpt><trkpt lat="38.0508387" lon="14.9226056"><ele>912.0</ele><time>2026-05-01T10:41:33.733Z</time></trkpt><trkpt lat="38.0508017" lon="14.9226759"><ele>909.8</ele><time>2026-05-01T10:41:34.734Z</time></trkpt><trkpt lat="38.0507614" lon="14.9227581"><ele>907.6</ele><time>2026-05-01T10:41:35.733Z</time></trkpt><trkpt lat="38.050711" lon="14.9228707"><ele>905.3999999999999</ele><time>2026-05-01T10:41:36.734Z</time></trkpt><trkpt lat="38.0506708" lon="14.9230006"><ele>903.1999999999999</ele><time>2026-05-01T10:41:37.734Z</time></trkpt><trkpt lat="38.0506348" lon="14.9231257"><ele>901.0</ele><time>2026-05-01T10:41:38.734Z</time></trkpt><trkpt lat="38.0506013" lon="14.9232417"><ele>901.0</ele><time>2026-05-01T10:41:39.734Z</time></trkpt><trkpt lat="38.0505701" lon="14.92336"><ele>900.9999999999999</ele><time>2026-05-01T10:41:40.733Z</time></trkpt><trkpt lat="38.0505387" lon="14.9234775"><ele>900.9999999999999</ele><time>2026-05-01T10:41:41.734Z</time></trkpt><trkpt lat="38.050518" lon="14.923589"><ele>901.0</ele><time>2026-05-01T10:41:42.734Z</time></trkpt><trkpt lat="38.050498" lon="14.9237042"><ele>901.0</ele><time>2026-05-01T10:41:43.734Z</time></trkpt><trkpt lat="38.0504801" lon="14.9238111"><ele>905.1666666666666</ele><time>2026-05-01T10:41:44.734Z</time></trkpt><trkpt lat="38.0504561" lon="14.9239152"><ele>909.3333333333333</ele><time>2026-05-01T10:41:45.734Z</time></trkpt><trkpt lat="38.0504272" lon="14.9240146"><ele>913.5</ele><time>2026-05-01T10:41:46.734Z</time></trkpt><trkpt lat="38.0503879" lon="14.9241126"><ele>917.6666666666667</ele><time>2026-05-01T10:41:47.734Z</time></trkpt><trkpt lat="38.0503492" lon="14.9241954"><ele>921.8333333333334</ele><time>2026-05-01T10:41:48.734Z</time></trkpt><trkpt lat="38.0503105" lon="14.9242647"><ele>926.0</ele><time>2026-05-01T10:41:49.734Z</time></trkpt><trkpt lat="38.0502305" lon="14.924375"><ele>928.4</ele><time>2026-05-01T10:41:51.734Z</time></trkpt><trkpt lat="38.0501281" lon="14.9244136"><ele>930.8</ele><time>2026-05-01T10:41:53.734Z</time></trkpt><trkpt lat="38.0500198" lon="14.9244275"><ele>933.1999999999999</ele><time>2026-05-01T10:41:55.734Z</time></trkpt><trkpt lat="38.0499296" lon="14.9244765"><ele>935.5999999999999</ele><time>2026-05-01T10:41:57.734Z</time></trkpt><trkpt lat="38.049842" lon="14.924588"><ele>938.0</ele><time>2026-05-01T10:41:59.734Z</time></trkpt><trkpt lat="38.0497518" lon="14.9246508"><ele>941.1666666666667</ele><time>2026-05-01T10:42:01.734Z</time></trkpt><trkpt lat="38.0496661" lon="14.9246012"><ele>944.3333333333334</ele><time>2026-05-01T10:42:03.734Z</time></trkpt><trkpt lat="38.0495907" lon="14.9245232"><ele>947.5</ele><time>2026-05-01T10:42:05.734Z</time></trkpt><trkpt lat="38.0495186" lon="14.9245208"><ele>950.6666666666667</ele><time>2026-05-01T10:42:07.734Z</time></trkpt><trkpt lat="38.0494857" lon="14.9245962"><ele>953.8333333333334</ele><time>2026-05-01T10:42:09.734Z</time></trkpt><trkpt lat="38.0494842" lon="14.9246924"><ele>957.0</ele><time>2026-05-01T10:43:27.734Z</time></trkpt><trkpt lat="38.0494495" lon="14.9248036"><ele>957.0</ele><time>2026-05-01T10:43:29.734Z</time></trkpt><trkpt lat="38.0494156" lon="14.9249484"><ele>957.0</ele><time>2026-05-01T10:43:31.734Z</time></trkpt><trkpt lat="38.0494053" lon="14.925038"><ele>957.0</ele><time>2026-05-01T10:43:32.734Z</time></trkpt><trkpt lat="38.0494011" lon="14.9251354"><ele>957.0</ele><time>2026-05-01T10:43:33.734Z</time></trkpt><trkpt lat="38.0493935" lon="14.925228"><ele>957.0</ele><time>2026-05-01T10:43:34.734Z</time></trkpt><trkpt lat="38.0493592" lon="14.9253605"><ele>958.3333333333334</ele><time>2026-05-01T10:43:36.734Z</time></trkpt><trkpt lat="38.0493248" lon="14.9254281"><ele>959.6666666666667</ele><time>2026-05-01T10:43:37.734Z</time></trkpt><trkpt lat="38.0492871" lon="14.9254967"><ele>961.0</ele><time>2026-05-01T10:43:38.734Z</time></trkpt><trkpt lat="38.0492117" lon="14.9256058"><ele>962.3333333333334</ele><time>2026-05-01T10:43:40.734Z</time></trkpt><trkpt lat="38.0491326" lon="14.9256878"><ele>963.6666666666667</ele><time>2026-05-01T10:43:42.734Z</time></trkpt><trkpt lat="38.0490773" lon="14.9257869"><ele>965.0</ele><time>2026-05-01T10:43:44.734Z</time></trkpt><trkpt lat="38.0490256" lon="14.9258978"><ele>969.8333333333334</ele><time>2026-05-01T10:43:46.734Z</time></trkpt><trkpt lat="38.048942" lon="14.9259606"><ele>974.6666666666667</ele><time>2026-05-01T10:43:48.734Z</time></trkpt><trkpt lat="38.0488634" lon="14.9259934"><ele>979.5</ele><time>2026-05-01T10:43:50.734Z</time></trkpt><trkpt lat="38.0487841" lon="14.9260334"><ele>984.3333333333333</ele><time>2026-05-01T10:43:52.734Z</time></trkpt><trkpt lat="38.0487094" lon="14.9260566"><ele>989.1666666666666</ele><time>2026-05-01T10:43:54.734Z</time></trkpt><trkpt lat="38.0486343" lon="14.9261338"><ele>994.0</ele><time>2026-05-01T10:44:55.734Z</time></trkpt><trkpt lat="38.048569" lon="14.9262054"><ele>994.0</ele><time>2026-05-01T10:44:57.734Z</time></trkpt><trkpt lat="38.048513" lon="14.9262503"><ele>994.0</ele><time>2026-05-01T10:44:59.734Z</time></trkpt><trkpt lat="38.0484365" lon="14.9262832"><ele>994.0</ele><time>2026-05-01T10:45:01.734Z</time></trkpt><trkpt lat="38.0483758" lon="14.9263456"><ele>994.0</ele><time>2026-05-01T10:45:03.734Z</time></trkpt><trkpt lat="38.0483489" lon="14.9264184"><ele>994.0</ele><time>2026-05-01T10:45:05.734Z</time></trkpt><trkpt lat="38.0483067" lon="14.926492"><ele>994.0</ele><time>2026-05-01T10:45:09.734Z</time></trkpt><trkpt lat="38.0483477" lon="14.9264163"><ele>994.0</ele><time>2026-05-01T10:47:24.735Z</time></trkpt><trkpt lat="38.0483954" lon="14.9263366"><ele>993.9999999999999</ele><time>2026-05-01T10:48:21.735Z</time></trkpt><trkpt lat="38.0483534" lon="14.9263967"><ele>994.0</ele><time>2026-05-01T10:50:11.735Z</time></trkpt><trkpt lat="38.0483139" lon="14.9264684"><ele>994.0</ele><time>2026-05-01T10:50:14.735Z</time></trkpt><trkpt lat="38.0483633" lon="14.92637"><ele>994.0</ele><time>2026-05-01T11:00:38.737Z</time></trkpt><trkpt lat="38.04841" lon="14.9262867"><ele>993.9999999999999</ele><time>2026-05-01T11:00:41.737Z</time></trkpt><trkpt lat="38.048495" lon="14.9262533"><ele>994.0</ele><time>2026-05-01T11:00:45.737Z</time></trkpt><trkpt lat="38.0484083" lon="14.9263033"><ele>993.9999999999999</ele><time>2026-05-01T11:01:43.737Z</time></trkpt><trkpt lat="38.0483533" lon="14.9263933"><ele>994.0</ele><time>2026-05-01T11:01:45.736Z</time></trkpt><trkpt lat="38.0483317" lon="14.9264783"><ele>994.0</ele><time>2026-05-01T11:01:47.737Z</time></trkpt><trkpt lat="38.0483517" lon="14.9263833"><ele>994.0</ele><time>2026-05-01T11:02:20.738Z</time></trkpt><trkpt lat="38.0483917" lon="14.92631"><ele>993.9999999999999</ele><time>2026-05-01T11:02:23.738Z</time></trkpt><trkpt lat="38.0484633" lon="14.926265"><ele>994.0</ele><time>2026-05-01T11:02:27.738Z</time></trkpt><trkpt lat="38.04853" lon="14.9262383"><ele>993.9999999999999</ele><time>2026-05-01T11:02:58.738Z</time></trkpt><trkpt lat="38.0484367" lon="14.926285"><ele>994.0</ele><time>2026-05-01T11:03:01.738Z</time></trkpt><trkpt lat="38.0483774" lon="14.9263602"><ele>994.0</ele><time>2026-05-01T11:03:03.738Z</time></trkpt><trkpt lat="38.0483289" lon="14.9264499"><ele>994.0</ele><time>2026-05-01T11:03:06.738Z</time></trkpt><trkpt lat="38.0483021" lon="14.9265347"><ele>993.9999999999999</ele><time>2026-05-01T11:03:09.738Z</time></trkpt><trkpt lat="38.0482973" lon="14.9266402"><ele>994.0</ele><time>2026-05-01T11:03:13.738Z</time></trkpt><trkpt lat="38.0483134" lon="14.9267292"><ele>994.0</ele><time>2026-05-01T11:03:27.738Z</time></trkpt><trkpt lat="38.0483478" lon="14.9268182"><ele>994.0</ele><time>2026-05-01T11:03:29.738Z</time></trkpt><trkpt lat="38.04831" lon="14.926753"><ele>994.0</ele><time>2026-05-01T11:03:48.738Z</time></trkpt><trkpt lat="38.0482888" lon="14.9266603"><ele>994.0</ele><time>2026-05-01T11:04:01.738Z</time></trkpt><trkpt lat="38.0483118" lon="14.9265496"><ele>994.0</ele><time>2026-05-01T11:05:12.738Z</time></trkpt><trkpt lat="38.0483084" lon="14.9266327"><ele>994.0</ele><time>2026-05-01T11:06:17.738Z</time></trkpt><trkpt lat="38.0483243" lon="14.9267264"><ele>994.0</ele><time>2026-05-01T11:06:32.738Z</time></trkpt><trkpt lat="38.048333" lon="14.9268525"><ele>999.2</ele><time>2026-05-01T11:07:13.739Z</time></trkpt><trkpt lat="38.048255" lon="14.9269512"><ele>1004.4000000000001</ele><time>2026-05-01T11:07:15.739Z</time></trkpt><trkpt lat="38.0481971" lon="14.9270038"><ele>1009.6</ele><time>2026-05-01T11:07:16.739Z</time></trkpt><trkpt lat="38.0481499" lon="14.9270605"><ele>1014.8</ele><time>2026-05-01T11:07:17.739Z</time></trkpt><trkpt lat="38.0480777" lon="14.9271857"><ele>1020.0</ele><time>2026-05-01T11:07:19.738Z</time></trkpt><trkpt lat="38.0480098" lon="14.9272888"><ele>1020.0</ele><time>2026-05-01T11:07:21.738Z</time></trkpt><trkpt lat="38.0479439" lon="14.9273866"><ele>1020.0</ele><time>2026-05-01T11:07:23.739Z</time></trkpt><trkpt lat="38.0478769" lon="14.9274756"><ele>1020.0</ele><time>2026-05-01T11:07:25.739Z</time></trkpt><trkpt lat="38.0478048" lon="14.9275387"><ele>1020.0</ele><time>2026-05-01T11:07:27.739Z</time></trkpt><trkpt lat="38.0477221" lon="14.9275804"><ele>1020.0</ele><time>2026-05-01T11:07:30.738Z</time></trkpt><trkpt lat="38.0476463" lon="14.9276305"><ele>1020.0</ele><time>2026-05-01T11:07:52.739Z</time></trkpt><trkpt lat="38.0475871" lon="14.9277312"><ele>1020.0</ele><time>2026-05-01T11:07:54.739Z</time></trkpt><trkpt lat="38.0475384" lon="14.927851"><ele>1020.0</ele><time>2026-05-01T11:07:56.739Z</time></trkpt><trkpt lat="38.0474815" lon="14.927932"><ele>1020.0</ele><time>2026-05-01T11:07:58.739Z</time></trkpt><trkpt lat="38.0474391" lon="14.928003"><ele>1020.0</ele><time>2026-05-01T11:08:00.739Z</time></trkpt><trkpt lat="38.0474047" lon="14.9280707"><ele>1020.0</ele><time>2026-05-01T11:08:02.739Z</time></trkpt><trkpt lat="38.0473677" lon="14.928144"><ele>1022.0</ele><time>2026-05-01T11:08:04.739Z</time></trkpt><trkpt lat="38.0473294" lon="14.9282225"><ele>1024.0</ele><time>2026-05-01T11:08:06.738Z</time></trkpt><trkpt lat="38.0472839" lon="14.9282929"><ele>1026.0</ele><time>2026-05-01T11:08:08.739Z</time></trkpt><trkpt lat="38.0472476" lon="14.9283634"><ele>1028.0</ele><time>2026-05-01T11:08:10.738Z</time></trkpt><trkpt lat="38.0471492" lon="14.9284586"><ele>1030.0</ele><time>2026-05-01T11:08:12.739Z</time></trkpt><trkpt lat="38.0470686" lon="14.9285215"><ele>1032.0</ele><time>2026-05-01T11:08:13.739Z</time></trkpt><trkpt lat="38.0469809" lon="14.9285753"><ele>1034.0</ele><time>2026-05-01T11:08:14.739Z</time></trkpt><trkpt lat="38.0469069" lon="14.9286446"><ele>1036.0</ele><time>2026-05-01T11:08:15.739Z</time></trkpt><trkpt lat="38.0468564" lon="14.9287283"><ele>1038.0</ele><time>2026-05-01T11:08:16.739Z</time></trkpt><trkpt lat="38.0468226" lon="14.928827"><ele>1040.0</ele><time>2026-05-01T11:08:17.739Z</time></trkpt><trkpt lat="38.046786" lon="14.9289312"><ele>1042.0</ele><time>2026-05-01T11:08:18.739Z</time></trkpt><trkpt lat="38.0467483" lon="14.9290259"><ele>1044.0</ele><time>2026-05-01T11:08:19.739Z</time></trkpt><trkpt lat="38.0467065" lon="14.9291015"><ele>1044.0</ele><time>2026-05-01T11:08:20.739Z</time></trkpt><trkpt lat="38.0466374" lon="14.9292005"><ele>1044.0</ele><time>2026-05-01T11:08:22.738Z</time></trkpt><trkpt lat="38.0465966" lon="14.9292715"><ele>1044.0</ele><time>2026-05-01T11:08:25.739Z</time></trkpt><trkpt lat="38.0466262" lon="14.9293655"><ele>1044.0</ele><time>2026-05-01T11:08:28.739Z</time></trkpt><trkpt lat="38.0465719" lon="14.9294491"><ele>1044.0</ele><time>2026-05-01T11:08:31.739Z</time></trkpt><trkpt lat="38.0464805" lon="14.9294497"><ele>1044.0</ele><time>2026-05-01T11:08:34.739Z</time></trkpt><trkpt lat="38.0464066" lon="14.9294753"><ele>1041.6666666666667</ele><time>2026-05-01T11:08:37.739Z</time></trkpt><trkpt lat="38.0463604" lon="14.9295541"><ele>1039.3333333333333</ele><time>2026-05-01T11:08:40.738Z</time></trkpt><trkpt lat="38.0463251" lon="14.9296594"><ele>1037.0</ele><time>2026-05-01T11:08:43.739Z</time></trkpt><trkpt lat="38.0463284" lon="14.9297745"><ele>1034.6666666666665</ele><time>2026-05-01T11:08:46.739Z</time></trkpt><trkpt lat="38.0463298" lon="14.9298813"><ele>1032.3333333333333</ele><time>2026-05-01T11:08:49.739Z</time></trkpt><trkpt lat="38.0462556" lon="14.9299231"><ele>1030.0</ele><time>2026-05-01T11:08:53.739Z</time></trkpt><trkpt lat="38.0461962" lon="14.9298851"><ele>1030.0</ele><time>2026-05-01T11:08:55.738Z</time></trkpt><trkpt lat="38.0461424" lon="14.9298307"><ele>1030.0</ele><time>2026-05-01T11:08:57.739Z</time></trkpt><trkpt lat="38.0460647" lon="14.9297601"><ele>1030.0</ele><time>2026-05-01T11:09:00.739Z</time></trkpt><trkpt lat="38.0460014" lon="14.9297107"><ele>1030.0</ele><time>2026-05-01T11:09:03.739Z</time></trkpt><trkpt lat="38.0459513" lon="14.9297865"><ele>1030.0</ele><time>2026-05-01T11:09:06.739Z</time></trkpt><trkpt lat="38.0459572" lon="14.9298962"><ele>1030.0</ele><time>2026-05-01T11:09:08.739Z</time></trkpt><trkpt lat="38.0459827" lon="14.9299997"><ele>1027.6666666666665</ele><time>2026-05-01T11:09:10.739Z</time></trkpt><trkpt lat="38.0459562" lon="14.9300875"><ele>1025.3333333333333</ele><time>2026-05-01T11:09:12.739Z</time></trkpt><trkpt lat="38.045882" lon="14.9300787"><ele>1023.0</ele><time>2026-05-01T11:09:14.739Z</time></trkpt><trkpt lat="38.0457937" lon="14.9300226"><ele>1020.6666666666667</ele><time>2026-05-01T11:09:16.739Z</time></trkpt><trkpt lat="38.045712" lon="14.9299932"><ele>1018.3333333333334</ele><time>2026-05-01T11:09:18.739Z</time></trkpt><trkpt lat="38.0456161" lon="14.929993"><ele>1016.0</ele><time>2026-05-01T11:09:20.739Z</time></trkpt><trkpt lat="38.0455224" lon="14.9300225"><ele>1016.4</ele><time>2026-05-01T11:09:22.739Z</time></trkpt><trkpt lat="38.045409" lon="14.9300701"><ele>1016.8</ele><time>2026-05-01T11:09:24.739Z</time></trkpt><trkpt lat="38.0453465" lon="14.9300942"><ele>1017.1999999999999</ele><time>2026-05-01T11:09:25.738Z</time></trkpt><trkpt lat="38.0452336" lon="14.9301312"><ele>1017.5999999999999</ele><time>2026-05-01T11:09:27.739Z</time></trkpt><trkpt lat="38.0451226" lon="14.9301847"><ele>1018.0</ele><time>2026-05-01T11:09:29.739Z</time></trkpt><trkpt lat="38.0450234" lon="14.9302319"><ele>1019.0</ele><time>2026-05-01T11:09:31.739Z</time></trkpt><trkpt lat="38.0449244" lon="14.9302543"><ele>1020.0</ele><time>2026-05-01T11:09:33.739Z</time></trkpt><trkpt lat="38.044842" lon="14.930273"><ele>1021.0</ele><time>2026-05-01T11:09:35.739Z</time></trkpt><trkpt lat="38.0447579" lon="14.9303015"><ele>1022.0</ele><time>2026-05-01T11:09:37.739Z</time></trkpt><trkpt lat="38.0446579" lon="14.9303818"><ele>1023.0</ele><time>2026-05-01T11:09:39.739Z</time></trkpt><trkpt lat="38.0445966" lon="14.9304323"><ele>1023.0</ele><time>2026-05-01T11:09:40.739Z</time></trkpt><trkpt lat="38.0445321" lon="14.9304727"><ele>1023.0</ele><time>2026-05-01T11:09:41.739Z</time></trkpt><trkpt lat="38.0444539" lon="14.9304996"><ele>1023.0</ele><time>2026-05-01T11:09:42.739Z</time></trkpt><trkpt lat="38.0443637" lon="14.930519"><ele>1023.0</ele><time>2026-05-01T11:09:43.739Z</time></trkpt><trkpt lat="38.0442777" lon="14.9305325"><ele>1023.0</ele><time>2026-05-01T11:09:44.739Z</time></trkpt><trkpt lat="38.0442025" lon="14.9305386"><ele>1023.0</ele><time>2026-05-01T11:09:45.739Z</time></trkpt><trkpt lat="38.044137" lon="14.9305209"><ele>1022.4</ele><time>2026-05-01T11:09:46.739Z</time></trkpt><trkpt lat="38.0440665" lon="14.9304789"><ele>1021.8</ele><time>2026-05-01T11:09:47.739Z</time></trkpt><trkpt lat="38.0439868" lon="14.9304271"><ele>1021.2</ele><time>2026-05-01T11:09:48.739Z</time></trkpt><trkpt lat="38.0438874" lon="14.9303626"><ele>1020.6</ele><time>2026-05-01T11:09:49.739Z</time></trkpt><trkpt lat="38.0437885" lon="14.9302999"><ele>1020.0</ele><time>2026-05-01T11:09:50.739Z</time></trkpt><trkpt lat="38.0436903" lon="14.930242"><ele>1020.0</ele><time>2026-05-01T11:09:51.739Z</time></trkpt><trkpt lat="38.0435916" lon="14.9301779"><ele>1020.0</ele><time>2026-05-01T11:09:52.739Z</time></trkpt><trkpt lat="38.0434915" lon="14.9301094"><ele>1020.0</ele><time>2026-05-01T11:09:53.739Z</time></trkpt><trkpt lat="38.0433807" lon="14.9300433"><ele>1020.0</ele><time>2026-05-01T11:09:54.739Z</time></trkpt><trkpt lat="38.0432575" lon="14.929951"><ele>1020.3333333333333</ele><time>2026-05-01T11:09:55.739Z</time></trkpt><trkpt lat="38.0431287" lon="14.9298401"><ele>1020.6666666666666</ele><time>2026-05-01T11:09:56.739Z</time></trkpt><trkpt lat="38.0429925" lon="14.9297334"><ele>1021.0</ele><time>2026-05-01T11:09:57.739Z</time></trkpt><trkpt lat="38.0428692" lon="14.9296373"><ele>1021.0</ele><time>2026-05-01T11:09:58.739Z</time></trkpt><trkpt lat="38.0427646" lon="14.9295444"><ele>1021.0</ele><time>2026-05-01T11:09:59.739Z</time></trkpt><trkpt lat="38.042665" lon="14.9294693"><ele>1021.0</ele><time>2026-05-01T11:10:00.739Z</time></trkpt><trkpt lat="38.0425664" lon="14.929403"><ele>1021.0</ele><time>2026-05-01T11:10:01.739Z</time></trkpt><trkpt lat="38.0424744" lon="14.9293478"><ele>1021.1666666666666</ele><time>2026-05-01T11:10:02.739Z</time></trkpt><trkpt lat="38.0423995" lon="14.9292956"><ele>1021.3333333333333</ele><time>2026-05-01T11:10:03.739Z</time></trkpt><trkpt lat="38.0423309" lon="14.929247"><ele>1021.5</ele><time>2026-05-01T11:10:04.739Z</time></trkpt><trkpt lat="38.0422572" lon="14.92921"><ele>1021.6666666666667</ele><time>2026-05-01T11:10:05.739Z</time></trkpt><trkpt lat="38.042187" lon="14.929166"><ele>1021.8333333333334</ele><time>2026-05-01T11:10:06.739Z</time></trkpt><trkpt lat="38.0421168" lon="14.929119"><ele>1022.0</ele><time>2026-05-01T11:10:07.738Z</time></trkpt><trkpt lat="38.0420552" lon="14.9290675"><ele>1022.0</ele><time>2026-05-01T11:10:08.739Z</time></trkpt><trkpt lat="38.0420022" lon="14.9290091"><ele>1022.0</ele><time>2026-05-01T11:10:09.739Z</time></trkpt><trkpt lat="38.0419459" lon="14.9289579"><ele>1022.0</ele><time>2026-05-01T11:10:10.739Z</time></trkpt><trkpt lat="38.041887" lon="14.9289263"><ele>1022.0</ele><time>2026-05-01T11:10:11.739Z</time></trkpt><trkpt lat="38.0418284" lon="14.9288929"><ele>1022.0</ele><time>2026-05-01T11:10:12.739Z</time></trkpt><trkpt lat="38.0417696" lon="14.9288499"><ele>1022.0</ele><time>2026-05-01T11:10:13.739Z</time></trkpt><trkpt lat="38.0417177" lon="14.9287963"><ele>1022.0</ele><time>2026-05-01T11:10:14.738Z</time></trkpt><trkpt lat="38.0416244" lon="14.9287218"><ele>1021.3333333333334</ele><time>2026-05-01T11:10:16.739Z</time></trkpt><trkpt lat="38.0415248" lon="14.9286864"><ele>1020.6666666666667</ele><time>2026-05-01T11:10:18.739Z</time></trkpt><trkpt lat="38.041458" lon="14.9286652"><ele>1020.0</ele><time>2026-05-01T11:10:19.739Z</time></trkpt><trkpt lat="38.0413871" lon="14.9286546"><ele>1019.3333333333333</ele><time>2026-05-01T11:10:20.739Z</time></trkpt><trkpt lat="38.0413219" lon="14.9286458"><ele>1018.6666666666666</ele><time>2026-05-01T11:10:21.739Z</time></trkpt><trkpt lat="38.0412183" lon="14.9286103"><ele>1018.0</ele><time>2026-05-01T11:10:23.739Z</time></trkpt><trkpt lat="38.0411294" lon="14.9285296"><ele>1017.9999999999999</ele><time>2026-05-01T11:10:25.739Z</time></trkpt><trkpt lat="38.0410739" lon="14.9284699"><ele>1018.0</ele><time>2026-05-01T11:10:26.739Z</time></trkpt><trkpt lat="38.0410096" lon="14.9283908"><ele>1018.0</ele><time>2026-05-01T11:10:27.739Z</time></trkpt><trkpt lat="38.0409435" lon="14.9283109"><ele>1018.0</ele><time>2026-05-01T11:10:28.739Z</time></trkpt><trkpt lat="38.0408752" lon="14.9282542"><ele>1017.9999999999999</ele><time>2026-05-01T11:10:29.739Z</time></trkpt><trkpt lat="38.0407901" lon="14.9282104"><ele>1018.0</ele><time>2026-05-01T11:10:30.739Z</time></trkpt><trkpt lat="38.0406949" lon="14.9281733"><ele>1020.25</ele><time>2026-05-01T11:10:31.739Z</time></trkpt><trkpt lat="38.040574" lon="14.9281337"><ele>1022.5</ele><time>2026-05-01T11:10:32.738Z</time></trkpt><trkpt lat="38.0404399" lon="14.9280794"><ele>1024.75</ele><time>2026-05-01T11:10:33.739Z</time></trkpt><trkpt lat="38.0403227" lon="14.9280326"><ele>1027.0</ele><time>2026-05-01T11:10:34.739Z</time></trkpt><trkpt lat="38.0402235" lon="14.9279906"><ele>1027.0</ele><time>2026-05-01T11:10:35.739Z</time></trkpt><trkpt lat="38.0401363" lon="14.9279653"><ele>1027.0</ele><time>2026-05-01T11:10:36.739Z</time></trkpt><trkpt lat="38.0400548" lon="14.9279448"><ele>1027.0</ele><time>2026-05-01T11:10:37.739Z</time></trkpt><trkpt lat="38.0399853" lon="14.927905"><ele>1027.0</ele><time>2026-05-01T11:10:38.739Z</time></trkpt><trkpt lat="38.0398998" lon="14.9278233"><ele>1027.0</ele><time>2026-05-01T11:10:40.739Z</time></trkpt><trkpt lat="38.0398429" lon="14.9277866"><ele>1027.0</ele><time>2026-05-01T11:10:42.739Z</time></trkpt><trkpt lat="38.039768" lon="14.9277653"><ele>1028.2</ele><time>2026-05-01T11:10:44.739Z</time></trkpt><trkpt lat="38.0397056" lon="14.9277513"><ele>1029.4</ele><time>2026-05-01T11:11:33.74Z</time></trkpt><trkpt lat="38.0396055" lon="14.9277295"><ele>1030.6</ele><time>2026-05-01T11:11:35.74Z</time></trkpt><trkpt lat="38.0395223" lon="14.9276987"><ele>1031.8</ele><time>2026-05-01T11:11:36.74Z</time></trkpt><trkpt lat="38.0394202" lon="14.9276597"><ele>1033.0</ele><time>2026-05-01T11:11:37.74Z</time></trkpt><trkpt lat="38.0393166" lon="14.9276161"><ele>1033.0</ele><time>2026-05-01T11:11:38.74Z</time></trkpt><trkpt lat="38.0392181" lon="14.9275741"><ele>1033.0</ele><time>2026-05-01T11:11:39.74Z</time></trkpt><trkpt lat="38.0391011" lon="14.9275291"><ele>1033.0</ele><time>2026-05-01T11:11:40.74Z</time></trkpt><trkpt lat="38.0389778" lon="14.9274971"><ele>1033.0</ele><time>2026-05-01T11:11:41.74Z</time></trkpt><trkpt lat="38.0388514" lon="14.9274876"><ele>1033.25</ele><time>2026-05-01T11:11:42.74Z</time></trkpt><trkpt lat="38.0387313" lon="14.9275022"><ele>1033.5</ele><time>2026-05-01T11:11:43.74Z</time></trkpt><trkpt lat="38.0386223" lon="14.9275364"><ele>1033.75</ele><time>2026-05-01T11:11:44.74Z</time></trkpt><trkpt lat="38.0385162" lon="14.9275742"><ele>1034.0</ele><time>2026-05-01T11:11:45.74Z</time></trkpt><trkpt lat="38.038406" lon="14.9276033"><ele>1034.1666666666667</ele><time>2026-05-01T11:11:46.74Z</time></trkpt><trkpt lat="38.0383045" lon="14.9276154"><ele>1034.3333333333335</ele><time>2026-05-01T11:11:47.74Z</time></trkpt><trkpt lat="38.0382146" lon="14.927633"><ele>1034.5</ele><time>2026-05-01T11:11:48.74Z</time></trkpt><trkpt lat="38.0381397" lon="14.9276739"><ele>1034.6666666666667</ele><time>2026-05-01T11:11:49.74Z</time></trkpt><trkpt lat="38.0380744" lon="14.9277288"><ele>1034.8333333333333</ele><time>2026-05-01T11:11:50.74Z</time></trkpt><trkpt lat="38.0380091" lon="14.9277769"><ele>1035.0</ele><time>2026-05-01T11:11:51.74Z</time></trkpt><trkpt lat="38.0379464" lon="14.9278075"><ele>1035.0</ele><time>2026-05-01T11:11:52.74Z</time></trkpt><trkpt lat="38.0378751" lon="14.927819"><ele>1035.0</ele><time>2026-05-01T11:11:53.74Z</time></trkpt><trkpt lat="38.0377884" lon="14.9278303"><ele>1035.0</ele><time>2026-05-01T11:11:54.74Z</time></trkpt><trkpt lat="38.0377038" lon="14.9278419"><ele>1035.0</ele><time>2026-05-01T11:11:55.739Z</time></trkpt><trkpt lat="38.0376308" lon="14.9278464"><ele>1035.0</ele><time>2026-05-01T11:11:56.74Z</time></trkpt><trkpt lat="38.0375593" lon="14.9278467"><ele>1035.0</ele><time>2026-05-01T11:11:57.74Z</time></trkpt><trkpt lat="38.0374821" lon="14.9278623"><ele>1034.3333333333333</ele><time>2026-05-01T11:11:58.74Z</time></trkpt><trkpt lat="38.0374034" lon="14.9278865"><ele>1033.6666666666667</ele><time>2026-05-01T11:11:59.74Z</time></trkpt><trkpt lat="38.0373307" lon="14.9279151"><ele>1033.0</ele><time>2026-05-01T11:12:00.74Z</time></trkpt><trkpt lat="38.0372706" lon="14.9279501"><ele>1032.3333333333335</ele><time>2026-05-01T11:12:01.739Z</time></trkpt><trkpt lat="38.0372071" lon="14.9279895"><ele>1031.6666666666667</ele><time>2026-05-01T11:12:02.74Z</time></trkpt><trkpt lat="38.0371305" lon="14.9280301"><ele>1031.0</ele><time>2026-05-01T11:12:03.74Z</time></trkpt><trkpt lat="38.0370514" lon="14.9280595"><ele>1031.0</ele><time>2026-05-01T11:12:04.74Z</time></trkpt><trkpt lat="38.0369868" lon="14.9280751"><ele>1031.0</ele><time>2026-05-01T11:12:05.74Z</time></trkpt><trkpt lat="38.0369212" lon="14.9280864"><ele>1031.0</ele><time>2026-05-01T11:12:06.74Z</time></trkpt><trkpt lat="38.0368541" lon="14.928098"><ele>1031.0</ele><time>2026-05-01T11:12:07.74Z</time></trkpt><trkpt lat="38.0367246" lon="14.9281384"><ele>1031.0</ele><time>2026-05-01T11:12:09.74Z</time></trkpt><trkpt lat="38.0366193" lon="14.928202"><ele>1030.1666666666667</ele><time>2026-05-01T11:12:11.74Z</time></trkpt><trkpt lat="38.036553" lon="14.9282425"><ele>1029.3333333333335</ele><time>2026-05-01T11:12:12.74Z</time></trkpt><trkpt lat="38.0364774" lon="14.9282718"><ele>1028.5</ele><time>2026-05-01T11:12:13.74Z</time></trkpt><trkpt lat="38.0364019" lon="14.9282954"><ele>1027.6666666666667</ele><time>2026-05-01T11:12:14.74Z</time></trkpt><trkpt lat="38.0363378" lon="14.9283089"><ele>1026.8333333333333</ele><time>2026-05-01T11:12:15.74Z</time></trkpt><trkpt lat="38.0362362" lon="14.9283537"><ele>1026.0</ele><time>2026-05-01T11:12:17.74Z</time></trkpt><trkpt lat="38.0361202" lon="14.928414"><ele>1025.6666666666667</ele><time>2026-05-01T11:12:19.74Z</time></trkpt><trkpt lat="38.0360485" lon="14.9284298"><ele>1025.3333333333333</ele><time>2026-05-01T11:12:20.74Z</time></trkpt><trkpt lat="38.0359767" lon="14.9284515"><ele>1025.0</ele><time>2026-05-01T11:12:21.74Z</time></trkpt><trkpt lat="38.0359067" lon="14.928483"><ele>1024.6666666666665</ele><time>2026-05-01T11:12:22.74Z</time></trkpt><trkpt lat="38.0358451" lon="14.928534"><ele>1024.3333333333333</ele><time>2026-05-01T11:12:23.74Z</time></trkpt><trkpt lat="38.0357926" lon="14.9285852"><ele>1024.0</ele><time>2026-05-01T11:12:24.74Z</time></trkpt><trkpt lat="38.0357045" lon="14.9286319"><ele>1024.8</ele><time>2026-05-01T11:12:26.74Z</time></trkpt><trkpt lat="38.0356053" lon="14.9286275"><ele>1025.6000000000001</ele><time>2026-05-01T11:12:28.74Z</time></trkpt><trkpt lat="38.0354899" lon="14.9286584"><ele>1026.4</ele><time>2026-05-01T11:12:30.74Z</time></trkpt><trkpt lat="38.0354257" lon="14.9286839"><ele>1027.2</ele><time>2026-05-01T11:12:31.74Z</time></trkpt><trkpt lat="38.0353606" lon="14.9287162"><ele>1028.0</ele><time>2026-05-01T11:12:32.74Z</time></trkpt><trkpt lat="38.0352604" lon="14.9287702"><ele>1028.0</ele><time>2026-05-01T11:12:34.74Z</time></trkpt><trkpt lat="38.0351794" lon="14.9288028"><ele>1028.0</ele><time>2026-05-01T11:12:36.74Z</time></trkpt><trkpt lat="38.0350862" lon="14.9288273"><ele>1028.0</ele><time>2026-05-01T11:12:38.74Z</time></trkpt><trkpt lat="38.0349667" lon="14.9288644"><ele>1028.0</ele><time>2026-05-01T11:12:40.74Z</time></trkpt><trkpt lat="38.0348958" lon="14.9288931"><ele>1028.0</ele><time>2026-05-01T11:12:41.74Z</time></trkpt><trkpt lat="38.0348156" lon="14.9289309"><ele>1028.6666666666667</ele><time>2026-05-01T11:12:42.74Z</time></trkpt><trkpt lat="38.0347403" lon="14.9289606"><ele>1029.3333333333335</ele><time>2026-05-01T11:12:43.74Z</time></trkpt><trkpt lat="38.034674" lon="14.9289923"><ele>1030.0</ele><time>2026-05-01T11:12:44.74Z</time></trkpt><trkpt lat="38.0346037" lon="14.9290258"><ele>1030.6666666666667</ele><time>2026-05-01T11:12:45.74Z</time></trkpt><trkpt lat="38.0345357" lon="14.9290643"><ele>1031.3333333333333</ele><time>2026-05-01T11:12:46.74Z</time></trkpt><trkpt lat="38.0344607" lon="14.9291023"><ele>1032.0</ele><time>2026-05-01T11:12:47.74Z</time></trkpt><trkpt lat="38.0343814" lon="14.929138"><ele>1032.0</ele><time>2026-05-01T11:12:48.74Z</time></trkpt><trkpt lat="38.0343115" lon="14.9291734"><ele>1032.0</ele><time>2026-05-01T11:12:49.74Z</time></trkpt><trkpt lat="38.0342428" lon="14.9292071"><ele>1032.0</ele><time>2026-05-01T11:12:50.739Z</time></trkpt><trkpt lat="38.0341817" lon="14.92923"><ele>1032.0</ele><time>2026-05-01T11:12:51.74Z</time></trkpt><trkpt lat="38.0340883" lon="14.9292683"><ele>1032.0</ele><time>2026-05-01T11:12:53.74Z</time></trkpt><trkpt lat="38.034015" lon="14.9292583"><ele>1032.0</ele><time>2026-05-01T11:12:55.74Z</time></trkpt><trkpt lat="38.03395" lon="14.9292283"><ele>1032.5</ele><time>2026-05-01T11:12:58.74Z</time></trkpt><trkpt lat="38.03387" lon="14.92926"><ele>1033.0</ele><time>2026-05-01T11:13:00.74Z</time></trkpt><trkpt lat="38.0338017" lon="14.929305"><ele>1033.5</ele><time>2026-05-01T11:13:02.74Z</time></trkpt><trkpt lat="38.0337333" lon="14.929335"><ele>1034.0</ele><time>2026-05-01T11:13:04.74Z</time></trkpt><trkpt lat="38.03367" lon="14.9293717"><ele>1034.5</ele><time>2026-05-01T11:13:06.74Z</time></trkpt><trkpt lat="38.0335867" lon="14.9294083"><ele>1035.0</ele><time>2026-05-01T11:13:08.74Z</time></trkpt><trkpt lat="38.0335067" lon="14.9294283"><ele>1035.0</ele><time>2026-05-01T11:13:10.74Z</time></trkpt><trkpt lat="38.0334267" lon="14.929425"><ele>1035.0</ele><time>2026-05-01T11:13:12.74Z</time></trkpt><trkpt lat="38.033495" lon="14.929485"><ele>1035.0</ele><time>2026-05-01T11:14:14.74Z</time></trkpt><trkpt lat="38.03356" lon="14.929455"><ele>1035.0</ele><time>2026-05-01T11:14:16.74Z</time></trkpt><trkpt lat="38.03366" lon="14.9294217"><ele>1035.0</ele><time>2026-05-01T11:14:19.74Z</time></trkpt><trkpt lat="38.033745" lon="14.9293733"><ele>1035.0</ele><time>2026-05-01T11:14:21.74Z</time></trkpt><trkpt lat="38.0338033" lon="14.9293383"><ele>1035.0</ele><time>2026-05-01T11:14:23.74Z</time></trkpt><trkpt lat="38.0338667" lon="14.9293133"><ele>1035.0</ele><time>2026-05-01T11:14:25.74Z</time></trkpt><trkpt lat="38.0339433" lon="14.929275"><ele>1035.0</ele><time>2026-05-01T11:14:27.74Z</time></trkpt><trkpt lat="38.0340333" lon="14.9292617"><ele>1035.0</ele><time>2026-05-01T11:14:29.739Z</time></trkpt><trkpt lat="38.033975" lon="14.9292283"><ele>1035.0</ele><time>2026-05-01T11:14:34.739Z</time></trkpt><trkpt lat="38.0339" lon="14.9292717"><ele>1035.0</ele><time>2026-05-01T11:14:35.74Z</time></trkpt><trkpt lat="38.033805" lon="14.9293233"><ele>1035.0</ele><time>2026-05-01T11:14:36.74Z</time></trkpt><trkpt lat="38.0337067" lon="14.92937"><ele>1035.0</ele><time>2026-05-01T11:14:37.74Z</time></trkpt><trkpt lat="38.0335967" lon="14.9294217"><ele>1035.0</ele><time>2026-05-01T11:14:38.74Z</time></trkpt><trkpt lat="38.0334817" lon="14.9294783"><ele>1035.0</ele><time>2026-05-01T11:14:39.74Z</time></trkpt><trkpt lat="38.0333633" lon="14.929535"><ele>1038.0</ele><time>2026-05-01T11:14:40.74Z</time></trkpt><trkpt lat="38.0332617" lon="14.929585"><ele>1041.0</ele><time>2026-05-01T11:14:41.74Z</time></trkpt><trkpt lat="38.0331767" lon="14.9296"><ele>1044.0</ele><time>2026-05-01T11:14:42.74Z</time></trkpt><trkpt lat="38.0331" lon="14.929585"><ele>1047.0</ele><time>2026-05-01T11:14:43.74Z</time></trkpt><trkpt lat="38.033025" lon="14.929545"><ele>1050.0</ele><time>2026-05-01T11:14:44.739Z</time></trkpt><trkpt lat="38.0329533" lon="14.929495"><ele>1053.0</ele><time>2026-05-01T11:14:45.74Z</time></trkpt><trkpt lat="38.03288" lon="14.9294383"><ele>1053.0</ele><time>2026-05-01T11:14:46.739Z</time></trkpt><trkpt lat="38.0328017" lon="14.92938"><ele>1053.0</ele><time>2026-05-01T11:14:47.74Z</time></trkpt><trkpt lat="38.0327333" lon="14.9293367"><ele>1053.0</ele><time>2026-05-01T11:14:48.74Z</time></trkpt><trkpt lat="38.0326633" lon="14.9293167"><ele>1053.0</ele><time>2026-05-01T11:14:49.74Z</time></trkpt><trkpt lat="38.032595" lon="14.929315"><ele>1053.0</ele><time>2026-05-01T11:14:50.74Z</time></trkpt><trkpt lat="38.0325067" lon="14.92934"><ele>1053.0</ele><time>2026-05-01T11:14:52.74Z</time></trkpt><trkpt lat="38.0324233" lon="14.92933"><ele>1057.0</ele><time>2026-05-01T11:14:54.74Z</time></trkpt><trkpt lat="38.0323283" lon="14.92929"><ele>1061.0</ele><time>2026-05-01T11:14:56.74Z</time></trkpt><trkpt lat="38.0322583" lon="14.9292717"><ele>1065.0</ele><time>2026-05-01T11:14:57.74Z</time></trkpt><trkpt lat="38.0321767" lon="14.9292533"><ele>1069.0</ele><time>2026-05-01T11:14:58.74Z</time></trkpt><trkpt lat="38.03208" lon="14.9292367"><ele>1073.0</ele><time>2026-05-01T11:14:59.74Z</time></trkpt><trkpt lat="38.0319733" lon="14.9292333"><ele>1069.5</ele><time>2026-05-01T11:15:00.74Z</time></trkpt><trkpt lat="38.0318517" lon="14.92921"><ele>1066.0</ele><time>2026-05-01T11:15:01.74Z</time></trkpt><trkpt lat="38.0317217" lon="14.9291733"><ele>1062.5</ele><time>2026-05-01T11:15:02.74Z</time></trkpt><trkpt lat="38.0315983" lon="14.9291483"><ele>1059.0</ele><time>2026-05-01T11:15:03.74Z</time></trkpt><trkpt lat="38.0314683" lon="14.9290983"><ele>1059.0</ele><time>2026-05-01T11:15:04.739Z</time></trkpt><trkpt lat="38.03135" lon="14.929065"><ele>1059.0</ele><time>2026-05-01T11:15:05.74Z</time></trkpt><trkpt lat="38.0312433" lon="14.9290683"><ele>1059.0</ele><time>2026-05-01T11:15:06.74Z</time></trkpt><trkpt lat="38.031145" lon="14.9290983"><ele>1059.0</ele><time>2026-05-01T11:15:07.74Z</time></trkpt><trkpt lat="38.0310533" lon="14.9291383"><ele>1059.0</ele><time>2026-05-01T11:15:08.74Z</time></trkpt><trkpt lat="38.030945" lon="14.9291567"><ele>1059.0</ele><time>2026-05-01T11:15:09.74Z</time></trkpt><trkpt lat="38.030835" lon="14.929165"><ele>1059.0</ele><time>2026-05-01T11:15:10.74Z</time></trkpt><trkpt lat="38.0307267" lon="14.9291817"><ele>1059.0</ele><time>2026-05-01T11:15:11.74Z</time></trkpt><trkpt lat="38.03064" lon="14.929215"><ele>1059.0</ele><time>2026-05-01T11:15:12.74Z</time></trkpt><trkpt lat="38.03056" lon="14.92925"><ele>1059.0</ele><time>2026-05-01T11:15:13.74Z</time></trkpt><trkpt lat="38.0305083" lon="14.9293067"><ele>1056.6000000000001</ele><time>2026-05-01T11:15:14.74Z</time></trkpt><trkpt lat="38.030495" lon="14.9293917"><ele>1054.2</ele><time>2026-05-01T11:15:15.74Z</time></trkpt><trkpt lat="38.0305083" lon="14.9294883"><ele>1051.8000000000002</ele><time>2026-05-01T11:15:16.739Z</time></trkpt><trkpt lat="38.0305583" lon="14.9296017"><ele>1049.4</ele><time>2026-05-01T11:15:17.74Z</time></trkpt><trkpt lat="38.0306283" lon="14.929725"><ele>1047.0</ele><time>2026-05-01T11:15:18.74Z</time></trkpt><trkpt lat="38.0306767" lon="14.92986"><ele>1047.0</ele><time>2026-05-01T11:15:19.74Z</time></trkpt><trkpt lat="38.030705" lon="14.929985"><ele>1047.0</ele><time>2026-05-01T11:15:20.739Z</time></trkpt><trkpt lat="38.0306967" lon="14.9301083"><ele>1047.0</ele><time>2026-05-01T11:15:21.74Z</time></trkpt><trkpt lat="38.030665" lon="14.9302083"><ele>1047.0</ele><time>2026-05-01T11:15:22.74Z</time></trkpt><trkpt lat="38.0306133" lon="14.9303067"><ele>1047.0</ele><time>2026-05-01T11:15:23.74Z</time></trkpt><trkpt lat="38.0305567" lon="14.93042"><ele>1051.0</ele><time>2026-05-01T11:15:24.74Z</time></trkpt><trkpt lat="38.0305017" lon="14.9305633"><ele>1055.0</ele><time>2026-05-01T11:15:25.74Z</time></trkpt><trkpt lat="38.0304367" lon="14.930715"><ele>1059.0</ele><time>2026-05-01T11:15:26.74Z</time></trkpt><trkpt lat="38.0303667" lon="14.9308517"><ele>1063.0</ele><time>2026-05-01T11:15:27.739Z</time></trkpt><trkpt lat="38.0303033" lon="14.9309767"><ele>1065.5</ele><time>2026-05-01T11:15:28.74Z</time></trkpt><trkpt lat="38.0302633" lon="14.9311033"><ele>1068.0</ele><time>2026-05-01T11:15:29.74Z</time></trkpt><trkpt lat="38.0302383" lon="14.9312517"><ele>1070.5</ele><time>2026-05-01T11:15:30.74Z</time></trkpt><trkpt lat="38.0302283" lon="14.9314167"><ele>1073.0</ele><time>2026-05-01T11:15:31.74Z</time></trkpt><trkpt lat="38.03022" lon="14.9316"><ele>1074.5</ele><time>2026-05-01T11:15:32.739Z</time></trkpt><trkpt lat="38.0302067" lon="14.9317933"><ele>1076.0</ele><time>2026-05-01T11:15:33.74Z</time></trkpt><trkpt lat="38.0301833" lon="14.931985"><ele>1077.5</ele><time>2026-05-01T11:15:34.74Z</time></trkpt><trkpt lat="38.030165" lon="14.93214"><ele>1079.0</ele><time>2026-05-01T11:15:35.739Z</time></trkpt><trkpt lat="38.0301483" lon="14.9322833"><ele>1079.0</ele><time>2026-05-01T11:15:36.739Z</time></trkpt><trkpt lat="38.030145" lon="14.9324033"><ele>1079.0</ele><time>2026-05-01T11:15:37.74Z</time></trkpt><trkpt lat="38.030135" lon="14.93251"><ele>1079.0</ele><time>2026-05-01T11:15:38.74Z</time></trkpt><trkpt lat="38.0301233" lon="14.9326433"><ele>1079.0</ele><time>2026-05-01T11:15:40.74Z</time></trkpt><trkpt lat="38.0301983" lon="14.9326283"><ele>1079.0</ele><time>2026-05-01T11:15:44.74Z</time></trkpt><trkpt lat="38.0302133" lon="14.9325367"><ele>1079.0</ele><time>2026-05-01T11:15:45.74Z</time></trkpt><trkpt lat="38.0302367" lon="14.9324267"><ele>1079.0</ele><time>2026-05-01T11:15:46.74Z</time></trkpt><trkpt lat="38.0302683" lon="14.9323117"><ele>1079.0</ele><time>2026-05-01T11:15:47.74Z</time></trkpt><trkpt lat="38.0303017" lon="14.93221"><ele>1079.0</ele><time>2026-05-01T11:15:48.74Z</time></trkpt><trkpt lat="38.03033" lon="14.9321267"><ele>1079.0</ele><time>2026-05-01T11:15:49.74Z</time></trkpt><trkpt lat="38.0303617" lon="14.9320483"><ele>1079.0</ele><time>2026-05-01T11:15:50.74Z</time></trkpt><trkpt lat="38.0304017" lon="14.93196"><ele>1079.0</ele><time>2026-05-01T11:15:51.74Z</time></trkpt><trkpt lat="38.03045" lon="14.9318783"><ele>1079.0</ele><time>2026-05-01T11:15:52.74Z</time></trkpt><trkpt lat="38.030495" lon="14.9318167"><ele>1079.0</ele><time>2026-05-01T11:15:53.74Z</time></trkpt><trkpt lat="38.0305783" lon="14.9317383"><ele>1079.0</ele><time>2026-05-01T11:15:55.74Z</time></trkpt><trkpt lat="38.0306533" lon="14.931715"><ele>1079.0</ele><time>2026-05-01T11:15:57.74Z</time></trkpt><trkpt lat="38.0307133" lon="14.931815"><ele>1079.0</ele><time>2026-05-01T11:15:59.74Z</time></trkpt><trkpt lat="38.0306967" lon="14.9319717"><ele>1079.0</ele><time>2026-05-01T11:16:01.74Z</time></trkpt><trkpt lat="38.0306467" lon="14.932065"><ele>1079.0</ele><time>2026-05-01T11:16:02.74Z</time></trkpt><trkpt lat="38.030605" lon="14.9321433"><ele>1079.0</ele><time>2026-05-01T11:16:03.741Z</time></trkpt><trkpt lat="38.0305417" lon="14.932275"><ele>1079.0</ele><time>2026-05-01T11:16:05.741Z</time></trkpt><trkpt lat="38.0305167" lon="14.9324083"><ele>1079.0</ele><time>2026-05-01T11:16:07.741Z</time></trkpt><trkpt lat="38.0304917" lon="14.9325317"><ele>1080.6000000000001</ele><time>2026-05-01T11:16:09.741Z</time></trkpt><trkpt lat="38.0304783" lon="14.9326583"><ele>1082.2</ele><time>2026-05-01T11:16:11.741Z</time></trkpt><trkpt lat="38.0304433" lon="14.93282"><ele>1083.8000000000002</ele><time>2026-05-01T11:16:13.741Z</time></trkpt><trkpt lat="38.03041" lon="14.9329317"><ele>1085.4</ele><time>2026-05-01T11:16:14.741Z</time></trkpt><trkpt lat="38.0303783" lon="14.9330433"><ele>1087.0</ele><time>2026-05-01T11:16:15.741Z</time></trkpt><trkpt lat="38.030355" lon="14.93314"><ele>1087.0</ele><time>2026-05-01T11:16:16.741Z</time></trkpt><trkpt lat="38.0303417" lon="14.933235"><ele>1087.0</ele><time>2026-05-01T11:16:17.741Z</time></trkpt><trkpt lat="38.03033" lon="14.933325"><ele>1087.0</ele><time>2026-05-01T11:16:18.741Z</time></trkpt><trkpt lat="38.0303233" lon="14.9334167"><ele>1087.0</ele><time>2026-05-01T11:16:19.741Z</time></trkpt><trkpt lat="38.0303183" lon="14.93351"><ele>1087.0</ele><time>2026-05-01T11:16:20.741Z</time></trkpt><trkpt lat="38.030315" lon="14.9335917"><ele>1087.0</ele><time>2026-05-01T11:16:21.741Z</time></trkpt><trkpt lat="38.0303117" lon="14.9336833"><ele>1087.0</ele><time>2026-05-01T11:16:22.741Z</time></trkpt><trkpt lat="38.0303117" lon="14.933765"><ele>1087.5</ele><time>2026-05-01T11:16:23.741Z</time></trkpt><trkpt lat="38.0303017" lon="14.9338467"><ele>1088.0</ele><time>2026-05-01T11:16:24.74Z</time></trkpt><trkpt lat="38.03028" lon="14.9339283"><ele>1088.5</ele><time>2026-05-01T11:16:26.741Z</time></trkpt><trkpt lat="38.03024" lon="14.9340083"><ele>1089.0</ele><time>2026-05-01T11:16:28.741Z</time></trkpt><trkpt lat="38.0302017" lon="14.9341117"><ele>1089.5</ele><time>2026-05-01T11:16:30.74Z</time></trkpt><trkpt lat="38.030165" lon="14.93424"><ele>1090.0</ele><time>2026-05-01T11:16:32.741Z</time></trkpt><trkpt lat="38.0301317" lon="14.9343717"><ele>1089.8</ele><time>2026-05-01T11:16:34.741Z</time></trkpt><trkpt lat="38.0300833" lon="14.934495"><ele>1089.6</ele><time>2026-05-01T11:16:36.741Z</time></trkpt><trkpt lat="38.03002" lon="14.9346233"><ele>1089.4</ele><time>2026-05-01T11:16:38.741Z</time></trkpt><trkpt lat="38.0299617" lon="14.9347333"><ele>1089.2</ele><time>2026-05-01T11:16:40.741Z</time></trkpt><trkpt lat="38.0298933" lon="14.9348417"><ele>1089.0</ele><time>2026-05-01T11:16:42.741Z</time></trkpt><trkpt lat="38.0298567" lon="14.934915"><ele>1089.0</ele><time>2026-05-01T11:16:44.741Z</time></trkpt><trkpt lat="38.029814" lon="14.9349811"><ele>1089.0</ele><time>2026-05-01T11:20:37.742Z</time></trkpt><trkpt lat="38.0297627" lon="14.9351056"><ele>1089.0</ele><time>2026-05-01T11:20:40.742Z</time></trkpt><trkpt lat="38.0297384" lon="14.9352417"><ele>1089.0</ele><time>2026-05-01T11:20:42.742Z</time></trkpt><trkpt lat="38.0297571" lon="14.9353427"><ele>1089.0</ele><time>2026-05-01T11:20:44.742Z</time></trkpt><trkpt lat="38.029782" lon="14.9354246"><ele>1089.0</ele><time>2026-05-01T11:20:46.741Z</time></trkpt><trkpt lat="38.0298078" lon="14.9355254"><ele>1092.3333333333333</ele><time>2026-05-01T11:20:49.742Z</time></trkpt><trkpt lat="38.0298263" lon="14.935608"><ele>1095.6666666666667</ele><time>2026-05-01T11:20:51.742Z</time></trkpt><trkpt lat="38.0298495" lon="14.9357023"><ele>1099.0</ele><time>2026-05-01T11:20:53.742Z</time></trkpt><trkpt lat="38.0298819" lon="14.9358036"><ele>1102.3333333333335</ele><time>2026-05-01T11:20:55.741Z</time></trkpt><trkpt lat="38.0299101" lon="14.9359039"><ele>1105.6666666666667</ele><time>2026-05-01T11:20:57.742Z</time></trkpt><trkpt lat="38.0299018" lon="14.9358025"><ele>1109.0</ele><time>2026-05-01T11:22:17.742Z</time></trkpt><trkpt lat="38.0298672" lon="14.9357009"><ele>1109.0</ele><time>2026-05-01T11:22:20.742Z</time></trkpt><trkpt lat="38.0298486" lon="14.9356225"><ele>1109.0</ele><time>2026-05-01T11:22:22.742Z</time></trkpt><trkpt lat="38.0298147" lon="14.9355126"><ele>1109.0</ele><time>2026-05-01T11:22:25.742Z</time></trkpt><trkpt lat="38.0297921" lon="14.9354047"><ele>1109.0</ele><time>2026-05-01T11:22:28.742Z</time></trkpt><trkpt lat="38.0297605" lon="14.9353124"><ele>1109.0</ele><time>2026-05-01T11:22:31.742Z</time></trkpt><trkpt lat="38.0297656" lon="14.9352156"><ele>1109.0</ele><time>2026-05-01T11:22:34.742Z</time></trkpt><trkpt lat="38.029755" lon="14.9353084"><ele>1109.0</ele><time>2026-05-01T11:22:40.742Z</time></trkpt><trkpt lat="38.0297325" lon="14.9354033"><ele>1109.0</ele><time>2026-05-01T11:22:42.742Z</time></trkpt><trkpt lat="38.029653" lon="14.9354698"><ele>1109.0</ele><time>2026-05-01T11:22:44.742Z</time></trkpt><trkpt lat="38.0295688" lon="14.9355487"><ele>1109.0</ele><time>2026-05-01T11:22:46.742Z</time></trkpt><trkpt lat="38.0294998" lon="14.9356512"><ele>1109.0</ele><time>2026-05-01T11:22:48.742Z</time></trkpt><trkpt lat="38.0294459" lon="14.9357496"><ele>1108.9999999999998</ele><time>2026-05-01T11:22:50.742Z</time></trkpt><trkpt lat="38.0294541" lon="14.9358367"><ele>1109.0</ele><time>2026-05-01T11:23:46.742Z</time></trkpt><trkpt lat="38.0293681" lon="14.935869"><ele>1109.0</ele><time>2026-05-01T11:30:53.744Z</time></trkpt><trkpt lat="38.029358" lon="14.9359489"><ele>1109.0</ele><time>2026-05-01T11:34:55.745Z</time></trkpt><trkpt lat="38.0293529" lon="14.936031"><ele>1109.0</ele><time>2026-05-01T11:34:57.745Z</time></trkpt><trkpt lat="38.029394" lon="14.9359525"><ele>1108.9999999999998</ele><time>2026-05-01T11:35:32.745Z</time></trkpt><trkpt lat="38.0294167" lon="14.9358688"><ele>1109.0</ele><time>2026-05-01T11:35:49.745Z</time></trkpt><trkpt lat="38.0293511" lon="14.9359185"><ele>1112.5</ele><time>2026-05-01T11:37:17.746Z</time></trkpt><trkpt lat="38.0293606" lon="14.9360022"><ele>1116.0</ele><time>2026-05-01T11:37:37.746Z</time></trkpt><trkpt lat="38.0293694" lon="14.9361278"><ele>1119.5</ele><time>2026-05-01T11:39:30.746Z</time></trkpt><trkpt lat="38.0293449" lon="14.9362245"><ele>1123.0</ele><time>2026-05-01T11:42:14.747Z</time></trkpt><trkpt lat="38.0293157" lon="14.9363221"><ele>1126.5</ele><time>2026-05-01T11:42:16.747Z</time></trkpt><trkpt lat="38.0292877" lon="14.9364613"><ele>1130.0</ele><time>2026-05-01T11:42:18.747Z</time></trkpt><trkpt lat="38.0292607" lon="14.936591"><ele>1128.8</ele><time>2026-05-01T11:42:20.747Z</time></trkpt><trkpt lat="38.0292238" lon="14.9367198"><ele>1127.6</ele><time>2026-05-01T11:42:22.747Z</time></trkpt><trkpt lat="38.0291841" lon="14.9368268"><ele>1126.4</ele><time>2026-05-01T11:42:24.747Z</time></trkpt><trkpt lat="38.0291493" lon="14.9369297"><ele>1125.2</ele><time>2026-05-01T11:42:26.746Z</time></trkpt><trkpt lat="38.0291354" lon="14.9370237"><ele>1124.0</ele><time>2026-05-01T11:42:28.747Z</time></trkpt><trkpt lat="38.0291237" lon="14.937132"><ele>1124.0</ele><time>2026-05-01T11:42:30.747Z</time></trkpt><trkpt lat="38.0291069" lon="14.9372343"><ele>1124.0</ele><time>2026-05-01T11:42:32.747Z</time></trkpt><trkpt lat="38.0290939" lon="14.9373343"><ele>1124.0</ele><time>2026-05-01T11:42:34.747Z</time></trkpt><trkpt lat="38.0290917" lon="14.9374445"><ele>1124.0</ele><time>2026-05-01T11:42:36.747Z</time></trkpt><trkpt lat="38.0291158" lon="14.9375535"><ele>1124.0</ele><time>2026-05-01T11:43:37.746Z</time></trkpt><trkpt lat="38.0291403" lon="14.9377041"><ele>1127.2</ele><time>2026-05-01T11:43:39.747Z</time></trkpt><trkpt lat="38.0291544" lon="14.9378551"><ele>1130.4</ele><time>2026-05-01T11:43:41.747Z</time></trkpt><trkpt lat="38.0291363" lon="14.9379489"><ele>1133.6</ele><time>2026-05-01T11:43:42.746Z</time></trkpt><trkpt lat="38.0291069" lon="14.938057"><ele>1136.8</ele><time>2026-05-01T11:43:43.747Z</time></trkpt><trkpt lat="38.0290778" lon="14.9381789"><ele>1140.0</ele><time>2026-05-01T11:43:44.747Z</time></trkpt><trkpt lat="38.0290464" lon="14.9382963"><ele>1142.3333333333333</ele><time>2026-05-01T11:43:45.747Z</time></trkpt><trkpt lat="38.0290183" lon="14.9384028"><ele>1144.6666666666667</ele><time>2026-05-01T11:43:46.747Z</time></trkpt><trkpt lat="38.0289929" lon="14.9384922"><ele>1147.0</ele><time>2026-05-01T11:43:47.747Z</time></trkpt><trkpt lat="38.0289631" lon="14.9385775"><ele>1149.3333333333335</ele><time>2026-05-01T11:43:48.747Z</time></trkpt><trkpt lat="38.0289265" lon="14.9386608"><ele>1151.6666666666667</ele><time>2026-05-01T11:43:49.747Z</time></trkpt><trkpt lat="38.0288863" lon="14.9387344"><ele>1154.0</ele><time>2026-05-01T11:43:50.747Z</time></trkpt><trkpt lat="38.0288006" lon="14.9388416"><ele>1154.0</ele><time>2026-05-01T11:43:52.747Z</time></trkpt><trkpt lat="38.0287544" lon="14.9389013"><ele>1154.0</ele><time>2026-05-01T11:43:53.746Z</time></trkpt><trkpt lat="38.0286993" lon="14.9389668"><ele>1154.0</ele><time>2026-05-01T11:43:54.747Z</time></trkpt><trkpt lat="38.0286399" lon="14.9390433"><ele>1154.0</ele><time>2026-05-01T11:43:55.747Z</time></trkpt><trkpt lat="38.028592" lon="14.9391135"><ele>1154.0</ele><time>2026-05-01T11:43:56.747Z</time></trkpt><trkpt lat="38.0285145" lon="14.9392058"><ele>1154.0</ele><time>2026-05-01T11:43:58.747Z</time></trkpt><trkpt lat="38.0284233" lon="14.9392952"><ele>1154.5</ele><time>2026-05-01T11:44:00.747Z</time></trkpt><trkpt lat="38.0283737" lon="14.9393447"><ele>1155.0</ele><time>2026-05-01T11:44:01.747Z</time></trkpt><trkpt lat="38.0283123" lon="14.9393949"><ele>1155.5</ele><time>2026-05-01T11:44:02.747Z</time></trkpt><trkpt lat="38.0282391" lon="14.9394421"><ele>1156.0</ele><time>2026-05-01T11:44:03.746Z</time></trkpt><trkpt lat="38.0281715" lon="14.9394907"><ele>1156.5</ele><time>2026-05-01T11:44:04.747Z</time></trkpt><trkpt lat="38.0281131" lon="14.9395335"><ele>1157.0</ele><time>2026-05-01T11:44:05.747Z</time></trkpt><trkpt lat="38.028033" lon="14.9395911"><ele>1158.2857142857142</ele><time>2026-05-01T11:44:07.747Z</time></trkpt><trkpt lat="38.0279719" lon="14.9396332"><ele>1159.5714285714284</ele><time>2026-05-01T11:44:09.746Z</time></trkpt><trkpt lat="38.0279177" lon="14.9396868"><ele>1160.857142857143</ele><time>2026-05-01T11:44:11.747Z</time></trkpt><trkpt lat="38.0279205" lon="14.9397839"><ele>1162.142857142857</ele><time>2026-05-01T11:44:13.747Z</time></trkpt><trkpt lat="38.0278825" lon="14.9398596"><ele>1163.4285714285716</ele><time>2026-05-01T11:44:16.746Z</time></trkpt><trkpt lat="38.0278065" lon="14.9398998"><ele>1164.7142857142858</ele><time>2026-05-01T11:44:18.747Z</time></trkpt><trkpt lat="38.0277508" lon="14.9399435"><ele>1166.0</ele><time>2026-05-01T11:44:20.746Z</time></trkpt><trkpt lat="38.0276909" lon="14.9400127"><ele>1166.3333333333335</ele><time>2026-05-01T11:44:22.747Z</time></trkpt><trkpt lat="38.0276436" lon="14.9401106"><ele>1166.6666666666667</ele><time>2026-05-01T11:44:24.747Z</time></trkpt><trkpt lat="38.0276002" lon="14.9402277"><ele>1167.0</ele><time>2026-05-01T11:44:26.747Z</time></trkpt><trkpt lat="38.0275526" lon="14.9402891"><ele>1167.3333333333333</ele><time>2026-05-01T11:44:27.747Z</time></trkpt><trkpt lat="38.0274876" lon="14.9403447"><ele>1167.6666666666665</ele><time>2026-05-01T11:44:28.747Z</time></trkpt><trkpt lat="38.0274053" lon="14.9403884"><ele>1168.0</ele><time>2026-05-01T11:44:29.747Z</time></trkpt><trkpt lat="38.0273185" lon="14.9404322"><ele>1170.2</ele><time>2026-05-01T11:44:30.747Z</time></trkpt><trkpt lat="38.0272455" lon="14.9404748"><ele>1172.4</ele><time>2026-05-01T11:44:31.747Z</time></trkpt><trkpt lat="38.0271668" lon="14.9405701"><ele>1174.6000000000001</ele><time>2026-05-01T11:44:33.747Z</time></trkpt><trkpt lat="38.0270989" lon="14.9406888"><ele>1176.8</ele><time>2026-05-01T11:44:35.747Z</time></trkpt><trkpt lat="38.0270486" lon="14.9407617"><ele>1179.0</ele><time>2026-05-01T11:44:36.747Z</time></trkpt><trkpt lat="38.0269893" lon="14.9408293"><ele>1180.0</ele><time>2026-05-01T11:44:37.747Z</time></trkpt><trkpt lat="38.0269161" lon="14.9408861"><ele>1181.0</ele><time>2026-05-01T11:44:38.747Z</time></trkpt><trkpt lat="38.0268341" lon="14.9409381"><ele>1182.0</ele><time>2026-05-01T11:44:39.747Z</time></trkpt><trkpt lat="38.0267509" lon="14.9409896"><ele>1183.0</ele><time>2026-05-01T11:44:40.747Z</time></trkpt><trkpt lat="38.0266701" lon="14.941039"><ele>1184.0</ele><time>2026-05-01T11:44:41.747Z</time></trkpt><trkpt lat="38.0266113" lon="14.9410871"><ele>1185.0</ele><time>2026-05-01T11:44:42.747Z</time></trkpt><trkpt lat="38.026539" lon="14.9411617"><ele>1185.0</ele><time>2026-05-01T11:44:44.747Z</time></trkpt><trkpt lat="38.0264422" lon="14.9411909"><ele>1185.0</ele><time>2026-05-01T11:44:46.747Z</time></trkpt><trkpt lat="38.0263227" lon="14.9411935"><ele>1185.0</ele><time>2026-05-01T11:44:48.747Z</time></trkpt><trkpt lat="38.026203" lon="14.9412492"><ele>1185.0</ele><time>2026-05-01T11:44:50.747Z</time></trkpt><trkpt lat="38.0261494" lon="14.9412936"><ele>1185.0</ele><time>2026-05-01T11:44:51.747Z</time></trkpt><trkpt lat="38.0260411" lon="14.9413627"><ele>1185.0</ele><time>2026-05-01T11:44:53.747Z</time></trkpt><trkpt lat="38.0259797" lon="14.9414077"><ele>1185.0</ele><time>2026-05-01T11:44:54.747Z</time></trkpt><trkpt lat="38.0259214" lon="14.9414464"><ele>1185.0</ele><time>2026-05-01T11:44:55.746Z</time></trkpt><trkpt lat="38.0258219" lon="14.9414949"><ele>1185.0</ele><time>2026-05-01T11:44:57.747Z</time></trkpt><trkpt lat="38.0257303" lon="14.9415314"><ele>1185.0</ele><time>2026-05-01T11:44:59.747Z</time></trkpt><trkpt lat="38.0256419" lon="14.9415746"><ele>1185.0</ele><time>2026-05-01T11:45:01.747Z</time></trkpt><trkpt lat="38.0255608" lon="14.9416096"><ele>1183.857142857143</ele><time>2026-05-01T11:45:03.747Z</time></trkpt><trkpt lat="38.0254984" lon="14.9415864"><ele>1182.7142857142856</ele><time>2026-05-01T11:45:05.747Z</time></trkpt><trkpt lat="38.0254569" lon="14.9415083"><ele>1181.5714285714284</ele><time>2026-05-01T11:45:07.747Z</time></trkpt><trkpt lat="38.0254425" lon="14.9414292"><ele>1180.4285714285713</ele><time>2026-05-01T11:45:09.747Z</time></trkpt><trkpt lat="38.0254255" lon="14.9413321"><ele>1179.2857142857142</ele><time>2026-05-01T11:46:06.748Z</time></trkpt><trkpt lat="38.025403" lon="14.9412397"><ele>1178.142857142857</ele><time>2026-05-01T11:46:09.748Z</time></trkpt><trkpt lat="38.025389" lon="14.9411582"><ele>1177.0</ele><time>2026-05-01T11:46:12.748Z</time></trkpt><trkpt lat="38.0253874" lon="14.9410655"><ele>1177.0</ele><time>2026-05-01T11:46:15.748Z</time></trkpt><trkpt lat="38.0253614" lon="14.9409385"><ele>1177.0</ele><time>2026-05-01T11:46:18.748Z</time></trkpt><trkpt lat="38.0253402" lon="14.940812"><ele>1177.0</ele><time>2026-05-01T11:46:20.748Z</time></trkpt><trkpt lat="38.0253323" lon="14.9407164"><ele>1177.0</ele><time>2026-05-01T11:46:22.748Z</time></trkpt><trkpt lat="38.025325" lon="14.9406367"><ele>1177.0</ele><time>2026-05-01T11:46:24.748Z</time></trkpt><trkpt lat="38.0252767" lon="14.9405617"><ele>1177.0</ele><time>2026-05-01T11:46:26.748Z</time></trkpt><trkpt lat="38.02522" lon="14.9405083"><ele>1177.6666666666665</ele><time>2026-05-01T11:46:28.748Z</time></trkpt><trkpt lat="38.02515" lon="14.9404367"><ele>1178.3333333333333</ele><time>2026-05-01T11:46:30.748Z</time></trkpt><trkpt lat="38.0250867" lon="14.9403733"><ele>1179.0</ele><time>2026-05-01T11:46:33.748Z</time></trkpt><trkpt lat="38.0251183" lon="14.9402917"><ele>1179.6666666666667</ele><time>2026-05-01T11:46:37.748Z</time></trkpt><trkpt lat="38.0252017" lon="14.9402733"><ele>1180.3333333333335</ele><time>2026-05-01T11:46:40.748Z</time></trkpt><trkpt lat="38.02527" lon="14.9402517"><ele>1181.0</ele><time>2026-05-01T11:46:42.748Z</time></trkpt><trkpt lat="38.0251733" lon="14.9402717"><ele>1181.0</ele><time>2026-05-01T11:47:01.748Z</time></trkpt><trkpt lat="38.025105" lon="14.9403183"><ele>1181.0</ele><time>2026-05-01T11:47:03.748Z</time></trkpt><trkpt lat="38.025065" lon="14.9403817"><ele>1181.0</ele><time>2026-05-01T11:47:05.748Z</time></trkpt><trkpt lat="38.0250537" lon="14.9404843"><ele>1181.0</ele><time>2026-05-01T11:49:24.748Z</time></trkpt><trkpt lat="38.0250934" lon="14.9404114"><ele>1181.0</ele><time>2026-05-01T11:53:58.749Z</time></trkpt><trkpt lat="38.0251542" lon="14.940493"><ele>1181.0</ele><time>2026-05-01T11:58:06.75Z</time></trkpt><trkpt lat="38.0252066" lon="14.9405623"><ele>1181.0</ele><time>2026-05-01T11:58:08.75Z</time></trkpt><trkpt lat="38.0252467" lon="14.9406248"><ele>1181.0</ele><time>2026-05-01T11:58:10.75Z</time></trkpt><trkpt lat="38.0253049" lon="14.9407033"><ele>1181.0</ele><time>2026-05-01T11:58:12.75Z</time></trkpt><trkpt lat="38.0253417" lon="14.9407762"><ele>1181.0</ele><time>2026-05-01T11:58:13.75Z</time></trkpt><trkpt lat="38.0253726" lon="14.9408712"><ele>1181.0</ele><time>2026-05-01T11:58:14.75Z</time></trkpt><trkpt lat="38.0253925" lon="14.9409768"><ele>1181.0</ele><time>2026-05-01T11:58:15.75Z</time></trkpt><trkpt lat="38.0253947" lon="14.9410881"><ele>1180.3333333333335</ele><time>2026-05-01T11:58:16.75Z</time></trkpt><trkpt lat="38.0253969" lon="14.941197"><ele>1179.6666666666667</ele><time>2026-05-01T11:58:17.75Z</time></trkpt><trkpt lat="38.0254096" lon="14.9412953"><ele>1179.0</ele><time>2026-05-01T11:58:18.75Z</time></trkpt><trkpt lat="38.0254318" lon="14.9413893"><ele>1178.3333333333333</ele><time>2026-05-01T11:58:19.75Z</time></trkpt><trkpt lat="38.0254484" lon="14.9414844"><ele>1177.6666666666665</ele><time>2026-05-01T11:58:20.75Z</time></trkpt><trkpt lat="38.0254635" lon="14.9415669"><ele>1177.0</ele><time>2026-05-01T11:58:21.75Z</time></trkpt><trkpt lat="38.0254936" lon="14.941662"><ele>1177.0</ele><time>2026-05-01T11:58:23.75Z</time></trkpt><trkpt lat="38.0255678" lon="14.9416729"><ele>1177.0</ele><time>2026-05-01T11:58:28.75Z</time></trkpt><trkpt lat="38.0256122" lon="14.9415987"><ele>1177.0</ele><time>2026-05-01T11:58:30.75Z</time></trkpt><trkpt lat="38.0256785" lon="14.9415546"><ele>1177.0</ele><time>2026-05-01T11:58:32.75Z</time></trkpt><trkpt lat="38.0257618" lon="14.9415391"><ele>1177.0</ele><time>2026-05-01T11:58:34.749Z</time></trkpt><trkpt lat="38.0258511" lon="14.9414949"><ele>1177.0</ele><time>2026-05-01T11:58:36.75Z</time></trkpt><trkpt lat="38.025954" lon="14.9414395"><ele>1178.3333333333333</ele><time>2026-05-01T11:58:38.75Z</time></trkpt><trkpt lat="38.0260115" lon="14.9413991"><ele>1179.6666666666665</ele><time>2026-05-01T11:58:40.75Z</time></trkpt><trkpt lat="38.026077" lon="14.9413441"><ele>1181.0</ele><time>2026-05-01T11:58:43.75Z</time></trkpt><trkpt lat="38.0261336" lon="14.9413024"><ele>1182.3333333333333</ele><time>2026-05-01T11:58:45.75Z</time></trkpt><trkpt lat="38.0261972" lon="14.9412611"><ele>1183.6666666666667</ele><time>2026-05-01T11:58:47.75Z</time></trkpt><trkpt lat="38.0262966" lon="14.9412154"><ele>1185.0</ele><time>2026-05-01T11:58:49.75Z</time></trkpt><trkpt lat="38.0264179" lon="14.941183"><ele>1185.0</ele><time>2026-05-01T11:58:51.75Z</time></trkpt><trkpt lat="38.0265033" lon="14.9411666"><ele>1185.0</ele><time>2026-05-01T11:58:52.75Z</time></trkpt><trkpt lat="38.0265823" lon="14.9411552"><ele>1185.0</ele><time>2026-05-01T11:58:53.75Z</time></trkpt><trkpt lat="38.0266473" lon="14.941154"><ele>1185.0</ele><time>2026-05-01T11:58:54.75Z</time></trkpt><trkpt lat="38.0267394" lon="14.9411844"><ele>1185.0</ele><time>2026-05-01T11:58:56.75Z</time></trkpt><trkpt lat="38.0267979" lon="14.9412429"><ele>1185.0</ele><time>2026-05-01T11:58:58.75Z</time></trkpt><trkpt lat="38.0268659" lon="14.9412452"><ele>1184.142857142857</ele><time>2026-05-01T11:59:02.75Z</time></trkpt><trkpt lat="38.0268939" lon="14.9411613"><ele>1183.2857142857142</ele><time>2026-05-01T11:59:24.75Z</time></trkpt><trkpt lat="38.026896" lon="14.941078"><ele>1182.4285714285713</ele><time>2026-05-01T11:59:26.75Z</time></trkpt><trkpt lat="38.0268677" lon="14.9409818"><ele>1181.5714285714284</ele><time>2026-05-01T11:59:29.75Z</time></trkpt><trkpt lat="38.0268785" lon="14.9408834"><ele>1180.7142857142858</ele><time>2026-05-01T11:59:32.75Z</time></trkpt><trkpt lat="38.0269367" lon="14.9408398"><ele>1179.8571428571427</ele><time>2026-05-01T11:59:34.749Z</time></trkpt><trkpt lat="38.0270134" lon="14.9407978"><ele>1179.0</ele><time>2026-05-01T11:59:36.75Z</time></trkpt><trkpt lat="38.0271057" lon="14.9407125"><ele>1179.0</ele><time>2026-05-01T11:59:38.75Z</time></trkpt><trkpt lat="38.0271489" lon="14.9406475"><ele>1179.0</ele><time>2026-05-01T11:59:39.75Z</time></trkpt><trkpt lat="38.0272135" lon="14.9405387"><ele>1179.0</ele><time>2026-05-01T11:59:41.75Z</time></trkpt><trkpt lat="38.0272607" lon="14.9404744"><ele>1179.0</ele><time>2026-05-01T11:59:43.75Z</time></trkpt><trkpt lat="38.0273279" lon="14.9404293"><ele>1179.0</ele><time>2026-05-01T11:59:45.75Z</time></trkpt><trkpt lat="38.0274056" lon="14.9403877"><ele>1179.0</ele><time>2026-05-01T11:59:47.75Z</time></trkpt><trkpt lat="38.0274685" lon="14.940352"><ele>1177.1666666666667</ele><time>2026-05-01T11:59:49.75Z</time></trkpt><trkpt lat="38.0275249" lon="14.9403091"><ele>1175.3333333333333</ele><time>2026-05-01T11:59:51.75Z</time></trkpt><trkpt lat="38.0275783" lon="14.9402477"><ele>1173.5</ele><time>2026-05-01T11:59:53.75Z</time></trkpt><trkpt lat="38.0276315" lon="14.9401647"><ele>1171.6666666666665</ele><time>2026-05-01T11:59:55.75Z</time></trkpt><trkpt lat="38.0276707" lon="14.9400698"><ele>1169.8333333333333</ele><time>2026-05-01T11:59:57.75Z</time></trkpt><trkpt lat="38.0277287" lon="14.9399852"><ele>1168.0</ele><time>2026-05-01T11:59:59.75Z</time></trkpt><trkpt lat="38.0278032" lon="14.939926"><ele>1168.0</ele><time>2026-05-01T12:00:01.75Z</time></trkpt><trkpt lat="38.0278825" lon="14.9398687"><ele>1168.0</ele><time>2026-05-01T12:00:04.75Z</time></trkpt><trkpt lat="38.0279665" lon="14.9398294"><ele>1168.0</ele><time>2026-05-01T12:00:07.75Z</time></trkpt><trkpt lat="38.0280314" lon="14.9398862"><ele>1168.0</ele><time>2026-05-01T12:00:09.75Z</time></trkpt><trkpt lat="38.0280814" lon="14.9399685"><ele>1168.0</ele><time>2026-05-01T12:00:11.749Z</time></trkpt><trkpt lat="38.0281369" lon="14.9400628"><ele>1168.0</ele><time>2026-05-01T12:00:14.75Z</time></trkpt><trkpt lat="38.0281884" lon="14.9401257"><ele>1168.0</ele><time>2026-05-01T12:00:17.75Z</time></trkpt><trkpt lat="38.0282441" lon="14.9402145"><ele>1168.0</ele><time>2026-05-01T12:00:49.751Z</time></trkpt><trkpt lat="38.0282894" lon="14.9402851"><ele>1168.0</ele><time>2026-05-01T12:00:52.751Z</time></trkpt><trkpt lat="38.0283176" lon="14.9403796"><ele>1168.0</ele><time>2026-05-01T12:00:55.751Z</time></trkpt><trkpt lat="38.0283495" lon="14.9404525"><ele>1168.0</ele><time>2026-05-01T12:00:58.751Z</time></trkpt><trkpt lat="38.0284015" lon="14.9405097"><ele>1168.0</ele><time>2026-05-01T12:01:32.751Z</time></trkpt><trkpt lat="38.0283377" lon="14.9405333"><ele>1168.0</ele><time>2026-05-01T12:02:00.751Z</time></trkpt><trkpt lat="38.028277" lon="14.9404653"><ele>1168.0</ele><time>2026-05-01T12:02:02.75Z</time></trkpt><trkpt lat="38.0281998" lon="14.940396"><ele>1168.0</ele><time>2026-05-01T12:02:04.751Z</time></trkpt><trkpt lat="38.0281456" lon="14.9403211"><ele>1168.0</ele><time>2026-05-01T12:02:06.75Z</time></trkpt><trkpt lat="38.0280909" lon="14.9402034"><ele>1168.0</ele><time>2026-05-01T12:02:08.751Z</time></trkpt><trkpt lat="38.0280528" lon="14.9401042"><ele>1168.0</ele><time>2026-05-01T12:02:10.751Z</time></trkpt><trkpt lat="38.0280193" lon="14.9400184"><ele>1168.0</ele><time>2026-05-01T12:02:12.751Z</time></trkpt><trkpt lat="38.0280171" lon="14.9399231"><ele>1167.6666666666665</ele><time>2026-05-01T12:02:14.751Z</time></trkpt><trkpt lat="38.0280118" lon="14.9398365"><ele>1167.3333333333333</ele><time>2026-05-01T12:02:16.75Z</time></trkpt><trkpt lat="38.0279723" lon="14.9397675"><ele>1167.0</ele><time>2026-05-01T12:02:18.751Z</time></trkpt><trkpt lat="38.0279086" lon="14.9398012"><ele>1166.6666666666667</ele><time>2026-05-01T12:02:22.751Z</time></trkpt><trkpt lat="38.0278281" lon="14.9398881"><ele>1166.3333333333335</ele><time>2026-05-01T12:02:24.751Z</time></trkpt><trkpt lat="38.0277728" lon="14.9399425"><ele>1166.0</ele><time>2026-05-01T12:02:25.751Z</time></trkpt><trkpt lat="38.0277104" lon="14.9400124"><ele>1166.3999999999999</ele><time>2026-05-01T12:02:26.751Z</time></trkpt><trkpt lat="38.0276498" lon="14.9401108"><ele>1166.8</ele><time>2026-05-01T12:02:27.751Z</time></trkpt><trkpt lat="38.0275919" lon="14.9402213"><ele>1167.1999999999998</ele><time>2026-05-01T12:02:28.751Z</time></trkpt><trkpt lat="38.0275314" lon="14.9403077"><ele>1167.6</ele><time>2026-05-01T12:02:29.751Z</time></trkpt><trkpt lat="38.0274726" lon="14.9403646"><ele>1168.0</ele><time>2026-05-01T12:02:30.751Z</time></trkpt><trkpt lat="38.0273683" lon="14.9404181"><ele>1169.8333333333333</ele><time>2026-05-01T12:02:32.751Z</time></trkpt><trkpt lat="38.0272983" lon="14.9404417"><ele>1171.6666666666665</ele><time>2026-05-01T12:02:43.751Z</time></trkpt><trkpt lat="38.02723" lon="14.940505"><ele>1173.5</ele><time>2026-05-01T12:02:45.751Z</time></trkpt><trkpt lat="38.0271867" lon="14.94057"><ele>1175.3333333333333</ele><time>2026-05-01T12:02:47.751Z</time></trkpt><trkpt lat="38.02714" lon="14.9406583"><ele>1177.1666666666667</ele><time>2026-05-01T12:02:49.75Z</time></trkpt><trkpt lat="38.027085" lon="14.94073"><ele>1179.0</ele><time>2026-05-01T12:02:52.751Z</time></trkpt><trkpt lat="38.0270133" lon="14.9408117"><ele>1179.0</ele><time>2026-05-01T12:02:54.751Z</time></trkpt><trkpt lat="38.0268983" lon="14.9408817"><ele>1179.0</ele><time>2026-05-01T12:02:56.751Z</time></trkpt><trkpt lat="38.0268367" lon="14.9409283"><ele>1179.0</ele><time>2026-05-01T12:02:57.751Z</time></trkpt><trkpt lat="38.0267667" lon="14.94097"><ele>1179.0</ele><time>2026-05-01T12:02:58.751Z</time></trkpt><trkpt lat="38.0267133" lon="14.9410133"><ele>1179.0</ele><time>2026-05-01T12:02:59.75Z</time></trkpt><trkpt lat="38.0266533" lon="14.9410633"><ele>1179.0</ele><time>2026-05-01T12:03:00.751Z</time></trkpt><trkpt lat="38.0265983" lon="14.941125"><ele>1180.0</ele><time>2026-05-01T12:03:01.751Z</time></trkpt><trkpt lat="38.0264883" lon="14.9411883"><ele>1181.0</ele><time>2026-05-01T12:03:03.751Z</time></trkpt><trkpt lat="38.02642" lon="14.9411933"><ele>1182.0</ele><time>2026-05-01T12:03:04.751Z</time></trkpt><trkpt lat="38.0263467" lon="14.9411983"><ele>1183.0</ele><time>2026-05-01T12:03:05.751Z</time></trkpt><trkpt lat="38.0262667" lon="14.9412233"><ele>1184.0</ele><time>2026-05-01T12:03:06.751Z</time></trkpt><trkpt lat="38.0261733" lon="14.9412717"><ele>1185.0</ele><time>2026-05-01T12:03:07.751Z</time></trkpt><trkpt lat="38.026095" lon="14.9413217"><ele>1185.0</ele><time>2026-05-01T12:03:08.751Z</time></trkpt><trkpt lat="38.0260067" lon="14.9414117"><ele>1185.0</ele><time>2026-05-01T12:03:10.75Z</time></trkpt><trkpt lat="38.0259317" lon="14.9414667"><ele>1185.0</ele><time>2026-05-01T12:03:12.751Z</time></trkpt><trkpt lat="38.0258533" lon="14.9415033"><ele>1185.0</ele><time>2026-05-01T12:03:14.751Z</time></trkpt><trkpt lat="38.02576" lon="14.941545"><ele>1185.0</ele><time>2026-05-01T12:03:16.751Z</time></trkpt><trkpt lat="38.025675" lon="14.9415833"><ele>1183.6666666666667</ele><time>2026-05-01T12:03:18.751Z</time></trkpt><trkpt lat="38.025605" lon="14.9416083"><ele>1182.3333333333333</ele><time>2026-05-01T12:03:20.751Z</time></trkpt><trkpt lat="38.0255117" lon="14.94162"><ele>1181.0</ele><time>2026-05-01T12:03:23.751Z</time></trkpt><trkpt lat="38.025455" lon="14.941545"><ele>1179.6666666666665</ele><time>2026-05-01T12:03:25.751Z</time></trkpt><trkpt lat="38.0254283" lon="14.9414017"><ele>1178.3333333333333</ele><time>2026-05-01T12:03:28.751Z</time></trkpt><trkpt lat="38.0254167" lon="14.9413033"><ele>1177.0</ele><time>2026-05-01T12:03:29.751Z</time></trkpt><trkpt lat="38.0254033" lon="14.9411917"><ele>1177.0</ele><time>2026-05-01T12:03:30.751Z</time></trkpt><trkpt lat="38.0253967" lon="14.941095"><ele>1177.0</ele><time>2026-05-01T12:03:31.751Z</time></trkpt><trkpt lat="38.0253883" lon="14.9410067"><ele>1177.0</ele><time>2026-05-01T12:03:32.751Z</time></trkpt><trkpt lat="38.0253783" lon="14.9409183"><ele>1177.0</ele><time>2026-05-01T12:03:33.751Z</time></trkpt><trkpt lat="38.02537" lon="14.9408283"><ele>1177.0</ele><time>2026-05-01T12:03:34.751Z</time></trkpt><trkpt lat="38.0253883" lon="14.9407167"><ele>1177.0</ele><time>2026-05-01T12:03:36.751Z</time></trkpt><trkpt lat="38.02532" lon="14.9406867"><ele>1177.0</ele><time>2026-05-01T12:03:40.751Z</time></trkpt><trkpt lat="38.025325" lon="14.9408"><ele>1177.0</ele><time>2026-05-01T12:03:43.751Z</time></trkpt><trkpt lat="38.0253" lon="14.9408867"><ele>1177.0</ele><time>2026-05-01T12:03:46.751Z</time></trkpt><trkpt lat="38.0252117" lon="14.9409067"><ele>1177.0</ele><time>2026-05-01T12:03:48.751Z</time></trkpt><trkpt lat="38.0251317" lon="14.9409383"><ele>1177.0</ele><time>2026-05-01T12:03:50.751Z</time></trkpt><trkpt lat="38.0250483" lon="14.9409683"><ele>1177.0</ele><time>2026-05-01T12:03:52.751Z</time></trkpt><trkpt lat="38.0249833" lon="14.9410117"><ele>1174.7142857142858</ele><time>2026-05-01T12:03:54.751Z</time></trkpt><trkpt lat="38.024915" lon="14.9410417"><ele>1172.4285714285713</ele><time>2026-05-01T12:03:56.751Z</time></trkpt><trkpt lat="38.0248433" lon="14.9410717"><ele>1170.142857142857</ele><time>2026-05-01T12:03:58.751Z</time></trkpt><trkpt lat="38.0247733" lon="14.94108"><ele>1167.857142857143</ele><time>2026-05-01T12:04:00.751Z</time></trkpt><trkpt lat="38.0247033" lon="14.9410867"><ele>1165.5714285714287</ele><time>2026-05-01T12:04:02.751Z</time></trkpt><trkpt lat="38.02463" lon="14.9411033"><ele>1163.2857142857142</ele><time>2026-05-01T12:04:04.751Z</time></trkpt><trkpt lat="38.0245467" lon="14.9411167"><ele>1161.0</ele><time>2026-05-01T12:04:06.75Z</time></trkpt><trkpt lat="38.0244683" lon="14.9411417"><ele>1161.0</ele><time>2026-05-01T12:04:08.751Z</time></trkpt><trkpt lat="38.0243917" lon="14.94118"><ele>1161.0</ele><time>2026-05-01T12:04:10.751Z</time></trkpt><trkpt lat="38.0243133" lon="14.9411967"><ele>1161.0</ele><time>2026-05-01T12:04:12.75Z</time></trkpt><trkpt lat="38.0242433" lon="14.9411983"><ele>1161.0</ele><time>2026-05-01T12:04:14.751Z</time></trkpt><trkpt lat="38.0241833" lon="14.9412333"><ele>1161.0</ele><time>2026-05-01T12:04:16.751Z</time></trkpt><trkpt lat="38.0241083" lon="14.9412867"><ele>1161.0</ele><time>2026-05-01T12:04:18.75Z</time></trkpt><trkpt lat="38.0240483" lon="14.94132"><ele>1161.0</ele><time>2026-05-01T12:04:19.751Z</time></trkpt><trkpt lat="38.0239833" lon="14.94136"><ele>1158.2</ele><time>2026-05-01T12:04:20.751Z</time></trkpt><trkpt lat="38.02392" lon="14.9414"><ele>1155.3999999999999</ele><time>2026-05-01T12:04:21.751Z</time></trkpt><trkpt lat="38.02386" lon="14.941435"><ele>1152.6</ele><time>2026-05-01T12:04:22.751Z</time></trkpt><trkpt lat="38.0237483" lon="14.9415017"><ele>1149.8</ele><time>2026-05-01T12:04:24.751Z</time></trkpt><trkpt lat="38.0236417" lon="14.941565"><ele>1147.0</ele><time>2026-05-01T12:04:26.751Z</time></trkpt><trkpt lat="38.02355" lon="14.9416467"><ele>1145.8333333333333</ele><time>2026-05-01T12:04:28.75Z</time></trkpt><trkpt lat="38.023475" lon="14.9417533"><ele>1144.6666666666665</ele><time>2026-05-01T12:04:30.751Z</time></trkpt><trkpt lat="38.0233917" lon="14.9418583"><ele>1143.5</ele><time>2026-05-01T12:04:32.751Z</time></trkpt><trkpt lat="38.023345" lon="14.9419133"><ele>1142.3333333333333</ele><time>2026-05-01T12:04:33.751Z</time></trkpt><trkpt lat="38.023295" lon="14.9419667"><ele>1141.1666666666667</ele><time>2026-05-01T12:04:34.751Z</time></trkpt><trkpt lat="38.0232433" lon="14.9420167"><ele>1140.0</ele><time>2026-05-01T12:04:35.751Z</time></trkpt><trkpt lat="38.0231933" lon="14.9420767"><ele>1139.3333333333333</ele><time>2026-05-01T12:04:36.751Z</time></trkpt><trkpt lat="38.0231433" lon="14.9421283"><ele>1138.6666666666667</ele><time>2026-05-01T12:04:37.75Z</time></trkpt><trkpt lat="38.02309" lon="14.9421867"><ele>1138.0</ele><time>2026-05-01T12:04:38.751Z</time></trkpt><trkpt lat="38.02302" lon="14.94224"><ele>1137.3333333333335</ele><time>2026-05-01T12:04:39.751Z</time></trkpt><trkpt lat="38.022925" lon="14.9422983"><ele>1136.6666666666667</ele><time>2026-05-01T12:04:40.751Z</time></trkpt><trkpt lat="38.02282" lon="14.94236"><ele>1136.0</ele><time>2026-05-01T12:04:41.751Z</time></trkpt><trkpt lat="38.0227" lon="14.9424283"><ele>1136.0</ele><time>2026-05-01T12:04:42.751Z</time></trkpt><trkpt lat="38.0225883" lon="14.942485"><ele>1136.0</ele><time>2026-05-01T12:04:43.751Z</time></trkpt><trkpt lat="38.022495" lon="14.9425367"><ele>1136.0</ele><time>2026-05-01T12:04:44.751Z</time></trkpt><trkpt lat="38.0224133" lon="14.9425917"><ele>1136.0</ele><time>2026-05-01T12:04:45.751Z</time></trkpt><trkpt lat="38.0223483" lon="14.9426367"><ele>1136.0</ele><time>2026-05-01T12:04:46.75Z</time></trkpt><trkpt lat="38.0222883" lon="14.9426883"><ele>1136.142857142857</ele><time>2026-05-01T12:04:47.751Z</time></trkpt><trkpt lat="38.0222267" lon="14.942735"><ele>1136.2857142857142</ele><time>2026-05-01T12:04:48.751Z</time></trkpt><trkpt lat="38.022165" lon="14.9427817"><ele>1136.4285714285713</ele><time>2026-05-01T12:04:49.751Z</time></trkpt><trkpt lat="38.0221" lon="14.94283"><ele>1136.5714285714284</ele><time>2026-05-01T12:04:50.751Z</time></trkpt><trkpt lat="38.0220417" lon="14.9428817"><ele>1136.7142857142858</ele><time>2026-05-01T12:04:51.751Z</time></trkpt><trkpt lat="38.0219883" lon="14.942935"><ele>1136.8571428571427</ele><time>2026-05-01T12:04:52.751Z</time></trkpt><trkpt lat="38.0219283" lon="14.94299"><ele>1137.0</ele><time>2026-05-01T12:04:53.751Z</time></trkpt><trkpt lat="38.0218517" lon="14.9430483"><ele>1137.0</ele><time>2026-05-01T12:04:54.751Z</time></trkpt><trkpt lat="38.02178" lon="14.9430967"><ele>1137.0</ele><time>2026-05-01T12:04:55.751Z</time></trkpt><trkpt lat="38.0217217" lon="14.94314"><ele>1137.0</ele><time>2026-05-01T12:04:56.751Z</time></trkpt><trkpt lat="38.0216683" lon="14.9431833"><ele>1137.0</ele><time>2026-05-01T12:04:57.751Z</time></trkpt><trkpt lat="38.02156" lon="14.94326"><ele>1137.0</ele><time>2026-05-01T12:04:59.751Z</time></trkpt><trkpt lat="38.0214667" lon="14.943335"><ele>1137.0</ele><time>2026-05-01T12:05:01.752Z</time></trkpt><trkpt lat="38.0213617" lon="14.9433833"><ele>1136.2</ele><time>2026-05-01T12:05:03.752Z</time></trkpt><trkpt lat="38.0212467" lon="14.943415"><ele>1135.4</ele><time>2026-05-01T12:05:05.751Z</time></trkpt><trkpt lat="38.0211383" lon="14.9434417"><ele>1134.6</ele><time>2026-05-01T12:05:07.752Z</time></trkpt><trkpt lat="38.0210317" lon="14.9434533"><ele>1133.8</ele><time>2026-05-01T12:05:09.751Z</time></trkpt><trkpt lat="38.0209633" lon="14.9434383"><ele>1133.0</ele><time>2026-05-01T12:05:10.752Z</time></trkpt><trkpt lat="38.0208717" lon="14.9434333"><ele>1132.0</ele><time>2026-05-01T12:05:11.752Z</time></trkpt><trkpt lat="38.020765" lon="14.9434417"><ele>1131.0</ele><time>2026-05-01T12:05:12.752Z</time></trkpt><trkpt lat="38.0206333" lon="14.94344"><ele>1130.0</ele><time>2026-05-01T12:05:13.752Z</time></trkpt><trkpt lat="38.02049" lon="14.94345"><ele>1129.0</ele><time>2026-05-01T12:05:14.752Z</time></trkpt><trkpt lat="38.0203533" lon="14.9434617"><ele>1129.0</ele><time>2026-05-01T12:05:15.752Z</time></trkpt><trkpt lat="38.0202267" lon="14.9434817"><ele>1129.0</ele><time>2026-05-01T12:05:16.752Z</time></trkpt><trkpt lat="38.0201167" lon="14.9435067"><ele>1129.0</ele><time>2026-05-01T12:05:17.752Z</time></trkpt><trkpt lat="38.0200167" lon="14.94353"><ele>1129.0</ele><time>2026-05-01T12:05:18.752Z</time></trkpt><trkpt lat="38.0199117" lon="14.943555"><ele>1129.0</ele><time>2026-05-01T12:05:19.752Z</time></trkpt><trkpt lat="38.0198067" lon="14.94357"><ele>1127.4</ele><time>2026-05-01T12:05:20.752Z</time></trkpt><trkpt lat="38.0197067" lon="14.9435733"><ele>1125.8000000000002</ele><time>2026-05-01T12:05:21.752Z</time></trkpt><trkpt lat="38.01961" lon="14.9435867"><ele>1124.1999999999998</ele><time>2026-05-01T12:05:22.752Z</time></trkpt><trkpt lat="38.01951" lon="14.9435833"><ele>1122.6</ele><time>2026-05-01T12:05:23.751Z</time></trkpt><trkpt lat="38.0194067" lon="14.9435767"><ele>1121.0</ele><time>2026-05-01T12:05:24.751Z</time></trkpt><trkpt lat="38.019315" lon="14.9435733"><ele>1121.0</ele><time>2026-05-01T12:05:25.752Z</time></trkpt><trkpt lat="38.01923" lon="14.9435667"><ele>1121.0</ele><time>2026-05-01T12:05:26.752Z</time></trkpt><trkpt lat="38.0191567" lon="14.943565"><ele>1121.0</ele><time>2026-05-01T12:05:27.751Z</time></trkpt><trkpt lat="38.0190867" lon="14.9435633"><ele>1121.0</ele><time>2026-05-01T12:05:28.751Z</time></trkpt><trkpt lat="38.0189817" lon="14.9435417"><ele>1121.0</ele><time>2026-05-01T12:05:30.752Z</time></trkpt><trkpt lat="38.0189083" lon="14.9436083"><ele>1121.0</ele><time>2026-05-01T12:05:33.752Z</time></trkpt><trkpt lat="38.0189733" lon="14.94365"><ele>1121.0</ele><time>2026-05-01T12:05:36.752Z</time></trkpt><trkpt lat="38.019065" lon="14.9436033"><ele>1121.0</ele><time>2026-05-01T12:05:38.752Z</time></trkpt><trkpt lat="38.019145" lon="14.9435717"><ele>1121.0</ele><time>2026-05-01T12:05:39.752Z</time></trkpt><trkpt lat="38.0192483" lon="14.9435583"><ele>1121.0</ele><time>2026-05-01T12:05:40.752Z</time></trkpt><trkpt lat="38.019375" lon="14.9435767"><ele>1121.0</ele><time>2026-05-01T12:05:41.752Z</time></trkpt><trkpt lat="38.0195167" lon="14.9436033"><ele>1121.0</ele><time>2026-05-01T12:05:42.752Z</time></trkpt><trkpt lat="38.0196683" lon="14.9436183"><ele>1121.0</ele><time>2026-05-01T12:05:43.752Z</time></trkpt><trkpt lat="38.0197933" lon="14.943605"><ele>1121.0</ele><time>2026-05-01T12:05:44.752Z</time></trkpt><trkpt lat="38.019895" lon="14.94358"><ele>1121.0</ele><time>2026-05-01T12:05:45.752Z</time></trkpt><trkpt lat="38.0199917" lon="14.9435533"><ele>1123.0</ele><time>2026-05-01T12:05:46.751Z</time></trkpt><trkpt lat="38.020095" lon="14.9435267"><ele>1125.0</ele><time>2026-05-01T12:05:47.752Z</time></trkpt><trkpt lat="38.0202017" lon="14.943495"><ele>1127.0</ele><time>2026-05-01T12:05:48.752Z</time></trkpt><trkpt lat="38.0203183" lon="14.9434717"><ele>1129.0</ele><time>2026-05-01T12:05:49.751Z</time></trkpt><trkpt lat="38.0204383" lon="14.943455"><ele>1129.0</ele><time>2026-05-01T12:05:50.752Z</time></trkpt><trkpt lat="38.0205717" lon="14.9434467"><ele>1129.0</ele><time>2026-05-01T12:05:51.752Z</time></trkpt><trkpt lat="38.0207133" lon="14.9434483"><ele>1129.0</ele><time>2026-05-01T12:05:52.751Z</time></trkpt><trkpt lat="38.0208617" lon="14.94345"><ele>1129.0</ele><time>2026-05-01T12:05:53.752Z</time></trkpt><trkpt lat="38.0210033" lon="14.9434517"><ele>1130.0</ele><time>2026-05-01T12:05:54.752Z</time></trkpt><trkpt lat="38.02114" lon="14.9434517"><ele>1131.0</ele><time>2026-05-01T12:05:55.752Z</time></trkpt><trkpt lat="38.0212633" lon="14.9434267"><ele>1132.0</ele><time>2026-05-01T12:05:56.751Z</time></trkpt><trkpt lat="38.021395" lon="14.943365"><ele>1133.0</ele><time>2026-05-01T12:05:57.752Z</time></trkpt><trkpt lat="38.0215267" lon="14.9432867"><ele>1134.0</ele><time>2026-05-01T12:05:58.752Z</time></trkpt><trkpt lat="38.0216517" lon="14.9432167"><ele>1135.0</ele><time>2026-05-01T12:05:59.751Z</time></trkpt><trkpt lat="38.0217567" lon="14.943135"><ele>1136.0</ele><time>2026-05-01T12:06:00.752Z</time></trkpt><trkpt lat="38.021855" lon="14.943055"><ele>1137.0</ele><time>2026-05-01T12:06:01.752Z</time></trkpt><trkpt lat="38.0219567" lon="14.9429683"><ele>1137.0</ele><time>2026-05-01T12:06:02.752Z</time></trkpt><trkpt lat="38.0220483" lon="14.9428867"><ele>1137.0</ele><time>2026-05-01T12:06:03.752Z</time></trkpt><trkpt lat="38.02214" lon="14.9428117"><ele>1137.0</ele><time>2026-05-01T12:06:04.752Z</time></trkpt><trkpt lat="38.0222267" lon="14.9427383"><ele>1137.0</ele><time>2026-05-01T12:06:05.752Z</time></trkpt><trkpt lat="38.022315" lon="14.9426667"><ele>1137.0</ele><time>2026-05-01T12:06:06.752Z</time></trkpt><trkpt lat="38.0224067" lon="14.9426067"><ele>1136.8333333333333</ele><time>2026-05-01T12:06:07.752Z</time></trkpt><trkpt lat="38.0224867" lon="14.9425567"><ele>1136.6666666666667</ele><time>2026-05-01T12:06:08.751Z</time></trkpt><trkpt lat="38.0225683" lon="14.942535"><ele>1136.5</ele><time>2026-05-01T12:06:09.751Z</time></trkpt><trkpt lat="38.0226533" lon="14.9425383"><ele>1136.3333333333335</ele><time>2026-05-01T12:06:10.752Z</time></trkpt><trkpt lat="38.0227433" lon="14.9425683"><ele>1136.1666666666667</ele><time>2026-05-01T12:06:11.752Z</time></trkpt><trkpt lat="38.0228283" lon="14.9425883"><ele>1136.0</ele><time>2026-05-01T12:06:12.752Z</time></trkpt><trkpt lat="38.0228967" lon="14.942605"><ele>1135.5</ele><time>2026-05-01T12:06:13.752Z</time></trkpt><trkpt lat="38.0229683" lon="14.942635"><ele>1135.0</ele><time>2026-05-01T12:06:15.752Z</time></trkpt><trkpt lat="38.0230617" lon="14.9426733"><ele>1134.5</ele><time>2026-05-01T12:06:18.752Z</time></trkpt><trkpt lat="38.023125" lon="14.9427067"><ele>1134.0</ele><time>2026-05-01T12:06:21.752Z</time></trkpt><trkpt lat="38.0231983" lon="14.9427267"><ele>1133.5</ele><time>2026-05-01T12:06:28.752Z</time></trkpt><trkpt lat="38.0232717" lon="14.9427533"><ele>1133.0</ele><time>2026-05-01T12:06:31.752Z</time></trkpt><trkpt lat="38.0233467" lon="14.94277"><ele>1132.5</ele><time>2026-05-01T12:06:33.752Z</time></trkpt><trkpt lat="38.0234483" lon="14.9428217"><ele>1132.0</ele><time>2026-05-01T12:06:35.752Z</time></trkpt><trkpt lat="38.0235033" lon="14.9428633"><ele>1131.5</ele><time>2026-05-01T12:06:36.752Z</time></trkpt><trkpt lat="38.02356" lon="14.9429233"><ele>1131.0</ele><time>2026-05-01T12:06:37.751Z</time></trkpt><trkpt lat="38.0236183" lon="14.943005"><ele>1130.5</ele><time>2026-05-01T12:06:38.752Z</time></trkpt><trkpt lat="38.02367" lon="14.9430817"><ele>1130.0</ele><time>2026-05-01T12:06:39.752Z</time></trkpt><trkpt lat="38.0237317" lon="14.9431583"><ele>1130.0</ele><time>2026-05-01T12:06:40.752Z</time></trkpt><trkpt lat="38.0238017" lon="14.943225"><ele>1130.0</ele><time>2026-05-01T12:06:41.752Z</time></trkpt><trkpt lat="38.0238683" lon="14.9432733"><ele>1130.0</ele><time>2026-05-01T12:06:42.752Z</time></trkpt><trkpt lat="38.023945" lon="14.9433283"><ele>1130.0</ele><time>2026-05-01T12:06:44.752Z</time></trkpt><trkpt lat="38.02398" lon="14.9434167"><ele>1130.0</ele><time>2026-05-01T12:07:26.752Z</time></trkpt><trkpt lat="38.0240354" lon="14.9435372"><ele>1130.0</ele><time>2026-05-01T12:13:06.753Z</time></trkpt><trkpt lat="38.0240603" lon="14.943624"><ele>1131.0</ele><time>2026-05-01T12:13:09.753Z</time></trkpt><trkpt lat="38.0240947" lon="14.9437274"><ele>1132.0</ele><time>2026-05-01T12:13:13.753Z</time></trkpt><trkpt lat="38.0241429" lon="14.9438115"><ele>1133.0</ele><time>2026-05-01T12:13:16.753Z</time></trkpt><trkpt lat="38.0241564" lon="14.9439194"><ele>1134.0</ele><time>2026-05-01T12:13:19.753Z</time></trkpt><trkpt lat="38.0241446" lon="14.9440497"><ele>1135.0</ele><time>2026-05-01T12:13:21.753Z</time></trkpt><trkpt lat="38.0241332" lon="14.9441287"><ele>1136.0</ele><time>2026-05-01T12:13:22.753Z</time></trkpt><trkpt lat="38.0240786" lon="14.944269"><ele>1133.5</ele><time>2026-05-01T12:13:24.753Z</time></trkpt><trkpt lat="38.024034" lon="14.9443395"><ele>1131.0</ele><time>2026-05-01T12:13:25.753Z</time></trkpt><trkpt lat="38.0239785" lon="14.9444035"><ele>1128.5</ele><time>2026-05-01T12:13:26.753Z</time></trkpt><trkpt lat="38.023901" lon="14.9444954"><ele>1126.0</ele><time>2026-05-01T12:13:28.753Z</time></trkpt><trkpt lat="38.0238393" lon="14.9445673"><ele>1123.5</ele><time>2026-05-01T12:13:30.753Z</time></trkpt><trkpt lat="38.0237792" lon="14.9446619"><ele>1121.0</ele><time>2026-05-01T12:13:32.753Z</time></trkpt><trkpt lat="38.0237217" lon="14.9447498"><ele>1121.0</ele><time>2026-05-01T12:13:34.753Z</time></trkpt><trkpt lat="38.0236624" lon="14.9448502"><ele>1121.0</ele><time>2026-05-01T12:13:36.753Z</time></trkpt><trkpt lat="38.0235917" lon="14.94497"><ele>1121.0</ele><time>2026-05-01T12:13:38.753Z</time></trkpt><trkpt lat="38.0235295" lon="14.9450587"><ele>1121.0</ele><time>2026-05-01T12:13:40.753Z</time></trkpt><trkpt lat="38.023478" lon="14.9451367"><ele>1121.0</ele><time>2026-05-01T12:13:42.753Z</time></trkpt><trkpt lat="38.0234265" lon="14.9452232"><ele>1119.6666666666667</ele><time>2026-05-01T12:13:44.752Z</time></trkpt><trkpt lat="38.0233938" lon="14.9453128"><ele>1118.3333333333335</ele><time>2026-05-01T12:13:46.753Z</time></trkpt><trkpt lat="38.0233918" lon="14.9454142"><ele>1117.0</ele><time>2026-05-01T12:13:48.753Z</time></trkpt><trkpt lat="38.023409" lon="14.945514"><ele>1115.6666666666667</ele><time>2026-05-01T12:13:50.753Z</time></trkpt><trkpt lat="38.0234604" lon="14.9456123"><ele>1114.3333333333333</ele><time>2026-05-01T12:13:52.753Z</time></trkpt><trkpt lat="38.0235232" lon="14.9456899"><ele>1113.0</ele><time>2026-05-01T12:13:54.753Z</time></trkpt><trkpt lat="38.0235778" lon="14.94576"><ele>1113.0</ele><time>2026-05-01T12:13:56.753Z</time></trkpt><trkpt lat="38.0236318" lon="14.9458226"><ele>1113.0</ele><time>2026-05-01T12:13:58.753Z</time></trkpt><trkpt lat="38.0236867" lon="14.94587"><ele>1113.0</ele><time>2026-05-01T12:14:08.754Z</time></trkpt><trkpt lat="38.02375" lon="14.9459183"><ele>1113.0</ele><time>2026-05-01T12:14:10.754Z</time></trkpt><trkpt lat="38.0238233" lon="14.945975"><ele>1113.0</ele><time>2026-05-01T12:14:12.754Z</time></trkpt><trkpt lat="38.0238717" lon="14.9460383"><ele>1113.0</ele><time>2026-05-01T12:14:14.754Z</time></trkpt><trkpt lat="38.023925" lon="14.9461"><ele>1113.0</ele><time>2026-05-01T12:14:16.754Z</time></trkpt><trkpt lat="38.0240067" lon="14.9461783"><ele>1111.6666666666667</ele><time>2026-05-01T12:14:19.754Z</time></trkpt><trkpt lat="38.02405" lon="14.9462367"><ele>1110.3333333333333</ele><time>2026-05-01T12:14:21.754Z</time></trkpt><trkpt lat="38.0241017" lon="14.9462967"><ele>1109.0</ele><time>2026-05-01T12:14:23.754Z</time></trkpt><trkpt lat="38.02416" lon="14.946355"><ele>1107.6666666666665</ele><time>2026-05-01T12:14:25.754Z</time></trkpt><trkpt lat="38.0242183" lon="14.9464167"><ele>1106.3333333333333</ele><time>2026-05-01T12:14:27.754Z</time></trkpt><trkpt lat="38.024275" lon="14.946485"><ele>1105.0</ele><time>2026-05-01T12:14:30.754Z</time></trkpt><trkpt lat="38.02437" lon="14.9465633"><ele>1105.0</ele><time>2026-05-01T12:14:37.754Z</time></trkpt><trkpt lat="38.02444" lon="14.9465833"><ele>1105.0</ele><time>2026-05-01T12:14:40.754Z</time></trkpt><trkpt lat="38.0245117" lon="14.9466117"><ele>1105.0</ele><time>2026-05-01T12:14:43.754Z</time></trkpt><trkpt lat="38.0245867" lon="14.94666"><ele>1105.0</ele><time>2026-05-01T12:14:46.754Z</time></trkpt><trkpt lat="38.0246533" lon="14.94672"><ele>1105.0</ele><time>2026-05-01T12:14:49.754Z</time></trkpt><trkpt lat="38.0247083" lon="14.9468117"><ele>1105.0</ele><time>2026-05-01T12:14:52.754Z</time></trkpt><trkpt lat="38.0247383" lon="14.94691"><ele>1103.8333333333333</ele><time>2026-05-01T12:14:55.754Z</time></trkpt><trkpt lat="38.0247583" lon="14.9470217"><ele>1102.6666666666665</ele><time>2026-05-01T12:14:58.754Z</time></trkpt><trkpt lat="38.024795" lon="14.947125"><ele>1101.5</ele><time>2026-05-01T12:15:01.754Z</time></trkpt><trkpt lat="38.0248333" lon="14.947195"><ele>1100.3333333333333</ele><time>2026-05-01T12:15:03.754Z</time></trkpt><trkpt lat="38.0248817" lon="14.9472933"><ele>1099.1666666666667</ele><time>2026-05-01T12:15:06.754Z</time></trkpt><trkpt lat="38.024925" lon="14.9473633"><ele>1098.0</ele><time>2026-05-01T12:15:08.754Z</time></trkpt><trkpt lat="38.0249833" lon="14.947445"><ele>1098.0</ele><time>2026-05-01T12:15:11.754Z</time></trkpt><trkpt lat="38.0250483" lon="14.947505"><ele>1098.0</ele><time>2026-05-01T12:15:14.754Z</time></trkpt><trkpt lat="38.0251183" lon="14.9475483"><ele>1098.0</ele><time>2026-05-01T12:15:16.754Z</time></trkpt><trkpt lat="38.025195" lon="14.9475933"><ele>1098.0</ele><time>2026-05-01T12:15:18.754Z</time></trkpt><trkpt lat="38.025235" lon="14.9476767"><ele>1098.0</ele><time>2026-05-01T12:15:20.754Z</time></trkpt><trkpt lat="38.0252" lon="14.94775"><ele>1098.0</ele><time>2026-05-01T12:15:22.754Z</time></trkpt><trkpt lat="38.0251083" lon="14.9477767"><ele>1096.0</ele><time>2026-05-01T12:15:24.754Z</time></trkpt><trkpt lat="38.0250467" lon="14.9477533"><ele>1094.0</ele><time>2026-05-01T12:15:25.754Z</time></trkpt><trkpt lat="38.0249683" lon="14.9477017"><ele>1092.0</ele><time>2026-05-01T12:15:26.754Z</time></trkpt><trkpt lat="38.02487" lon="14.9476367"><ele>1090.0</ele><time>2026-05-01T12:15:27.754Z</time></trkpt><trkpt lat="38.0247667" lon="14.9475733"><ele>1088.0</ele><time>2026-05-01T12:15:28.754Z</time></trkpt><trkpt lat="38.0246833" lon="14.947525"><ele>1088.0</ele><time>2026-05-01T12:15:29.753Z</time></trkpt><trkpt lat="38.0246083" lon="14.9474917"><ele>1088.0</ele><time>2026-05-01T12:15:30.753Z</time></trkpt><trkpt lat="38.0245367" lon="14.9474633"><ele>1088.0</ele><time>2026-05-01T12:15:31.754Z</time></trkpt><trkpt lat="38.024475" lon="14.9474383"><ele>1088.0</ele><time>2026-05-01T12:15:32.753Z</time></trkpt><trkpt lat="38.0244133" lon="14.94742"><ele>1088.0</ele><time>2026-05-01T12:15:33.754Z</time></trkpt><trkpt lat="38.024285" lon="14.9474033"><ele>1088.0</ele><time>2026-05-01T12:15:35.754Z</time></trkpt><trkpt lat="38.0241683" lon="14.9473717"><ele>1085.8333333333335</ele><time>2026-05-01T12:15:37.754Z</time></trkpt><trkpt lat="38.0241" lon="14.94733"><ele>1083.6666666666667</ele><time>2026-05-01T12:15:38.754Z</time></trkpt><trkpt lat="38.02404" lon="14.9472967"><ele>1081.5</ele><time>2026-05-01T12:15:39.754Z</time></trkpt><trkpt lat="38.0239883" lon="14.9472483"><ele>1079.3333333333333</ele><time>2026-05-01T12:15:40.754Z</time></trkpt><trkpt lat="38.0239017" lon="14.9471467"><ele>1077.1666666666665</ele><time>2026-05-01T12:15:42.754Z</time></trkpt><trkpt lat="38.02385" lon="14.9470733"><ele>1075.0</ele><time>2026-05-01T12:15:43.753Z</time></trkpt><trkpt lat="38.0237967" lon="14.9470017"><ele>1075.0</ele><time>2026-05-01T12:15:44.754Z</time></trkpt><trkpt lat="38.0237083" lon="14.9469017"><ele>1075.0</ele><time>2026-05-01T12:15:46.754Z</time></trkpt><trkpt lat="38.0236067" lon="14.9468533"><ele>1075.0</ele><time>2026-05-01T12:15:48.754Z</time></trkpt><trkpt lat="38.0235017" lon="14.9468417"><ele>1075.0</ele><time>2026-05-01T12:15:50.754Z</time></trkpt><trkpt lat="38.0234267" lon="14.946855"><ele>1075.0</ele><time>2026-05-01T12:15:52.754Z</time></trkpt><trkpt lat="38.023355" lon="14.946895"><ele>1075.5</ele><time>2026-05-01T12:16:52.753Z</time></trkpt><trkpt lat="38.0232717" lon="14.9469333"><ele>1076.0</ele><time>2026-05-01T12:16:53.754Z</time></trkpt><trkpt lat="38.0231783" lon="14.946985"><ele>1076.5</ele><time>2026-05-01T12:16:54.754Z</time></trkpt><trkpt lat="38.0230967" lon="14.94704"><ele>1077.0</ele><time>2026-05-01T12:16:55.754Z</time></trkpt><trkpt lat="38.0230333" lon="14.947105"><ele>1077.5</ele><time>2026-05-01T12:16:56.753Z</time></trkpt><trkpt lat="38.0229917" lon="14.9471733"><ele>1078.0</ele><time>2026-05-01T12:16:57.754Z</time></trkpt><trkpt lat="38.0229567" lon="14.9472467"><ele>1078.0</ele><time>2026-05-01T12:16:58.754Z</time></trkpt><trkpt lat="38.0229283" lon="14.9473267"><ele>1078.0</ele><time>2026-05-01T12:16:59.754Z</time></trkpt><trkpt lat="38.0228717" lon="14.9474533"><ele>1078.0</ele><time>2026-05-01T12:17:01.754Z</time></trkpt><trkpt lat="38.0227683" lon="14.9475433"><ele>1078.0</ele><time>2026-05-01T12:17:03.754Z</time></trkpt><trkpt lat="38.022645" lon="14.947575"><ele>1078.0</ele><time>2026-05-01T12:17:05.754Z</time></trkpt><trkpt lat="38.0225817" lon="14.94757"><ele>1075.5</ele><time>2026-05-01T12:17:06.754Z</time></trkpt><trkpt lat="38.022515" lon="14.9475617"><ele>1073.0</ele><time>2026-05-01T12:17:07.754Z</time></trkpt><trkpt lat="38.0224233" lon="14.94753"><ele>1070.5</ele><time>2026-05-01T12:17:09.753Z</time></trkpt><trkpt lat="38.022355" lon="14.9475083"><ele>1068.0</ele><time>2026-05-01T12:17:11.754Z</time></trkpt><trkpt lat="38.0222833" lon="14.94748"><ele>1065.5</ele><time>2026-05-01T12:17:13.754Z</time></trkpt><trkpt lat="38.0222033" lon="14.9474333"><ele>1063.0</ele><time>2026-05-01T12:17:16.754Z</time></trkpt><trkpt lat="38.02214" lon="14.9473867"><ele>1063.0</ele><time>2026-05-01T12:17:18.754Z</time></trkpt><trkpt lat="38.02206" lon="14.947325"><ele>1063.0</ele><time>2026-05-01T12:17:20.754Z</time></trkpt><trkpt lat="38.0219917" lon="14.9472717"><ele>1063.0</ele><time>2026-05-01T12:17:22.754Z</time></trkpt><trkpt lat="38.0219383" lon="14.9472117"><ele>1063.0</ele><time>2026-05-01T12:17:24.754Z</time></trkpt><trkpt lat="38.0218763" lon="14.9471572"><ele>1063.0</ele><time>2026-05-01T12:18:12.754Z</time></trkpt><trkpt lat="38.02183" lon="14.9470645"><ele>1063.0</ele><time>2026-05-01T12:18:14.754Z</time></trkpt><trkpt lat="38.0217757" lon="14.9469744"><ele>1063.0</ele><time>2026-05-01T12:18:16.754Z</time></trkpt><trkpt lat="38.0217523" lon="14.9468969"><ele>1063.0</ele><time>2026-05-01T12:18:18.754Z</time></trkpt><trkpt lat="38.0217469" lon="14.9467931"><ele>1063.0</ele><time>2026-05-01T12:18:20.754Z</time></trkpt><trkpt lat="38.0217592" lon="14.9466954"><ele>1063.0</ele><time>2026-05-01T12:18:22.754Z</time></trkpt><trkpt lat="38.0217704" lon="14.9465883"><ele>1063.0</ele><time>2026-05-01T12:18:24.754Z</time></trkpt><trkpt lat="38.0217996" lon="14.9465047"><ele>1063.0</ele><time>2026-05-01T12:18:26.755Z</time></trkpt><trkpt lat="38.0218406" lon="14.9464171"><ele>1064.0</ele><time>2026-05-01T12:18:28.755Z</time></trkpt><trkpt lat="38.0218787" lon="14.946338"><ele>1065.0</ele><time>2026-05-01T12:18:30.755Z</time></trkpt><trkpt lat="38.0219266" lon="14.9462785"><ele>1066.0</ele><time>2026-05-01T12:18:32.755Z</time></trkpt><trkpt lat="38.021961" lon="14.9462083"><ele>1067.0</ele><time>2026-05-01T12:18:34.755Z</time></trkpt><trkpt lat="38.0218819" lon="14.9461698"><ele>1068.0</ele><time>2026-05-01T12:18:37.755Z</time></trkpt><trkpt lat="38.021808" lon="14.94619"><ele>1069.0</ele><time>2026-05-01T12:18:39.755Z</time></trkpt><trkpt lat="38.0217517" lon="14.9462355"><ele>1070.0</ele><time>2026-05-01T12:18:41.755Z</time></trkpt><trkpt lat="38.0217071" lon="14.9462943"><ele>1070.0</ele><time>2026-05-01T12:18:43.755Z</time></trkpt><trkpt lat="38.0216541" lon="14.946361"><ele>1070.0</ele><time>2026-05-01T12:18:45.755Z</time></trkpt><trkpt lat="38.0215786" lon="14.946414"><ele>1070.0</ele><time>2026-05-01T12:18:47.755Z</time></trkpt><trkpt lat="38.0215158" lon="14.9464591"><ele>1070.0</ele><time>2026-05-01T12:18:49.755Z</time></trkpt><trkpt lat="38.0214601" lon="14.946508"><ele>1070.0</ele><time>2026-05-01T12:18:51.755Z</time></trkpt><trkpt lat="38.0213984" lon="14.9465741"><ele>1070.0</ele><time>2026-05-01T12:18:53.755Z</time></trkpt><trkpt lat="38.0213226" lon="14.9466496"><ele>1067.0</ele><time>2026-05-01T12:18:55.755Z</time></trkpt><trkpt lat="38.0212495" lon="14.9467089"><ele>1064.0</ele><time>2026-05-01T12:18:57.755Z</time></trkpt><trkpt lat="38.0211804" lon="14.946774"><ele>1061.0</ele><time>2026-05-01T12:18:59.755Z</time></trkpt><trkpt lat="38.0211249" lon="14.9468441"><ele>1058.0</ele><time>2026-05-01T12:19:01.755Z</time></trkpt><trkpt lat="38.0210813" lon="14.9469085"><ele>1055.0</ele><time>2026-05-01T12:19:03.754Z</time></trkpt><trkpt lat="38.0210516" lon="14.9469943"><ele>1052.0</ele><time>2026-05-01T12:19:05.755Z</time></trkpt><trkpt lat="38.0210205" lon="14.9470883"><ele>1049.8333333333335</ele><time>2026-05-01T12:19:07.755Z</time></trkpt><trkpt lat="38.0210188" lon="14.9472005"><ele>1047.6666666666667</ele><time>2026-05-01T12:19:09.755Z</time></trkpt><trkpt lat="38.0210464" lon="14.9473041"><ele>1045.5</ele><time>2026-05-01T12:19:11.755Z</time></trkpt><trkpt lat="38.0210906" lon="14.9474123"><ele>1043.3333333333333</ele><time>2026-05-01T12:19:13.755Z</time></trkpt><trkpt lat="38.0211223" lon="14.9474931"><ele>1041.1666666666665</ele><time>2026-05-01T12:19:15.755Z</time></trkpt><trkpt lat="38.0211555" lon="14.947606"><ele>1039.0</ele><time>2026-05-01T12:19:18.755Z</time></trkpt><trkpt lat="38.0212059" lon="14.9476977"><ele>1036.0</ele><time>2026-05-01T12:19:20.755Z</time></trkpt><trkpt lat="38.0212539" lon="14.9477826"><ele>1033.0</ele><time>2026-05-01T12:19:22.755Z</time></trkpt><trkpt lat="38.0213034" lon="14.9478718"><ele>1030.0</ele><time>2026-05-01T12:19:24.754Z</time></trkpt><trkpt lat="38.0213636" lon="14.947971"><ele>1027.0</ele><time>2026-05-01T12:19:26.755Z</time></trkpt><trkpt lat="38.0214028" lon="14.948039"><ele>1023.9999999999999</ele><time>2026-05-01T12:19:28.754Z</time></trkpt><trkpt lat="38.0214547" lon="14.9480902"><ele>1021.0</ele><time>2026-05-01T12:20:50.755Z</time></trkpt><trkpt lat="38.0215002" lon="14.9481476"><ele>1020.9999999999999</ele><time>2026-05-01T12:20:52.755Z</time></trkpt><trkpt lat="38.0215526" lon="14.9482062"><ele>1021.0</ele><time>2026-05-01T12:20:54.755Z</time></trkpt><trkpt lat="38.0216014" lon="14.9482578"><ele>1021.0</ele><time>2026-05-01T12:20:56.754Z</time></trkpt><trkpt lat="38.0216514" lon="14.9483419"><ele>1021.0</ele><time>2026-05-01T12:20:58.754Z</time></trkpt><trkpt lat="38.021693" lon="14.9484319"><ele>1020.9999999999999</ele><time>2026-05-01T12:21:00.755Z</time></trkpt><trkpt lat="38.0217221" lon="14.9485156"><ele>1021.0</ele><time>2026-05-01T12:21:02.755Z</time></trkpt><trkpt lat="38.0217375" lon="14.9486278"><ele>1021.8571428571429</ele><time>2026-05-01T12:21:04.754Z</time></trkpt><trkpt lat="38.021769" lon="14.9487186"><ele>1022.7142857142858</ele><time>2026-05-01T12:21:06.755Z</time></trkpt><trkpt lat="38.021796" lon="14.9488026"><ele>1023.5714285714287</ele><time>2026-05-01T12:21:08.755Z</time></trkpt><trkpt lat="38.0218132" lon="14.9488948"><ele>1024.4285714285716</ele><time>2026-05-01T12:21:10.755Z</time></trkpt><trkpt lat="38.0218297" lon="14.948977"><ele>1025.2857142857144</ele><time>2026-05-01T12:21:12.755Z</time></trkpt><trkpt lat="38.0218397" lon="14.9490566"><ele>1026.142857142857</ele><time>2026-05-01T12:21:14.755Z</time></trkpt><trkpt lat="38.0218418" lon="14.9491427"><ele>1027.0</ele><time>2026-05-01T12:21:16.755Z</time></trkpt><trkpt lat="38.0218491" lon="14.9492414"><ele>1024.8333333333333</ele><time>2026-05-01T12:21:18.755Z</time></trkpt><trkpt lat="38.0218448" lon="14.9493839"><ele>1022.6666666666666</ele><time>2026-05-01T12:21:20.754Z</time></trkpt><trkpt lat="38.0218504" lon="14.9495118"><ele>1020.5</ele><time>2026-05-01T12:21:22.755Z</time></trkpt><trkpt lat="38.02186" lon="14.9496117"><ele>1018.3333333333333</ele><time>2026-05-01T12:21:24.755Z</time></trkpt><trkpt lat="38.0218783" lon="14.9497067"><ele>1016.1666666666666</ele><time>2026-05-01T12:21:26.755Z</time></trkpt><trkpt lat="38.0219321" lon="14.9497798"><ele>1014.0</ele><time>2026-05-01T12:22:57.756Z</time></trkpt><trkpt lat="38.0219845" lon="14.9498826"><ele>1014.0</ele><time>2026-05-01T12:23:00.756Z</time></trkpt><trkpt lat="38.0220234" lon="14.9499512"><ele>1014.0</ele><time>2026-05-01T12:23:02.756Z</time></trkpt><trkpt lat="38.0220612" lon="14.9500154"><ele>1014.0</ele><time>2026-05-01T12:23:04.756Z</time></trkpt><trkpt lat="38.0221115" lon="14.9500838"><ele>1014.0</ele><time>2026-05-01T12:23:06.756Z</time></trkpt><trkpt lat="38.0221578" lon="14.9501493"><ele>1014.0</ele><time>2026-05-01T12:23:08.756Z</time></trkpt><trkpt lat="38.022225" lon="14.9502083"><ele>1014.0</ele><time>2026-05-01T12:23:11.755Z</time></trkpt><trkpt lat="38.0223068" lon="14.9502886"><ele>1012.6666666666666</ele><time>2026-05-01T12:28:31.756Z</time></trkpt><trkpt lat="38.0223754" lon="14.9503414"><ele>1011.3333333333333</ele><time>2026-05-01T12:28:36.756Z</time></trkpt><trkpt lat="38.0224545" lon="14.9503903"><ele>1010.0</ele><time>2026-05-01T12:28:39.756Z</time></trkpt><trkpt lat="38.022539" lon="14.950423"><ele>1008.6666666666666</ele><time>2026-05-01T12:28:41.755Z</time></trkpt><trkpt lat="38.0226402" lon="14.950453"><ele>1007.3333333333333</ele><time>2026-05-01T12:28:43.756Z</time></trkpt><trkpt lat="38.022725" lon="14.9504532"><ele>1006.0</ele><time>2026-05-01T12:28:45.756Z</time></trkpt><trkpt lat="38.0227908" lon="14.9504586"><ele>1005.9999999999999</ele><time>2026-05-01T12:28:47.756Z</time></trkpt><trkpt lat="38.0228626" lon="14.9504756"><ele>1006.0</ele><time>2026-05-01T12:28:50.755Z</time></trkpt><trkpt lat="38.0229252" lon="14.9504899"><ele>1006.0</ele><time>2026-05-01T12:29:09.756Z</time></trkpt><trkpt lat="38.0229859" lon="14.9505583"><ele>1006.0</ele><time>2026-05-01T12:29:11.756Z</time></trkpt><trkpt lat="38.023007" lon="14.9506415"><ele>1005.9999999999999</ele><time>2026-05-01T12:29:13.755Z</time></trkpt><trkpt lat="38.0230264" lon="14.9507305"><ele>1006.0</ele><time>2026-05-01T12:29:15.756Z</time></trkpt><trkpt lat="38.0230691" lon="14.950847"><ele>1005.4999999999999</ele><time>2026-05-01T12:29:17.756Z</time></trkpt><trkpt lat="38.0231182" lon="14.9509592"><ele>1005.0</ele><time>2026-05-01T12:29:19.756Z</time></trkpt><trkpt lat="38.0231669" lon="14.9510495"><ele>1004.5</ele><time>2026-05-01T12:29:21.757Z</time></trkpt><trkpt lat="38.0232002" lon="14.9511195"><ele>1004.0</ele><time>2026-05-01T12:29:23.757Z</time></trkpt><trkpt lat="38.0232417" lon="14.9511886"><ele>1003.4999999999999</ele><time>2026-05-01T12:29:39.757Z</time></trkpt><trkpt lat="38.0232963" lon="14.9512483"><ele>1003.0</ele><time>2026-05-01T12:29:41.757Z</time></trkpt><trkpt lat="38.0233525" lon="14.9513081"><ele>1002.9999999999999</ele><time>2026-05-01T12:29:43.757Z</time></trkpt><trkpt lat="38.0234011" lon="14.9513657"><ele>1003.0</ele><time>2026-05-01T12:29:45.756Z</time></trkpt><trkpt lat="38.023459" lon="14.9514335"><ele>1003.0</ele><time>2026-05-01T12:29:48.757Z</time></trkpt><trkpt lat="38.0235183" lon="14.9515"><ele>1003.0</ele><time>2026-05-01T12:30:33.757Z</time></trkpt><trkpt lat="38.023595" lon="14.9515933"><ele>1002.9999999999999</ele><time>2026-05-01T12:30:35.757Z</time></trkpt><trkpt lat="38.0236583" lon="14.9516683"><ele>1003.0</ele><time>2026-05-01T12:30:36.757Z</time></trkpt><trkpt lat="38.02373" lon="14.9517633"><ele>1001.2</ele><time>2026-05-01T12:30:37.757Z</time></trkpt><trkpt lat="38.02382" lon="14.9518567"><ele>999.4</ele><time>2026-05-01T12:30:38.757Z</time></trkpt><trkpt lat="38.023905" lon="14.95193"><ele>997.6000000000001</ele><time>2026-05-01T12:30:39.757Z</time></trkpt><trkpt lat="38.0239783" lon="14.951995"><ele>995.8000000000001</ele><time>2026-05-01T12:30:40.757Z</time></trkpt><trkpt lat="38.0240567" lon="14.95205"><ele>994.0</ele><time>2026-05-01T12:30:41.757Z</time></trkpt><trkpt lat="38.0241467" lon="14.952085"><ele>993.9999999999999</ele><time>2026-05-01T12:30:42.757Z</time></trkpt><trkpt lat="38.02424" lon="14.95212"><ele>994.0</ele><time>2026-05-01T12:30:43.757Z</time></trkpt><trkpt lat="38.0243367" lon="14.95215"><ele>994.0</ele><time>2026-05-01T12:30:44.757Z</time></trkpt><trkpt lat="38.0244267" lon="14.95217"><ele>994.0</ele><time>2026-05-01T12:30:45.757Z</time></trkpt><trkpt lat="38.0244983" lon="14.9521883"><ele>993.9999999999999</ele><time>2026-05-01T12:30:46.757Z</time></trkpt><trkpt lat="38.0245633" lon="14.9522317"><ele>994.0</ele><time>2026-05-01T12:30:47.757Z</time></trkpt><trkpt lat="38.0246517" lon="14.9523183"><ele>994.0</ele><time>2026-05-01T12:30:49.757Z</time></trkpt><trkpt lat="38.024725" lon="14.9523733"><ele>994.0000000000001</ele><time>2026-05-01T12:30:51.757Z</time></trkpt><trkpt lat="38.0248" lon="14.952435"><ele>994.0000000000001</ele><time>2026-05-01T12:30:53.757Z</time></trkpt><trkpt lat="38.02488" lon="14.9524917"><ele>994.0</ele><time>2026-05-01T12:30:55.756Z</time></trkpt><trkpt lat="38.024985" lon="14.952555"><ele>994.0</ele><time>2026-05-01T12:30:57.757Z</time></trkpt><trkpt lat="38.0250983" lon="14.9525783"><ele>993.3333333333333</ele><time>2026-05-01T12:30:59.757Z</time></trkpt><trkpt lat="38.0251817" lon="14.9525883"><ele>992.6666666666666</ele><time>2026-05-01T12:31:00.757Z</time></trkpt><trkpt lat="38.0252667" lon="14.95259"><ele>992.0</ele><time>2026-05-01T12:31:01.757Z</time></trkpt><trkpt lat="38.02535" lon="14.9525883"><ele>991.3333333333333</ele><time>2026-05-01T12:31:02.757Z</time></trkpt><trkpt lat="38.0254183" lon="14.9525933"><ele>990.6666666666666</ele><time>2026-05-01T12:31:03.757Z</time></trkpt><trkpt lat="38.0254883" lon="14.9525967"><ele>990.0</ele><time>2026-05-01T12:31:04.757Z</time></trkpt><trkpt lat="38.0256033" lon="14.9525967"><ele>990.0</ele><time>2026-05-01T12:31:06.757Z</time></trkpt><trkpt lat="38.025695" lon="14.9525633"><ele>990.0</ele><time>2026-05-01T12:31:08.757Z</time></trkpt><trkpt lat="38.0257933" lon="14.9525367"><ele>990.0</ele><time>2026-05-01T12:31:10.757Z</time></trkpt><trkpt lat="38.02589" lon="14.9524933"><ele>990.0</ele><time>2026-05-01T12:31:12.757Z</time></trkpt><trkpt lat="38.02596" lon="14.9524383"><ele>990.0</ele><time>2026-05-01T12:31:14.757Z</time></trkpt><trkpt lat="38.02605" lon="14.952375"><ele>990.8333333333334</ele><time>2026-05-01T12:31:16.757Z</time></trkpt><trkpt lat="38.0261433" lon="14.9523117"><ele>991.6666666666667</ele><time>2026-05-01T12:31:18.757Z</time></trkpt><trkpt lat="38.0262267" lon="14.9522767"><ele>992.5</ele><time>2026-05-01T12:31:20.756Z</time></trkpt><trkpt lat="38.0262917" lon="14.9522717"><ele>993.3333333333334</ele><time>2026-05-01T12:31:22.756Z</time></trkpt><trkpt lat="38.0263433" lon="14.9523333"><ele>994.1666666666667</ele><time>2026-05-01T12:31:24.757Z</time></trkpt><trkpt lat="38.02638" lon="14.9524733"><ele>995.0</ele><time>2026-05-01T12:31:26.757Z</time></trkpt><trkpt lat="38.0263633" lon="14.9526"><ele>995.0</ele><time>2026-05-01T12:31:28.757Z</time></trkpt><trkpt lat="38.0263333" lon="14.9527483"><ele>995.0</ele><time>2026-05-01T12:31:30.757Z</time></trkpt><trkpt lat="38.0263083" lon="14.9528317"><ele>995.0</ele><time>2026-05-01T12:31:31.756Z</time></trkpt><trkpt lat="38.0262817" lon="14.9529067"><ele>995.0</ele><time>2026-05-01T12:31:32.756Z</time></trkpt><trkpt lat="38.0262133" lon="14.9530333"><ele>995.0</ele><time>2026-05-01T12:31:34.756Z</time></trkpt><trkpt lat="38.026105" lon="14.9531117"><ele>995.0000000000001</ele><time>2026-05-01T12:31:36.757Z</time></trkpt><trkpt lat="38.0260433" lon="14.9531417"><ele>995.0</ele><time>2026-05-01T12:31:37.757Z</time></trkpt><trkpt lat="38.0259817" lon="14.9531767"><ele>995.0</ele><time>2026-05-01T12:31:38.757Z</time></trkpt><trkpt lat="38.0259167" lon="14.953215"><ele>995.0</ele><time>2026-05-01T12:31:39.757Z</time></trkpt><trkpt lat="38.02585" lon="14.9532567"><ele>995.0000000000001</ele><time>2026-05-01T12:31:40.757Z</time></trkpt><trkpt lat="38.0257817" lon="14.9533"><ele>995.0</ele><time>2026-05-01T12:31:41.757Z</time></trkpt><trkpt lat="38.0256667" lon="14.95336"><ele>991.0</ele><time>2026-05-01T12:31:43.757Z</time></trkpt><trkpt lat="38.0256017" lon="14.953385"><ele>987.0</ele><time>2026-05-01T12:31:44.757Z</time></trkpt><trkpt lat="38.02549" lon="14.9534083"><ele>983.0</ele><time>2026-05-01T12:31:46.757Z</time></trkpt><trkpt lat="38.0253917" lon="14.9534233"><ele>979.0</ele><time>2026-05-01T12:31:48.756Z</time></trkpt><trkpt lat="38.0253017" lon="14.9534417"><ele>975.0</ele><time>2026-05-01T12:31:50.757Z</time></trkpt><trkpt lat="38.0252233" lon="14.9534483"><ele>975.0</ele><time>2026-05-01T12:31:52.757Z</time></trkpt><trkpt lat="38.0251367" lon="14.95342"><ele>975.0</ele><time>2026-05-01T12:31:55.757Z</time></trkpt><trkpt lat="38.0250833" lon="14.9534883"><ele>975.0</ele><time>2026-05-01T12:31:58.757Z</time></trkpt><trkpt lat="38.0251" lon="14.95357"><ele>975.0</ele><time>2026-05-01T12:32:01.757Z</time></trkpt><trkpt lat="38.0251617" lon="14.9536233"><ele>975.0</ele><time>2026-05-01T12:32:03.757Z</time></trkpt><trkpt lat="38.0252533" lon="14.9536533"><ele>975.0</ele><time>2026-05-01T12:32:05.757Z</time></trkpt><trkpt lat="38.025315" lon="14.953675"><ele>975.0</ele><time>2026-05-01T12:32:07.757Z</time></trkpt><trkpt lat="38.0253817" lon="14.9536967"><ele>974.9999999999999</ele><time>2026-05-01T12:32:09.757Z</time></trkpt><trkpt lat="38.0254383" lon="14.95374"><ele>975.0</ele><time>2026-05-01T12:32:11.757Z</time></trkpt><trkpt lat="38.0254933" lon="14.95378"><ele>975.0</ele><time>2026-05-01T12:32:15.757Z</time></trkpt><trkpt lat="38.02557" lon="14.953825"><ele>974.9999999999999</ele><time>2026-05-01T12:32:19.757Z</time></trkpt><trkpt lat="38.0256367" lon="14.9538667"><ele>975.0</ele><time>2026-05-01T12:32:21.757Z</time></trkpt><trkpt lat="38.0257033" lon="14.953905"><ele>975.0</ele><time>2026-05-01T12:32:23.757Z</time></trkpt><trkpt lat="38.0257617" lon="14.953945"><ele>975.3333333333334</ele><time>2026-05-01T12:32:25.757Z</time></trkpt><trkpt lat="38.0258283" lon="14.9540033"><ele>975.6666666666667</ele><time>2026-05-01T12:32:28.757Z</time></trkpt><trkpt lat="38.0258867" lon="14.9540483"><ele>976.0</ele><time>2026-05-01T12:32:31.757Z</time></trkpt><trkpt lat="38.0259617" lon="14.9540833"><ele>976.3333333333334</ele><time>2026-05-01T12:32:33.757Z</time></trkpt><trkpt lat="38.02606" lon="14.9540967"><ele>976.6666666666667</ele><time>2026-05-01T12:32:35.757Z</time></trkpt><trkpt lat="38.0261417" lon="14.9541033"><ele>977.0</ele><time>2026-05-01T12:32:37.757Z</time></trkpt><trkpt lat="38.0262083" lon="14.9541217"><ele>977.0000000000001</ele><time>2026-05-01T12:32:39.757Z</time></trkpt><trkpt lat="38.026275" lon="14.9541917"><ele>977.0</ele><time>2026-05-01T12:32:41.757Z</time></trkpt><trkpt lat="38.02624" lon="14.9542883"><ele>977.0</ele><time>2026-05-01T12:32:44.756Z</time></trkpt><trkpt lat="38.0261517" lon="14.9543067"><ele>977.0</ele><time>2026-05-01T12:32:46.757Z</time></trkpt><trkpt lat="38.0260633" lon="14.95429"><ele>977.0000000000001</ele><time>2026-05-01T12:32:48.756Z</time></trkpt><trkpt lat="38.0259783" lon="14.9542917"><ele>977.0</ele><time>2026-05-01T12:32:50.757Z</time></trkpt><trkpt lat="38.0258733" lon="14.954295"><ele>972.6</ele><time>2026-05-01T12:32:52.757Z</time></trkpt><trkpt lat="38.0258083" lon="14.9542983"><ele>968.2</ele><time>2026-05-01T12:32:53.757Z</time></trkpt><trkpt lat="38.025685" lon="14.954315"><ele>963.8</ele><time>2026-05-01T12:32:55.757Z</time></trkpt><trkpt lat="38.0255767" lon="14.954335"><ele>959.4</ele><time>2026-05-01T12:32:57.756Z</time></trkpt><trkpt lat="38.0254867" lon="14.9543467"><ele>955.0</ele><time>2026-05-01T12:32:59.757Z</time></trkpt><trkpt lat="38.0253933" lon="14.9543383"><ele>955.0</ele><time>2026-05-01T12:33:01.757Z</time></trkpt><trkpt lat="38.0252833" lon="14.954335"><ele>955.0</ele><time>2026-05-01T12:33:03.757Z</time></trkpt><trkpt lat="38.0251783" lon="14.9543317"><ele>955.0</ele><time>2026-05-01T12:33:05.756Z</time></trkpt><trkpt lat="38.0250983" lon="14.9543483"><ele>955.0</ele><time>2026-05-01T12:33:07.757Z</time></trkpt><trkpt lat="38.0250067" lon="14.9543517"><ele>955.0</ele><time>2026-05-01T12:33:10.757Z</time></trkpt><trkpt lat="38.0249333" lon="14.9543583"><ele>953.6666666666666</ele><time>2026-05-01T12:33:12.757Z</time></trkpt><trkpt lat="38.0248467" lon="14.9543767"><ele>952.3333333333333</ele><time>2026-05-01T12:33:14.756Z</time></trkpt><trkpt lat="38.02476" lon="14.9543717"><ele>951.0</ele><time>2026-05-01T12:33:16.757Z</time></trkpt><trkpt lat="38.02469" lon="14.95436"><ele>949.6666666666667</ele><time>2026-05-01T12:33:18.757Z</time></trkpt><trkpt lat="38.024625" lon="14.9543583"><ele>948.3333333333334</ele><time>2026-05-01T12:33:20.756Z</time></trkpt><trkpt lat="38.02453" lon="14.954315"><ele>947.0</ele><time>2026-05-01T12:33:23.757Z</time></trkpt><trkpt lat="38.024455" lon="14.954265"><ele>947.0</ele><time>2026-05-01T12:33:25.757Z</time></trkpt><trkpt lat="38.0244067" lon="14.9542133"><ele>946.9999999999999</ele><time>2026-05-01T12:33:27.757Z</time></trkpt><trkpt lat="38.024355" lon="14.95416"><ele>947.0</ele><time>2026-05-01T12:33:29.757Z</time></trkpt><trkpt lat="38.0242967" lon="14.95411"><ele>947.0</ele><time>2026-05-01T12:33:32.757Z</time></trkpt><trkpt lat="38.0242183" lon="14.9541283"><ele>946.9999999999999</ele><time>2026-05-01T12:34:25.757Z</time></trkpt><trkpt lat="38.0242367" lon="14.9542133"><ele>947.0</ele><time>2026-05-01T12:34:27.757Z</time></trkpt><trkpt lat="38.0242767" lon="14.95431"><ele>947.0</ele><time>2026-05-01T12:34:29.757Z</time></trkpt><trkpt lat="38.0243633" lon="14.954425"><ele>947.0</ele><time>2026-05-01T12:34:31.757Z</time></trkpt><trkpt lat="38.0244183" lon="14.9544833"><ele>946.9999999999999</ele><time>2026-05-01T12:34:32.757Z</time></trkpt><trkpt lat="38.0244783" lon="14.9545383"><ele>947.0</ele><time>2026-05-01T12:34:33.756Z</time></trkpt><trkpt lat="38.0245383" lon="14.9545933"><ele>947.0</ele><time>2026-05-01T12:34:34.757Z</time></trkpt><trkpt lat="38.0246" lon="14.9546417"><ele>946.9999999999999</ele><time>2026-05-01T12:34:35.757Z</time></trkpt><trkpt lat="38.0246583" lon="14.95468"><ele>947.0</ele><time>2026-05-01T12:34:36.757Z</time></trkpt><trkpt lat="38.024725" lon="14.95471"><ele>947.0</ele><time>2026-05-01T12:34:37.757Z</time></trkpt><trkpt lat="38.0248" lon="14.954745"><ele>947.0000000000001</ele><time>2026-05-01T12:34:38.757Z</time></trkpt><trkpt lat="38.0248767" lon="14.9547867"><ele>947.0</ele><time>2026-05-01T12:34:39.757Z</time></trkpt><trkpt lat="38.02495" lon="14.9548267"><ele>947.0</ele><time>2026-05-01T12:34:40.756Z</time></trkpt><trkpt lat="38.02503" lon="14.9548483"><ele>947.0</ele><time>2026-05-01T12:34:41.757Z</time></trkpt><trkpt lat="38.0251083" lon="14.9548817"><ele>947.0000000000001</ele><time>2026-05-01T12:34:42.757Z</time></trkpt><trkpt lat="38.0252017" lon="14.9549067"><ele>947.0</ele><time>2026-05-01T12:34:43.757Z</time></trkpt><trkpt lat="38.0252883" lon="14.954925"><ele>948.3333333333334</ele><time>2026-05-01T12:34:44.757Z</time></trkpt><trkpt lat="38.0253683" lon="14.95495"><ele>949.6666666666667</ele><time>2026-05-01T12:34:45.757Z</time></trkpt><trkpt lat="38.02545" lon="14.9549917"><ele>951.0</ele><time>2026-05-01T12:34:46.757Z</time></trkpt><trkpt lat="38.0255267" lon="14.95506"><ele>952.3333333333333</ele><time>2026-05-01T12:34:47.757Z</time></trkpt><trkpt lat="38.0255983" lon="14.9551267"><ele>953.6666666666666</ele><time>2026-05-01T12:34:48.757Z</time></trkpt><trkpt lat="38.0256733" lon="14.95519"><ele>955.0</ele><time>2026-05-01T12:34:49.757Z</time></trkpt><trkpt lat="38.0257367" lon="14.955245"><ele>951.8333333333333</ele><time>2026-05-01T12:34:50.756Z</time></trkpt><trkpt lat="38.0258083" lon="14.955305"><ele>948.6666666666666</ele><time>2026-05-01T12:34:51.757Z</time></trkpt><trkpt lat="38.0258883" lon="14.9553483"><ele>945.5</ele><time>2026-05-01T12:34:52.758Z</time></trkpt><trkpt lat="38.0259767" lon="14.9553983"><ele>942.3333333333333</ele><time>2026-05-01T12:34:53.758Z</time></trkpt><trkpt lat="38.026055" lon="14.9554467"><ele>939.1666666666666</ele><time>2026-05-01T12:34:54.758Z</time></trkpt><trkpt lat="38.026125" lon="14.95549"><ele>936.0</ele><time>2026-05-01T12:34:55.758Z</time></trkpt><trkpt lat="38.0261933" lon="14.95553"><ele>936.0</ele><time>2026-05-01T12:34:56.758Z</time></trkpt><trkpt lat="38.0262617" lon="14.95556"><ele>936.0000000000001</ele><time>2026-05-01T12:34:57.758Z</time></trkpt><trkpt lat="38.026325" lon="14.9555867"><ele>936.0</ele><time>2026-05-01T12:34:58.758Z</time></trkpt><trkpt lat="38.0263917" lon="14.9556183"><ele>936.0</ele><time>2026-05-01T12:34:59.758Z</time></trkpt><trkpt lat="38.0264517" lon="14.9556583"><ele>936.0000000000001</ele><time>2026-05-01T12:35:00.758Z</time></trkpt><trkpt lat="38.0265117" lon="14.9556967"><ele>936.0</ele><time>2026-05-01T12:35:01.758Z</time></trkpt><trkpt lat="38.0265717" lon="14.955725"><ele>936.0</ele><time>2026-05-01T12:35:02.758Z</time></trkpt><trkpt lat="38.0266783" lon="14.9557533"><ele>935.8</ele><time>2026-05-01T12:35:04.758Z</time></trkpt><trkpt lat="38.0267817" lon="14.9557433"><ele>935.5999999999999</ele><time>2026-05-01T12:35:06.758Z</time></trkpt><trkpt lat="38.02688" lon="14.95571"><ele>935.4</ele><time>2026-05-01T12:35:08.757Z</time></trkpt><trkpt lat="38.02694" lon="14.95568"><ele>935.2</ele><time>2026-05-01T12:35:09.758Z</time></trkpt><trkpt lat="38.0270567" lon="14.9556367"><ele>935.0</ele><time>2026-05-01T12:35:11.758Z</time></trkpt><trkpt lat="38.0271667" lon="14.9556083"><ele>935.0</ele><time>2026-05-01T12:35:13.757Z</time></trkpt><trkpt lat="38.0272817" lon="14.9555417"><ele>935.0</ele><time>2026-05-01T12:35:15.758Z</time></trkpt><trkpt lat="38.027345" lon="14.955505"><ele>935.0</ele><time>2026-05-01T12:35:16.758Z</time></trkpt><trkpt lat="38.0274433" lon="14.9554383"><ele>935.0</ele><time>2026-05-01T12:35:18.758Z</time></trkpt><trkpt lat="38.027505" lon="14.9553983"><ele>935.0</ele><time>2026-05-01T12:35:20.758Z</time></trkpt><trkpt lat="38.0275633" lon="14.9552917"><ele>934.0</ele><time>2026-05-01T12:36:30.758Z</time></trkpt><trkpt lat="38.0276" lon="14.9552067"><ele>933.0</ele><time>2026-05-01T12:36:32.758Z</time></trkpt><trkpt lat="38.02764" lon="14.9551067"><ele>932.0</ele><time>2026-05-01T12:36:34.758Z</time></trkpt><trkpt lat="38.0277133" lon="14.9549433"><ele>931.0</ele><time>2026-05-01T12:36:36.758Z</time></trkpt><trkpt lat="38.0277617" lon="14.954825"><ele>930.0</ele><time>2026-05-01T12:36:37.758Z</time></trkpt><trkpt lat="38.0278117" lon="14.9547117"><ele>930.0</ele><time>2026-05-01T12:36:38.758Z</time></trkpt><trkpt lat="38.0278517" lon="14.9546067"><ele>930.0</ele><time>2026-05-01T12:36:39.758Z</time></trkpt><trkpt lat="38.0278867" lon="14.9544917"><ele>930.0</ele><time>2026-05-01T12:36:40.758Z</time></trkpt><trkpt lat="38.0279167" lon="14.9543733"><ele>930.0</ele><time>2026-05-01T12:36:41.758Z</time></trkpt><trkpt lat="38.0279467" lon="14.95424"><ele>930.0</ele><time>2026-05-01T12:36:42.758Z</time></trkpt><trkpt lat="38.0279917" lon="14.954075"><ele>933.0</ele><time>2026-05-01T12:36:43.758Z</time></trkpt><trkpt lat="38.02804" lon="14.953915"><ele>936.0</ele><time>2026-05-01T12:36:44.758Z</time></trkpt><trkpt lat="38.0280783" lon="14.95376"><ele>939.0</ele><time>2026-05-01T12:36:45.758Z</time></trkpt><trkpt lat="38.0281167" lon="14.9535867"><ele>942.0</ele><time>2026-05-01T12:36:46.758Z</time></trkpt><trkpt lat="38.028145" lon="14.9534017"><ele>945.5</ele><time>2026-05-01T12:36:47.757Z</time></trkpt><trkpt lat="38.0281617" lon="14.9532"><ele>949.0</ele><time>2026-05-01T12:36:48.758Z</time></trkpt><trkpt lat="38.0281783" lon="14.9530117"><ele>952.5</ele><time>2026-05-01T12:36:49.758Z</time></trkpt><trkpt lat="38.0282033" lon="14.952845"><ele>956.0</ele><time>2026-05-01T12:36:50.757Z</time></trkpt><trkpt lat="38.0282267" lon="14.952705"><ele>956.0</ele><time>2026-05-01T12:36:51.758Z</time></trkpt><trkpt lat="38.0282433" lon="14.95258"><ele>955.9999999999999</ele><time>2026-05-01T12:36:52.758Z</time></trkpt><trkpt lat="38.0282617" lon="14.952445"><ele>955.9999999999999</ele><time>2026-05-01T12:36:53.758Z</time></trkpt><trkpt lat="38.0282617" lon="14.952315"><ele>956.0</ele><time>2026-05-01T12:36:54.758Z</time></trkpt><trkpt lat="38.02827" lon="14.9521483"><ele>956.0</ele><time>2026-05-01T12:36:55.758Z</time></trkpt><trkpt lat="38.028265" lon="14.952"><ele>957.0</ele><time>2026-05-01T12:36:56.758Z</time></trkpt><trkpt lat="38.0282583" lon="14.9518667"><ele>957.9999999999999</ele><time>2026-05-01T12:36:57.758Z</time></trkpt><trkpt lat="38.0282617" lon="14.9517467"><ele>958.9999999999999</ele><time>2026-05-01T12:36:58.758Z</time></trkpt><trkpt lat="38.0282767" lon="14.9516283"><ele>960.0</ele><time>2026-05-01T12:36:59.758Z</time></trkpt><trkpt lat="38.0282983" lon="14.9515233"><ele>961.0</ele><time>2026-05-01T12:37:00.758Z</time></trkpt><trkpt lat="38.02833" lon="14.951435"><ele>956.5999999999999</ele><time>2026-05-01T12:37:01.758Z</time></trkpt><trkpt lat="38.0283667" lon="14.9513517"><ele>952.1999999999999</ele><time>2026-05-01T12:37:02.758Z</time></trkpt><trkpt lat="38.0284067" lon="14.9512483"><ele>947.8000000000001</ele><time>2026-05-01T12:37:03.758Z</time></trkpt><trkpt lat="38.02844" lon="14.95113"><ele>943.4000000000001</ele><time>2026-05-01T12:37:04.758Z</time></trkpt><trkpt lat="38.0284717" lon="14.9509967"><ele>939.0</ele><time>2026-05-01T12:37:05.758Z</time></trkpt><trkpt lat="38.02848" lon="14.9508683"><ele>939.0</ele><time>2026-05-01T12:37:06.758Z</time></trkpt><trkpt lat="38.028485" lon="14.9507367"><ele>939.0</ele><time>2026-05-01T12:37:07.758Z</time></trkpt><trkpt lat="38.0284867" lon="14.950635"><ele>939.0</ele><time>2026-05-01T12:37:08.758Z</time></trkpt><trkpt lat="38.0284867" lon="14.9505517"><ele>939.0</ele><time>2026-05-01T12:37:09.757Z</time></trkpt><trkpt lat="38.02849" lon="14.9504683"><ele>939.0</ele><time>2026-05-01T12:37:10.758Z</time></trkpt><trkpt lat="38.0285017" lon="14.9503883"><ele>939.0</ele><time>2026-05-01T12:37:11.757Z</time></trkpt><trkpt lat="38.02851" lon="14.950305"><ele>939.0</ele><time>2026-05-01T12:37:12.758Z</time></trkpt><trkpt lat="38.0285283" lon="14.950215"><ele>939.0</ele><time>2026-05-01T12:37:13.757Z</time></trkpt><trkpt lat="38.0285383" lon="14.95012"><ele>939.0</ele><time>2026-05-01T12:37:14.758Z</time></trkpt><trkpt lat="38.02856" lon="14.9500367"><ele>939.0</ele><time>2026-05-01T12:37:15.757Z</time></trkpt><trkpt lat="38.02858" lon="14.9499433"><ele>939.0</ele><time>2026-05-01T12:37:16.758Z</time></trkpt><trkpt lat="38.0286067" lon="14.9498617"><ele>939.0</ele><time>2026-05-01T12:37:17.758Z</time></trkpt><trkpt lat="38.0286283" lon="14.949785"><ele>939.0</ele><time>2026-05-01T12:37:18.758Z</time></trkpt><trkpt lat="38.028655" lon="14.9497117"><ele>939.0</ele><time>2026-05-01T12:37:19.758Z</time></trkpt><trkpt lat="38.0286967" lon="14.9496033"><ele>939.0</ele><time>2026-05-01T12:37:21.758Z</time></trkpt><trkpt lat="38.02875" lon="14.9495033"><ele>939.0000000000001</ele><time>2026-05-01T12:37:23.758Z</time></trkpt><trkpt lat="38.0287917" lon="14.9493983"><ele>939.0000000000001</ele><time>2026-05-01T12:37:25.758Z</time></trkpt><trkpt lat="38.0287333" lon="14.949545"><ele>939.0</ele><time>2026-05-01T12:37:32.758Z</time></trkpt><trkpt lat="38.028695" lon="14.949625"><ele>939.0</ele><time>2026-05-01T12:37:33.758Z</time></trkpt><trkpt lat="38.0286533" lon="14.9497167"><ele>939.0</ele><time>2026-05-01T12:37:35.757Z</time></trkpt><trkpt lat="38.028695" lon="14.9496383"><ele>939.0000000000001</ele><time>2026-05-01T12:38:29.758Z</time></trkpt><trkpt lat="38.0287267" lon="14.9495583"><ele>939.0000000000001</ele><time>2026-05-01T12:38:31.758Z</time></trkpt><trkpt lat="38.0287667" lon="14.9494583"><ele>939.0</ele><time>2026-05-01T12:38:33.758Z</time></trkpt><trkpt lat="38.0288033" lon="14.949315"><ele>939.0</ele><time>2026-05-01T12:38:35.758Z</time></trkpt><trkpt lat="38.02882" lon="14.9491567"><ele>940.0</ele><time>2026-05-01T12:38:37.758Z</time></trkpt><trkpt lat="38.028825" lon="14.9490767"><ele>941.0</ele><time>2026-05-01T12:38:38.758Z</time></trkpt><trkpt lat="38.0288267" lon="14.9489883"><ele>942.0</ele><time>2026-05-01T12:38:39.758Z</time></trkpt><trkpt lat="38.0288517" lon="14.9488767"><ele>943.0</ele><time>2026-05-01T12:38:40.758Z</time></trkpt><trkpt lat="38.0288733" lon="14.9487783"><ele>944.0</ele><time>2026-05-01T12:38:41.758Z</time></trkpt><trkpt lat="38.0288967" lon="14.9486917"><ele>945.0</ele><time>2026-05-01T12:38:42.758Z</time></trkpt><trkpt lat="38.0289183" lon="14.94861"><ele>946.0</ele><time>2026-05-01T12:38:43.758Z</time></trkpt><trkpt lat="38.0289667" lon="14.9485233"><ele>945.9999999999999</ele><time>2026-05-01T12:38:45.757Z</time></trkpt><trkpt lat="38.02903" lon="14.948565"><ele>946.0</ele><time>2026-05-01T12:38:47.758Z</time></trkpt><trkpt lat="38.0290583" lon="14.948645"><ele>946.0</ele><time>2026-05-01T12:38:48.758Z</time></trkpt><trkpt lat="38.0290683" lon="14.9487383"><ele>946.0</ele><time>2026-05-01T12:38:49.758Z</time></trkpt><trkpt lat="38.0290617" lon="14.9488417"><ele>945.9999999999999</ele><time>2026-05-01T12:38:50.757Z</time></trkpt><trkpt lat="38.0290633" lon="14.94899"><ele>946.0</ele><time>2026-05-01T12:38:52.758Z</time></trkpt><trkpt lat="38.0291" lon="14.9490633"><ele>938.9999999999999</ele><time>2026-05-01T12:38:54.758Z</time></trkpt><trkpt lat="38.0291583" lon="14.949005"><ele>932.0</ele><time>2026-05-01T12:38:56.758Z</time></trkpt><trkpt lat="38.02917" lon="14.948875"><ele>925.0</ele><time>2026-05-01T12:38:58.758Z</time></trkpt><trkpt lat="38.0291833" lon="14.9487283"><ele>918.0</ele><time>2026-05-01T12:39:00.758Z</time></trkpt><trkpt lat="38.0291883" lon="14.9486417"><ele>910.9999999999999</ele><time>2026-05-01T12:39:01.758Z</time></trkpt><trkpt lat="38.029205" lon="14.9485567"><ele>904.0</ele><time>2026-05-01T12:39:02.758Z</time></trkpt><trkpt lat="38.0292233" lon="14.9484683"><ele>903.9999999999999</ele><time>2026-05-01T12:39:03.757Z</time></trkpt><trkpt lat="38.0292367" lon="14.9483833"><ele>904.0</ele><time>2026-05-01T12:39:04.757Z</time></trkpt><trkpt lat="38.0292383" lon="14.9482917"><ele>904.0</ele><time>2026-05-01T12:39:05.758Z</time></trkpt><trkpt lat="38.0292267" lon="14.9481967"><ele>904.0</ele><time>2026-05-01T12:39:06.758Z</time></trkpt><trkpt lat="38.0292033" lon="14.948095"><ele>903.9999999999999</ele><time>2026-05-01T12:39:07.757Z</time></trkpt><trkpt lat="38.0291783" lon="14.9479833"><ele>904.0</ele><time>2026-05-01T12:39:08.758Z</time></trkpt><trkpt lat="38.0291483" lon="14.9478683"><ele>903.3333333333333</ele><time>2026-05-01T12:39:09.758Z</time></trkpt><trkpt lat="38.0291483" lon="14.9477317"><ele>902.6666666666666</ele><time>2026-05-01T12:39:10.758Z</time></trkpt><trkpt lat="38.0291533" lon="14.947605"><ele>902.0</ele><time>2026-05-01T12:39:11.758Z</time></trkpt><trkpt lat="38.0291567" lon="14.9474983"><ele>901.3333333333333</ele><time>2026-05-01T12:39:12.758Z</time></trkpt><trkpt lat="38.0291517" lon="14.9474083"><ele>900.6666666666666</ele><time>2026-05-01T12:39:13.758Z</time></trkpt><trkpt lat="38.0291483" lon="14.9473283"><ele>900.0</ele><time>2026-05-01T12:39:14.758Z</time></trkpt><trkpt lat="38.0291567" lon="14.94718"><ele>900.0</ele><time>2026-05-01T12:39:16.757Z</time></trkpt><trkpt lat="38.0292283" lon="14.9471083"><ele>900.0</ele><time>2026-05-01T12:39:18.758Z</time></trkpt><trkpt lat="38.0293433" lon="14.94715"><ele>900.0</ele><time>2026-05-01T12:39:20.758Z</time></trkpt><trkpt lat="38.0293883" lon="14.9472133"><ele>900.0</ele><time>2026-05-01T12:39:21.757Z</time></trkpt><trkpt lat="38.029445" lon="14.9472867"><ele>900.0</ele><time>2026-05-01T12:39:22.758Z</time></trkpt><trkpt lat="38.0294867" lon="14.9473483"><ele>900.0</ele><time>2026-05-01T12:39:23.758Z</time></trkpt><trkpt lat="38.0295417" lon="14.9474067"><ele>900.0</ele><time>2026-05-01T12:39:24.758Z</time></trkpt><trkpt lat="38.0296133" lon="14.94744"><ele>900.0</ele><time>2026-05-01T12:39:25.758Z</time></trkpt><trkpt lat="38.0296833" lon="14.9474833"><ele>900.0</ele><time>2026-05-01T12:39:26.758Z</time></trkpt><trkpt lat="38.0297633" lon="14.947525"><ele>900.0</ele><time>2026-05-01T12:39:27.758Z</time></trkpt><trkpt lat="38.0298367" lon="14.947575"><ele>900.0</ele><time>2026-05-01T12:39:28.758Z</time></trkpt><trkpt lat="38.0299083" lon="14.94762"><ele>900.0</ele><time>2026-05-01T12:39:29.758Z</time></trkpt><trkpt lat="38.029975" lon="14.947675"><ele>894.1666666666666</ele><time>2026-05-01T12:39:30.757Z</time></trkpt><trkpt lat="38.0300317" lon="14.94773"><ele>888.3333333333333</ele><time>2026-05-01T12:39:31.758Z</time></trkpt><trkpt lat="38.0300867" lon="14.9478033"><ele>882.5</ele><time>2026-05-01T12:39:32.758Z</time></trkpt><trkpt lat="38.03015" lon="14.9478733"><ele>876.6666666666666</ele><time>2026-05-01T12:39:33.758Z</time></trkpt><trkpt lat="38.0302167" lon="14.9479383"><ele>870.8333333333333</ele><time>2026-05-01T12:39:34.758Z</time></trkpt><trkpt lat="38.030275" lon="14.94802"><ele>865.0</ele><time>2026-05-01T12:39:35.758Z</time></trkpt><trkpt lat="38.0303283" lon="14.9480867"><ele>865.0</ele><time>2026-05-01T12:39:36.758Z</time></trkpt><trkpt lat="38.0303883" lon="14.9481617"><ele>865.0</ele><time>2026-05-01T12:39:37.757Z</time></trkpt><trkpt lat="38.03044" lon="14.9482167"><ele>865.0</ele><time>2026-05-01T12:39:38.757Z</time></trkpt><trkpt lat="38.0304933" lon="14.9482617"><ele>865.0</ele><time>2026-05-01T12:39:39.758Z</time></trkpt><trkpt lat="38.030605" lon="14.9483"><ele>865.0</ele><time>2026-05-01T12:39:41.757Z</time></trkpt><trkpt lat="38.0307233" lon="14.9482883"><ele>865.6</ele><time>2026-05-01T12:39:43.758Z</time></trkpt><trkpt lat="38.03083" lon="14.9482983"><ele>866.2</ele><time>2026-05-01T12:39:45.758Z</time></trkpt><trkpt lat="38.0308983" lon="14.9483833"><ele>866.8</ele><time>2026-05-01T12:39:47.758Z</time></trkpt><trkpt lat="38.0309383" lon="14.9485383"><ele>867.4</ele><time>2026-05-01T12:39:49.758Z</time></trkpt><trkpt lat="38.0309583" lon="14.9486533"><ele>868.0</ele><time>2026-05-01T12:39:50.758Z</time></trkpt><trkpt lat="38.0309883" lon="14.9487767"><ele>863.2</ele><time>2026-05-01T12:39:51.758Z</time></trkpt><trkpt lat="38.0310267" lon="14.9489033"><ele>858.4</ele><time>2026-05-01T12:39:52.758Z</time></trkpt><trkpt lat="38.03107" lon="14.9490033"><ele>853.6</ele><time>2026-05-01T12:39:53.757Z</time></trkpt><trkpt lat="38.0311167" lon="14.9491117"><ele>848.8000000000001</ele><time>2026-05-01T12:39:54.758Z</time></trkpt><trkpt lat="38.0311733" lon="14.9492067"><ele>844.0</ele><time>2026-05-01T12:39:55.758Z</time></trkpt><trkpt lat="38.0312433" lon="14.94928"><ele>840.4285714285714</ele><time>2026-05-01T12:39:56.758Z</time></trkpt><trkpt lat="38.0313117" lon="14.94933"><ele>836.8571428571429</ele><time>2026-05-01T12:39:57.758Z</time></trkpt><trkpt lat="38.031365" lon="14.949375"><ele>833.2857142857142</ele><time>2026-05-01T12:39:58.758Z</time></trkpt><trkpt lat="38.0314017" lon="14.94944"><ele>829.7142857142858</ele><time>2026-05-01T12:39:59.757Z</time></trkpt><trkpt lat="38.0314217" lon="14.9495167"><ele>826.1428571428571</ele><time>2026-05-01T12:40:00.758Z</time></trkpt><trkpt lat="38.031475" lon="14.9496283"><ele>822.5714285714286</ele><time>2026-05-01T12:40:02.758Z</time></trkpt><trkpt lat="38.031525" lon="14.9496933"><ele>819.0</ele><time>2026-05-01T12:40:04.757Z</time></trkpt><trkpt lat="38.0315783" lon="14.9497517"><ele>817.3333333333334</ele><time>2026-05-01T12:40:06.758Z</time></trkpt><trkpt lat="38.0316417" lon="14.9497967"><ele>815.6666666666667</ele><time>2026-05-01T12:40:08.759Z</time></trkpt><trkpt lat="38.0317133" lon="14.9498533"><ele>814.0</ele><time>2026-05-01T12:40:10.759Z</time></trkpt><trkpt lat="38.031785" lon="14.94993"><ele>812.3333333333334</ele><time>2026-05-01T12:40:12.759Z</time></trkpt><trkpt lat="38.0318633" lon="14.9500117"><ele>810.6666666666667</ele><time>2026-05-01T12:40:14.759Z</time></trkpt><trkpt lat="38.0319383" lon="14.9500733"><ele>809.0</ele><time>2026-05-01T12:40:16.759Z</time></trkpt><trkpt lat="38.0320117" lon="14.9501067"><ele>809.0000000000001</ele><time>2026-05-01T12:40:18.759Z</time></trkpt><trkpt lat="38.03207" lon="14.9501383"><ele>809.0</ele><time>2026-05-01T12:40:20.759Z</time></trkpt><trkpt lat="38.03213" lon="14.9501683"><ele>809.0</ele><time>2026-05-01T12:40:22.758Z</time></trkpt><trkpt lat="38.0322183" lon="14.95022"><ele>809.0</ele><time>2026-05-01T12:40:25.759Z</time></trkpt><trkpt lat="38.0323017" lon="14.9502817"><ele>809.0000000000001</ele><time>2026-05-01T12:40:27.758Z</time></trkpt><trkpt lat="38.03239" lon="14.95032"><ele>809.0</ele><time>2026-05-01T12:40:29.759Z</time></trkpt><trkpt lat="38.0324717" lon="14.9503567"><ele>812.8000000000001</ele><time>2026-05-01T12:40:31.759Z</time></trkpt><trkpt lat="38.0325567" lon="14.9503833"><ele>816.6</ele><time>2026-05-01T12:40:33.759Z</time></trkpt><trkpt lat="38.0326567" lon="14.9504417"><ele>820.4</ele><time>2026-05-01T12:40:35.759Z</time></trkpt><trkpt lat="38.03277" lon="14.95051"><ele>824.2</ele><time>2026-05-01T12:40:37.759Z</time></trkpt><trkpt lat="38.0328317" lon="14.9505467"><ele>828.0</ele><time>2026-05-01T12:40:38.758Z</time></trkpt><trkpt lat="38.0329033" lon="14.9505883"><ele>828.0</ele><time>2026-05-01T12:40:39.759Z</time></trkpt><trkpt lat="38.0329717" lon="14.95063"><ele>828.0</ele><time>2026-05-01T12:40:40.759Z</time></trkpt><trkpt lat="38.03303" lon="14.95068"><ele>828.0</ele><time>2026-05-01T12:40:41.759Z</time></trkpt><trkpt lat="38.0331" lon="14.9507333"><ele>828.0</ele><time>2026-05-01T12:40:42.759Z</time></trkpt><trkpt lat="38.0331683" lon="14.9507767"><ele>828.0</ele><time>2026-05-01T12:40:43.759Z</time></trkpt><trkpt lat="38.0332367" lon="14.9508267"><ele>828.0</ele><time>2026-05-01T12:40:44.759Z</time></trkpt><trkpt lat="38.0333083" lon="14.9508817"><ele>827.1666666666666</ele><time>2026-05-01T12:40:45.759Z</time></trkpt><trkpt lat="38.0333867" lon="14.9509283"><ele>826.3333333333333</ele><time>2026-05-01T12:40:46.759Z</time></trkpt><trkpt lat="38.0334717" lon="14.9509717"><ele>825.5</ele><time>2026-05-01T12:40:47.759Z</time></trkpt><trkpt lat="38.033555" lon="14.9510083"><ele>824.6666666666666</ele><time>2026-05-01T12:40:48.759Z</time></trkpt><trkpt lat="38.0336267" lon="14.9510283"><ele>823.8333333333333</ele><time>2026-05-01T12:40:49.759Z</time></trkpt><trkpt lat="38.0336967" lon="14.951075"><ele>823.0</ele><time>2026-05-01T12:40:50.759Z</time></trkpt><trkpt lat="38.0337583" lon="14.951125"><ele>822.9999999999999</ele><time>2026-05-01T12:40:51.759Z</time></trkpt><trkpt lat="38.03381" lon="14.9511917"><ele>823.0</ele><time>2026-05-01T12:40:52.759Z</time></trkpt><trkpt lat="38.0338583" lon="14.9512767"><ele>823.0</ele><time>2026-05-01T12:40:53.759Z</time></trkpt><trkpt lat="38.0339033" lon="14.9513667"><ele>823.0</ele><time>2026-05-01T12:40:54.759Z</time></trkpt><trkpt lat="38.0339517" lon="14.95144"><ele>822.9999999999999</ele><time>2026-05-01T12:40:55.759Z</time></trkpt><trkpt lat="38.0340117" lon="14.9515083"><ele>823.0</ele><time>2026-05-01T12:40:56.759Z</time></trkpt><trkpt lat="38.03408" lon="14.9515583"><ele>823.1666666666666</ele><time>2026-05-01T12:40:57.759Z</time></trkpt><trkpt lat="38.034165" lon="14.9515983"><ele>823.3333333333333</ele><time>2026-05-01T12:40:58.759Z</time></trkpt><trkpt lat="38.034245" lon="14.95163"><ele>823.5</ele><time>2026-05-01T12:40:59.759Z</time></trkpt><trkpt lat="38.0343267" lon="14.95166"><ele>823.6666666666667</ele><time>2026-05-01T12:41:00.759Z</time></trkpt><trkpt lat="38.03441" lon="14.951695"><ele>823.8333333333334</ele><time>2026-05-01T12:41:01.759Z</time></trkpt><trkpt lat="38.0344917" lon="14.9517367"><ele>824.0</ele><time>2026-05-01T12:41:02.759Z</time></trkpt><trkpt lat="38.0345583" lon="14.9517833"><ele>819.8333333333334</ele><time>2026-05-01T12:41:03.759Z</time></trkpt><trkpt lat="38.034615" lon="14.951845"><ele>815.6666666666667</ele><time>2026-05-01T12:41:04.759Z</time></trkpt><trkpt lat="38.03466" lon="14.9519233"><ele>811.5</ele><time>2026-05-01T12:41:05.759Z</time></trkpt><trkpt lat="38.0347183" lon="14.9520133"><ele>807.3333333333333</ele><time>2026-05-01T12:41:06.758Z</time></trkpt><trkpt lat="38.0347617" lon="14.95209"><ele>803.1666666666666</ele><time>2026-05-01T12:41:07.759Z</time></trkpt><trkpt lat="38.0348017" lon="14.9521533"><ele>799.0</ele><time>2026-05-01T12:41:08.759Z</time></trkpt><trkpt lat="38.0348733" lon="14.9522367"><ele>798.9999999999999</ele><time>2026-05-01T12:41:10.759Z</time></trkpt><trkpt lat="38.0349024" lon="14.952312"><ele>799.0</ele><time>2026-05-01T12:48:56.76Z</time></trkpt><trkpt lat="38.0350019" lon="14.9523001"><ele>799.0</ele><time>2026-05-01T12:49:03.759Z</time></trkpt><trkpt lat="38.0350821" lon="14.9523567"><ele>799.0</ele><time>2026-05-01T12:49:05.76Z</time></trkpt><trkpt lat="38.0351693" lon="14.9524329"><ele>798.9999999999999</ele><time>2026-05-01T12:49:07.76Z</time></trkpt><trkpt lat="38.0352312" lon="14.9524992"><ele>799.0</ele><time>2026-05-01T12:49:09.759Z</time></trkpt><trkpt lat="38.0353016" lon="14.9525741"><ele>796.6</ele><time>2026-05-01T12:49:11.76Z</time></trkpt><trkpt lat="38.0353676" lon="14.9526556"><ele>794.2</ele><time>2026-05-01T12:49:13.76Z</time></trkpt><trkpt lat="38.0354152" lon="14.9527588"><ele>791.8000000000001</ele><time>2026-05-01T12:49:15.76Z</time></trkpt><trkpt lat="38.0354854" lon="14.9528644"><ele>789.4000000000001</ele><time>2026-05-01T12:49:17.76Z</time></trkpt><trkpt lat="38.0355757" lon="14.95293"><ele>787.0</ele><time>2026-05-01T12:49:19.76Z</time></trkpt><trkpt lat="38.0356946" lon="14.9529865"><ele>787.0</ele><time>2026-05-01T12:49:21.76Z</time></trkpt><trkpt lat="38.0357668" lon="14.9530227"><ele>787.0</ele><time>2026-05-01T12:49:22.76Z</time></trkpt><trkpt lat="38.0358473" lon="14.9530699"><ele>787.0</ele><time>2026-05-01T12:49:23.76Z</time></trkpt><trkpt lat="38.0359385" lon="14.9531288"><ele>787.0</ele><time>2026-05-01T12:49:24.76Z</time></trkpt><trkpt lat="38.0360334" lon="14.9532131"><ele>787.0</ele><time>2026-05-01T12:49:25.76Z</time></trkpt><trkpt lat="38.0361167" lon="14.9533373"><ele>790.4000000000001</ele><time>2026-05-01T12:49:26.76Z</time></trkpt><trkpt lat="38.0361884" lon="14.953451"><ele>793.8000000000001</ele><time>2026-05-01T12:49:27.76Z</time></trkpt><trkpt lat="38.0362388" lon="14.953541"><ele>797.2</ele><time>2026-05-01T12:49:28.76Z</time></trkpt><trkpt lat="38.0362798" lon="14.9536026"><ele>800.6</ele><time>2026-05-01T12:49:29.76Z</time></trkpt><trkpt lat="38.0363653" lon="14.9537091"><ele>804.0</ele><time>2026-05-01T12:49:31.76Z</time></trkpt><trkpt lat="38.0364174" lon="14.9537603"><ele>804.0</ele><time>2026-05-01T12:49:32.76Z</time></trkpt><trkpt lat="38.0365164" lon="14.9538523"><ele>804.0</ele><time>2026-05-01T12:49:34.76Z</time></trkpt><trkpt lat="38.0366117" lon="14.9539589"><ele>804.0</ele><time>2026-05-01T12:49:36.76Z</time></trkpt><trkpt lat="38.0366575" lon="14.9540204"><ele>804.0</ele><time>2026-05-01T12:49:37.76Z</time></trkpt><trkpt lat="38.0367028" lon="14.9540795"><ele>804.0</ele><time>2026-05-01T12:49:38.76Z</time></trkpt><trkpt lat="38.0367798" lon="14.9541843"><ele>804.2</ele><time>2026-05-01T12:49:40.76Z</time></trkpt><trkpt lat="38.0368521" lon="14.9542735"><ele>804.4000000000001</ele><time>2026-05-01T12:49:42.76Z</time></trkpt><trkpt lat="38.0369321" lon="14.9543443"><ele>804.6</ele><time>2026-05-01T12:49:44.76Z</time></trkpt><trkpt lat="38.0370109" lon="14.9543668"><ele>804.8</ele><time>2026-05-01T12:49:46.759Z</time></trkpt><trkpt lat="38.0370888" lon="14.954374"><ele>805.0</ele><time>2026-05-01T12:49:52.76Z</time></trkpt><trkpt lat="38.0371939" lon="14.9543602"><ele>804.9999999999999</ele><time>2026-05-01T12:49:54.761Z</time></trkpt><trkpt lat="38.0372649" lon="14.9543298"><ele>805.0</ele><time>2026-05-01T12:49:55.761Z</time></trkpt><trkpt lat="38.0373351" lon="14.9542912"><ele>805.0</ele><time>2026-05-01T12:49:56.76Z</time></trkpt><trkpt lat="38.0373914" lon="14.9542501"><ele>805.0</ele><time>2026-05-01T12:49:57.761Z</time></trkpt><trkpt lat="38.0374768" lon="14.9541587"><ele>804.9999999999999</ele><time>2026-05-01T12:49:59.761Z</time></trkpt><trkpt lat="38.0375362" lon="14.9540738"><ele>805.0</ele><time>2026-05-01T12:50:01.761Z</time></trkpt><trkpt lat="38.0375522" lon="14.9539798"><ele>809.7142857142857</ele><time>2026-05-01T12:50:23.761Z</time></trkpt><trkpt lat="38.0375675" lon="14.953897"><ele>814.4285714285714</ele><time>2026-05-01T12:50:24.761Z</time></trkpt><trkpt lat="38.0375853" lon="14.9538071"><ele>819.1428571428571</ele><time>2026-05-01T12:50:25.761Z</time></trkpt><trkpt lat="38.0375931" lon="14.9537121"><ele>823.8571428571429</ele><time>2026-05-01T12:50:26.761Z</time></trkpt><trkpt lat="38.0375901" lon="14.9536173"><ele>828.5714285714286</ele><time>2026-05-01T12:50:27.761Z</time></trkpt><trkpt lat="38.0375942" lon="14.9535167"><ele>833.2857142857142</ele><time>2026-05-01T12:50:28.761Z</time></trkpt><trkpt lat="38.0375981" lon="14.9534152"><ele>838.0</ele><time>2026-05-01T12:50:29.761Z</time></trkpt><trkpt lat="38.0376038" lon="14.9533137"><ele>841.0</ele><time>2026-05-01T12:50:30.761Z</time></trkpt><trkpt lat="38.037628" lon="14.9532015"><ele>844.0</ele><time>2026-05-01T12:50:31.76Z</time></trkpt><trkpt lat="38.0376613" lon="14.9530849"><ele>847.0</ele><time>2026-05-01T12:50:32.761Z</time></trkpt><trkpt lat="38.0377037" lon="14.9529747"><ele>850.0</ele><time>2026-05-01T12:50:33.761Z</time></trkpt><trkpt lat="38.0377534" lon="14.9528698"><ele>853.0</ele><time>2026-05-01T12:50:34.761Z</time></trkpt><trkpt lat="38.0377961" lon="14.9527795"><ele>852.9999999999999</ele><time>2026-05-01T12:50:35.761Z</time></trkpt><trkpt lat="38.0378256" lon="14.952687"><ele>853.0</ele><time>2026-05-01T12:50:36.761Z</time></trkpt><trkpt lat="38.0378515" lon="14.9525917"><ele>853.0</ele><time>2026-05-01T12:50:37.761Z</time></trkpt><trkpt lat="38.0378798" lon="14.9524959"><ele>853.0</ele><time>2026-05-01T12:50:38.761Z</time></trkpt><trkpt lat="38.03792" lon="14.9524007"><ele>852.9999999999999</ele><time>2026-05-01T12:50:39.761Z</time></trkpt><trkpt lat="38.0379606" lon="14.9523155"><ele>853.0</ele><time>2026-05-01T12:50:40.76Z</time></trkpt><trkpt lat="38.0379959" lon="14.9521908"><ele>853.9999999999999</ele><time>2026-05-01T12:50:42.761Z</time></trkpt><trkpt lat="38.0380058" lon="14.9520782"><ele>855.0</ele><time>2026-05-01T12:50:44.761Z</time></trkpt><trkpt lat="38.0380103" lon="14.9519333"><ele>856.0</ele><time>2026-05-01T12:50:46.761Z</time></trkpt><trkpt lat="38.0380157" lon="14.9518533"><ele>857.0</ele><time>2026-05-01T12:50:47.761Z</time></trkpt><trkpt lat="38.0380193" lon="14.9517727"><ele>857.9999999999999</ele><time>2026-05-01T12:50:48.761Z</time></trkpt><trkpt lat="38.0380139" lon="14.9516284"><ele>859.0</ele><time>2026-05-01T12:50:50.761Z</time></trkpt><trkpt lat="38.0379868" lon="14.9515089"><ele>860.4000000000001</ele><time>2026-05-01T12:50:52.761Z</time></trkpt><trkpt lat="38.0379414" lon="14.9513657"><ele>861.8000000000001</ele><time>2026-05-01T12:50:54.76Z</time></trkpt><trkpt lat="38.0379123" lon="14.9512844"><ele>863.1999999999999</ele><time>2026-05-01T12:50:55.761Z</time></trkpt><trkpt lat="38.0378843" lon="14.9511849"><ele>864.5999999999999</ele><time>2026-05-01T12:50:56.761Z</time></trkpt><trkpt lat="38.0378532" lon="14.9510713"><ele>866.0</ele><time>2026-05-01T12:50:57.761Z</time></trkpt><trkpt lat="38.0378216" lon="14.9509579"><ele>866.0</ele><time>2026-05-01T12:50:58.761Z</time></trkpt><trkpt lat="38.0378017" lon="14.9508668"><ele>865.9999999999999</ele><time>2026-05-01T12:50:59.761Z</time></trkpt><trkpt lat="38.0377639" lon="14.950765"><ele>865.9999999999999</ele><time>2026-05-01T12:51:01.761Z</time></trkpt><trkpt lat="38.0376816" lon="14.9507286"><ele>866.0</ele><time>2026-05-01T12:51:04.76Z</time></trkpt><trkpt lat="38.0376792" lon="14.9508624"><ele>866.0</ele><time>2026-05-01T12:51:07.761Z</time></trkpt><trkpt lat="38.0376823" lon="14.9509824"><ele>866.0000000000001</ele><time>2026-05-01T12:51:09.761Z</time></trkpt><trkpt lat="38.0376296" lon="14.9510568"><ele>866.0</ele><time>2026-05-01T12:51:11.761Z</time></trkpt><trkpt lat="38.0375636" lon="14.9511371"><ele>866.0</ele><time>2026-05-01T12:51:13.761Z</time></trkpt><trkpt lat="38.0374697" lon="14.9511962"><ele>866.0</ele><time>2026-05-01T12:51:15.761Z</time></trkpt><trkpt lat="38.0374038" lon="14.9512177"><ele>866.0000000000001</ele><time>2026-05-01T12:51:16.761Z</time></trkpt><trkpt lat="38.0373287" lon="14.9512398"><ele>866.0</ele><time>2026-05-01T12:51:17.761Z</time></trkpt><trkpt lat="38.0372524" lon="14.9512604"><ele>866.4</ele><time>2026-05-01T12:51:18.761Z</time></trkpt><trkpt lat="38.0371869" lon="14.9512695"><ele>866.8</ele><time>2026-05-01T12:51:19.761Z</time></trkpt><trkpt lat="38.0370776" lon="14.9512605"><ele>867.1999999999999</ele><time>2026-05-01T12:51:21.761Z</time></trkpt><trkpt lat="38.0370019" lon="14.9512067"><ele>867.5999999999999</ele><time>2026-05-01T12:51:23.761Z</time></trkpt><trkpt lat="38.0369141" lon="14.9511401"><ele>868.0</ele><time>2026-05-01T12:51:25.761Z</time></trkpt><trkpt lat="38.036818" lon="14.9510661"><ele>868.0</ele><time>2026-05-01T12:51:27.761Z</time></trkpt><trkpt lat="38.0367627" lon="14.9510213"><ele>868.0</ele><time>2026-05-01T12:51:28.761Z</time></trkpt><trkpt lat="38.036702" lon="14.9509796"><ele>868.0</ele><time>2026-05-01T12:51:29.76Z</time></trkpt><trkpt lat="38.0366414" lon="14.9509428"><ele>868.0</ele><time>2026-05-01T12:51:30.761Z</time></trkpt><trkpt lat="38.0365799" lon="14.9509124"><ele>868.0</ele><time>2026-05-01T12:51:31.761Z</time></trkpt><trkpt lat="38.0365191" lon="14.9508762"><ele>868.0</ele><time>2026-05-01T12:51:32.76Z</time></trkpt><trkpt lat="38.0364545" lon="14.9508357"><ele>868.0</ele><time>2026-05-01T12:51:33.761Z</time></trkpt><trkpt lat="38.0363869" lon="14.9507981"><ele>870.8333333333333</ele><time>2026-05-01T12:51:34.761Z</time></trkpt><trkpt lat="38.0363269" lon="14.9507579"><ele>873.6666666666666</ele><time>2026-05-01T12:51:35.761Z</time></trkpt><trkpt lat="38.0362288" lon="14.950683"><ele>876.5</ele><time>2026-05-01T12:51:37.76Z</time></trkpt><trkpt lat="38.0361221" lon="14.9506245"><ele>879.3333333333333</ele><time>2026-05-01T12:51:39.761Z</time></trkpt><trkpt lat="38.0360624" lon="14.9505925"><ele>882.1666666666666</ele><time>2026-05-01T12:51:40.761Z</time></trkpt><trkpt lat="38.0359986" lon="14.9505616"><ele>885.0</ele><time>2026-05-01T12:51:41.761Z</time></trkpt><trkpt lat="38.035941" lon="14.9505238"><ele>885.0</ele><time>2026-05-01T12:51:42.761Z</time></trkpt><trkpt lat="38.0358775" lon="14.9504824"><ele>885.0</ele><time>2026-05-01T12:51:43.761Z</time></trkpt><trkpt lat="38.0358101" lon="14.9504316"><ele>885.0</ele><time>2026-05-01T12:51:44.761Z</time></trkpt><trkpt lat="38.0357513" lon="14.9503832"><ele>885.0</ele><time>2026-05-01T12:51:45.761Z</time></trkpt><trkpt lat="38.0356499" lon="14.950286"><ele>885.0</ele><time>2026-05-01T12:51:47.761Z</time></trkpt><trkpt lat="38.0355403" lon="14.9501898"><ele>886.4285714285714</ele><time>2026-05-01T12:51:49.761Z</time></trkpt><trkpt lat="38.0354803" lon="14.9501564"><ele>887.8571428571429</ele><time>2026-05-01T12:51:50.761Z</time></trkpt><trkpt lat="38.035427" lon="14.9501135"><ele>889.2857142857142</ele><time>2026-05-01T12:51:51.76Z</time></trkpt><trkpt lat="38.0353808" lon="14.9500563"><ele>890.7142857142858</ele><time>2026-05-01T12:51:52.761Z</time></trkpt><trkpt lat="38.0353401" lon="14.9499941"><ele>892.1428571428572</ele><time>2026-05-01T12:51:53.761Z</time></trkpt><trkpt lat="38.0352979" lon="14.949934"><ele>893.5714285714286</ele><time>2026-05-01T12:51:54.761Z</time></trkpt><trkpt lat="38.0352159" lon="14.9498175"><ele>895.0</ele><time>2026-05-01T12:51:56.761Z</time></trkpt><trkpt lat="38.0351385" lon="14.9496983"><ele>894.9999999999999</ele><time>2026-05-01T12:51:58.761Z</time></trkpt><trkpt lat="38.0351124" lon="14.9495951"><ele>895.0</ele><time>2026-05-01T12:52:00.761Z</time></trkpt><trkpt lat="38.0351797" lon="14.9495757"><ele>895.0</ele><time>2026-05-01T12:52:02.761Z</time></trkpt><trkpt lat="38.0352374" lon="14.9496128"><ele>895.0</ele><time>2026-05-01T12:52:03.761Z</time></trkpt><trkpt lat="38.035293" lon="14.9496705"><ele>894.9999999999999</ele><time>2026-05-01T12:52:04.76Z</time></trkpt><trkpt lat="38.0353678" lon="14.9497302"><ele>895.0</ele><time>2026-05-01T12:52:06.761Z</time></trkpt><trkpt lat="38.0354452" lon="14.9497167"><ele>894.9999999999999</ele><time>2026-05-01T12:53:14.761Z</time></trkpt><trkpt lat="38.0355201" lon="14.9496822"><ele>895.0</ele><time>2026-05-01T12:53:15.761Z</time></trkpt><trkpt lat="38.0356042" lon="14.9496381"><ele>895.0</ele><time>2026-05-01T12:53:16.761Z</time></trkpt><trkpt lat="38.0356869" lon="14.9495967"><ele>895.0</ele><time>2026-05-01T12:53:17.761Z</time></trkpt><trkpt lat="38.0357637" lon="14.949561"><ele>894.9999999999999</ele><time>2026-05-01T12:53:18.761Z</time></trkpt><trkpt lat="38.035836" lon="14.9495253"><ele>895.0</ele><time>2026-05-01T12:53:19.761Z</time></trkpt><trkpt lat="38.0359045" lon="14.9494824"><ele>896.6666666666666</ele><time>2026-05-01T12:53:20.761Z</time></trkpt><trkpt lat="38.0359725" lon="14.9494228"><ele>898.3333333333333</ele><time>2026-05-01T12:53:21.761Z</time></trkpt><trkpt lat="38.0360429" lon="14.9493669"><ele>900.0</ele><time>2026-05-01T12:53:22.761Z</time></trkpt><trkpt lat="38.0361238" lon="14.9493085"><ele>901.6666666666667</ele><time>2026-05-01T12:53:23.761Z</time></trkpt><trkpt lat="38.0362126" lon="14.9492501"><ele>903.3333333333334</ele><time>2026-05-01T12:53:24.761Z</time></trkpt><trkpt lat="38.0362921" lon="14.9492026"><ele>905.0</ele><time>2026-05-01T12:53:25.761Z</time></trkpt><trkpt lat="38.0363641" lon="14.949163"><ele>906.0000000000001</ele><time>2026-05-01T12:53:26.761Z</time></trkpt><trkpt lat="38.0364197" lon="14.9491091"><ele>907.0</ele><time>2026-05-01T12:53:27.76Z</time></trkpt><trkpt lat="38.0364614" lon="14.9490382"><ele>908.0</ele><time>2026-05-01T12:53:28.761Z</time></trkpt><trkpt lat="38.0365" lon="14.9489621"><ele>909.0</ele><time>2026-05-01T12:53:29.761Z</time></trkpt><trkpt lat="38.0365372" lon="14.9488908"><ele>910.0000000000001</ele><time>2026-05-01T12:53:30.761Z</time></trkpt><trkpt lat="38.036575" lon="14.9488242"><ele>911.0</ele><time>2026-05-01T12:53:31.761Z</time></trkpt><trkpt lat="38.0366751" lon="14.948732"><ele>911.0</ele><time>2026-05-01T12:53:33.761Z</time></trkpt><trkpt lat="38.0367821" lon="14.9486661"><ele>910.9999999999999</ele><time>2026-05-01T12:53:35.761Z</time></trkpt><trkpt lat="38.0368293" lon="14.9486129"><ele>910.9999999999999</ele><time>2026-05-01T12:53:36.761Z</time></trkpt><trkpt lat="38.0368871" lon="14.9485046"><ele>911.0</ele><time>2026-05-01T12:53:38.761Z</time></trkpt><trkpt lat="38.0369007" lon="14.9484078"><ele>911.0</ele><time>2026-05-01T12:53:40.761Z</time></trkpt><trkpt lat="38.0368941" lon="14.9482831"><ele>913.0000000000001</ele><time>2026-05-01T12:53:43.761Z</time></trkpt><trkpt lat="38.0369077" lon="14.9481295"><ele>915.0</ele><time>2026-05-01T12:53:45.761Z</time></trkpt><trkpt lat="38.0369214" lon="14.9480289"><ele>917.0</ele><time>2026-05-01T12:53:46.761Z</time></trkpt><trkpt lat="38.0369436" lon="14.9479189"><ele>919.0</ele><time>2026-05-01T12:53:47.761Z</time></trkpt><trkpt lat="38.0369726" lon="14.9478224"><ele>921.0000000000001</ele><time>2026-05-01T12:53:48.761Z</time></trkpt><trkpt lat="38.0369954" lon="14.9477449"><ele>923.0</ele><time>2026-05-01T12:53:49.761Z</time></trkpt><trkpt lat="38.0370307" lon="14.9476131"><ele>924.4</ele><time>2026-05-01T12:53:51.761Z</time></trkpt><trkpt lat="38.037066" lon="14.9474861"><ele>925.8</ele><time>2026-05-01T12:53:53.761Z</time></trkpt><trkpt lat="38.0370887" lon="14.9473645"><ele>927.2</ele><time>2026-05-01T12:53:55.761Z</time></trkpt><trkpt lat="38.0371074" lon="14.9472433"><ele>928.6</ele><time>2026-05-01T12:53:57.761Z</time></trkpt><trkpt lat="38.0371157" lon="14.9471608"><ele>930.0</ele><time>2026-05-01T12:53:58.761Z</time></trkpt><trkpt lat="38.0371278" lon="14.9470568"><ele>930.0</ele><time>2026-05-01T12:53:59.761Z</time></trkpt><trkpt lat="38.0371452" lon="14.9469298"><ele>930.0</ele><time>2026-05-01T12:54:00.76Z</time></trkpt><trkpt lat="38.0371691" lon="14.9467891"><ele>930.0</ele><time>2026-05-01T12:54:01.761Z</time></trkpt><trkpt lat="38.0371919" lon="14.9466674"><ele>930.0</ele><time>2026-05-01T12:54:02.761Z</time></trkpt><trkpt lat="38.0372167" lon="14.9465608"><ele>930.0</ele><time>2026-05-01T12:54:03.761Z</time></trkpt><trkpt lat="38.0372346" lon="14.9464559"><ele>932.1666666666666</ele><time>2026-05-01T12:54:04.761Z</time></trkpt><trkpt lat="38.0372568" lon="14.9463565"><ele>934.3333333333333</ele><time>2026-05-01T12:54:05.761Z</time></trkpt><trkpt lat="38.0372828" lon="14.9462636"><ele>936.5</ele><time>2026-05-01T12:54:06.76Z</time></trkpt><trkpt lat="38.0372992" lon="14.9461819"><ele>938.6666666666666</ele><time>2026-05-01T12:54:07.76Z</time></trkpt><trkpt lat="38.0372988" lon="14.9460615"><ele>940.8333333333333</ele><time>2026-05-01T12:54:09.761Z</time></trkpt><trkpt lat="38.0373118" lon="14.9459431"><ele>943.0</ele><time>2026-05-01T12:54:12.761Z</time></trkpt><trkpt lat="38.0373458" lon="14.9458218"><ele>944.2</ele><time>2026-05-01T12:54:14.761Z</time></trkpt><trkpt lat="38.0373597" lon="14.9457292"><ele>945.4</ele><time>2026-05-01T12:54:15.761Z</time></trkpt><trkpt lat="38.0373767" lon="14.9456038"><ele>946.6000000000001</ele><time>2026-05-01T12:54:16.761Z</time></trkpt><trkpt lat="38.0373917" lon="14.9454673"><ele>947.8000000000001</ele><time>2026-05-01T12:54:17.761Z</time></trkpt><trkpt lat="38.0374065" lon="14.945338"><ele>949.0</ele><time>2026-05-01T12:54:18.761Z</time></trkpt><trkpt lat="38.0374168" lon="14.94522"><ele>948.9999999999999</ele><time>2026-05-01T12:54:19.761Z</time></trkpt><trkpt lat="38.0374261" lon="14.9451091"><ele>949.0</ele><time>2026-05-01T12:54:20.761Z</time></trkpt><trkpt lat="38.0374382" lon="14.9450135"><ele>949.0</ele><time>2026-05-01T12:54:21.761Z</time></trkpt><trkpt lat="38.0374398" lon="14.944929"><ele>949.0</ele><time>2026-05-01T12:54:22.761Z</time></trkpt><trkpt lat="38.0374379" lon="14.9447913"><ele>948.9999999999999</ele><time>2026-05-01T12:54:24.761Z</time></trkpt><trkpt lat="38.0374364" lon="14.9446589"><ele>949.0</ele><time>2026-05-01T12:54:26.761Z</time></trkpt><trkpt lat="38.0374333" lon="14.9445275"><ele>949.6666666666666</ele><time>2026-05-01T12:54:28.761Z</time></trkpt><trkpt lat="38.0374284" lon="14.9444104"><ele>950.3333333333333</ele><time>2026-05-01T12:54:30.761Z</time></trkpt><trkpt lat="38.0374307" lon="14.9443214"><ele>951.0</ele><time>2026-05-01T12:54:32.761Z</time></trkpt><trkpt lat="38.037463" lon="14.9442438"><ele>951.6666666666667</ele><time>2026-05-01T12:54:34.761Z</time></trkpt><trkpt lat="38.037543" lon="14.9441951"><ele>952.3333333333334</ele><time>2026-05-01T12:54:36.761Z</time></trkpt><trkpt lat="38.0376451" lon="14.9441381"><ele>953.0</ele><time>2026-05-01T12:54:38.761Z</time></trkpt><trkpt lat="38.0377208" lon="14.9440747"><ele>948.3333333333334</ele><time>2026-05-01T12:54:40.761Z</time></trkpt><trkpt lat="38.0377774" lon="14.9439665"><ele>943.6666666666667</ele><time>2026-05-01T12:54:42.761Z</time></trkpt><trkpt lat="38.0378012" lon="14.9438922"><ele>939.0</ele><time>2026-05-01T12:54:43.76Z</time></trkpt><trkpt lat="38.0378261" lon="14.943812"><ele>934.3333333333333</ele><time>2026-05-01T12:54:44.761Z</time></trkpt><trkpt lat="38.0378679" lon="14.9436832"><ele>929.6666666666666</ele><time>2026-05-01T12:54:46.761Z</time></trkpt><trkpt lat="38.0378922" lon="14.9435963"><ele>925.0</ele><time>2026-05-01T12:54:48.761Z</time></trkpt><trkpt lat="38.0379227" lon="14.9434575"><ele>926.3333333333333</ele><time>2026-05-01T12:54:50.76Z</time></trkpt><trkpt lat="38.0379406" lon="14.9433405"><ele>927.6666666666666</ele><time>2026-05-01T12:54:51.76Z</time></trkpt><trkpt lat="38.0379447" lon="14.9432229"><ele>929.0</ele><time>2026-05-01T12:54:52.761Z</time></trkpt><trkpt lat="38.0379523" lon="14.9431178"><ele>930.3333333333333</ele><time>2026-05-01T12:54:53.761Z</time></trkpt><trkpt lat="38.0379538" lon="14.9430318"><ele>931.6666666666666</ele><time>2026-05-01T12:54:54.761Z</time></trkpt><trkpt lat="38.0379565" lon="14.9429049"><ele>933.0</ele><time>2026-05-01T12:54:56.762Z</time></trkpt><trkpt lat="38.0379488" lon="14.9428125"><ele>933.0</ele><time>2026-05-01T12:54:58.762Z</time></trkpt><trkpt lat="38.0379365" lon="14.9427338"><ele>933.0</ele><time>2026-05-01T12:55:02.762Z</time></trkpt><trkpt lat="38.0378936" lon="14.9426054"><ele>933.0</ele><time>2026-05-01T12:55:48.762Z</time></trkpt><trkpt lat="38.0377793" lon="14.9425223"><ele>933.0</ele><time>2026-05-01T12:55:50.762Z</time></trkpt><trkpt lat="38.0377007" lon="14.942487"><ele>933.0</ele><time>2026-05-01T12:55:51.762Z</time></trkpt><trkpt lat="38.037621" lon="14.9424444"><ele>932.0</ele><time>2026-05-01T12:55:52.762Z</time></trkpt><trkpt lat="38.0375518" lon="14.9423961"><ele>931.0</ele><time>2026-05-01T12:55:53.762Z</time></trkpt><trkpt lat="38.0374839" lon="14.9423527"><ele>930.0</ele><time>2026-05-01T12:55:54.762Z</time></trkpt><trkpt lat="38.0374002" lon="14.9423057"><ele>929.0</ele><time>2026-05-01T12:55:55.761Z</time></trkpt><trkpt lat="38.0373159" lon="14.942257"><ele>928.0</ele><time>2026-05-01T12:55:56.762Z</time></trkpt><trkpt lat="38.0372462" lon="14.942216"><ele>927.0</ele><time>2026-05-01T12:55:57.761Z</time></trkpt><trkpt lat="38.0371905" lon="14.9421705"><ele>929.8333333333334</ele><time>2026-05-01T12:55:58.762Z</time></trkpt><trkpt lat="38.0371447" lon="14.9421123"><ele>932.6666666666667</ele><time>2026-05-01T12:55:59.762Z</time></trkpt><trkpt lat="38.0370689" lon="14.9419791"><ele>935.5</ele><time>2026-05-01T12:56:01.762Z</time></trkpt><trkpt lat="38.0370249" lon="14.9418932"><ele>938.3333333333334</ele><time>2026-05-01T12:56:02.762Z</time></trkpt><trkpt lat="38.0369783" lon="14.9418122"><ele>941.1666666666667</ele><time>2026-05-01T12:56:03.761Z</time></trkpt><trkpt lat="38.0369289" lon="14.9417283"><ele>944.0</ele><time>2026-05-01T12:56:04.762Z</time></trkpt><trkpt lat="38.0368773" lon="14.9416529"><ele>944.0000000000001</ele><time>2026-05-01T12:56:05.762Z</time></trkpt><trkpt lat="38.0368308" lon="14.9415872"><ele>944.0</ele><time>2026-05-01T12:56:06.762Z</time></trkpt><trkpt lat="38.0367874" lon="14.9415259"><ele>944.0</ele><time>2026-05-01T12:56:07.762Z</time></trkpt><trkpt lat="38.0367007" lon="14.9414173"><ele>944.0</ele><time>2026-05-01T12:56:09.762Z</time></trkpt><trkpt lat="38.0366247" lon="14.9413223"><ele>944.0000000000001</ele><time>2026-05-01T12:56:11.762Z</time></trkpt><trkpt lat="38.0365674" lon="14.941251"><ele>944.0</ele><time>2026-05-01T12:56:13.762Z</time></trkpt><trkpt lat="38.0364912" lon="14.9411667"><ele>949.1666666666667</ele><time>2026-05-01T12:56:15.762Z</time></trkpt><trkpt lat="38.0364391" lon="14.9411207"><ele>954.3333333333334</ele><time>2026-05-01T12:56:16.762Z</time></trkpt><trkpt lat="38.0363433" lon="14.9410709"><ele>959.5</ele><time>2026-05-01T12:56:18.762Z</time></trkpt><trkpt lat="38.0362757" lon="14.9410764"><ele>964.6666666666667</ele><time>2026-05-01T12:56:20.762Z</time></trkpt><trkpt lat="38.0362096" lon="14.9410622"><ele>969.8333333333334</ele><time>2026-05-01T12:56:22.762Z</time></trkpt><trkpt lat="38.0361496" lon="14.9409876"><ele>975.0</ele><time>2026-05-01T12:56:24.762Z</time></trkpt><trkpt lat="38.0360967" lon="14.9408889"><ele>972.8333333333334</ele><time>2026-05-01T12:56:26.762Z</time></trkpt><trkpt lat="38.0360361" lon="14.9408198"><ele>970.6666666666667</ele><time>2026-05-01T12:56:28.762Z</time></trkpt><trkpt lat="38.0360069" lon="14.9407466"><ele>968.5</ele><time>2026-05-01T12:56:30.762Z</time></trkpt><trkpt lat="38.0359856" lon="14.9406213"><ele>966.3333333333334</ele><time>2026-05-01T12:56:32.762Z</time></trkpt><trkpt lat="38.0359838" lon="14.940535"><ele>964.1666666666667</ele><time>2026-05-01T12:56:33.762Z</time></trkpt><trkpt lat="38.035988" lon="14.9404509"><ele>962.0</ele><time>2026-05-01T12:56:34.762Z</time></trkpt><trkpt lat="38.0359817" lon="14.9403069"><ele>962.0000000000001</ele><time>2026-05-01T12:56:36.762Z</time></trkpt><trkpt lat="38.0359341" lon="14.9402136"><ele>962.0</ele><time>2026-05-01T12:56:38.762Z</time></trkpt><trkpt lat="38.0359994" lon="14.9402803"><ele>962.0</ele><time>2026-05-01T12:57:24.762Z</time></trkpt><trkpt lat="38.0360262" lon="14.9403919"><ele>962.0</ele><time>2026-05-01T12:57:26.762Z</time></trkpt><trkpt lat="38.0360272" lon="14.9404964"><ele>962.0000000000001</ele><time>2026-05-01T12:57:28.762Z</time></trkpt><trkpt lat="38.0360173" lon="14.9405962"><ele>962.0</ele><time>2026-05-01T12:57:30.762Z</time></trkpt><trkpt lat="38.0360183" lon="14.9406876"><ele>962.0000000000001</ele><time>2026-05-01T12:57:32.762Z</time></trkpt><trkpt lat="38.0360613" lon="14.9407813"><ele>962.0</ele><time>2026-05-01T12:57:34.761Z</time></trkpt><trkpt lat="38.0361281" lon="14.9408728"><ele>962.0</ele><time>2026-05-01T12:57:36.762Z</time></trkpt><trkpt lat="38.0361867" lon="14.9409461"><ele>962.0</ele><time>2026-05-01T12:57:38.762Z</time></trkpt><trkpt lat="38.0362242" lon="14.9410232"><ele>962.0000000000001</ele><time>2026-05-01T12:57:40.762Z</time></trkpt><trkpt lat="38.0362812" lon="14.9410691"><ele>962.0</ele><time>2026-05-01T12:57:42.762Z</time></trkpt><trkpt lat="38.0363577" lon="14.941081"><ele>964.1666666666667</ele><time>2026-05-01T12:57:44.762Z</time></trkpt><trkpt lat="38.0364392" lon="14.9411128"><ele>966.3333333333334</ele><time>2026-05-01T12:57:47.762Z</time></trkpt><trkpt lat="38.03649" lon="14.941165"><ele>968.5</ele><time>2026-05-01T12:57:49.762Z</time></trkpt><trkpt lat="38.0365483" lon="14.9412183"><ele>970.6666666666667</ele><time>2026-05-01T12:57:51.762Z</time></trkpt><trkpt lat="38.03662" lon="14.941295"><ele>972.8333333333334</ele><time>2026-05-01T12:57:53.762Z</time></trkpt><trkpt lat="38.0366683" lon="14.94135"><ele>975.0</ele><time>2026-05-01T12:57:54.761Z</time></trkpt><trkpt lat="38.0367183" lon="14.941415"><ele>972.1666666666666</ele><time>2026-05-01T12:57:55.762Z</time></trkpt><trkpt lat="38.03676" lon="14.9414767"><ele>969.3333333333333</ele><time>2026-05-01T12:57:56.762Z</time></trkpt><trkpt lat="38.036845" lon="14.9415983"><ele>966.5</ele><time>2026-05-01T12:57:58.76Z</time></trkpt><trkpt lat="38.0368817" lon="14.9416667"><ele>963.6666666666666</ele><time>2026-05-01T12:57:59.761Z</time></trkpt><trkpt lat="38.036925" lon="14.9417383"><ele>960.8333333333333</ele><time>2026-05-01T12:58:00.762Z</time></trkpt><trkpt lat="38.0369717" lon="14.9418183"><ele>958.0</ele><time>2026-05-01T12:58:01.762Z</time></trkpt><trkpt lat="38.037015" lon="14.9418983"><ele>958.0</ele><time>2026-05-01T12:58:02.762Z</time></trkpt><trkpt lat="38.03706" lon="14.9419717"><ele>958.0</ele><time>2026-05-01T12:58:03.762Z</time></trkpt><trkpt lat="38.037125" lon="14.942075"><ele>958.0</ele><time>2026-05-01T12:58:05.762Z</time></trkpt><trkpt lat="38.0372017" lon="14.9421633"><ele>958.0</ele><time>2026-05-01T12:58:07.762Z</time></trkpt><trkpt lat="38.0372967" lon="14.9422533"><ele>958.0</ele><time>2026-05-01T12:58:10.762Z</time></trkpt><trkpt lat="38.0373583" lon="14.94229"><ele>957.9999999999999</ele><time>2026-05-01T12:58:11.762Z</time></trkpt><trkpt lat="38.0374233" lon="14.94232"><ele>958.0</ele><time>2026-05-01T12:58:12.761Z</time></trkpt><trkpt lat="38.0374883" lon="14.9423583"><ele>958.0</ele><time>2026-05-01T12:58:13.762Z</time></trkpt><trkpt lat="38.03758" lon="14.94241"><ele>958.0</ele><time>2026-05-01T12:58:15.762Z</time></trkpt><trkpt lat="38.0376767" lon="14.942475"><ele>957.9999999999999</ele><time>2026-05-01T12:58:17.762Z</time></trkpt><trkpt lat="38.03774" lon="14.9425133"><ele>958.0</ele><time>2026-05-01T12:58:18.762Z</time></trkpt><trkpt lat="38.0377967" lon="14.9425517"><ele>953.8333333333333</ele><time>2026-05-01T12:58:19.761Z</time></trkpt><trkpt lat="38.037885" lon="14.9426067"><ele>949.6666666666666</ele><time>2026-05-01T12:58:21.762Z</time></trkpt><trkpt lat="38.03796" lon="14.9426217"><ele>945.5</ele><time>2026-05-01T12:58:24.762Z</time></trkpt><trkpt lat="38.0380017" lon="14.942695"><ele>941.3333333333333</ele><time>2026-05-01T12:58:31.762Z</time></trkpt><trkpt lat="38.0380333" lon="14.94279"><ele>937.1666666666666</ele><time>2026-05-01T12:58:41.762Z</time></trkpt><trkpt lat="38.0380667" lon="14.942885"><ele>933.0</ele><time>2026-05-01T12:58:43.762Z</time></trkpt><trkpt lat="38.0381083" lon="14.9429517"><ele>933.0</ele><time>2026-05-01T12:58:45.762Z</time></trkpt><trkpt lat="38.0381533" lon="14.94301"><ele>932.9999999999999</ele><time>2026-05-01T12:58:48.762Z</time></trkpt><trkpt lat="38.0382121" lon="14.9430716"><ele>933.0</ele><time>2026-05-01T12:59:16.762Z</time></trkpt><trkpt lat="38.0383017" lon="14.9430904"><ele>933.0</ele><time>2026-05-01T12:59:19.762Z</time></trkpt><trkpt lat="38.0383751" lon="14.9431104"><ele>932.9999999999999</ele><time>2026-05-01T12:59:22.762Z</time></trkpt><trkpt lat="38.0384504" lon="14.9431371"><ele>933.0</ele><time>2026-05-01T12:59:25.761Z</time></trkpt><trkpt lat="38.0385071" lon="14.9431753"><ele>933.0</ele><time>2026-05-01T12:59:27.762Z</time></trkpt><trkpt lat="38.0385797" lon="14.9432221"><ele>930.4285714285713</ele><time>2026-05-01T12:59:29.761Z</time></trkpt><trkpt lat="38.038651" lon="14.9432486"><ele>927.8571428571428</ele><time>2026-05-01T12:59:31.762Z</time></trkpt><trkpt lat="38.0387167" lon="14.9432781"><ele>925.2857142857142</ele><time>2026-05-01T12:59:34.761Z</time></trkpt><trkpt lat="38.0387814" lon="14.9433127"><ele>922.7142857142858</ele><time>2026-05-01T12:59:41.762Z</time></trkpt><trkpt lat="38.0388458" lon="14.943354"><ele>920.1428571428572</ele><time>2026-05-01T12:59:47.762Z</time></trkpt><trkpt lat="38.0389158" lon="14.9433725"><ele>917.5714285714287</ele><time>2026-05-01T12:59:53.761Z</time></trkpt><trkpt lat="38.038985" lon="14.9433905"><ele>915.0</ele><time>2026-05-01T12:59:58.762Z</time></trkpt><trkpt lat="38.0390566" lon="14.9433982"><ele>912.1666666666666</ele><time>2026-05-01T13:00:02.762Z</time></trkpt><trkpt lat="38.0391503" lon="14.9434235"><ele>909.3333333333333</ele><time>2026-05-01T13:00:11.763Z</time></trkpt><trkpt lat="38.0392107" lon="14.9434493"><ele>906.5</ele><time>2026-05-01T13:00:15.763Z</time></trkpt><trkpt lat="38.0393161" lon="14.943498"><ele>903.6666666666666</ele><time>2026-05-01T13:00:18.763Z</time></trkpt><trkpt lat="38.0393926" lon="14.943525"><ele>900.8333333333333</ele><time>2026-05-01T13:00:19.763Z</time></trkpt><trkpt lat="38.0394715" lon="14.9435476"><ele>898.0</ele><time>2026-05-01T13:00:20.763Z</time></trkpt><trkpt lat="38.0395402" lon="14.9435655"><ele>898.0</ele><time>2026-05-01T13:00:21.763Z</time></trkpt><trkpt lat="38.0396572" lon="14.9435972"><ele>898.0</ele><time>2026-05-01T13:00:23.763Z</time></trkpt><trkpt lat="38.0397558" lon="14.9436238"><ele>898.0</ele><time>2026-05-01T13:00:25.763Z</time></trkpt><trkpt lat="38.0398439" lon="14.9436717"><ele>898.0</ele><time>2026-05-01T13:00:27.763Z</time></trkpt><trkpt lat="38.039941" lon="14.9437278"><ele>898.0</ele><time>2026-05-01T13:00:29.763Z</time></trkpt><trkpt lat="38.04004" lon="14.9437846"><ele>898.0</ele><time>2026-05-01T13:00:31.763Z</time></trkpt><trkpt lat="38.0401172" lon="14.9438045"><ele>897.9999999999999</ele><time>2026-05-01T13:00:33.763Z</time></trkpt><trkpt lat="38.0401734" lon="14.943755"><ele>898.0</ele><time>2026-05-01T13:00:35.763Z</time></trkpt><trkpt lat="38.0401961" lon="14.9436713"><ele>898.0</ele><time>2026-05-01T13:00:37.762Z</time></trkpt><trkpt lat="38.0402143" lon="14.9435916"><ele>897.9999999999999</ele><time>2026-05-01T13:00:39.763Z</time></trkpt><trkpt lat="38.0401993" lon="14.9435126"><ele>898.0</ele><time>2026-05-01T13:00:41.763Z</time></trkpt><trkpt lat="38.040259" lon="14.9434767"><ele>898.0</ele><time>2026-05-01T13:01:10.762Z</time></trkpt><trkpt lat="38.0403153" lon="14.9435221"><ele>897.9999999999999</ele><time>2026-05-01T13:01:11.763Z</time></trkpt><trkpt lat="38.0403669" lon="14.9435729"><ele>898.0</ele><time>2026-05-01T13:01:12.763Z</time></trkpt><trkpt lat="38.0404285" lon="14.9436352"><ele>898.0</ele><time>2026-05-01T13:01:14.763Z</time></trkpt><trkpt lat="38.0404503" lon="14.943744"><ele>898.0</ele><time>2026-05-01T13:01:17.763Z</time></trkpt><trkpt lat="38.040461" lon="14.9438565"><ele>897.9999999999999</ele><time>2026-05-01T13:01:19.762Z</time></trkpt><trkpt lat="38.0405108" lon="14.9439562"><ele>898.0</ele><time>2026-05-01T13:01:22.763Z</time></trkpt><trkpt lat="38.0406123" lon="14.9439822"><ele>897.9999999999999</ele><time>2026-05-01T13:01:24.763Z</time></trkpt><trkpt lat="38.0407089" lon="14.9439934"><ele>898.0</ele><time>2026-05-01T13:01:26.763Z</time></trkpt><trkpt lat="38.0407943" lon="14.9440311"><ele>898.0</ele><time>2026-05-01T13:01:28.762Z</time></trkpt><trkpt lat="38.0408623" lon="14.9440734"><ele>898.0</ele><time>2026-05-01T13:01:30.763Z</time></trkpt><trkpt lat="38.0409295" lon="14.9440946"><ele>897.9999999999999</ele><time>2026-05-01T13:01:32.763Z</time></trkpt><trkpt lat="38.0409786" lon="14.9440373"><ele>898.0</ele><time>2026-05-01T13:01:34.762Z</time></trkpt><trkpt lat="38.0409699" lon="14.9439051"><ele>896.6666666666666</ele><time>2026-05-01T13:01:36.763Z</time></trkpt><trkpt lat="38.0409587" lon="14.9438094"><ele>895.3333333333333</ele><time>2026-05-01T13:01:37.763Z</time></trkpt><trkpt lat="38.0409555" lon="14.9437283"><ele>894.0</ele><time>2026-05-01T13:01:38.763Z</time></trkpt><trkpt lat="38.0409783" lon="14.9436159"><ele>892.6666666666667</ele><time>2026-05-01T13:01:40.763Z</time></trkpt><trkpt lat="38.0410028" lon="14.943513"><ele>891.3333333333334</ele><time>2026-05-01T13:01:42.763Z</time></trkpt><trkpt lat="38.0410319" lon="14.9433904"><ele>890.0</ele><time>2026-05-01T13:01:44.762Z</time></trkpt><trkpt lat="38.0410499" lon="14.9433128"><ele>890.0</ele><time>2026-05-01T13:01:45.763Z</time></trkpt><trkpt lat="38.0410651" lon="14.9431775"><ele>890.0</ele><time>2026-05-01T13:01:47.763Z</time></trkpt><trkpt lat="38.0410567" lon="14.9430471"><ele>890.0</ele><time>2026-05-01T13:01:49.763Z</time></trkpt><trkpt lat="38.041058" lon="14.942908"><ele>890.0</ele><time>2026-05-01T13:01:51.763Z</time></trkpt><trkpt lat="38.0410684" lon="14.9427888"><ele>890.0</ele><time>2026-05-01T13:01:53.763Z</time></trkpt><trkpt lat="38.0410723" lon="14.9426573"><ele>889.5000000000001</ele><time>2026-05-01T13:01:55.763Z</time></trkpt><trkpt lat="38.0410896" lon="14.9425191"><ele>889.0</ele><time>2026-05-01T13:01:57.763Z</time></trkpt><trkpt lat="38.0411011" lon="14.9424341"><ele>888.5</ele><time>2026-05-01T13:01:59.763Z</time></trkpt><trkpt lat="38.0411255" lon="14.942356"><ele>888.0</ele><time>2026-05-01T13:02:01.763Z</time></trkpt><trkpt lat="38.0411501" lon="14.9422558"><ele>887.5000000000001</ele><time>2026-05-01T13:02:03.763Z</time></trkpt><trkpt lat="38.0411859" lon="14.9421528"><ele>887.0</ele><time>2026-05-01T13:02:05.763Z</time></trkpt><trkpt lat="38.0412226" lon="14.9420602"><ele>887.0</ele><time>2026-05-01T13:02:07.763Z</time></trkpt><trkpt lat="38.0412595" lon="14.9419735"><ele>887.0</ele><time>2026-05-01T13:02:09.763Z</time></trkpt><trkpt lat="38.041283" lon="14.9418973"><ele>887.0</ele><time>2026-05-01T13:02:11.763Z</time></trkpt><trkpt lat="38.04257" lon="14.9427133"><ele>880.7142857142857</ele><time>2026-05-01T13:06:59.718Z</time></trkpt><trkpt lat="38.0426157" lon="14.9427843"><ele>874.4285714285714</ele><time>2026-05-01T13:07:02.718Z</time></trkpt><trkpt lat="38.0426786" lon="14.9428164"><ele>868.1428571428571</ele><time>2026-05-01T13:07:04.718Z</time></trkpt><trkpt lat="38.0427386" lon="14.9428456"><ele>861.8571428571429</ele><time>2026-05-01T13:07:06.718Z</time></trkpt><trkpt lat="38.0428144" lon="14.9429032"><ele>855.5714285714286</ele><time>2026-05-01T13:07:09.718Z</time></trkpt><trkpt lat="38.0428533" lon="14.9429933"><ele>849.2857142857142</ele><time>2026-05-01T13:07:12.718Z</time></trkpt><trkpt lat="38.0428733" lon="14.9430717"><ele>843.0</ele><time>2026-05-01T13:07:14.718Z</time></trkpt><trkpt lat="38.0428767" lon="14.94316"><ele>843.0</ele><time>2026-05-01T13:07:16.718Z</time></trkpt><trkpt lat="38.042885" lon="14.9432683"><ele>843.0</ele><time>2026-05-01T13:07:19.718Z</time></trkpt><trkpt lat="38.0429333" lon="14.9431817"><ele>843.0</ele><time>2026-05-01T13:07:23.718Z</time></trkpt><trkpt lat="38.0429233" lon="14.943085"><ele>843.0</ele><time>2026-05-01T13:07:26.718Z</time></trkpt><trkpt lat="38.042915" lon="14.943"><ele>843.0</ele><time>2026-05-01T13:07:29.718Z</time></trkpt><trkpt lat="38.0429317" lon="14.9428917"><ele>843.0</ele><time>2026-05-01T13:07:50.718Z</time></trkpt><trkpt lat="38.0429" lon="14.942765"><ele>843.0</ele><time>2026-05-01T13:07:52.718Z</time></trkpt><trkpt lat="38.0428417" lon="14.942645"><ele>843.0</ele><time>2026-05-01T13:07:54.717Z</time></trkpt><trkpt lat="38.0427633" lon="14.9425417"><ele>843.0</ele><time>2026-05-01T13:07:56.718Z</time></trkpt><trkpt lat="38.04271" lon="14.94249"><ele>843.0</ele><time>2026-05-01T13:07:57.718Z</time></trkpt><trkpt lat="38.0426267" lon="14.9424167"><ele>843.0</ele><time>2026-05-01T13:07:59.718Z</time></trkpt><trkpt lat="38.0425483" lon="14.9423817"><ele>839.3333333333334</ele><time>2026-05-01T13:08:01.718Z</time></trkpt><trkpt lat="38.0425383" lon="14.9422867"><ele>835.6666666666667</ele><time>2026-05-01T13:08:04.718Z</time></trkpt><trkpt lat="38.0426183" lon="14.94227"><ele>832.0</ele><time>2026-05-01T13:08:06.718Z</time></trkpt><trkpt lat="38.0427017" lon="14.9422667"><ele>828.3333333333334</ele><time>2026-05-01T13:08:08.718Z</time></trkpt><trkpt lat="38.0427783" lon="14.9422433"><ele>824.6666666666667</ele><time>2026-05-01T13:08:10.718Z</time></trkpt><trkpt lat="38.0428533" lon="14.94223"><ele>821.0</ele><time>2026-05-01T13:08:12.718Z</time></trkpt><trkpt lat="38.0429367" lon="14.9422483"><ele>821.0</ele><time>2026-05-01T13:08:14.718Z</time></trkpt><trkpt lat="38.0430217" lon="14.9423067"><ele>821.0</ele><time>2026-05-01T13:08:16.718Z</time></trkpt><trkpt lat="38.0430767" lon="14.9423933"><ele>821.0</ele><time>2026-05-01T13:08:18.718Z</time></trkpt><trkpt lat="38.04312" lon="14.9425367"><ele>821.0</ele><time>2026-05-01T13:08:20.718Z</time></trkpt><trkpt lat="38.0431383" lon="14.9426183"><ele>821.0</ele><time>2026-05-01T13:08:21.718Z</time></trkpt><trkpt lat="38.043175" lon="14.9427633"><ele>819.5000000000001</ele><time>2026-05-01T13:08:23.718Z</time></trkpt><trkpt lat="38.0432133" lon="14.94287"><ele>818.0</ele><time>2026-05-01T13:08:25.718Z</time></trkpt><trkpt lat="38.0432833" lon="14.942905"><ele>816.5</ele><time>2026-05-01T13:08:27.718Z</time></trkpt><trkpt lat="38.04336" lon="14.942895"><ele>815.0</ele><time>2026-05-01T13:08:29.718Z</time></trkpt><trkpt lat="38.0433983" lon="14.94281"><ele>813.5000000000001</ele><time>2026-05-01T13:08:32.718Z</time></trkpt><trkpt lat="38.04333" lon="14.9427417"><ele>812.0</ele><time>2026-05-01T13:08:34.718Z</time></trkpt><trkpt lat="38.0432833" lon="14.9426733"><ele>813.5000000000001</ele><time>2026-05-01T13:08:36.717Z</time></trkpt><trkpt lat="38.0432683" lon="14.9425467"><ele>815.0</ele><time>2026-05-01T13:08:38.718Z</time></trkpt><trkpt lat="38.04327" lon="14.9424467"><ele>816.5</ele><time>2026-05-01T13:08:39.719Z</time></trkpt><trkpt lat="38.043285" lon="14.9423383"><ele>818.0</ele><time>2026-05-01T13:08:40.719Z</time></trkpt><trkpt lat="38.0432933" lon="14.9422533"><ele>819.5000000000001</ele><time>2026-05-01T13:08:41.719Z</time></trkpt><trkpt lat="38.0432683" lon="14.9421233"><ele>821.0</ele><time>2026-05-01T13:08:43.719Z</time></trkpt><trkpt lat="38.04319" lon="14.9420267"><ele>821.0</ele><time>2026-05-01T13:08:45.719Z</time></trkpt><trkpt lat="38.0431033" lon="14.9419733"><ele>821.0</ele><time>2026-05-01T13:08:47.718Z</time></trkpt><trkpt lat="38.0430017" lon="14.94193"><ele>821.0</ele><time>2026-05-01T13:08:49.719Z</time></trkpt><trkpt lat="38.0429267" lon="14.9418483"><ele>821.0</ele><time>2026-05-01T13:08:51.719Z</time></trkpt><trkpt lat="38.0428617" lon="14.9417533"><ele>821.0</ele><time>2026-05-01T13:08:53.718Z</time></trkpt><trkpt lat="38.042795" lon="14.9416583"><ele>817.3333333333334</ele><time>2026-05-01T13:08:55.719Z</time></trkpt><trkpt lat="38.0427217" lon="14.9416117"><ele>813.6666666666667</ele><time>2026-05-01T13:08:57.719Z</time></trkpt><trkpt lat="38.0426583" lon="14.9415883"><ele>810.0</ele><time>2026-05-01T13:08:59.719Z</time></trkpt><trkpt lat="38.04269" lon="14.9415133"><ele>806.3333333333333</ele><time>2026-05-01T13:09:02.719Z</time></trkpt><trkpt lat="38.0427967" lon="14.94155"><ele>802.6666666666666</ele><time>2026-05-01T13:09:04.719Z</time></trkpt><trkpt lat="38.042865" lon="14.9415817"><ele>799.0</ele><time>2026-05-01T13:09:05.719Z</time></trkpt><trkpt lat="38.0429283" lon="14.941615"><ele>799.0</ele><time>2026-05-01T13:09:06.719Z</time></trkpt><trkpt lat="38.043025" lon="14.9416567"><ele>799.0</ele><time>2026-05-01T13:09:08.719Z</time></trkpt><trkpt lat="38.043125" lon="14.9416667"><ele>799.0</ele><time>2026-05-01T13:09:10.719Z</time></trkpt><trkpt lat="38.0432367" lon="14.9416817"><ele>799.0</ele><time>2026-05-01T13:09:12.718Z</time></trkpt><trkpt lat="38.0433483" lon="14.94171"><ele>799.0</ele><time>2026-05-01T13:09:14.719Z</time></trkpt><trkpt lat="38.0434717" lon="14.941765"><ele>797.4999999999999</ele><time>2026-05-01T13:09:16.718Z</time></trkpt><trkpt lat="38.0435417" lon="14.9418067"><ele>796.0</ele><time>2026-05-01T13:09:17.719Z</time></trkpt><trkpt lat="38.0436083" lon="14.9418533"><ele>794.5</ele><time>2026-05-01T13:09:18.718Z</time></trkpt><trkpt lat="38.0436583" lon="14.9419067"><ele>793.0</ele><time>2026-05-01T13:09:19.718Z</time></trkpt><trkpt lat="38.0437433" lon="14.94201"><ele>791.4999999999999</ele><time>2026-05-01T13:09:21.719Z</time></trkpt><trkpt lat="38.0437917" lon="14.9420817"><ele>790.0</ele><time>2026-05-01T13:09:23.719Z</time></trkpt><trkpt lat="38.0438533" lon="14.9420233"><ele>789.9999999999999</ele><time>2026-05-01T13:10:01.719Z</time></trkpt><trkpt lat="38.0437817" lon="14.9419917"><ele>790.0</ele><time>2026-05-01T13:10:08.719Z</time></trkpt><trkpt lat="38.0437183" lon="14.9419417"><ele>790.0</ele><time>2026-05-01T13:10:10.719Z</time></trkpt><trkpt lat="38.043695" lon="14.94182"><ele>790.0</ele><time>2026-05-01T13:10:12.719Z</time></trkpt><trkpt lat="38.04365" lon="14.94174"><ele>789.9999999999999</ele><time>2026-05-01T13:10:13.719Z</time></trkpt><trkpt lat="38.0435917" lon="14.9416717"><ele>790.0</ele><time>2026-05-01T13:10:14.719Z</time></trkpt><trkpt lat="38.0435267" lon="14.9416233"><ele>786.1666666666666</ele><time>2026-05-01T13:10:15.719Z</time></trkpt><trkpt lat="38.043455" lon="14.9415867"><ele>782.3333333333333</ele><time>2026-05-01T13:10:16.719Z</time></trkpt><trkpt lat="38.043395" lon="14.9415583"><ele>778.5</ele><time>2026-05-01T13:10:17.718Z</time></trkpt><trkpt lat="38.0433367" lon="14.9415167"><ele>774.6666666666666</ele><time>2026-05-01T13:10:20.719Z</time></trkpt><trkpt lat="38.0433883" lon="14.9414083"><ele>770.8333333333333</ele><time>2026-05-01T13:11:03.719Z</time></trkpt><trkpt lat="38.043445" lon="14.9413317"><ele>767.0</ele><time>2026-05-01T13:11:05.719Z</time></trkpt><trkpt lat="38.0435333" lon="14.9413033"><ele>767.0</ele><time>2026-05-01T13:11:07.719Z</time></trkpt><trkpt lat="38.0436333" lon="14.9413217"><ele>767.0</ele><time>2026-05-01T13:11:09.719Z</time></trkpt><trkpt lat="38.0437417" lon="14.94138"><ele>767.0</ele><time>2026-05-01T13:11:11.719Z</time></trkpt><trkpt lat="38.04386" lon="14.9414017"><ele>767.0</ele><time>2026-05-01T13:11:13.719Z</time></trkpt><trkpt lat="38.04392" lon="14.9414317"><ele>767.0</ele><time>2026-05-01T13:11:14.719Z</time></trkpt><trkpt lat="38.0440333" lon="14.9415017"><ele>767.0</ele><time>2026-05-01T13:11:16.719Z</time></trkpt><trkpt lat="38.0440983" lon="14.9415533"><ele>767.0</ele><time>2026-05-01T13:11:17.719Z</time></trkpt><trkpt lat="38.0442133" lon="14.94159"><ele>767.0</ele><time>2026-05-01T13:11:19.718Z</time></trkpt><trkpt lat="38.0442833" lon="14.94161"><ele>767.0</ele><time>2026-05-01T13:11:20.719Z</time></trkpt><trkpt lat="38.0443533" lon="14.9416333"><ele>767.0</ele><time>2026-05-01T13:11:21.718Z</time></trkpt><trkpt lat="38.0444133" lon="14.9416583"><ele>767.0</ele><time>2026-05-01T13:11:22.719Z</time></trkpt><trkpt lat="38.0444733" lon="14.9416833"><ele>766.0</ele><time>2026-05-01T13:11:23.719Z</time></trkpt><trkpt lat="38.0445867" lon="14.9417267"><ele>765.0</ele><time>2026-05-01T13:11:25.719Z</time></trkpt><trkpt lat="38.04465" lon="14.941725"><ele>764.0</ele><time>2026-05-01T13:11:26.719Z</time></trkpt><trkpt lat="38.044715" lon="14.9416983"><ele>763.0</ele><time>2026-05-01T13:11:27.719Z</time></trkpt><trkpt lat="38.0448367" lon="14.94165"><ele>762.0</ele><time>2026-05-01T13:11:29.719Z</time></trkpt><trkpt lat="38.0448917" lon="14.9416067"><ele>761.0</ele><time>2026-05-01T13:11:30.719Z</time></trkpt><trkpt lat="38.0449417" lon="14.94155"><ele>759.8</ele><time>2026-05-01T13:11:31.719Z</time></trkpt><trkpt lat="38.0449967" lon="14.9414767"><ele>758.5999999999999</ele><time>2026-05-01T13:11:32.719Z</time></trkpt><trkpt lat="38.0450417" lon="14.9414183"><ele>757.4</ele><time>2026-05-01T13:11:33.719Z</time></trkpt><trkpt lat="38.0451383" lon="14.9413183"><ele>756.2</ele><time>2026-05-01T13:11:35.719Z</time></trkpt><trkpt lat="38.0452367" lon="14.9412483"><ele>755.0</ele><time>2026-05-01T13:11:37.719Z</time></trkpt><trkpt lat="38.0453317" lon="14.9412417"><ele>755.0</ele><time>2026-05-01T13:11:39.719Z</time></trkpt><trkpt lat="38.0454283" lon="14.9412267"><ele>755.0</ele><time>2026-05-01T13:11:41.718Z</time></trkpt><trkpt lat="38.0455217" lon="14.94117"><ele>755.0</ele><time>2026-05-01T13:11:43.719Z</time></trkpt><trkpt lat="38.0456067" lon="14.94107"><ele>755.0</ele><time>2026-05-01T13:11:45.719Z</time></trkpt><trkpt lat="38.0456967" lon="14.9409917"><ele>755.0</ele><time>2026-05-01T13:11:47.719Z</time></trkpt><trkpt lat="38.04577" lon="14.9409483"><ele>752.2</ele><time>2026-05-01T13:11:49.719Z</time></trkpt><trkpt lat="38.0458567" lon="14.9409367"><ele>749.4</ele><time>2026-05-01T13:11:51.719Z</time></trkpt><trkpt lat="38.0459433" lon="14.9409383"><ele>746.5999999999999</ele><time>2026-05-01T13:11:53.719Z</time></trkpt><trkpt lat="38.0460317" lon="14.9409317"><ele>743.8</ele><time>2026-05-01T13:11:55.719Z</time></trkpt><trkpt lat="38.046145" lon="14.9409233"><ele>741.0</ele><time>2026-05-01T13:11:57.719Z</time></trkpt><trkpt lat="38.0462267" lon="14.9409083"><ele>741.0</ele><time>2026-05-01T13:11:58.719Z</time></trkpt><trkpt lat="38.0463117" lon="14.94089"><ele>741.0</ele><time>2026-05-01T13:11:59.719Z</time></trkpt><trkpt lat="38.0463867" lon="14.9408717"><ele>741.0</ele><time>2026-05-01T13:12:00.718Z</time></trkpt><trkpt lat="38.0464367" lon="14.9408183"><ele>741.0</ele><time>2026-05-01T13:12:01.719Z</time></trkpt><trkpt lat="38.0464767" lon="14.9407483"><ele>741.0</ele><time>2026-05-01T13:12:02.718Z</time></trkpt><trkpt lat="38.0465033" lon="14.9406433"><ele>741.0</ele><time>2026-05-01T13:12:04.719Z</time></trkpt><trkpt lat="38.04657" lon="14.9405983"><ele>739.8</ele><time>2026-05-01T13:12:06.718Z</time></trkpt><trkpt lat="38.0466733" lon="14.94062"><ele>738.5999999999999</ele><time>2026-05-01T13:12:08.719Z</time></trkpt><trkpt lat="38.0467533" lon="14.940625"><ele>737.4</ele><time>2026-05-01T13:12:09.718Z</time></trkpt><trkpt lat="38.04684" lon="14.94061"><ele>736.2</ele><time>2026-05-01T13:12:10.719Z</time></trkpt><trkpt lat="38.0469383" lon="14.9405683"><ele>735.0</ele><time>2026-05-01T13:12:11.718Z</time></trkpt><trkpt lat="38.04703" lon="14.94053"><ele>735.0</ele><time>2026-05-01T13:12:12.719Z</time></trkpt><trkpt lat="38.0471117" lon="14.9404967"><ele>735.0</ele><time>2026-05-01T13:12:13.719Z</time></trkpt><trkpt lat="38.0471883" lon="14.9404733"><ele>735.0</ele><time>2026-05-01T13:12:14.719Z</time></trkpt><trkpt lat="38.0472717" lon="14.9404567"><ele>735.0</ele><time>2026-05-01T13:12:15.719Z</time></trkpt><trkpt lat="38.04735" lon="14.9404533"><ele>735.0</ele><time>2026-05-01T13:12:16.719Z</time></trkpt><trkpt lat="38.047425" lon="14.9404783"><ele>735.0</ele><time>2026-05-01T13:12:17.718Z</time></trkpt><trkpt lat="38.047495" lon="14.94049"><ele>733.3333333333334</ele><time>2026-05-01T13:12:18.719Z</time></trkpt><trkpt lat="38.0475583" lon="14.9404867"><ele>731.6666666666666</ele><time>2026-05-01T13:12:19.719Z</time></trkpt><trkpt lat="38.0476783" lon="14.9404783"><ele>730.0</ele><time>2026-05-01T13:12:21.719Z</time></trkpt><trkpt lat="38.0477733" lon="14.9404167"><ele>728.3333333333333</ele><time>2026-05-01T13:12:23.718Z</time></trkpt><trkpt lat="38.0478283" lon="14.9403667"><ele>726.6666666666666</ele><time>2026-05-01T13:12:24.719Z</time></trkpt><trkpt lat="38.0478733" lon="14.9403067"><ele>725.0</ele><time>2026-05-01T13:12:25.719Z</time></trkpt><trkpt lat="38.0479167" lon="14.9402467"><ele>725.0</ele><time>2026-05-01T13:12:26.719Z</time></trkpt><trkpt lat="38.0479867" lon="14.9401433"><ele>725.0</ele><time>2026-05-01T13:12:28.719Z</time></trkpt><trkpt lat="38.04809" lon="14.9401"><ele>725.0</ele><time>2026-05-01T13:12:30.719Z</time></trkpt><trkpt lat="38.0482167" lon="14.9401433"><ele>725.0</ele><time>2026-05-01T13:12:32.719Z</time></trkpt><trkpt lat="38.048275" lon="14.9401933"><ele>725.0</ele><time>2026-05-01T13:12:33.719Z</time></trkpt><trkpt lat="38.04833" lon="14.940235"><ele>720.8</ele><time>2026-05-01T13:12:34.719Z</time></trkpt><trkpt lat="38.0484283" lon="14.9402833"><ele>716.6</ele><time>2026-05-01T13:12:36.719Z</time></trkpt><trkpt lat="38.0485083" lon="14.9402467"><ele>712.4000000000001</ele><time>2026-05-01T13:12:38.719Z</time></trkpt><trkpt lat="38.0485967" lon="14.9401633"><ele>708.2</ele><time>2026-05-01T13:12:40.719Z</time></trkpt><trkpt lat="38.0486883" lon="14.9400917"><ele>704.0</ele><time>2026-05-01T13:12:42.718Z</time></trkpt><trkpt lat="38.0487583" lon="14.9400583"><ele>700.8000000000001</ele><time>2026-05-01T13:12:44.719Z</time></trkpt><trkpt lat="38.0488383" lon="14.94003"><ele>697.6</ele><time>2026-05-01T13:12:46.719Z</time></trkpt><trkpt lat="38.04893" lon="14.9400217"><ele>694.4</ele><time>2026-05-01T13:12:48.719Z</time></trkpt><trkpt lat="38.04905" lon="14.9400217"><ele>691.2</ele><time>2026-05-01T13:12:50.718Z</time></trkpt><trkpt lat="38.0491133" lon="14.9400467"><ele>688.0</ele><time>2026-05-01T13:12:51.719Z</time></trkpt><trkpt lat="38.0492367" lon="14.9400633"><ele>688.0</ele><time>2026-05-01T13:12:53.719Z</time></trkpt><trkpt lat="38.0493083" lon="14.9400617"><ele>688.0</ele><time>2026-05-01T13:12:54.718Z</time></trkpt><trkpt lat="38.0493767" lon="14.94005"><ele>688.0</ele><time>2026-05-01T13:12:55.719Z</time></trkpt><trkpt lat="38.0494917" lon="14.940055"><ele>688.0</ele><time>2026-05-01T13:12:57.719Z</time></trkpt><trkpt lat="38.0495567" lon="14.94003"><ele>688.0</ele><time>2026-05-01T13:12:59.719Z</time></trkpt><trkpt lat="38.0496567" lon="14.9400033"><ele>688.0</ele><time>2026-05-01T13:13:01.719Z</time></trkpt><trkpt lat="38.049735" lon="14.93993"><ele>696.2</ele><time>2026-05-01T13:13:03.719Z</time></trkpt><trkpt lat="38.0497667" lon="14.939825"><ele>704.4</ele><time>2026-05-01T13:13:05.719Z</time></trkpt><trkpt lat="38.0497983" lon="14.9397167"><ele>712.6</ele><time>2026-05-01T13:13:07.719Z</time></trkpt><trkpt lat="38.04983" lon="14.939595"><ele>720.8000000000001</ele><time>2026-05-01T13:13:09.719Z</time></trkpt><trkpt lat="38.04988" lon="14.93947"><ele>729.0</ele><time>2026-05-01T13:13:11.719Z</time></trkpt><trkpt lat="38.0499267" lon="14.9394"><ele>727.8000000000001</ele><time>2026-05-01T13:13:12.719Z</time></trkpt><trkpt lat="38.0499767" lon="14.9393267"><ele>726.6</ele><time>2026-05-01T13:13:13.719Z</time></trkpt><trkpt lat="38.0500483" lon="14.93923"><ele>725.4</ele><time>2026-05-01T13:13:14.719Z</time></trkpt><trkpt lat="38.05013" lon="14.939115"><ele>724.2</ele><time>2026-05-01T13:13:15.719Z</time></trkpt><trkpt lat="38.05022" lon="14.9389767"><ele>723.0</ele><time>2026-05-01T13:13:16.719Z</time></trkpt><trkpt lat="38.0503083" lon="14.9388433"><ele>723.0</ele><time>2026-05-01T13:13:17.719Z</time></trkpt><trkpt lat="38.0504017" lon="14.938725"><ele>723.0</ele><time>2026-05-01T13:13:18.718Z</time></trkpt><trkpt lat="38.050475" lon="14.9386233"><ele>723.0</ele><time>2026-05-01T13:13:19.719Z</time></trkpt><trkpt lat="38.05054" lon="14.938545"><ele>723.0</ele><time>2026-05-01T13:13:20.719Z</time></trkpt><trkpt lat="38.050615" lon="14.938465"><ele>723.0</ele><time>2026-05-01T13:13:21.719Z</time></trkpt><trkpt lat="38.0506917" lon="14.938395"><ele>726.3333333333334</ele><time>2026-05-01T13:13:22.719Z</time></trkpt><trkpt lat="38.0507683" lon="14.938325"><ele>729.6666666666666</ele><time>2026-05-01T13:13:23.719Z</time></trkpt><trkpt lat="38.05083" lon="14.93825"><ele>733.0</ele><time>2026-05-01T13:13:24.719Z</time></trkpt><trkpt lat="38.05088" lon="14.93819"><ele>736.3333333333333</ele><time>2026-05-01T13:13:25.719Z</time></trkpt><trkpt lat="38.05096" lon="14.938095"><ele>739.6666666666666</ele><time>2026-05-01T13:13:27.719Z</time></trkpt><trkpt lat="38.0510082" lon="14.9380153"><ele>743.0</ele><time>2026-05-01T13:13:55.719Z</time></trkpt><trkpt lat="38.051017" lon="14.9379326"><ele>738.5714285714286</ele><time>2026-05-01T13:15:03.72Z</time></trkpt><trkpt lat="38.0510409" lon="14.9378526"><ele>734.1428571428571</ele><time>2026-05-01T13:15:07.72Z</time></trkpt><trkpt lat="38.0510833" lon="14.9377748"><ele>729.7142857142857</ele><time>2026-05-01T13:15:11.72Z</time></trkpt><trkpt lat="38.0511287" lon="14.9376845"><ele>725.2857142857142</ele><time>2026-05-01T13:15:14.72Z</time></trkpt><trkpt lat="38.0511689" lon="14.9376164"><ele>720.8571428571429</ele><time>2026-05-01T13:15:16.72Z</time></trkpt><trkpt lat="38.0512054" lon="14.9375424"><ele>716.4285714285713</ele><time>2026-05-01T13:15:18.72Z</time></trkpt><trkpt lat="38.0512061" lon="14.9374581"><ele>712.0</ele><time>2026-05-01T13:15:20.72Z</time></trkpt><trkpt lat="38.0511759" lon="14.9373611"><ele>712.0</ele><time>2026-05-01T13:15:22.72Z</time></trkpt><trkpt lat="38.0511391" lon="14.937266"><ele>712.0</ele><time>2026-05-01T13:15:24.72Z</time></trkpt><trkpt lat="38.0511008" lon="14.9371674"><ele>712.0</ele><time>2026-05-01T13:15:26.719Z</time></trkpt><trkpt lat="38.0510581" lon="14.937066"><ele>712.0</ele><time>2026-05-01T13:15:28.72Z</time></trkpt><trkpt lat="38.0510219" lon="14.9369505"><ele>712.0</ele><time>2026-05-01T13:15:30.72Z</time></trkpt><trkpt lat="38.0509838" lon="14.9368289"><ele>712.0</ele><time>2026-05-01T13:15:32.72Z</time></trkpt><trkpt lat="38.050945" lon="14.9367217"><ele>712.0</ele><time>2026-05-01T13:15:34.72Z</time></trkpt><trkpt lat="38.0509033" lon="14.9366183"><ele>712.0</ele><time>2026-05-01T13:15:36.72Z</time></trkpt><trkpt lat="38.0509017" lon="14.936495"><ele>712.0</ele><time>2026-05-01T13:15:38.72Z</time></trkpt><trkpt lat="38.0509783" lon="14.9363783"><ele>712.0</ele><time>2026-05-01T13:15:40.72Z</time></trkpt><trkpt lat="38.0510683" lon="14.9363"><ele>711.4000000000001</ele><time>2026-05-01T13:15:42.72Z</time></trkpt><trkpt lat="38.0511283" lon="14.9362667"><ele>710.8000000000001</ele><time>2026-05-01T13:15:43.72Z</time></trkpt><trkpt lat="38.0512317" lon="14.9362183"><ele>710.2</ele><time>2026-05-01T13:15:45.72Z</time></trkpt><trkpt lat="38.0512833" lon="14.936135"><ele>709.6</ele><time>2026-05-01T13:15:47.72Z</time></trkpt><trkpt lat="38.051295" lon="14.9360183"><ele>709.0</ele><time>2026-05-01T13:15:49.72Z</time></trkpt><trkpt lat="38.051275" lon="14.9358717"><ele>708.7142857142858</ele><time>2026-05-01T13:15:51.72Z</time></trkpt><trkpt lat="38.0512617" lon="14.9357933"><ele>708.4285714285714</ele><time>2026-05-01T13:15:52.72Z</time></trkpt><trkpt lat="38.0512433" lon="14.9357167"><ele>708.1428571428571</ele><time>2026-05-01T13:15:53.72Z</time></trkpt><trkpt lat="38.0512267" lon="14.9356367"><ele>707.8571428571429</ele><time>2026-05-01T13:15:54.72Z</time></trkpt><trkpt lat="38.0512017" lon="14.9355633"><ele>707.5714285714286</ele><time>2026-05-01T13:15:55.72Z</time></trkpt><trkpt lat="38.0511567" lon="14.935445"><ele>707.2857142857143</ele><time>2026-05-01T13:15:57.72Z</time></trkpt><trkpt lat="38.0511017" lon="14.93536"><ele>707.0</ele><time>2026-05-01T13:15:59.72Z</time></trkpt><trkpt lat="38.0510567" lon="14.93529"><ele>707.0</ele><time>2026-05-01T13:16:02.72Z</time></trkpt><trkpt lat="38.0510971" lon="14.9352034"><ele>707.0</ele><time>2026-05-01T13:17:36.72Z</time></trkpt><trkpt lat="38.0511424" lon="14.9350955"><ele>707.0</ele><time>2026-05-01T13:17:38.719Z</time></trkpt><trkpt lat="38.0512249" lon="14.9349804"><ele>707.0</ele><time>2026-05-01T13:17:40.72Z</time></trkpt><trkpt lat="38.0512822" lon="14.9349128"><ele>707.0</ele><time>2026-05-01T13:17:41.72Z</time></trkpt><trkpt lat="38.0513414" lon="14.9348593"><ele>707.0</ele><time>2026-05-01T13:17:42.72Z</time></trkpt><trkpt lat="38.0514299" lon="14.9347885"><ele>707.6</ele><time>2026-05-01T13:17:44.72Z</time></trkpt><trkpt lat="38.0514979" lon="14.9347496"><ele>708.2</ele><time>2026-05-01T13:17:47.72Z</time></trkpt><trkpt lat="38.0516103" lon="14.9347617"><ele>708.8</ele><time>2026-05-01T13:18:25.72Z</time></trkpt><trkpt lat="38.0516823" lon="14.9347372"><ele>709.4</ele><time>2026-05-01T13:18:26.72Z</time></trkpt><trkpt lat="38.051771" lon="14.9347088"><ele>710.0</ele><time>2026-05-01T13:18:27.719Z</time></trkpt><trkpt lat="38.0518712" lon="14.934689"><ele>705.3333333333333</ele><time>2026-05-01T13:18:28.72Z</time></trkpt><trkpt lat="38.0519804" lon="14.9346568"><ele>700.6666666666666</ele><time>2026-05-01T13:18:29.72Z</time></trkpt><trkpt lat="38.0520706" lon="14.9346274"><ele>696.0</ele><time>2026-05-01T13:18:30.72Z</time></trkpt><trkpt lat="38.0521297" lon="14.934584"><ele>691.3333333333334</ele><time>2026-05-01T13:18:31.72Z</time></trkpt><trkpt lat="38.0521695" lon="14.9344522"><ele>686.6666666666667</ele><time>2026-05-01T13:18:33.719Z</time></trkpt><trkpt lat="38.0521576" lon="14.9343725"><ele>682.0</ele><time>2026-05-01T13:18:34.72Z</time></trkpt><trkpt lat="38.0521317" lon="14.9342352"><ele>686.1666666666667</ele><time>2026-05-01T13:18:36.72Z</time></trkpt><trkpt lat="38.0520788" lon="14.934133"><ele>690.3333333333334</ele><time>2026-05-01T13:18:38.72Z</time></trkpt><trkpt lat="38.0520104" lon="14.9340486"><ele>694.5</ele><time>2026-05-01T13:18:40.72Z</time></trkpt><trkpt lat="38.051959" lon="14.933998"><ele>698.6666666666666</ele><time>2026-05-01T13:18:41.72Z</time></trkpt><trkpt lat="38.0518933" lon="14.9339333"><ele>702.8333333333333</ele><time>2026-05-01T13:18:42.719Z</time></trkpt><trkpt lat="38.0518417" lon="14.9338833"><ele>707.0</ele><time>2026-05-01T13:18:43.72Z</time></trkpt><trkpt lat="38.0517917" lon="14.9338267"><ele>707.0</ele><time>2026-05-01T13:18:44.72Z</time></trkpt><trkpt lat="38.05175" lon="14.93376"><ele>707.0</ele><time>2026-05-01T13:18:45.719Z</time></trkpt><trkpt lat="38.0516783" lon="14.9336467"><ele>707.0</ele><time>2026-05-01T13:18:47.72Z</time></trkpt><trkpt lat="38.0515933" lon="14.9335517"><ele>707.0</ele><time>2026-05-01T13:18:49.72Z</time></trkpt><trkpt lat="38.0514933" lon="14.93348"><ele>707.0</ele><time>2026-05-01T13:18:51.72Z</time></trkpt><trkpt lat="38.051405" lon="14.9334183"><ele>711.6666666666666</ele><time>2026-05-01T13:18:53.72Z</time></trkpt><trkpt lat="38.0513367" lon="14.9333483"><ele>716.3333333333333</ele><time>2026-05-01T13:18:55.72Z</time></trkpt><trkpt lat="38.0512683" lon="14.933215"><ele>721.0</ele><time>2026-05-01T13:18:57.72Z</time></trkpt><trkpt lat="38.0512333" lon="14.9331383"><ele>725.6666666666666</ele><time>2026-05-01T13:18:58.72Z</time></trkpt><trkpt lat="38.0511917" lon="14.93305"><ele>730.3333333333334</ele><time>2026-05-01T13:18:59.72Z</time></trkpt><trkpt lat="38.0511533" lon="14.9329667"><ele>735.0</ele><time>2026-05-01T13:19:00.72Z</time></trkpt><trkpt lat="38.051125" lon="14.93289"><ele>735.0</ele><time>2026-05-01T13:19:01.719Z</time></trkpt><trkpt lat="38.051105" lon="14.9328083"><ele>735.0</ele><time>2026-05-01T13:19:02.72Z</time></trkpt><trkpt lat="38.0510883" lon="14.932655"><ele>735.0</ele><time>2026-05-01T13:19:04.72Z</time></trkpt><trkpt lat="38.0511067" lon="14.9325467"><ele>735.0</ele><time>2026-05-01T13:19:05.72Z</time></trkpt><trkpt lat="38.0511183" lon="14.9324567"><ele>735.0</ele><time>2026-05-01T13:19:06.719Z</time></trkpt><trkpt lat="38.05116" lon="14.93238"><ele>735.0</ele><time>2026-05-01T13:19:07.72Z</time></trkpt><trkpt lat="38.0512117" lon="14.9323233"><ele>732.1666666666666</ele><time>2026-05-01T13:19:08.721Z</time></trkpt><trkpt lat="38.0513083" lon="14.9322683"><ele>729.3333333333334</ele><time>2026-05-01T13:19:10.721Z</time></trkpt><trkpt lat="38.0512883" lon="14.9323567"><ele>726.5</ele><time>2026-05-01T13:19:16.721Z</time></trkpt><trkpt lat="38.051215" lon="14.9323717"><ele>723.6666666666667</ele><time>2026-05-01T13:19:20.721Z</time></trkpt><trkpt lat="38.0511534" lon="14.932283"><ele>720.8333333333334</ele><time>2026-05-01T13:20:10.721Z</time></trkpt><trkpt lat="38.0511927" lon="14.9321965"><ele>718.0</ele><time>2026-05-01T13:20:25.721Z</time></trkpt><trkpt lat="38.051251" lon="14.9321393"><ele>718.0</ele><time>2026-05-01T13:20:35.721Z</time></trkpt><trkpt lat="38.051302" lon="14.9320843"><ele>718.0</ele><time>2026-05-01T13:20:37.721Z</time></trkpt><trkpt lat="38.0513575" lon="14.9320412"><ele>718.0</ele><time>2026-05-01T13:20:39.721Z</time></trkpt><trkpt lat="38.0514189" lon="14.9319926"><ele>718.0</ele><time>2026-05-01T13:20:41.721Z</time></trkpt><trkpt lat="38.0514653" lon="14.9319262"><ele>718.0</ele><time>2026-05-01T13:20:55.721Z</time></trkpt><trkpt lat="38.051381" lon="14.9319027"><ele>718.0</ele><time>2026-05-01T13:22:03.721Z</time></trkpt><trkpt lat="38.0512899" lon="14.9318698"><ele>718.0</ele><time>2026-05-01T13:22:05.721Z</time></trkpt><trkpt lat="38.0512082" lon="14.9318607"><ele>718.0</ele><time>2026-05-01T13:22:07.721Z</time></trkpt><trkpt lat="38.0511346" lon="14.9318264"><ele>718.0</ele><time>2026-05-01T13:22:09.721Z</time></trkpt><trkpt lat="38.0511969" lon="14.9318802"><ele>718.0</ele><time>2026-05-01T13:22:30.721Z</time></trkpt><trkpt lat="38.0512713" lon="14.9318874"><ele>718.0</ele><time>2026-05-01T13:22:33.721Z</time></trkpt><trkpt lat="38.0513548" lon="14.9319185"><ele>718.0</ele><time>2026-05-01T13:22:36.721Z</time></trkpt><trkpt lat="38.0514209" lon="14.9319336"><ele>718.0</ele><time>2026-05-01T13:22:38.721Z</time></trkpt><trkpt lat="38.0514952" lon="14.9319815"><ele>718.0</ele><time>2026-05-01T13:22:41.721Z</time></trkpt><trkpt lat="38.0514456" lon="14.9320438"><ele>718.0</ele><time>2026-05-01T13:22:45.721Z</time></trkpt><trkpt lat="38.0513686" lon="14.9320756"><ele>718.0</ele><time>2026-05-01T13:22:48.721Z</time></trkpt><trkpt lat="38.0513114" lon="14.9321405"><ele>718.0</ele><time>2026-05-01T13:22:52.721Z</time></trkpt><trkpt lat="38.0511783" lon="14.9321671"><ele>718.0</ele><time>2026-05-01T13:23:21.72Z</time></trkpt><trkpt lat="38.0511408" lon="14.9322671"><ele>718.0</ele><time>2026-05-01T13:23:34.721Z</time></trkpt><trkpt lat="38.0511778" lon="14.9323392"><ele>718.0</ele><time>2026-05-01T13:23:36.721Z</time></trkpt><trkpt lat="38.0512454" lon="14.9324364"><ele>718.0</ele><time>2026-05-01T13:23:39.721Z</time></trkpt><trkpt lat="38.0513027" lon="14.932481"><ele>718.0</ele><time>2026-05-01T13:23:42.721Z</time></trkpt><trkpt lat="38.0513483" lon="14.9325548"><ele>718.0</ele><time>2026-05-01T13:23:45.721Z</time></trkpt><trkpt lat="38.0512601" lon="14.9325036"><ele>718.0</ele><time>2026-05-01T13:23:49.72Z</time></trkpt><trkpt lat="38.0512404" lon="14.9323838"><ele>718.0</ele><time>2026-05-01T13:23:51.721Z</time></trkpt><trkpt lat="38.0512926" lon="14.9322754"><ele>718.0</ele><time>2026-05-01T13:23:53.721Z</time></trkpt><trkpt lat="38.0513499" lon="14.9322339"><ele>718.0</ele><time>2026-05-01T13:23:54.721Z</time></trkpt><trkpt lat="38.0514345" lon="14.9321971"><ele>718.0</ele><time>2026-05-01T13:23:55.72Z</time></trkpt><trkpt lat="38.0515394" lon="14.9321797"><ele>718.0</ele><time>2026-05-01T13:23:56.72Z</time></trkpt><trkpt lat="38.0516693" lon="14.9321703"><ele>710.25</ele><time>2026-05-01T13:23:57.721Z</time></trkpt><trkpt lat="38.0518186" lon="14.9321756"><ele>702.5</ele><time>2026-05-01T13:23:58.721Z</time></trkpt><trkpt lat="38.0519575" lon="14.9321789"><ele>694.75</ele><time>2026-05-01T13:23:59.722Z</time></trkpt><trkpt lat="38.0520604" lon="14.9321683"><ele>687.0</ele><time>2026-05-01T13:24:00.722Z</time></trkpt><trkpt lat="38.0521491" lon="14.9321411"><ele>687.0</ele><time>2026-05-01T13:24:01.722Z</time></trkpt><trkpt lat="38.0522217" lon="14.9320915"><ele>687.0</ele><time>2026-05-01T13:24:02.722Z</time></trkpt><trkpt lat="38.0522754" lon="14.93202"><ele>687.0</ele><time>2026-05-01T13:24:03.722Z</time></trkpt><trkpt lat="38.0523099" lon="14.9319215"><ele>687.0</ele><time>2026-05-01T13:24:04.722Z</time></trkpt><trkpt lat="38.0523366" lon="14.9318179"><ele>687.0</ele><time>2026-05-01T13:24:05.722Z</time></trkpt><trkpt lat="38.0523482" lon="14.9317164"><ele>687.0</ele><time>2026-05-01T13:24:06.722Z</time></trkpt><trkpt lat="38.0523591" lon="14.9316159"><ele>686.8333333333334</ele><time>2026-05-01T13:24:07.722Z</time></trkpt><trkpt lat="38.0523768" lon="14.9315263"><ele>686.6666666666666</ele><time>2026-05-01T13:24:08.722Z</time></trkpt><trkpt lat="38.0523958" lon="14.9314339"><ele>686.5</ele><time>2026-05-01T13:24:09.721Z</time></trkpt><trkpt lat="38.0524207" lon="14.9313409"><ele>686.3333333333333</ele><time>2026-05-01T13:24:10.722Z</time></trkpt><trkpt lat="38.0524522" lon="14.931246"><ele>686.1666666666666</ele><time>2026-05-01T13:24:11.722Z</time></trkpt><trkpt lat="38.0524801" lon="14.9311507"><ele>686.0</ele><time>2026-05-01T13:24:12.722Z</time></trkpt><trkpt lat="38.0525077" lon="14.9310553"><ele>686.0</ele><time>2026-05-01T13:24:13.722Z</time></trkpt><trkpt lat="38.0525344" lon="14.9309602"><ele>686.0</ele><time>2026-05-01T13:24:14.722Z</time></trkpt><trkpt lat="38.052562" lon="14.9308674"><ele>686.0</ele><time>2026-05-01T13:24:15.722Z</time></trkpt><trkpt lat="38.0525785" lon="14.9307653"><ele>686.0</ele><time>2026-05-01T13:24:16.722Z</time></trkpt><trkpt lat="38.0525842" lon="14.9306605"><ele>686.0</ele><time>2026-05-01T13:24:17.722Z</time></trkpt><trkpt lat="38.0525812" lon="14.9305463"><ele>686.0</ele><time>2026-05-01T13:24:18.722Z</time></trkpt><trkpt lat="38.0525728" lon="14.9304228"><ele>688.8</ele><time>2026-05-01T13:24:19.722Z</time></trkpt><trkpt lat="38.0525634" lon="14.9302931"><ele>691.5999999999999</ele><time>2026-05-01T13:24:20.722Z</time></trkpt><trkpt lat="38.0525587" lon="14.930148"><ele>694.4</ele><time>2026-05-01T13:24:21.722Z</time></trkpt><trkpt lat="38.0525481" lon="14.9299949"><ele>697.2</ele><time>2026-05-01T13:24:22.722Z</time></trkpt><trkpt lat="38.0525374" lon="14.9298576"><ele>700.0</ele><time>2026-05-01T13:24:23.722Z</time></trkpt><trkpt lat="38.0525332" lon="14.9297318"><ele>700.0</ele><time>2026-05-01T13:24:24.721Z</time></trkpt><trkpt lat="38.0525337" lon="14.929627"><ele>700.0</ele><time>2026-05-01T13:24:25.722Z</time></trkpt><trkpt lat="38.0525318" lon="14.9295377"><ele>700.0</ele><time>2026-05-01T13:24:26.722Z</time></trkpt><trkpt lat="38.0525329" lon="14.9294358"><ele>700.0</ele><time>2026-05-01T13:24:27.722Z</time></trkpt><trkpt lat="38.0525335" lon="14.9293272"><ele>700.0</ele><time>2026-05-01T13:24:28.722Z</time></trkpt><trkpt lat="38.0525341" lon="14.9292176"><ele>700.0</ele><time>2026-05-01T13:24:29.722Z</time></trkpt><trkpt lat="38.0525436" lon="14.9291162"><ele>701.1666666666667</ele><time>2026-05-01T13:24:30.722Z</time></trkpt><trkpt lat="38.0525589" lon="14.9290124"><ele>702.3333333333334</ele><time>2026-05-01T13:24:31.722Z</time></trkpt><trkpt lat="38.0525829" lon="14.9289128"><ele>703.5</ele><time>2026-05-01T13:24:32.722Z</time></trkpt><trkpt lat="38.0526128" lon="14.9288117"><ele>704.6666666666666</ele><time>2026-05-01T13:24:33.722Z</time></trkpt><trkpt lat="38.0526439" lon="14.9287036"><ele>705.8333333333333</ele><time>2026-05-01T13:24:34.722Z</time></trkpt><trkpt lat="38.0526742" lon="14.9285872"><ele>707.0</ele><time>2026-05-01T13:24:35.722Z</time></trkpt><trkpt lat="38.0527056" lon="14.9284634"><ele>708.3333333333333</ele><time>2026-05-01T13:24:36.722Z</time></trkpt><trkpt lat="38.0527454" lon="14.9283408"><ele>709.6666666666666</ele><time>2026-05-01T13:24:37.722Z</time></trkpt><trkpt lat="38.0527651" lon="14.9282343"><ele>711.0</ele><time>2026-05-01T13:24:38.722Z</time></trkpt><trkpt lat="38.0527917" lon="14.9281463"><ele>712.3333333333334</ele><time>2026-05-01T13:24:39.722Z</time></trkpt><trkpt lat="38.0528198" lon="14.9280653"><ele>713.6666666666667</ele><time>2026-05-01T13:24:40.722Z</time></trkpt><trkpt lat="38.0528577" lon="14.927987"><ele>715.0</ele><time>2026-05-01T13:24:41.722Z</time></trkpt><trkpt lat="38.0529036" lon="14.9279153"><ele>715.0</ele><time>2026-05-01T13:24:42.721Z</time></trkpt><trkpt lat="38.0529619" lon="14.9278554"><ele>715.0</ele><time>2026-05-01T13:24:43.722Z</time></trkpt><trkpt lat="38.0530202" lon="14.927798"><ele>715.0</ele><time>2026-05-01T13:24:44.722Z</time></trkpt><trkpt lat="38.053075" lon="14.9277302"><ele>715.0</ele><time>2026-05-01T13:24:45.722Z</time></trkpt><trkpt lat="38.0531261" lon="14.927658"><ele>715.0</ele><time>2026-05-01T13:24:46.722Z</time></trkpt><trkpt lat="38.053171" lon="14.9275843"><ele>715.0</ele><time>2026-05-01T13:24:47.722Z</time></trkpt><trkpt lat="38.0532142" lon="14.9275066"><ele>717.6</ele><time>2026-05-01T13:24:48.722Z</time></trkpt><trkpt lat="38.0532584" lon="14.9274294"><ele>720.2</ele><time>2026-05-01T13:24:49.722Z</time></trkpt><trkpt lat="38.0532927" lon="14.9273532"><ele>722.8</ele><time>2026-05-01T13:24:50.722Z</time></trkpt><trkpt lat="38.053345" lon="14.927235"><ele>725.4</ele><time>2026-05-01T13:24:52.722Z</time></trkpt><trkpt lat="38.053405" lon="14.92713"><ele>728.0</ele><time>2026-05-01T13:24:54.722Z</time></trkpt><trkpt lat="38.0534867" lon="14.9270433"><ele>723.6666666666666</ele><time>2026-05-01T13:24:56.722Z</time></trkpt><trkpt lat="38.0535983" lon="14.9269817"><ele>719.3333333333333</ele><time>2026-05-01T13:24:58.722Z</time></trkpt><trkpt lat="38.05368" lon="14.9269617"><ele>715.0</ele><time>2026-05-01T13:24:59.721Z</time></trkpt><trkpt lat="38.0537617" lon="14.9269533"><ele>710.6666666666666</ele><time>2026-05-01T13:25:00.722Z</time></trkpt><trkpt lat="38.0538367" lon="14.9269517"><ele>706.3333333333334</ele><time>2026-05-01T13:25:01.722Z</time></trkpt><trkpt lat="38.05391" lon="14.9269483"><ele>702.0</ele><time>2026-05-01T13:25:02.722Z</time></trkpt><trkpt lat="38.05398" lon="14.9269333"><ele>702.0000000000001</ele><time>2026-05-01T13:25:03.722Z</time></trkpt><trkpt lat="38.0540483" lon="14.9269217"><ele>702.0</ele><time>2026-05-01T13:25:04.722Z</time></trkpt><trkpt lat="38.054115" lon="14.9268983"><ele>702.0</ele><time>2026-05-01T13:25:05.722Z</time></trkpt><trkpt lat="38.0541817" lon="14.92687"><ele>702.0</ele><time>2026-05-01T13:25:06.722Z</time></trkpt><trkpt lat="38.0542483" lon="14.9268217"><ele>702.0</ele><time>2026-05-01T13:25:07.722Z</time></trkpt><trkpt lat="38.0543117" lon="14.926785"><ele>702.0000000000001</ele><time>2026-05-01T13:25:08.722Z</time></trkpt><trkpt lat="38.0543833" lon="14.92677"><ele>702.0</ele><time>2026-05-01T13:25:09.722Z</time></trkpt><trkpt lat="38.05446" lon="14.9267783"><ele>700.6</ele><time>2026-05-01T13:25:10.722Z</time></trkpt><trkpt lat="38.05457" lon="14.9267983"><ele>699.2</ele><time>2026-05-01T13:25:12.722Z</time></trkpt><trkpt lat="38.0546633" lon="14.9268317"><ele>697.8</ele><time>2026-05-01T13:25:14.721Z</time></trkpt><trkpt lat="38.054755" lon="14.92689"><ele>696.4</ele><time>2026-05-01T13:25:16.722Z</time></trkpt><trkpt lat="38.0548367" lon="14.9269517"><ele>695.0</ele><time>2026-05-01T13:25:18.722Z</time></trkpt><trkpt lat="38.054745" lon="14.9268483"><ele>695.0</ele><time>2026-05-01T13:25:22.722Z</time></trkpt><trkpt lat="38.0546467" lon="14.9268133"><ele>695.0</ele><time>2026-05-01T13:25:23.721Z</time></trkpt><trkpt lat="38.054555" lon="14.9267783"><ele>695.0</ele><time>2026-05-01T13:25:24.722Z</time></trkpt><trkpt lat="38.0544867" lon="14.92675"><ele>695.0</ele><time>2026-05-01T13:25:25.722Z</time></trkpt><trkpt lat="38.05439" lon="14.9266867"><ele>695.0</ele><time>2026-05-01T13:25:27.722Z</time></trkpt><trkpt lat="38.0542783" lon="14.9266567"><ele>700.6</ele><time>2026-05-01T13:25:29.722Z</time></trkpt><trkpt lat="38.0541917" lon="14.9265933"><ele>706.2</ele><time>2026-05-01T13:25:31.722Z</time></trkpt><trkpt lat="38.0540883" lon="14.9265717"><ele>711.8</ele><time>2026-05-01T13:25:33.722Z</time></trkpt><trkpt lat="38.0540167" lon="14.92657"><ele>717.4</ele><time>2026-05-01T13:25:34.722Z</time></trkpt><trkpt lat="38.05391" lon="14.9265167"><ele>723.0</ele><time>2026-05-01T13:25:36.722Z</time></trkpt><trkpt lat="38.053835" lon="14.9264417"><ele>723.0</ele><time>2026-05-01T13:25:38.722Z</time></trkpt><trkpt lat="38.0538403" lon="14.9263509"><ele>723.0</ele><time>2026-05-01T13:25:48.722Z</time></trkpt><trkpt lat="38.0538971" lon="14.9263104"><ele>723.0</ele><time>2026-05-01T13:25:49.721Z</time></trkpt><trkpt lat="38.053954" lon="14.9262549"><ele>723.0</ele><time>2026-05-01T13:25:50.722Z</time></trkpt><trkpt lat="38.05401" lon="14.9261959"><ele>723.0</ele><time>2026-05-01T13:25:51.722Z</time></trkpt><trkpt lat="38.0540613" lon="14.9261408"><ele>723.0</ele><time>2026-05-01T13:25:52.722Z</time></trkpt><trkpt lat="38.0541505" lon="14.9260566"><ele>723.0</ele><time>2026-05-01T13:25:54.721Z</time></trkpt><trkpt lat="38.0542393" lon="14.9259811"><ele>723.0</ele><time>2026-05-01T13:25:56.721Z</time></trkpt><trkpt lat="38.0542671" lon="14.9258913"><ele>723.0</ele><time>2026-05-01T13:25:58.722Z</time></trkpt><trkpt lat="38.0541937" lon="14.9258368"><ele>723.0</ele><time>2026-05-01T13:26:00.722Z</time></trkpt><trkpt lat="38.0541233" lon="14.9258348"><ele>723.0</ele><time>2026-05-01T13:26:01.722Z</time></trkpt><trkpt lat="38.0540515" lon="14.9258242"><ele>723.0</ele><time>2026-05-01T13:26:02.722Z</time></trkpt><trkpt lat="38.0539868" lon="14.9257997"><ele>728.8</ele><time>2026-05-01T13:26:03.722Z</time></trkpt><trkpt lat="38.0538972" lon="14.9257384"><ele>734.5999999999999</ele><time>2026-05-01T13:26:05.722Z</time></trkpt><trkpt lat="38.0538104" lon="14.9256928"><ele>740.4000000000001</ele><time>2026-05-01T13:26:08.721Z</time></trkpt><trkpt lat="38.053741" lon="14.925645"><ele>746.2</ele><time>2026-05-01T13:26:10.721Z</time></trkpt><trkpt lat="38.0536682" lon="14.9255413"><ele>752.0</ele><time>2026-05-01T13:26:12.722Z</time></trkpt><trkpt lat="38.0535961" lon="14.925416"><ele>752.0</ele><time>2026-05-01T13:26:14.722Z</time></trkpt><trkpt lat="38.0535303" lon="14.9252846"><ele>752.0</ele><time>2026-05-01T13:26:16.722Z</time></trkpt><trkpt lat="38.0534633" lon="14.9251467"><ele>752.0</ele><time>2026-05-01T13:26:18.721Z</time></trkpt><trkpt lat="38.0533921" lon="14.9250378"><ele>752.0</ele><time>2026-05-01T13:26:20.722Z</time></trkpt><trkpt lat="38.0533217" lon="14.9249704"><ele>755.5</ele><time>2026-05-01T13:26:22.722Z</time></trkpt><trkpt lat="38.0532982" lon="14.9248883"><ele>759.0</ele><time>2026-05-01T13:26:24.722Z</time></trkpt><trkpt lat="38.0533175" lon="14.9247537"><ele>762.5</ele><time>2026-05-01T13:26:26.722Z</time></trkpt><trkpt lat="38.053317" lon="14.924654"><ele>766.0</ele><time>2026-05-01T13:26:28.722Z</time></trkpt><trkpt lat="38.0532655" lon="14.924595"><ele>769.5000000000001</ele><time>2026-05-01T13:26:32.722Z</time></trkpt><trkpt lat="38.0531952" lon="14.9245682"><ele>773.0</ele><time>2026-05-01T13:26:35.721Z</time></trkpt><trkpt lat="38.053132" lon="14.9245437"><ele>777.5000000000001</ele><time>2026-05-01T13:26:37.722Z</time></trkpt><trkpt lat="38.0530373" lon="14.9245159"><ele>782.0</ele><time>2026-05-01T13:26:39.722Z</time></trkpt><trkpt lat="38.052968" lon="14.9245197"><ele>786.5</ele><time>2026-05-01T13:26:41.721Z</time></trkpt><trkpt lat="38.0529097" lon="14.9244246"><ele>791.0</ele><time>2026-05-01T13:26:45.722Z</time></trkpt><trkpt lat="38.052944" lon="14.924493"><ele>795.5000000000001</ele><time>2026-05-01T13:27:02.722Z</time></trkpt><trkpt lat="38.0529478" lon="14.92458"><ele>800.0</ele><time>2026-05-01T13:27:04.722Z</time></trkpt><trkpt lat="38.0528795" lon="14.9246598"><ele>800.0000000000001</ele><time>2026-05-01T13:27:06.722Z</time></trkpt><trkpt lat="38.0528115" lon="14.9247293"><ele>800.0</ele><time>2026-05-01T13:27:08.722Z</time></trkpt><trkpt lat="38.0527491" lon="14.9247744"><ele>800.0</ele><time>2026-05-01T13:27:47.722Z</time></trkpt><trkpt lat="38.0526848" lon="14.9248196"><ele>800.0</ele><time>2026-05-01T13:28:09.722Z</time></trkpt><trkpt lat="38.0526493" lon="14.9249004"><ele>800.0000000000001</ele><time>2026-05-01T13:28:11.722Z</time></trkpt><trkpt lat="38.0525954" lon="14.9249736"><ele>800.0</ele><time>2026-05-01T13:28:13.722Z</time></trkpt><trkpt lat="38.0525332" lon="14.9250133"><ele>800.0000000000001</ele><time>2026-05-01T13:28:15.721Z</time></trkpt><trkpt lat="38.0524657" lon="14.9250316"><ele>800.0</ele><time>2026-05-01T13:28:17.722Z</time></trkpt><trkpt lat="38.0524086" lon="14.9250855"><ele>800.0</ele><time>2026-05-01T13:28:22.722Z</time></trkpt><trkpt lat="38.052369" lon="14.9251697"><ele>800.0</ele><time>2026-05-01T13:28:29.723Z</time></trkpt><trkpt lat="38.0523034" lon="14.9253111"><ele>800.0000000000001</ele><time>2026-05-01T13:28:31.723Z</time></trkpt><trkpt lat="38.0522659" lon="14.9253939"><ele>800.0</ele><time>2026-05-01T13:28:32.723Z</time></trkpt><trkpt lat="38.0522243" lon="14.9254627"><ele>803.1666666666667</ele><time>2026-05-01T13:28:33.722Z</time></trkpt><trkpt lat="38.0521444" lon="14.9255583"><ele>806.3333333333334</ele><time>2026-05-01T13:28:35.723Z</time></trkpt><trkpt lat="38.0520728" lon="14.9256174"><ele>809.5</ele><time>2026-05-01T13:28:37.723Z</time></trkpt><trkpt lat="38.0520612" lon="14.9255164"><ele>812.6666666666667</ele><time>2026-05-01T13:28:41.723Z</time></trkpt><trkpt lat="38.0520853" lon="14.9254273"><ele>815.8333333333334</ele><time>2026-05-01T13:29:05.723Z</time></trkpt><trkpt lat="38.0520885" lon="14.9253325"><ele>819.0</ele><time>2026-05-01T13:29:08.723Z</time></trkpt><trkpt lat="38.0520857" lon="14.9252495"><ele>819.0</ele><time>2026-05-01T13:29:22.723Z</time></trkpt><trkpt lat="38.0520746" lon="14.9251665"><ele>819.0</ele><time>2026-05-01T13:29:25.723Z</time></trkpt><trkpt lat="38.0520526" lon="14.9250792"><ele>819.0</ele><time>2026-05-01T13:29:47.723Z</time></trkpt><trkpt lat="38.0520353" lon="14.9249606"><ele>819.0</ele><time>2026-05-01T13:29:49.723Z</time></trkpt><trkpt lat="38.0519978" lon="14.924856"><ele>819.0</ele><time>2026-05-01T13:29:51.723Z</time></trkpt><trkpt lat="38.0519323" lon="14.9248632"><ele>819.0</ele><time>2026-05-01T13:29:54.723Z</time></trkpt><trkpt lat="38.0518826" lon="14.9249969"><ele>819.0</ele><time>2026-05-01T13:29:56.723Z</time></trkpt><trkpt lat="38.0518515" lon="14.9250777"><ele>819.0</ele><time>2026-05-01T13:29:57.723Z</time></trkpt><trkpt lat="38.0517734" lon="14.9251812"><ele>819.0</ele><time>2026-05-01T13:29:59.723Z</time></trkpt><trkpt lat="38.0516535" lon="14.9252078"><ele>819.0</ele><time>2026-05-01T13:30:01.723Z</time></trkpt><trkpt lat="38.0515867" lon="14.9252287"><ele>819.0</ele><time>2026-05-01T13:30:02.722Z</time></trkpt><trkpt lat="38.0515215" lon="14.9252612"><ele>819.0</ele><time>2026-05-01T13:30:03.722Z</time></trkpt><trkpt lat="38.0514613" lon="14.925286"><ele>828.8000000000001</ele><time>2026-05-01T13:30:04.723Z</time></trkpt><trkpt lat="38.0514001" lon="14.9253187"><ele>838.6</ele><time>2026-05-01T13:30:05.723Z</time></trkpt><trkpt lat="38.051314" lon="14.9253754"><ele>848.4</ele><time>2026-05-01T13:30:07.723Z</time></trkpt><trkpt lat="38.051336" lon="14.9252411"><ele>858.2</ele><time>2026-05-01T13:30:12.722Z</time></trkpt><trkpt lat="38.0513886" lon="14.9251073"><ele>868.0</ele><time>2026-05-01T13:30:14.723Z</time></trkpt><trkpt lat="38.0514157" lon="14.9250313"><ele>871.3333333333333</ele><time>2026-05-01T13:30:15.723Z</time></trkpt><trkpt lat="38.051441" lon="14.9249465"><ele>874.6666666666666</ele><time>2026-05-01T13:30:16.723Z</time></trkpt><trkpt lat="38.0514584" lon="14.9248609"><ele>878.0</ele><time>2026-05-01T13:30:17.723Z</time></trkpt><trkpt lat="38.0514742" lon="14.924734"><ele>881.3333333333333</ele><time>2026-05-01T13:30:19.723Z</time></trkpt><trkpt lat="38.051488" lon="14.9246111"><ele>884.6666666666666</ele><time>2026-05-01T13:30:21.723Z</time></trkpt><trkpt lat="38.0515039" lon="14.9244832"><ele>888.0</ele><time>2026-05-01T13:30:23.723Z</time></trkpt><trkpt lat="38.0515229" lon="14.9243411"><ele>888.0</ele><time>2026-05-01T13:31:23.723Z</time></trkpt><trkpt lat="38.0515428" lon="14.9242394"><ele>888.0</ele><time>2026-05-01T13:31:24.723Z</time></trkpt><trkpt lat="38.051559" lon="14.9241144"><ele>888.0</ele><time>2026-05-01T13:31:25.723Z</time></trkpt><trkpt lat="38.0515695" lon="14.9239652"><ele>888.0</ele><time>2026-05-01T13:31:26.723Z</time></trkpt><trkpt lat="38.0515752" lon="14.923813"><ele>888.0</ele><time>2026-05-01T13:31:27.723Z</time></trkpt><trkpt lat="38.0515764" lon="14.9236822"><ele>890.2</ele><time>2026-05-01T13:31:28.723Z</time></trkpt><trkpt lat="38.0515772" lon="14.9235723"><ele>892.4</ele><time>2026-05-01T13:31:29.723Z</time></trkpt><trkpt lat="38.0515781" lon="14.9234753"><ele>894.6000000000001</ele><time>2026-05-01T13:31:30.723Z</time></trkpt><trkpt lat="38.0515799" lon="14.9233939"><ele>896.8000000000001</ele><time>2026-05-01T13:31:31.723Z</time></trkpt><trkpt lat="38.0516122" lon="14.9232396"><ele>899.0</ele><time>2026-05-01T13:31:33.723Z</time></trkpt><trkpt lat="38.0516846" lon="14.9231093"><ele>894.0000000000001</ele><time>2026-05-01T13:31:35.723Z</time></trkpt><trkpt lat="38.051744" lon="14.9230597"><ele>889.0</ele><time>2026-05-01T13:31:36.723Z</time></trkpt><trkpt lat="38.0518094" lon="14.9230085"><ele>884.0</ele><time>2026-05-01T13:31:37.723Z</time></trkpt><trkpt lat="38.0518777" lon="14.9229465"><ele>879.0</ele><time>2026-05-01T13:31:38.723Z</time></trkpt><trkpt lat="38.0519416" lon="14.9228795"><ele>874.0000000000001</ele><time>2026-05-01T13:31:39.722Z</time></trkpt><trkpt lat="38.0520032" lon="14.9228134"><ele>869.0</ele><time>2026-05-01T13:31:40.723Z</time></trkpt><trkpt lat="38.0520606" lon="14.9227449"><ele>869.0</ele><time>2026-05-01T13:31:41.723Z</time></trkpt><trkpt lat="38.0521079" lon="14.9226819"><ele>869.0000000000001</ele><time>2026-05-01T13:31:42.723Z</time></trkpt><trkpt lat="38.0521514" lon="14.9226162"><ele>869.0000000000001</ele><time>2026-05-01T13:31:43.722Z</time></trkpt><trkpt lat="38.0522314" lon="14.9224967"><ele>869.0</ele><time>2026-05-01T13:31:45.723Z</time></trkpt><trkpt lat="38.0522973" lon="14.9223804"><ele>869.0</ele><time>2026-05-01T13:31:47.722Z</time></trkpt><trkpt lat="38.0523721" lon="14.9222548"><ele>865.6666666666667</ele><time>2026-05-01T13:31:49.723Z</time></trkpt><trkpt lat="38.0524122" lon="14.9221738"><ele>862.3333333333334</ele><time>2026-05-01T13:31:50.722Z</time></trkpt><trkpt lat="38.0524547" lon="14.9220805"><ele>859.0</ele><time>2026-05-01T13:31:51.723Z</time></trkpt><trkpt lat="38.0524987" lon="14.9219822"><ele>855.6666666666667</ele><time>2026-05-01T13:31:52.723Z</time></trkpt><trkpt lat="38.0525503" lon="14.9218921"><ele>852.3333333333334</ele><time>2026-05-01T13:31:53.723Z</time></trkpt><trkpt lat="38.0526101" lon="14.9218125"><ele>849.0</ele><time>2026-05-01T13:31:54.723Z</time></trkpt><trkpt lat="38.0526785" lon="14.9217487"><ele>852.5</ele><time>2026-05-01T13:31:55.722Z</time></trkpt><trkpt lat="38.0527572" lon="14.9217045"><ele>856.0</ele><time>2026-05-01T13:31:56.722Z</time></trkpt><trkpt lat="38.0528384" lon="14.9216725"><ele>859.5</ele><time>2026-05-01T13:31:57.723Z</time></trkpt><trkpt lat="38.0529203" lon="14.9216539"><ele>863.0</ele><time>2026-05-01T13:31:58.723Z</time></trkpt><trkpt lat="38.0530016" lon="14.921643"><ele>866.5</ele><time>2026-05-01T13:31:59.723Z</time></trkpt><trkpt lat="38.0530765" lon="14.9216326"><ele>870.0</ele><time>2026-05-01T13:32:00.723Z</time></trkpt><trkpt lat="38.0531481" lon="14.9216256"><ele>870.0</ele><time>2026-05-01T13:32:01.722Z</time></trkpt><trkpt lat="38.0532157" lon="14.9216201"><ele>870.0</ele><time>2026-05-01T13:32:02.723Z</time></trkpt><trkpt lat="38.0533267" lon="14.9216132"><ele>870.0</ele><time>2026-05-01T13:32:04.723Z</time></trkpt><trkpt lat="38.0534052" lon="14.9216375"><ele>870.0</ele><time>2026-05-01T13:32:06.723Z</time></trkpt><trkpt lat="38.0534787" lon="14.9216824"><ele>870.0</ele><time>2026-05-01T13:32:08.723Z</time></trkpt><trkpt lat="38.05356" lon="14.92178"><ele>864.6666666666666</ele><time>2026-05-01T13:32:10.723Z</time></trkpt><trkpt lat="38.0536217" lon="14.9218433"><ele>859.3333333333333</ele><time>2026-05-01T13:32:11.723Z</time></trkpt><trkpt lat="38.0536917" lon="14.9219067"><ele>854.0</ele><time>2026-05-01T13:32:12.723Z</time></trkpt><trkpt lat="38.0537617" lon="14.9219717"><ele>848.6666666666666</ele><time>2026-05-01T13:32:13.723Z</time></trkpt><trkpt lat="38.0538333" lon="14.92203"><ele>843.3333333333333</ele><time>2026-05-01T13:32:14.723Z</time></trkpt><trkpt lat="38.0538933" lon="14.9220783"><ele>838.0</ele><time>2026-05-01T13:32:15.723Z</time></trkpt><trkpt lat="38.0539617" lon="14.922115"><ele>837.9999999999999</ele><time>2026-05-01T13:32:16.723Z</time></trkpt><trkpt lat="38.0540383" lon="14.922135"><ele>838.0</ele><time>2026-05-01T13:32:17.723Z</time></trkpt><trkpt lat="38.05412" lon="14.9221517"><ele>838.0</ele><time>2026-05-01T13:32:18.723Z</time></trkpt><trkpt lat="38.05419" lon="14.9221667"><ele>838.0</ele><time>2026-05-01T13:32:19.723Z</time></trkpt><trkpt lat="38.0542583" lon="14.9221783"><ele>838.0</ele><time>2026-05-01T13:32:20.723Z</time></trkpt><trkpt lat="38.0543283" lon="14.9221867"><ele>837.9999999999999</ele><time>2026-05-01T13:32:21.723Z</time></trkpt><trkpt lat="38.0543917" lon="14.92218"><ele>838.0</ele><time>2026-05-01T13:32:22.723Z</time></trkpt><trkpt lat="38.0544583" lon="14.9221833"><ele>839.1666666666666</ele><time>2026-05-01T13:32:23.723Z</time></trkpt><trkpt lat="38.0545217" lon="14.9221983"><ele>840.3333333333333</ele><time>2026-05-01T13:32:24.723Z</time></trkpt><trkpt lat="38.05459" lon="14.922245"><ele>841.5</ele><time>2026-05-01T13:32:25.723Z</time></trkpt><trkpt lat="38.0546517" lon="14.9223183"><ele>842.6666666666667</ele><time>2026-05-01T13:32:26.723Z</time></trkpt><trkpt lat="38.05471" lon="14.9224183"><ele>843.8333333333334</ele><time>2026-05-01T13:32:27.723Z</time></trkpt><trkpt lat="38.05476" lon="14.92253"><ele>845.0</ele><time>2026-05-01T13:32:28.723Z</time></trkpt><trkpt lat="38.0548" lon="14.9226267"><ele>845.0</ele><time>2026-05-01T13:32:29.723Z</time></trkpt><trkpt lat="38.0548367" lon="14.92273"><ele>845.0</ele><time>2026-05-01T13:32:30.723Z</time></trkpt><trkpt lat="38.0548817" lon="14.9228283"><ele>845.0</ele><time>2026-05-01T13:32:31.723Z</time></trkpt><trkpt lat="38.0549383" lon="14.9229217"><ele>845.0</ele><time>2026-05-01T13:32:32.723Z</time></trkpt><trkpt lat="38.0550017" lon="14.923005"><ele>845.0</ele><time>2026-05-01T13:32:33.723Z</time></trkpt><trkpt lat="38.055075" lon="14.9230767"><ele>844.9999999999999</ele><time>2026-05-01T13:32:34.722Z</time></trkpt><trkpt lat="38.0551417" lon="14.9231433"><ele>845.0</ele><time>2026-05-01T13:32:35.723Z</time></trkpt><trkpt lat="38.0551983" lon="14.9232"><ele>845.0</ele><time>2026-05-01T13:32:36.722Z</time></trkpt><trkpt lat="38.0552533" lon="14.923245"><ele>845.0</ele><time>2026-05-01T13:32:37.722Z</time></trkpt><trkpt lat="38.05531" lon="14.92328"><ele>845.0</ele><time>2026-05-01T13:32:38.723Z</time></trkpt><trkpt lat="38.0553667" lon="14.9233233"><ele>844.9999999999999</ele><time>2026-05-01T13:32:39.723Z</time></trkpt><trkpt lat="38.0554333" lon="14.9233783"><ele>845.0</ele><time>2026-05-01T13:32:40.723Z</time></trkpt><trkpt lat="38.0555083" lon="14.9234383"><ele>842.25</ele><time>2026-05-01T13:32:41.723Z</time></trkpt><trkpt lat="38.055605" lon="14.9235117"><ele>839.5</ele><time>2026-05-01T13:32:42.723Z</time></trkpt><trkpt lat="38.0557267" lon="14.923585"><ele>836.75</ele><time>2026-05-01T13:32:43.723Z</time></trkpt><trkpt lat="38.0558617" lon="14.923655"><ele>834.0</ele><time>2026-05-01T13:32:44.723Z</time></trkpt><trkpt lat="38.0559917" lon="14.92369"><ele>834.0</ele><time>2026-05-01T13:32:45.723Z</time></trkpt><trkpt lat="38.0561183" lon="14.923715"><ele>834.0</ele><time>2026-05-01T13:32:46.723Z</time></trkpt><trkpt lat="38.0562317" lon="14.92373"><ele>834.0</ele><time>2026-05-01T13:32:47.723Z</time></trkpt><trkpt lat="38.0563367" lon="14.9237367"><ele>834.0</ele><time>2026-05-01T13:32:48.723Z</time></trkpt><trkpt lat="38.0564367" lon="14.92374"><ele>834.0</ele><time>2026-05-01T13:32:49.722Z</time></trkpt><trkpt lat="38.05654" lon="14.92376"><ele>838.4000000000001</ele><time>2026-05-01T13:32:50.723Z</time></trkpt><trkpt lat="38.0566433" lon="14.9237983"><ele>842.8</ele><time>2026-05-01T13:32:51.723Z</time></trkpt><trkpt lat="38.0567433" lon="14.9238417"><ele>847.1999999999999</ele><time>2026-05-01T13:32:52.723Z</time></trkpt><trkpt lat="38.056835" lon="14.9238967"><ele>851.5999999999999</ele><time>2026-05-01T13:32:53.724Z</time></trkpt><trkpt lat="38.0569233" lon="14.9239717"><ele>856.0</ele><time>2026-05-01T13:32:54.724Z</time></trkpt><trkpt lat="38.05701" lon="14.9240633"><ele>856.0</ele><time>2026-05-01T13:32:55.724Z</time></trkpt><trkpt lat="38.057105" lon="14.92415"><ele>855.9999999999999</ele><time>2026-05-01T13:32:56.724Z</time></trkpt><trkpt lat="38.05719" lon="14.9242533"><ele>855.9999999999999</ele><time>2026-05-01T13:32:57.724Z</time></trkpt><trkpt lat="38.057255" lon="14.9243533"><ele>856.0</ele><time>2026-05-01T13:32:58.724Z</time></trkpt><trkpt lat="38.0572983" lon="14.924465"><ele>856.0</ele><time>2026-05-01T13:32:59.724Z</time></trkpt><trkpt lat="38.057345" lon="14.9245667"><ele>854.5999999999999</ele><time>2026-05-01T13:33:00.724Z</time></trkpt><trkpt lat="38.0573883" lon="14.9247"><ele>853.1999999999999</ele><time>2026-05-01T13:33:01.724Z</time></trkpt><trkpt lat="38.057435" lon="14.924835"><ele>851.8</ele><time>2026-05-01T13:33:02.724Z</time></trkpt><trkpt lat="38.0574817" lon="14.9249583"><ele>850.4000000000001</ele><time>2026-05-01T13:33:03.724Z</time></trkpt><trkpt lat="38.0575133" lon="14.9250783"><ele>849.0</ele><time>2026-05-01T13:33:04.724Z</time></trkpt><trkpt lat="38.0575467" lon="14.9251783"><ele>849.0</ele><time>2026-05-01T13:33:05.723Z</time></trkpt><trkpt lat="38.0575767" lon="14.9252717"><ele>849.0</ele><time>2026-05-01T13:33:06.724Z</time></trkpt><trkpt lat="38.0576033" lon="14.925365"><ele>849.0</ele><time>2026-05-01T13:33:07.724Z</time></trkpt><trkpt lat="38.0576367" lon="14.9254517"><ele>849.0</ele><time>2026-05-01T13:33:08.724Z</time></trkpt><trkpt lat="38.0576917" lon="14.925515"><ele>849.0</ele><time>2026-05-01T13:33:09.724Z</time></trkpt><trkpt lat="38.0577617" lon="14.9255783"><ele>849.0</ele><time>2026-05-01T13:33:10.724Z</time></trkpt><trkpt lat="38.05784" lon="14.9256217"><ele>849.0</ele><time>2026-05-01T13:33:11.724Z</time></trkpt><trkpt lat="38.057935" lon="14.9256583"><ele>849.0</ele><time>2026-05-01T13:33:12.724Z</time></trkpt><trkpt lat="38.0580383" lon="14.92568"><ele>849.0</ele><time>2026-05-01T13:33:13.724Z</time></trkpt><trkpt lat="38.0581367" lon="14.9257017"><ele>849.0</ele><time>2026-05-01T13:33:14.724Z</time></trkpt><trkpt lat="38.0582433" lon="14.925715"><ele>849.0</ele><time>2026-05-01T13:33:15.724Z</time></trkpt><trkpt lat="38.058355" lon="14.9257317"><ele>852.6</ele><time>2026-05-01T13:33:16.724Z</time></trkpt><trkpt lat="38.0584617" lon="14.9257467"><ele>856.2</ele><time>2026-05-01T13:33:17.724Z</time></trkpt><trkpt lat="38.05857" lon="14.9257833"><ele>859.8000000000001</ele><time>2026-05-01T13:33:18.724Z</time></trkpt><trkpt lat="38.05867" lon="14.9258167"><ele>863.4000000000001</ele><time>2026-05-01T13:33:19.724Z</time></trkpt><trkpt lat="38.0587683" lon="14.925825"><ele>867.0</ele><time>2026-05-01T13:33:20.724Z</time></trkpt><trkpt lat="38.0588733" lon="14.9258333"><ele>867.0</ele><time>2026-05-01T13:33:21.724Z</time></trkpt><trkpt lat="38.0589783" lon="14.925835"><ele>867.0</ele><time>2026-05-01T13:33:22.724Z</time></trkpt><trkpt lat="38.0590933" lon="14.9258083"><ele>867.0</ele><time>2026-05-01T13:33:23.724Z</time></trkpt><trkpt lat="38.0592217" lon="14.925745"><ele>867.0</ele><time>2026-05-01T13:33:24.724Z</time></trkpt><trkpt lat="38.059355" lon="14.925655"><ele>868.0</ele><time>2026-05-01T13:33:25.723Z</time></trkpt><trkpt lat="38.0594967" lon="14.92556"><ele>869.0</ele><time>2026-05-01T13:33:26.724Z</time></trkpt><trkpt lat="38.0596433" lon="14.9254833"><ele>870.0</ele><time>2026-05-01T13:33:27.724Z</time></trkpt><trkpt lat="38.0597867" lon="14.9254167"><ele>870.0</ele><time>2026-05-01T13:33:28.724Z</time></trkpt><trkpt lat="38.0599183" lon="14.925375"><ele>870.0</ele><time>2026-05-01T13:33:29.723Z</time></trkpt><trkpt lat="38.0600433" lon="14.9253567"><ele>870.0</ele><time>2026-05-01T13:33:30.724Z</time></trkpt><trkpt lat="38.0601683" lon="14.9253583"><ele>870.0</ele><time>2026-05-01T13:33:31.724Z</time></trkpt><trkpt lat="38.0602867" lon="14.9253583"><ele>868.5</ele><time>2026-05-01T13:33:32.724Z</time></trkpt><trkpt lat="38.0603983" lon="14.9253617"><ele>867.0</ele><time>2026-05-01T13:33:33.723Z</time></trkpt><trkpt lat="38.0605033" lon="14.9253433"><ele>865.5</ele><time>2026-05-01T13:33:34.724Z</time></trkpt><trkpt lat="38.0606183" lon="14.9252933"><ele>864.0</ele><time>2026-05-01T13:33:35.724Z</time></trkpt><trkpt lat="38.06074" lon="14.92523"><ele>862.0</ele><time>2026-05-01T13:33:36.723Z</time></trkpt><trkpt lat="38.060855" lon="14.9251617"><ele>860.0</ele><time>2026-05-01T13:33:37.723Z</time></trkpt><trkpt lat="38.0609583" lon="14.9250867"><ele>858.0</ele><time>2026-05-01T13:33:38.724Z</time></trkpt><trkpt lat="38.0610467" lon="14.925015"><ele>856.0</ele><time>2026-05-01T13:33:39.724Z</time></trkpt><trkpt lat="38.0611317" lon="14.9249283"><ele>864.75</ele><time>2026-05-01T13:33:40.724Z</time></trkpt><trkpt lat="38.0612" lon="14.9248233"><ele>873.5</ele><time>2026-05-01T13:33:41.724Z</time></trkpt><trkpt lat="38.0612633" lon="14.9247083"><ele>882.25</ele><time>2026-05-01T13:33:42.724Z</time></trkpt><trkpt lat="38.0613183" lon="14.9245733"><ele>891.0</ele><time>2026-05-01T13:33:43.724Z</time></trkpt><trkpt lat="38.0613733" lon="14.924435"><ele>891.0</ele><time>2026-05-01T13:33:44.724Z</time></trkpt><trkpt lat="38.06143" lon="14.9243083"><ele>890.9999999999999</ele><time>2026-05-01T13:33:45.724Z</time></trkpt><trkpt lat="38.0614733" lon="14.9241867"><ele>890.9999999999999</ele><time>2026-05-01T13:33:46.724Z</time></trkpt><trkpt lat="38.0615083" lon="14.9240733"><ele>891.0</ele><time>2026-05-01T13:33:47.724Z</time></trkpt><trkpt lat="38.0615483" lon="14.923965"><ele>891.0</ele><time>2026-05-01T13:33:48.723Z</time></trkpt><trkpt lat="38.0616033" lon="14.92386"><ele>890.5999999999999</ele><time>2026-05-01T13:33:49.724Z</time></trkpt><trkpt lat="38.061675" lon="14.9237817"><ele>890.1999999999999</ele><time>2026-05-01T13:33:50.724Z</time></trkpt><trkpt lat="38.06176" lon="14.9237417"><ele>889.8000000000001</ele><time>2026-05-01T13:33:51.723Z</time></trkpt><trkpt lat="38.0618667" lon="14.9237383"><ele>889.4000000000001</ele><time>2026-05-01T13:33:52.724Z</time></trkpt><trkpt lat="38.06199" lon="14.923765"><ele>889.0</ele><time>2026-05-01T13:33:53.724Z</time></trkpt><trkpt lat="38.062105" lon="14.9237967"><ele>889.0</ele><time>2026-05-01T13:33:54.723Z</time></trkpt><trkpt lat="38.0622217" lon="14.9238233"><ele>889.0</ele><time>2026-05-01T13:33:55.724Z</time></trkpt><trkpt lat="38.0623433" lon="14.923855"><ele>889.0</ele><time>2026-05-01T13:33:56.724Z</time></trkpt><trkpt lat="38.0624717" lon="14.9238867"><ele>889.0</ele><time>2026-05-01T13:33:57.724Z</time></trkpt><trkpt lat="38.0626033" lon="14.92392"><ele>889.0</ele><time>2026-05-01T13:33:58.724Z</time></trkpt><trkpt lat="38.0627217" lon="14.9239533"><ele>889.0000000000001</ele><time>2026-05-01T13:33:59.723Z</time></trkpt><trkpt lat="38.062825" lon="14.9239883"><ele>889.0000000000001</ele><time>2026-05-01T13:34:00.723Z</time></trkpt><trkpt lat="38.062915" lon="14.9240183"><ele>889.0</ele><time>2026-05-01T13:34:01.724Z</time></trkpt><trkpt lat="38.0629917" lon="14.9240567"><ele>889.0</ele><time>2026-05-01T13:34:02.724Z</time></trkpt><trkpt lat="38.06307" lon="14.9241117"><ele>889.0</ele><time>2026-05-01T13:34:03.724Z</time></trkpt><trkpt lat="38.0631467" lon="14.9241667"><ele>889.0000000000001</ele><time>2026-05-01T13:34:04.724Z</time></trkpt><trkpt lat="38.0632267" lon="14.9242233"><ele>889.0000000000001</ele><time>2026-05-01T13:34:05.724Z</time></trkpt><trkpt lat="38.063305" lon="14.9242767"><ele>889.0</ele><time>2026-05-01T13:34:06.724Z</time></trkpt><trkpt lat="38.0633983" lon="14.9243383"><ele>889.0</ele><time>2026-05-01T13:34:07.724Z</time></trkpt><trkpt lat="38.0634867" lon="14.9243967"><ele>889.5</ele><time>2026-05-01T13:34:08.724Z</time></trkpt><trkpt lat="38.06358" lon="14.9244583"><ele>890.0</ele><time>2026-05-01T13:34:09.724Z</time></trkpt><trkpt lat="38.0636833" lon="14.92451"><ele>890.5</ele><time>2026-05-01T13:34:10.723Z</time></trkpt><trkpt lat="38.0637967" lon="14.92457"><ele>891.0</ele><time>2026-05-01T13:34:11.724Z</time></trkpt><trkpt lat="38.0639183" lon="14.9246183"><ele>891.0</ele><time>2026-05-01T13:34:12.724Z</time></trkpt><trkpt lat="38.0640683" lon="14.924675"><ele>891.0</ele><time>2026-05-01T13:34:13.724Z</time></trkpt><trkpt lat="38.0642267" lon="14.9247317"><ele>891.0</ele><time>2026-05-01T13:34:14.724Z</time></trkpt><trkpt lat="38.0643767" lon="14.924795"><ele>893.5</ele><time>2026-05-01T13:34:15.723Z</time></trkpt><trkpt lat="38.064505" lon="14.924855"><ele>896.0</ele><time>2026-05-01T13:34:16.724Z</time></trkpt><trkpt lat="38.06462" lon="14.9249033"><ele>898.5</ele><time>2026-05-01T13:34:17.724Z</time></trkpt><trkpt lat="38.0647183" lon="14.9249383"><ele>901.0</ele><time>2026-05-01T13:34:18.723Z</time></trkpt><trkpt lat="38.0648083" lon="14.9249717"><ele>901.0</ele><time>2026-05-01T13:34:19.724Z</time></trkpt><trkpt lat="38.0649033" lon="14.9250117"><ele>900.9999999999999</ele><time>2026-05-01T13:34:20.724Z</time></trkpt><trkpt lat="38.0649983" lon="14.9250583"><ele>900.9999999999999</ele><time>2026-05-01T13:34:21.724Z</time></trkpt><trkpt lat="38.0650933" lon="14.925105"><ele>901.0</ele><time>2026-05-01T13:34:22.724Z</time></trkpt><trkpt lat="38.0651717" lon="14.9251567"><ele>901.0</ele><time>2026-05-01T13:34:23.723Z</time></trkpt><trkpt lat="38.0652517" lon="14.925205"><ele>902.1666666666666</ele><time>2026-05-01T13:34:24.724Z</time></trkpt><trkpt lat="38.0653283" lon="14.9252467"><ele>903.3333333333333</ele><time>2026-05-01T13:34:25.724Z</time></trkpt><trkpt lat="38.0654033" lon="14.9252867"><ele>904.5</ele><time>2026-05-01T13:34:26.724Z</time></trkpt><trkpt lat="38.0654717" lon="14.925335"><ele>905.6666666666667</ele><time>2026-05-01T13:34:27.724Z</time></trkpt><trkpt lat="38.0655333" lon="14.9253817"><ele>906.8333333333334</ele><time>2026-05-01T13:34:28.724Z</time></trkpt><trkpt lat="38.06558" lon="14.9254467"><ele>908.0</ele><time>2026-05-01T13:34:29.724Z</time></trkpt><trkpt lat="38.06562" lon="14.9255167"><ele>908.0</ele><time>2026-05-01T13:34:30.723Z</time></trkpt><trkpt lat="38.065665" lon="14.9255783"><ele>908.0000000000001</ele><time>2026-05-01T13:34:31.724Z</time></trkpt><trkpt lat="38.06571" lon="14.925645"><ele>908.0</ele><time>2026-05-01T13:34:32.724Z</time></trkpt><trkpt lat="38.06576" lon="14.9257083"><ele>908.0</ele><time>2026-05-01T13:34:33.724Z</time></trkpt><trkpt lat="38.06581" lon="14.9257717"><ele>908.0000000000001</ele><time>2026-05-01T13:34:34.724Z</time></trkpt><trkpt lat="38.0658633" lon="14.92584"><ele>908.0</ele><time>2026-05-01T13:34:35.724Z</time></trkpt><trkpt lat="38.0659167" lon="14.9259067"><ele>908.0</ele><time>2026-05-01T13:34:36.724Z</time></trkpt><trkpt lat="38.0659683" lon="14.9259717"><ele>906.3333333333334</ele><time>2026-05-01T13:34:37.724Z</time></trkpt><trkpt lat="38.06602" lon="14.9260517"><ele>904.6666666666667</ele><time>2026-05-01T13:34:38.724Z</time></trkpt><trkpt lat="38.0660667" lon="14.9261283"><ele>903.0</ele><time>2026-05-01T13:34:39.723Z</time></trkpt><trkpt lat="38.0661167" lon="14.9262017"><ele>901.3333333333333</ele><time>2026-05-01T13:34:40.724Z</time></trkpt><trkpt lat="38.0661667" lon="14.9262783"><ele>899.6666666666666</ele><time>2026-05-01T13:34:41.724Z</time></trkpt><trkpt lat="38.0662217" lon="14.9263517"><ele>898.0</ele><time>2026-05-01T13:34:42.724Z</time></trkpt><trkpt lat="38.06628" lon="14.926415"><ele>897.9999999999999</ele><time>2026-05-01T13:34:43.723Z</time></trkpt><trkpt lat="38.06634" lon="14.9264983"><ele>898.0</ele><time>2026-05-01T13:34:44.723Z</time></trkpt><trkpt lat="38.0663983" lon="14.9265617"><ele>898.0</ele><time>2026-05-01T13:34:45.724Z</time></trkpt><trkpt lat="38.06645" lon="14.9266233"><ele>898.0</ele><time>2026-05-01T13:34:46.724Z</time></trkpt><trkpt lat="38.0665067" lon="14.926695"><ele>897.9999999999999</ele><time>2026-05-01T13:34:47.724Z</time></trkpt><trkpt lat="38.0665617" lon="14.9267967"><ele>898.0</ele><time>2026-05-01T13:34:48.724Z</time></trkpt><trkpt lat="38.0666183" lon="14.9269083"><ele>893.8</ele><time>2026-05-01T13:34:49.723Z</time></trkpt><trkpt lat="38.0666783" lon="14.9270183"><ele>889.5999999999999</ele><time>2026-05-01T13:34:50.724Z</time></trkpt><trkpt lat="38.0667467" lon="14.9271183"><ele>885.4000000000001</ele><time>2026-05-01T13:34:51.724Z</time></trkpt><trkpt lat="38.0668167" lon="14.9272133"><ele>881.2</ele><time>2026-05-01T13:34:52.724Z</time></trkpt><trkpt lat="38.0668867" lon="14.927285"><ele>877.0</ele><time>2026-05-01T13:34:53.723Z</time></trkpt><trkpt lat="38.06695" lon="14.92736"><ele>876.9999999999999</ele><time>2026-05-01T13:34:54.724Z</time></trkpt><trkpt lat="38.06701" lon="14.92742"><ele>877.0</ele><time>2026-05-01T13:34:55.723Z</time></trkpt><trkpt lat="38.0670617" lon="14.9274817"><ele>877.0</ele><time>2026-05-01T13:34:56.724Z</time></trkpt><trkpt lat="38.06712" lon="14.9275733"><ele>877.0</ele><time>2026-05-01T13:34:58.724Z</time></trkpt><trkpt lat="38.0671417" lon="14.9276517"><ele>876.9999999999999</ele><time>2026-05-01T13:35:00.724Z</time></trkpt><trkpt lat="38.0671933" lon="14.92774"><ele>877.0</ele><time>2026-05-01T13:35:02.724Z</time></trkpt><trkpt lat="38.06724" lon="14.9278283"><ele>876.1666666666666</ele><time>2026-05-01T13:35:04.724Z</time></trkpt><trkpt lat="38.0672817" lon="14.9278933"><ele>875.3333333333333</ele><time>2026-05-01T13:35:06.723Z</time></trkpt><trkpt lat="38.0673517" lon="14.9279483"><ele>874.5</ele><time>2026-05-01T13:35:08.724Z</time></trkpt><trkpt lat="38.06745" lon="14.9280083"><ele>873.6666666666667</ele><time>2026-05-01T13:35:10.724Z</time></trkpt><trkpt lat="38.067525" lon="14.928035"><ele>872.8333333333334</ele><time>2026-05-01T13:35:11.724Z</time></trkpt><trkpt lat="38.067635" lon="14.928035"><ele>872.0</ele><time>2026-05-01T13:35:12.724Z</time></trkpt><trkpt lat="38.067735" lon="14.9280283"><ele>871.0</ele><time>2026-05-01T13:35:13.724Z</time></trkpt><trkpt lat="38.0678133" lon="14.9280367"><ele>870.0</ele><time>2026-05-01T13:35:14.724Z</time></trkpt><trkpt lat="38.0679067" lon="14.9280367"><ele>869.0</ele><time>2026-05-01T13:35:16.724Z</time></trkpt><trkpt lat="38.0678267" lon="14.9280167"><ele>868.0</ele><time>2026-05-01T13:35:23.724Z</time></trkpt><trkpt lat="38.0677117" lon="14.928005"><ele>867.0</ele><time>2026-05-01T13:35:25.723Z</time></trkpt><trkpt lat="38.067605" lon="14.9280117"><ele>867.0</ele><time>2026-05-01T13:35:27.724Z</time></trkpt><trkpt lat="38.0675283" lon="14.9280233"><ele>867.0</ele><time>2026-05-01T13:35:29.724Z</time></trkpt><trkpt lat="38.0675167" lon="14.9279417"><ele>867.0</ele><time>2026-05-01T13:35:34.724Z</time></trkpt><trkpt lat="38.0676233" lon="14.9278817"><ele>867.0</ele><time>2026-05-01T13:35:36.724Z</time></trkpt><trkpt lat="38.067685" lon="14.927865"><ele>867.0</ele><time>2026-05-01T13:35:37.724Z</time></trkpt><trkpt lat="38.0678083" lon="14.9278417"><ele>867.0</ele><time>2026-05-01T13:35:39.724Z</time></trkpt><trkpt lat="38.0678767" lon="14.9278133"><ele>867.0</ele><time>2026-05-01T13:35:40.724Z</time></trkpt><trkpt lat="38.06794" lon="14.9277783"><ele>867.0</ele><time>2026-05-01T13:35:41.724Z</time></trkpt><trkpt lat="38.0680033" lon="14.9277367"><ele>867.0</ele><time>2026-05-01T13:35:42.724Z</time></trkpt><trkpt lat="38.0680717" lon="14.9276933"><ele>867.0</ele><time>2026-05-01T13:35:43.724Z</time></trkpt><trkpt lat="38.06814" lon="14.92764"><ele>867.0</ele><time>2026-05-01T13:35:44.724Z</time></trkpt><trkpt lat="38.06821" lon="14.9275867"><ele>867.0</ele><time>2026-05-01T13:35:45.724Z</time></trkpt><trkpt lat="38.0682783" lon="14.9275367"><ele>864.5</ele><time>2026-05-01T13:35:46.724Z</time></trkpt><trkpt lat="38.0683433" lon="14.9274867"><ele>862.0</ele><time>2026-05-01T13:35:47.724Z</time></trkpt><trkpt lat="38.0684117" lon="14.927445"><ele>859.5</ele><time>2026-05-01T13:35:48.724Z</time></trkpt><trkpt lat="38.0684767" lon="14.9273983"><ele>857.0</ele><time>2026-05-01T13:35:49.724Z</time></trkpt><trkpt lat="38.0685467" lon="14.9273633"><ele>854.5</ele><time>2026-05-01T13:35:50.724Z</time></trkpt><trkpt lat="38.0686217" lon="14.9273417"><ele>852.0</ele><time>2026-05-01T13:35:51.724Z</time></trkpt><trkpt lat="38.0686933" lon="14.9273617"><ele>852.0</ele><time>2026-05-01T13:35:52.724Z</time></trkpt><trkpt lat="38.0687617" lon="14.9274117"><ele>852.0</ele><time>2026-05-01T13:35:53.724Z</time></trkpt><trkpt lat="38.0688167" lon="14.9274967"><ele>852.0</ele><time>2026-05-01T13:35:54.724Z</time></trkpt><trkpt lat="38.0688817" lon="14.9275833"><ele>852.0</ele><time>2026-05-01T13:35:55.724Z</time></trkpt><trkpt lat="38.06895" lon="14.9276617"><ele>852.0</ele><time>2026-05-01T13:35:56.724Z</time></trkpt><trkpt lat="38.06903" lon="14.9277333"><ele>848.6</ele><time>2026-05-01T13:35:57.724Z</time></trkpt><trkpt lat="38.0691183" lon="14.9277917"><ele>845.2</ele><time>2026-05-01T13:35:58.724Z</time></trkpt><trkpt lat="38.0692117" lon="14.9278417"><ele>841.8</ele><time>2026-05-01T13:35:59.724Z</time></trkpt><trkpt lat="38.0693067" lon="14.9278817"><ele>838.4</ele><time>2026-05-01T13:36:00.724Z</time></trkpt><trkpt lat="38.0694033" lon="14.927905"><ele>835.0</ele><time>2026-05-01T13:36:01.724Z</time></trkpt><trkpt lat="38.0695017" lon="14.927925"><ele>835.0</ele><time>2026-05-01T13:36:02.724Z</time></trkpt><trkpt lat="38.0696033" lon="14.9279417"><ele>835.0</ele><time>2026-05-01T13:36:03.724Z</time></trkpt><trkpt lat="38.0697083" lon="14.9279533"><ele>835.0</ele><time>2026-05-01T13:36:04.724Z</time></trkpt><trkpt lat="38.0698117" lon="14.9279617"><ele>835.0</ele><time>2026-05-01T13:36:05.723Z</time></trkpt><trkpt lat="38.0699067" lon="14.92797"><ele>835.0</ele><time>2026-05-01T13:36:06.724Z</time></trkpt><trkpt lat="38.0699983" lon="14.9279767"><ele>834.4999999999999</ele><time>2026-05-01T13:36:07.723Z</time></trkpt><trkpt lat="38.0700933" lon="14.927985"><ele>834.0</ele><time>2026-05-01T13:36:08.724Z</time></trkpt><trkpt lat="38.0701833" lon="14.928"><ele>833.5</ele><time>2026-05-01T13:36:09.724Z</time></trkpt><trkpt lat="38.0702683" lon="14.9280167"><ele>833.0</ele><time>2026-05-01T13:36:10.724Z</time></trkpt><trkpt lat="38.07034" lon="14.92804"><ele>832.4999999999999</ele><time>2026-05-01T13:36:11.723Z</time></trkpt><trkpt lat="38.0704067" lon="14.9280617"><ele>832.0</ele><time>2026-05-01T13:36:12.724Z</time></trkpt><trkpt lat="38.0704667" lon="14.9280883"><ele>832.0</ele><time>2026-05-01T13:36:13.724Z</time></trkpt><trkpt lat="38.0705717" lon="14.9281283"><ele>832.0</ele><time>2026-05-01T13:36:15.724Z</time></trkpt><trkpt lat="38.0706883" lon="14.9281683"><ele>832.0</ele><time>2026-05-01T13:36:17.724Z</time></trkpt><trkpt lat="38.07082" lon="14.928215"><ele>832.0</ele><time>2026-05-01T13:36:19.724Z</time></trkpt><trkpt lat="38.0709" lon="14.9282433"><ele>832.6</ele><time>2026-05-01T13:36:20.724Z</time></trkpt><trkpt lat="38.0709933" lon="14.9282767"><ele>833.2</ele><time>2026-05-01T13:36:21.723Z</time></trkpt><trkpt lat="38.0710883" lon="14.9283217"><ele>833.8</ele><time>2026-05-01T13:36:22.724Z</time></trkpt><trkpt lat="38.07119" lon="14.9283667"><ele>834.4</ele><time>2026-05-01T13:36:23.724Z</time></trkpt><trkpt lat="38.0712883" lon="14.9284067"><ele>835.0</ele><time>2026-05-01T13:36:24.724Z</time></trkpt><trkpt lat="38.0713767" lon="14.9284383"><ele>836.2</ele><time>2026-05-01T13:36:25.724Z</time></trkpt><trkpt lat="38.0714667" lon="14.928465"><ele>837.4</ele><time>2026-05-01T13:36:26.724Z</time></trkpt><trkpt lat="38.07156" lon="14.9285"><ele>838.5999999999999</ele><time>2026-05-01T13:36:27.724Z</time></trkpt><trkpt lat="38.0716617" lon="14.928535"><ele>839.8</ele><time>2026-05-01T13:36:28.724Z</time></trkpt><trkpt lat="38.071765" lon="14.928585"><ele>841.0</ele><time>2026-05-01T13:36:29.724Z</time></trkpt><trkpt lat="38.0718833" lon="14.92864"><ele>843.25</ele><time>2026-05-01T13:36:30.724Z</time></trkpt><trkpt lat="38.072005" lon="14.92869"><ele>845.5</ele><time>2026-05-01T13:36:31.724Z</time></trkpt><trkpt lat="38.072125" lon="14.9287317"><ele>847.75</ele><time>2026-05-01T13:36:32.724Z</time></trkpt><trkpt lat="38.07224" lon="14.9287467"><ele>850.0</ele><time>2026-05-01T13:36:33.724Z</time></trkpt><trkpt lat="38.0723433" lon="14.9287367"><ele>849.9999999999999</ele><time>2026-05-01T13:36:34.724Z</time></trkpt><trkpt lat="38.0724367" lon="14.928735"><ele>850.0</ele><time>2026-05-01T13:36:35.724Z</time></trkpt><trkpt lat="38.0725183" lon="14.9287417"><ele>850.0</ele><time>2026-05-01T13:36:36.724Z</time></trkpt><trkpt lat="38.0725967" lon="14.928745"><ele>850.0</ele><time>2026-05-01T13:36:37.724Z</time></trkpt><trkpt lat="38.0726783" lon="14.9287683"><ele>849.9999999999999</ele><time>2026-05-01T13:36:38.723Z</time></trkpt><trkpt lat="38.0727583" lon="14.9288183"><ele>850.0</ele><time>2026-05-01T13:36:39.724Z</time></trkpt><trkpt lat="38.0728283" lon="14.9288933"><ele>851.0</ele><time>2026-05-01T13:36:40.724Z</time></trkpt><trkpt lat="38.072895" lon="14.9290017"><ele>852.0</ele><time>2026-05-01T13:36:41.724Z</time></trkpt><trkpt lat="38.0729583" lon="14.9291233"><ele>853.0</ele><time>2026-05-01T13:36:42.724Z</time></trkpt><trkpt lat="38.0730133" lon="14.92924"><ele>854.0</ele><time>2026-05-01T13:36:43.724Z</time></trkpt><trkpt lat="38.0730583" lon="14.9293317"><ele>855.0</ele><time>2026-05-01T13:36:44.724Z</time></trkpt><trkpt lat="38.0731" lon="14.9294"><ele>855.4</ele><time>2026-05-01T13:36:45.723Z</time></trkpt><trkpt lat="38.0732017" lon="14.9294867"><ele>855.8</ele><time>2026-05-01T13:36:47.724Z</time></trkpt><trkpt lat="38.0732733" lon="14.9294967"><ele>856.2</ele><time>2026-05-01T13:36:48.724Z</time></trkpt><trkpt lat="38.07336" lon="14.9294733"><ele>856.6</ele><time>2026-05-01T13:36:49.724Z</time></trkpt><trkpt lat="38.0734367" lon="14.92943"><ele>857.0</ele><time>2026-05-01T13:36:50.723Z</time></trkpt><trkpt lat="38.07352" lon="14.9293783"><ele>857.0</ele><time>2026-05-01T13:36:51.723Z</time></trkpt><trkpt lat="38.0736283" lon="14.9293433"><ele>857.0</ele><time>2026-05-01T13:36:52.724Z</time></trkpt><trkpt lat="38.0737617" lon="14.92932"><ele>857.0</ele><time>2026-05-01T13:36:53.724Z</time></trkpt><trkpt lat="38.0738883" lon="14.9293017"><ele>857.0</ele><time>2026-05-01T13:36:54.724Z</time></trkpt><trkpt lat="38.07399" lon="14.9292933"><ele>857.0</ele><time>2026-05-01T13:36:55.724Z</time></trkpt><trkpt lat="38.0740833" lon="14.9292967"><ele>857.0</ele><time>2026-05-01T13:36:56.724Z</time></trkpt><trkpt lat="38.0741817" lon="14.9293017"><ele>857.0</ele><time>2026-05-01T13:36:57.724Z</time></trkpt><trkpt lat="38.07428" lon="14.9293167"><ele>857.0</ele><time>2026-05-01T13:36:58.724Z</time></trkpt><trkpt lat="38.0743867" lon="14.929335"><ele>857.0</ele><time>2026-05-01T13:36:59.724Z</time></trkpt><trkpt lat="38.0744867" lon="14.929355"><ele>857.4000000000001</ele><time>2026-05-01T13:37:00.724Z</time></trkpt><trkpt lat="38.0745817" lon="14.9293783"><ele>857.8000000000001</ele><time>2026-05-01T13:37:01.724Z</time></trkpt><trkpt lat="38.074665" lon="14.9294067"><ele>858.2</ele><time>2026-05-01T13:37:02.724Z</time></trkpt><trkpt lat="38.0747517" lon="14.9294333"><ele>858.6</ele><time>2026-05-01T13:37:03.724Z</time></trkpt><trkpt lat="38.0748467" lon="14.9294483"><ele>859.0</ele><time>2026-05-01T13:37:04.724Z</time></trkpt><trkpt lat="38.0749367" lon="14.929455"><ele>855.8000000000001</ele><time>2026-05-01T13:37:05.724Z</time></trkpt><trkpt lat="38.0750283" lon="14.9294517"><ele>852.6000000000001</ele><time>2026-05-01T13:37:06.724Z</time></trkpt><trkpt lat="38.0751117" lon="14.92943"><ele>849.4</ele><time>2026-05-01T13:37:07.724Z</time></trkpt><trkpt lat="38.0752033" lon="14.9293867"><ele>846.2</ele><time>2026-05-01T13:37:08.725Z</time></trkpt><trkpt lat="38.075285" lon="14.9293167"><ele>843.0</ele><time>2026-05-01T13:37:09.724Z</time></trkpt><trkpt lat="38.0753617" lon="14.9292333"><ele>845.2</ele><time>2026-05-01T13:37:10.725Z</time></trkpt><trkpt lat="38.07543" lon="14.92914"><ele>847.4</ele><time>2026-05-01T13:37:11.725Z</time></trkpt><trkpt lat="38.075495" lon="14.9290467"><ele>849.6000000000001</ele><time>2026-05-01T13:37:12.725Z</time></trkpt><trkpt lat="38.0755667" lon="14.9289583"><ele>851.8000000000001</ele><time>2026-05-01T13:37:13.725Z</time></trkpt><trkpt lat="38.0756217" lon="14.9288733"><ele>854.0</ele><time>2026-05-01T13:37:14.725Z</time></trkpt><trkpt lat="38.0756717" lon="14.9288033"><ele>854.0000000000001</ele><time>2026-05-01T13:37:15.725Z</time></trkpt><trkpt lat="38.0757167" lon="14.928735"><ele>854.0</ele><time>2026-05-01T13:37:16.725Z</time></trkpt><trkpt lat="38.075765" lon="14.92866"><ele>854.0</ele><time>2026-05-01T13:37:17.725Z</time></trkpt><trkpt lat="38.0758133" lon="14.9285783"><ele>854.0</ele><time>2026-05-01T13:37:18.725Z</time></trkpt><trkpt lat="38.075855" lon="14.92848"><ele>854.0000000000001</ele><time>2026-05-01T13:37:19.725Z</time></trkpt><trkpt lat="38.075895" lon="14.9283667"><ele>854.0</ele><time>2026-05-01T13:37:20.725Z</time></trkpt><trkpt lat="38.0759367" lon="14.9282483"><ele>857.0</ele><time>2026-05-01T13:37:21.725Z</time></trkpt><trkpt lat="38.0759717" lon="14.928125"><ele>860.0</ele><time>2026-05-01T13:37:22.725Z</time></trkpt><trkpt lat="38.07601" lon="14.927985"><ele>863.0</ele><time>2026-05-01T13:37:23.725Z</time></trkpt><trkpt lat="38.076035" lon="14.92784"><ele>866.0</ele><time>2026-05-01T13:37:24.724Z</time></trkpt><trkpt lat="38.0760517" lon="14.9276883"><ele>867.0</ele><time>2026-05-01T13:37:25.725Z</time></trkpt><trkpt lat="38.076055" lon="14.9275267"><ele>867.9999999999999</ele><time>2026-05-01T13:37:26.725Z</time></trkpt><trkpt lat="38.0760667" lon="14.9273967"><ele>868.9999999999999</ele><time>2026-05-01T13:37:27.725Z</time></trkpt><trkpt lat="38.07609" lon="14.92728"><ele>870.0</ele><time>2026-05-01T13:37:28.725Z</time></trkpt><trkpt lat="38.0761283" lon="14.9271783"><ele>871.0</ele><time>2026-05-01T13:37:29.725Z</time></trkpt><trkpt lat="38.0761817" lon="14.9270883"><ele>871.0</ele><time>2026-05-01T13:37:30.725Z</time></trkpt><trkpt lat="38.0762417" lon="14.926995"><ele>870.9999999999999</ele><time>2026-05-01T13:37:31.725Z</time></trkpt><trkpt lat="38.0763" lon="14.9269067"><ele>870.9999999999999</ele><time>2026-05-01T13:37:32.725Z</time></trkpt><trkpt lat="38.0763667" lon="14.9268217"><ele>871.0</ele><time>2026-05-01T13:37:33.724Z</time></trkpt><trkpt lat="38.0764383" lon="14.9267533"><ele>871.0</ele><time>2026-05-01T13:37:34.725Z</time></trkpt><trkpt lat="38.076515" lon="14.9266867"><ele>870.9999999999999</ele><time>2026-05-01T13:37:35.725Z</time></trkpt><trkpt lat="38.0765733" lon="14.9266333"><ele>871.0</ele><time>2026-05-01T13:37:36.725Z</time></trkpt><trkpt lat="38.0766717" lon="14.92663"><ele>871.0</ele><time>2026-05-01T13:37:38.725Z</time></trkpt><trkpt lat="38.0766933" lon="14.9267067"><ele>871.0</ele><time>2026-05-01T13:37:40.725Z</time></trkpt><trkpt lat="38.07663" lon="14.9268017"><ele>870.9999999999999</ele><time>2026-05-01T13:37:42.725Z</time></trkpt><trkpt lat="38.0765817" lon="14.9268733"><ele>871.0</ele><time>2026-05-01T13:37:43.725Z</time></trkpt><trkpt lat="38.07654" lon="14.9269767"><ele>871.0</ele><time>2026-05-01T13:37:44.725Z</time></trkpt><trkpt lat="38.0764917" lon="14.9271083"><ele>870.9999999999999</ele><time>2026-05-01T13:37:45.725Z</time></trkpt><trkpt lat="38.0764567" lon="14.9272567"><ele>870.9999999999999</ele><time>2026-05-01T13:37:46.725Z</time></trkpt><trkpt lat="38.076445" lon="14.927385"><ele>871.0</ele><time>2026-05-01T13:37:47.725Z</time></trkpt><trkpt lat="38.0764717" lon="14.92748"><ele>871.0</ele><time>2026-05-01T13:37:48.725Z</time></trkpt><trkpt lat="38.0765267" lon="14.9275483"><ele>872.1999999999999</ele><time>2026-05-01T13:37:49.724Z</time></trkpt><trkpt lat="38.07661" lon="14.9275983"><ele>873.3999999999999</ele><time>2026-05-01T13:37:50.725Z</time></trkpt><trkpt lat="38.0767083" lon="14.9276"><ele>874.6</ele><time>2026-05-01T13:37:51.725Z</time></trkpt><trkpt lat="38.0768067" lon="14.9275667"><ele>875.8</ele><time>2026-05-01T13:37:52.725Z</time></trkpt><trkpt lat="38.07691" lon="14.92749"><ele>877.0</ele><time>2026-05-01T13:37:53.725Z</time></trkpt><trkpt lat="38.0770183" lon="14.927385"><ele>881.0</ele><time>2026-05-01T13:37:54.725Z</time></trkpt><trkpt lat="38.077135" lon="14.9273"><ele>885.0</ele><time>2026-05-01T13:37:55.725Z</time></trkpt><trkpt lat="38.07725" lon="14.927225"><ele>889.0</ele><time>2026-05-01T13:37:56.725Z</time></trkpt><trkpt lat="38.0773667" lon="14.927155"><ele>893.0</ele><time>2026-05-01T13:37:57.724Z</time></trkpt><trkpt lat="38.0774617" lon="14.9271233"><ele>893.5000000000001</ele><time>2026-05-01T13:37:58.725Z</time></trkpt><trkpt lat="38.0775483" lon="14.9271317"><ele>894.0</ele><time>2026-05-01T13:37:59.725Z</time></trkpt><trkpt lat="38.077625" lon="14.9271567"><ele>894.5</ele><time>2026-05-01T13:38:00.725Z</time></trkpt><trkpt lat="38.0777017" lon="14.927195"><ele>895.0</ele><time>2026-05-01T13:38:01.725Z</time></trkpt><trkpt lat="38.0777867" lon="14.9272417"><ele>895.5000000000001</ele><time>2026-05-01T13:38:02.725Z</time></trkpt><trkpt lat="38.077875" lon="14.9272933"><ele>896.0</ele><time>2026-05-01T13:38:03.725Z</time></trkpt><trkpt lat="38.07797" lon="14.92733"><ele>896.0</ele><time>2026-05-01T13:38:04.725Z</time></trkpt><trkpt lat="38.0780783" lon="14.9273567"><ele>895.9999999999999</ele><time>2026-05-01T13:38:05.725Z</time></trkpt><trkpt lat="38.0781883" lon="14.927365"><ele>895.9999999999999</ele><time>2026-05-01T13:38:06.725Z</time></trkpt><trkpt lat="38.0782983" lon="14.92737"><ele>896.0</ele><time>2026-05-01T13:38:07.724Z</time></trkpt><trkpt lat="38.078415" lon="14.9273783"><ele>896.0</ele><time>2026-05-01T13:38:08.725Z</time></trkpt><trkpt lat="38.07853" lon="14.9273983"><ele>898.5999999999999</ele><time>2026-05-01T13:38:09.725Z</time></trkpt><trkpt lat="38.0786433" lon="14.9274167"><ele>901.1999999999999</ele><time>2026-05-01T13:38:10.725Z</time></trkpt><trkpt lat="38.0787483" lon="14.9274233"><ele>903.8000000000001</ele><time>2026-05-01T13:38:11.725Z</time></trkpt><trkpt lat="38.078855" lon="14.9274167"><ele>906.4000000000001</ele><time>2026-05-01T13:38:12.725Z</time></trkpt><trkpt lat="38.07895" lon="14.927395"><ele>909.0</ele><time>2026-05-01T13:38:13.724Z</time></trkpt><trkpt lat="38.0790467" lon="14.9273817"><ele>911.6</ele><time>2026-05-01T13:38:14.725Z</time></trkpt><trkpt lat="38.07914" lon="14.92738"><ele>914.2</ele><time>2026-05-01T13:38:15.725Z</time></trkpt><trkpt lat="38.0792317" lon="14.9273767"><ele>916.8000000000001</ele><time>2026-05-01T13:38:16.725Z</time></trkpt><trkpt lat="38.0793267" lon="14.9273617"><ele>919.4000000000001</ele><time>2026-05-01T13:38:17.725Z</time></trkpt><trkpt lat="38.079415" lon="14.9273367"><ele>922.0</ele><time>2026-05-01T13:38:18.725Z</time></trkpt><trkpt lat="38.0795133" lon="14.9273117"><ele>922.0</ele><time>2026-05-01T13:38:19.725Z</time></trkpt><trkpt lat="38.079615" lon="14.9272917"><ele>922.0</ele><time>2026-05-01T13:38:20.725Z</time></trkpt><trkpt lat="38.079715" lon="14.9272717"><ele>922.0</ele><time>2026-05-01T13:38:21.725Z</time></trkpt><trkpt lat="38.0798167" lon="14.9272567"><ele>922.0</ele><time>2026-05-01T13:38:22.724Z</time></trkpt><trkpt lat="38.0799117" lon="14.9272433"><ele>922.0</ele><time>2026-05-01T13:38:23.725Z</time></trkpt><trkpt lat="38.08001" lon="14.9272317"><ele>920.3333333333333</ele><time>2026-05-01T13:38:24.725Z</time></trkpt><trkpt lat="38.0801033" lon="14.9272117"><ele>918.6666666666666</ele><time>2026-05-01T13:38:25.725Z</time></trkpt><trkpt lat="38.0801933" lon="14.9271817"><ele>917.0</ele><time>2026-05-01T13:38:26.725Z</time></trkpt><trkpt lat="38.080285" lon="14.927155"><ele>915.3333333333333</ele><time>2026-05-01T13:38:27.725Z</time></trkpt><trkpt lat="38.080365" lon="14.92712"><ele>913.6666666666666</ele><time>2026-05-01T13:38:28.725Z</time></trkpt><trkpt lat="38.080435" lon="14.9270883"><ele>912.0</ele><time>2026-05-01T13:38:29.725Z</time></trkpt><trkpt lat="38.0804983" lon="14.92704"><ele>912.0</ele><time>2026-05-01T13:38:30.725Z</time></trkpt><trkpt lat="38.0805567" lon="14.9269817"><ele>912.0</ele><time>2026-05-01T13:38:31.725Z</time></trkpt><trkpt lat="38.0806117" lon="14.9269183"><ele>912.0</ele><time>2026-05-01T13:38:32.725Z</time></trkpt><trkpt lat="38.0806717" lon="14.92686"><ele>912.0</ele><time>2026-05-01T13:38:33.725Z</time></trkpt><trkpt lat="38.0807383" lon="14.9268033"><ele>912.0</ele><time>2026-05-01T13:38:34.725Z</time></trkpt><trkpt lat="38.0808083" lon="14.926745"><ele>912.0</ele><time>2026-05-01T13:38:35.725Z</time></trkpt><trkpt lat="38.080875" lon="14.92669"><ele>916.6</ele><time>2026-05-01T13:38:36.725Z</time></trkpt><trkpt lat="38.0809517" lon="14.9266417"><ele>921.2</ele><time>2026-05-01T13:38:37.725Z</time></trkpt><trkpt lat="38.081035" lon="14.9265917"><ele>925.8</ele><time>2026-05-01T13:38:38.725Z</time></trkpt><trkpt lat="38.0811233" lon="14.926535"><ele>930.4</ele><time>2026-05-01T13:38:39.725Z</time></trkpt><trkpt lat="38.08122" lon="14.9264883"><ele>935.0</ele><time>2026-05-01T13:38:40.725Z</time></trkpt><trkpt lat="38.081325" lon="14.92644"><ele>935.0</ele><time>2026-05-01T13:38:41.725Z</time></trkpt><trkpt lat="38.081425" lon="14.9264083"><ele>935.0</ele><time>2026-05-01T13:38:42.725Z</time></trkpt><trkpt lat="38.0815267" lon="14.926395"><ele>935.0</ele><time>2026-05-01T13:38:43.724Z</time></trkpt><trkpt lat="38.0816267" lon="14.9263933"><ele>935.0</ele><time>2026-05-01T13:38:44.725Z</time></trkpt><trkpt lat="38.0817117" lon="14.9263967"><ele>935.0</ele><time>2026-05-01T13:38:45.725Z</time></trkpt><trkpt lat="38.0817817" lon="14.9264017"><ele>933.6</ele><time>2026-05-01T13:38:46.725Z</time></trkpt><trkpt lat="38.0818967" lon="14.92642"><ele>932.2</ele><time>2026-05-01T13:38:48.725Z</time></trkpt><trkpt lat="38.0819967" lon="14.9264183"><ele>930.8</ele><time>2026-05-01T13:38:50.725Z</time></trkpt><trkpt lat="38.0820767" lon="14.9263583"><ele>929.4</ele><time>2026-05-01T13:38:52.725Z</time></trkpt><trkpt lat="38.082115" lon="14.926265"><ele>928.0</ele><time>2026-05-01T13:38:55.725Z</time></trkpt><trkpt lat="38.0821417" lon="14.9261467"><ele>928.0000000000001</ele><time>2026-05-01T13:38:57.725Z</time></trkpt><trkpt lat="38.0821533" lon="14.9260617"><ele>928.0</ele><time>2026-05-01T13:38:58.725Z</time></trkpt><trkpt lat="38.082165" lon="14.925975"><ele>928.0000000000001</ele><time>2026-05-01T13:38:59.725Z</time></trkpt><trkpt lat="38.082185" lon="14.9258917"><ele>928.0000000000001</ele><time>2026-05-01T13:39:00.725Z</time></trkpt><trkpt lat="38.0822017" lon="14.9258033"><ele>928.0</ele><time>2026-05-01T13:39:01.725Z</time></trkpt><trkpt lat="38.0822183" lon="14.9257133"><ele>928.0000000000001</ele><time>2026-05-01T13:39:02.725Z</time></trkpt><trkpt lat="38.0822383" lon="14.9256267"><ele>928.0000000000001</ele><time>2026-05-01T13:39:03.725Z</time></trkpt><trkpt lat="38.0822583" lon="14.9255433"><ele>928.0000000000001</ele><time>2026-05-01T13:39:04.725Z</time></trkpt><trkpt lat="38.08228" lon="14.925465"><ele>928.0</ele><time>2026-05-01T13:39:05.725Z</time></trkpt><trkpt lat="38.082305" lon="14.9253883"><ele>928.0000000000001</ele><time>2026-05-01T13:39:06.725Z</time></trkpt><trkpt lat="38.08233" lon="14.9253033"><ele>928.0000000000001</ele><time>2026-05-01T13:39:07.725Z</time></trkpt><trkpt lat="38.0823583" lon="14.925225"><ele>928.0</ele><time>2026-05-01T13:39:08.725Z</time></trkpt><trkpt lat="38.0823883" lon="14.92515"><ele>928.0000000000001</ele><time>2026-05-01T13:39:09.725Z</time></trkpt><trkpt lat="38.082415" lon="14.9250767"><ele>928.0000000000001</ele><time>2026-05-01T13:39:10.725Z</time></trkpt><trkpt lat="38.0824383" lon="14.9249983"><ele>927.9999999999999</ele><time>2026-05-01T13:39:11.725Z</time></trkpt><trkpt lat="38.0824583" lon="14.9249183"><ele>928.0</ele><time>2026-05-01T13:39:12.724Z</time></trkpt><trkpt lat="38.0824833" lon="14.9248417"><ele>928.0</ele><time>2026-05-01T13:39:13.724Z</time></trkpt><trkpt lat="38.0825133" lon="14.9247667"><ele>928.0</ele><time>2026-05-01T13:39:14.725Z</time></trkpt><trkpt lat="38.0826" lon="14.92468"><ele>927.9999999999999</ele><time>2026-05-01T13:39:16.725Z</time></trkpt><trkpt lat="38.0827233" lon="14.9246883"><ele>928.0</ele><time>2026-05-01T13:39:18.724Z</time></trkpt><trkpt lat="38.0827917" lon="14.9247233"><ele>928.0000000000001</ele><time>2026-05-01T13:39:19.724Z</time></trkpt><trkpt lat="38.082855" lon="14.924765"><ele>928.0</ele><time>2026-05-01T13:39:20.724Z</time></trkpt><trkpt lat="38.082925" lon="14.92481"><ele>928.0000000000001</ele><time>2026-05-01T13:39:21.725Z</time></trkpt><trkpt lat="38.0829933" lon="14.924855"><ele>928.0000000000001</ele><time>2026-05-01T13:39:22.725Z</time></trkpt><trkpt lat="38.083055" lon="14.9248983"><ele>928.0</ele><time>2026-05-01T13:39:23.725Z</time></trkpt><trkpt lat="38.083115" lon="14.9249467"><ele>928.0000000000001</ele><time>2026-05-01T13:39:24.725Z</time></trkpt><trkpt lat="38.0831717" lon="14.9249867"><ele>928.0000000000001</ele><time>2026-05-01T13:39:25.725Z</time></trkpt><trkpt lat="38.0832983" lon="14.9249933"><ele>926.6666666666666</ele><time>2026-05-01T13:39:27.725Z</time></trkpt><trkpt lat="38.083365" lon="14.9249683"><ele>925.3333333333333</ele><time>2026-05-01T13:39:28.725Z</time></trkpt><trkpt lat="38.0834867" lon="14.9249"><ele>924.0</ele><time>2026-05-01T13:39:30.725Z</time></trkpt><trkpt lat="38.0835483" lon="14.9248633"><ele>922.6666666666667</ele><time>2026-05-01T13:39:31.725Z</time></trkpt><trkpt lat="38.0836133" lon="14.9248217"><ele>921.3333333333334</ele><time>2026-05-01T13:39:32.724Z</time></trkpt><trkpt lat="38.0836717" lon="14.9247867"><ele>920.0</ele><time>2026-05-01T13:39:33.724Z</time></trkpt><trkpt lat="38.0837683" lon="14.92469"><ele>920.0000000000001</ele><time>2026-05-01T13:39:35.725Z</time></trkpt><trkpt lat="38.0838017" lon="14.9245433"><ele>920.0</ele><time>2026-05-01T13:39:37.724Z</time></trkpt><trkpt lat="38.0837933" lon="14.92446"><ele>920.0</ele><time>2026-05-01T13:39:38.725Z</time></trkpt><trkpt lat="38.0837717" lon="14.92438"><ele>920.0</ele><time>2026-05-01T13:39:39.725Z</time></trkpt><trkpt lat="38.0837483" lon="14.924305"><ele>920.0000000000001</ele><time>2026-05-01T13:39:40.725Z</time></trkpt><trkpt lat="38.0837117" lon="14.9242317"><ele>920.0</ele><time>2026-05-01T13:39:41.725Z</time></trkpt><trkpt lat="38.0836717" lon="14.9241583"><ele>916.6666666666667</ele><time>2026-05-01T13:39:42.725Z</time></trkpt><trkpt lat="38.0836267" lon="14.9240283"><ele>913.3333333333334</ele><time>2026-05-01T13:39:44.725Z</time></trkpt><trkpt lat="38.08361" lon="14.9239167"><ele>910.0</ele><time>2026-05-01T13:39:46.725Z</time></trkpt><trkpt lat="38.0836117" lon="14.9238183"><ele>906.6666666666667</ele><time>2026-05-01T13:39:48.725Z</time></trkpt><trkpt lat="38.0836233" lon="14.9237183"><ele>903.3333333333334</ele><time>2026-05-01T13:39:50.725Z</time></trkpt><trkpt lat="38.0836483" lon="14.923615"><ele>900.0</ele><time>2026-05-01T13:39:52.725Z</time></trkpt><trkpt lat="38.083695" lon="14.9234817"><ele>898.8333333333334</ele><time>2026-05-01T13:39:54.725Z</time></trkpt><trkpt lat="38.0837567" lon="14.9233467"><ele>897.6666666666667</ele><time>2026-05-01T13:39:56.725Z</time></trkpt><trkpt lat="38.0838033" lon="14.9232883"><ele>896.5</ele><time>2026-05-01T13:39:57.725Z</time></trkpt><trkpt lat="38.083855" lon="14.9232233"><ele>895.3333333333334</ele><time>2026-05-01T13:39:58.724Z</time></trkpt><trkpt lat="38.0839117" lon="14.923145"><ele>894.1666666666667</ele><time>2026-05-01T13:39:59.725Z</time></trkpt><trkpt lat="38.0839767" lon="14.9230533"><ele>893.0</ele><time>2026-05-01T13:40:00.725Z</time></trkpt><trkpt lat="38.0840467" lon="14.9229617"><ele>894.0000000000001</ele><time>2026-05-01T13:40:01.725Z</time></trkpt><trkpt lat="38.0841167" lon="14.9228733"><ele>895.0</ele><time>2026-05-01T13:40:02.725Z</time></trkpt><trkpt lat="38.0841817" lon="14.9227883"><ele>896.0</ele><time>2026-05-01T13:40:03.725Z</time></trkpt><trkpt lat="38.0842317" lon="14.9227017"><ele>897.0</ele><time>2026-05-01T13:40:04.725Z</time></trkpt><trkpt lat="38.08429" lon="14.922615"><ele>898.0000000000001</ele><time>2026-05-01T13:40:05.725Z</time></trkpt><trkpt lat="38.08434" lon="14.92255"><ele>899.0</ele><time>2026-05-01T13:40:06.725Z</time></trkpt><trkpt lat="38.0843883" lon="14.9224917"><ele>899.0000000000001</ele><time>2026-05-01T13:40:07.725Z</time></trkpt><trkpt lat="38.0844517" lon="14.922445"><ele>899.0</ele><time>2026-05-01T13:40:08.725Z</time></trkpt><trkpt lat="38.0845217" lon="14.9224017"><ele>899.0</ele><time>2026-05-01T13:40:09.725Z</time></trkpt><trkpt lat="38.0846017" lon="14.922345"><ele>899.0</ele><time>2026-05-01T13:40:10.724Z</time></trkpt><trkpt lat="38.084685" lon="14.9222817"><ele>899.0000000000001</ele><time>2026-05-01T13:40:11.724Z</time></trkpt><trkpt lat="38.08477" lon="14.92222"><ele>899.0</ele><time>2026-05-01T13:40:12.725Z</time></trkpt><trkpt lat="38.0848517" lon="14.9221633"><ele>899.0000000000001</ele><time>2026-05-01T13:40:13.725Z</time></trkpt><trkpt lat="38.0849233" lon="14.9221017"><ele>899.0</ele><time>2026-05-01T13:40:14.725Z</time></trkpt><trkpt lat="38.0849983" lon="14.922045"><ele>899.0</ele><time>2026-05-01T13:40:15.724Z</time></trkpt><trkpt lat="38.085075" lon="14.9219883"><ele>899.0</ele><time>2026-05-01T13:40:16.725Z</time></trkpt><trkpt lat="38.0851567" lon="14.9219283"><ele>899.0000000000001</ele><time>2026-05-01T13:40:17.725Z</time></trkpt><trkpt lat="38.0852317" lon="14.9218717"><ele>899.0</ele><time>2026-05-01T13:40:18.725Z</time></trkpt><trkpt lat="38.0853017" lon="14.9218117"><ele>898.8333333333334</ele><time>2026-05-01T13:40:19.725Z</time></trkpt><trkpt lat="38.0853817" lon="14.9217567"><ele>898.6666666666667</ele><time>2026-05-01T13:40:20.725Z</time></trkpt><trkpt lat="38.0854583" lon="14.92172"><ele>898.5</ele><time>2026-05-01T13:40:21.725Z</time></trkpt><trkpt lat="38.0855383" lon="14.9216917"><ele>898.3333333333333</ele><time>2026-05-01T13:40:22.725Z</time></trkpt><trkpt lat="38.0856167" lon="14.921665"><ele>898.1666666666666</ele><time>2026-05-01T13:40:23.724Z</time></trkpt><trkpt lat="38.0856883" lon="14.9216333"><ele>898.0</ele><time>2026-05-01T13:40:24.725Z</time></trkpt><trkpt lat="38.0857633" lon="14.9216017"><ele>897.9999999999999</ele><time>2026-05-01T13:40:25.725Z</time></trkpt><trkpt lat="38.08583" lon="14.921565"><ele>898.0</ele><time>2026-05-01T13:40:26.725Z</time></trkpt><trkpt lat="38.085895" lon="14.921525"><ele>898.0</ele><time>2026-05-01T13:40:27.725Z</time></trkpt><trkpt lat="38.0859733" lon="14.9214933"><ele>898.0</ele><time>2026-05-01T13:40:28.725Z</time></trkpt><trkpt lat="38.08606" lon="14.921465"><ele>897.9999999999999</ele><time>2026-05-01T13:40:29.725Z</time></trkpt><trkpt lat="38.0861233" lon="14.921435"><ele>898.0</ele><time>2026-05-01T13:40:30.725Z</time></trkpt><trkpt lat="38.0862" lon="14.9214017"><ele>897.9999999999999</ele><time>2026-05-01T13:40:31.725Z</time></trkpt><trkpt lat="38.0862683" lon="14.92138"><ele>898.0</ele><time>2026-05-01T13:40:32.725Z</time></trkpt><trkpt lat="38.0863483" lon="14.9213467"><ele>898.0</ele><time>2026-05-01T13:40:33.725Z</time></trkpt><trkpt lat="38.08642" lon="14.9213033"><ele>898.0</ele><time>2026-05-01T13:40:34.725Z</time></trkpt><trkpt lat="38.0864983" lon="14.9212733"><ele>897.9999999999999</ele><time>2026-05-01T13:40:35.725Z</time></trkpt><trkpt lat="38.08658" lon="14.921245"><ele>898.0</ele><time>2026-05-01T13:40:36.725Z</time></trkpt><trkpt lat="38.0866633" lon="14.9212167"><ele>898.8333333333333</ele><time>2026-05-01T13:40:37.725Z</time></trkpt><trkpt lat="38.0867467" lon="14.9211867"><ele>899.6666666666666</ele><time>2026-05-01T13:40:38.725Z</time></trkpt><trkpt lat="38.086825" lon="14.9211517"><ele>900.5</ele><time>2026-05-01T13:40:39.725Z</time></trkpt><trkpt lat="38.086905" lon="14.921105"><ele>901.3333333333333</ele><time>2026-05-01T13:40:40.725Z</time></trkpt><trkpt lat="38.0869867" lon="14.9210533"><ele>902.1666666666666</ele><time>2026-05-01T13:40:41.725Z</time></trkpt><trkpt lat="38.08707" lon="14.9210033"><ele>903.0</ele><time>2026-05-01T13:40:42.725Z</time></trkpt><trkpt lat="38.0871483" lon="14.9209483"><ele>900.3333333333334</ele><time>2026-05-01T13:40:43.725Z</time></trkpt><trkpt lat="38.0872267" lon="14.9208983"><ele>897.6666666666667</ele><time>2026-05-01T13:40:44.725Z</time></trkpt><trkpt lat="38.087315" lon="14.9208517"><ele>895.0</ele><time>2026-05-01T13:40:45.725Z</time></trkpt><trkpt lat="38.0873983" lon="14.9207983"><ele>892.3333333333334</ele><time>2026-05-01T13:40:46.725Z</time></trkpt><trkpt lat="38.0874717" lon="14.92074"><ele>889.6666666666667</ele><time>2026-05-01T13:40:47.725Z</time></trkpt><trkpt lat="38.0875417" lon="14.9206933"><ele>887.0</ele><time>2026-05-01T13:40:48.725Z</time></trkpt><trkpt lat="38.0876117" lon="14.92061"><ele>887.0</ele><time>2026-05-01T13:40:49.725Z</time></trkpt><trkpt lat="38.0876817" lon="14.9205333"><ele>887.0</ele><time>2026-05-01T13:40:50.725Z</time></trkpt><trkpt lat="38.0877583" lon="14.92045"><ele>887.0</ele><time>2026-05-01T13:40:51.725Z</time></trkpt><trkpt lat="38.087835" lon="14.9203833"><ele>887.0</ele><time>2026-05-01T13:40:52.725Z</time></trkpt><trkpt lat="38.087915" lon="14.920325"><ele>887.0</ele><time>2026-05-01T13:40:53.725Z</time></trkpt><trkpt lat="38.087995" lon="14.9202733"><ele>887.0</ele><time>2026-05-01T13:40:54.725Z</time></trkpt><trkpt lat="38.0880633" lon="14.9202467"><ele>887.0</ele><time>2026-05-01T13:40:55.725Z</time></trkpt><trkpt lat="38.08819" lon="14.92028"><ele>887.0</ele><time>2026-05-01T13:40:57.724Z</time></trkpt><trkpt lat="38.0882867" lon="14.9203167"><ele>887.0</ele><time>2026-05-01T13:40:59.724Z</time></trkpt><trkpt lat="38.0883767" lon="14.920285"><ele>887.0</ele><time>2026-05-01T13:41:01.725Z</time></trkpt><trkpt lat="38.0884483" lon="14.92022"><ele>889.0</ele><time>2026-05-01T13:41:03.725Z</time></trkpt><trkpt lat="38.088515" lon="14.92011"><ele>891.0</ele><time>2026-05-01T13:41:05.725Z</time></trkpt><trkpt lat="38.0885817" lon="14.9199867"><ele>893.0</ele><time>2026-05-01T13:41:07.725Z</time></trkpt><trkpt lat="38.0886567" lon="14.9198717"><ele>895.0</ele><time>2026-05-01T13:41:09.725Z</time></trkpt><trkpt lat="38.088705" lon="14.919805"><ele>897.0</ele><time>2026-05-01T13:41:10.725Z</time></trkpt><trkpt lat="38.0887517" lon="14.9197483"><ele>896.1428571428572</ele><time>2026-05-01T13:41:11.725Z</time></trkpt><trkpt lat="38.0888033" lon="14.9196917"><ele>895.2857142857142</ele><time>2026-05-01T13:41:12.724Z</time></trkpt><trkpt lat="38.0888583" lon="14.9196283"><ele>894.4285714285714</ele><time>2026-05-01T13:41:13.725Z</time></trkpt><trkpt lat="38.0889183" lon="14.91957"><ele>893.5714285714287</ele><time>2026-05-01T13:41:14.725Z</time></trkpt><trkpt lat="38.0889817" lon="14.9195167"><ele>892.7142857142858</ele><time>2026-05-01T13:41:15.726Z</time></trkpt><trkpt lat="38.0890333" lon="14.9194633"><ele>891.8571428571429</ele><time>2026-05-01T13:41:16.726Z</time></trkpt><trkpt lat="38.0890983" lon="14.9194"><ele>891.0</ele><time>2026-05-01T13:41:17.726Z</time></trkpt><trkpt lat="38.089165" lon="14.9193233"><ele>891.0</ele><time>2026-05-01T13:41:18.725Z</time></trkpt><trkpt lat="38.0892417" lon="14.9192467"><ele>891.0</ele><time>2026-05-01T13:41:19.725Z</time></trkpt><trkpt lat="38.0893033" lon="14.9191667"><ele>891.0</ele><time>2026-05-01T13:41:20.726Z</time></trkpt><trkpt lat="38.08937" lon="14.9190933"><ele>891.0</ele><time>2026-05-01T13:41:21.726Z</time></trkpt><trkpt lat="38.0894317" lon="14.9190217"><ele>891.0</ele><time>2026-05-01T13:41:22.726Z</time></trkpt><trkpt lat="38.0895067" lon="14.9189567"><ele>891.0</ele><time>2026-05-01T13:41:23.726Z</time></trkpt><trkpt lat="38.0895733" lon="14.918885"><ele>886.1999999999999</ele><time>2026-05-01T13:41:24.725Z</time></trkpt><trkpt lat="38.0896583" lon="14.9188333"><ele>881.3999999999999</ele><time>2026-05-01T13:41:25.726Z</time></trkpt><trkpt lat="38.089745" lon="14.9187883"><ele>876.6</ele><time>2026-05-01T13:41:26.726Z</time></trkpt><trkpt lat="38.0898283" lon="14.9187467"><ele>871.8</ele><time>2026-05-01T13:41:27.725Z</time></trkpt><trkpt lat="38.0899017" lon="14.9187017"><ele>867.0</ele><time>2026-05-01T13:41:28.726Z</time></trkpt><trkpt lat="38.089985" lon="14.91862"><ele>867.0</ele><time>2026-05-01T13:41:30.726Z</time></trkpt><trkpt lat="38.0900383" lon="14.9185683"><ele>867.0</ele><time>2026-05-01T13:41:32.726Z</time></trkpt><trkpt lat="38.0901133" lon="14.91852"><ele>867.0</ele><time>2026-05-01T13:41:34.726Z</time></trkpt><trkpt lat="38.09024" lon="14.918475"><ele>867.0</ele><time>2026-05-01T13:41:36.726Z</time></trkpt><trkpt lat="38.0903083" lon="14.9184583"><ele>867.0</ele><time>2026-05-01T13:41:37.726Z</time></trkpt><trkpt lat="38.0903833" lon="14.9184533"><ele>867.0</ele><time>2026-05-01T13:41:38.726Z</time></trkpt><trkpt lat="38.09046" lon="14.9184417"><ele>867.0</ele><time>2026-05-01T13:41:39.726Z</time></trkpt><trkpt lat="38.09053" lon="14.9184283"><ele>867.0</ele><time>2026-05-01T13:41:40.726Z</time></trkpt><trkpt lat="38.0906017" lon="14.9184067"><ele>867.0</ele><time>2026-05-01T13:41:41.726Z</time></trkpt><trkpt lat="38.0906783" lon="14.91834"><ele>867.0</ele><time>2026-05-01T13:41:43.726Z</time></trkpt><trkpt lat="38.0906317" lon="14.91823"><ele>867.0</ele><time>2026-05-01T13:41:45.726Z</time></trkpt><trkpt lat="38.0905533" lon="14.91819"><ele>867.0</ele><time>2026-05-01T13:41:46.726Z</time></trkpt><trkpt lat="38.0904667" lon="14.918175"><ele>863.6666666666666</ele><time>2026-05-01T13:41:47.726Z</time></trkpt><trkpt lat="38.0903933" lon="14.9181417"><ele>860.3333333333333</ele><time>2026-05-01T13:41:48.726Z</time></trkpt><trkpt lat="38.0903367" lon="14.9180817"><ele>857.0</ele><time>2026-05-01T13:41:49.726Z</time></trkpt><trkpt lat="38.0903017" lon="14.9180067"><ele>853.6666666666666</ele><time>2026-05-01T13:41:50.726Z</time></trkpt><trkpt lat="38.0902733" lon="14.9179283"><ele>850.3333333333333</ele><time>2026-05-01T13:41:51.726Z</time></trkpt><trkpt lat="38.0902467" lon="14.917775"><ele>847.0</ele><time>2026-05-01T13:41:53.726Z</time></trkpt><trkpt lat="38.0902517" lon="14.9176917"><ele>847.0</ele><time>2026-05-01T13:41:54.725Z</time></trkpt><trkpt lat="38.09025" lon="14.9176033"><ele>847.0</ele><time>2026-05-01T13:41:55.726Z</time></trkpt><trkpt lat="38.0902417" lon="14.9175117"><ele>847.0</ele><time>2026-05-01T13:41:56.726Z</time></trkpt><trkpt lat="38.090215" lon="14.9174267"><ele>847.0</ele><time>2026-05-01T13:41:57.726Z</time></trkpt><trkpt lat="38.0901767" lon="14.917355"><ele>847.0</ele><time>2026-05-01T13:41:58.726Z</time></trkpt><trkpt lat="38.0901217" lon="14.91729"><ele>847.0</ele><time>2026-05-01T13:41:59.726Z</time></trkpt><trkpt lat="38.0900717" lon="14.9172267"><ele>847.0</ele><time>2026-05-01T13:42:00.726Z</time></trkpt><trkpt lat="38.0900067" lon="14.9171383"><ele>844.2</ele><time>2026-05-01T13:42:02.726Z</time></trkpt><trkpt lat="38.0900067" lon="14.9170517"><ele>841.4000000000001</ele><time>2026-05-01T13:42:04.726Z</time></trkpt><trkpt lat="38.09004" lon="14.916935"><ele>838.5999999999999</ele><time>2026-05-01T13:42:06.726Z</time></trkpt><trkpt lat="38.090085" lon="14.9168"><ele>835.8</ele><time>2026-05-01T13:42:08.726Z</time></trkpt><trkpt lat="38.0901583" lon="14.9166917"><ele>833.0</ele><time>2026-05-01T13:42:10.725Z</time></trkpt><trkpt lat="38.090205" lon="14.9166267"><ele>833.0000000000001</ele><time>2026-05-01T13:42:11.726Z</time></trkpt><trkpt lat="38.0903167" lon="14.9165633"><ele>833.0</ele><time>2026-05-01T13:42:13.726Z</time></trkpt><trkpt lat="38.09038" lon="14.9165567"><ele>833.0</ele><time>2026-05-01T13:42:14.726Z</time></trkpt><trkpt lat="38.0904433" lon="14.916585"><ele>833.0</ele><time>2026-05-01T13:42:15.726Z</time></trkpt><trkpt lat="38.090525" lon="14.91661"><ele>833.0000000000001</ele><time>2026-05-01T13:42:16.726Z</time></trkpt><trkpt lat="38.09059" lon="14.9166567"><ele>833.0</ele><time>2026-05-01T13:42:17.726Z</time></trkpt><trkpt lat="38.0906033" lon="14.9167417"><ele>833.0</ele><time>2026-05-01T13:42:18.726Z</time></trkpt><trkpt lat="38.0906383" lon="14.9168883"><ele>833.0</ele><time>2026-05-01T13:42:20.726Z</time></trkpt><trkpt lat="38.0906633" lon="14.917035"><ele>833.0</ele><time>2026-05-01T13:42:22.726Z</time></trkpt><trkpt lat="38.0907117" lon="14.91716"><ele>833.0</ele><time>2026-05-01T13:42:24.726Z</time></trkpt><trkpt lat="38.0907533" lon="14.9172683"><ele>833.0</ele><time>2026-05-01T13:42:26.725Z</time></trkpt><trkpt lat="38.0908167" lon="14.9173617"><ele>835.0</ele><time>2026-05-01T13:42:28.726Z</time></trkpt><trkpt lat="38.0908933" lon="14.9174433"><ele>837.0</ele><time>2026-05-01T13:42:30.726Z</time></trkpt><trkpt lat="38.0909767" lon="14.9175283"><ele>839.0</ele><time>2026-05-01T13:42:32.726Z</time></trkpt><trkpt lat="38.0910467" lon="14.9176183"><ele>841.0</ele><time>2026-05-01T13:42:34.726Z</time></trkpt><trkpt lat="38.0911167" lon="14.91769"><ele>843.0</ele><time>2026-05-01T13:42:36.726Z</time></trkpt><trkpt lat="38.0912217" lon="14.9176533"><ele>843.0</ele><time>2026-05-01T13:42:38.726Z</time></trkpt><trkpt lat="38.091275" lon="14.9176083"><ele>843.0</ele><time>2026-05-01T13:42:39.726Z</time></trkpt><trkpt lat="38.0913183" lon="14.9175433"><ele>843.0</ele><time>2026-05-01T13:42:40.726Z</time></trkpt><trkpt lat="38.0913633" lon="14.9174833"><ele>843.0</ele><time>2026-05-01T13:42:41.726Z</time></trkpt><trkpt lat="38.0914183" lon="14.9174433"><ele>843.0</ele><time>2026-05-01T13:42:42.726Z</time></trkpt><trkpt lat="38.0915217" lon="14.9174117"><ele>843.0</ele><time>2026-05-01T13:42:44.726Z</time></trkpt><trkpt lat="38.0915917" lon="14.917425"><ele>843.0</ele><time>2026-05-01T13:42:46.726Z</time></trkpt><trkpt lat="38.0916483" lon="14.917465"><ele>843.5999999999999</ele><time>2026-05-01T13:43:04.726Z</time></trkpt><trkpt lat="38.0917583" lon="14.917545"><ele>844.1999999999999</ele><time>2026-05-01T13:43:06.726Z</time></trkpt><trkpt lat="38.0918233" lon="14.9176083"><ele>844.8</ele><time>2026-05-01T13:43:07.726Z</time></trkpt><trkpt lat="38.091895" lon="14.917685"><ele>845.4</ele><time>2026-05-01T13:43:08.726Z</time></trkpt><trkpt lat="38.0919717" lon="14.917745"><ele>846.0</ele><time>2026-05-01T13:43:09.726Z</time></trkpt><trkpt lat="38.0920533" lon="14.9177667"><ele>846.0</ele><time>2026-05-01T13:43:10.726Z</time></trkpt><trkpt lat="38.0921217" lon="14.91777"><ele>846.0</ele><time>2026-05-01T13:43:11.726Z</time></trkpt><trkpt lat="38.0922483" lon="14.917765"><ele>846.0</ele><time>2026-05-01T13:43:13.726Z</time></trkpt><trkpt lat="38.092325" lon="14.9178083"><ele>846.0</ele><time>2026-05-01T13:43:14.726Z</time></trkpt><trkpt lat="38.0924" lon="14.91787"><ele>846.0</ele><time>2026-05-01T13:43:15.726Z</time></trkpt><trkpt lat="38.0924633" lon="14.91793"><ele>846.0</ele><time>2026-05-01T13:43:16.726Z</time></trkpt><trkpt lat="38.0925533" lon="14.9180133"><ele>845.1999999999999</ele><time>2026-05-01T13:43:18.726Z</time></trkpt><trkpt lat="38.09264" lon="14.91803"><ele>844.4</ele><time>2026-05-01T13:43:20.726Z</time></trkpt><trkpt lat="38.0927467" lon="14.9179817"><ele>843.6</ele><time>2026-05-01T13:43:22.726Z</time></trkpt><trkpt lat="38.092835" lon="14.9179033"><ele>842.8</ele><time>2026-05-01T13:43:24.726Z</time></trkpt><trkpt lat="38.0928633" lon="14.917795"><ele>842.0</ele><time>2026-05-01T13:43:26.726Z</time></trkpt><trkpt lat="38.09285" lon="14.9177117"><ele>842.0</ele><time>2026-05-01T13:43:27.726Z</time></trkpt><trkpt lat="38.0928217" lon="14.9176283"><ele>842.0</ele><time>2026-05-01T13:43:28.726Z</time></trkpt><trkpt lat="38.0927933" lon="14.9174767"><ele>842.0</ele><time>2026-05-01T13:43:30.726Z</time></trkpt><trkpt lat="38.0927883" lon="14.9173233"><ele>842.0</ele><time>2026-05-01T13:43:32.726Z</time></trkpt><trkpt lat="38.09279" lon="14.9172383"><ele>842.0</ele><time>2026-05-01T13:43:33.726Z</time></trkpt><trkpt lat="38.0927917" lon="14.9170933"><ele>834.0</ele><time>2026-05-01T13:43:35.726Z</time></trkpt><trkpt lat="38.09281" lon="14.9169617"><ele>826.0</ele><time>2026-05-01T13:43:37.726Z</time></trkpt><trkpt lat="38.0928767" lon="14.9168783"><ele>818.0</ele><time>2026-05-01T13:43:39.726Z</time></trkpt><trkpt lat="38.0929383" lon="14.91682"><ele>810.0</ele><time>2026-05-01T13:43:41.726Z</time></trkpt><trkpt lat="38.0929733" lon="14.916715"><ele>802.0</ele><time>2026-05-01T13:43:43.726Z</time></trkpt><trkpt lat="38.0929833" lon="14.91658"><ele>797.4999999999999</ele><time>2026-05-01T13:43:45.726Z</time></trkpt><trkpt lat="38.0930367" lon="14.9164317"><ele>793.0</ele><time>2026-05-01T13:43:47.726Z</time></trkpt><trkpt lat="38.093065" lon="14.9163467"><ele>788.5</ele><time>2026-05-01T13:43:48.726Z</time></trkpt><trkpt lat="38.0930867" lon="14.916245"><ele>784.0</ele><time>2026-05-01T13:43:49.726Z</time></trkpt><trkpt lat="38.0930917" lon="14.916155"><ele>779.4999999999999</ele><time>2026-05-01T13:43:50.726Z</time></trkpt><trkpt lat="38.09311" lon="14.91604"><ele>775.0</ele><time>2026-05-01T13:43:52.726Z</time></trkpt><trkpt lat="38.0931617" lon="14.915945"><ele>777.2</ele><time>2026-05-01T13:43:54.726Z</time></trkpt><trkpt lat="38.0932033" lon="14.9158433"><ele>779.4</ele><time>2026-05-01T13:43:56.726Z</time></trkpt><trkpt lat="38.0931983" lon="14.9157083"><ele>781.5999999999999</ele><time>2026-05-01T13:43:58.726Z</time></trkpt><trkpt lat="38.0932333" lon="14.9156017"><ele>783.8</ele><time>2026-05-01T13:44:00.726Z</time></trkpt><trkpt lat="38.0932933" lon="14.91551"><ele>786.0</ele><time>2026-05-01T13:44:02.726Z</time></trkpt><trkpt lat="38.093365" lon="14.9154067"><ele>786.0</ele><time>2026-05-01T13:44:04.726Z</time></trkpt><trkpt lat="38.093435" lon="14.915325"><ele>786.0</ele><time>2026-05-01T13:44:06.726Z</time></trkpt><trkpt lat="38.0935067" lon="14.915315"><ele>786.0</ele><time>2026-05-01T13:44:09.726Z</time></trkpt><trkpt lat="38.09356" lon="14.9153817"><ele>786.0</ele><time>2026-05-01T13:44:12.725Z</time></trkpt><trkpt lat="38.0936067" lon="14.915475"><ele>786.0</ele><time>2026-05-01T13:44:15.726Z</time></trkpt><trkpt lat="38.0936567" lon="14.9155317"><ele>786.0</ele><time>2026-05-01T13:44:17.726Z</time></trkpt><trkpt lat="38.09371" lon="14.915575"><ele>786.0000000000001</ele><time>2026-05-01T13:44:19.726Z</time></trkpt><trkpt lat="38.0937817" lon="14.915595"><ele>786.0</ele><time>2026-05-01T13:44:21.726Z</time></trkpt><trkpt lat="38.0938567" lon="14.9156183"><ele>786.0</ele><time>2026-05-01T13:44:23.726Z</time></trkpt><trkpt lat="38.09392" lon="14.9156633"><ele>786.0</ele><time>2026-05-01T13:44:25.726Z</time></trkpt><trkpt lat="38.093955" lon="14.91573"><ele>786.0</ele><time>2026-05-01T13:44:27.726Z</time></trkpt><trkpt lat="38.094" lon="14.91583"><ele>786.0000000000001</ele><time>2026-05-01T13:44:30.726Z</time></trkpt><trkpt lat="38.094035" lon="14.915905"><ele>786.0</ele><time>2026-05-01T13:44:32.726Z</time></trkpt><trkpt lat="38.0940733" lon="14.9160033"><ele>784.0</ele><time>2026-05-01T13:44:37.726Z</time></trkpt><trkpt lat="38.0941433" lon="14.91605"><ele>782.0</ele><time>2026-05-01T13:44:39.726Z</time></trkpt><trkpt lat="38.094225" lon="14.9160367"><ele>780.0</ele><time>2026-05-01T13:44:41.726Z</time></trkpt><trkpt lat="38.0942633" lon="14.9159717"><ele>778.0</ele><time>2026-05-01T13:44:43.726Z</time></trkpt><trkpt lat="38.094335" lon="14.9158633"><ele>776.0</ele><time>2026-05-01T13:44:45.726Z</time></trkpt><trkpt lat="38.09439" lon="14.9158067"><ele>774.0</ele><time>2026-05-01T13:44:47.726Z</time></trkpt><trkpt lat="38.09447" lon="14.91584"><ele>774.0</ele><time>2026-05-01T13:44:49.726Z</time></trkpt><trkpt lat="38.0945417" lon="14.9158467"><ele>774.0</ele><time>2026-05-01T13:44:51.726Z</time></trkpt><trkpt lat="38.0946217" lon="14.9157917"><ele>774.0</ele><time>2026-05-01T13:44:53.726Z</time></trkpt><trkpt lat="38.0946883" lon="14.9157467"><ele>774.0</ele><time>2026-05-01T13:44:55.726Z</time></trkpt><trkpt lat="38.0946967" lon="14.9156617"><ele>774.0</ele><time>2026-05-01T13:44:57.726Z</time></trkpt><trkpt lat="38.09464" lon="14.9155183"><ele>774.0</ele><time>2026-05-01T13:44:59.726Z</time></trkpt><trkpt lat="38.094615" lon="14.9154217"><ele>774.0</ele><time>2026-05-01T13:45:00.726Z</time></trkpt><trkpt lat="38.0945967" lon="14.915335"><ele>774.0</ele><time>2026-05-01T13:45:01.726Z</time></trkpt><trkpt lat="38.0945833" lon="14.9152383"><ele>774.0</ele><time>2026-05-01T13:45:02.726Z</time></trkpt><trkpt lat="38.094565" lon="14.91514"><ele>774.0</ele><time>2026-05-01T13:45:03.726Z</time></trkpt><trkpt lat="38.0945317" lon="14.91506"><ele>774.0</ele><time>2026-05-01T13:45:04.726Z</time></trkpt><trkpt lat="38.0944833" lon="14.91494"><ele>774.0</ele><time>2026-05-01T13:45:06.726Z</time></trkpt><trkpt lat="38.0944333" lon="14.91483"><ele>770.8333333333334</ele><time>2026-05-01T13:45:08.726Z</time></trkpt><trkpt lat="38.0944133" lon="14.91468"><ele>767.6666666666666</ele><time>2026-05-01T13:45:10.726Z</time></trkpt><trkpt lat="38.0944183" lon="14.914595"><ele>764.5</ele><time>2026-05-01T13:45:11.726Z</time></trkpt><trkpt lat="38.0944283" lon="14.9145017"><ele>761.3333333333333</ele><time>2026-05-01T13:45:12.726Z</time></trkpt><trkpt lat="38.09443" lon="14.9144117"><ele>758.1666666666666</ele><time>2026-05-01T13:45:13.726Z</time></trkpt><trkpt lat="38.0944267" lon="14.91432"><ele>755.0</ele><time>2026-05-01T13:45:14.726Z</time></trkpt><trkpt lat="38.0944283" lon="14.9142333"><ele>751.8</ele><time>2026-05-01T13:45:15.726Z</time></trkpt><trkpt lat="38.0944333" lon="14.9141533"><ele>748.6</ele><time>2026-05-01T13:45:16.726Z</time></trkpt><trkpt lat="38.0944633" lon="14.9140083"><ele>745.4000000000001</ele><time>2026-05-01T13:45:18.727Z</time></trkpt><trkpt lat="38.0945033" lon="14.9138783"><ele>742.2</ele><time>2026-05-01T13:45:20.727Z</time></trkpt><trkpt lat="38.0945417" lon="14.9137633"><ele>739.0</ele><time>2026-05-01T13:45:22.727Z</time></trkpt><trkpt lat="38.0945667" lon="14.9136117"><ele>739.0</ele><time>2026-05-01T13:45:24.727Z</time></trkpt><trkpt lat="38.0945867" lon="14.9135083"><ele>739.0</ele><time>2026-05-01T13:45:25.727Z</time></trkpt><trkpt lat="38.0946067" lon="14.9134"><ele>739.0</ele><time>2026-05-01T13:45:26.727Z</time></trkpt><trkpt lat="38.09463" lon="14.9132917"><ele>739.0</ele><time>2026-05-01T13:45:27.726Z</time></trkpt><trkpt lat="38.0946533" lon="14.9131633"><ele>739.0</ele><time>2026-05-01T13:45:28.726Z</time></trkpt><trkpt lat="38.09468" lon="14.913025"><ele>738.3333333333334</ele><time>2026-05-01T13:45:29.727Z</time></trkpt><trkpt lat="38.094705" lon="14.9128967"><ele>737.6666666666667</ele><time>2026-05-01T13:45:30.727Z</time></trkpt><trkpt lat="38.0947267" lon="14.9127883"><ele>737.0</ele><time>2026-05-01T13:45:31.727Z</time></trkpt><trkpt lat="38.09475" lon="14.9126833"><ele>736.3333333333334</ele><time>2026-05-01T13:45:32.727Z</time></trkpt><trkpt lat="38.094785" lon="14.9125917"><ele>735.6666666666666</ele><time>2026-05-01T13:45:33.727Z</time></trkpt><trkpt lat="38.0948133" lon="14.9124933"><ele>735.0</ele><time>2026-05-01T13:45:34.727Z</time></trkpt><trkpt lat="38.0948517" lon="14.9124033"><ele>733.3333333333334</ele><time>2026-05-01T13:45:35.727Z</time></trkpt><trkpt lat="38.09489" lon="14.9123033"><ele>731.6666666666666</ele><time>2026-05-01T13:45:36.727Z</time></trkpt><trkpt lat="38.0949317" lon="14.9122033"><ele>730.0</ele><time>2026-05-01T13:45:37.726Z</time></trkpt><trkpt lat="38.094965" lon="14.912095"><ele>728.3333333333333</ele><time>2026-05-01T13:45:38.727Z</time></trkpt><trkpt lat="38.0950067" lon="14.9120067"><ele>726.6666666666666</ele><time>2026-05-01T13:45:39.727Z</time></trkpt><trkpt lat="38.0950583" lon="14.9119367"><ele>725.0</ele><time>2026-05-01T13:45:40.727Z</time></trkpt><trkpt lat="38.09511" lon="14.9118783"><ele>727.0</ele><time>2026-05-01T13:45:41.727Z</time></trkpt><trkpt lat="38.0951667" lon="14.911835"><ele>729.0</ele><time>2026-05-01T13:45:42.727Z</time></trkpt><trkpt lat="38.095235" lon="14.9118017"><ele>731.0</ele><time>2026-05-01T13:45:43.727Z</time></trkpt><trkpt lat="38.0953133" lon="14.91177"><ele>733.0</ele><time>2026-05-01T13:45:44.727Z</time></trkpt><trkpt lat="38.09539" lon="14.91173"><ele>735.0</ele><time>2026-05-01T13:45:45.726Z</time></trkpt><trkpt lat="38.0954517" lon="14.91168"><ele>737.0</ele><time>2026-05-01T13:45:46.726Z</time></trkpt><trkpt lat="38.0954967" lon="14.911615"><ele>739.0</ele><time>2026-05-01T13:45:47.727Z</time></trkpt><trkpt lat="38.0955033" lon="14.9114267"><ele>739.0</ele><time>2026-05-01T13:45:49.727Z</time></trkpt><trkpt lat="38.0954917" lon="14.9113017"><ele>739.0</ele><time>2026-05-01T13:45:50.727Z</time></trkpt><trkpt lat="38.0954867" lon="14.9111683"><ele>739.0</ele><time>2026-05-01T13:45:51.727Z</time></trkpt><trkpt lat="38.0954867" lon="14.91105"><ele>739.0</ele><time>2026-05-01T13:45:52.727Z</time></trkpt><trkpt lat="38.0954767" lon="14.9109383"><ele>739.0</ele><time>2026-05-01T13:45:53.727Z</time></trkpt><trkpt lat="38.095465" lon="14.9108283"><ele>736.6</ele><time>2026-05-01T13:45:54.727Z</time></trkpt><trkpt lat="38.09544" lon="14.9107183"><ele>734.2</ele><time>2026-05-01T13:45:55.727Z</time></trkpt><trkpt lat="38.095405" lon="14.910615"><ele>731.8000000000001</ele><time>2026-05-01T13:45:56.727Z</time></trkpt><trkpt lat="38.095365" lon="14.9105083"><ele>729.4000000000001</ele><time>2026-05-01T13:45:57.727Z</time></trkpt><trkpt lat="38.095325" lon="14.910415"><ele>727.0</ele><time>2026-05-01T13:45:58.727Z</time></trkpt><trkpt lat="38.095275" lon="14.9103"><ele>727.0</ele><time>2026-05-01T13:45:59.727Z</time></trkpt><trkpt lat="38.09523" lon="14.9101883"><ele>727.0</ele><time>2026-05-01T13:46:00.727Z</time></trkpt><trkpt lat="38.0951933" lon="14.91009"><ele>727.0</ele><time>2026-05-01T13:46:01.726Z</time></trkpt><trkpt lat="38.095165" lon="14.910005"><ele>727.0</ele><time>2026-05-01T13:46:02.727Z</time></trkpt><trkpt lat="38.0951317" lon="14.9098983"><ele>727.0</ele><time>2026-05-01T13:46:03.727Z</time></trkpt><trkpt lat="38.095105" lon="14.9097933"><ele>727.0</ele><time>2026-05-01T13:46:04.727Z</time></trkpt><trkpt lat="38.0950867" lon="14.9096883"><ele>729.2</ele><time>2026-05-01T13:46:05.727Z</time></trkpt><trkpt lat="38.0950733" lon="14.909595"><ele>731.4000000000001</ele><time>2026-05-01T13:46:06.727Z</time></trkpt><trkpt lat="38.09506" lon="14.9094433"><ele>733.5999999999999</ele><time>2026-05-01T13:46:08.727Z</time></trkpt><trkpt lat="38.0950467" lon="14.9093167"><ele>735.8</ele><time>2026-05-01T13:46:10.727Z</time></trkpt><trkpt lat="38.095055" lon="14.9091883"><ele>738.0</ele><time>2026-05-01T13:46:12.727Z</time></trkpt><trkpt lat="38.0951117" lon="14.9090583"><ele>738.4</ele><time>2026-05-01T13:46:14.727Z</time></trkpt><trkpt lat="38.0951767" lon="14.908925"><ele>738.8</ele><time>2026-05-01T13:46:16.727Z</time></trkpt><trkpt lat="38.095225" lon="14.9088617"><ele>739.2</ele><time>2026-05-01T13:46:17.727Z</time></trkpt><trkpt lat="38.095285" lon="14.9088033"><ele>739.6</ele><time>2026-05-01T13:46:18.727Z</time></trkpt><trkpt lat="38.0953317" lon="14.908745"><ele>740.0</ele><time>2026-05-01T13:46:19.727Z</time></trkpt><trkpt lat="38.09543" lon="14.9086517"><ele>740.0</ele><time>2026-05-01T13:46:21.726Z</time></trkpt><trkpt lat="38.0954717" lon="14.9085917"><ele>740.0</ele><time>2026-05-01T13:46:22.726Z</time></trkpt><trkpt lat="38.09553" lon="14.9085283"><ele>740.0</ele><time>2026-05-01T13:46:23.727Z</time></trkpt><trkpt lat="38.0955967" lon="14.9084617"><ele>740.0</ele><time>2026-05-01T13:46:24.726Z</time></trkpt><trkpt lat="38.0956583" lon="14.908385"><ele>740.0</ele><time>2026-05-01T13:46:25.727Z</time></trkpt><trkpt lat="38.095725" lon="14.9083083"><ele>740.0</ele><time>2026-05-01T13:46:26.727Z</time></trkpt><trkpt lat="38.0957683" lon="14.9082333"><ele>741.2</ele><time>2026-05-01T13:46:27.727Z</time></trkpt><trkpt lat="38.0958" lon="14.9081633"><ele>742.4</ele><time>2026-05-01T13:46:28.727Z</time></trkpt><trkpt lat="38.0958233" lon="14.908085"><ele>743.5999999999999</ele><time>2026-05-01T13:46:29.727Z</time></trkpt><trkpt lat="38.09586" lon="14.9079183"><ele>744.8</ele><time>2026-05-01T13:46:31.727Z</time></trkpt><trkpt lat="38.0958683" lon="14.9078"><ele>746.0</ele><time>2026-05-01T13:46:32.727Z</time></trkpt><trkpt lat="38.0958517" lon="14.907665"><ele>744.1999999999999</ele><time>2026-05-01T13:46:33.727Z</time></trkpt><trkpt lat="38.0958133" lon="14.9075217"><ele>742.4</ele><time>2026-05-01T13:46:34.727Z</time></trkpt><trkpt lat="38.0957683" lon="14.9073867"><ele>740.6</ele><time>2026-05-01T13:46:35.727Z</time></trkpt><trkpt lat="38.0957267" lon="14.9072717"><ele>738.8</ele><time>2026-05-01T13:46:36.727Z</time></trkpt><trkpt lat="38.0956933" lon="14.9071717"><ele>737.0</ele><time>2026-05-01T13:46:37.727Z</time></trkpt><trkpt lat="38.095665" lon="14.907085"><ele>734.5714285714287</ele><time>2026-05-01T13:46:38.727Z</time></trkpt><trkpt lat="38.0956483" lon="14.9070017"><ele>732.1428571428571</ele><time>2026-05-01T13:46:39.727Z</time></trkpt><trkpt lat="38.0956283" lon="14.9069117"><ele>729.7142857142858</ele><time>2026-05-01T13:46:40.727Z</time></trkpt><trkpt lat="38.095625" lon="14.9068017"><ele>727.2857142857143</ele><time>2026-05-01T13:46:41.727Z</time></trkpt><trkpt lat="38.0956233" lon="14.9067033"><ele>724.8571428571429</ele><time>2026-05-01T13:46:42.727Z</time></trkpt><trkpt lat="38.0956217" lon="14.906615"><ele>722.4285714285714</ele><time>2026-05-01T13:46:43.727Z</time></trkpt><trkpt lat="38.095625" lon="14.90653"><ele>720.0</ele><time>2026-05-01T13:46:44.727Z</time></trkpt><trkpt lat="38.0956633" lon="14.90639"><ele>720.6666666666666</ele><time>2026-05-01T13:46:46.727Z</time></trkpt><trkpt lat="38.09571" lon="14.90625"><ele>721.3333333333334</ele><time>2026-05-01T13:46:48.727Z</time></trkpt><trkpt lat="38.0957417" lon="14.9061767"><ele>722.0</ele><time>2026-05-01T13:46:49.727Z</time></trkpt><trkpt lat="38.0957717" lon="14.906105"><ele>722.6666666666667</ele><time>2026-05-01T13:46:50.727Z</time></trkpt><trkpt lat="38.095815" lon="14.9059633"><ele>723.3333333333334</ele><time>2026-05-01T13:46:52.726Z</time></trkpt><trkpt lat="38.0958367" lon="14.905885"><ele>724.0</ele><time>2026-05-01T13:46:53.727Z</time></trkpt><trkpt lat="38.0958517" lon="14.9057383"><ele>724.0</ele><time>2026-05-01T13:46:55.727Z</time></trkpt><trkpt lat="38.0958033" lon="14.90561"><ele>724.0</ele><time>2026-05-01T13:46:57.727Z</time></trkpt><trkpt lat="38.0957417" lon="14.90547"><ele>724.0</ele><time>2026-05-01T13:46:59.727Z</time></trkpt><trkpt lat="38.0957133" lon="14.905345"><ele>724.0</ele><time>2026-05-01T13:47:01.727Z</time></trkpt><trkpt lat="38.0956983" lon="14.905255"><ele>724.0</ele><time>2026-05-01T13:47:03.727Z</time></trkpt><trkpt lat="38.09561" lon="14.90516"><ele>724.0</ele><time>2026-05-01T13:50:00.728Z</time></trkpt><trkpt lat="38.0956933" lon="14.9051983"><ele>724.0</ele><time>2026-05-01T14:02:45.73Z</time></trkpt><trkpt lat="38.0957067" lon="14.9053343"><ele>724.0</ele><time>2026-05-01T14:04:15.73Z</time></trkpt><trkpt lat="38.0957311" lon="14.9054506"><ele>724.0</ele><time>2026-05-01T14:04:16.729Z</time></trkpt><trkpt lat="38.0957687" lon="14.905561"><ele>724.0</ele><time>2026-05-01T14:04:17.73Z</time></trkpt><trkpt lat="38.0958124" lon="14.9056429"><ele>724.0</ele><time>2026-05-01T14:04:18.73Z</time></trkpt><trkpt lat="38.0958593" lon="14.9057007"><ele>724.0</ele><time>2026-05-01T14:04:19.73Z</time></trkpt><trkpt lat="38.0959151" lon="14.905745"><ele>724.0</ele><time>2026-05-01T14:04:20.73Z</time></trkpt><trkpt lat="38.0959871" lon="14.9057643"><ele>724.0</ele><time>2026-05-01T14:04:21.729Z</time></trkpt><trkpt lat="38.0960769" lon="14.9057611"><ele>724.0</ele><time>2026-05-01T14:04:22.73Z</time></trkpt><trkpt lat="38.0961681" lon="14.9057643"><ele>724.0</ele><time>2026-05-01T14:04:23.73Z</time></trkpt><trkpt lat="38.0962613" lon="14.9057869"><ele>724.0</ele><time>2026-05-01T14:04:24.73Z</time></trkpt><trkpt lat="38.0963623" lon="14.9058524"><ele>724.0</ele><time>2026-05-01T14:04:25.73Z</time></trkpt><trkpt lat="38.096485" lon="14.905935"><ele>724.0</ele><time>2026-05-01T14:04:26.73Z</time></trkpt><trkpt lat="38.0966083" lon="14.90598"><ele>724.0</ele><time>2026-05-01T14:04:27.73Z</time></trkpt><trkpt lat="38.0967333" lon="14.9059783"><ele>724.4000000000001</ele><time>2026-05-01T14:04:28.73Z</time></trkpt><trkpt lat="38.09684" lon="14.9059417"><ele>724.8</ele><time>2026-05-01T14:04:29.73Z</time></trkpt><trkpt lat="38.096935" lon="14.9059033"><ele>725.2</ele><time>2026-05-01T14:04:30.73Z</time></trkpt><trkpt lat="38.0970133" lon="14.9058817"><ele>725.5999999999999</ele><time>2026-05-01T14:04:31.73Z</time></trkpt><trkpt lat="38.0970933" lon="14.9058667"><ele>726.0</ele><time>2026-05-01T14:04:32.73Z</time></trkpt><trkpt lat="38.0971733" lon="14.905865"><ele>726.0</ele><time>2026-05-01T14:04:33.73Z</time></trkpt><trkpt lat="38.097255" lon="14.90586"><ele>726.0</ele><time>2026-05-01T14:04:34.73Z</time></trkpt><trkpt lat="38.0973383" lon="14.9058533"><ele>726.0</ele><time>2026-05-01T14:04:35.729Z</time></trkpt><trkpt lat="38.0974167" lon="14.905845"><ele>726.0</ele><time>2026-05-01T14:04:36.73Z</time></trkpt><trkpt lat="38.0975067" lon="14.9058283"><ele>726.0</ele><time>2026-05-01T14:04:37.73Z</time></trkpt><trkpt lat="38.0976067" lon="14.9058217"><ele>726.0</ele><time>2026-05-01T14:04:38.73Z</time></trkpt><trkpt lat="38.0977017" lon="14.9058367"><ele>727.0</ele><time>2026-05-01T14:04:39.73Z</time></trkpt><trkpt lat="38.0977767" lon="14.90587"><ele>728.0</ele><time>2026-05-01T14:04:40.73Z</time></trkpt><trkpt lat="38.0978367" lon="14.9059383"><ele>729.0</ele><time>2026-05-01T14:04:41.729Z</time></trkpt><trkpt lat="38.0978883" lon="14.906035"><ele>730.0</ele><time>2026-05-01T14:04:42.729Z</time></trkpt><trkpt lat="38.097935" lon="14.906145"><ele>731.0</ele><time>2026-05-01T14:04:43.73Z</time></trkpt><trkpt lat="38.0979817" lon="14.9062483"><ele>732.0</ele><time>2026-05-01T14:04:44.73Z</time></trkpt><trkpt lat="38.0980217" lon="14.9063167"><ele>736.6</ele><time>2026-05-01T14:04:45.73Z</time></trkpt><trkpt lat="38.098105" lon="14.9063883"><ele>741.2</ele><time>2026-05-01T14:04:47.73Z</time></trkpt><trkpt lat="38.0982117" lon="14.9063567"><ele>745.8</ele><time>2026-05-01T14:04:49.73Z</time></trkpt><trkpt lat="38.098295" lon="14.906305"><ele>750.4</ele><time>2026-05-01T14:04:50.73Z</time></trkpt><trkpt lat="38.0984" lon="14.9062467"><ele>755.0</ele><time>2026-05-01T14:04:51.73Z</time></trkpt><trkpt lat="38.0985367" lon="14.9061517"><ele>756.25</ele><time>2026-05-01T14:04:52.73Z</time></trkpt><trkpt lat="38.0986933" lon="14.90609"><ele>757.5</ele><time>2026-05-01T14:04:53.73Z</time></trkpt><trkpt lat="38.0988217" lon="14.9060533"><ele>758.75</ele><time>2026-05-01T14:04:54.73Z</time></trkpt><trkpt lat="38.09892" lon="14.9060417"><ele>760.0</ele><time>2026-05-01T14:04:55.73Z</time></trkpt><trkpt lat="38.0990083" lon="14.9060867"><ele>759.6</ele><time>2026-05-01T14:04:56.73Z</time></trkpt><trkpt lat="38.09909" lon="14.9061567"><ele>759.2</ele><time>2026-05-01T14:04:57.729Z</time></trkpt><trkpt lat="38.0991567" lon="14.9062683"><ele>758.8</ele><time>2026-05-01T14:04:58.73Z</time></trkpt><trkpt lat="38.0992183" lon="14.90637"><ele>758.4</ele><time>2026-05-01T14:04:59.73Z</time></trkpt><trkpt lat="38.09929" lon="14.9064683"><ele>758.0</ele><time>2026-05-01T14:05:00.73Z</time></trkpt><trkpt lat="38.099365" lon="14.9065483"><ele>758.0</ele><time>2026-05-01T14:05:01.73Z</time></trkpt><trkpt lat="38.09942" lon="14.906595"><ele>758.0</ele><time>2026-05-01T14:05:02.73Z</time></trkpt><trkpt lat="38.0994433" lon="14.90667"><ele>758.0</ele><time>2026-05-01T14:05:05.73Z</time></trkpt><trkpt lat="38.0993617" lon="14.9066067"><ele>758.0</ele><time>2026-05-01T14:05:07.73Z</time></trkpt><trkpt lat="38.099275" lon="14.906545"><ele>758.0</ele><time>2026-05-01T14:05:08.73Z</time></trkpt><trkpt lat="38.0991517" lon="14.9064967"><ele>758.5</ele><time>2026-05-01T14:05:09.73Z</time></trkpt><trkpt lat="38.0990017" lon="14.906485"><ele>759.0</ele><time>2026-05-01T14:05:10.73Z</time></trkpt><trkpt lat="38.0988517" lon="14.9065367"><ele>759.5</ele><time>2026-05-01T14:05:11.729Z</time></trkpt><trkpt lat="38.098735" lon="14.9066067"><ele>760.0</ele><time>2026-05-01T14:05:12.73Z</time></trkpt><trkpt lat="38.098655" lon="14.9066817"><ele>764.2</ele><time>2026-05-01T14:05:13.73Z</time></trkpt><trkpt lat="38.0985783" lon="14.9067617"><ele>768.4</ele><time>2026-05-01T14:05:14.73Z</time></trkpt><trkpt lat="38.0985017" lon="14.906845"><ele>772.5999999999999</ele><time>2026-05-01T14:05:15.729Z</time></trkpt><trkpt lat="38.09842" lon="14.9069433"><ele>776.8</ele><time>2026-05-01T14:05:16.73Z</time></trkpt><trkpt lat="38.09834" lon="14.907045"><ele>781.0</ele><time>2026-05-01T14:05:17.73Z</time></trkpt><trkpt lat="38.0982717" lon="14.9071633"><ele>782.0</ele><time>2026-05-01T14:05:18.73Z</time></trkpt><trkpt lat="38.098205" lon="14.9072933"><ele>783.0</ele><time>2026-05-01T14:05:19.73Z</time></trkpt><trkpt lat="38.09814" lon="14.907425"><ele>784.0</ele><time>2026-05-01T14:05:20.73Z</time></trkpt><trkpt lat="38.0980917" lon="14.9075533"><ele>785.0</ele><time>2026-05-01T14:05:21.73Z</time></trkpt><trkpt lat="38.09804" lon="14.9076683"><ele>785.0</ele><time>2026-05-01T14:05:22.73Z</time></trkpt><trkpt lat="38.0979917" lon="14.907795"><ele>785.0</ele><time>2026-05-01T14:05:23.73Z</time></trkpt><trkpt lat="38.0979433" lon="14.9079083"><ele>785.0</ele><time>2026-05-01T14:05:24.73Z</time></trkpt><trkpt lat="38.0978967" lon="14.9080167"><ele>785.0</ele><time>2026-05-01T14:05:25.73Z</time></trkpt><trkpt lat="38.0978467" lon="14.9081083"><ele>785.0</ele><time>2026-05-01T14:05:26.73Z</time></trkpt><trkpt lat="38.097805" lon="14.9081883"><ele>785.0</ele><time>2026-05-01T14:05:27.73Z</time></trkpt><trkpt lat="38.09778" lon="14.908305"><ele>785.0</ele><time>2026-05-01T14:05:29.73Z</time></trkpt><trkpt lat="38.0978533" lon="14.9084117"><ele>785.0</ele><time>2026-05-01T14:05:31.729Z</time></trkpt><trkpt lat="38.0979267" lon="14.908445"><ele>785.0</ele><time>2026-05-01T14:05:32.73Z</time></trkpt><trkpt lat="38.0980117" lon="14.908505"><ele>785.0</ele><time>2026-05-01T14:05:33.73Z</time></trkpt><trkpt lat="38.0980983" lon="14.9085717"><ele>787.8</ele><time>2026-05-01T14:05:34.73Z</time></trkpt><trkpt lat="38.0981617" lon="14.9086383"><ele>790.6</ele><time>2026-05-01T14:05:35.729Z</time></trkpt><trkpt lat="38.0981783" lon="14.9087483"><ele>793.4000000000001</ele><time>2026-05-01T14:05:37.73Z</time></trkpt><trkpt lat="38.0980933" lon="14.9088767"><ele>796.2</ele><time>2026-05-01T14:05:39.73Z</time></trkpt><trkpt lat="38.0980333" lon="14.9089583"><ele>799.0</ele><time>2026-05-01T14:05:40.73Z</time></trkpt><trkpt lat="38.0979683" lon="14.909075"><ele>799.0</ele><time>2026-05-01T14:05:41.729Z</time></trkpt><trkpt lat="38.0978967" lon="14.909205"><ele>799.0</ele><time>2026-05-01T14:05:42.73Z</time></trkpt><trkpt lat="38.0978183" lon="14.909335"><ele>799.0</ele><time>2026-05-01T14:05:43.73Z</time></trkpt><trkpt lat="38.0977583" lon="14.9094633"><ele>799.0</ele><time>2026-05-01T14:05:44.73Z</time></trkpt><trkpt lat="38.09772" lon="14.9095717"><ele>801.6</ele><time>2026-05-01T14:05:45.73Z</time></trkpt><trkpt lat="38.0976917" lon="14.9096583"><ele>804.2</ele><time>2026-05-01T14:05:46.73Z</time></trkpt><trkpt lat="38.0976733" lon="14.9097933"><ele>806.8000000000001</ele><time>2026-05-01T14:05:48.729Z</time></trkpt><trkpt lat="38.097615" lon="14.9099533"><ele>809.4000000000001</ele><time>2026-05-01T14:05:50.73Z</time></trkpt><trkpt lat="38.0975717" lon="14.9100417"><ele>812.0</ele><time>2026-05-01T14:05:51.73Z</time></trkpt><trkpt lat="38.0975233" lon="14.910145"><ele>814.1666666666667</ele><time>2026-05-01T14:05:52.73Z</time></trkpt><trkpt lat="38.09747" lon="14.9102567"><ele>816.3333333333334</ele><time>2026-05-01T14:05:53.729Z</time></trkpt><trkpt lat="38.0974133" lon="14.9103483"><ele>818.5</ele><time>2026-05-01T14:05:54.73Z</time></trkpt><trkpt lat="38.09738" lon="14.910425"><ele>820.6666666666667</ele><time>2026-05-01T14:05:55.73Z</time></trkpt><trkpt lat="38.0973867" lon="14.91051"><ele>822.8333333333334</ele><time>2026-05-01T14:05:56.73Z</time></trkpt><trkpt lat="38.0974267" lon="14.9105783"><ele>825.0</ele><time>2026-05-01T14:05:57.731Z</time></trkpt><trkpt lat="38.0975383" lon="14.9105917"><ele>825.0</ele><time>2026-05-01T14:05:59.73Z</time></trkpt><trkpt lat="38.0976083" lon="14.9105317"><ele>825.0</ele><time>2026-05-01T14:06:00.73Z</time></trkpt><trkpt lat="38.097695" lon="14.9105333"><ele>825.0</ele><time>2026-05-01T14:06:02.731Z</time></trkpt><trkpt lat="38.09778" lon="14.9106217"><ele>825.0</ele><time>2026-05-01T14:06:04.731Z</time></trkpt><trkpt lat="38.0978656" lon="14.9106826"><ele>825.0</ele><time>2026-05-01T14:06:06.731Z</time></trkpt><trkpt lat="38.0979637" lon="14.9106617"><ele>825.0</ele><time>2026-05-01T14:06:08.731Z</time></trkpt><trkpt lat="38.0980312" lon="14.9106332"><ele>825.0</ele><time>2026-05-01T14:06:09.731Z</time></trkpt><trkpt lat="38.0981185" lon="14.9105969"><ele>825.0</ele><time>2026-05-01T14:06:10.731Z</time></trkpt><trkpt lat="38.0982176" lon="14.9105596"><ele>825.0</ele><time>2026-05-01T14:06:11.731Z</time></trkpt><trkpt lat="38.0983246" lon="14.9105108"><ele>825.0</ele><time>2026-05-01T14:06:12.731Z</time></trkpt><trkpt lat="38.0984291" lon="14.9104588"><ele>828.6</ele><time>2026-05-01T14:06:13.731Z</time></trkpt><trkpt lat="38.0985377" lon="14.9104046"><ele>832.2</ele><time>2026-05-01T14:06:14.731Z</time></trkpt><trkpt lat="38.0986424" lon="14.910347"><ele>835.8</ele><time>2026-05-01T14:06:15.731Z</time></trkpt><trkpt lat="38.0987373" lon="14.9102853"><ele>839.4</ele><time>2026-05-01T14:06:16.731Z</time></trkpt><trkpt lat="38.0988137" lon="14.9102159"><ele>843.0</ele><time>2026-05-01T14:06:17.731Z</time></trkpt><trkpt lat="38.0988844" lon="14.9101493"><ele>843.0</ele><time>2026-05-01T14:06:18.731Z</time></trkpt><trkpt lat="38.0989533" lon="14.9100819"><ele>843.0</ele><time>2026-05-01T14:06:19.731Z</time></trkpt><trkpt lat="38.0990196" lon="14.9100027"><ele>843.0</ele><time>2026-05-01T14:06:20.731Z</time></trkpt><trkpt lat="38.0990835" lon="14.9099358"><ele>843.0</ele><time>2026-05-01T14:06:21.731Z</time></trkpt><trkpt lat="38.0991466" lon="14.9098795"><ele>843.0</ele><time>2026-05-01T14:06:22.731Z</time></trkpt><trkpt lat="38.0992465" lon="14.909834"><ele>843.0</ele><time>2026-05-01T14:06:24.731Z</time></trkpt><trkpt lat="38.0993357" lon="14.9098601"><ele>842.5999999999999</ele><time>2026-05-01T14:06:26.731Z</time></trkpt><trkpt lat="38.0994376" lon="14.9099024"><ele>842.1999999999999</ele><time>2026-05-01T14:06:28.73Z</time></trkpt><trkpt lat="38.0995578" lon="14.9099292"><ele>841.8</ele><time>2026-05-01T14:06:30.731Z</time></trkpt><trkpt lat="38.0996789" lon="14.9099774"><ele>841.4</ele><time>2026-05-01T14:06:32.73Z</time></trkpt><trkpt lat="38.0997503" lon="14.9100153"><ele>841.0</ele><time>2026-05-01T14:06:33.731Z</time></trkpt><trkpt lat="38.0998197" lon="14.91007"><ele>843.8333333333333</ele><time>2026-05-01T14:06:34.731Z</time></trkpt><trkpt lat="38.0998872" lon="14.9101216"><ele>846.6666666666666</ele><time>2026-05-01T14:06:35.731Z</time></trkpt><trkpt lat="38.0999432" lon="14.9101667"><ele>849.5</ele><time>2026-05-01T14:06:36.731Z</time></trkpt><trkpt lat="38.1000272" lon="14.9102764"><ele>852.3333333333333</ele><time>2026-05-01T14:06:38.731Z</time></trkpt><trkpt lat="38.1000565" lon="14.9103501"><ele>855.1666666666666</ele><time>2026-05-01T14:06:39.731Z</time></trkpt><trkpt lat="38.100081" lon="14.9104281"><ele>858.0</ele><time>2026-05-01T14:06:40.731Z</time></trkpt><trkpt lat="38.1001133" lon="14.9105046"><ele>859.1666666666666</ele><time>2026-05-01T14:06:41.731Z</time></trkpt><trkpt lat="38.1001554" lon="14.9105793"><ele>860.3333333333333</ele><time>2026-05-01T14:06:42.731Z</time></trkpt><trkpt lat="38.1002045" lon="14.9106406"><ele>861.5</ele><time>2026-05-01T14:06:43.731Z</time></trkpt><trkpt lat="38.1002614" lon="14.9106861"><ele>862.6666666666666</ele><time>2026-05-01T14:06:44.731Z</time></trkpt><trkpt lat="38.1003811" lon="14.9107044"><ele>863.8333333333333</ele><time>2026-05-01T14:06:46.731Z</time></trkpt><trkpt lat="38.1004956" lon="14.9106823"><ele>865.0</ele><time>2026-05-01T14:06:48.731Z</time></trkpt><trkpt lat="38.1006198" lon="14.910729"><ele>864.9999999999999</ele><time>2026-05-01T14:06:50.731Z</time></trkpt><trkpt lat="38.1006841" lon="14.9107823"><ele>865.0</ele><time>2026-05-01T14:06:51.731Z</time></trkpt><trkpt lat="38.100745" lon="14.9108514"><ele>865.0</ele><time>2026-05-01T14:06:52.73Z</time></trkpt><trkpt lat="38.1007917" lon="14.9109313"><ele>865.0</ele><time>2026-05-01T14:06:53.731Z</time></trkpt><trkpt lat="38.1008277" lon="14.9110047"><ele>864.9999999999999</ele><time>2026-05-01T14:06:54.731Z</time></trkpt><trkpt lat="38.1008867" lon="14.9111043"><ele>865.0</ele><time>2026-05-01T14:06:56.731Z</time></trkpt><trkpt lat="38.1009521" lon="14.9110972"><ele>865.0</ele><time>2026-05-01T14:07:00.731Z</time></trkpt><trkpt lat="38.1008698" lon="14.9110665"><ele>865.0</ele><time>2026-05-01T14:07:07.731Z</time></trkpt><trkpt lat="38.1007949" lon="14.9110017"><ele>865.0</ele><time>2026-05-01T14:07:09.731Z</time></trkpt><trkpt lat="38.1007369" lon="14.9108909"><ele>865.0</ele><time>2026-05-01T14:07:11.731Z</time></trkpt><trkpt lat="38.1006887" lon="14.9108023"><ele>865.0</ele><time>2026-05-01T14:07:13.731Z</time></trkpt><trkpt lat="38.1006144" lon="14.9107367"><ele>864.9999999999999</ele><time>2026-05-01T14:07:15.731Z</time></trkpt><trkpt lat="38.1005296" lon="14.9106915"><ele>865.0</ele><time>2026-05-01T14:07:17.731Z</time></trkpt><trkpt lat="38.1004579" lon="14.9106993"><ele>865.0</ele><time>2026-05-01T14:07:19.731Z</time></trkpt><trkpt lat="38.1003792" lon="14.9107519"><ele>865.0</ele><time>2026-05-01T14:07:21.731Z</time></trkpt><trkpt lat="38.100326" lon="14.9108237"><ele>864.9999999999999</ele><time>2026-05-01T14:07:23.731Z</time></trkpt><trkpt lat="38.1003715" lon="14.9109104"><ele>865.0</ele><time>2026-05-01T14:07:26.731Z</time></trkpt><trkpt lat="38.1004378" lon="14.9109647"><ele>868.9999999999999</ele><time>2026-05-01T14:07:28.731Z</time></trkpt><trkpt lat="38.1004041" lon="14.9110443"><ele>873.0</ele><time>2026-05-01T14:07:31.731Z</time></trkpt><trkpt lat="38.1003434" lon="14.9110941"><ele>877.0</ele><time>2026-05-01T14:07:32.731Z</time></trkpt><trkpt lat="38.1002777" lon="14.9111586"><ele>881.0</ele><time>2026-05-01T14:07:33.73Z</time></trkpt><trkpt lat="38.1002077" lon="14.9112289"><ele>884.9999999999999</ele><time>2026-05-01T14:07:34.731Z</time></trkpt><trkpt lat="38.1001272" lon="14.9112933"><ele>889.0</ele><time>2026-05-01T14:07:35.731Z</time></trkpt><trkpt lat="38.1000386" lon="14.9113438"><ele>888.9999999999999</ele><time>2026-05-01T14:07:36.731Z</time></trkpt><trkpt lat="38.0999626" lon="14.9113731"><ele>889.0</ele><time>2026-05-01T14:07:37.731Z</time></trkpt><trkpt lat="38.0998982" lon="14.9113755"><ele>889.0</ele><time>2026-05-01T14:07:38.731Z</time></trkpt><trkpt lat="38.099801" lon="14.9113498"><ele>889.0</ele><time>2026-05-01T14:07:40.731Z</time></trkpt><trkpt lat="38.0997141" lon="14.9113551"><ele>888.9999999999999</ele><time>2026-05-01T14:07:42.731Z</time></trkpt><trkpt lat="38.0996326" lon="14.9113743"><ele>889.0</ele><time>2026-05-01T14:08:07.731Z</time></trkpt><trkpt lat="38.0995722" lon="14.9114116"><ele>889.8333333333333</ele><time>2026-05-01T14:08:08.731Z</time></trkpt><trkpt lat="38.0994794" lon="14.9114999"><ele>890.6666666666666</ele><time>2026-05-01T14:08:10.731Z</time></trkpt><trkpt lat="38.0994357" lon="14.9115634"><ele>891.5</ele><time>2026-05-01T14:08:11.731Z</time></trkpt><trkpt lat="38.0993873" lon="14.9116389"><ele>892.3333333333333</ele><time>2026-05-01T14:08:12.73Z</time></trkpt><trkpt lat="38.0993307" lon="14.9117091"><ele>893.1666666666666</ele><time>2026-05-01T14:08:13.731Z</time></trkpt><trkpt lat="38.0992768" lon="14.9117772"><ele>894.0</ele><time>2026-05-01T14:08:14.731Z</time></trkpt><trkpt lat="38.0992378" lon="14.9118447"><ele>894.0</ele><time>2026-05-01T14:08:15.731Z</time></trkpt><trkpt lat="38.0992462" lon="14.9119622"><ele>894.0000000000001</ele><time>2026-05-01T14:08:17.731Z</time></trkpt><trkpt lat="38.0993358" lon="14.9120229"><ele>894.0000000000001</ele><time>2026-05-01T14:08:19.731Z</time></trkpt><trkpt lat="38.0994319" lon="14.9120497"><ele>894.0</ele><time>2026-05-01T14:08:21.731Z</time></trkpt><trkpt lat="38.0994141" lon="14.9121608"><ele>894.0</ele><time>2026-05-01T14:08:37.731Z</time></trkpt><trkpt lat="38.0993588" lon="14.9122684"><ele>894.0</ele><time>2026-05-01T14:08:39.731Z</time></trkpt><trkpt lat="38.0993306" lon="14.9123441"><ele>894.0000000000001</ele><time>2026-05-01T14:08:40.73Z</time></trkpt><trkpt lat="38.0992932" lon="14.9124848"><ele>894.0000000000001</ele><time>2026-05-01T14:08:42.731Z</time></trkpt><trkpt lat="38.0993004" lon="14.9125891"><ele>894.0</ele><time>2026-05-01T14:08:44.731Z</time></trkpt><trkpt lat="38.0993817" lon="14.9126209"><ele>894.0</ele><time>2026-05-01T14:08:46.731Z</time></trkpt><trkpt lat="38.0994859" lon="14.9126285"><ele>895.8333333333334</ele><time>2026-05-01T14:08:48.731Z</time></trkpt><trkpt lat="38.0995539" lon="14.912696"><ele>897.6666666666667</ele><time>2026-05-01T14:08:50.73Z</time></trkpt><trkpt lat="38.0996092" lon="14.9127824"><ele>899.5</ele><time>2026-05-01T14:08:52.731Z</time></trkpt><trkpt lat="38.0996177" lon="14.9128622"><ele>901.3333333333334</ele><time>2026-05-01T14:08:54.731Z</time></trkpt><trkpt lat="38.0996048" lon="14.9129812"><ele>903.1666666666667</ele><time>2026-05-01T14:08:56.731Z</time></trkpt><trkpt lat="38.0996266" lon="14.91311"><ele>905.0</ele><time>2026-05-01T14:08:58.731Z</time></trkpt><trkpt lat="38.0996907" lon="14.9131981"><ele>905.0000000000001</ele><time>2026-05-01T14:09:00.731Z</time></trkpt><trkpt lat="38.0997777" lon="14.9132722"><ele>905.0</ele><time>2026-05-01T14:09:02.731Z</time></trkpt><trkpt lat="38.0998364" lon="14.9133046"><ele>905.0</ele><time>2026-05-01T14:09:04.731Z</time></trkpt><trkpt lat="38.0999309" lon="14.9133172"><ele>905.0</ele><time>2026-05-01T14:09:11.731Z</time></trkpt><trkpt lat="38.1000088" lon="14.9133148"><ele>905.0000000000001</ele><time>2026-05-01T14:09:13.731Z</time></trkpt><trkpt lat="38.1000627" lon="14.9133973"><ele>905.0</ele><time>2026-05-01T14:09:15.731Z</time></trkpt><trkpt lat="38.1000851" lon="14.9134967"><ele>907.5000000000001</ele><time>2026-05-01T14:09:17.731Z</time></trkpt><trkpt lat="38.1000437" lon="14.913598"><ele>910.0</ele><time>2026-05-01T14:09:20.731Z</time></trkpt><trkpt lat="38.0999695" lon="14.9136378"><ele>912.5</ele><time>2026-05-01T14:09:22.731Z</time></trkpt><trkpt lat="38.0999078" lon="14.9136713"><ele>915.0</ele><time>2026-05-01T14:09:24.731Z</time></trkpt><trkpt lat="38.0999636" lon="14.9137776"><ele>917.5000000000001</ele><time>2026-05-01T14:09:27.731Z</time></trkpt><trkpt lat="38.1000487" lon="14.9138357"><ele>920.0</ele><time>2026-05-01T14:09:29.73Z</time></trkpt><trkpt lat="38.1001159" lon="14.9139208"><ele>923.4</ele><time>2026-05-01T14:09:31.73Z</time></trkpt><trkpt lat="38.1001361" lon="14.9140433"><ele>926.8</ele><time>2026-05-01T14:09:33.73Z</time></trkpt><trkpt lat="38.10013" lon="14.9141525"><ele>930.2</ele><time>2026-05-01T14:09:35.731Z</time></trkpt><trkpt lat="38.100103" lon="14.9142537"><ele>933.6</ele><time>2026-05-01T14:09:37.731Z</time></trkpt><trkpt lat="38.1000897" lon="14.9143537"><ele>937.0</ele><time>2026-05-01T14:09:39.731Z</time></trkpt><trkpt lat="38.1001686" lon="14.9144455"><ele>940.0</ele><time>2026-05-01T14:09:41.731Z</time></trkpt><trkpt lat="38.1002476" lon="14.9145331"><ele>943.0</ele><time>2026-05-01T14:09:43.731Z</time></trkpt><trkpt lat="38.1002622" lon="14.9146588"><ele>946.0</ele><time>2026-05-01T14:09:45.731Z</time></trkpt><trkpt lat="38.1002316" lon="14.9147491"><ele>949.0</ele><time>2026-05-01T14:09:47.731Z</time></trkpt><trkpt lat="38.1001928" lon="14.9148313"><ele>952.0</ele><time>2026-05-01T14:10:04.731Z</time></trkpt><trkpt lat="38.1001503" lon="14.9149669"><ele>952.0</ele><time>2026-05-01T14:10:06.731Z</time></trkpt><trkpt lat="38.1001141" lon="14.9150627"><ele>952.0</ele><time>2026-05-01T14:10:07.731Z</time></trkpt><trkpt lat="38.1000766" lon="14.9151421"><ele>952.0</ele><time>2026-05-01T14:10:08.731Z</time></trkpt><trkpt lat="38.1000197" lon="14.9152725"><ele>952.0</ele><time>2026-05-01T14:10:10.731Z</time></trkpt><trkpt lat="38.0999667" lon="14.9154177"><ele>952.0</ele><time>2026-05-01T14:10:12.731Z</time></trkpt><trkpt lat="38.0999081" lon="14.9155411"><ele>953.3333333333333</ele><time>2026-05-01T14:10:14.731Z</time></trkpt><trkpt lat="38.0998648" lon="14.9156072"><ele>954.6666666666666</ele><time>2026-05-01T14:10:15.731Z</time></trkpt><trkpt lat="38.0998125" lon="14.9156696"><ele>956.0</ele><time>2026-05-01T14:10:16.731Z</time></trkpt><trkpt lat="38.09972" lon="14.9157461"><ele>957.3333333333333</ele><time>2026-05-01T14:10:18.731Z</time></trkpt><trkpt lat="38.0996183" lon="14.9157608"><ele>958.6666666666666</ele><time>2026-05-01T14:10:20.731Z</time></trkpt><trkpt lat="38.0995444" lon="14.9157308"><ele>960.0</ele><time>2026-05-01T14:10:21.731Z</time></trkpt><trkpt lat="38.0994664" lon="14.9156877"><ele>960.0</ele><time>2026-05-01T14:10:22.731Z</time></trkpt><trkpt lat="38.0994019" lon="14.9156428"><ele>960.0</ele><time>2026-05-01T14:10:23.731Z</time></trkpt><trkpt lat="38.099305" lon="14.915572"><ele>960.0</ele><time>2026-05-01T14:10:25.731Z</time></trkpt><trkpt lat="38.0992182" lon="14.915537"><ele>960.0</ele><time>2026-05-01T14:10:27.731Z</time></trkpt><trkpt lat="38.0991353" lon="14.9155901"><ele>960.0</ele><time>2026-05-01T14:10:29.731Z</time></trkpt><trkpt lat="38.0991662" lon="14.9156768"><ele>960.0</ele><time>2026-05-01T14:10:32.731Z</time></trkpt><trkpt lat="38.0992608" lon="14.9156862"><ele>960.0</ele><time>2026-05-01T14:10:34.731Z</time></trkpt><trkpt lat="38.0993336" lon="14.9157237"><ele>960.0</ele><time>2026-05-01T14:10:36.731Z</time></trkpt><trkpt lat="38.0993894" lon="14.9158028"><ele>960.0</ele><time>2026-05-01T14:10:38.731Z</time></trkpt><trkpt lat="38.0994512" lon="14.9158599"><ele>960.0</ele><time>2026-05-01T14:11:04.731Z</time></trkpt><trkpt lat="38.0995329" lon="14.9159677"><ele>960.0</ele><time>2026-05-01T14:11:06.731Z</time></trkpt><trkpt lat="38.0995943" lon="14.9160191"><ele>960.0</ele><time>2026-05-01T14:11:07.731Z</time></trkpt><trkpt lat="38.0996671" lon="14.9160598"><ele>964.1666666666666</ele><time>2026-05-01T14:11:08.731Z</time></trkpt><trkpt lat="38.0997388" lon="14.916084"><ele>968.3333333333333</ele><time>2026-05-01T14:11:09.731Z</time></trkpt><trkpt lat="38.0998576" lon="14.9160655"><ele>972.5</ele><time>2026-05-01T14:11:11.731Z</time></trkpt><trkpt lat="38.0999155" lon="14.9160318"><ele>976.6666666666666</ele><time>2026-05-01T14:11:12.731Z</time></trkpt><trkpt lat="38.0999771" lon="14.9160037"><ele>980.8333333333333</ele><time>2026-05-01T14:11:13.731Z</time></trkpt><trkpt lat="38.1000468" lon="14.9159979"><ele>985.0</ele><time>2026-05-01T14:11:14.731Z</time></trkpt><trkpt lat="38.1001159" lon="14.9160187"><ele>982.6666666666666</ele><time>2026-05-01T14:11:15.731Z</time></trkpt><trkpt lat="38.1001803" lon="14.9160585"><ele>980.3333333333333</ele><time>2026-05-01T14:11:16.731Z</time></trkpt><trkpt lat="38.1002382" lon="14.916093"><ele>978.0</ele><time>2026-05-01T14:11:17.731Z</time></trkpt><trkpt lat="38.1003483" lon="14.9160653"><ele>975.6666666666667</ele><time>2026-05-01T14:11:19.731Z</time></trkpt><trkpt lat="38.1004049" lon="14.9160092"><ele>973.3333333333334</ele><time>2026-05-01T14:11:20.732Z</time></trkpt><trkpt lat="38.1004664" lon="14.9159516"><ele>971.0</ele><time>2026-05-01T14:11:21.732Z</time></trkpt><trkpt lat="38.100529" lon="14.9158962"><ele>971.0</ele><time>2026-05-01T14:11:22.732Z</time></trkpt><trkpt lat="38.1005879" lon="14.9158438"><ele>970.9999999999999</ele><time>2026-05-01T14:11:23.732Z</time></trkpt><trkpt lat="38.1006888" lon="14.9157654"><ele>970.9999999999999</ele><time>2026-05-01T14:11:25.732Z</time></trkpt><trkpt lat="38.1007945" lon="14.9157716"><ele>971.0</ele><time>2026-05-01T14:11:27.732Z</time></trkpt><trkpt lat="38.1008694" lon="14.9158789"><ele>971.0</ele><time>2026-05-01T14:11:29.732Z</time></trkpt><trkpt lat="38.1008928" lon="14.9159579"><ele>976.0000000000001</ele><time>2026-05-01T14:11:30.732Z</time></trkpt><trkpt lat="38.1009046" lon="14.9160455"><ele>981.0</ele><time>2026-05-01T14:11:31.732Z</time></trkpt><trkpt lat="38.1009192" lon="14.9161406"><ele>986.0</ele><time>2026-05-01T14:11:32.732Z</time></trkpt><trkpt lat="38.100937" lon="14.9162476"><ele>991.0</ele><time>2026-05-01T14:11:33.732Z</time></trkpt><trkpt lat="38.1009608" lon="14.9163526"><ele>996.0000000000001</ele><time>2026-05-01T14:11:34.732Z</time></trkpt><trkpt lat="38.1009894" lon="14.9164411"><ele>1001.0</ele><time>2026-05-01T14:11:35.732Z</time></trkpt><trkpt lat="38.1010142" lon="14.9165831"><ele>1005.8333333333334</ele><time>2026-05-01T14:11:37.732Z</time></trkpt><trkpt lat="38.1010204" lon="14.9167408"><ele>1010.6666666666667</ele><time>2026-05-01T14:11:39.732Z</time></trkpt><trkpt lat="38.1010299" lon="14.9168358"><ele>1015.5</ele><time>2026-05-01T14:11:40.732Z</time></trkpt><trkpt lat="38.1010431" lon="14.9169329"><ele>1020.3333333333333</ele><time>2026-05-01T14:11:41.732Z</time></trkpt><trkpt lat="38.101061" lon="14.9170251"><ele>1025.1666666666665</ele><time>2026-05-01T14:11:42.732Z</time></trkpt><trkpt lat="38.1010763" lon="14.9171071"><ele>1030.0</ele><time>2026-05-01T14:11:43.732Z</time></trkpt><trkpt lat="38.1010952" lon="14.9172107"><ele>1030.0</ele><time>2026-05-01T14:11:45.732Z</time></trkpt><trkpt lat="38.1010933" lon="14.9172979"><ele>1030.0</ele><time>2026-05-01T14:16:26.731Z</time></trkpt><trkpt lat="38.1011602" lon="14.9173149"><ele>1030.0</ele><time>2026-05-01T14:16:28.732Z</time></trkpt><trkpt lat="38.1012593" lon="14.9173184"><ele>1030.0</ele><time>2026-05-01T14:16:30.732Z</time></trkpt><trkpt lat="38.1013669" lon="14.9173737"><ele>1030.0</ele><time>2026-05-01T14:16:32.733Z</time></trkpt><trkpt lat="38.1014542" lon="14.9174168"><ele>1030.0</ele><time>2026-05-01T14:16:34.732Z</time></trkpt><trkpt lat="38.1015403" lon="14.917456"><ele>1029.8333333333333</ele><time>2026-05-01T14:16:36.733Z</time></trkpt><trkpt lat="38.101643" lon="14.9174865"><ele>1029.6666666666665</ele><time>2026-05-01T14:16:38.733Z</time></trkpt><trkpt lat="38.1017449" lon="14.917526"><ele>1029.5</ele><time>2026-05-01T14:16:40.733Z</time></trkpt><trkpt lat="38.101802" lon="14.9175619"><ele>1029.3333333333333</ele><time>2026-05-01T14:16:41.733Z</time></trkpt><trkpt lat="38.1018592" lon="14.9176011"><ele>1029.1666666666667</ele><time>2026-05-01T14:16:42.733Z</time></trkpt><trkpt lat="38.1019042" lon="14.9176583"><ele>1029.0</ele><time>2026-05-01T14:16:43.733Z</time></trkpt><trkpt lat="38.1019372" lon="14.917734"><ele>1033.1666666666667</ele><time>2026-05-01T14:16:44.733Z</time></trkpt><trkpt lat="38.1019629" lon="14.9178146"><ele>1037.3333333333333</ele><time>2026-05-01T14:16:45.732Z</time></trkpt><trkpt lat="38.1020264" lon="14.9179438"><ele>1041.5</ele><time>2026-05-01T14:16:47.732Z</time></trkpt><trkpt lat="38.1020914" lon="14.9179797"><ele>1045.6666666666665</ele><time>2026-05-01T14:16:48.733Z</time></trkpt><trkpt lat="38.1021746" lon="14.9179865"><ele>1049.8333333333333</ele><time>2026-05-01T14:16:49.732Z</time></trkpt><trkpt lat="38.1022572" lon="14.9179634"><ele>1054.0</ele><time>2026-05-01T14:16:50.733Z</time></trkpt><trkpt lat="38.1023339" lon="14.9179428"><ele>1054.0</ele><time>2026-05-01T14:16:51.733Z</time></trkpt><trkpt lat="38.1023992" lon="14.9179545"><ele>1054.0</ele><time>2026-05-01T14:16:52.733Z</time></trkpt><trkpt lat="38.1024666" lon="14.9180031"><ele>1054.0</ele><time>2026-05-01T14:16:53.733Z</time></trkpt><trkpt lat="38.1025295" lon="14.9180688"><ele>1054.0</ele><time>2026-05-01T14:16:54.733Z</time></trkpt><trkpt lat="38.1025788" lon="14.918128"><ele>1054.0</ele><time>2026-05-01T14:16:55.733Z</time></trkpt><trkpt lat="38.1026703" lon="14.9182247"><ele>1054.0</ele><time>2026-05-01T14:16:57.733Z</time></trkpt><trkpt lat="38.1027369" lon="14.9182956"><ele>1054.0</ele><time>2026-05-01T14:16:58.733Z</time></trkpt><trkpt lat="38.1028222" lon="14.918378"><ele>1054.0</ele><time>2026-05-01T14:16:59.733Z</time></trkpt><trkpt lat="38.1029253" lon="14.9184605"><ele>1054.0</ele><time>2026-05-01T14:17:00.733Z</time></trkpt><trkpt lat="38.103046" lon="14.9185399"><ele>1054.0</ele><time>2026-05-01T14:17:01.733Z</time></trkpt><trkpt lat="38.103164" lon="14.9186163"><ele>1051.2</ele><time>2026-05-01T14:17:02.733Z</time></trkpt><trkpt lat="38.103271" lon="14.9186748"><ele>1048.4</ele><time>2026-05-01T14:17:03.733Z</time></trkpt><trkpt lat="38.1033619" lon="14.9187301"><ele>1045.6</ele><time>2026-05-01T14:17:04.733Z</time></trkpt><trkpt lat="38.1034524" lon="14.9187579"><ele>1042.8</ele><time>2026-05-01T14:17:05.733Z</time></trkpt><trkpt lat="38.1035438" lon="14.9187739"><ele>1040.0</ele><time>2026-05-01T14:17:06.733Z</time></trkpt><trkpt lat="38.1036447" lon="14.9187785"><ele>1040.0</ele><time>2026-05-01T14:17:07.733Z</time></trkpt><trkpt lat="38.1037444" lon="14.9187664"><ele>1040.0</ele><time>2026-05-01T14:17:08.733Z</time></trkpt><trkpt lat="38.103826" lon="14.9187459"><ele>1040.0</ele><time>2026-05-01T14:17:09.733Z</time></trkpt><trkpt lat="38.1038936" lon="14.9187265"><ele>1040.0</ele><time>2026-05-01T14:17:10.733Z</time></trkpt><trkpt lat="38.1039578" lon="14.918721"><ele>1040.0</ele><time>2026-05-01T14:17:11.733Z</time></trkpt><trkpt lat="38.1040255" lon="14.9187326"><ele>1040.0</ele><time>2026-05-01T14:17:12.733Z</time></trkpt><trkpt lat="38.1040928" lon="14.9187616"><ele>1038.1666666666667</ele><time>2026-05-01T14:17:13.732Z</time></trkpt><trkpt lat="38.1041552" lon="14.9188039"><ele>1036.3333333333335</ele><time>2026-05-01T14:17:14.733Z</time></trkpt><trkpt lat="38.104218" lon="14.9188622"><ele>1034.5</ele><time>2026-05-01T14:17:15.733Z</time></trkpt><trkpt lat="38.1042833" lon="14.9189251"><ele>1032.6666666666667</ele><time>2026-05-01T14:17:16.733Z</time></trkpt><trkpt lat="38.1043538" lon="14.9189734"><ele>1030.8333333333333</ele><time>2026-05-01T14:17:17.733Z</time></trkpt><trkpt lat="38.104428" lon="14.9189954"><ele>1029.0</ele><time>2026-05-01T14:17:18.733Z</time></trkpt><trkpt lat="38.1045027" lon="14.9189858"><ele>1029.0</ele><time>2026-05-01T14:17:19.733Z</time></trkpt><trkpt lat="38.1045727" lon="14.9189501"><ele>1029.0</ele><time>2026-05-01T14:17:20.733Z</time></trkpt><trkpt lat="38.1046356" lon="14.9188873"><ele>1029.0</ele><time>2026-05-01T14:17:21.732Z</time></trkpt><trkpt lat="38.1046964" lon="14.9188104"><ele>1029.0</ele><time>2026-05-01T14:17:22.732Z</time></trkpt><trkpt lat="38.1047561" lon="14.9187368"><ele>1029.0</ele><time>2026-05-01T14:17:23.733Z</time></trkpt><trkpt lat="38.1048123" lon="14.9186707"><ele>1029.0</ele><time>2026-05-01T14:17:24.733Z</time></trkpt><trkpt lat="38.1048634" lon="14.9185998"><ele>1029.0</ele><time>2026-05-01T14:17:25.733Z</time></trkpt><trkpt lat="38.1049097" lon="14.9185167"><ele>1029.0</ele><time>2026-05-01T14:17:26.732Z</time></trkpt><trkpt lat="38.1049572" lon="14.9184426"><ele>1029.0</ele><time>2026-05-01T14:17:27.733Z</time></trkpt><trkpt lat="38.1050108" lon="14.9183855"><ele>1029.0</ele><time>2026-05-01T14:17:28.733Z</time></trkpt><trkpt lat="38.1050697" lon="14.9183406"><ele>1029.0</ele><time>2026-05-01T14:17:29.733Z</time></trkpt><trkpt lat="38.1051321" lon="14.9182679"><ele>1029.0</ele><time>2026-05-01T14:17:30.733Z</time></trkpt><trkpt lat="38.1051965" lon="14.9181634"><ele>1025.6000000000001</ele><time>2026-05-01T14:17:31.733Z</time></trkpt><trkpt lat="38.1052537" lon="14.9180481"><ele>1022.2</ele><time>2026-05-01T14:17:32.733Z</time></trkpt><trkpt lat="38.1053036" lon="14.9179251"><ele>1018.8000000000001</ele><time>2026-05-01T14:17:33.733Z</time></trkpt><trkpt lat="38.1053464" lon="14.9178044"><ele>1015.4000000000001</ele><time>2026-05-01T14:17:34.733Z</time></trkpt><trkpt lat="38.1053953" lon="14.9176966"><ele>1012.0</ele><time>2026-05-01T14:17:35.732Z</time></trkpt><trkpt lat="38.1054656" lon="14.9175978"><ele>1009.25</ele><time>2026-05-01T14:17:36.732Z</time></trkpt><trkpt lat="38.1055557" lon="14.9174976"><ele>1006.5</ele><time>2026-05-01T14:17:37.733Z</time></trkpt><trkpt lat="38.1056508" lon="14.917392"><ele>1003.75</ele><time>2026-05-01T14:17:38.733Z</time></trkpt><trkpt lat="38.10574" lon="14.9172928"><ele>1001.0</ele><time>2026-05-01T14:17:39.733Z</time></trkpt><trkpt lat="38.1058212" lon="14.9172025"><ele>1001.0</ele><time>2026-05-01T14:17:40.733Z</time></trkpt><trkpt lat="38.1058955" lon="14.917132"><ele>1000.9999999999999</ele><time>2026-05-01T14:17:41.733Z</time></trkpt><trkpt lat="38.1059688" lon="14.9170761"><ele>1000.9999999999999</ele><time>2026-05-01T14:17:42.733Z</time></trkpt><trkpt lat="38.1060585" lon="14.9170334"><ele>1001.0</ele><time>2026-05-01T14:17:43.733Z</time></trkpt><trkpt lat="38.1061675" lon="14.9170096"><ele>1001.0</ele><time>2026-05-01T14:17:44.733Z</time></trkpt><trkpt lat="38.106299" lon="14.9169934"><ele>1001.0</ele><time>2026-05-01T14:17:45.732Z</time></trkpt><trkpt lat="38.1064267" lon="14.916955"><ele>1001.0</ele><time>2026-05-01T14:17:46.733Z</time></trkpt><trkpt lat="38.1065307" lon="14.9168899"><ele>1001.0</ele><time>2026-05-01T14:17:47.733Z</time></trkpt><trkpt lat="38.1066159" lon="14.9168087"><ele>1001.0</ele><time>2026-05-01T14:17:48.733Z</time></trkpt><trkpt lat="38.106698" lon="14.9167207"><ele>1002.0</ele><time>2026-05-01T14:17:49.733Z</time></trkpt><trkpt lat="38.1067693" lon="14.9166324"><ele>1002.9999999999999</ele><time>2026-05-01T14:17:50.732Z</time></trkpt><trkpt lat="38.1068271" lon="14.9165609"><ele>1003.9999999999999</ele><time>2026-05-01T14:17:51.733Z</time></trkpt><trkpt lat="38.1069134" lon="14.9164597"><ele>1005.0</ele><time>2026-05-01T14:17:53.733Z</time></trkpt><trkpt lat="38.1070269" lon="14.9163661"><ele>1006.0</ele><time>2026-05-01T14:17:55.732Z</time></trkpt><trkpt lat="38.1071007" lon="14.9163192"><ele>1006.0</ele><time>2026-05-01T14:17:56.733Z</time></trkpt><trkpt lat="38.1071847" lon="14.916272"><ele>1005.9999999999999</ele><time>2026-05-01T14:17:57.733Z</time></trkpt><trkpt lat="38.1072732" lon="14.9162298"><ele>1005.9999999999999</ele><time>2026-05-01T14:17:58.733Z</time></trkpt><trkpt lat="38.1073643" lon="14.9161961"><ele>1006.0</ele><time>2026-05-01T14:17:59.733Z</time></trkpt><trkpt lat="38.1074617" lon="14.9161635"><ele>1006.0</ele><time>2026-05-01T14:18:00.733Z</time></trkpt><trkpt lat="38.107564" lon="14.9161111"><ele>1004.8</ele><time>2026-05-01T14:18:01.733Z</time></trkpt><trkpt lat="38.1076484" lon="14.9160513"><ele>1003.5999999999999</ele><time>2026-05-01T14:18:02.733Z</time></trkpt><trkpt lat="38.1077177" lon="14.916007"><ele>1002.4</ele><time>2026-05-01T14:18:03.733Z</time></trkpt><trkpt lat="38.1078272" lon="14.9159785"><ele>1001.2</ele><time>2026-05-01T14:18:05.732Z</time></trkpt><trkpt lat="38.1079333" lon="14.9160146"><ele>1000.0</ele><time>2026-05-01T14:18:07.733Z</time></trkpt><trkpt lat="38.1079975" lon="14.9160351"><ele>999.9999999999999</ele><time>2026-05-01T14:18:08.733Z</time></trkpt><trkpt lat="38.1080748" lon="14.9160545"><ele>1000.0</ele><time>2026-05-01T14:18:09.733Z</time></trkpt><trkpt lat="38.1081569" lon="14.9160689"><ele>1000.0</ele><time>2026-05-01T14:18:10.733Z</time></trkpt><trkpt lat="38.1082486" lon="14.9160707"><ele>1000.0</ele><time>2026-05-01T14:18:11.733Z</time></trkpt><trkpt lat="38.1083441" lon="14.9160632"><ele>999.9999999999999</ele><time>2026-05-01T14:18:12.733Z</time></trkpt><trkpt lat="38.1084343" lon="14.9160616"><ele>1000.0</ele><time>2026-05-01T14:18:13.733Z</time></trkpt><trkpt lat="38.1085165" lon="14.9160828"><ele>996.6666666666666</ele><time>2026-05-01T14:18:14.733Z</time></trkpt><trkpt lat="38.1085901" lon="14.9161192"><ele>993.3333333333333</ele><time>2026-05-01T14:18:15.733Z</time></trkpt><trkpt lat="38.1086644" lon="14.9161648"><ele>990.0</ele><time>2026-05-01T14:18:16.733Z</time></trkpt><trkpt lat="38.1087584" lon="14.9161999"><ele>986.6666666666667</ele><time>2026-05-01T14:18:17.733Z</time></trkpt><trkpt lat="38.1088541" lon="14.9162209"><ele>983.3333333333334</ele><time>2026-05-01T14:18:18.733Z</time></trkpt><trkpt lat="38.108935" lon="14.916225"><ele>980.0</ele><time>2026-05-01T14:18:19.733Z</time></trkpt><trkpt lat="38.1090133" lon="14.9162183"><ele>980.0000000000001</ele><time>2026-05-01T14:18:20.733Z</time></trkpt><trkpt lat="38.1090883" lon="14.9162083"><ele>980.0</ele><time>2026-05-01T14:18:21.733Z</time></trkpt><trkpt lat="38.1091833" lon="14.9162"><ele>980.0</ele><time>2026-05-01T14:18:23.733Z</time></trkpt><trkpt lat="38.1091867" lon="14.91629"><ele>980.0</ele><time>2026-05-01T14:18:28.733Z</time></trkpt><trkpt lat="38.1091183" lon="14.916325"><ele>980.0000000000001</ele><time>2026-05-01T14:18:30.733Z</time></trkpt><trkpt lat="38.109055" lon="14.9163617"><ele>980.0</ele><time>2026-05-01T14:18:32.733Z</time></trkpt><trkpt lat="38.1089883" lon="14.9164067"><ele>980.0000000000001</ele><time>2026-05-01T14:18:34.733Z</time></trkpt><trkpt lat="38.1089317" lon="14.9164483"><ele>980.0</ele><time>2026-05-01T14:18:36.733Z</time></trkpt><trkpt lat="38.1088617" lon="14.9164767"><ele>980.0</ele><time>2026-05-01T14:18:52.733Z</time></trkpt><trkpt lat="38.1087983" lon="14.9164483"><ele>980.0</ele><time>2026-05-01T14:18:54.733Z</time></trkpt><trkpt lat="38.1086633" lon="14.9164067"><ele>980.0000000000001</ele><time>2026-05-01T14:18:56.733Z</time></trkpt><trkpt lat="38.1085633" lon="14.91638"><ele>980.0</ele><time>2026-05-01T14:18:57.733Z</time></trkpt><trkpt lat="38.108455" lon="14.91636"><ele>980.0</ele><time>2026-05-01T14:18:58.733Z</time></trkpt><trkpt lat="38.1083633" lon="14.916355"><ele>980.0</ele><time>2026-05-01T14:18:59.733Z</time></trkpt><trkpt lat="38.1082733" lon="14.9163817"><ele>980.0</ele><time>2026-05-01T14:19:00.732Z</time></trkpt><trkpt lat="38.10819" lon="14.91644"><ele>980.0</ele><time>2026-05-01T14:19:01.733Z</time></trkpt><trkpt lat="38.1081283" lon="14.9165283"><ele>980.0</ele><time>2026-05-01T14:19:02.732Z</time></trkpt><trkpt lat="38.1080883" lon="14.9166233"><ele>978.5000000000001</ele><time>2026-05-01T14:19:03.733Z</time></trkpt><trkpt lat="38.1080667" lon="14.9167083"><ele>977.0</ele><time>2026-05-01T14:19:05.733Z</time></trkpt><trkpt lat="38.10809" lon="14.9166267"><ele>975.5</ele><time>2026-05-01T14:19:15.733Z</time></trkpt><trkpt lat="38.10804" lon="14.91668"><ele>974.0</ele><time>2026-05-01T14:19:17.733Z</time></trkpt><trkpt lat="38.1079167" lon="14.9167433"><ele>972.5000000000001</ele><time>2026-05-01T14:19:19.733Z</time></trkpt><trkpt lat="38.1078467" lon="14.9167467"><ele>971.0</ele><time>2026-05-01T14:19:20.733Z</time></trkpt><trkpt lat="38.1077717" lon="14.91675"><ele>971.0000000000001</ele><time>2026-05-01T14:19:21.732Z</time></trkpt><trkpt lat="38.1077083" lon="14.9167667"><ele>971.0</ele><time>2026-05-01T14:19:22.732Z</time></trkpt><trkpt lat="38.1076567" lon="14.9168183"><ele>971.0</ele><time>2026-05-01T14:19:23.733Z</time></trkpt><trkpt lat="38.1076083" lon="14.916885"><ele>971.0</ele><time>2026-05-01T14:19:24.733Z</time></trkpt><trkpt lat="38.1075667" lon="14.9169867"><ele>971.0000000000001</ele><time>2026-05-01T14:19:25.733Z</time></trkpt><trkpt lat="38.1075217" lon="14.9171083"><ele>971.0</ele><time>2026-05-01T14:19:26.733Z</time></trkpt><trkpt lat="38.1074683" lon="14.91723"><ele>971.0000000000001</ele><time>2026-05-01T14:19:27.733Z</time></trkpt><trkpt lat="38.1074333" lon="14.9173333"><ele>971.0</ele><time>2026-05-01T14:19:28.733Z</time></trkpt><trkpt lat="38.1073983" lon="14.9174217"><ele>971.0</ele><time>2026-05-01T14:19:29.733Z</time></trkpt><trkpt lat="38.107375" lon="14.9175033"><ele>971.0</ele><time>2026-05-01T14:19:30.733Z</time></trkpt><trkpt lat="38.10734" lon="14.9175783"><ele>971.0000000000001</ele><time>2026-05-01T14:19:31.733Z</time></trkpt><trkpt lat="38.1072883" lon="14.9176433"><ele>971.0</ele><time>2026-05-01T14:19:32.733Z</time></trkpt><trkpt lat="38.1072217" lon="14.917685"><ele>967.6666666666667</ele><time>2026-05-01T14:19:33.733Z</time></trkpt><trkpt lat="38.10715" lon="14.9176917"><ele>964.3333333333334</ele><time>2026-05-01T14:19:34.733Z</time></trkpt><trkpt lat="38.10708" lon="14.9176867"><ele>961.0</ele><time>2026-05-01T14:19:35.733Z</time></trkpt><trkpt lat="38.10701" lon="14.91767"><ele>957.6666666666667</ele><time>2026-05-01T14:19:36.733Z</time></trkpt><trkpt lat="38.1069267" lon="14.91766"><ele>954.3333333333334</ele><time>2026-05-01T14:19:37.733Z</time></trkpt><trkpt lat="38.1068367" lon="14.9176567"><ele>951.0</ele><time>2026-05-01T14:19:38.733Z</time></trkpt><trkpt lat="38.10674" lon="14.91765"><ele>951.0</ele><time>2026-05-01T14:19:39.733Z</time></trkpt><trkpt lat="38.1066433" lon="14.9176583"><ele>950.9999999999999</ele><time>2026-05-01T14:19:40.733Z</time></trkpt><trkpt lat="38.106545" lon="14.9176683"><ele>950.9999999999999</ele><time>2026-05-01T14:19:41.733Z</time></trkpt><trkpt lat="38.10645" lon="14.9176633"><ele>951.0</ele><time>2026-05-01T14:19:42.733Z</time></trkpt><trkpt lat="38.1063633" lon="14.9176567"><ele>951.0</ele><time>2026-05-01T14:19:43.732Z</time></trkpt><trkpt lat="38.1062817" lon="14.9176633"><ele>955.6666666666666</ele><time>2026-05-01T14:19:44.733Z</time></trkpt><trkpt lat="38.1061967" lon="14.9176983"><ele>960.3333333333333</ele><time>2026-05-01T14:19:45.733Z</time></trkpt><trkpt lat="38.1061217" lon="14.9177417"><ele>965.0</ele><time>2026-05-01T14:19:46.732Z</time></trkpt><trkpt lat="38.106055" lon="14.9177883"><ele>969.6666666666666</ele><time>2026-05-01T14:19:47.733Z</time></trkpt><trkpt lat="38.1060067" lon="14.917845"><ele>974.3333333333333</ele><time>2026-05-01T14:19:48.733Z</time></trkpt><trkpt lat="38.1059717" lon="14.91793"><ele>979.0</ele><time>2026-05-01T14:19:49.733Z</time></trkpt><trkpt lat="38.1059517" lon="14.9180267"><ele>978.9999999999999</ele><time>2026-05-01T14:19:50.733Z</time></trkpt><trkpt lat="38.1059267" lon="14.9181267"><ele>979.0</ele><time>2026-05-01T14:19:51.733Z</time></trkpt><trkpt lat="38.1059017" lon="14.918225"><ele>979.0</ele><time>2026-05-01T14:19:52.733Z</time></trkpt><trkpt lat="38.1058833" lon="14.9183317"><ele>979.0</ele><time>2026-05-01T14:19:53.733Z</time></trkpt><trkpt lat="38.105855" lon="14.9184283"><ele>978.9999999999999</ele><time>2026-05-01T14:19:54.733Z</time></trkpt><trkpt lat="38.1058317" lon="14.9185117"><ele>979.0</ele><time>2026-05-01T14:19:55.733Z</time></trkpt><trkpt lat="38.105795" lon="14.91864"><ele>977.8333333333333</ele><time>2026-05-01T14:19:57.733Z</time></trkpt><trkpt lat="38.1057683" lon="14.9187717"><ele>976.6666666666666</ele><time>2026-05-01T14:19:59.732Z</time></trkpt><trkpt lat="38.10575" lon="14.9188617"><ele>975.5</ele><time>2026-05-01T14:20:00.733Z</time></trkpt><trkpt lat="38.10574" lon="14.91896"><ele>974.3333333333333</ele><time>2026-05-01T14:20:01.733Z</time></trkpt><trkpt lat="38.1057383" lon="14.9190667"><ele>973.1666666666666</ele><time>2026-05-01T14:20:02.733Z</time></trkpt><trkpt lat="38.1057533" lon="14.9191583"><ele>972.0</ele><time>2026-05-01T14:20:03.732Z</time></trkpt><trkpt lat="38.1057833" lon="14.9192383"><ele>972.0</ele><time>2026-05-01T14:20:04.733Z</time></trkpt><trkpt lat="38.10583" lon="14.919305"><ele>972.0</ele><time>2026-05-01T14:20:05.733Z</time></trkpt><trkpt lat="38.105895" lon="14.91937"><ele>972.0</ele><time>2026-05-01T14:20:06.733Z</time></trkpt><trkpt lat="38.105965" lon="14.9194267"><ele>972.0</ele><time>2026-05-01T14:20:07.733Z</time></trkpt><trkpt lat="38.106025" lon="14.9194667"><ele>972.0</ele><time>2026-05-01T14:20:08.733Z</time></trkpt><trkpt lat="38.1060817" lon="14.9195167"><ele>972.0</ele><time>2026-05-01T14:20:09.732Z</time></trkpt><trkpt lat="38.10614" lon="14.9195633"><ele>972.0</ele><time>2026-05-01T14:20:10.733Z</time></trkpt><trkpt lat="38.1062" lon="14.919615"><ele>972.0</ele><time>2026-05-01T14:20:11.733Z</time></trkpt><trkpt lat="38.1062533" lon="14.9196733"><ele>972.0</ele><time>2026-05-01T14:20:12.733Z</time></trkpt><trkpt lat="38.106305" lon="14.9197433"><ele>972.0</ele><time>2026-05-01T14:20:13.733Z</time></trkpt><trkpt lat="38.1063517" lon="14.9198117"><ele>972.0</ele><time>2026-05-01T14:20:14.733Z</time></trkpt><trkpt lat="38.1063983" lon="14.919885"><ele>972.0</ele><time>2026-05-01T14:20:15.733Z</time></trkpt><trkpt lat="38.10644" lon="14.9199617"><ele>972.0</ele><time>2026-05-01T14:20:16.733Z</time></trkpt><trkpt lat="38.1064817" lon="14.9200367"><ele>972.0</ele><time>2026-05-01T14:20:17.733Z</time></trkpt><trkpt lat="38.1065267" lon="14.9201183"><ele>968.1666666666666</ele><time>2026-05-01T14:20:18.733Z</time></trkpt><trkpt lat="38.1065717" lon="14.9201917"><ele>964.3333333333333</ele><time>2026-05-01T14:20:19.732Z</time></trkpt><trkpt lat="38.1066183" lon="14.9202583"><ele>960.5</ele><time>2026-05-01T14:20:20.733Z</time></trkpt><trkpt lat="38.1066733" lon="14.9203267"><ele>956.6666666666666</ele><time>2026-05-01T14:20:21.733Z</time></trkpt><trkpt lat="38.1067183" lon="14.9203917"><ele>952.8333333333333</ele><time>2026-05-01T14:20:22.733Z</time></trkpt><trkpt lat="38.106785" lon="14.920525"><ele>949.0</ele><time>2026-05-01T14:20:24.733Z</time></trkpt><trkpt lat="38.1068167" lon="14.9206033"><ele>947.8333333333333</ele><time>2026-05-01T14:20:25.733Z</time></trkpt><trkpt lat="38.1068433" lon="14.9206883"><ele>946.6666666666666</ele><time>2026-05-01T14:20:26.733Z</time></trkpt><trkpt lat="38.1068667" lon="14.9207767"><ele>945.5</ele><time>2026-05-01T14:20:27.733Z</time></trkpt><trkpt lat="38.1068817" lon="14.9208717"><ele>944.3333333333333</ele><time>2026-05-01T14:20:28.733Z</time></trkpt><trkpt lat="38.1069" lon="14.9209667"><ele>943.1666666666666</ele><time>2026-05-01T14:20:29.733Z</time></trkpt><trkpt lat="38.1069117" lon="14.921065"><ele>942.0</ele><time>2026-05-01T14:20:30.733Z</time></trkpt><trkpt lat="38.10692" lon="14.92116"><ele>937.0</ele><time>2026-05-01T14:20:31.733Z</time></trkpt><trkpt lat="38.1069267" lon="14.9212417"><ele>932.0</ele><time>2026-05-01T14:20:32.733Z</time></trkpt><trkpt lat="38.1069267" lon="14.9213733"><ele>927.0</ele><time>2026-05-01T14:20:34.733Z</time></trkpt><trkpt lat="38.1069133" lon="14.9214833"><ele>922.0</ele><time>2026-05-01T14:20:36.733Z</time></trkpt><trkpt lat="38.1069767" lon="14.92152"><ele>917.0</ele><time>2026-05-01T14:20:39.733Z</time></trkpt><trkpt lat="38.10702" lon="14.9214267"><ele>912.0</ele><time>2026-05-01T14:20:41.733Z</time></trkpt><trkpt lat="38.1070483" lon="14.921355"><ele>912.0</ele><time>2026-05-01T14:20:42.733Z</time></trkpt><trkpt lat="38.10707" lon="14.92122"><ele>912.0</ele><time>2026-05-01T14:20:44.733Z</time></trkpt><trkpt lat="38.107075" lon="14.92109"><ele>912.0</ele><time>2026-05-01T14:20:46.733Z</time></trkpt><trkpt lat="38.1070917" lon="14.9209617"><ele>912.0</ele><time>2026-05-01T14:20:48.733Z</time></trkpt><trkpt lat="38.1070983" lon="14.9208417"><ele>912.0</ele><time>2026-05-01T14:20:50.733Z</time></trkpt><trkpt lat="38.10711" lon="14.9207467"><ele>917.0</ele><time>2026-05-01T14:20:52.733Z</time></trkpt><trkpt lat="38.1071233" lon="14.9206317"><ele>922.0</ele><time>2026-05-01T14:20:55.733Z</time></trkpt><trkpt lat="38.1071317" lon="14.920545"><ele>927.0</ele><time>2026-05-01T14:20:57.733Z</time></trkpt><trkpt lat="38.1071183" lon="14.920405"><ele>932.0</ele><time>2026-05-01T14:20:59.733Z</time></trkpt><trkpt lat="38.1070967" lon="14.9203"><ele>937.0</ele><time>2026-05-01T14:21:00.732Z</time></trkpt><trkpt lat="38.10708" lon="14.92021"><ele>942.0</ele><time>2026-05-01T14:21:01.733Z</time></trkpt><trkpt lat="38.10706" lon="14.92012"><ele>940.6666666666666</ele><time>2026-05-01T14:21:02.732Z</time></trkpt><trkpt lat="38.1070433" lon="14.9200367"><ele>939.3333333333333</ele><time>2026-05-01T14:21:03.733Z</time></trkpt><trkpt lat="38.10699" lon="14.9198917"><ele>938.0</ele><time>2026-05-01T14:21:05.733Z</time></trkpt><trkpt lat="38.10694" lon="14.9197867"><ele>936.6666666666666</ele><time>2026-05-01T14:21:07.733Z</time></trkpt><trkpt lat="38.1070267" lon="14.9197733"><ele>935.3333333333333</ele><time>2026-05-01T14:21:11.733Z</time></trkpt><trkpt lat="38.1070633" lon="14.9198483"><ele>934.0</ele><time>2026-05-01T14:21:12.733Z</time></trkpt><trkpt lat="38.1071" lon="14.919955"><ele>933.9999999999999</ele><time>2026-05-01T14:21:13.732Z</time></trkpt><trkpt lat="38.1071433" lon="14.92006"><ele>934.0</ele><time>2026-05-01T14:21:14.733Z</time></trkpt><trkpt lat="38.1071917" lon="14.92016"><ele>934.0</ele><time>2026-05-01T14:21:15.733Z</time></trkpt><trkpt lat="38.1072467" lon="14.9202483"><ele>934.0</ele><time>2026-05-01T14:21:16.732Z</time></trkpt><trkpt lat="38.1073067" lon="14.9203217"><ele>933.9999999999999</ele><time>2026-05-01T14:21:17.732Z</time></trkpt><trkpt lat="38.1073583" lon="14.920385"><ele>934.0</ele><time>2026-05-01T14:21:18.733Z</time></trkpt><trkpt lat="38.1073933" lon="14.9204583"><ele>925.4000000000001</ele><time>2026-05-01T14:21:19.733Z</time></trkpt><trkpt lat="38.1074217" lon="14.920545"><ele>916.8000000000001</ele><time>2026-05-01T14:21:20.733Z</time></trkpt><trkpt lat="38.10745" lon="14.9206467"><ele>908.1999999999999</ele><time>2026-05-01T14:21:21.733Z</time></trkpt><trkpt lat="38.1074883" lon="14.9207733"><ele>899.5999999999999</ele><time>2026-05-01T14:21:22.733Z</time></trkpt><trkpt lat="38.10753" lon="14.920945"><ele>891.0</ele><time>2026-05-01T14:21:23.733Z</time></trkpt><trkpt lat="38.1075683" lon="14.9211367"><ele>890.5</ele><time>2026-05-01T14:21:24.733Z</time></trkpt><trkpt lat="38.107585" lon="14.92132"><ele>890.0</ele><time>2026-05-01T14:21:25.733Z</time></trkpt><trkpt lat="38.1075883" lon="14.92151"><ele>889.5</ele><time>2026-05-01T14:21:26.733Z</time></trkpt><trkpt lat="38.1075767" lon="14.9216833"><ele>889.0</ele><time>2026-05-01T14:21:27.732Z</time></trkpt><trkpt lat="38.1075667" lon="14.92183"><ele>884.8000000000001</ele><time>2026-05-01T14:21:28.733Z</time></trkpt><trkpt lat="38.107545" lon="14.9219483"><ele>880.6000000000001</ele><time>2026-05-01T14:21:29.733Z</time></trkpt><trkpt lat="38.1075" lon="14.9220683"><ele>876.4</ele><time>2026-05-01T14:21:30.733Z</time></trkpt><trkpt lat="38.1074467" lon="14.922165"><ele>872.2</ele><time>2026-05-01T14:21:31.733Z</time></trkpt><trkpt lat="38.10739" lon="14.9222267"><ele>868.0</ele><time>2026-05-01T14:21:32.733Z</time></trkpt><trkpt lat="38.1073133" lon="14.9222667"><ele>868.0</ele><time>2026-05-01T14:21:33.733Z</time></trkpt><trkpt lat="38.1072183" lon="14.9222817"><ele>868.0</ele><time>2026-05-01T14:21:34.733Z</time></trkpt><trkpt lat="38.10712" lon="14.92227"><ele>868.0</ele><time>2026-05-01T14:21:35.733Z</time></trkpt><trkpt lat="38.107005" lon="14.9222317"><ele>868.0</ele><time>2026-05-01T14:21:36.733Z</time></trkpt><trkpt lat="38.1068867" lon="14.9221867"><ele>868.0</ele><time>2026-05-01T14:21:37.733Z</time></trkpt><trkpt lat="38.1067583" lon="14.9221683"><ele>868.0</ele><time>2026-05-01T14:21:38.733Z</time></trkpt><trkpt lat="38.106645" lon="14.9221667"><ele>868.0</ele><time>2026-05-01T14:21:39.733Z</time></trkpt><trkpt lat="38.1065433" lon="14.9221817"><ele>868.0</ele><time>2026-05-01T14:21:40.732Z</time></trkpt><trkpt lat="38.1064483" lon="14.9222117"><ele>868.0</ele><time>2026-05-01T14:21:41.733Z</time></trkpt><trkpt lat="38.1063567" lon="14.9222583"><ele>868.0</ele><time>2026-05-01T14:21:42.732Z</time></trkpt><trkpt lat="38.1062833" lon="14.922315"><ele>867.9999999999999</ele><time>2026-05-01T14:21:43.733Z</time></trkpt><trkpt lat="38.1062183" lon="14.9223767"><ele>868.0</ele><time>2026-05-01T14:21:44.733Z</time></trkpt><trkpt lat="38.1061433" lon="14.9224383"><ele>868.0</ele><time>2026-05-01T14:21:45.734Z</time></trkpt><trkpt lat="38.1060667" lon="14.9224817"><ele>868.0</ele><time>2026-05-01T14:21:46.734Z</time></trkpt><trkpt lat="38.1059817" lon="14.92249"><ele>867.9999999999999</ele><time>2026-05-01T14:21:47.734Z</time></trkpt><trkpt lat="38.10589" lon="14.92247"><ele>868.0</ele><time>2026-05-01T14:21:48.734Z</time></trkpt><trkpt lat="38.105795" lon="14.9224217"><ele>872.5999999999999</ele><time>2026-05-01T14:21:49.734Z</time></trkpt><trkpt lat="38.1057017" lon="14.9223583"><ele>877.1999999999999</ele><time>2026-05-01T14:21:50.734Z</time></trkpt><trkpt lat="38.1056233" lon="14.9222883"><ele>881.8</ele><time>2026-05-01T14:21:51.734Z</time></trkpt><trkpt lat="38.1055483" lon="14.92221"><ele>886.4</ele><time>2026-05-01T14:21:52.734Z</time></trkpt><trkpt lat="38.1054867" lon="14.9221367"><ele>891.0</ele><time>2026-05-01T14:21:53.734Z</time></trkpt><trkpt lat="38.10543" lon="14.9220767"><ele>891.0</ele><time>2026-05-01T14:21:54.734Z</time></trkpt><trkpt lat="38.105365" lon="14.9220333"><ele>890.9999999999999</ele><time>2026-05-01T14:21:55.734Z</time></trkpt><trkpt lat="38.1052983" lon="14.9220267"><ele>890.9999999999999</ele><time>2026-05-01T14:21:56.734Z</time></trkpt><trkpt lat="38.1051983" lon="14.9220967"><ele>891.0</ele><time>2026-05-01T14:21:58.733Z</time></trkpt><trkpt lat="38.1051783" lon="14.9222617"><ele>891.0</ele><time>2026-05-01T14:22:00.734Z</time></trkpt><trkpt lat="38.1052167" lon="14.922385"><ele>891.0</ele><time>2026-05-01T14:22:01.734Z</time></trkpt><trkpt lat="38.1052667" lon="14.9225433"><ele>891.0</ele><time>2026-05-01T14:22:02.733Z</time></trkpt><trkpt lat="38.1053233" lon="14.9227483"><ele>891.0</ele><time>2026-05-01T14:22:03.734Z</time></trkpt><trkpt lat="38.1053667" lon="14.9229417"><ele>894.75</ele><time>2026-05-01T14:22:04.734Z</time></trkpt><trkpt lat="38.1054033" lon="14.9231083"><ele>898.5</ele><time>2026-05-01T14:22:05.734Z</time></trkpt><trkpt lat="38.1054483" lon="14.923285"><ele>902.25</ele><time>2026-05-01T14:22:06.734Z</time></trkpt><trkpt lat="38.1055017" lon="14.923435"><ele>906.0</ele><time>2026-05-01T14:22:07.734Z</time></trkpt><trkpt lat="38.105535" lon="14.9235683"><ele>906.1999999999999</ele><time>2026-05-01T14:22:08.734Z</time></trkpt><trkpt lat="38.1055383" lon="14.923675"><ele>906.3999999999999</ele><time>2026-05-01T14:22:09.734Z</time></trkpt><trkpt lat="38.1055267" lon="14.9238067"><ele>906.6</ele><time>2026-05-01T14:22:10.734Z</time></trkpt><trkpt lat="38.1054967" lon="14.9239383"><ele>906.8</ele><time>2026-05-01T14:22:11.734Z</time></trkpt><trkpt lat="38.1054533" lon="14.9240917"><ele>907.0</ele><time>2026-05-01T14:22:12.734Z</time></trkpt><trkpt lat="38.1054033" lon="14.92425"><ele>901.75</ele><time>2026-05-01T14:22:13.734Z</time></trkpt><trkpt lat="38.1053667" lon="14.92441"><ele>896.5</ele><time>2026-05-01T14:22:14.734Z</time></trkpt><trkpt lat="38.1053367" lon="14.9245417"><ele>891.25</ele><time>2026-05-01T14:22:15.734Z</time></trkpt><trkpt lat="38.1052833" lon="14.9246467"><ele>886.0</ele><time>2026-05-01T14:22:16.734Z</time></trkpt><trkpt lat="38.1052083" lon="14.92476"><ele>886.0</ele><time>2026-05-01T14:22:17.734Z</time></trkpt><trkpt lat="38.1051217" lon="14.924885"><ele>886.0</ele><time>2026-05-01T14:22:18.734Z</time></trkpt><trkpt lat="38.1050383" lon="14.9250067"><ele>886.0</ele><time>2026-05-01T14:22:19.734Z</time></trkpt><trkpt lat="38.10498" lon="14.9251483"><ele>886.0</ele><time>2026-05-01T14:22:20.734Z</time></trkpt><trkpt lat="38.10492" lon="14.9253117"><ele>885.8</ele><time>2026-05-01T14:22:21.734Z</time></trkpt><trkpt lat="38.1048683" lon="14.92547"><ele>885.5999999999999</ele><time>2026-05-01T14:22:22.734Z</time></trkpt><trkpt lat="38.10483" lon="14.925605"><ele>885.4</ele><time>2026-05-01T14:22:23.734Z</time></trkpt><trkpt lat="38.1047983" lon="14.925735"><ele>885.2</ele><time>2026-05-01T14:22:24.734Z</time></trkpt><trkpt lat="38.10477" lon="14.9258383"><ele>885.0</ele><time>2026-05-01T14:22:25.734Z</time></trkpt><trkpt lat="38.10475" lon="14.9259283"><ele>884.5</ele><time>2026-05-01T14:22:26.734Z</time></trkpt><trkpt lat="38.1047467" lon="14.9260533"><ele>884.0</ele><time>2026-05-01T14:22:28.734Z</time></trkpt><trkpt lat="38.1047733" lon="14.9261467"><ele>883.5</ele><time>2026-05-01T14:22:30.734Z</time></trkpt><trkpt lat="38.1048267" lon="14.926195"><ele>883.0</ele><time>2026-05-01T14:22:32.734Z</time></trkpt><trkpt lat="38.1049" lon="14.9262183"><ele>882.5</ele><time>2026-05-01T14:22:34.734Z</time></trkpt><trkpt lat="38.104985" lon="14.92622"><ele>882.0</ele><time>2026-05-01T14:22:36.734Z</time></trkpt><trkpt lat="38.1050567" lon="14.9262183"><ele>882.0</ele><time>2026-05-01T14:22:38.734Z</time></trkpt><trkpt lat="38.105155" lon="14.9262133"><ele>882.0</ele><time>2026-05-01T14:22:47.734Z</time></trkpt><trkpt lat="38.1052433" lon="14.9262183"><ele>882.0</ele><time>2026-05-01T14:22:49.734Z</time></trkpt><trkpt lat="38.105325" lon="14.9262267"><ele>882.0</ele><time>2026-05-01T14:22:51.734Z</time></trkpt><trkpt lat="38.105425" lon="14.9262683"><ele>882.0</ele><time>2026-05-01T14:22:53.734Z</time></trkpt><trkpt lat="38.105515" lon="14.926355"><ele>882.0</ele><time>2026-05-01T14:22:55.734Z</time></trkpt><trkpt lat="38.10556" lon="14.9264417"><ele>882.0</ele><time>2026-05-01T14:22:56.734Z</time></trkpt><trkpt lat="38.1056033" lon="14.926545"><ele>882.0</ele><time>2026-05-01T14:22:57.734Z</time></trkpt><trkpt lat="38.1056633" lon="14.92663"><ele>882.0</ele><time>2026-05-01T14:22:58.734Z</time></trkpt><trkpt lat="38.1057217" lon="14.9266967"><ele>882.0</ele><time>2026-05-01T14:22:59.734Z</time></trkpt><trkpt lat="38.1057583" lon="14.926775"><ele>882.0</ele><time>2026-05-01T14:23:00.734Z</time></trkpt><trkpt lat="38.10577" lon="14.9268667"><ele>883.6666666666666</ele><time>2026-05-01T14:23:01.734Z</time></trkpt><trkpt lat="38.10576" lon="14.926965"><ele>885.3333333333333</ele><time>2026-05-01T14:23:02.734Z</time></trkpt><trkpt lat="38.10573" lon="14.9270767"><ele>887.0</ele><time>2026-05-01T14:23:03.734Z</time></trkpt><trkpt lat="38.1057017" lon="14.9271817"><ele>888.6666666666666</ele><time>2026-05-01T14:23:04.733Z</time></trkpt><trkpt lat="38.1056883" lon="14.9272817"><ele>890.3333333333333</ele><time>2026-05-01T14:23:05.734Z</time></trkpt><trkpt lat="38.1056917" lon="14.92739"><ele>892.0</ele><time>2026-05-01T14:23:06.734Z</time></trkpt><trkpt lat="38.105715" lon="14.92751"><ele>887.5</ele><time>2026-05-01T14:23:07.734Z</time></trkpt><trkpt lat="38.105765" lon="14.9276367"><ele>883.0</ele><time>2026-05-01T14:23:08.734Z</time></trkpt><trkpt lat="38.1058467" lon="14.9277783"><ele>878.5</ele><time>2026-05-01T14:23:09.734Z</time></trkpt><trkpt lat="38.1059367" lon="14.9279117"><ele>874.0</ele><time>2026-05-01T14:23:10.734Z</time></trkpt><trkpt lat="38.1060333" lon="14.9280383"><ele>874.0</ele><time>2026-05-01T14:23:11.734Z</time></trkpt><trkpt lat="38.106135" lon="14.9281567"><ele>874.0</ele><time>2026-05-01T14:23:12.734Z</time></trkpt><trkpt lat="38.1062317" lon="14.9282933"><ele>874.0</ele><time>2026-05-01T14:23:13.734Z</time></trkpt><trkpt lat="38.1063333" lon="14.9284167"><ele>874.0</ele><time>2026-05-01T14:23:14.734Z</time></trkpt><trkpt lat="38.1064433" lon="14.9285183"><ele>871.25</ele><time>2026-05-01T14:23:15.734Z</time></trkpt><trkpt lat="38.10653" lon="14.928615"><ele>868.5</ele><time>2026-05-01T14:23:16.734Z</time></trkpt><trkpt lat="38.106585" lon="14.9287333"><ele>865.75</ele><time>2026-05-01T14:23:17.733Z</time></trkpt><trkpt lat="38.1066267" lon="14.9288783"><ele>863.0</ele><time>2026-05-01T14:23:18.734Z</time></trkpt><trkpt lat="38.1066733" lon="14.92901"><ele>863.0</ele><time>2026-05-01T14:23:19.734Z</time></trkpt><trkpt lat="38.1067417" lon="14.9291117"><ele>863.0</ele><time>2026-05-01T14:23:20.734Z</time></trkpt><trkpt lat="38.1068267" lon="14.9291783"><ele>863.0</ele><time>2026-05-01T14:23:21.734Z</time></trkpt><trkpt lat="38.1069133" lon="14.9292467"><ele>863.0</ele><time>2026-05-01T14:23:22.733Z</time></trkpt><trkpt lat="38.1069783" lon="14.9293333"><ele>863.0</ele><time>2026-05-01T14:23:23.734Z</time></trkpt><trkpt lat="38.107025" lon="14.9294483"><ele>866.8</ele><time>2026-05-01T14:23:24.734Z</time></trkpt><trkpt lat="38.1070483" lon="14.929575"><ele>870.5999999999999</ele><time>2026-05-01T14:23:25.734Z</time></trkpt><trkpt lat="38.1070433" lon="14.9297"><ele>874.4000000000001</ele><time>2026-05-01T14:23:26.734Z</time></trkpt><trkpt lat="38.1069967" lon="14.92982"><ele>878.2</ele><time>2026-05-01T14:23:27.734Z</time></trkpt><trkpt lat="38.106965" lon="14.9299283"><ele>882.0</ele><time>2026-05-01T14:23:28.734Z</time></trkpt><trkpt lat="38.106965" lon="14.930025"><ele>885.5</ele><time>2026-05-01T14:23:29.734Z</time></trkpt><trkpt lat="38.1069767" lon="14.93012"><ele>889.0</ele><time>2026-05-01T14:23:30.733Z</time></trkpt><trkpt lat="38.1069783" lon="14.9302083"><ele>892.5</ele><time>2026-05-01T14:23:31.734Z</time></trkpt><trkpt lat="38.1069867" lon="14.9302917"><ele>896.0</ele><time>2026-05-01T14:23:32.734Z</time></trkpt><trkpt lat="38.1070467" lon="14.9303917"><ele>899.5</ele><time>2026-05-01T14:23:34.734Z</time></trkpt><trkpt lat="38.1071533" lon="14.93037"><ele>903.0</ele><time>2026-05-01T14:23:36.734Z</time></trkpt><trkpt lat="38.107205" lon="14.9303233"><ele>903.0</ele><time>2026-05-01T14:23:37.734Z</time></trkpt><trkpt lat="38.107255" lon="14.9302517"><ele>903.0</ele><time>2026-05-01T14:23:38.734Z</time></trkpt><trkpt lat="38.1073183" lon="14.9301417"><ele>903.0</ele><time>2026-05-01T14:23:40.734Z</time></trkpt><trkpt lat="38.1073867" lon="14.9301033"><ele>903.0</ele><time>2026-05-01T14:23:42.734Z</time></trkpt><trkpt lat="38.1074567" lon="14.93012"><ele>903.0</ele><time>2026-05-01T14:23:44.734Z</time></trkpt><trkpt lat="38.1075483" lon="14.9302267"><ele>900.8</ele><time>2026-05-01T14:23:46.734Z</time></trkpt><trkpt lat="38.1076117" lon="14.9302983"><ele>898.5999999999999</ele><time>2026-05-01T14:23:47.734Z</time></trkpt><trkpt lat="38.1076967" lon="14.9303783"><ele>896.4000000000001</ele><time>2026-05-01T14:23:48.734Z</time></trkpt><trkpt lat="38.1078033" lon="14.9304617"><ele>894.2</ele><time>2026-05-01T14:23:49.734Z</time></trkpt><trkpt lat="38.1079117" lon="14.93054"><ele>892.0</ele><time>2026-05-01T14:23:50.734Z</time></trkpt><trkpt lat="38.10803" lon="14.9306033"><ele>892.0</ele><time>2026-05-01T14:23:51.734Z</time></trkpt><trkpt lat="38.1081583" lon="14.93065"><ele>892.0</ele><time>2026-05-01T14:23:52.734Z</time></trkpt><trkpt lat="38.10828" lon="14.9307067"><ele>892.0</ele><time>2026-05-01T14:23:53.734Z</time></trkpt><trkpt lat="38.108395" lon="14.9307833"><ele>892.0</ele><time>2026-05-01T14:23:54.734Z</time></trkpt><trkpt lat="38.1085117" lon="14.9308567"><ele>894.2</ele><time>2026-05-01T14:23:55.734Z</time></trkpt><trkpt lat="38.1086333" lon="14.9309233"><ele>896.4000000000001</ele><time>2026-05-01T14:23:56.734Z</time></trkpt><trkpt lat="38.1087583" lon="14.9309667"><ele>898.5999999999999</ele><time>2026-05-01T14:23:57.734Z</time></trkpt><trkpt lat="38.10884" lon="14.9310083"><ele>900.8</ele><time>2026-05-01T14:23:58.734Z</time></trkpt><trkpt lat="38.1088967" lon="14.93106"><ele>903.0</ele><time>2026-05-01T14:23:59.734Z</time></trkpt><trkpt lat="38.108935" lon="14.9312317"><ele>903.0</ele><time>2026-05-01T14:24:01.734Z</time></trkpt><trkpt lat="38.1089183" lon="14.93136"><ele>903.0</ele><time>2026-05-01T14:24:02.734Z</time></trkpt><trkpt lat="38.10891" lon="14.9315033"><ele>903.0</ele><time>2026-05-01T14:24:03.734Z</time></trkpt><trkpt lat="38.108935" lon="14.93165"><ele>903.0</ele><time>2026-05-01T14:24:04.734Z</time></trkpt><trkpt lat="38.1089817" lon="14.9317817"><ele>903.0</ele><time>2026-05-01T14:24:05.734Z</time></trkpt><trkpt lat="38.1090633" lon="14.93189"><ele>903.0</ele><time>2026-05-01T14:24:06.734Z</time></trkpt><trkpt lat="38.1091883" lon="14.93198"><ele>903.0</ele><time>2026-05-01T14:24:07.734Z</time></trkpt><trkpt lat="38.1093217" lon="14.9320767"><ele>903.0</ele><time>2026-05-01T14:24:08.734Z</time></trkpt><trkpt lat="38.1094433" lon="14.932165"><ele>903.0</ele><time>2026-05-01T14:24:09.734Z</time></trkpt><trkpt lat="38.1095617" lon="14.9322383"><ele>903.0</ele><time>2026-05-01T14:24:10.734Z</time></trkpt><trkpt lat="38.10967" lon="14.9323033"><ele>903.0</ele><time>2026-05-01T14:24:11.734Z</time></trkpt><trkpt lat="38.1097783" lon="14.9323667"><ele>903.0</ele><time>2026-05-01T14:24:12.734Z</time></trkpt><trkpt lat="38.1099017" lon="14.9324133"><ele>903.0</ele><time>2026-05-01T14:24:13.734Z</time></trkpt><trkpt lat="38.110005" lon="14.9324817"><ele>906.75</ele><time>2026-05-01T14:24:14.734Z</time></trkpt><trkpt lat="38.1101283" lon="14.9325383"><ele>910.5</ele><time>2026-05-01T14:24:15.734Z</time></trkpt><trkpt lat="38.11027" lon="14.9325817"><ele>914.25</ele><time>2026-05-01T14:24:16.733Z</time></trkpt><trkpt lat="38.1104083" lon="14.93262"><ele>918.0</ele><time>2026-05-01T14:24:17.733Z</time></trkpt><trkpt lat="38.11054" lon="14.9326567"><ele>918.0</ele><time>2026-05-01T14:24:18.734Z</time></trkpt><trkpt lat="38.1106583" lon="14.9326867"><ele>918.0</ele><time>2026-05-01T14:24:19.734Z</time></trkpt><trkpt lat="38.1107733" lon="14.9326933"><ele>918.0</ele><time>2026-05-01T14:24:20.734Z</time></trkpt><trkpt lat="38.1108717" lon="14.9326867"><ele>918.0</ele><time>2026-05-01T14:24:21.734Z</time></trkpt><trkpt lat="38.1109733" lon="14.9326867"><ele>918.0</ele><time>2026-05-01T14:24:22.734Z</time></trkpt><trkpt lat="38.1110667" lon="14.93269"><ele>917.6666666666666</ele><time>2026-05-01T14:24:23.734Z</time></trkpt><trkpt lat="38.111155" lon="14.932685"><ele>917.3333333333333</ele><time>2026-05-01T14:24:24.734Z</time></trkpt><trkpt lat="38.11124" lon="14.9326683"><ele>917.0</ele><time>2026-05-01T14:24:25.734Z</time></trkpt><trkpt lat="38.1113083" lon="14.9326483"><ele>916.6666666666666</ele><time>2026-05-01T14:24:26.734Z</time></trkpt><trkpt lat="38.11138" lon="14.9326267"><ele>916.3333333333333</ele><time>2026-05-01T14:24:27.734Z</time></trkpt><trkpt lat="38.1114433" lon="14.9326067"><ele>916.0</ele><time>2026-05-01T14:24:28.733Z</time></trkpt><trkpt lat="38.1115117" lon="14.93259"><ele>914.8571428571429</ele><time>2026-05-01T14:24:29.734Z</time></trkpt><trkpt lat="38.111585" lon="14.93257"><ele>913.7142857142858</ele><time>2026-05-01T14:24:30.734Z</time></trkpt><trkpt lat="38.111655" lon="14.93256"><ele>912.5714285714287</ele><time>2026-05-01T14:24:31.734Z</time></trkpt><trkpt lat="38.11172" lon="14.9325517"><ele>911.4285714285714</ele><time>2026-05-01T14:24:32.733Z</time></trkpt><trkpt lat="38.1117933" lon="14.9325617"><ele>910.2857142857144</ele><time>2026-05-01T14:24:33.734Z</time></trkpt><trkpt lat="38.1118683" lon="14.9325983"><ele>909.1428571428572</ele><time>2026-05-01T14:24:34.733Z</time></trkpt><trkpt lat="38.1119467" lon="14.9326383"><ele>908.0</ele><time>2026-05-01T14:24:35.734Z</time></trkpt><trkpt lat="38.1120267" lon="14.932675"><ele>908.0</ele><time>2026-05-01T14:24:36.734Z</time></trkpt><trkpt lat="38.1121017" lon="14.9327017"><ele>908.0</ele><time>2026-05-01T14:24:37.734Z</time></trkpt><trkpt lat="38.1121817" lon="14.9327333"><ele>908.0</ele><time>2026-05-01T14:24:38.734Z</time></trkpt><trkpt lat="38.1122667" lon="14.9327667"><ele>908.0</ele><time>2026-05-01T14:24:39.734Z</time></trkpt><trkpt lat="38.1123567" lon="14.9328083"><ele>908.0</ele><time>2026-05-01T14:24:40.733Z</time></trkpt><trkpt lat="38.1124533" lon="14.9328617"><ele>906.0</ele><time>2026-05-01T14:24:41.734Z</time></trkpt><trkpt lat="38.1125183" lon="14.9329283"><ele>904.0</ele><time>2026-05-01T14:24:42.734Z</time></trkpt><trkpt lat="38.1125783" lon="14.9330167"><ele>902.0</ele><time>2026-05-01T14:24:43.734Z</time></trkpt><trkpt lat="38.1126267" lon="14.9331367"><ele>900.0</ele><time>2026-05-01T14:24:44.734Z</time></trkpt><trkpt lat="38.1126883" lon="14.9332867"><ele>898.0</ele><time>2026-05-01T14:24:45.734Z</time></trkpt><trkpt lat="38.11276" lon="14.93345"><ele>898.0</ele><time>2026-05-01T14:24:46.734Z</time></trkpt><trkpt lat="38.1128317" lon="14.9336267"><ele>898.0</ele><time>2026-05-01T14:24:47.733Z</time></trkpt><trkpt lat="38.1129051" lon="14.9337935"><ele>898.0</ele><time>2026-05-01T14:24:48.734Z</time></trkpt><trkpt lat="38.1129636" lon="14.933932"><ele>898.0</ele><time>2026-05-01T14:24:49.734Z</time></trkpt><trkpt lat="38.1130067" lon="14.9340536"><ele>897.9999999999999</ele><time>2026-05-01T14:24:50.734Z</time></trkpt><trkpt lat="38.1130332" lon="14.9341674"><ele>898.0</ele><time>2026-05-01T14:24:51.734Z</time></trkpt><trkpt lat="38.1130503" lon="14.9342684"><ele>898.0</ele><time>2026-05-01T14:24:52.734Z</time></trkpt><trkpt lat="38.1130637" lon="14.9343671"><ele>898.0</ele><time>2026-05-01T14:24:53.734Z</time></trkpt><trkpt lat="38.113082" lon="14.9344618"><ele>897.9999999999999</ele><time>2026-05-01T14:24:54.734Z</time></trkpt><trkpt lat="38.1131102" lon="14.9345655"><ele>898.0</ele><time>2026-05-01T14:24:55.734Z</time></trkpt><trkpt lat="38.1131453" lon="14.9346817"><ele>897.4</ele><time>2026-05-01T14:24:56.734Z</time></trkpt><trkpt lat="38.1131971" lon="14.9347966"><ele>896.8</ele><time>2026-05-01T14:24:57.734Z</time></trkpt><trkpt lat="38.1132507" lon="14.934894"><ele>896.2</ele><time>2026-05-01T14:24:58.734Z</time></trkpt><trkpt lat="38.1133063" lon="14.934974"><ele>895.6</ele><time>2026-05-01T14:24:59.734Z</time></trkpt><trkpt lat="38.1133586" lon="14.9350426"><ele>895.0</ele><time>2026-05-01T14:25:00.734Z</time></trkpt><trkpt lat="38.1134444" lon="14.9351462"><ele>891.2</ele><time>2026-05-01T14:25:02.734Z</time></trkpt><trkpt lat="38.1134641" lon="14.9352394"><ele>887.4</ele><time>2026-05-01T14:25:04.734Z</time></trkpt><trkpt lat="38.113361" lon="14.9351545"><ele>883.5999999999999</ele><time>2026-05-01T14:25:23.733Z</time></trkpt><trkpt lat="38.1132878" lon="14.9351014"><ele>879.8</ele><time>2026-05-01T14:25:24.734Z</time></trkpt><trkpt lat="38.1132049" lon="14.9350693"><ele>876.0</ele><time>2026-05-01T14:25:25.734Z</time></trkpt><trkpt lat="38.1131237" lon="14.9350737"><ele>876.0</ele><time>2026-05-01T14:25:26.734Z</time></trkpt><trkpt lat="38.113043" lon="14.9351123"><ele>876.0</ele><time>2026-05-01T14:25:27.734Z</time></trkpt><trkpt lat="38.1129672" lon="14.935173"><ele>876.0</ele><time>2026-05-01T14:25:28.734Z</time></trkpt><trkpt lat="38.1128967" lon="14.9352256"><ele>876.0</ele><time>2026-05-01T14:25:29.734Z</time></trkpt><trkpt lat="38.112816" lon="14.9352779"><ele>876.0</ele><time>2026-05-01T14:25:30.734Z</time></trkpt><trkpt lat="38.1127265" lon="14.9353216"><ele>876.0</ele><time>2026-05-01T14:25:31.734Z</time></trkpt><trkpt lat="38.1126271" lon="14.9353685"><ele>876.0</ele><time>2026-05-01T14:25:32.734Z</time></trkpt><trkpt lat="38.1125276" lon="14.9354083"><ele>875.9999999999999</ele><time>2026-05-01T14:25:33.734Z</time></trkpt><trkpt lat="38.1124309" lon="14.9354344"><ele>875.9999999999999</ele><time>2026-05-01T14:25:34.734Z</time></trkpt><trkpt lat="38.1123297" lon="14.9354638"><ele>876.0</ele><time>2026-05-01T14:25:35.734Z</time></trkpt><trkpt lat="38.1122372" lon="14.9355161"><ele>876.0</ele><time>2026-05-01T14:25:36.734Z</time></trkpt><trkpt lat="38.1121513" lon="14.9356047"><ele>880.1666666666666</ele><time>2026-05-01T14:25:37.734Z</time></trkpt><trkpt lat="38.1120868" lon="14.9356986"><ele>884.3333333333333</ele><time>2026-05-01T14:25:38.734Z</time></trkpt><trkpt lat="38.1120349" lon="14.9357727"><ele>888.5</ele><time>2026-05-01T14:25:39.734Z</time></trkpt><trkpt lat="38.1119731" lon="14.9358238"><ele>892.6666666666666</ele><time>2026-05-01T14:25:40.734Z</time></trkpt><trkpt lat="38.1119053" lon="14.9358433"><ele>896.8333333333333</ele><time>2026-05-01T14:25:41.734Z</time></trkpt><trkpt lat="38.1118362" lon="14.93583"><ele>901.0</ele><time>2026-05-01T14:25:42.734Z</time></trkpt><trkpt lat="38.1117728" lon="14.9357825"><ele>900.9999999999999</ele><time>2026-05-01T14:25:43.734Z</time></trkpt><trkpt lat="38.1117099" lon="14.9357095"><ele>901.0</ele><time>2026-05-01T14:25:44.734Z</time></trkpt><trkpt lat="38.1116411" lon="14.9356478"><ele>901.0</ele><time>2026-05-01T14:25:45.734Z</time></trkpt><trkpt lat="38.1115631" lon="14.9356095"><ele>901.0</ele><time>2026-05-01T14:25:46.734Z</time></trkpt><trkpt lat="38.1114788" lon="14.93559"><ele>900.9999999999999</ele><time>2026-05-01T14:25:47.734Z</time></trkpt><trkpt lat="38.1113812" lon="14.9355793"><ele>901.0</ele><time>2026-05-01T14:25:48.734Z</time></trkpt><trkpt lat="38.1112698" lon="14.9355759"><ele>899.1999999999999</ele><time>2026-05-01T14:25:49.734Z</time></trkpt><trkpt lat="38.1111538" lon="14.9355882"><ele>897.3999999999999</ele><time>2026-05-01T14:25:50.734Z</time></trkpt><trkpt lat="38.1110455" lon="14.9356161"><ele>895.6</ele><time>2026-05-01T14:25:51.734Z</time></trkpt><trkpt lat="38.1109419" lon="14.9356427"><ele>893.8</ele><time>2026-05-01T14:25:52.733Z</time></trkpt><trkpt lat="38.110832" lon="14.9356558"><ele>892.0</ele><time>2026-05-01T14:25:53.734Z</time></trkpt><trkpt lat="38.1107222" lon="14.9356488"><ele>892.0</ele><time>2026-05-01T14:25:54.734Z</time></trkpt><trkpt lat="38.1106227" lon="14.9356111"><ele>892.0</ele><time>2026-05-01T14:25:55.734Z</time></trkpt><trkpt lat="38.1105296" lon="14.9355598"><ele>892.0</ele><time>2026-05-01T14:25:56.734Z</time></trkpt><trkpt lat="38.1104453" lon="14.9355061"><ele>892.0</ele><time>2026-05-01T14:25:57.734Z</time></trkpt><trkpt lat="38.1103808" lon="14.9354391"><ele>892.0</ele><time>2026-05-01T14:25:58.734Z</time></trkpt><trkpt lat="38.1103437" lon="14.9353568"><ele>891.9999999999999</ele><time>2026-05-01T14:25:59.734Z</time></trkpt><trkpt lat="38.1103135" lon="14.9352786"><ele>892.0</ele><time>2026-05-01T14:26:00.734Z</time></trkpt><trkpt lat="38.1102614" lon="14.9351455"><ele>892.0</ele><time>2026-05-01T14:26:02.734Z</time></trkpt><trkpt lat="38.110225" lon="14.9350741"><ele>892.0</ele><time>2026-05-01T14:26:03.734Z</time></trkpt><trkpt lat="38.1101859" lon="14.9349974"><ele>891.9999999999999</ele><time>2026-05-01T14:26:04.734Z</time></trkpt><trkpt lat="38.110149" lon="14.9349135"><ele>892.0</ele><time>2026-05-01T14:26:05.734Z</time></trkpt><trkpt lat="38.1101084" lon="14.9348264"><ele>893.2</ele><time>2026-05-01T14:26:06.734Z</time></trkpt><trkpt lat="38.1100567" lon="14.9347346"><ele>894.4000000000001</ele><time>2026-05-01T14:26:07.734Z</time></trkpt><trkpt lat="38.1100008" lon="14.934635"><ele>895.5999999999999</ele><time>2026-05-01T14:26:08.734Z</time></trkpt><trkpt lat="38.1099371" lon="14.9345344"><ele>896.8</ele><time>2026-05-01T14:26:09.734Z</time></trkpt><trkpt lat="38.1098681" lon="14.9344388"><ele>898.0</ele><time>2026-05-01T14:26:10.734Z</time></trkpt><trkpt lat="38.1097911" lon="14.9343641"><ele>898.0</ele><time>2026-05-01T14:26:11.734Z</time></trkpt><trkpt lat="38.1097193" lon="14.9343172"><ele>898.0</ele><time>2026-05-01T14:26:12.734Z</time></trkpt><trkpt lat="38.1096297" lon="14.9342737"><ele>898.0</ele><time>2026-05-01T14:26:14.734Z</time></trkpt><trkpt lat="38.1097016" lon="14.9342316"><ele>898.0</ele><time>2026-05-01T14:26:49.735Z</time></trkpt><trkpt lat="38.1098181" lon="14.9342675"><ele>898.0</ele><time>2026-05-01T14:26:51.735Z</time></trkpt><trkpt lat="38.1098918" lon="14.9342879"><ele>903.1666666666666</ele><time>2026-05-01T14:26:52.735Z</time></trkpt><trkpt lat="38.1099702" lon="14.9343095"><ele>908.3333333333333</ele><time>2026-05-01T14:26:53.735Z</time></trkpt><trkpt lat="38.1100571" lon="14.9343319"><ele>913.5</ele><time>2026-05-01T14:26:54.735Z</time></trkpt><trkpt lat="38.1101469" lon="14.9343609"><ele>918.6666666666667</ele><time>2026-05-01T14:26:55.734Z</time></trkpt><trkpt lat="38.1102295" lon="14.9343882"><ele>923.8333333333334</ele><time>2026-05-01T14:26:56.734Z</time></trkpt><trkpt lat="38.1103035" lon="14.9344182"><ele>929.0</ele><time>2026-05-01T14:26:57.735Z</time></trkpt><trkpt lat="38.1103673" lon="14.9344577"><ele>929.0000000000001</ele><time>2026-05-01T14:26:58.735Z</time></trkpt><trkpt lat="38.1104275" lon="14.9345065"><ele>929.0</ele><time>2026-05-01T14:26:59.734Z</time></trkpt><trkpt lat="38.1104854" lon="14.9345539"><ele>929.0</ele><time>2026-05-01T14:27:00.735Z</time></trkpt><trkpt lat="38.1105397" lon="14.9345965"><ele>929.0</ele><time>2026-05-01T14:27:01.734Z</time></trkpt><trkpt lat="38.1106007" lon="14.9346546"><ele>929.0000000000001</ele><time>2026-05-01T14:27:03.734Z</time></trkpt><trkpt lat="38.1105703" lon="14.9347424"><ele>929.0</ele><time>2026-05-01T14:41:05.737Z</time></trkpt><trkpt lat="38.1106554" lon="14.934675"><ele>929.0000000000001</ele><time>2026-05-01T15:04:16.741Z</time></trkpt><trkpt lat="38.1107254" lon="14.9346584"><ele>929.0</ele><time>2026-05-01T15:04:19.741Z</time></trkpt><trkpt lat="38.1107865" lon="14.9346357"><ele>929.0</ele><time>2026-05-01T15:04:21.741Z</time></trkpt><trkpt lat="38.11085" lon="14.9346283"><ele>929.0</ele><time>2026-05-01T15:04:23.741Z</time></trkpt><trkpt lat="38.1109266" lon="14.9346326"><ele>929.0000000000001</ele><time>2026-05-01T15:04:25.741Z</time></trkpt><trkpt lat="38.1110409" lon="14.9346589"><ele>929.0</ele><time>2026-05-01T15:04:27.74Z</time></trkpt><trkpt lat="38.1111466" lon="14.9346339"><ele>932.0000000000001</ele><time>2026-05-01T15:04:29.741Z</time></trkpt><trkpt lat="38.1111695" lon="14.9345406"><ele>935.0</ele><time>2026-05-01T15:04:31.741Z</time></trkpt><trkpt lat="38.1111022" lon="14.9344512"><ele>938.0</ele><time>2026-05-01T15:04:33.741Z</time></trkpt><trkpt lat="38.1110457" lon="14.9344108"><ele>941.0</ele><time>2026-05-01T15:04:34.741Z</time></trkpt><trkpt lat="38.1109747" lon="14.9343672"><ele>944.0000000000001</ele><time>2026-05-01T15:04:35.741Z</time></trkpt><trkpt lat="38.1108903" lon="14.9343198"><ele>947.0</ele><time>2026-05-01T15:04:36.741Z</time></trkpt><trkpt lat="38.1108017" lon="14.9342835"><ele>946.6666666666667</ele><time>2026-05-01T15:04:37.741Z</time></trkpt><trkpt lat="38.1107201" lon="14.9342565"><ele>946.3333333333334</ele><time>2026-05-01T15:04:38.74Z</time></trkpt><trkpt lat="38.1106344" lon="14.9342338"><ele>946.0</ele><time>2026-05-01T15:04:39.741Z</time></trkpt><trkpt lat="38.1105495" lon="14.9342184"><ele>945.6666666666667</ele><time>2026-05-01T15:04:40.741Z</time></trkpt><trkpt lat="38.1104699" lon="14.934194"><ele>945.3333333333334</ele><time>2026-05-01T15:04:41.74Z</time></trkpt><trkpt lat="38.1103998" lon="14.9341778"><ele>945.0</ele><time>2026-05-01T15:04:42.741Z</time></trkpt><trkpt lat="38.1103292" lon="14.9341668"><ele>945.0</ele><time>2026-05-01T15:04:43.741Z</time></trkpt><trkpt lat="38.1102529" lon="14.9341602"><ele>945.0</ele><time>2026-05-01T15:04:44.741Z</time></trkpt><trkpt lat="38.1101777" lon="14.9341599"><ele>945.0</ele><time>2026-05-01T15:04:45.741Z</time></trkpt><trkpt lat="38.1101032" lon="14.9341653"><ele>945.0</ele><time>2026-05-01T15:04:46.741Z</time></trkpt><trkpt lat="38.1100323" lon="14.934177"><ele>945.0</ele><time>2026-05-01T15:04:47.741Z</time></trkpt><trkpt lat="38.1099644" lon="14.9342018"><ele>945.0</ele><time>2026-05-01T15:04:48.741Z</time></trkpt><trkpt lat="38.1098978" lon="14.934226"><ele>945.0</ele><time>2026-05-01T15:04:49.741Z</time></trkpt><trkpt lat="38.1098342" lon="14.9342459"><ele>935.6</ele><time>2026-05-01T15:04:50.741Z</time></trkpt><trkpt lat="38.1097177" lon="14.9342407"><ele>926.2</ele><time>2026-05-01T15:04:52.741Z</time></trkpt><trkpt lat="38.1096422" lon="14.9342608"><ele>916.8</ele><time>2026-05-01T15:04:54.741Z</time></trkpt><trkpt lat="38.1096977" lon="14.9343656"><ele>907.4</ele><time>2026-05-01T15:04:57.74Z</time></trkpt><trkpt lat="38.1097571" lon="14.9344043"><ele>898.0</ele><time>2026-05-01T15:04:58.741Z</time></trkpt><trkpt lat="38.1098547" lon="14.9344761"><ele>904.2</ele><time>2026-05-01T15:05:00.741Z</time></trkpt><trkpt lat="38.1099492" lon="14.9346076"><ele>910.4</ele><time>2026-05-01T15:05:02.741Z</time></trkpt><trkpt lat="38.1100069" lon="14.9347064"><ele>916.6000000000001</ele><time>2026-05-01T15:05:03.741Z</time></trkpt><trkpt lat="38.110067" lon="14.9348106"><ele>922.8000000000001</ele><time>2026-05-01T15:05:04.74Z</time></trkpt><trkpt lat="38.1101206" lon="14.934903"><ele>929.0</ele><time>2026-05-01T15:05:05.741Z</time></trkpt><trkpt lat="38.1101632" lon="14.934991"><ele>923.7142857142858</ele><time>2026-05-01T15:05:06.741Z</time></trkpt><trkpt lat="38.1102069" lon="14.9350695"><ele>918.4285714285716</ele><time>2026-05-01T15:05:07.741Z</time></trkpt><trkpt lat="38.1102476" lon="14.9351389"><ele>913.1428571428571</ele><time>2026-05-01T15:05:08.741Z</time></trkpt><trkpt lat="38.1102863" lon="14.9352113"><ele>907.8571428571429</ele><time>2026-05-01T15:05:09.741Z</time></trkpt><trkpt lat="38.110327" lon="14.9352845"><ele>902.5714285714286</ele><time>2026-05-01T15:05:10.741Z</time></trkpt><trkpt lat="38.1103638" lon="14.9353592"><ele>897.2857142857142</ele><time>2026-05-01T15:05:11.74Z</time></trkpt><trkpt lat="38.1103997" lon="14.9354302"><ele>892.0</ele><time>2026-05-01T15:05:12.74Z</time></trkpt><trkpt lat="38.1104444" lon="14.9354911"><ele>892.0</ele><time>2026-05-01T15:05:13.741Z</time></trkpt><trkpt lat="38.1104961" lon="14.9355445"><ele>892.0</ele><time>2026-05-01T15:05:14.741Z</time></trkpt><trkpt lat="38.110557" lon="14.9355832"><ele>892.0</ele><time>2026-05-01T15:05:15.741Z</time></trkpt><trkpt lat="38.1106276" lon="14.9356145"><ele>892.0</ele><time>2026-05-01T15:05:16.741Z</time></trkpt><trkpt lat="38.1106988" lon="14.9356459"><ele>892.0</ele><time>2026-05-01T15:05:17.741Z</time></trkpt><trkpt lat="38.1107701" lon="14.9356732"><ele>892.0</ele><time>2026-05-01T15:05:18.741Z</time></trkpt><trkpt lat="38.1108435" lon="14.9356903"><ele>892.0</ele><time>2026-05-01T15:05:19.741Z</time></trkpt><trkpt lat="38.1109305" lon="14.9356842"><ele>896.6</ele><time>2026-05-01T15:05:20.741Z</time></trkpt><trkpt lat="38.1110277" lon="14.9356663"><ele>901.2</ele><time>2026-05-01T15:05:21.741Z</time></trkpt><trkpt lat="38.1111225" lon="14.9356511"><ele>905.8</ele><time>2026-05-01T15:05:22.741Z</time></trkpt><trkpt lat="38.1112125" lon="14.9356349"><ele>910.4</ele><time>2026-05-01T15:05:23.741Z</time></trkpt><trkpt lat="38.1113014" lon="14.9356293"><ele>915.0</ele><time>2026-05-01T15:05:24.741Z</time></trkpt><trkpt lat="38.1113874" lon="14.9356253"><ele>915.0</ele><time>2026-05-01T15:05:25.741Z</time></trkpt><trkpt lat="38.1114665" lon="14.9356225"><ele>915.0</ele><time>2026-05-01T15:05:26.741Z</time></trkpt><trkpt lat="38.111544" lon="14.9356271"><ele>915.0</ele><time>2026-05-01T15:05:27.741Z</time></trkpt><trkpt lat="38.1116228" lon="14.9356347"><ele>915.0</ele><time>2026-05-01T15:05:28.741Z</time></trkpt><trkpt lat="38.111698" lon="14.9356495"><ele>915.0</ele><time>2026-05-01T15:05:29.741Z</time></trkpt><trkpt lat="38.1117615" lon="14.9356905"><ele>915.0</ele><time>2026-05-01T15:05:30.741Z</time></trkpt><trkpt lat="38.1118183" lon="14.9357422"><ele>912.2</ele><time>2026-05-01T15:05:31.74Z</time></trkpt><trkpt lat="38.1118711" lon="14.9357912"><ele>909.4</ele><time>2026-05-01T15:05:32.741Z</time></trkpt><trkpt lat="38.1119765" lon="14.9358404"><ele>906.5999999999999</ele><time>2026-05-01T15:05:34.741Z</time></trkpt><trkpt lat="38.1120701" lon="14.9358006"><ele>903.8</ele><time>2026-05-01T15:05:36.741Z</time></trkpt><trkpt lat="38.1121437" lon="14.9356951"><ele>901.0</ele><time>2026-05-01T15:05:38.741Z</time></trkpt><trkpt lat="38.112182" lon="14.9356195"><ele>900.9999999999999</ele><time>2026-05-01T15:05:39.741Z</time></trkpt><trkpt lat="38.1122316" lon="14.9355417"><ele>901.0</ele><time>2026-05-01T15:05:40.741Z</time></trkpt><trkpt lat="38.1122952" lon="14.9354758"><ele>901.0</ele><time>2026-05-01T15:05:41.741Z</time></trkpt><trkpt lat="38.1123609" lon="14.9354322"><ele>901.0</ele><time>2026-05-01T15:05:42.74Z</time></trkpt><trkpt lat="38.1124317" lon="14.9353992"><ele>900.9999999999999</ele><time>2026-05-01T15:05:43.741Z</time></trkpt><trkpt lat="38.112501" lon="14.935387"><ele>901.0</ele><time>2026-05-01T15:05:44.741Z</time></trkpt><trkpt lat="38.1125749" lon="14.9353731"><ele>897.4285714285714</ele><time>2026-05-01T15:05:45.74Z</time></trkpt><trkpt lat="38.1126445" lon="14.9353554"><ele>893.8571428571429</ele><time>2026-05-01T15:05:46.741Z</time></trkpt><trkpt lat="38.1127068" lon="14.9353278"><ele>890.2857142857143</ele><time>2026-05-01T15:05:47.741Z</time></trkpt><trkpt lat="38.112771" lon="14.9352976"><ele>886.7142857142858</ele><time>2026-05-01T15:05:48.741Z</time></trkpt><trkpt lat="38.1128376" lon="14.9352587"><ele>883.1428571428571</ele><time>2026-05-01T15:05:49.741Z</time></trkpt><trkpt lat="38.1129068" lon="14.9352111"><ele>879.5714285714287</ele><time>2026-05-01T15:05:50.741Z</time></trkpt><trkpt lat="38.1129747" lon="14.9351632"><ele>876.0</ele><time>2026-05-01T15:05:51.741Z</time></trkpt><trkpt lat="38.1130376" lon="14.9351199"><ele>876.0</ele><time>2026-05-01T15:05:52.74Z</time></trkpt><trkpt lat="38.1130984" lon="14.9350778"><ele>876.0</ele><time>2026-05-01T15:05:53.741Z</time></trkpt><trkpt lat="38.1131557" lon="14.9350419"><ele>876.0</ele><time>2026-05-01T15:05:54.741Z</time></trkpt><trkpt lat="38.1132664" lon="14.935035"><ele>876.0</ele><time>2026-05-01T15:05:56.741Z</time></trkpt><trkpt lat="38.1133238" lon="14.9350699"><ele>876.0</ele><time>2026-05-01T15:05:57.741Z</time></trkpt><trkpt lat="38.1134041" lon="14.935172"><ele>876.0</ele><time>2026-05-01T15:05:59.741Z</time></trkpt><trkpt lat="38.1134686" lon="14.9352391"><ele>875.5</ele><time>2026-05-01T15:06:01.74Z</time></trkpt><trkpt lat="38.1135338" lon="14.9352201"><ele>875.0</ele><time>2026-05-01T15:06:04.741Z</time></trkpt><trkpt lat="38.1134675" lon="14.9351205"><ele>874.5</ele><time>2026-05-01T15:06:06.741Z</time></trkpt><trkpt lat="38.1134108" lon="14.93506"><ele>874.0</ele><time>2026-05-01T15:06:07.741Z</time></trkpt><trkpt lat="38.1133463" lon="14.9349875"><ele>873.5</ele><time>2026-05-01T15:06:08.741Z</time></trkpt><trkpt lat="38.1132751" lon="14.934899"><ele>873.0</ele><time>2026-05-01T15:06:09.741Z</time></trkpt><trkpt lat="38.113207" lon="14.9347941"><ele>878.5</ele><time>2026-05-01T15:06:10.741Z</time></trkpt><trkpt lat="38.1131432" lon="14.9346604"><ele>884.0</ele><time>2026-05-01T15:06:11.741Z</time></trkpt><trkpt lat="38.1130872" lon="14.9344936"><ele>889.5</ele><time>2026-05-01T15:06:12.741Z</time></trkpt><trkpt lat="38.1130394" lon="14.934308"><ele>895.0</ele><time>2026-05-01T15:06:13.741Z</time></trkpt><trkpt lat="38.1130028" lon="14.934123"><ele>895.75</ele><time>2026-05-01T15:06:14.741Z</time></trkpt><trkpt lat="38.1129671" lon="14.9339665"><ele>896.5</ele><time>2026-05-01T15:06:15.741Z</time></trkpt><trkpt lat="38.1129279" lon="14.9338253"><ele>897.25</ele><time>2026-05-01T15:06:16.741Z</time></trkpt><trkpt lat="38.1128893" lon="14.9336837"><ele>898.0</ele><time>2026-05-01T15:06:17.741Z</time></trkpt><trkpt lat="38.1128387" lon="14.933545"><ele>898.0</ele><time>2026-05-01T15:06:18.741Z</time></trkpt><trkpt lat="38.1127661" lon="14.9334115"><ele>898.0</ele><time>2026-05-01T15:06:19.741Z</time></trkpt><trkpt lat="38.1126904" lon="14.9332788"><ele>898.0</ele><time>2026-05-01T15:06:20.741Z</time></trkpt><trkpt lat="38.1126291" lon="14.933143"><ele>898.0</ele><time>2026-05-01T15:06:21.74Z</time></trkpt><trkpt lat="38.1125829" lon="14.9330278"><ele>900.0</ele><time>2026-05-01T15:06:22.741Z</time></trkpt><trkpt lat="38.1125364" lon="14.9329407"><ele>902.0</ele><time>2026-05-01T15:06:23.741Z</time></trkpt><trkpt lat="38.1124862" lon="14.9328695"><ele>904.0</ele><time>2026-05-01T15:06:24.741Z</time></trkpt><trkpt lat="38.1124138" lon="14.9328104"><ele>906.0</ele><time>2026-05-01T15:06:25.741Z</time></trkpt><trkpt lat="38.1123212" lon="14.9327595"><ele>908.0</ele><time>2026-05-01T15:06:26.741Z</time></trkpt><trkpt lat="38.1122205" lon="14.9327188"><ele>908.0</ele><time>2026-05-01T15:06:27.741Z</time></trkpt><trkpt lat="38.1121252" lon="14.9326824"><ele>908.0</ele><time>2026-05-01T15:06:28.741Z</time></trkpt><trkpt lat="38.1120359" lon="14.9326601"><ele>908.0</ele><time>2026-05-01T15:06:29.741Z</time></trkpt><trkpt lat="38.1119448" lon="14.9326302"><ele>908.0</ele><time>2026-05-01T15:06:30.741Z</time></trkpt><trkpt lat="38.1118559" lon="14.932588"><ele>908.0</ele><time>2026-05-01T15:06:31.741Z</time></trkpt><trkpt lat="38.1117765" lon="14.9325582"><ele>909.5999999999999</ele><time>2026-05-01T15:06:32.741Z</time></trkpt><trkpt lat="38.1116977" lon="14.9325472"><ele>911.1999999999999</ele><time>2026-05-01T15:06:33.741Z</time></trkpt><trkpt lat="38.1116129" lon="14.9325548"><ele>912.8</ele><time>2026-05-01T15:06:34.74Z</time></trkpt><trkpt lat="38.1115085" lon="14.9325766"><ele>914.4</ele><time>2026-05-01T15:06:35.741Z</time></trkpt><trkpt lat="38.1113999" lon="14.932612"><ele>916.0</ele><time>2026-05-01T15:06:36.74Z</time></trkpt><trkpt lat="38.1112924" lon="14.9326504"><ele>916.0</ele><time>2026-05-01T15:06:37.741Z</time></trkpt><trkpt lat="38.1111815" lon="14.932682"><ele>916.0</ele><time>2026-05-01T15:06:38.741Z</time></trkpt><trkpt lat="38.1110677" lon="14.932692"><ele>916.0</ele><time>2026-05-01T15:06:39.741Z</time></trkpt><trkpt lat="38.1109509" lon="14.9326912"><ele>916.0</ele><time>2026-05-01T15:06:40.741Z</time></trkpt><trkpt lat="38.1108221" lon="14.9326821"><ele>916.5</ele><time>2026-05-01T15:06:41.741Z</time></trkpt><trkpt lat="38.1106799" lon="14.9326726"><ele>917.0</ele><time>2026-05-01T15:06:42.741Z</time></trkpt><trkpt lat="38.11055" lon="14.9326556"><ele>917.5</ele><time>2026-05-01T15:06:43.741Z</time></trkpt><trkpt lat="38.1104358" lon="14.932628"><ele>918.0</ele><time>2026-05-01T15:06:44.741Z</time></trkpt><trkpt lat="38.110325" lon="14.9325892"><ele>914.25</ele><time>2026-05-01T15:06:45.741Z</time></trkpt><trkpt lat="38.1102055" lon="14.932546"><ele>910.5</ele><time>2026-05-01T15:06:46.741Z</time></trkpt><trkpt lat="38.1100867" lon="14.9324969"><ele>906.75</ele><time>2026-05-01T15:06:47.741Z</time></trkpt><trkpt lat="38.1099747" lon="14.9324369"><ele>903.0</ele><time>2026-05-01T15:06:48.74Z</time></trkpt><trkpt lat="38.1098655" lon="14.9323678"><ele>903.0</ele><time>2026-05-01T15:06:49.741Z</time></trkpt><trkpt lat="38.1097527" lon="14.9323124"><ele>903.0</ele><time>2026-05-01T15:06:50.741Z</time></trkpt><trkpt lat="38.1096429" lon="14.9322708"><ele>903.0</ele><time>2026-05-01T15:06:51.741Z</time></trkpt><trkpt lat="38.109544" lon="14.9322113"><ele>903.0</ele><time>2026-05-01T15:06:52.741Z</time></trkpt><trkpt lat="38.1094469" lon="14.9321415"><ele>903.0</ele><time>2026-05-01T15:06:53.741Z</time></trkpt><trkpt lat="38.1093547" lon="14.9320646"><ele>903.0</ele><time>2026-05-01T15:06:54.741Z</time></trkpt><trkpt lat="38.1092562" lon="14.9319906"><ele>903.0</ele><time>2026-05-01T15:06:55.741Z</time></trkpt><trkpt lat="38.1091654" lon="14.9319174"><ele>903.0</ele><time>2026-05-01T15:06:56.741Z</time></trkpt><trkpt lat="38.1090802" lon="14.9318519"><ele>903.0</ele><time>2026-05-01T15:06:57.74Z</time></trkpt><trkpt lat="38.1090091" lon="14.9317806"><ele>903.0</ele><time>2026-05-01T15:06:58.741Z</time></trkpt><trkpt lat="38.1089566" lon="14.9317058"><ele>903.0</ele><time>2026-05-01T15:06:59.741Z</time></trkpt><trkpt lat="38.1089162" lon="14.9316123"><ele>903.0</ele><time>2026-05-01T15:07:00.741Z</time></trkpt><trkpt lat="38.1088866" lon="14.9315026"><ele>903.0</ele><time>2026-05-01T15:07:01.742Z</time></trkpt><trkpt lat="38.108872" lon="14.931386"><ele>903.0</ele><time>2026-05-01T15:07:02.742Z</time></trkpt><trkpt lat="38.1088715" lon="14.9312753"><ele>903.0</ele><time>2026-05-01T15:07:03.742Z</time></trkpt><trkpt lat="38.1088879" lon="14.9311695"><ele>903.0</ele><time>2026-05-01T15:07:04.742Z</time></trkpt><trkpt lat="38.1088975" lon="14.9310696"><ele>903.0</ele><time>2026-05-01T15:07:05.742Z</time></trkpt><trkpt lat="38.1088816" lon="14.9309905"><ele>903.0</ele><time>2026-05-01T15:07:06.742Z</time></trkpt><trkpt lat="38.1087778" lon="14.9308951"><ele>903.0</ele><time>2026-05-01T15:07:08.742Z</time></trkpt><trkpt lat="38.1086842" lon="14.9308653"><ele>903.0</ele><time>2026-05-01T15:07:09.742Z</time></trkpt><trkpt lat="38.1085757" lon="14.9308262"><ele>900.8</ele><time>2026-05-01T15:07:10.742Z</time></trkpt><trkpt lat="38.1084736" lon="14.9307766"><ele>898.5999999999999</ele><time>2026-05-01T15:07:11.742Z</time></trkpt><trkpt lat="38.1083821" lon="14.9307223"><ele>896.4000000000001</ele><time>2026-05-01T15:07:12.742Z</time></trkpt><trkpt lat="38.10829" lon="14.9306698"><ele>894.2</ele><time>2026-05-01T15:07:13.742Z</time></trkpt><trkpt lat="38.1081879" lon="14.9306151"><ele>892.0</ele><time>2026-05-01T15:07:14.741Z</time></trkpt><trkpt lat="38.1080801" lon="14.9305725"><ele>892.0</ele><time>2026-05-01T15:07:15.742Z</time></trkpt><trkpt lat="38.1079748" lon="14.9305328"><ele>892.0</ele><time>2026-05-01T15:07:16.742Z</time></trkpt><trkpt lat="38.1078732" lon="14.9304833"><ele>892.0</ele><time>2026-05-01T15:07:17.742Z</time></trkpt><trkpt lat="38.1077754" lon="14.9304168"><ele>892.0</ele><time>2026-05-01T15:07:18.742Z</time></trkpt><trkpt lat="38.1076741" lon="14.9303334"><ele>891.9999999999999</ele><time>2026-05-01T15:07:19.742Z</time></trkpt><trkpt lat="38.1075813" lon="14.9302503"><ele>892.0</ele><time>2026-05-01T15:07:20.742Z</time></trkpt><trkpt lat="38.1075068" lon="14.9301656"><ele>892.0</ele><time>2026-05-01T15:07:21.742Z</time></trkpt><trkpt lat="38.1074375" lon="14.9301025"><ele>892.0</ele><time>2026-05-01T15:07:22.741Z</time></trkpt><trkpt lat="38.1073694" lon="14.9300714"><ele>891.9999999999999</ele><time>2026-05-01T15:07:23.742Z</time></trkpt><trkpt lat="38.1073051" lon="14.9300697"><ele>892.0</ele><time>2026-05-01T15:07:24.742Z</time></trkpt><trkpt lat="38.1072482" lon="14.9301127"><ele>893.8333333333333</ele><time>2026-05-01T15:07:25.742Z</time></trkpt><trkpt lat="38.1071972" lon="14.9302198"><ele>895.6666666666666</ele><time>2026-05-01T15:07:26.741Z</time></trkpt><trkpt lat="38.1071442" lon="14.9303127"><ele>897.5</ele><time>2026-05-01T15:07:27.742Z</time></trkpt><trkpt lat="38.1070876" lon="14.9303618"><ele>899.3333333333333</ele><time>2026-05-01T15:07:28.742Z</time></trkpt><trkpt lat="38.1070001" lon="14.9303542"><ele>901.1666666666666</ele><time>2026-05-01T15:07:30.742Z</time></trkpt><trkpt lat="38.1069582" lon="14.9302835"><ele>903.0</ele><time>2026-05-01T15:07:31.742Z</time></trkpt><trkpt lat="38.1069297" lon="14.9301761"><ele>897.75</ele><time>2026-05-01T15:07:32.742Z</time></trkpt><trkpt lat="38.1069292" lon="14.930026"><ele>892.5</ele><time>2026-05-01T15:07:33.742Z</time></trkpt><trkpt lat="38.1069674" lon="14.9298586"><ele>887.25</ele><time>2026-05-01T15:07:34.742Z</time></trkpt><trkpt lat="38.107012" lon="14.9296931"><ele>882.0</ele><time>2026-05-01T15:07:35.741Z</time></trkpt><trkpt lat="38.107029" lon="14.929548"><ele>882.0</ele><time>2026-05-01T15:07:36.742Z</time></trkpt><trkpt lat="38.1070225" lon="14.929419"><ele>882.0</ele><time>2026-05-01T15:07:37.742Z</time></trkpt><trkpt lat="38.1069912" lon="14.9293017"><ele>882.0</ele><time>2026-05-01T15:07:38.742Z</time></trkpt><trkpt lat="38.1069382" lon="14.9292013"><ele>882.0</ele><time>2026-05-01T15:07:39.741Z</time></trkpt><trkpt lat="38.1068676" lon="14.9291202"><ele>882.0</ele><time>2026-05-01T15:07:40.742Z</time></trkpt><trkpt lat="38.1067857" lon="14.9290562"><ele>883.6</ele><time>2026-05-01T15:07:41.742Z</time></trkpt><trkpt lat="38.1067059" lon="14.9289804"><ele>885.2</ele><time>2026-05-01T15:07:42.742Z</time></trkpt><trkpt lat="38.1066415" lon="14.9288774"><ele>886.8</ele><time>2026-05-01T15:07:43.741Z</time></trkpt><trkpt lat="38.1065918" lon="14.9287564"><ele>888.4</ele><time>2026-05-01T15:07:44.742Z</time></trkpt><trkpt lat="38.1065413" lon="14.9286333"><ele>890.0</ele><time>2026-05-01T15:07:45.742Z</time></trkpt><trkpt lat="38.106482" lon="14.9285292"><ele>890.0</ele><time>2026-05-01T15:07:46.742Z</time></trkpt><trkpt lat="38.1064178" lon="14.9284469"><ele>890.0</ele><time>2026-05-01T15:07:47.742Z</time></trkpt><trkpt lat="38.1063345" lon="14.9283682"><ele>890.0</ele><time>2026-05-01T15:07:48.742Z</time></trkpt><trkpt lat="38.1062483" lon="14.9282681"><ele>890.0</ele><time>2026-05-01T15:07:49.742Z</time></trkpt><trkpt lat="38.1061635" lon="14.9281604"><ele>890.0</ele><time>2026-05-01T15:07:50.742Z</time></trkpt><trkpt lat="38.1060807" lon="14.9280567"><ele>890.4</ele><time>2026-05-01T15:07:51.741Z</time></trkpt><trkpt lat="38.1060007" lon="14.9279619"><ele>890.8</ele><time>2026-05-01T15:07:52.742Z</time></trkpt><trkpt lat="38.1059318" lon="14.9278644"><ele>891.2</ele><time>2026-05-01T15:07:53.742Z</time></trkpt><trkpt lat="38.105868" lon="14.9277524"><ele>891.6</ele><time>2026-05-01T15:07:54.742Z</time></trkpt><trkpt lat="38.1058047" lon="14.9276225"><ele>892.0</ele><time>2026-05-01T15:07:55.741Z</time></trkpt><trkpt lat="38.1057408" lon="14.9274992"><ele>892.0</ele><time>2026-05-01T15:07:56.741Z</time></trkpt><trkpt lat="38.1056883" lon="14.9273859"><ele>892.0</ele><time>2026-05-01T15:07:57.742Z</time></trkpt><trkpt lat="38.1056617" lon="14.9272752"><ele>892.0</ele><time>2026-05-01T15:07:58.742Z</time></trkpt><trkpt lat="38.1056516" lon="14.9271697"><ele>892.0</ele><time>2026-05-01T15:07:59.742Z</time></trkpt><trkpt lat="38.1056572" lon="14.9270586"><ele>892.0</ele><time>2026-05-01T15:08:00.742Z</time></trkpt><trkpt lat="38.1056889" lon="14.9269484"><ele>891.9999999999999</ele><time>2026-05-01T15:08:01.741Z</time></trkpt><trkpt lat="38.1057127" lon="14.9268432"><ele>892.0</ele><time>2026-05-01T15:08:02.742Z</time></trkpt><trkpt lat="38.1057194" lon="14.9267418"><ele>892.0</ele><time>2026-05-01T15:08:03.742Z</time></trkpt><trkpt lat="38.1057035" lon="14.9266414"><ele>892.0</ele><time>2026-05-01T15:08:04.742Z</time></trkpt><trkpt lat="38.1056624" lon="14.9265533"><ele>891.9999999999999</ele><time>2026-05-01T15:08:05.742Z</time></trkpt><trkpt lat="38.1056003" lon="14.9264699"><ele>892.0</ele><time>2026-05-01T15:08:06.742Z</time></trkpt><trkpt lat="38.105541" lon="14.9263812"><ele>890.3333333333333</ele><time>2026-05-01T15:08:07.742Z</time></trkpt><trkpt lat="38.1054997" lon="14.9263008"><ele>888.6666666666666</ele><time>2026-05-01T15:08:08.742Z</time></trkpt><trkpt lat="38.105431" lon="14.9261979"><ele>887.0</ele><time>2026-05-01T15:08:10.742Z</time></trkpt><trkpt lat="38.1053732" lon="14.9261662"><ele>885.3333333333333</ele><time>2026-05-01T15:08:11.742Z</time></trkpt><trkpt lat="38.105294" lon="14.9261408"><ele>883.6666666666666</ele><time>2026-05-01T15:08:12.742Z</time></trkpt><trkpt lat="38.1051915" lon="14.926139"><ele>882.0</ele><time>2026-05-01T15:08:13.742Z</time></trkpt><trkpt lat="38.1050803" lon="14.926152"><ele>882.0</ele><time>2026-05-01T15:08:14.742Z</time></trkpt><trkpt lat="38.1049778" lon="14.9261655"><ele>882.0</ele><time>2026-05-01T15:08:15.741Z</time></trkpt><trkpt lat="38.1048962" lon="14.9261658"><ele>882.0</ele><time>2026-05-01T15:08:16.742Z</time></trkpt><trkpt lat="38.104829" lon="14.9261413"><ele>882.0</ele><time>2026-05-01T15:08:17.741Z</time></trkpt><trkpt lat="38.1047726" lon="14.9260931"><ele>882.0</ele><time>2026-05-01T15:08:18.742Z</time></trkpt><trkpt lat="38.1047263" lon="14.9260244"><ele>882.0</ele><time>2026-05-01T15:08:19.742Z</time></trkpt><trkpt lat="38.1047018" lon="14.9259486"><ele>882.5</ele><time>2026-05-01T15:08:20.742Z</time></trkpt><trkpt lat="38.1047005" lon="14.9258595"><ele>883.0</ele><time>2026-05-01T15:08:21.742Z</time></trkpt><trkpt lat="38.1047246" lon="14.9257567"><ele>883.5</ele><time>2026-05-01T15:08:22.741Z</time></trkpt><trkpt lat="38.1047663" lon="14.9256566"><ele>884.0</ele><time>2026-05-01T15:08:23.741Z</time></trkpt><trkpt lat="38.104805" lon="14.9255641"><ele>884.5</ele><time>2026-05-01T15:08:24.742Z</time></trkpt><trkpt lat="38.1048399" lon="14.9254643"><ele>885.0</ele><time>2026-05-01T15:08:25.742Z</time></trkpt><trkpt lat="38.1048779" lon="14.9253449"><ele>885.2</ele><time>2026-05-01T15:08:26.742Z</time></trkpt><trkpt lat="38.1049202" lon="14.9252146"><ele>885.4</ele><time>2026-05-01T15:08:27.742Z</time></trkpt><trkpt lat="38.1049599" lon="14.925089"><ele>885.5999999999999</ele><time>2026-05-01T15:08:28.742Z</time></trkpt><trkpt lat="38.1050125" lon="14.924974"><ele>885.8</ele><time>2026-05-01T15:08:29.742Z</time></trkpt><trkpt lat="38.1050756" lon="14.9248666"><ele>886.0</ele><time>2026-05-01T15:08:30.742Z</time></trkpt><trkpt lat="38.105155" lon="14.9247724"><ele>885.9999999999999</ele><time>2026-05-01T15:08:31.742Z</time></trkpt><trkpt lat="38.1052298" lon="14.9246853"><ele>886.0</ele><time>2026-05-01T15:08:32.742Z</time></trkpt><trkpt lat="38.1052946" lon="14.9246005"><ele>886.0</ele><time>2026-05-01T15:08:33.742Z</time></trkpt><trkpt lat="38.10534" lon="14.9245142"><ele>886.0</ele><time>2026-05-01T15:08:34.742Z</time></trkpt><trkpt lat="38.1053714" lon="14.9244183"><ele>885.9999999999999</ele><time>2026-05-01T15:08:35.742Z</time></trkpt><trkpt lat="38.1053934" lon="14.9243089"><ele>886.0</ele><time>2026-05-01T15:08:36.742Z</time></trkpt><trkpt lat="38.1054175" lon="14.9241803"><ele>890.1999999999999</ele><time>2026-05-01T15:08:37.742Z</time></trkpt><trkpt lat="38.1054552" lon="14.9240427"><ele>894.3999999999999</ele><time>2026-05-01T15:08:38.742Z</time></trkpt><trkpt lat="38.1054966" lon="14.9239068"><ele>898.6</ele><time>2026-05-01T15:08:39.742Z</time></trkpt><trkpt lat="38.105527" lon="14.9237818"><ele>902.8</ele><time>2026-05-01T15:08:40.741Z</time></trkpt><trkpt lat="38.1055441" lon="14.9236719"><ele>907.0</ele><time>2026-05-01T15:08:41.742Z</time></trkpt><trkpt lat="38.1055458" lon="14.9235597"><ele>907.0</ele><time>2026-05-01T15:08:42.742Z</time></trkpt><trkpt lat="38.1055253" lon="14.9234436"><ele>907.0</ele><time>2026-05-01T15:08:43.742Z</time></trkpt><trkpt lat="38.1054907" lon="14.9233168"><ele>907.0</ele><time>2026-05-01T15:08:44.742Z</time></trkpt><trkpt lat="38.1054417" lon="14.9231744"><ele>907.0</ele><time>2026-05-01T15:08:45.742Z</time></trkpt><trkpt lat="38.1053935" lon="14.9230275"><ele>907.0</ele><time>2026-05-01T15:08:46.741Z</time></trkpt><trkpt lat="38.1053478" lon="14.922884"><ele>906.8</ele><time>2026-05-01T15:08:47.742Z</time></trkpt><trkpt lat="38.1053149" lon="14.9227481"><ele>906.6</ele><time>2026-05-01T15:08:48.742Z</time></trkpt><trkpt lat="38.1052979" lon="14.9226212"><ele>906.3999999999999</ele><time>2026-05-01T15:08:49.742Z</time></trkpt><trkpt lat="38.1052818" lon="14.9225103"><ele>906.1999999999999</ele><time>2026-05-01T15:08:50.742Z</time></trkpt><trkpt lat="38.1052624" lon="14.9224071"><ele>906.0</ele><time>2026-05-01T15:08:51.741Z</time></trkpt><trkpt lat="38.1052328" lon="14.9223203"><ele>903.0</ele><time>2026-05-01T15:08:52.742Z</time></trkpt><trkpt lat="38.1052022" lon="14.9222434"><ele>899.9999999999999</ele><time>2026-05-01T15:08:53.742Z</time></trkpt><trkpt lat="38.105173" lon="14.9221138"><ele>896.9999999999999</ele><time>2026-05-01T15:08:55.741Z</time></trkpt><trkpt lat="38.1052204" lon="14.9220117"><ele>894.0</ele><time>2026-05-01T15:08:57.742Z</time></trkpt><trkpt lat="38.1053467" lon="14.9219951"><ele>891.0</ele><time>2026-05-01T15:08:59.742Z</time></trkpt><trkpt lat="38.1054301" lon="14.9220392"><ele>891.0</ele><time>2026-05-01T15:09:00.742Z</time></trkpt><trkpt lat="38.1055088" lon="14.9221162"><ele>890.9999999999999</ele><time>2026-05-01T15:09:01.742Z</time></trkpt><trkpt lat="38.1055783" lon="14.922207"><ele>890.9999999999999</ele><time>2026-05-01T15:09:02.742Z</time></trkpt><trkpt lat="38.1056346" lon="14.9222769"><ele>891.0</ele><time>2026-05-01T15:09:03.742Z</time></trkpt><trkpt lat="38.105709" lon="14.9223348"><ele>891.0</ele><time>2026-05-01T15:09:05.742Z</time></trkpt><trkpt lat="38.1057944" lon="14.9224009"><ele>887.1666666666666</ele><time>2026-05-01T15:09:08.742Z</time></trkpt><trkpt lat="38.1058833" lon="14.9224428"><ele>883.3333333333333</ele><time>2026-05-01T15:09:10.742Z</time></trkpt><trkpt lat="38.1060015" lon="14.9224609"><ele>879.5</ele><time>2026-05-01T15:09:12.742Z</time></trkpt><trkpt lat="38.1060735" lon="14.9224512"><ele>875.6666666666666</ele><time>2026-05-01T15:09:13.742Z</time></trkpt><trkpt lat="38.1061431" lon="14.922425"><ele>871.8333333333333</ele><time>2026-05-01T15:09:14.742Z</time></trkpt><trkpt lat="38.106204" lon="14.9223844"><ele>868.0</ele><time>2026-05-01T15:09:15.742Z</time></trkpt><trkpt lat="38.1063017" lon="14.9222809"><ele>867.9999999999999</ele><time>2026-05-01T15:09:17.742Z</time></trkpt><trkpt lat="38.1063558" lon="14.922231"><ele>868.0</ele><time>2026-05-01T15:09:18.742Z</time></trkpt><trkpt lat="38.1064581" lon="14.9221717"><ele>868.0</ele><time>2026-05-01T15:09:20.741Z</time></trkpt><trkpt lat="38.1065531" lon="14.9221592"><ele>868.0</ele><time>2026-05-01T15:09:22.742Z</time></trkpt><trkpt lat="38.1066373" lon="14.9221549"><ele>867.9999999999999</ele><time>2026-05-01T15:09:24.742Z</time></trkpt><trkpt lat="38.1067015" lon="14.9221517"><ele>868.0</ele><time>2026-05-01T15:09:26.741Z</time></trkpt><trkpt lat="38.1067695" lon="14.9221627"><ele>868.0</ele><time>2026-05-01T15:09:30.742Z</time></trkpt><trkpt lat="38.1068735" lon="14.9221877"><ele>868.0</ele><time>2026-05-01T15:09:44.742Z</time></trkpt><trkpt lat="38.106955" lon="14.9222138"><ele>868.0</ele><time>2026-05-01T15:09:45.742Z</time></trkpt><trkpt lat="38.1070548" lon="14.9222501"><ele>868.0</ele><time>2026-05-01T15:09:46.742Z</time></trkpt><trkpt lat="38.1071489" lon="14.9222807"><ele>868.0</ele><time>2026-05-01T15:09:47.742Z</time></trkpt><trkpt lat="38.1072366" lon="14.9222754"><ele>868.0</ele><time>2026-05-01T15:09:48.742Z</time></trkpt><trkpt lat="38.1073242" lon="14.9222488"><ele>868.0</ele><time>2026-05-01T15:09:49.742Z</time></trkpt><trkpt lat="38.1073983" lon="14.922211"><ele>868.0</ele><time>2026-05-01T15:09:50.742Z</time></trkpt><trkpt lat="38.1074581" lon="14.922155"><ele>868.0</ele><time>2026-05-01T15:09:51.742Z</time></trkpt><trkpt lat="38.1075009" lon="14.9220874"><ele>868.0</ele><time>2026-05-01T15:09:52.742Z</time></trkpt><trkpt lat="38.1075332" lon="14.9220157"><ele>868.0</ele><time>2026-05-01T15:09:53.742Z</time></trkpt><trkpt lat="38.1075616" lon="14.9219321"><ele>868.0</ele><time>2026-05-01T15:09:54.742Z</time></trkpt><trkpt lat="38.1075757" lon="14.9218299"><ele>872.2</ele><time>2026-05-01T15:09:55.742Z</time></trkpt><trkpt lat="38.1075845" lon="14.9217166"><ele>876.4</ele><time>2026-05-01T15:09:56.742Z</time></trkpt><trkpt lat="38.1075887" lon="14.9215878"><ele>880.6000000000001</ele><time>2026-05-01T15:09:57.742Z</time></trkpt><trkpt lat="38.107596" lon="14.9214472"><ele>884.8000000000001</ele><time>2026-05-01T15:09:58.742Z</time></trkpt><trkpt lat="38.1075993" lon="14.9212984"><ele>889.0</ele><time>2026-05-01T15:09:59.742Z</time></trkpt><trkpt lat="38.1075949" lon="14.92114"><ele>889.0</ele><time>2026-05-01T15:10:00.742Z</time></trkpt><trkpt lat="38.1075667" lon="14.9209768"><ele>889.0</ele><time>2026-05-01T15:10:01.742Z</time></trkpt><trkpt lat="38.1075209" lon="14.920815"><ele>889.0</ele><time>2026-05-01T15:10:02.742Z</time></trkpt><trkpt lat="38.1074698" lon="14.9206579"><ele>889.0</ele><time>2026-05-01T15:10:03.742Z</time></trkpt><trkpt lat="38.1074307" lon="14.9205204"><ele>896.4999999999999</ele><time>2026-05-01T15:10:04.742Z</time></trkpt><trkpt lat="38.1073921" lon="14.9204138"><ele>904.0</ele><time>2026-05-01T15:10:05.742Z</time></trkpt><trkpt lat="38.1073611" lon="14.9203273"><ele>911.5</ele><time>2026-05-01T15:10:06.742Z</time></trkpt><trkpt lat="38.1073138" lon="14.9202566"><ele>919.0</ele><time>2026-05-01T15:10:07.742Z</time></trkpt><trkpt lat="38.1072566" lon="14.9201851"><ele>926.4999999999999</ele><time>2026-05-01T15:10:08.742Z</time></trkpt><trkpt lat="38.1071881" lon="14.9201134"><ele>934.0</ele><time>2026-05-01T15:10:09.741Z</time></trkpt><trkpt lat="38.1071144" lon="14.9200395"><ele>934.0</ele><time>2026-05-01T15:10:10.742Z</time></trkpt><trkpt lat="38.1070435" lon="14.9199513"><ele>934.0000000000001</ele><time>2026-05-01T15:10:11.742Z</time></trkpt><trkpt lat="38.1069751" lon="14.9198572"><ele>934.0000000000001</ele><time>2026-05-01T15:10:12.742Z</time></trkpt><trkpt lat="38.1069076" lon="14.9197639"><ele>934.0</ele><time>2026-05-01T15:10:13.742Z</time></trkpt><trkpt lat="38.1068404" lon="14.9196709"><ele>934.0</ele><time>2026-05-01T15:10:14.742Z</time></trkpt><trkpt lat="38.1067757" lon="14.9195674"><ele>934.0</ele><time>2026-05-01T15:10:15.742Z</time></trkpt><trkpt lat="38.1067105" lon="14.9194504"><ele>934.0000000000001</ele><time>2026-05-01T15:10:16.742Z</time></trkpt><trkpt lat="38.1066392" lon="14.9193288"><ele>934.0000000000001</ele><time>2026-05-01T15:10:17.742Z</time></trkpt><trkpt lat="38.1065718" lon="14.9192188"><ele>934.0</ele><time>2026-05-01T15:10:18.742Z</time></trkpt><trkpt lat="38.1065242" lon="14.9191284"><ele>934.0</ele><time>2026-05-01T15:10:19.742Z</time></trkpt><trkpt lat="38.1064903" lon="14.9190484"><ele>931.2</ele><time>2026-05-01T15:10:20.742Z</time></trkpt><trkpt lat="38.1064744" lon="14.9189108"><ele>928.4000000000001</ele><time>2026-05-01T15:10:22.742Z</time></trkpt><trkpt lat="38.1065336" lon="14.9188155"><ele>925.6</ele><time>2026-05-01T15:10:24.742Z</time></trkpt><trkpt lat="38.1066571" lon="14.9187996"><ele>922.8</ele><time>2026-05-01T15:10:26.742Z</time></trkpt><trkpt lat="38.1067295" lon="14.9188257"><ele>920.0</ele><time>2026-05-01T15:10:27.741Z</time></trkpt><trkpt lat="38.1068072" lon="14.9188543"><ele>920.0000000000001</ele><time>2026-05-01T15:10:28.742Z</time></trkpt><trkpt lat="38.1068774" lon="14.918878"><ele>920.0</ele><time>2026-05-01T15:10:29.742Z</time></trkpt><trkpt lat="38.1069434" lon="14.9188891"><ele>920.0</ele><time>2026-05-01T15:10:30.742Z</time></trkpt><trkpt lat="38.1070655" lon="14.9188911"><ele>920.0</ele><time>2026-05-01T15:10:32.742Z</time></trkpt><trkpt lat="38.1071677" lon="14.9188732"><ele>920.0000000000001</ele><time>2026-05-01T15:10:34.742Z</time></trkpt><trkpt lat="38.1072503" lon="14.9188538"><ele>920.0</ele><time>2026-05-01T15:10:36.742Z</time></trkpt><trkpt lat="38.1073262" lon="14.9188563"><ele>920.0</ele><time>2026-05-01T15:10:38.742Z</time></trkpt><trkpt lat="38.1074015" lon="14.9188629"><ele>920.0</ele><time>2026-05-01T15:10:40.741Z</time></trkpt><trkpt lat="38.107485" lon="14.9188623"><ele>920.0</ele><time>2026-05-01T15:10:42.741Z</time></trkpt><trkpt lat="38.1075885" lon="14.9188675"><ele>920.0</ele><time>2026-05-01T15:10:44.742Z</time></trkpt><trkpt lat="38.1077006" lon="14.9188854"><ele>920.0</ele><time>2026-05-01T15:10:46.742Z</time></trkpt><trkpt lat="38.1078038" lon="14.9189124"><ele>913.0</ele><time>2026-05-01T15:10:48.742Z</time></trkpt><trkpt lat="38.1078675" lon="14.9188903"><ele>906.0</ele><time>2026-05-01T15:10:52.742Z</time></trkpt><trkpt lat="38.1077969" lon="14.9188758"><ele>899.0</ele><time>2026-05-01T15:10:56.742Z</time></trkpt><trkpt lat="38.1076758" lon="14.9188424"><ele>892.0</ele><time>2026-05-01T15:10:58.742Z</time></trkpt><trkpt lat="38.1075847" lon="14.918821"><ele>885.0</ele><time>2026-05-01T15:10:59.742Z</time></trkpt><trkpt lat="38.1074847" lon="14.91881"><ele>892.0</ele><time>2026-05-01T15:11:00.742Z</time></trkpt><trkpt lat="38.1073866" lon="14.9188016"><ele>899.0</ele><time>2026-05-01T15:11:01.742Z</time></trkpt><trkpt lat="38.1072968" lon="14.9188017"><ele>906.0</ele><time>2026-05-01T15:11:02.742Z</time></trkpt><trkpt lat="38.1072043" lon="14.9188016"><ele>913.0</ele><time>2026-05-01T15:11:03.742Z</time></trkpt><trkpt lat="38.107104" lon="14.9188213"><ele>920.0</ele><time>2026-05-01T15:11:04.742Z</time></trkpt><trkpt lat="38.1070015" lon="14.9188378"><ele>920.0000000000001</ele><time>2026-05-01T15:11:05.742Z</time></trkpt><trkpt lat="38.1068975" lon="14.9188306"><ele>920.0</ele><time>2026-05-01T15:11:06.742Z</time></trkpt><trkpt lat="38.1067971" lon="14.9188153"><ele>920.0</ele><time>2026-05-01T15:11:07.742Z</time></trkpt><trkpt lat="38.1067103" lon="14.9188032"><ele>920.0</ele><time>2026-05-01T15:11:08.742Z</time></trkpt><trkpt lat="38.1066393" lon="14.9188066"><ele>920.0000000000001</ele><time>2026-05-01T15:11:09.742Z</time></trkpt><trkpt lat="38.1065773" lon="14.9188246"><ele>920.0</ele><time>2026-05-01T15:11:10.742Z</time></trkpt><trkpt lat="38.1065087" lon="14.9189367"><ele>922.8</ele><time>2026-05-01T15:11:12.742Z</time></trkpt><trkpt lat="38.1065135" lon="14.9190237"><ele>925.6</ele><time>2026-05-01T15:11:13.742Z</time></trkpt><trkpt lat="38.1065473" lon="14.9191348"><ele>928.4000000000001</ele><time>2026-05-01T15:11:14.742Z</time></trkpt><trkpt lat="38.1066191" lon="14.9192661"><ele>931.2</ele><time>2026-05-01T15:11:15.742Z</time></trkpt><trkpt lat="38.106706" lon="14.9193931"><ele>934.0</ele><time>2026-05-01T15:11:16.742Z</time></trkpt><trkpt lat="38.1067879" lon="14.9195087"><ele>933.9999999999999</ele><time>2026-05-01T15:11:17.742Z</time></trkpt><trkpt lat="38.1068549" lon="14.9195977"><ele>934.0</ele><time>2026-05-01T15:11:18.741Z</time></trkpt><trkpt lat="38.1069147" lon="14.9196708"><ele>934.0</ele><time>2026-05-01T15:11:19.742Z</time></trkpt><trkpt lat="38.1069691" lon="14.9197395"><ele>934.0</ele><time>2026-05-01T15:11:20.742Z</time></trkpt><trkpt lat="38.1070082" lon="14.9198089"><ele>933.9999999999999</ele><time>2026-05-01T15:11:21.741Z</time></trkpt><trkpt lat="38.1070668" lon="14.9199401"><ele>934.0</ele><time>2026-05-01T15:11:23.742Z</time></trkpt><trkpt lat="38.1071136" lon="14.9200418"><ele>935.3333333333333</ele><time>2026-05-01T15:11:25.742Z</time></trkpt><trkpt lat="38.1071576" lon="14.9201159"><ele>936.6666666666666</ele><time>2026-05-01T15:11:28.741Z</time></trkpt><trkpt lat="38.1072086" lon="14.9201724"><ele>938.0</ele><time>2026-05-01T15:11:35.743Z</time></trkpt><trkpt lat="38.1071975" lon="14.920092"><ele>939.3333333333333</ele><time>2026-05-01T15:11:48.743Z</time></trkpt><trkpt lat="38.1072636" lon="14.9202114"><ele>940.6666666666666</ele><time>2026-05-01T15:17:04.744Z</time></trkpt><trkpt lat="38.1073218" lon="14.9202786"><ele>942.0</ele><time>2026-05-01T15:17:05.744Z</time></trkpt><trkpt lat="38.1073728" lon="14.9203414"><ele>931.8</ele><time>2026-05-01T15:17:06.744Z</time></trkpt><trkpt lat="38.1074294" lon="14.920472"><ele>921.6</ele><time>2026-05-01T15:17:08.744Z</time></trkpt><trkpt lat="38.1074447" lon="14.9205627"><ele>911.3999999999999</ele><time>2026-05-01T15:17:09.744Z</time></trkpt><trkpt lat="38.1074652" lon="14.9206735"><ele>901.1999999999999</ele><time>2026-05-01T15:17:10.744Z</time></trkpt><trkpt lat="38.1074955" lon="14.920806"><ele>891.0</ele><time>2026-05-01T15:17:11.744Z</time></trkpt><trkpt lat="38.107527" lon="14.9209393"><ele>890.6666666666666</ele><time>2026-05-01T15:17:12.744Z</time></trkpt><trkpt lat="38.1075482" lon="14.9210547"><ele>890.3333333333333</ele><time>2026-05-01T15:17:13.744Z</time></trkpt><trkpt lat="38.1075644" lon="14.9211491"><ele>890.0</ele><time>2026-05-01T15:17:14.744Z</time></trkpt><trkpt lat="38.1075786" lon="14.9213019"><ele>889.6666666666666</ele><time>2026-05-01T15:17:16.744Z</time></trkpt><trkpt lat="38.1076449" lon="14.9212959"><ele>889.3333333333333</ele><time>2026-05-01T15:17:20.744Z</time></trkpt><trkpt lat="38.1076443" lon="14.92119"><ele>889.0</ele><time>2026-05-01T15:17:21.744Z</time></trkpt><trkpt lat="38.107619" lon="14.921037"><ele>889.5</ele><time>2026-05-01T15:17:22.744Z</time></trkpt><trkpt lat="38.1075777" lon="14.9208556"><ele>890.0</ele><time>2026-05-01T15:17:23.744Z</time></trkpt><trkpt lat="38.1075334" lon="14.9206784"><ele>890.5</ele><time>2026-05-01T15:17:24.744Z</time></trkpt><trkpt lat="38.1074876" lon="14.9205226"><ele>891.0</ele><time>2026-05-01T15:17:25.744Z</time></trkpt><trkpt lat="38.1074508" lon="14.9204055"><ele>891.0</ele><time>2026-05-01T15:17:26.744Z</time></trkpt><trkpt lat="38.1074124" lon="14.9203143"><ele>891.0</ele><time>2026-05-01T15:17:27.744Z</time></trkpt><trkpt lat="38.1073578" lon="14.9202417"><ele>891.0</ele><time>2026-05-01T15:17:28.744Z</time></trkpt><trkpt lat="38.1072992" lon="14.9201921"><ele>891.0</ele><time>2026-05-01T15:17:29.744Z</time></trkpt><trkpt lat="38.1072086" lon="14.9201519"><ele>891.0</ele><time>2026-05-01T15:17:31.744Z</time></trkpt><trkpt lat="38.1072623" lon="14.9202026"><ele>891.0</ele><time>2026-05-01T15:20:09.744Z</time></trkpt><trkpt lat="38.1073093" lon="14.9202613"><ele>899.5999999999999</ele><time>2026-05-01T15:20:11.744Z</time></trkpt><trkpt lat="38.1073655" lon="14.9203221"><ele>908.1999999999999</ele><time>2026-05-01T15:20:13.745Z</time></trkpt><trkpt lat="38.1072817" lon="14.9202517"><ele>916.8000000000001</ele><time>2026-05-01T15:20:34.745Z</time></trkpt><trkpt lat="38.1072017" lon="14.9201617"><ele>925.4000000000001</ele><time>2026-05-01T15:20:36.744Z</time></trkpt><trkpt lat="38.1071033" lon="14.9200533"><ele>934.0</ele><time>2026-05-01T15:20:38.745Z</time></trkpt><trkpt lat="38.107055" lon="14.9199717"><ele>933.9999999999999</ele><time>2026-05-01T15:20:39.745Z</time></trkpt><trkpt lat="38.1070167" lon="14.919885"><ele>934.0</ele><time>2026-05-01T15:20:40.745Z</time></trkpt><trkpt lat="38.10698" lon="14.9198"><ele>934.0</ele><time>2026-05-01T15:20:41.745Z</time></trkpt><trkpt lat="38.106935" lon="14.9197283"><ele>934.0</ele><time>2026-05-01T15:20:42.745Z</time></trkpt><trkpt lat="38.1068883" lon="14.9196633"><ele>933.9999999999999</ele><time>2026-05-01T15:20:43.745Z</time></trkpt><trkpt lat="38.1068367" lon="14.9195967"><ele>934.0</ele><time>2026-05-01T15:20:44.745Z</time></trkpt><trkpt lat="38.1067833" lon="14.9195183"><ele>933.9999999999999</ele><time>2026-05-01T15:20:45.745Z</time></trkpt><trkpt lat="38.1067417" lon="14.9194267"><ele>934.0</ele><time>2026-05-01T15:20:46.745Z</time></trkpt><trkpt lat="38.1066967" lon="14.9193433"><ele>934.0</ele><time>2026-05-01T15:20:47.745Z</time></trkpt><trkpt lat="38.1066467" lon="14.9192633"><ele>934.0</ele><time>2026-05-01T15:20:48.745Z</time></trkpt><trkpt lat="38.1065967" lon="14.91919"><ele>933.9999999999999</ele><time>2026-05-01T15:20:49.745Z</time></trkpt><trkpt lat="38.1065217" lon="14.9190817"><ele>934.0</ele><time>2026-05-01T15:20:51.745Z</time></trkpt><trkpt lat="38.1065083" lon="14.9189633"><ele>931.2</ele><time>2026-05-01T15:20:53.745Z</time></trkpt><trkpt lat="38.1065933" lon="14.9188733"><ele>928.4000000000001</ele><time>2026-05-01T15:20:55.744Z</time></trkpt><trkpt lat="38.1066883" lon="14.9188533"><ele>925.6</ele><time>2026-05-01T15:20:56.745Z</time></trkpt><trkpt lat="38.1067983" lon="14.9188567"><ele>922.8</ele><time>2026-05-01T15:20:57.745Z</time></trkpt><trkpt lat="38.1069083" lon="14.9188633"><ele>920.0</ele><time>2026-05-01T15:20:58.745Z</time></trkpt><trkpt lat="38.1070033" lon="14.9188667"><ele>920.0</ele><time>2026-05-01T15:20:59.745Z</time></trkpt><trkpt lat="38.1070833" lon="14.91886"><ele>920.0</ele><time>2026-05-01T15:21:00.745Z</time></trkpt><trkpt lat="38.1071617" lon="14.9188433"><ele>920.0</ele><time>2026-05-01T15:21:01.745Z</time></trkpt><trkpt lat="38.1072767" lon="14.9188333"><ele>920.0</ele><time>2026-05-01T15:21:03.745Z</time></trkpt><trkpt lat="38.10741" lon="14.9188433"><ele>920.0</ele><time>2026-05-01T15:21:05.745Z</time></trkpt><trkpt lat="38.1075083" lon="14.9188483"><ele>914.1666666666667</ele><time>2026-05-01T15:21:06.745Z</time></trkpt><trkpt lat="38.1076067" lon="14.918835"><ele>908.3333333333334</ele><time>2026-05-01T15:21:07.745Z</time></trkpt><trkpt lat="38.1076917" lon="14.918835"><ele>902.5</ele><time>2026-05-01T15:21:08.745Z</time></trkpt><trkpt lat="38.10777" lon="14.9188433"><ele>896.6666666666667</ele><time>2026-05-01T15:21:09.744Z</time></trkpt><trkpt lat="38.1078383" lon="14.9188433"><ele>890.8333333333334</ele><time>2026-05-01T15:21:10.745Z</time></trkpt><trkpt lat="38.1079017" lon="14.9188283"><ele>885.0</ele><time>2026-05-01T15:21:11.745Z</time></trkpt><trkpt lat="38.1080183" lon="14.9187583"><ele>885.0</ele><time>2026-05-01T15:21:13.745Z</time></trkpt><trkpt lat="38.10808" lon="14.9187067"><ele>885.0</ele><time>2026-05-01T15:21:14.745Z</time></trkpt><trkpt lat="38.1081417" lon="14.918655"><ele>885.0</ele><time>2026-05-01T15:21:15.744Z</time></trkpt><trkpt lat="38.108195" lon="14.9186"><ele>885.0</ele><time>2026-05-01T15:21:16.745Z</time></trkpt><trkpt lat="38.10825" lon="14.918555"><ele>885.0</ele><time>2026-05-01T15:21:17.745Z</time></trkpt><trkpt lat="38.1083183" lon="14.918535"><ele>885.0</ele><time>2026-05-01T15:21:18.745Z</time></trkpt><trkpt lat="38.1084133" lon="14.9185933"><ele>881.2</ele><time>2026-05-01T15:21:20.745Z</time></trkpt><trkpt lat="38.1084583" lon="14.9187217"><ele>877.4</ele><time>2026-05-01T15:21:22.745Z</time></trkpt><trkpt lat="38.108525" lon="14.9187783"><ele>873.5999999999999</ele><time>2026-05-01T15:21:24.745Z</time></trkpt><trkpt lat="38.10861" lon="14.9187617"><ele>869.8</ele><time>2026-05-01T15:21:26.745Z</time></trkpt><trkpt lat="38.1087333" lon="14.9187267"><ele>866.0</ele><time>2026-05-01T15:21:28.745Z</time></trkpt><trkpt lat="38.1088017" lon="14.9187217"><ele>865.9999999999999</ele><time>2026-05-01T15:21:29.745Z</time></trkpt><trkpt lat="38.1088783" lon="14.9187117"><ele>866.0</ele><time>2026-05-01T15:21:30.745Z</time></trkpt><trkpt lat="38.1089583" lon="14.9186917"><ele>866.0</ele><time>2026-05-01T15:21:31.745Z</time></trkpt><trkpt lat="38.1090283" lon="14.918665"><ele>866.0</ele><time>2026-05-01T15:21:32.745Z</time></trkpt><trkpt lat="38.1090933" lon="14.918635"><ele>866.0</ele><time>2026-05-01T15:21:33.745Z</time></trkpt><trkpt lat="38.1091683" lon="14.91862"><ele>865.9999999999999</ele><time>2026-05-01T15:21:34.745Z</time></trkpt><trkpt lat="38.109235" lon="14.9185917"><ele>866.0</ele><time>2026-05-01T15:21:35.745Z</time></trkpt><trkpt lat="38.1093067" lon="14.9185833"><ele>869.8333333333334</ele><time>2026-05-01T15:21:36.745Z</time></trkpt><trkpt lat="38.1093683" lon="14.918565"><ele>873.6666666666667</ele><time>2026-05-01T15:21:37.745Z</time></trkpt><trkpt lat="38.109485" lon="14.918505"><ele>877.5</ele><time>2026-05-01T15:21:39.745Z</time></trkpt><trkpt lat="38.1095433" lon="14.9184583"><ele>881.3333333333333</ele><time>2026-05-01T15:21:40.745Z</time></trkpt><trkpt lat="38.1096033" lon="14.9183933"><ele>885.1666666666666</ele><time>2026-05-01T15:21:41.745Z</time></trkpt><trkpt lat="38.1096683" lon="14.9183367"><ele>889.0</ele><time>2026-05-01T15:21:42.745Z</time></trkpt><trkpt lat="38.1097267" lon="14.91829"><ele>889.0</ele><time>2026-05-01T15:21:43.744Z</time></trkpt><trkpt lat="38.109795" lon="14.91825"><ele>889.0000000000001</ele><time>2026-05-01T15:21:44.745Z</time></trkpt><trkpt lat="38.1098583" lon="14.9182317"><ele>889.0000000000001</ele><time>2026-05-01T15:21:45.745Z</time></trkpt><trkpt lat="38.1099617" lon="14.9182367"><ele>889.0</ele><time>2026-05-01T15:21:47.745Z</time></trkpt><trkpt lat="38.1100933" lon="14.918275"><ele>889.0</ele><time>2026-05-01T15:21:49.745Z</time></trkpt><trkpt lat="38.1101683" lon="14.9182767"><ele>883.6</ele><time>2026-05-01T15:21:50.745Z</time></trkpt><trkpt lat="38.11025" lon="14.9182917"><ele>878.2</ele><time>2026-05-01T15:21:51.745Z</time></trkpt><trkpt lat="38.11034" lon="14.9183217"><ele>872.8000000000001</ele><time>2026-05-01T15:21:52.745Z</time></trkpt><trkpt lat="38.11046" lon="14.918365"><ele>867.4000000000001</ele><time>2026-05-01T15:21:53.745Z</time></trkpt><trkpt lat="38.110595" lon="14.9184033"><ele>862.0</ele><time>2026-05-01T15:21:54.745Z</time></trkpt><trkpt lat="38.1107283" lon="14.9184683"><ele>852.4000000000001</ele><time>2026-05-01T15:21:55.745Z</time></trkpt><trkpt lat="38.1108417" lon="14.918545"><ele>842.8000000000001</ele><time>2026-05-01T15:21:56.745Z</time></trkpt><trkpt lat="38.1109267" lon="14.918635"><ele>833.2</ele><time>2026-05-01T15:21:57.745Z</time></trkpt><trkpt lat="38.1110117" lon="14.9187017"><ele>823.6</ele><time>2026-05-01T15:21:58.745Z</time></trkpt><trkpt lat="38.1111017" lon="14.9187367"><ele>814.0</ele><time>2026-05-01T15:21:59.745Z</time></trkpt><trkpt lat="38.111205" lon="14.918745"><ele>813.9999999999999</ele><time>2026-05-01T15:22:00.745Z</time></trkpt><trkpt lat="38.1112933" lon="14.9187133"><ele>814.0</ele><time>2026-05-01T15:22:01.745Z</time></trkpt><trkpt lat="38.1113733" lon="14.9186633"><ele>814.0</ele><time>2026-05-01T15:22:02.745Z</time></trkpt><trkpt lat="38.1114383" lon="14.9186233"><ele>814.0</ele><time>2026-05-01T15:22:03.744Z</time></trkpt><trkpt lat="38.1115533" lon="14.9186217"><ele>813.9999999999999</ele><time>2026-05-01T15:22:05.745Z</time></trkpt><trkpt lat="38.1116283" lon="14.9186567"><ele>814.0</ele><time>2026-05-01T15:22:06.745Z</time></trkpt><trkpt lat="38.1116933" lon="14.9187217"><ele>818.0</ele><time>2026-05-01T15:22:07.745Z</time></trkpt><trkpt lat="38.111785" lon="14.9188017"><ele>822.0</ele><time>2026-05-01T15:22:08.745Z</time></trkpt><trkpt lat="38.11189" lon="14.9189"><ele>826.0</ele><time>2026-05-01T15:22:09.745Z</time></trkpt><trkpt lat="38.111995" lon="14.9190067"><ele>830.0</ele><time>2026-05-01T15:22:10.745Z</time></trkpt><trkpt lat="38.1120767" lon="14.9191233"><ele>827.4</ele><time>2026-05-01T15:22:11.745Z</time></trkpt><trkpt lat="38.1121483" lon="14.9192367"><ele>824.8</ele><time>2026-05-01T15:22:12.745Z</time></trkpt><trkpt lat="38.1122217" lon="14.91934"><ele>822.2</ele><time>2026-05-01T15:22:13.745Z</time></trkpt><trkpt lat="38.1123033" lon="14.919435"><ele>819.6</ele><time>2026-05-01T15:22:14.745Z</time></trkpt><trkpt lat="38.112375" lon="14.9195017"><ele>817.0</ele><time>2026-05-01T15:22:15.745Z</time></trkpt><trkpt lat="38.1124483" lon="14.9195533"><ele>816.9999999999999</ele><time>2026-05-01T15:22:16.745Z</time></trkpt><trkpt lat="38.1125133" lon="14.9195783"><ele>817.0</ele><time>2026-05-01T15:22:17.745Z</time></trkpt><trkpt lat="38.112585" lon="14.9195683"><ele>817.0</ele><time>2026-05-01T15:22:18.745Z</time></trkpt><trkpt lat="38.1126517" lon="14.919555"><ele>817.0</ele><time>2026-05-01T15:22:19.745Z</time></trkpt><trkpt lat="38.1127133" lon="14.9195267"><ele>817.0</ele><time>2026-05-01T15:22:20.745Z</time></trkpt><trkpt lat="38.1127717" lon="14.9194917"><ele>816.9999999999999</ele><time>2026-05-01T15:22:21.745Z</time></trkpt><trkpt lat="38.1128383" lon="14.9194517"><ele>817.0</ele><time>2026-05-01T15:22:22.745Z</time></trkpt><trkpt lat="38.1129083" lon="14.9194017"><ele>816.9999999999999</ele><time>2026-05-01T15:22:23.745Z</time></trkpt><trkpt lat="38.112995" lon="14.919355"><ele>817.0</ele><time>2026-05-01T15:22:24.745Z</time></trkpt><trkpt lat="38.11309" lon="14.9193083"><ele>817.0</ele><time>2026-05-01T15:22:25.745Z</time></trkpt><trkpt lat="38.11318" lon="14.9192633"><ele>817.0</ele><time>2026-05-01T15:22:26.745Z</time></trkpt><trkpt lat="38.1132517" lon="14.919235"><ele>816.9999999999999</ele><time>2026-05-01T15:22:27.745Z</time></trkpt><trkpt lat="38.1133167" lon="14.9192067"><ele>817.0</ele><time>2026-05-01T15:22:28.745Z</time></trkpt><trkpt lat="38.1133717" lon="14.9191567"><ele>822.8333333333333</ele><time>2026-05-01T15:22:30.745Z</time></trkpt><trkpt lat="38.1132817" lon="14.9190917"><ele>828.6666666666666</ele><time>2026-05-01T15:22:33.745Z</time></trkpt><trkpt lat="38.1131967" lon="14.9190933"><ele>834.5</ele><time>2026-05-01T15:22:34.745Z</time></trkpt><trkpt lat="38.1131083" lon="14.9191017"><ele>840.3333333333333</ele><time>2026-05-01T15:22:35.745Z</time></trkpt><trkpt lat="38.1130233" lon="14.9191033"><ele>846.1666666666666</ele><time>2026-05-01T15:22:36.745Z</time></trkpt><trkpt lat="38.1129517" lon="14.9191167"><ele>852.0</ele><time>2026-05-01T15:22:37.745Z</time></trkpt><trkpt lat="38.1128367" lon="14.91911"><ele>853.1666666666666</ele><time>2026-05-01T15:22:39.745Z</time></trkpt><trkpt lat="38.112825" lon="14.9190283"><ele>854.3333333333333</ele><time>2026-05-01T15:22:42.745Z</time></trkpt><trkpt lat="38.1129067" lon="14.9189367"><ele>855.5</ele><time>2026-05-01T15:22:44.745Z</time></trkpt><trkpt lat="38.1129633" lon="14.9188633"><ele>856.6666666666666</ele><time>2026-05-01T15:22:45.745Z</time></trkpt><trkpt lat="38.11302" lon="14.918785"><ele>857.8333333333333</ele><time>2026-05-01T15:22:46.745Z</time></trkpt><trkpt lat="38.11308" lon="14.91872"><ele>859.0</ele><time>2026-05-01T15:22:47.745Z</time></trkpt><trkpt lat="38.1131333" lon="14.9186717"><ele>859.0</ele><time>2026-05-01T15:22:48.745Z</time></trkpt><trkpt lat="38.1131933" lon="14.9186317"><ele>859.0000000000001</ele><time>2026-05-01T15:22:49.745Z</time></trkpt><trkpt lat="38.1132683" lon="14.9185967"><ele>859.0000000000001</ele><time>2026-05-01T15:22:50.745Z</time></trkpt><trkpt lat="38.11335" lon="14.918545"><ele>859.0</ele><time>2026-05-01T15:22:51.745Z</time></trkpt><trkpt lat="38.1134367" lon="14.9184683"><ele>859.0</ele><time>2026-05-01T15:22:52.745Z</time></trkpt><trkpt lat="38.1135183" lon="14.9183767"><ele>865.75</ele><time>2026-05-01T15:22:53.745Z</time></trkpt><trkpt lat="38.1136" lon="14.9182717"><ele>872.5</ele><time>2026-05-01T15:22:54.745Z</time></trkpt><trkpt lat="38.113695" lon="14.9181567"><ele>879.25</ele><time>2026-05-01T15:22:55.745Z</time></trkpt><trkpt lat="38.1137833" lon="14.918065"><ele>886.0</ele><time>2026-05-01T15:22:56.744Z</time></trkpt><trkpt lat="38.1138667" lon="14.9179933"><ele>886.0</ele><time>2026-05-01T15:22:57.745Z</time></trkpt><trkpt lat="38.1139417" lon="14.9179133"><ele>885.9999999999999</ele><time>2026-05-01T15:22:58.745Z</time></trkpt><trkpt lat="38.1140067" lon="14.9178033"><ele>885.9999999999999</ele><time>2026-05-01T15:22:59.745Z</time></trkpt><trkpt lat="38.1140667" lon="14.9176867"><ele>886.0</ele><time>2026-05-01T15:23:00.744Z</time></trkpt><trkpt lat="38.114125" lon="14.9175633"><ele>886.0</ele><time>2026-05-01T15:23:01.745Z</time></trkpt><trkpt lat="38.1141833" lon="14.9174283"><ele>885.5999999999999</ele><time>2026-05-01T15:23:02.745Z</time></trkpt><trkpt lat="38.1142117" lon="14.917295"><ele>885.1999999999999</ele><time>2026-05-01T15:23:03.745Z</time></trkpt><trkpt lat="38.11423" lon="14.917175"><ele>884.8000000000001</ele><time>2026-05-01T15:23:04.745Z</time></trkpt><trkpt lat="38.1142183" lon="14.9170683"><ele>884.4000000000001</ele><time>2026-05-01T15:23:05.745Z</time></trkpt><trkpt lat="38.1141917" lon="14.9169733"><ele>884.0</ele><time>2026-05-01T15:23:06.745Z</time></trkpt><trkpt lat="38.1141317" lon="14.9168733"><ele>889.3333333333334</ele><time>2026-05-01T15:23:07.745Z</time></trkpt><trkpt lat="38.114065" lon="14.9167667"><ele>894.6666666666667</ele><time>2026-05-01T15:23:08.745Z</time></trkpt><trkpt lat="38.1140083" lon="14.9166683"><ele>900.0</ele><time>2026-05-01T15:23:09.745Z</time></trkpt><trkpt lat="38.1139583" lon="14.9165717"><ele>905.3333333333333</ele><time>2026-05-01T15:23:10.745Z</time></trkpt><trkpt lat="38.113925" lon="14.916485"><ele>910.6666666666666</ele><time>2026-05-01T15:23:11.745Z</time></trkpt><trkpt lat="38.113915" lon="14.916385"><ele>916.0</ele><time>2026-05-01T15:23:12.745Z</time></trkpt><trkpt lat="38.1139267" lon="14.9162833"><ele>917.3333333333333</ele><time>2026-05-01T15:23:13.745Z</time></trkpt><trkpt lat="38.1139433" lon="14.9161967"><ele>918.6666666666666</ele><time>2026-05-01T15:23:14.745Z</time></trkpt><trkpt lat="38.1139817" lon="14.9161117"><ele>920.0</ele><time>2026-05-01T15:23:16.745Z</time></trkpt><trkpt lat="38.1140567" lon="14.91608"><ele>921.3333333333333</ele><time>2026-05-01T15:23:18.745Z</time></trkpt><trkpt lat="38.1141433" lon="14.9160733"><ele>922.6666666666666</ele><time>2026-05-01T15:23:20.745Z</time></trkpt><trkpt lat="38.1142067" lon="14.9160433"><ele>924.0</ele><time>2026-05-01T15:23:22.745Z</time></trkpt><trkpt lat="38.1142567" lon="14.9159633"><ele>919.0</ele><time>2026-05-01T15:23:24.745Z</time></trkpt><trkpt lat="38.1142667" lon="14.91587"><ele>914.0</ele><time>2026-05-01T15:23:26.745Z</time></trkpt><trkpt lat="38.1142667" lon="14.9157583"><ele>909.0</ele><time>2026-05-01T15:23:29.745Z</time></trkpt><trkpt lat="38.1143133" lon="14.9156617"><ele>904.0</ele><time>2026-05-01T15:23:32.745Z</time></trkpt><trkpt lat="38.11439" lon="14.9156033"><ele>899.0</ele><time>2026-05-01T15:23:34.745Z</time></trkpt><trkpt lat="38.11446" lon="14.9155583"><ele>894.0</ele><time>2026-05-01T15:23:36.745Z</time></trkpt><trkpt lat="38.1145367" lon="14.915545"><ele>894.0</ele><time>2026-05-01T15:23:38.745Z</time></trkpt><trkpt lat="38.1146233" lon="14.915525"><ele>894.0</ele><time>2026-05-01T15:23:40.745Z</time></trkpt><trkpt lat="38.1147043" lon="14.9154946"><ele>894.0</ele><time>2026-05-01T15:26:10.746Z</time></trkpt><trkpt lat="38.1145945" lon="14.9155312"><ele>894.0</ele><time>2026-05-01T15:26:31.745Z</time></trkpt><trkpt lat="38.1145202" lon="14.9155523"><ele>894.0</ele><time>2026-05-01T15:26:32.746Z</time></trkpt><trkpt lat="38.1144364" lon="14.9155742"><ele>894.0</ele><time>2026-05-01T15:26:33.746Z</time></trkpt><trkpt lat="38.1143517" lon="14.9155961"><ele>894.0</ele><time>2026-05-01T15:26:34.746Z</time></trkpt><trkpt lat="38.1142601" lon="14.9156228"><ele>894.0000000000001</ele><time>2026-05-01T15:26:35.746Z</time></trkpt><trkpt lat="38.1141697" lon="14.9156508"><ele>894.0000000000001</ele><time>2026-05-01T15:26:36.746Z</time></trkpt><trkpt lat="38.1140841" lon="14.9156905"><ele>894.0</ele><time>2026-05-01T15:26:37.745Z</time></trkpt><trkpt lat="38.1140012" lon="14.9157312"><ele>894.0</ele><time>2026-05-01T15:26:38.746Z</time></trkpt><trkpt lat="38.1139156" lon="14.9157795"><ele>898.1666666666666</ele><time>2026-05-01T15:26:39.745Z</time></trkpt><trkpt lat="38.1138388" lon="14.9158175"><ele>902.3333333333333</ele><time>2026-05-01T15:26:40.746Z</time></trkpt><trkpt lat="38.1137681" lon="14.9158498"><ele>906.5</ele><time>2026-05-01T15:26:41.745Z</time></trkpt><trkpt lat="38.1136877" lon="14.9159005"><ele>910.6666666666666</ele><time>2026-05-01T15:26:42.746Z</time></trkpt><trkpt lat="38.1136031" lon="14.915959"><ele>914.8333333333333</ele><time>2026-05-01T15:26:43.746Z</time></trkpt><trkpt lat="38.1135301" lon="14.9160093"><ele>919.0</ele><time>2026-05-01T15:26:44.746Z</time></trkpt><trkpt lat="38.1134662" lon="14.9160512"><ele>919.8333333333333</ele><time>2026-05-01T15:26:45.746Z</time></trkpt><trkpt lat="38.1133995" lon="14.9160871"><ele>920.6666666666666</ele><time>2026-05-01T15:26:46.746Z</time></trkpt><trkpt lat="38.1133367" lon="14.916116"><ele>921.5</ele><time>2026-05-01T15:26:47.746Z</time></trkpt><trkpt lat="38.113275" lon="14.9161333"><ele>922.3333333333333</ele><time>2026-05-01T15:26:48.746Z</time></trkpt><trkpt lat="38.1131565" lon="14.9161552"><ele>923.1666666666666</ele><time>2026-05-01T15:26:50.746Z</time></trkpt><trkpt lat="38.1130885" lon="14.9161735"><ele>924.0</ele><time>2026-05-01T15:26:51.746Z</time></trkpt><trkpt lat="38.1130213" lon="14.9161957"><ele>928.2857142857142</ele><time>2026-05-01T15:26:52.746Z</time></trkpt><trkpt lat="38.1129581" lon="14.9162191"><ele>932.5714285714286</ele><time>2026-05-01T15:26:53.746Z</time></trkpt><trkpt lat="38.1128952" lon="14.916254"><ele>936.8571428571429</ele><time>2026-05-01T15:26:54.746Z</time></trkpt><trkpt lat="38.112831" lon="14.9162919"><ele>941.1428571428571</ele><time>2026-05-01T15:26:55.746Z</time></trkpt><trkpt lat="38.1127631" lon="14.9163269"><ele>945.4285714285713</ele><time>2026-05-01T15:26:56.746Z</time></trkpt><trkpt lat="38.1126917" lon="14.9163537"><ele>949.7142857142857</ele><time>2026-05-01T15:26:57.746Z</time></trkpt><trkpt lat="38.1126159" lon="14.9163748"><ele>954.0</ele><time>2026-05-01T15:26:58.746Z</time></trkpt><trkpt lat="38.1125388" lon="14.9163907"><ele>954.0</ele><time>2026-05-01T15:26:59.746Z</time></trkpt><trkpt lat="38.1124724" lon="14.9164021"><ele>953.9999999999999</ele><time>2026-05-01T15:27:00.746Z</time></trkpt><trkpt lat="38.1124087" lon="14.9164282"><ele>954.0</ele><time>2026-05-01T15:27:02.746Z</time></trkpt><trkpt lat="38.1124776" lon="14.9164253"><ele>954.0</ele><time>2026-05-01T15:27:08.746Z</time></trkpt><trkpt lat="38.1125467" lon="14.9164267"><ele>953.9999999999999</ele><time>2026-05-01T15:28:20.746Z</time></trkpt><trkpt lat="38.1126067" lon="14.9163983"><ele>954.0</ele><time>2026-05-01T15:28:22.746Z</time></trkpt><trkpt lat="38.1126867" lon="14.9163717"><ele>954.0</ele><time>2026-05-01T15:28:25.746Z</time></trkpt><trkpt lat="38.11276" lon="14.9163433"><ele>954.0</ele><time>2026-05-01T15:28:28.746Z</time></trkpt><trkpt lat="38.112835" lon="14.9163383"><ele>954.0</ele><time>2026-05-01T15:28:32.746Z</time></trkpt><trkpt lat="38.112905" lon="14.916305"><ele>954.0</ele><time>2026-05-01T15:28:36.746Z</time></trkpt><trkpt lat="38.1129667" lon="14.91627"><ele>954.0</ele><time>2026-05-01T15:28:38.746Z</time></trkpt><trkpt lat="38.1130417" lon="14.9162283"><ele>954.0</ele><time>2026-05-01T15:28:40.746Z</time></trkpt><trkpt lat="38.1131217" lon="14.9161933"><ele>954.0</ele><time>2026-05-01T15:28:42.746Z</time></trkpt><trkpt lat="38.11319" lon="14.9161767"><ele>949.0</ele><time>2026-05-01T15:28:44.746Z</time></trkpt><trkpt lat="38.1132533" lon="14.9161383"><ele>944.0</ele><time>2026-05-01T15:28:46.746Z</time></trkpt><trkpt lat="38.1133133" lon="14.9161033"><ele>939.0</ele><time>2026-05-01T15:28:48.746Z</time></trkpt><trkpt lat="38.1133833" lon="14.9160767"><ele>934.0</ele><time>2026-05-01T15:28:50.746Z</time></trkpt><trkpt lat="38.1134517" lon="14.9160367"><ele>929.0</ele><time>2026-05-01T15:28:52.746Z</time></trkpt><trkpt lat="38.1135283" lon="14.9160017"><ele>924.0</ele><time>2026-05-01T15:28:54.746Z</time></trkpt><trkpt lat="38.11361" lon="14.9159567"><ele>924.0</ele><time>2026-05-01T15:28:56.746Z</time></trkpt><trkpt lat="38.1137233" lon="14.915905"><ele>924.0000000000001</ele><time>2026-05-01T15:28:58.746Z</time></trkpt><trkpt lat="38.11382" lon="14.91584"><ele>924.0000000000001</ele><time>2026-05-01T15:29:00.745Z</time></trkpt><trkpt lat="38.1139083" lon="14.9157933"><ele>924.0</ele><time>2026-05-01T15:29:02.747Z</time></trkpt><trkpt lat="38.1139867" lon="14.9157483"><ele>924.0</ele><time>2026-05-01T15:29:04.747Z</time></trkpt><trkpt lat="38.1140483" lon="14.915705"><ele>919.0</ele><time>2026-05-01T15:29:06.747Z</time></trkpt><trkpt lat="38.1141267" lon="14.9156667"><ele>894.0</ele><time>2026-05-01T15:29:08.747Z</time></trkpt><trkpt lat="38.11419" lon="14.91567"><ele>894.0</ele><time>2026-05-01T15:29:10.747Z</time></trkpt><trkpt lat="38.1142317" lon="14.9157767"><ele>894.0</ele><time>2026-05-01T15:30:17.747Z</time></trkpt></trkseg></trk></gpx>